<?xml version='1.0' encoding='UTF-8'?><gpx version="1.1" creator="JPX - https://github.com/jenetics/jpx" xmlns="http://www.topografix.com/GPX/1/1"><trk><trkseg><trkpt lat="45.6775672" lon="13.7581129"><ele>40.0</ele><time>2026-04-25T07:54:34.071Z</time></trkpt><trkpt lat="45.6775103" lon="13.7580363"><ele>40.0</ele><time>2026-04-25T07:54:35.089Z</time></trkpt><trkpt lat="45.6774378" lon="13.7579287"><ele>40.0</ele><time>2026-04-25T07:54:36.091Z</time></trkpt><trkpt lat="45.6773661" lon="13.7578089"><ele>40.0</ele><time>2026-04-25T07:54:37.08Z</time></trkpt><trkpt lat="45.6772916" lon="13.7576839"><ele>40.0</ele><time>2026-04-25T07:54:38.08Z</time></trkpt><trkpt lat="45.6772178" lon="13.7575556"><ele>37.25</ele><time>2026-04-25T07:54:39.078Z</time></trkpt><trkpt lat="45.6771317" lon="13.7574217"><ele>34.5</ele><time>2026-04-25T07:54:40.08Z</time></trkpt><trkpt lat="45.677037" lon="13.7572867"><ele>31.75</ele><time>2026-04-25T07:54:41.086Z</time></trkpt><trkpt lat="45.6769316" lon="13.7571466"><ele>29.0</ele><time>2026-04-25T07:54:42.086Z</time></trkpt><trkpt lat="45.6768256" lon="13.7570059"><ele>33.25</ele><time>2026-04-25T07:54:43.092Z</time></trkpt><trkpt lat="45.6767276" lon="13.756879"><ele>37.5</ele><time>2026-04-25T07:54:44.084Z</time></trkpt><trkpt lat="45.6766316" lon="13.7567666"><ele>41.75</ele><time>2026-04-25T07:54:45.077Z</time></trkpt><trkpt lat="45.676542" lon="13.7566498"><ele>46.0</ele><time>2026-04-25T07:54:46.084Z</time></trkpt><trkpt lat="45.6764544" lon="13.7565358"><ele>46.0</ele><time>2026-04-25T07:54:47.105Z</time></trkpt><trkpt lat="45.6763755" lon="13.7564319"><ele>46.0</ele><time>2026-04-25T07:54:48.085Z</time></trkpt><trkpt lat="45.6762771" lon="13.7563425"><ele>46.0</ele><time>2026-04-25T07:54:49.08Z</time></trkpt><trkpt lat="45.6761841" lon="13.7562831"><ele>46.0</ele><time>2026-04-25T07:54:50.089Z</time></trkpt><trkpt lat="45.6761039" lon="13.7562589"><ele>46.0</ele><time>2026-04-25T07:54:51.087Z</time></trkpt><trkpt lat="45.6760096" lon="13.7563005"><ele>46.0</ele><time>2026-04-25T07:54:53.087Z</time></trkpt><trkpt lat="45.6760354" lon="13.7564469"><ele>46.0</ele><time>2026-04-25T07:54:55.078Z</time></trkpt><trkpt lat="45.6760968" lon="13.7565239"><ele>46.0</ele><time>2026-04-25T07:54:56.08Z</time></trkpt><trkpt lat="45.6761793" lon="13.7565943"><ele>46.0</ele><time>2026-04-25T07:54:57.11Z</time></trkpt><trkpt lat="45.6762666" lon="13.7567073"><ele>46.0</ele><time>2026-04-25T07:54:58.098Z</time></trkpt><trkpt lat="45.6763403" lon="13.7568582"><ele>50.333333333333336</ele><time>2026-04-25T07:54:59.122Z</time></trkpt><trkpt lat="45.6764153" lon="13.7570287"><ele>54.66666666666667</ele><time>2026-04-25T07:55:00.088Z</time></trkpt><trkpt lat="45.6764936" lon="13.7572074"><ele>59.0</ele><time>2026-04-25T07:55:01.093Z</time></trkpt><trkpt lat="45.6765811" lon="13.7574092"><ele>59.0</ele><time>2026-04-25T07:55:02.093Z</time></trkpt><trkpt lat="45.6766736" lon="13.7576213"><ele>59.0</ele><time>2026-04-25T07:55:03.114Z</time></trkpt><trkpt lat="45.6767706" lon="13.7578151"><ele>59.0</ele><time>2026-04-25T07:55:04.103Z</time></trkpt><trkpt lat="45.6768479" lon="13.7579793"><ele>57.400000000000006</ele><time>2026-04-25T07:55:05.124Z</time></trkpt><trkpt lat="45.6769199" lon="13.7581316"><ele>55.800000000000004</ele><time>2026-04-25T07:55:06.103Z</time></trkpt><trkpt lat="45.6769784" lon="13.7582701"><ele>54.2</ele><time>2026-04-25T07:55:07.108Z</time></trkpt><trkpt lat="45.6770277" lon="13.7584042"><ele>52.599999999999994</ele><time>2026-04-25T07:55:08.085Z</time></trkpt><trkpt lat="45.6770646" lon="13.7585372"><ele>51.0</ele><time>2026-04-25T07:55:09.088Z</time></trkpt><trkpt lat="45.6770909" lon="13.7586465"><ele>51.0</ele><time>2026-04-25T07:55:10.099Z</time></trkpt><trkpt lat="45.6771152" lon="13.758772"><ele>51.0</ele><time>2026-04-25T07:55:12.092Z</time></trkpt><trkpt lat="45.6770504" lon="13.7587537"><ele>51.0</ele><time>2026-04-25T07:55:15.088Z</time></trkpt><trkpt lat="45.6770275" lon="13.7586657"><ele>51.0</ele><time>2026-04-25T07:55:16.088Z</time></trkpt><trkpt lat="45.6769991" lon="13.7585552"><ele>51.0</ele><time>2026-04-25T07:55:17.099Z</time></trkpt><trkpt lat="45.6769365" lon="13.7584233"><ele>51.0</ele><time>2026-04-25T07:55:18.095Z</time></trkpt><trkpt lat="45.6768658" lon="13.7583049"><ele>57.25</ele><time>2026-04-25T07:55:19.094Z</time></trkpt><trkpt lat="45.6767772" lon="13.7581958"><ele>63.5</ele><time>2026-04-25T07:55:20.088Z</time></trkpt><trkpt lat="45.6766674" lon="13.7580803"><ele>69.75</ele><time>2026-04-25T07:55:21.093Z</time></trkpt><trkpt lat="45.6765613" lon="13.7579651"><ele>76.0</ele><time>2026-04-25T07:55:22.1Z</time></trkpt><trkpt lat="45.6764765" lon="13.7578668"><ele>76.0</ele><time>2026-04-25T07:55:23.089Z</time></trkpt><trkpt lat="45.6764199" lon="13.7578233"><ele>76.0</ele><time>2026-04-25T07:55:24.1Z</time></trkpt><trkpt lat="45.6763661" lon="13.757893"><ele>76.0</ele><time>2026-04-25T07:55:26.094Z</time></trkpt><trkpt lat="45.6763863" lon="13.7579875"><ele>76.0</ele><time>2026-04-25T07:55:27.085Z</time></trkpt><trkpt lat="45.6764197" lon="13.7580902"><ele>76.0</ele><time>2026-04-25T07:55:28.093Z</time></trkpt><trkpt lat="45.676441" lon="13.7582184"><ele>76.0</ele><time>2026-04-25T07:55:29.083Z</time></trkpt><trkpt lat="45.6764321" lon="13.7583691"><ele>78.25</ele><time>2026-04-25T07:55:30.095Z</time></trkpt><trkpt lat="45.6764237" lon="13.7585351"><ele>80.5</ele><time>2026-04-25T07:55:31.093Z</time></trkpt><trkpt lat="45.6764459" lon="13.7587117"><ele>82.75</ele><time>2026-04-25T07:55:32.094Z</time></trkpt><trkpt lat="45.6764863" lon="13.758892"><ele>85.0</ele><time>2026-04-25T07:55:33.091Z</time></trkpt><trkpt lat="45.6765089" lon="13.7590681"><ele>85.0</ele><time>2026-04-25T07:55:34.092Z</time></trkpt><trkpt lat="45.6765102" lon="13.7592334"><ele>85.0</ele><time>2026-04-25T07:55:35.094Z</time></trkpt><trkpt lat="45.676492" lon="13.7594029"><ele>85.0</ele><time>2026-04-25T07:55:36.091Z</time></trkpt><trkpt lat="45.6764501" lon="13.7595782"><ele>85.0</ele><time>2026-04-25T07:55:37.096Z</time></trkpt><trkpt lat="45.6763855" lon="13.7597546"><ele>85.33333333333333</ele><time>2026-04-25T07:55:38.089Z</time></trkpt><trkpt lat="45.6763145" lon="13.7599324"><ele>85.66666666666667</ele><time>2026-04-25T07:55:39.089Z</time></trkpt><trkpt lat="45.6762365" lon="13.7601258"><ele>86.0</ele><time>2026-04-25T07:55:40.103Z</time></trkpt><trkpt lat="45.6761617" lon="13.7603279"><ele>97.66666666666667</ele><time>2026-04-25T07:55:41.091Z</time></trkpt><trkpt lat="45.6760905" lon="13.7605293"><ele>109.33333333333334</ele><time>2026-04-25T07:55:42.087Z</time></trkpt><trkpt lat="45.6760199" lon="13.7607366"><ele>121.0</ele><time>2026-04-25T07:55:43.09Z</time></trkpt><trkpt lat="45.675938" lon="13.7609397"><ele>119.66666666666667</ele><time>2026-04-25T07:55:44.089Z</time></trkpt><trkpt lat="45.6758418" lon="13.7611374"><ele>118.33333333333334</ele><time>2026-04-25T07:55:45.088Z</time></trkpt><trkpt lat="45.6757379" lon="13.761327"><ele>117.0</ele><time>2026-04-25T07:55:46.081Z</time></trkpt><trkpt lat="45.6756401" lon="13.7615163"><ele>117.0</ele><time>2026-04-25T07:55:47.086Z</time></trkpt><trkpt lat="45.675532" lon="13.7617019"><ele>117.0</ele><time>2026-04-25T07:55:48.087Z</time></trkpt><trkpt lat="45.6754294" lon="13.7618945"><ele>117.0</ele><time>2026-04-25T07:55:49.099Z</time></trkpt><trkpt lat="45.6753332" lon="13.7620852"><ele>126.0</ele><time>2026-04-25T07:55:50.097Z</time></trkpt><trkpt lat="45.6752361" lon="13.7622834"><ele>135.0</ele><time>2026-04-25T07:55:51.09Z</time></trkpt><trkpt lat="45.6751362" lon="13.7624778"><ele>144.0</ele><time>2026-04-25T07:55:52.093Z</time></trkpt><trkpt lat="45.6750305" lon="13.7626557"><ele>148.0</ele><time>2026-04-25T07:55:53.091Z</time></trkpt><trkpt lat="45.6749151" lon="13.7628209"><ele>152.0</ele><time>2026-04-25T07:55:54.106Z</time></trkpt><trkpt lat="45.6747989" lon="13.7629771"><ele>156.0</ele><time>2026-04-25T07:55:55.087Z</time></trkpt><trkpt lat="45.6746901" lon="13.7631268"><ele>156.0</ele><time>2026-04-25T07:55:56.096Z</time></trkpt><trkpt lat="45.6745887" lon="13.7632798"><ele>156.0</ele><time>2026-04-25T07:55:57.097Z</time></trkpt><trkpt lat="45.6745029" lon="13.7634404"><ele>156.0</ele><time>2026-04-25T07:55:58.091Z</time></trkpt><trkpt lat="45.6744391" lon="13.763594"><ele>156.0</ele><time>2026-04-25T07:55:59.095Z</time></trkpt><trkpt lat="45.6744078" lon="13.7637304"><ele>159.2</ele><time>2026-04-25T07:56:00.096Z</time></trkpt><trkpt lat="45.6743885" lon="13.7638423"><ele>162.39999999999998</ele><time>2026-04-25T07:56:01.097Z</time></trkpt><trkpt lat="45.6743666" lon="13.7639502"><ele>165.6</ele><time>2026-04-25T07:56:02.102Z</time></trkpt><trkpt lat="45.6743405" lon="13.764067"><ele>168.79999999999998</ele><time>2026-04-25T07:56:03.105Z</time></trkpt><trkpt lat="45.6743205" lon="13.7642274"><ele>172.0</ele><time>2026-04-25T07:56:04.103Z</time></trkpt><trkpt lat="45.6743241" lon="13.7644023"><ele>173.5</ele><time>2026-04-25T07:56:05.095Z</time></trkpt><trkpt lat="45.6743655" lon="13.7645938"><ele>175.0</ele><time>2026-04-25T07:56:06.1Z</time></trkpt><trkpt lat="45.6744249" lon="13.7647916"><ele>176.5</ele><time>2026-04-25T07:56:07.104Z</time></trkpt><trkpt lat="45.674508" lon="13.7649807"><ele>178.0</ele><time>2026-04-25T07:56:08.095Z</time></trkpt><trkpt lat="45.6746273" lon="13.765155"><ele>181.0</ele><time>2026-04-25T07:56:09.096Z</time></trkpt><trkpt lat="45.6747502" lon="13.765332"><ele>184.0</ele><time>2026-04-25T07:56:10.091Z</time></trkpt><trkpt lat="45.6748748" lon="13.7655342"><ele>187.0</ele><time>2026-04-25T07:56:11.097Z</time></trkpt><trkpt lat="45.6749828" lon="13.7657577"><ele>187.0</ele><time>2026-04-25T07:56:12.09Z</time></trkpt><trkpt lat="45.6750976" lon="13.7659911"><ele>187.0</ele><time>2026-04-25T07:56:13.088Z</time></trkpt><trkpt lat="45.675209" lon="13.766225"><ele>187.0</ele><time>2026-04-25T07:56:14.092Z</time></trkpt><trkpt lat="45.6753281" lon="13.7664536"><ele>191.33333333333334</ele><time>2026-04-25T07:56:15.088Z</time></trkpt><trkpt lat="45.6754551" lon="13.7666813"><ele>195.66666666666669</ele><time>2026-04-25T07:56:16.088Z</time></trkpt><trkpt lat="45.6755878" lon="13.7668954"><ele>200.0</ele><time>2026-04-25T07:56:17.087Z</time></trkpt><trkpt lat="45.6757233" lon="13.7671014"><ele>202.66666666666669</ele><time>2026-04-25T07:56:18.084Z</time></trkpt><trkpt lat="45.6758546" lon="13.7673085"><ele>205.33333333333331</ele><time>2026-04-25T07:56:19.096Z</time></trkpt><trkpt lat="45.6759763" lon="13.7675092"><ele>208.0</ele><time>2026-04-25T07:56:20.088Z</time></trkpt><trkpt lat="45.6761002" lon="13.7677146"><ele>212.0</ele><time>2026-04-25T07:56:21.082Z</time></trkpt><trkpt lat="45.6762282" lon="13.7679172"><ele>216.0</ele><time>2026-04-25T07:56:22.085Z</time></trkpt><trkpt lat="45.6763597" lon="13.7681294"><ele>220.0</ele><time>2026-04-25T07:56:23.091Z</time></trkpt><trkpt lat="45.6764942" lon="13.7683487"><ele>221.0</ele><time>2026-04-25T07:56:24.091Z</time></trkpt><trkpt lat="45.6766282" lon="13.7685703"><ele>222.0</ele><time>2026-04-25T07:56:25.094Z</time></trkpt><trkpt lat="45.676766" lon="13.7687986"><ele>223.0</ele><time>2026-04-25T07:56:26.086Z</time></trkpt><trkpt lat="45.676904" lon="13.7690229"><ele>225.66666666666666</ele><time>2026-04-25T07:56:27.093Z</time></trkpt><trkpt lat="45.6770432" lon="13.769245"><ele>228.33333333333331</ele><time>2026-04-25T07:56:28.092Z</time></trkpt><trkpt lat="45.6771921" lon="13.7694552"><ele>231.0</ele><time>2026-04-25T07:56:29.095Z</time></trkpt><trkpt lat="45.6773445" lon="13.7696604"><ele>232.66666666666669</ele><time>2026-04-25T07:56:30.094Z</time></trkpt><trkpt lat="45.6774994" lon="13.7698657"><ele>234.33333333333334</ele><time>2026-04-25T07:56:31.092Z</time></trkpt><trkpt lat="45.6776526" lon="13.7700641"><ele>236.0</ele><time>2026-04-25T07:56:32.089Z</time></trkpt><trkpt lat="45.6778051" lon="13.7702294"><ele>241.0</ele><time>2026-04-25T07:56:33.091Z</time></trkpt><trkpt lat="45.6779604" lon="13.7703718"><ele>246.0</ele><time>2026-04-25T07:56:34.091Z</time></trkpt><trkpt lat="45.6781224" lon="13.7704738"><ele>251.0</ele><time>2026-04-25T07:56:35.092Z</time></trkpt><trkpt lat="45.6782945" lon="13.77056"><ele>251.0</ele><time>2026-04-25T07:56:36.096Z</time></trkpt><trkpt lat="45.6784631" lon="13.7706376"><ele>251.0</ele><time>2026-04-25T07:56:37.093Z</time></trkpt><trkpt lat="45.6786055" lon="13.7707317"><ele>251.0</ele><time>2026-04-25T07:56:38.098Z</time></trkpt><trkpt lat="45.6787253" lon="13.7708407"><ele>252.20000000000002</ele><time>2026-04-25T07:56:39.098Z</time></trkpt><trkpt lat="45.6788267" lon="13.7709496"><ele>253.40000000000003</ele><time>2026-04-25T07:56:40.094Z</time></trkpt><trkpt lat="45.678914" lon="13.7710427"><ele>254.6</ele><time>2026-04-25T07:56:41.094Z</time></trkpt><trkpt lat="45.6789842" lon="13.771139"><ele>255.8</ele><time>2026-04-25T07:56:42.093Z</time></trkpt><trkpt lat="45.6790324" lon="13.771217"><ele>257.0</ele><time>2026-04-25T07:56:43.097Z</time></trkpt><trkpt lat="45.6790782" lon="13.7712818"><ele>258.0</ele><time>2026-04-25T07:57:00.091Z</time></trkpt><trkpt lat="45.679158" lon="13.7713601"><ele>259.0</ele><time>2026-04-25T07:57:35.11Z</time></trkpt><trkpt lat="45.679216" lon="13.7714092"><ele>260.0</ele><time>2026-04-25T07:57:36.102Z</time></trkpt><trkpt lat="45.679277" lon="13.7714587"><ele>261.0</ele><time>2026-04-25T07:57:37.093Z</time></trkpt><trkpt lat="45.6793321" lon="13.7715408"><ele>262.0</ele><time>2026-04-25T07:57:38.098Z</time></trkpt><trkpt lat="45.6793715" lon="13.7716598"><ele>263.0</ele><time>2026-04-25T07:57:39.095Z</time></trkpt><trkpt lat="45.6793991" lon="13.7718039"><ele>267.0</ele><time>2026-04-25T07:57:40.099Z</time></trkpt><trkpt lat="45.6794442" lon="13.7719463"><ele>271.0</ele><time>2026-04-25T07:57:41.106Z</time></trkpt><trkpt lat="45.6795072" lon="13.7720716"><ele>275.0</ele><time>2026-04-25T07:57:42.107Z</time></trkpt><trkpt lat="45.6795936" lon="13.772183"><ele>279.0</ele><time>2026-04-25T07:57:43.097Z</time></trkpt><trkpt lat="45.6796943" lon="13.7722955"><ele>279.0</ele><time>2026-04-25T07:57:44.1Z</time></trkpt><trkpt lat="45.6798019" lon="13.7724188"><ele>279.0</ele><time>2026-04-25T07:57:45.102Z</time></trkpt><trkpt lat="45.6799127" lon="13.772547"><ele>279.0</ele><time>2026-04-25T07:57:46.103Z</time></trkpt><trkpt lat="45.6800231" lon="13.7726609"><ele>279.0</ele><time>2026-04-25T07:57:47.109Z</time></trkpt><trkpt lat="45.680137" lon="13.7727753"><ele>280.0</ele><time>2026-04-25T07:57:48.102Z</time></trkpt><trkpt lat="45.6802406" lon="13.772883"><ele>281.0</ele><time>2026-04-25T07:57:49.099Z</time></trkpt><trkpt lat="45.6803282" lon="13.7730161"><ele>282.0</ele><time>2026-04-25T07:57:50.108Z</time></trkpt><trkpt lat="45.6803963" lon="13.7731803"><ele>283.0</ele><time>2026-04-25T07:57:51.096Z</time></trkpt><trkpt lat="45.6804445" lon="13.7733549"><ele>288.5</ele><time>2026-04-25T07:57:52.087Z</time></trkpt><trkpt lat="45.6804603" lon="13.7735441"><ele>294.0</ele><time>2026-04-25T07:57:53.102Z</time></trkpt><trkpt lat="45.6804391" lon="13.7737586"><ele>299.5</ele><time>2026-04-25T07:57:54.092Z</time></trkpt><trkpt lat="45.6803951" lon="13.7739765"><ele>305.0</ele><time>2026-04-25T07:57:55.088Z</time></trkpt><trkpt lat="45.6803347" lon="13.7742009"><ele>309.6666666666667</ele><time>2026-04-25T07:57:56.089Z</time></trkpt><trkpt lat="45.6802916" lon="13.7744405"><ele>314.3333333333333</ele><time>2026-04-25T07:57:57.098Z</time></trkpt><trkpt lat="45.6802542" lon="13.7746857"><ele>319.0</ele><time>2026-04-25T07:57:58.094Z</time></trkpt><trkpt lat="45.6802203" lon="13.774942"><ele>312.3333333333333</ele><time>2026-04-25T07:57:59.094Z</time></trkpt><trkpt lat="45.68018" lon="13.7752062"><ele>305.6666666666667</ele><time>2026-04-25T07:58:00.093Z</time></trkpt><trkpt lat="45.6801179" lon="13.7754733"><ele>299.0</ele><time>2026-04-25T07:58:01.095Z</time></trkpt><trkpt lat="45.6800407" lon="13.7757428"><ele>299.0</ele><time>2026-04-25T07:58:02.101Z</time></trkpt><trkpt lat="45.679961" lon="13.7760102"><ele>299.0</ele><time>2026-04-25T07:58:03.093Z</time></trkpt><trkpt lat="45.6798776" lon="13.7762788"><ele>299.0</ele><time>2026-04-25T07:58:04.108Z</time></trkpt><trkpt lat="45.6797824" lon="13.776524"><ele>301.6666666666667</ele><time>2026-04-25T07:58:05.094Z</time></trkpt><trkpt lat="45.6796583" lon="13.7767391"><ele>304.3333333333333</ele><time>2026-04-25T07:58:06.094Z</time></trkpt><trkpt lat="45.6795292" lon="13.7769397"><ele>307.0</ele><time>2026-04-25T07:58:07.087Z</time></trkpt><trkpt lat="45.6794224" lon="13.7771535"><ele>307.0</ele><time>2026-04-25T07:58:08.083Z</time></trkpt><trkpt lat="45.679357" lon="13.7773883"><ele>307.0</ele><time>2026-04-25T07:58:09.095Z</time></trkpt><trkpt lat="45.6793266" lon="13.7776308"><ele>307.0</ele><time>2026-04-25T07:58:10.09Z</time></trkpt><trkpt lat="45.6793141" lon="13.777887"><ele>309.0</ele><time>2026-04-25T07:58:11.108Z</time></trkpt><trkpt lat="45.6793178" lon="13.7781559"><ele>311.0</ele><time>2026-04-25T07:58:12.099Z</time></trkpt><trkpt lat="45.6793253" lon="13.7784264"><ele>313.0</ele><time>2026-04-25T07:58:13.097Z</time></trkpt><trkpt lat="45.6793397" lon="13.7786997"><ele>314.0</ele><time>2026-04-25T07:58:14.089Z</time></trkpt><trkpt lat="45.6793618" lon="13.7789746"><ele>315.0</ele><time>2026-04-25T07:58:15.094Z</time></trkpt><trkpt lat="45.6793863" lon="13.7792606"><ele>316.0</ele><time>2026-04-25T07:58:16.092Z</time></trkpt><trkpt lat="45.6794124" lon="13.7795451"><ele>317.0</ele><time>2026-04-25T07:58:17.091Z</time></trkpt><trkpt lat="45.6794322" lon="13.779831"><ele>318.0</ele><time>2026-04-25T07:58:18.098Z</time></trkpt><trkpt lat="45.6794472" lon="13.7801138"><ele>319.0</ele><time>2026-04-25T07:58:19.09Z</time></trkpt><trkpt lat="45.6794565" lon="13.7803682"><ele>325.75</ele><time>2026-04-25T07:58:20.092Z</time></trkpt><trkpt lat="45.6794569" lon="13.7805987"><ele>332.5</ele><time>2026-04-25T07:58:21.09Z</time></trkpt><trkpt lat="45.6794616" lon="13.7807991"><ele>339.25</ele><time>2026-04-25T07:58:22.097Z</time></trkpt><trkpt lat="45.6794672" lon="13.7809819"><ele>346.0</ele><time>2026-04-25T07:58:23.093Z</time></trkpt><trkpt lat="45.6794757" lon="13.7811127"><ele>346.0</ele><time>2026-04-25T07:58:24.098Z</time></trkpt><trkpt lat="45.6794885" lon="13.7812049"><ele>346.0</ele><time>2026-04-25T07:58:25.095Z</time></trkpt><trkpt lat="45.6795395" lon="13.7812623"><ele>346.0</ele><time>2026-04-25T07:58:27.096Z</time></trkpt><trkpt lat="45.6796603" lon="13.7812988"><ele>346.0</ele><time>2026-04-25T08:00:06.096Z</time></trkpt><trkpt lat="45.679737" lon="13.7812755"><ele>346.0</ele><time>2026-04-25T08:00:07.109Z</time></trkpt><trkpt lat="45.6798398" lon="13.7812422"><ele>346.0</ele><time>2026-04-25T08:00:08.106Z</time></trkpt><trkpt lat="45.6799492" lon="13.7812205"><ele>346.0</ele><time>2026-04-25T08:00:09.108Z</time></trkpt><trkpt lat="45.6800828" lon="13.7812393"><ele>346.0</ele><time>2026-04-25T08:00:10.112Z</time></trkpt><trkpt lat="45.6802347" lon="13.7812764"><ele>346.0</ele><time>2026-04-25T08:00:11.119Z</time></trkpt><trkpt lat="45.6803884" lon="13.7813345"><ele>346.0</ele><time>2026-04-25T08:00:12.123Z</time></trkpt><trkpt lat="45.6805408" lon="13.7814073"><ele>345.66666666666663</ele><time>2026-04-25T08:00:13.119Z</time></trkpt><trkpt lat="45.6807011" lon="13.7814936"><ele>345.3333333333333</ele><time>2026-04-25T08:00:14.101Z</time></trkpt><trkpt lat="45.6808674" lon="13.7815995"><ele>345.0</ele><time>2026-04-25T08:00:15.102Z</time></trkpt><trkpt lat="45.6810346" lon="13.7817264"><ele>342.0</ele><time>2026-04-25T08:00:16.107Z</time></trkpt><trkpt lat="45.6811992" lon="13.7818662"><ele>339.0</ele><time>2026-04-25T08:00:17.107Z</time></trkpt><trkpt lat="45.6813601" lon="13.7820077"><ele>336.0</ele><time>2026-04-25T08:00:18.116Z</time></trkpt><trkpt lat="45.6815113" lon="13.7821341"><ele>336.0</ele><time>2026-04-25T08:00:19.105Z</time></trkpt><trkpt lat="45.6816573" lon="13.7822448"><ele>336.0</ele><time>2026-04-25T08:00:20.096Z</time></trkpt><trkpt lat="45.6817986" lon="13.7823416"><ele>336.0</ele><time>2026-04-25T08:00:21.111Z</time></trkpt><trkpt lat="45.6819421" lon="13.7824406"><ele>336.25</ele><time>2026-04-25T08:00:22.115Z</time></trkpt><trkpt lat="45.682078" lon="13.78255"><ele>336.5</ele><time>2026-04-25T08:00:23.099Z</time></trkpt><trkpt lat="45.6821955" lon="13.7826482"><ele>336.75</ele><time>2026-04-25T08:00:24.12Z</time></trkpt><trkpt lat="45.6822788" lon="13.7827192"><ele>337.0</ele><time>2026-04-25T08:00:25.116Z</time></trkpt><trkpt lat="45.6823382" lon="13.7827767"><ele>337.20000000000005</ele><time>2026-04-25T08:00:26.117Z</time></trkpt><trkpt lat="45.682409" lon="13.7828309"><ele>337.4</ele><time>2026-04-25T08:00:27.113Z</time></trkpt><trkpt lat="45.6825072" lon="13.7828906"><ele>337.6</ele><time>2026-04-25T08:00:28.122Z</time></trkpt><trkpt lat="45.6826069" lon="13.7829692"><ele>337.79999999999995</ele><time>2026-04-25T08:00:29.109Z</time></trkpt><trkpt lat="45.6826895" lon="13.7830515"><ele>338.0</ele><time>2026-04-25T08:00:30.124Z</time></trkpt><trkpt lat="45.6827438" lon="13.7831235"><ele>337.79999999999995</ele><time>2026-04-25T08:00:31.11Z</time></trkpt><trkpt lat="45.6828117" lon="13.7832176"><ele>337.6</ele><time>2026-04-25T08:00:33.122Z</time></trkpt><trkpt lat="45.6828679" lon="13.7833027"><ele>337.4</ele><time>2026-04-25T08:00:35.107Z</time></trkpt><trkpt lat="45.6829152" lon="13.7834329"><ele>337.20000000000005</ele><time>2026-04-25T08:00:37.11Z</time></trkpt><trkpt lat="45.682927" lon="13.7835466"><ele>337.0</ele><time>2026-04-25T08:00:38.118Z</time></trkpt><trkpt lat="45.6829135" lon="13.7836959"><ele>337.0</ele><time>2026-04-25T08:00:39.104Z</time></trkpt><trkpt lat="45.6828823" lon="13.7838662"><ele>337.0</ele><time>2026-04-25T08:00:40.101Z</time></trkpt><trkpt lat="45.682834" lon="13.7840392"><ele>337.0</ele><time>2026-04-25T08:00:41.1Z</time></trkpt><trkpt lat="45.6827632" lon="13.7842318"><ele>337.0</ele><time>2026-04-25T08:00:42.11Z</time></trkpt><trkpt lat="45.6826835" lon="13.7844378"><ele>337.66666666666663</ele><time>2026-04-25T08:00:43.112Z</time></trkpt><trkpt lat="45.6826069" lon="13.7846592"><ele>338.3333333333333</ele><time>2026-04-25T08:00:44.113Z</time></trkpt><trkpt lat="45.6825358" lon="13.7849018"><ele>339.0</ele><time>2026-04-25T08:00:45.1Z</time></trkpt><trkpt lat="45.6824739" lon="13.7851533"><ele>339.3333333333333</ele><time>2026-04-25T08:00:46.107Z</time></trkpt><trkpt lat="45.6824168" lon="13.7854079"><ele>339.66666666666663</ele><time>2026-04-25T08:00:47.114Z</time></trkpt><trkpt lat="45.68236" lon="13.7856645"><ele>340.0</ele><time>2026-04-25T08:00:48.105Z</time></trkpt><trkpt lat="45.6823069" lon="13.7859285"><ele>340.0</ele><time>2026-04-25T08:00:49.107Z</time></trkpt><trkpt lat="45.6822551" lon="13.7862034"><ele>340.0</ele><time>2026-04-25T08:00:50.107Z</time></trkpt><trkpt lat="45.682211" lon="13.7864749"><ele>340.0</ele><time>2026-04-25T08:00:51.102Z</time></trkpt><trkpt lat="45.6821735" lon="13.7867523"><ele>340.0</ele><time>2026-04-25T08:00:52.097Z</time></trkpt><trkpt lat="45.682137" lon="13.7870266"><ele>340.0</ele><time>2026-04-25T08:00:53.103Z</time></trkpt><trkpt lat="45.6821003" lon="13.7873068"><ele>340.0</ele><time>2026-04-25T08:00:54.105Z</time></trkpt><trkpt lat="45.6820674" lon="13.7875863"><ele>340.66666666666663</ele><time>2026-04-25T08:00:55.103Z</time></trkpt><trkpt lat="45.6820382" lon="13.7878635"><ele>341.3333333333333</ele><time>2026-04-25T08:00:56.108Z</time></trkpt><trkpt lat="45.6820072" lon="13.788143"><ele>342.0</ele><time>2026-04-25T08:00:57.106Z</time></trkpt><trkpt lat="45.6819776" lon="13.7884215"><ele>342.6666666666667</ele><time>2026-04-25T08:00:58.1Z</time></trkpt><trkpt lat="45.6819459" lon="13.7886962"><ele>343.33333333333337</ele><time>2026-04-25T08:00:59.103Z</time></trkpt><trkpt lat="45.6819143" lon="13.7889754"><ele>344.0</ele><time>2026-04-25T08:01:00.104Z</time></trkpt><trkpt lat="45.6818814" lon="13.7892557"><ele>344.6666666666667</ele><time>2026-04-25T08:01:01.106Z</time></trkpt><trkpt lat="45.6818489" lon="13.789539"><ele>345.3333333333333</ele><time>2026-04-25T08:01:02.108Z</time></trkpt><trkpt lat="45.6818185" lon="13.7898278"><ele>346.0</ele><time>2026-04-25T08:01:03.104Z</time></trkpt><trkpt lat="45.6817902" lon="13.7901094"><ele>346.66666666666663</ele><time>2026-04-25T08:01:04.105Z</time></trkpt><trkpt lat="45.6817616" lon="13.7903918"><ele>347.3333333333333</ele><time>2026-04-25T08:01:05.105Z</time></trkpt><trkpt lat="45.6817326" lon="13.79067"><ele>348.0</ele><time>2026-04-25T08:01:06.106Z</time></trkpt><trkpt lat="45.6817027" lon="13.7909496"><ele>348.3333333333333</ele><time>2026-04-25T08:01:07.102Z</time></trkpt><trkpt lat="45.6816705" lon="13.7912274"><ele>348.66666666666663</ele><time>2026-04-25T08:01:08.11Z</time></trkpt><trkpt lat="45.681639" lon="13.7915029"><ele>349.0</ele><time>2026-04-25T08:01:09.107Z</time></trkpt><trkpt lat="45.6816051" lon="13.7917799"><ele>348.66666666666663</ele><time>2026-04-25T08:01:10.108Z</time></trkpt><trkpt lat="45.6815714" lon="13.7920511"><ele>348.3333333333333</ele><time>2026-04-25T08:01:11.103Z</time></trkpt><trkpt lat="45.6815417" lon="13.7923222"><ele>348.0</ele><time>2026-04-25T08:01:12.104Z</time></trkpt><trkpt lat="45.6815157" lon="13.7925993"><ele>348.3333333333333</ele><time>2026-04-25T08:01:13.096Z</time></trkpt><trkpt lat="45.6814917" lon="13.7928691"><ele>348.66666666666663</ele><time>2026-04-25T08:01:14.103Z</time></trkpt><trkpt lat="45.6814688" lon="13.7931401"><ele>349.0</ele><time>2026-04-25T08:01:15.094Z</time></trkpt><trkpt lat="45.6814419" lon="13.7934143"><ele>348.66666666666663</ele><time>2026-04-25T08:01:16.106Z</time></trkpt><trkpt lat="45.6814106" lon="13.7936867"><ele>348.3333333333333</ele><time>2026-04-25T08:01:17.094Z</time></trkpt><trkpt lat="45.6813769" lon="13.7939597"><ele>348.0</ele><time>2026-04-25T08:01:18.099Z</time></trkpt><trkpt lat="45.6813414" lon="13.7942358"><ele>347.3333333333333</ele><time>2026-04-25T08:01:19.098Z</time></trkpt><trkpt lat="45.6813016" lon="13.794514"><ele>346.66666666666663</ele><time>2026-04-25T08:01:20.1Z</time></trkpt><trkpt lat="45.6812666" lon="13.7947912"><ele>346.0</ele><time>2026-04-25T08:01:21.102Z</time></trkpt><trkpt lat="45.6812329" lon="13.7950661"><ele>346.66666666666663</ele><time>2026-04-25T08:01:22.1Z</time></trkpt><trkpt lat="45.6812003" lon="13.7953415"><ele>347.3333333333333</ele><time>2026-04-25T08:01:23.098Z</time></trkpt><trkpt lat="45.6811683" lon="13.7956194"><ele>348.0</ele><time>2026-04-25T08:01:24.092Z</time></trkpt><trkpt lat="45.6811381" lon="13.7959008"><ele>348.0</ele><time>2026-04-25T08:01:25.099Z</time></trkpt><trkpt lat="45.6811043" lon="13.7961729"><ele>348.0</ele><time>2026-04-25T08:01:26.098Z</time></trkpt><trkpt lat="45.6810733" lon="13.7964481"><ele>348.0</ele><time>2026-04-25T08:01:27.101Z</time></trkpt><trkpt lat="45.6810399" lon="13.7967235"><ele>350.3333333333333</ele><time>2026-04-25T08:01:28.098Z</time></trkpt><trkpt lat="45.6810068" lon="13.7969976"><ele>352.66666666666663</ele><time>2026-04-25T08:01:29.094Z</time></trkpt><trkpt lat="45.680975" lon="13.7972722"><ele>355.0</ele><time>2026-04-25T08:01:30.106Z</time></trkpt><trkpt lat="45.6809456" lon="13.7975392"><ele>355.0</ele><time>2026-04-25T08:01:31.102Z</time></trkpt><trkpt lat="45.6809125" lon="13.7978075"><ele>355.0</ele><time>2026-04-25T08:01:32.097Z</time></trkpt><trkpt lat="45.6808811" lon="13.7980779"><ele>355.0</ele><time>2026-04-25T08:01:33.105Z</time></trkpt><trkpt lat="45.6808484" lon="13.7983496"><ele>354.0</ele><time>2026-04-25T08:01:34.099Z</time></trkpt><trkpt lat="45.6808149" lon="13.7986192"><ele>353.0</ele><time>2026-04-25T08:01:35.1Z</time></trkpt><trkpt lat="45.6807786" lon="13.7988943"><ele>352.0</ele><time>2026-04-25T08:01:36.096Z</time></trkpt><trkpt lat="45.6807477" lon="13.7991668"><ele>352.0</ele><time>2026-04-25T08:01:37.097Z</time></trkpt><trkpt lat="45.6807185" lon="13.7994383"><ele>352.0</ele><time>2026-04-25T08:01:38.099Z</time></trkpt><trkpt lat="45.6806879" lon="13.7997134"><ele>352.0</ele><time>2026-04-25T08:01:39.101Z</time></trkpt><trkpt lat="45.680657" lon="13.7999897"><ele>352.0</ele><time>2026-04-25T08:01:40.101Z</time></trkpt><trkpt lat="45.6806248" lon="13.8002722"><ele>352.0</ele><time>2026-04-25T08:01:41.089Z</time></trkpt><trkpt lat="45.6805928" lon="13.8005573"><ele>352.0</ele><time>2026-04-25T08:01:42.092Z</time></trkpt><trkpt lat="45.6805632" lon="13.800845"><ele>351.66666666666663</ele><time>2026-04-25T08:01:43.096Z</time></trkpt><trkpt lat="45.680533" lon="13.8011372"><ele>351.3333333333333</ele><time>2026-04-25T08:01:44.099Z</time></trkpt><trkpt lat="45.6804993" lon="13.8014288"><ele>351.0</ele><time>2026-04-25T08:01:45.096Z</time></trkpt><trkpt lat="45.6804589" lon="13.8017224"><ele>351.0</ele><time>2026-04-25T08:01:46.107Z</time></trkpt><trkpt lat="45.6804121" lon="13.8020231"><ele>351.0</ele><time>2026-04-25T08:01:47.094Z</time></trkpt><trkpt lat="45.6803609" lon="13.8023188"><ele>351.0</ele><time>2026-04-25T08:01:48.095Z</time></trkpt><trkpt lat="45.6803108" lon="13.8026139"><ele>352.0</ele><time>2026-04-25T08:01:49.096Z</time></trkpt><trkpt lat="45.6802525" lon="13.802909"><ele>353.0</ele><time>2026-04-25T08:01:50.095Z</time></trkpt><trkpt lat="45.6801941" lon="13.8032005"><ele>354.0</ele><time>2026-04-25T08:01:51.098Z</time></trkpt><trkpt lat="45.6801345" lon="13.8034877"><ele>353.3333333333333</ele><time>2026-04-25T08:01:52.088Z</time></trkpt><trkpt lat="45.6800708" lon="13.8037748"><ele>352.66666666666663</ele><time>2026-04-25T08:01:53.098Z</time></trkpt><trkpt lat="45.6800065" lon="13.8040586"><ele>352.0</ele><time>2026-04-25T08:01:54.095Z</time></trkpt><trkpt lat="45.6799433" lon="13.8043474"><ele>350.66666666666663</ele><time>2026-04-25T08:01:55.097Z</time></trkpt><trkpt lat="45.6798722" lon="13.8046298"><ele>349.3333333333333</ele><time>2026-04-25T08:01:56.092Z</time></trkpt><trkpt lat="45.6797918" lon="13.8049049"><ele>348.0</ele><time>2026-04-25T08:01:57.096Z</time></trkpt><trkpt lat="45.6797088" lon="13.8051777"><ele>347.3333333333333</ele><time>2026-04-25T08:01:58.091Z</time></trkpt><trkpt lat="45.6796237" lon="13.8054472"><ele>346.66666666666663</ele><time>2026-04-25T08:01:59.092Z</time></trkpt><trkpt lat="45.6795402" lon="13.8057163"><ele>346.0</ele><time>2026-04-25T08:02:00.102Z</time></trkpt><trkpt lat="45.6794543" lon="13.8059875"><ele>347.0</ele><time>2026-04-25T08:02:01.102Z</time></trkpt><trkpt lat="45.6793617" lon="13.8062591"><ele>348.0</ele><time>2026-04-25T08:02:02.097Z</time></trkpt><trkpt lat="45.679268" lon="13.8065355"><ele>349.0</ele><time>2026-04-25T08:02:03.101Z</time></trkpt><trkpt lat="45.6791714" lon="13.8068046"><ele>348.0</ele><time>2026-04-25T08:02:04.098Z</time></trkpt><trkpt lat="45.6790677" lon="13.8070721"><ele>347.0</ele><time>2026-04-25T08:02:05.101Z</time></trkpt><trkpt lat="45.678963" lon="13.8073373"><ele>346.0</ele><time>2026-04-25T08:02:06.097Z</time></trkpt><trkpt lat="45.6788565" lon="13.8076041"><ele>345.3333333333333</ele><time>2026-04-25T08:02:07.094Z</time></trkpt><trkpt lat="45.6787468" lon="13.8078637"><ele>344.6666666666667</ele><time>2026-04-25T08:02:08.096Z</time></trkpt><trkpt lat="45.6786343" lon="13.8081195"><ele>344.0</ele><time>2026-04-25T08:02:09.099Z</time></trkpt><trkpt lat="45.6785174" lon="13.8083708"><ele>344.6666666666667</ele><time>2026-04-25T08:02:10.103Z</time></trkpt><trkpt lat="45.6783991" lon="13.8086189"><ele>345.3333333333333</ele><time>2026-04-25T08:02:11.095Z</time></trkpt><trkpt lat="45.6782766" lon="13.8088697"><ele>346.0</ele><time>2026-04-25T08:02:12.106Z</time></trkpt><trkpt lat="45.6781491" lon="13.8091255"><ele>345.3333333333333</ele><time>2026-04-25T08:02:13.1Z</time></trkpt><trkpt lat="45.6780226" lon="13.8093805"><ele>344.6666666666667</ele><time>2026-04-25T08:02:14.095Z</time></trkpt><trkpt lat="45.6778968" lon="13.8096321"><ele>344.0</ele><time>2026-04-25T08:02:15.093Z</time></trkpt><trkpt lat="45.677773" lon="13.8098813"><ele>344.6666666666667</ele><time>2026-04-25T08:02:16.092Z</time></trkpt><trkpt lat="45.6776529" lon="13.8101291"><ele>345.3333333333333</ele><time>2026-04-25T08:02:17.094Z</time></trkpt><trkpt lat="45.6775297" lon="13.8103802"><ele>346.0</ele><time>2026-04-25T08:02:18.09Z</time></trkpt><trkpt lat="45.6774112" lon="13.8106315"><ele>346.0</ele><time>2026-04-25T08:02:19.09Z</time></trkpt><trkpt lat="45.6772915" lon="13.8108815"><ele>346.0</ele><time>2026-04-25T08:02:20.09Z</time></trkpt><trkpt lat="45.6771695" lon="13.8111322"><ele>346.0</ele><time>2026-04-25T08:02:21.097Z</time></trkpt><trkpt lat="45.6770478" lon="13.811384"><ele>345.66666666666663</ele><time>2026-04-25T08:02:22.092Z</time></trkpt><trkpt lat="45.676924" lon="13.8116326"><ele>345.3333333333333</ele><time>2026-04-25T08:02:23.111Z</time></trkpt><trkpt lat="45.6768" lon="13.8118777"><ele>345.0</ele><time>2026-04-25T08:02:24.097Z</time></trkpt><trkpt lat="45.6766809" lon="13.8121252"><ele>345.0</ele><time>2026-04-25T08:02:25.092Z</time></trkpt><trkpt lat="45.6765605" lon="13.812374"><ele>345.0</ele><time>2026-04-25T08:02:26.092Z</time></trkpt><trkpt lat="45.6764381" lon="13.8126226"><ele>345.0</ele><time>2026-04-25T08:02:27.088Z</time></trkpt><trkpt lat="45.6763172" lon="13.8128736"><ele>345.0</ele><time>2026-04-25T08:02:28.093Z</time></trkpt><trkpt lat="45.6761937" lon="13.8131195"><ele>345.0</ele><time>2026-04-25T08:02:29.091Z</time></trkpt><trkpt lat="45.6760719" lon="13.8133653"><ele>345.0</ele><time>2026-04-25T08:02:30.099Z</time></trkpt><trkpt lat="45.6759481" lon="13.813612"><ele>345.0</ele><time>2026-04-25T08:02:31.095Z</time></trkpt><trkpt lat="45.6758277" lon="13.8138612"><ele>345.0</ele><time>2026-04-25T08:02:32.098Z</time></trkpt><trkpt lat="45.6757072" lon="13.8141097"><ele>345.0</ele><time>2026-04-25T08:02:33.089Z</time></trkpt><trkpt lat="45.6755883" lon="13.8143598"><ele>345.3333333333333</ele><time>2026-04-25T08:02:34.092Z</time></trkpt><trkpt lat="45.6754618" lon="13.8146143"><ele>345.66666666666663</ele><time>2026-04-25T08:02:35.092Z</time></trkpt><trkpt lat="45.6753337" lon="13.8148658"><ele>346.0</ele><time>2026-04-25T08:02:36.099Z</time></trkpt><trkpt lat="45.6752042" lon="13.8151187"><ele>345.0</ele><time>2026-04-25T08:02:37.09Z</time></trkpt><trkpt lat="45.6750786" lon="13.8153753"><ele>344.0</ele><time>2026-04-25T08:02:38.093Z</time></trkpt><trkpt lat="45.6749563" lon="13.8156299"><ele>343.0</ele><time>2026-04-25T08:02:39.096Z</time></trkpt><trkpt lat="45.674831" lon="13.8158928"><ele>342.0</ele><time>2026-04-25T08:02:40.098Z</time></trkpt><trkpt lat="45.6747064" lon="13.8161508"><ele>341.0</ele><time>2026-04-25T08:02:41.096Z</time></trkpt><trkpt lat="45.6745867" lon="13.8164077"><ele>340.0</ele><time>2026-04-25T08:02:42.096Z</time></trkpt><trkpt lat="45.6744646" lon="13.8166579"><ele>338.0</ele><time>2026-04-25T08:02:43.098Z</time></trkpt><trkpt lat="45.6743531" lon="13.8168948"><ele>336.0</ele><time>2026-04-25T08:02:44.095Z</time></trkpt><trkpt lat="45.6742439" lon="13.8171244"><ele>334.0</ele><time>2026-04-25T08:02:45.091Z</time></trkpt><trkpt lat="45.6741413" lon="13.817366"><ele>334.0</ele><time>2026-04-25T08:02:46.094Z</time></trkpt><trkpt lat="45.6740524" lon="13.8176128"><ele>334.0</ele><time>2026-04-25T08:02:47.095Z</time></trkpt><trkpt lat="45.6739722" lon="13.8178742"><ele>334.0</ele><time>2026-04-25T08:02:48.089Z</time></trkpt><trkpt lat="45.6739056" lon="13.8181372"><ele>334.0</ele><time>2026-04-25T08:02:49.11Z</time></trkpt><trkpt lat="45.6738448" lon="13.8184044"><ele>334.0</ele><time>2026-04-25T08:02:50.087Z</time></trkpt><trkpt lat="45.6737854" lon="13.8186734"><ele>334.0</ele><time>2026-04-25T08:02:51.098Z</time></trkpt><trkpt lat="45.6737225" lon="13.8189472"><ele>334.3333333333333</ele><time>2026-04-25T08:02:52.093Z</time></trkpt><trkpt lat="45.6736434" lon="13.8192077"><ele>334.6666666666667</ele><time>2026-04-25T08:02:53.088Z</time></trkpt><trkpt lat="45.6735379" lon="13.8194442"><ele>335.0</ele><time>2026-04-25T08:02:54.098Z</time></trkpt><trkpt lat="45.6734033" lon="13.8196604"><ele>335.0</ele><time>2026-04-25T08:02:55.092Z</time></trkpt><trkpt lat="45.6732394" lon="13.8198255"><ele>335.0</ele><time>2026-04-25T08:02:56.09Z</time></trkpt><trkpt lat="45.6730682" lon="13.8199846"><ele>335.0</ele><time>2026-04-25T08:02:57.091Z</time></trkpt><trkpt lat="45.6728902" lon="13.8201369"><ele>336.0</ele><time>2026-04-25T08:02:58.092Z</time></trkpt><trkpt lat="45.6727099" lon="13.8202823"><ele>337.0</ele><time>2026-04-25T08:02:59.088Z</time></trkpt><trkpt lat="45.6725278" lon="13.8204351"><ele>338.0</ele><time>2026-04-25T08:03:00.1Z</time></trkpt><trkpt lat="45.6723479" lon="13.8205936"><ele>338.0</ele><time>2026-04-25T08:03:01.088Z</time></trkpt><trkpt lat="45.6721689" lon="13.8207437"><ele>338.0</ele><time>2026-04-25T08:03:02.092Z</time></trkpt><trkpt lat="45.6719906" lon="13.8209034"><ele>338.0</ele><time>2026-04-25T08:03:03.087Z</time></trkpt><trkpt lat="45.6718141" lon="13.821051"><ele>338.33333333333337</ele><time>2026-04-25T08:03:04.096Z</time></trkpt><trkpt lat="45.6716359" lon="13.821208"><ele>338.6666666666667</ele><time>2026-04-25T08:03:05.091Z</time></trkpt><trkpt lat="45.6714545" lon="13.8213647"><ele>339.0</ele><time>2026-04-25T08:03:06.104Z</time></trkpt><trkpt lat="45.6712746" lon="13.8215267"><ele>340.6666666666667</ele><time>2026-04-25T08:03:07.099Z</time></trkpt><trkpt lat="45.6710959" lon="13.8216897"><ele>342.33333333333337</ele><time>2026-04-25T08:03:08.092Z</time></trkpt><trkpt lat="45.6709204" lon="13.8218545"><ele>344.0</ele><time>2026-04-25T08:03:09.095Z</time></trkpt><trkpt lat="45.6707473" lon="13.8220179"><ele>344.0</ele><time>2026-04-25T08:03:10.093Z</time></trkpt><trkpt lat="45.6705724" lon="13.8221836"><ele>344.0</ele><time>2026-04-25T08:03:11.098Z</time></trkpt><trkpt lat="45.6704004" lon="13.8223443"><ele>344.0</ele><time>2026-04-25T08:03:12.098Z</time></trkpt><trkpt lat="45.6702249" lon="13.8225033"><ele>345.33333333333337</ele><time>2026-04-25T08:03:13.095Z</time></trkpt><trkpt lat="45.6700498" lon="13.8226587"><ele>346.6666666666667</ele><time>2026-04-25T08:03:14.096Z</time></trkpt><trkpt lat="45.6698779" lon="13.8228126"><ele>348.0</ele><time>2026-04-25T08:03:15.092Z</time></trkpt><trkpt lat="45.6697024" lon="13.8229693"><ele>348.0</ele><time>2026-04-25T08:03:16.1Z</time></trkpt><trkpt lat="45.6695256" lon="13.8231199"><ele>348.0</ele><time>2026-04-25T08:03:17.091Z</time></trkpt><trkpt lat="45.6693471" lon="13.8232688"><ele>348.0</ele><time>2026-04-25T08:03:18.088Z</time></trkpt><trkpt lat="45.6691692" lon="13.8234162"><ele>349.6666666666667</ele><time>2026-04-25T08:03:19.087Z</time></trkpt><trkpt lat="45.6689879" lon="13.8235652"><ele>351.33333333333337</ele><time>2026-04-25T08:03:20.089Z</time></trkpt><trkpt lat="45.6688072" lon="13.8237147"><ele>353.0</ele><time>2026-04-25T08:03:21.092Z</time></trkpt><trkpt lat="45.6686229" lon="13.8238608"><ele>353.6666666666667</ele><time>2026-04-25T08:03:22.095Z</time></trkpt><trkpt lat="45.6684393" lon="13.8240079"><ele>354.3333333333333</ele><time>2026-04-25T08:03:23.096Z</time></trkpt><trkpt lat="45.668254" lon="13.8241612"><ele>355.0</ele><time>2026-04-25T08:03:24.09Z</time></trkpt><trkpt lat="45.6680688" lon="13.824314"><ele>355.3333333333333</ele><time>2026-04-25T08:03:25.115Z</time></trkpt><trkpt lat="45.667884" lon="13.8244654"><ele>355.6666666666667</ele><time>2026-04-25T08:03:26.088Z</time></trkpt><trkpt lat="45.6677009" lon="13.8246153"><ele>356.0</ele><time>2026-04-25T08:03:27.093Z</time></trkpt><trkpt lat="45.6675163" lon="13.8247638"><ele>357.0</ele><time>2026-04-25T08:03:28.087Z</time></trkpt><trkpt lat="45.6673411" lon="13.8249068"><ele>358.0</ele><time>2026-04-25T08:03:29.073Z</time></trkpt><trkpt lat="45.6671807" lon="13.8250305"><ele>359.0</ele><time>2026-04-25T08:03:30.064Z</time></trkpt><trkpt lat="45.6668389" lon="13.8252691"><ele>359.5</ele><time>2026-04-25T08:03:32.088Z</time></trkpt><trkpt lat="45.6666054" lon="13.8255034"><ele>360.0</ele><time>2026-04-25T08:03:33.087Z</time></trkpt><trkpt lat="45.6664059" lon="13.8256544"><ele>360.0</ele><time>2026-04-25T08:03:34.084Z</time></trkpt><trkpt lat="45.6662178" lon="13.8258062"><ele>360.0</ele><time>2026-04-25T08:03:35.092Z</time></trkpt><trkpt lat="45.6660314" lon="13.8259661"><ele>360.0</ele><time>2026-04-25T08:03:36.082Z</time></trkpt><trkpt lat="45.6658396" lon="13.8261189"><ele>359.0</ele><time>2026-04-25T08:03:37.079Z</time></trkpt><trkpt lat="45.6656543" lon="13.8262771"><ele>358.0</ele><time>2026-04-25T08:03:38.085Z</time></trkpt><trkpt lat="45.6654692" lon="13.8264356"><ele>357.0</ele><time>2026-04-25T08:03:39.082Z</time></trkpt><trkpt lat="45.6652835" lon="13.8265925"><ele>357.6666666666667</ele><time>2026-04-25T08:03:40.094Z</time></trkpt><trkpt lat="45.6650945" lon="13.8267486"><ele>358.33333333333337</ele><time>2026-04-25T08:03:41.084Z</time></trkpt><trkpt lat="45.6649032" lon="13.8269064"><ele>359.0</ele><time>2026-04-25T08:03:42.083Z</time></trkpt><trkpt lat="45.6647132" lon="13.8270633"><ele>359.0</ele><time>2026-04-25T08:03:43.086Z</time></trkpt><trkpt lat="45.664524" lon="13.827217"><ele>359.0</ele><time>2026-04-25T08:03:44.09Z</time></trkpt><trkpt lat="45.6643377" lon="13.8273699"><ele>359.0</ele><time>2026-04-25T08:03:45.084Z</time></trkpt><trkpt lat="45.6641543" lon="13.8275235"><ele>359.6666666666667</ele><time>2026-04-25T08:03:46.082Z</time></trkpt><trkpt lat="45.6639693" lon="13.8276682"><ele>360.3333333333333</ele><time>2026-04-25T08:03:47.088Z</time></trkpt><trkpt lat="45.6637856" lon="13.8278218"><ele>361.0</ele><time>2026-04-25T08:03:48.087Z</time></trkpt><trkpt lat="45.6635951" lon="13.8279759"><ele>362.3333333333333</ele><time>2026-04-25T08:03:49.085Z</time></trkpt><trkpt lat="45.6634086" lon="13.8281367"><ele>363.6666666666667</ele><time>2026-04-25T08:03:50.093Z</time></trkpt><trkpt lat="45.6632224" lon="13.8282947"><ele>365.0</ele><time>2026-04-25T08:03:51.102Z</time></trkpt><trkpt lat="45.6630332" lon="13.8284503"><ele>363.6666666666667</ele><time>2026-04-25T08:03:52.094Z</time></trkpt><trkpt lat="45.6628475" lon="13.8286098"><ele>362.3333333333333</ele><time>2026-04-25T08:03:53.095Z</time></trkpt><trkpt lat="45.6626625" lon="13.8287723"><ele>361.0</ele><time>2026-04-25T08:03:54.1Z</time></trkpt><trkpt lat="45.6624747" lon="13.8289275"><ele>361.0</ele><time>2026-04-25T08:03:55.096Z</time></trkpt><trkpt lat="45.6622869" lon="13.8290836"><ele>361.0</ele><time>2026-04-25T08:03:56.103Z</time></trkpt><trkpt lat="45.6620972" lon="13.8292343"><ele>361.0</ele><time>2026-04-25T08:03:57.096Z</time></trkpt><trkpt lat="45.6619091" lon="13.8293832"><ele>360.66666666666663</ele><time>2026-04-25T08:03:58.094Z</time></trkpt><trkpt lat="45.6617223" lon="13.829529"><ele>360.3333333333333</ele><time>2026-04-25T08:03:59.092Z</time></trkpt><trkpt lat="45.661537" lon="13.829674"><ele>360.0</ele><time>2026-04-25T08:04:00.096Z</time></trkpt><trkpt lat="45.6613507" lon="13.8298223"><ele>360.0</ele><time>2026-04-25T08:04:01.094Z</time></trkpt><trkpt lat="45.6611649" lon="13.8299677"><ele>360.0</ele><time>2026-04-25T08:04:02.097Z</time></trkpt><trkpt lat="45.6609753" lon="13.8301105"><ele>360.0</ele><time>2026-04-25T08:04:03.099Z</time></trkpt><trkpt lat="45.6607841" lon="13.8302435"><ele>360.0</ele><time>2026-04-25T08:04:04.098Z</time></trkpt><trkpt lat="45.6605913" lon="13.8303702"><ele>360.0</ele><time>2026-04-25T08:04:05.096Z</time></trkpt><trkpt lat="45.6603953" lon="13.8304894"><ele>360.0</ele><time>2026-04-25T08:04:06.093Z</time></trkpt><trkpt lat="45.6601977" lon="13.8306005"><ele>360.6666666666667</ele><time>2026-04-25T08:04:07.1Z</time></trkpt><trkpt lat="45.660003" lon="13.8306992"><ele>361.33333333333337</ele><time>2026-04-25T08:04:08.094Z</time></trkpt><trkpt lat="45.659806" lon="13.8307874"><ele>362.0</ele><time>2026-04-25T08:04:09.098Z</time></trkpt><trkpt lat="45.6596105" lon="13.8308617"><ele>362.33333333333337</ele><time>2026-04-25T08:04:10.105Z</time></trkpt><trkpt lat="45.6594113" lon="13.8309213"><ele>362.6666666666667</ele><time>2026-04-25T08:04:11.091Z</time></trkpt><trkpt lat="45.6592104" lon="13.830954"><ele>363.0</ele><time>2026-04-25T08:04:12.101Z</time></trkpt><trkpt lat="45.6590054" lon="13.8309728"><ele>363.0</ele><time>2026-04-25T08:04:13.102Z</time></trkpt><trkpt lat="45.6587968" lon="13.8309732"><ele>363.0</ele><time>2026-04-25T08:04:14.095Z</time></trkpt><trkpt lat="45.6585912" lon="13.830956"><ele>363.0</ele><time>2026-04-25T08:04:15.105Z</time></trkpt><trkpt lat="45.6583808" lon="13.8309225"><ele>362.6666666666667</ele><time>2026-04-25T08:04:16.099Z</time></trkpt><trkpt lat="45.6581756" lon="13.830895"><ele>362.33333333333337</ele><time>2026-04-25T08:04:17.095Z</time></trkpt><trkpt lat="45.6579766" lon="13.8308636"><ele>362.0</ele><time>2026-04-25T08:04:18.094Z</time></trkpt><trkpt lat="45.6577911" lon="13.8308265"><ele>362.0</ele><time>2026-04-25T08:04:19.092Z</time></trkpt><trkpt lat="45.657617" lon="13.8307841"><ele>362.0</ele><time>2026-04-25T08:04:20.1Z</time></trkpt><trkpt lat="45.6574554" lon="13.8307424"><ele>362.0</ele><time>2026-04-25T08:04:21.096Z</time></trkpt><trkpt lat="45.657294" lon="13.8307046"><ele>362.0</ele><time>2026-04-25T08:04:22.097Z</time></trkpt><trkpt lat="45.6571407" lon="13.8306658"><ele>362.0</ele><time>2026-04-25T08:04:23.1Z</time></trkpt><trkpt lat="45.6569888" lon="13.8306044"><ele>362.0</ele><time>2026-04-25T08:04:24.1Z</time></trkpt><trkpt lat="45.656853" lon="13.8304972"><ele>361.33333333333337</ele><time>2026-04-25T08:04:25.104Z</time></trkpt><trkpt lat="45.6567276" lon="13.8303496"><ele>360.6666666666667</ele><time>2026-04-25T08:04:26.099Z</time></trkpt><trkpt lat="45.6566224" lon="13.8301879"><ele>360.0</ele><time>2026-04-25T08:04:27.098Z</time></trkpt><trkpt lat="45.6565212" lon="13.8300443"><ele>360.0</ele><time>2026-04-25T08:04:28.088Z</time></trkpt><trkpt lat="45.6564329" lon="13.8299402"><ele>360.0</ele><time>2026-04-25T08:04:29.094Z</time></trkpt><trkpt lat="45.6563707" lon="13.8298646"><ele>360.0</ele><time>2026-04-25T08:04:30.088Z</time></trkpt><trkpt lat="45.6562515" lon="13.8299287"><ele>360.0</ele><time>2026-04-25T08:04:32.085Z</time></trkpt><trkpt lat="45.6562096" lon="13.8300469"><ele>360.0</ele><time>2026-04-25T08:04:33.085Z</time></trkpt><trkpt lat="45.6561863" lon="13.830197"><ele>359.5</ele><time>2026-04-25T08:04:34.087Z</time></trkpt><trkpt lat="45.6561668" lon="13.8303654"><ele>359.0</ele><time>2026-04-25T08:04:35.073Z</time></trkpt><trkpt lat="45.6561493" lon="13.8305483"><ele>358.5</ele><time>2026-04-25T08:04:36.082Z</time></trkpt><trkpt lat="45.656165" lon="13.8307237"><ele>358.0</ele><time>2026-04-25T08:04:37.091Z</time></trkpt><trkpt lat="45.6562371" lon="13.8308649"><ele>357.3333333333333</ele><time>2026-04-25T08:04:38.094Z</time></trkpt><trkpt lat="45.6563348" lon="13.8309986"><ele>356.6666666666667</ele><time>2026-04-25T08:04:39.091Z</time></trkpt><trkpt lat="45.6564681" lon="13.8311084"><ele>356.0</ele><time>2026-04-25T08:04:40.08Z</time></trkpt><trkpt lat="45.6566125" lon="13.8312126"><ele>356.0</ele><time>2026-04-25T08:04:41.091Z</time></trkpt><trkpt lat="45.6567656" lon="13.8313124"><ele>356.0</ele><time>2026-04-25T08:04:42.091Z</time></trkpt><trkpt lat="45.656931" lon="13.8313985"><ele>356.0</ele><time>2026-04-25T08:04:43.091Z</time></trkpt><trkpt lat="45.6571032" lon="13.8314553"><ele>356.33333333333337</ele><time>2026-04-25T08:04:44.094Z</time></trkpt><trkpt lat="45.6572867" lon="13.8315064"><ele>356.6666666666667</ele><time>2026-04-25T08:04:45.091Z</time></trkpt><trkpt lat="45.6574792" lon="13.8315444"><ele>357.0</ele><time>2026-04-25T08:04:46.091Z</time></trkpt><trkpt lat="45.6576707" lon="13.8315738"><ele>358.0</ele><time>2026-04-25T08:04:47.092Z</time></trkpt><trkpt lat="45.6578602" lon="13.8316206"><ele>359.0</ele><time>2026-04-25T08:04:48.089Z</time></trkpt><trkpt lat="45.6580481" lon="13.8316917"><ele>360.0</ele><time>2026-04-25T08:04:49.09Z</time></trkpt><trkpt lat="45.6582234" lon="13.8318011"><ele>359.0</ele><time>2026-04-25T08:04:50.098Z</time></trkpt><trkpt lat="45.6583898" lon="13.8319491"><ele>358.0</ele><time>2026-04-25T08:04:51.091Z</time></trkpt><trkpt lat="45.6585519" lon="13.832121"><ele>357.0</ele><time>2026-04-25T08:04:52.093Z</time></trkpt><trkpt lat="45.6587133" lon="13.8323077"><ele>357.0</ele><time>2026-04-25T08:04:53.087Z</time></trkpt><trkpt lat="45.6588744" lon="13.8324931"><ele>357.0</ele><time>2026-04-25T08:04:54.094Z</time></trkpt><trkpt lat="45.6590319" lon="13.8326875"><ele>357.0</ele><time>2026-04-25T08:04:55.089Z</time></trkpt><trkpt lat="45.6591883" lon="13.8328947"><ele>357.0</ele><time>2026-04-25T08:04:56.086Z</time></trkpt><trkpt lat="45.6593392" lon="13.8331125"><ele>357.0</ele><time>2026-04-25T08:04:57.088Z</time></trkpt><trkpt lat="45.6594786" lon="13.8333466"><ele>357.0</ele><time>2026-04-25T08:04:58.095Z</time></trkpt><trkpt lat="45.659612" lon="13.8335948"><ele>357.3333333333333</ele><time>2026-04-25T08:04:59.089Z</time></trkpt><trkpt lat="45.6597385" lon="13.833846"><ele>357.66666666666663</ele><time>2026-04-25T08:05:00.086Z</time></trkpt><trkpt lat="45.659864" lon="13.8340914"><ele>358.0</ele><time>2026-04-25T08:05:01.087Z</time></trkpt><trkpt lat="45.6599883" lon="13.8343307"><ele>358.3333333333333</ele><time>2026-04-25T08:05:02.084Z</time></trkpt><trkpt lat="45.660108" lon="13.8345623"><ele>358.6666666666667</ele><time>2026-04-25T08:05:03.087Z</time></trkpt><trkpt lat="45.6602252" lon="13.8347908"><ele>359.0</ele><time>2026-04-25T08:05:04.094Z</time></trkpt><trkpt lat="45.6603406" lon="13.8350235"><ele>359.0</ele><time>2026-04-25T08:05:05.097Z</time></trkpt><trkpt lat="45.660454" lon="13.8352509"><ele>359.0</ele><time>2026-04-25T08:05:06.091Z</time></trkpt><trkpt lat="45.6605531" lon="13.8354577"><ele>359.0</ele><time>2026-04-25T08:05:07.088Z</time></trkpt><trkpt lat="45.6606386" lon="13.835659"><ele>359.0</ele><time>2026-04-25T08:05:08.084Z</time></trkpt><trkpt lat="45.6607101" lon="13.835845"><ele>359.0</ele><time>2026-04-25T08:05:09.103Z</time></trkpt><trkpt lat="45.6607541" lon="13.8360022"><ele>359.0</ele><time>2026-04-25T08:05:10.091Z</time></trkpt><trkpt lat="45.6607671" lon="13.8361201"><ele>359.0</ele><time>2026-04-25T08:05:11.095Z</time></trkpt><trkpt lat="45.6607305" lon="13.836256"><ele>359.2</ele><time>2026-04-25T08:05:13.094Z</time></trkpt><trkpt lat="45.6606819" lon="13.8363203"><ele>359.4</ele><time>2026-04-25T08:05:14.116Z</time></trkpt><trkpt lat="45.6606008" lon="13.8363863"><ele>359.6</ele><time>2026-04-25T08:05:15.091Z</time></trkpt><trkpt lat="45.6604986" lon="13.8364731"><ele>359.8</ele><time>2026-04-25T08:05:16.091Z</time></trkpt><trkpt lat="45.6603876" lon="13.8365894"><ele>360.0</ele><time>2026-04-25T08:05:17.094Z</time></trkpt><trkpt lat="45.6602672" lon="13.8367199"><ele>360.3333333333333</ele><time>2026-04-25T08:05:18.098Z</time></trkpt><trkpt lat="45.6601448" lon="13.8368552"><ele>360.66666666666663</ele><time>2026-04-25T08:05:19.095Z</time></trkpt><trkpt lat="45.6600115" lon="13.8369965"><ele>361.0</ele><time>2026-04-25T08:05:20.099Z</time></trkpt><trkpt lat="45.659868" lon="13.8371478"><ele>361.0</ele><time>2026-04-25T08:05:21.093Z</time></trkpt><trkpt lat="45.6597193" lon="13.8373064"><ele>361.0</ele><time>2026-04-25T08:05:22.09Z</time></trkpt><trkpt lat="45.6595681" lon="13.8374772"><ele>361.0</ele><time>2026-04-25T08:05:23.091Z</time></trkpt><trkpt lat="45.6594229" lon="13.8376585"><ele>361.0</ele><time>2026-04-25T08:05:24.09Z</time></trkpt><trkpt lat="45.6592876" lon="13.8378688"><ele>361.0</ele><time>2026-04-25T08:05:25.094Z</time></trkpt><trkpt lat="45.6591619" lon="13.8381042"><ele>361.0</ele><time>2026-04-25T08:05:26.085Z</time></trkpt><trkpt lat="45.659044" lon="13.8383481"><ele>361.66666666666663</ele><time>2026-04-25T08:05:27.084Z</time></trkpt><trkpt lat="45.6589328" lon="13.8385708"><ele>362.3333333333333</ele><time>2026-04-25T08:05:28.083Z</time></trkpt><trkpt lat="45.6588294" lon="13.8387533"><ele>363.0</ele><time>2026-04-25T08:05:29.085Z</time></trkpt><trkpt lat="45.6587492" lon="13.8388549"><ele>363.0</ele><time>2026-04-25T08:05:30.096Z</time></trkpt><trkpt lat="45.6586445" lon="13.8389093"><ele>363.0</ele><time>2026-04-25T08:05:31.085Z</time></trkpt><trkpt lat="45.6585341" lon="13.8389258"><ele>363.0</ele><time>2026-04-25T08:05:32.095Z</time></trkpt><trkpt lat="45.6584098" lon="13.8389427"><ele>363.0</ele><time>2026-04-25T08:05:33.092Z</time></trkpt><trkpt lat="45.6582717" lon="13.83898"><ele>362.3333333333333</ele><time>2026-04-25T08:05:34.097Z</time></trkpt><trkpt lat="45.6581243" lon="13.8390126"><ele>361.66666666666663</ele><time>2026-04-25T08:05:35.09Z</time></trkpt><trkpt lat="45.657966" lon="13.839036"><ele>361.0</ele><time>2026-04-25T08:05:36.096Z</time></trkpt><trkpt lat="45.6578041" lon="13.8390716"><ele>360.66666666666663</ele><time>2026-04-25T08:05:37.092Z</time></trkpt><trkpt lat="45.6576491" lon="13.8391501"><ele>360.3333333333333</ele><time>2026-04-25T08:05:38.092Z</time></trkpt><trkpt lat="45.6574893" lon="13.8392773"><ele>360.0</ele><time>2026-04-25T08:05:39.095Z</time></trkpt><trkpt lat="45.6573344" lon="13.8394021"><ele>360.0</ele><time>2026-04-25T08:05:40.092Z</time></trkpt><trkpt lat="45.6571893" lon="13.8395109"><ele>360.0</ele><time>2026-04-25T08:05:41.09Z</time></trkpt><trkpt lat="45.6570491" lon="13.8396097"><ele>360.0</ele><time>2026-04-25T08:05:42.095Z</time></trkpt><trkpt lat="45.6569278" lon="13.8396922"><ele>360.0</ele><time>2026-04-25T08:05:43.091Z</time></trkpt><trkpt lat="45.6568385" lon="13.8397592"><ele>360.0</ele><time>2026-04-25T08:05:44.096Z</time></trkpt><trkpt lat="45.6567675" lon="13.8398288"><ele>360.0</ele><time>2026-04-25T08:05:45.093Z</time></trkpt><trkpt lat="45.6566901" lon="13.8399299"><ele>360.0</ele><time>2026-04-25T08:05:46.095Z</time></trkpt><trkpt lat="45.6565969" lon="13.8400587"><ele>360.0</ele><time>2026-04-25T08:05:47.088Z</time></trkpt><trkpt lat="45.6564894" lon="13.8401998"><ele>361.0</ele><time>2026-04-25T08:05:48.113Z</time></trkpt><trkpt lat="45.6563695" lon="13.8403489"><ele>362.0</ele><time>2026-04-25T08:05:49.087Z</time></trkpt><trkpt lat="45.6562438" lon="13.8405118"><ele>363.0</ele><time>2026-04-25T08:05:50.086Z</time></trkpt><trkpt lat="45.6561191" lon="13.8406872"><ele>363.0</ele><time>2026-04-25T08:05:51.091Z</time></trkpt><trkpt lat="45.6559908" lon="13.8408769"><ele>363.0</ele><time>2026-04-25T08:05:52.093Z</time></trkpt><trkpt lat="45.6558556" lon="13.8410759"><ele>363.0</ele><time>2026-04-25T08:05:53.096Z</time></trkpt><trkpt lat="45.6557167" lon="13.8412758"><ele>363.3333333333333</ele><time>2026-04-25T08:05:54.103Z</time></trkpt><trkpt lat="45.6555737" lon="13.8414889"><ele>363.66666666666663</ele><time>2026-04-25T08:05:55.089Z</time></trkpt><trkpt lat="45.6554302" lon="13.8417208"><ele>364.0</ele><time>2026-04-25T08:05:56.104Z</time></trkpt><trkpt lat="45.6552902" lon="13.8419522"><ele>364.0</ele><time>2026-04-25T08:05:57.098Z</time></trkpt><trkpt lat="45.6551547" lon="13.8421866"><ele>364.0</ele><time>2026-04-25T08:05:58.093Z</time></trkpt><trkpt lat="45.6550227" lon="13.8424325"><ele>364.0</ele><time>2026-04-25T08:05:59.104Z</time></trkpt><trkpt lat="45.654887" lon="13.8426836"><ele>365.0</ele><time>2026-04-25T08:06:00.095Z</time></trkpt><trkpt lat="45.6547517" lon="13.8429414"><ele>366.0</ele><time>2026-04-25T08:06:01.093Z</time></trkpt><trkpt lat="45.6546195" lon="13.8432058"><ele>365.6666666666667</ele><time>2026-04-25T08:06:02.094Z</time></trkpt><trkpt lat="45.6544936" lon="13.843476"><ele>365.33333333333337</ele><time>2026-04-25T08:06:03.095Z</time></trkpt><trkpt lat="45.6543737" lon="13.8437415"><ele>365.0</ele><time>2026-04-25T08:06:04.095Z</time></trkpt><trkpt lat="45.6542593" lon="13.8440044"><ele>365.0</ele><time>2026-04-25T08:06:05.09Z</time></trkpt><trkpt lat="45.6541446" lon="13.8442659"><ele>365.0</ele><time>2026-04-25T08:06:06.115Z</time></trkpt><trkpt lat="45.6540361" lon="13.8445317"><ele>365.0</ele><time>2026-04-25T08:06:07.089Z</time></trkpt><trkpt lat="45.653927" lon="13.8447951"><ele>365.0</ele><time>2026-04-25T08:06:08.097Z</time></trkpt><trkpt lat="45.6538167" lon="13.8450554"><ele>365.0</ele><time>2026-04-25T08:06:09.099Z</time></trkpt><trkpt lat="45.6537042" lon="13.8453105"><ele>365.0</ele><time>2026-04-25T08:06:10.091Z</time></trkpt><trkpt lat="45.6535944" lon="13.8455698"><ele>365.0</ele><time>2026-04-25T08:06:11.083Z</time></trkpt><trkpt lat="45.6534833" lon="13.8458239"><ele>365.0</ele><time>2026-04-25T08:06:12.091Z</time></trkpt><trkpt lat="45.6533742" lon="13.8460827"><ele>365.0</ele><time>2026-04-25T08:06:13.094Z</time></trkpt><trkpt lat="45.6532658" lon="13.8463439"><ele>365.6666666666667</ele><time>2026-04-25T08:06:14.097Z</time></trkpt><trkpt lat="45.6531601" lon="13.8466029"><ele>366.3333333333333</ele><time>2026-04-25T08:06:15.094Z</time></trkpt><trkpt lat="45.6530588" lon="13.8468543"><ele>367.0</ele><time>2026-04-25T08:06:16.095Z</time></trkpt><trkpt lat="45.6529554" lon="13.847107"><ele>367.0</ele><time>2026-04-25T08:06:17.091Z</time></trkpt><trkpt lat="45.6528546" lon="13.8473502"><ele>367.0</ele><time>2026-04-25T08:06:18.092Z</time></trkpt><trkpt lat="45.6527518" lon="13.8475892"><ele>367.0</ele><time>2026-04-25T08:06:19.088Z</time></trkpt><trkpt lat="45.6526538" lon="13.8478262"><ele>367.0</ele><time>2026-04-25T08:06:20.093Z</time></trkpt><trkpt lat="45.6525537" lon="13.8480597"><ele>367.0</ele><time>2026-04-25T08:06:21.093Z</time></trkpt><trkpt lat="45.6524477" lon="13.8482716"><ele>367.0</ele><time>2026-04-25T08:06:22.108Z</time></trkpt><trkpt lat="45.6523101" lon="13.8484295"><ele>367.0</ele><time>2026-04-25T08:06:23.094Z</time></trkpt><trkpt lat="45.6521476" lon="13.8485409"><ele>367.0</ele><time>2026-04-25T08:06:24.093Z</time></trkpt><trkpt lat="45.6519727" lon="13.848629"><ele>367.0</ele><time>2026-04-25T08:06:25.091Z</time></trkpt><trkpt lat="45.6517945" lon="13.8487129"><ele>367.0</ele><time>2026-04-25T08:06:26.103Z</time></trkpt><trkpt lat="45.6516112" lon="13.8487961"><ele>367.0</ele><time>2026-04-25T08:06:27.094Z</time></trkpt><trkpt lat="45.6514238" lon="13.8488803"><ele>367.0</ele><time>2026-04-25T08:06:28.109Z</time></trkpt><trkpt lat="45.6512327" lon="13.8489652"><ele>366.66666666666663</ele><time>2026-04-25T08:06:29.094Z</time></trkpt><trkpt lat="45.65104" lon="13.8490573"><ele>366.3333333333333</ele><time>2026-04-25T08:06:30.1Z</time></trkpt><trkpt lat="45.650839" lon="13.8491501"><ele>366.0</ele><time>2026-04-25T08:06:31.099Z</time></trkpt><trkpt lat="45.6506384" lon="13.8492476"><ele>365.6666666666667</ele><time>2026-04-25T08:06:32.094Z</time></trkpt><trkpt lat="45.6504389" lon="13.8493422"><ele>365.33333333333337</ele><time>2026-04-25T08:06:33.093Z</time></trkpt><trkpt lat="45.650248" lon="13.8494286"><ele>365.0</ele><time>2026-04-25T08:06:34.1Z</time></trkpt><trkpt lat="45.6500578" lon="13.8495214"><ele>364.6666666666667</ele><time>2026-04-25T08:06:35.12Z</time></trkpt><trkpt lat="45.6498752" lon="13.8496219"><ele>364.3333333333333</ele><time>2026-04-25T08:06:36.103Z</time></trkpt><trkpt lat="45.6496985" lon="13.8497445"><ele>364.0</ele><time>2026-04-25T08:06:37.102Z</time></trkpt><trkpt lat="45.6495449" lon="13.8498977"><ele>364.3333333333333</ele><time>2026-04-25T08:06:38.094Z</time></trkpt><trkpt lat="45.6493998" lon="13.850098"><ele>364.6666666666667</ele><time>2026-04-25T08:06:39.098Z</time></trkpt><trkpt lat="45.6492702" lon="13.8503263"><ele>365.0</ele><time>2026-04-25T08:06:40.101Z</time></trkpt><trkpt lat="45.6491559" lon="13.8505591"><ele>366.0</ele><time>2026-04-25T08:06:41.09Z</time></trkpt><trkpt lat="45.6490379" lon="13.8507993"><ele>367.0</ele><time>2026-04-25T08:06:42.099Z</time></trkpt><trkpt lat="45.6489218" lon="13.851048"><ele>368.0</ele><time>2026-04-25T08:06:43.099Z</time></trkpt><trkpt lat="45.6488058" lon="13.8513056"><ele>368.33333333333337</ele><time>2026-04-25T08:06:44.126Z</time></trkpt><trkpt lat="45.6486969" lon="13.8515634"><ele>368.6666666666667</ele><time>2026-04-25T08:06:45.095Z</time></trkpt><trkpt lat="45.6485936" lon="13.8518254"><ele>369.0</ele><time>2026-04-25T08:06:46.1Z</time></trkpt><trkpt lat="45.6484973" lon="13.8520948"><ele>370.0</ele><time>2026-04-25T08:06:47.094Z</time></trkpt><trkpt lat="45.6484156" lon="13.8523731"><ele>371.0</ele><time>2026-04-25T08:06:48.091Z</time></trkpt><trkpt lat="45.6483378" lon="13.8526528"><ele>372.0</ele><time>2026-04-25T08:06:49.093Z</time></trkpt><trkpt lat="45.6482536" lon="13.852937"><ele>372.0</ele><time>2026-04-25T08:06:50.097Z</time></trkpt><trkpt lat="45.6481707" lon="13.8532125"><ele>372.0</ele><time>2026-04-25T08:06:51.094Z</time></trkpt><trkpt lat="45.6480863" lon="13.8534863"><ele>372.0</ele><time>2026-04-25T08:06:52.093Z</time></trkpt><trkpt lat="45.6480012" lon="13.8537687"><ele>372.3333333333333</ele><time>2026-04-25T08:06:53.094Z</time></trkpt><trkpt lat="45.6479232" lon="13.854053"><ele>372.66666666666663</ele><time>2026-04-25T08:06:54.126Z</time></trkpt><trkpt lat="45.6478409" lon="13.8543348"><ele>373.0</ele><time>2026-04-25T08:06:55.101Z</time></trkpt><trkpt lat="45.6477605" lon="13.8546069"><ele>371.66666666666663</ele><time>2026-04-25T08:06:56.093Z</time></trkpt><trkpt lat="45.6476799" lon="13.8548816"><ele>370.3333333333333</ele><time>2026-04-25T08:06:57.084Z</time></trkpt><trkpt lat="45.6475984" lon="13.8551613"><ele>369.0</ele><time>2026-04-25T08:06:58.092Z</time></trkpt><trkpt lat="45.6475149" lon="13.8554369"><ele>369.0</ele><time>2026-04-25T08:06:59.09Z</time></trkpt><trkpt lat="45.6474336" lon="13.8557159"><ele>369.0</ele><time>2026-04-25T08:07:00.095Z</time></trkpt><trkpt lat="45.6473463" lon="13.8559914"><ele>369.0</ele><time>2026-04-25T08:07:01.102Z</time></trkpt><trkpt lat="45.6472612" lon="13.8562621"><ele>369.3333333333333</ele><time>2026-04-25T08:07:02.099Z</time></trkpt><trkpt lat="45.6471728" lon="13.8565388"><ele>369.66666666666663</ele><time>2026-04-25T08:07:03.095Z</time></trkpt><trkpt lat="45.6470807" lon="13.8568164"><ele>370.0</ele><time>2026-04-25T08:07:04.096Z</time></trkpt><trkpt lat="45.64699" lon="13.8570865"><ele>370.3333333333333</ele><time>2026-04-25T08:07:05.098Z</time></trkpt><trkpt lat="45.6468959" lon="13.8573537"><ele>370.6666666666667</ele><time>2026-04-25T08:07:06.095Z</time></trkpt><trkpt lat="45.6467919" lon="13.8576188"><ele>371.0</ele><time>2026-04-25T08:07:07.1Z</time></trkpt><trkpt lat="45.6466857" lon="13.8578716"><ele>371.0</ele><time>2026-04-25T08:07:08.102Z</time></trkpt><trkpt lat="45.6465766" lon="13.8581264"><ele>371.0</ele><time>2026-04-25T08:07:09.095Z</time></trkpt><trkpt lat="45.6464663" lon="13.8583852"><ele>371.0</ele><time>2026-04-25T08:07:10.103Z</time></trkpt><trkpt lat="45.6463547" lon="13.8586455"><ele>371.33333333333337</ele><time>2026-04-25T08:07:11.096Z</time></trkpt><trkpt lat="45.6462448" lon="13.8589104"><ele>371.6666666666667</ele><time>2026-04-25T08:07:12.096Z</time></trkpt><trkpt lat="45.646133" lon="13.8591739"><ele>372.0</ele><time>2026-04-25T08:07:13.094Z</time></trkpt><trkpt lat="45.6460168" lon="13.8594368"><ele>372.0</ele><time>2026-04-25T08:07:14.099Z</time></trkpt><trkpt lat="45.6459027" lon="13.8597009"><ele>372.0</ele><time>2026-04-25T08:07:15.098Z</time></trkpt><trkpt lat="45.6457953" lon="13.8599684"><ele>372.0</ele><time>2026-04-25T08:07:16.099Z</time></trkpt><trkpt lat="45.6457011" lon="13.8602481"><ele>372.6666666666667</ele><time>2026-04-25T08:07:17.096Z</time></trkpt><trkpt lat="45.6456162" lon="13.860524"><ele>373.33333333333337</ele><time>2026-04-25T08:07:18.1Z</time></trkpt><trkpt lat="45.6455341" lon="13.8607856"><ele>374.0</ele><time>2026-04-25T08:07:19.102Z</time></trkpt><trkpt lat="45.6454494" lon="13.8610336"><ele>373.6666666666667</ele><time>2026-04-25T08:07:20.098Z</time></trkpt><trkpt lat="45.6453609" lon="13.8612695"><ele>373.3333333333333</ele><time>2026-04-25T08:07:21.094Z</time></trkpt><trkpt lat="45.6452645" lon="13.8614996"><ele>373.0</ele><time>2026-04-25T08:07:22.097Z</time></trkpt><trkpt lat="45.6451531" lon="13.8617215"><ele>373.66666666666663</ele><time>2026-04-25T08:07:23.096Z</time></trkpt><trkpt lat="45.6450313" lon="13.861935"><ele>374.3333333333333</ele><time>2026-04-25T08:07:24.104Z</time></trkpt><trkpt lat="45.6449089" lon="13.8621305"><ele>375.0</ele><time>2026-04-25T08:07:25.094Z</time></trkpt><trkpt lat="45.6447881" lon="13.8622984"><ele>375.0</ele><time>2026-04-25T08:07:26.099Z</time></trkpt><trkpt lat="45.6446827" lon="13.8624318"><ele>375.0</ele><time>2026-04-25T08:07:27.096Z</time></trkpt><trkpt lat="45.644613" lon="13.8625241"><ele>375.0</ele><time>2026-04-25T08:07:28.1Z</time></trkpt><trkpt lat="45.6445538" lon="13.8626027"><ele>375.0</ele><time>2026-04-25T08:07:29.102Z</time></trkpt><trkpt lat="45.644485" lon="13.8626685"><ele>375.0</ele><time>2026-04-25T08:07:30.099Z</time></trkpt><trkpt lat="45.6443992" lon="13.8627079"><ele>375.75</ele><time>2026-04-25T08:07:31.093Z</time></trkpt><trkpt lat="45.6442902" lon="13.8627355"><ele>376.5</ele><time>2026-04-25T08:07:32.083Z</time></trkpt><trkpt lat="45.6441654" lon="13.8627559"><ele>377.25</ele><time>2026-04-25T08:07:33.087Z</time></trkpt><trkpt lat="45.6440257" lon="13.8627819"><ele>378.0</ele><time>2026-04-25T08:07:34.09Z</time></trkpt><trkpt lat="45.6438801" lon="13.862808"><ele>378.0</ele><time>2026-04-25T08:07:35.089Z</time></trkpt><trkpt lat="45.6437378" lon="13.8628283"><ele>378.0</ele><time>2026-04-25T08:07:36.095Z</time></trkpt><trkpt lat="45.6435922" lon="13.8628525"><ele>378.0</ele><time>2026-04-25T08:07:37.095Z</time></trkpt><trkpt lat="45.6434507" lon="13.8629162"><ele>378.0</ele><time>2026-04-25T08:07:38.098Z</time></trkpt><trkpt lat="45.643299" lon="13.8629975"><ele>378.0</ele><time>2026-04-25T08:07:39.092Z</time></trkpt><trkpt lat="45.6431612" lon="13.8630848"><ele>378.0</ele><time>2026-04-25T08:07:40.1Z</time></trkpt><trkpt lat="45.6430252" lon="13.8631551"><ele>378.0</ele><time>2026-04-25T08:07:41.093Z</time></trkpt><trkpt lat="45.6429175" lon="13.8631975"><ele>378.0</ele><time>2026-04-25T08:07:42.092Z</time></trkpt><trkpt lat="45.6428254" lon="13.8632238"><ele>377.75</ele><time>2026-04-25T08:07:43.093Z</time></trkpt><trkpt lat="45.6427392" lon="13.8631938"><ele>377.5</ele><time>2026-04-25T08:07:44.087Z</time></trkpt><trkpt lat="45.6426296" lon="13.8631479"><ele>377.25</ele><time>2026-04-25T08:07:45.082Z</time></trkpt><trkpt lat="45.6425049" lon="13.8631344"><ele>377.0</ele><time>2026-04-25T08:07:46.094Z</time></trkpt><trkpt lat="45.6423673" lon="13.8631312"><ele>377.0</ele><time>2026-04-25T08:07:47.085Z</time></trkpt><trkpt lat="45.6422209" lon="13.8631617"><ele>377.0</ele><time>2026-04-25T08:07:48.089Z</time></trkpt><trkpt lat="45.6420749" lon="13.8632047"><ele>377.0</ele><time>2026-04-25T08:07:49.09Z</time></trkpt><trkpt lat="45.6419341" lon="13.86324"><ele>377.0</ele><time>2026-04-25T08:07:50.091Z</time></trkpt><trkpt lat="45.6418271" lon="13.8632633"><ele>377.6</ele><time>2026-04-25T08:07:51.09Z</time></trkpt><trkpt lat="45.6417483" lon="13.8632686"><ele>378.20000000000005</ele><time>2026-04-25T08:07:52.099Z</time></trkpt><trkpt lat="45.6416701" lon="13.8632355"><ele>378.8</ele><time>2026-04-25T08:07:54.087Z</time></trkpt><trkpt lat="45.6416336" lon="13.8631068"><ele>379.4</ele><time>2026-04-25T08:07:58.101Z</time></trkpt><trkpt lat="45.6415786" lon="13.8629612"><ele>380.0</ele><time>2026-04-25T08:08:00.084Z</time></trkpt><trkpt lat="45.6415282" lon="13.8628593"><ele>380.0</ele><time>2026-04-25T08:08:02.084Z</time></trkpt><trkpt lat="45.6414812" lon="13.8627464"><ele>380.0</ele><time>2026-04-25T08:08:04.099Z</time></trkpt><trkpt lat="45.6414595" lon="13.8626573"><ele>380.0</ele><time>2026-04-25T08:08:07.089Z</time></trkpt><trkpt lat="45.6414222" lon="13.8625446"><ele>380.0</ele><time>2026-04-25T08:08:09.088Z</time></trkpt><trkpt lat="45.6413898" lon="13.862461"><ele>380.0</ele><time>2026-04-25T08:08:11.082Z</time></trkpt><trkpt lat="45.6413095" lon="13.8624332"><ele>380.0</ele><time>2026-04-25T08:08:13.092Z</time></trkpt><trkpt lat="45.6412335" lon="13.862465"><ele>379.5</ele><time>2026-04-25T08:08:14.081Z</time></trkpt><trkpt lat="45.6411422" lon="13.8625299"><ele>379.0</ele><time>2026-04-25T08:08:15.086Z</time></trkpt><trkpt lat="45.6410515" lon="13.8626148"><ele>378.5</ele><time>2026-04-25T08:08:16.09Z</time></trkpt><trkpt lat="45.640957" lon="13.8627202"><ele>378.0</ele><time>2026-04-25T08:08:17.091Z</time></trkpt><trkpt lat="45.640854" lon="13.8628438"><ele>379.25</ele><time>2026-04-25T08:08:18.106Z</time></trkpt><trkpt lat="45.6407526" lon="13.8629635"><ele>380.5</ele><time>2026-04-25T08:08:19.101Z</time></trkpt><trkpt lat="45.6406548" lon="13.8630776"><ele>381.75</ele><time>2026-04-25T08:08:20.103Z</time></trkpt><trkpt lat="45.6405688" lon="13.8631757"><ele>383.0</ele><time>2026-04-25T08:08:21.094Z</time></trkpt><trkpt lat="45.6404956" lon="13.8632741"><ele>383.0</ele><time>2026-04-25T08:08:22.096Z</time></trkpt><trkpt lat="45.6404443" lon="13.8633761"><ele>383.0</ele><time>2026-04-25T08:08:23.091Z</time></trkpt><trkpt lat="45.6404092" lon="13.8634697"><ele>383.0</ele><time>2026-04-25T08:08:24.09Z</time></trkpt><trkpt lat="45.6403651" lon="13.8636034"><ele>383.0</ele><time>2026-04-25T08:08:26.091Z</time></trkpt><trkpt lat="45.6403314" lon="13.8637142"><ele>383.0</ele><time>2026-04-25T08:08:27.101Z</time></trkpt><trkpt lat="45.6402825" lon="13.8638586"><ele>383.75</ele><time>2026-04-25T08:08:28.095Z</time></trkpt><trkpt lat="45.6402176" lon="13.8640144"><ele>384.5</ele><time>2026-04-25T08:08:29.089Z</time></trkpt><trkpt lat="45.6401436" lon="13.8641856"><ele>385.25</ele><time>2026-04-25T08:08:30.092Z</time></trkpt><trkpt lat="45.6400733" lon="13.8643773"><ele>386.0</ele><time>2026-04-25T08:08:31.091Z</time></trkpt><trkpt lat="45.6399966" lon="13.8645888"><ele>387.0</ele><time>2026-04-25T08:08:32.101Z</time></trkpt><trkpt lat="45.6399143" lon="13.8648117"><ele>388.0</ele><time>2026-04-25T08:08:33.094Z</time></trkpt><trkpt lat="45.6398257" lon="13.8650431"><ele>389.0</ele><time>2026-04-25T08:08:34.091Z</time></trkpt><trkpt lat="45.6397303" lon="13.8652924"><ele>389.3333333333333</ele><time>2026-04-25T08:08:35.094Z</time></trkpt><trkpt lat="45.639637" lon="13.8655491"><ele>389.66666666666663</ele><time>2026-04-25T08:08:36.09Z</time></trkpt><trkpt lat="45.6395444" lon="13.8658033"><ele>390.0</ele><time>2026-04-25T08:08:37.092Z</time></trkpt><trkpt lat="45.6394566" lon="13.8660532"><ele>390.66666666666663</ele><time>2026-04-25T08:08:38.091Z</time></trkpt><trkpt lat="45.6393676" lon="13.8663035"><ele>391.3333333333333</ele><time>2026-04-25T08:08:39.096Z</time></trkpt><trkpt lat="45.6392772" lon="13.8665565"><ele>392.0</ele><time>2026-04-25T08:08:40.095Z</time></trkpt><trkpt lat="45.639185" lon="13.8668099"><ele>392.66666666666663</ele><time>2026-04-25T08:08:41.095Z</time></trkpt><trkpt lat="45.6390977" lon="13.8670659"><ele>393.33333333333337</ele><time>2026-04-25T08:08:42.093Z</time></trkpt><trkpt lat="45.6390212" lon="13.8673145"><ele>394.0</ele><time>2026-04-25T08:08:43.097Z</time></trkpt><trkpt lat="45.6389415" lon="13.8675587"><ele>393.6666666666667</ele><time>2026-04-25T08:08:44.101Z</time></trkpt><trkpt lat="45.63887" lon="13.8677909"><ele>393.33333333333337</ele><time>2026-04-25T08:08:45.097Z</time></trkpt><trkpt lat="45.6387997" lon="13.8680235"><ele>393.0</ele><time>2026-04-25T08:08:46.095Z</time></trkpt><trkpt lat="45.6387265" lon="13.8682539"><ele>393.0</ele><time>2026-04-25T08:08:47.089Z</time></trkpt><trkpt lat="45.6386571" lon="13.8684731"><ele>393.0</ele><time>2026-04-25T08:08:48.098Z</time></trkpt><trkpt lat="45.6385896" lon="13.8686863"><ele>393.0</ele><time>2026-04-25T08:08:49.093Z</time></trkpt><trkpt lat="45.6385258" lon="13.8688922"><ele>394.0</ele><time>2026-04-25T08:08:50.115Z</time></trkpt><trkpt lat="45.6384598" lon="13.8690895"><ele>395.0</ele><time>2026-04-25T08:08:51.095Z</time></trkpt><trkpt lat="45.6383851" lon="13.8692867"><ele>396.0</ele><time>2026-04-25T08:08:52.093Z</time></trkpt><trkpt lat="45.6382997" lon="13.8694863"><ele>396.0</ele><time>2026-04-25T08:08:53.089Z</time></trkpt><trkpt lat="45.6382078" lon="13.8697017"><ele>396.0</ele><time>2026-04-25T08:08:54.097Z</time></trkpt><trkpt lat="45.63811" lon="13.8699222"><ele>396.0</ele><time>2026-04-25T08:08:55.095Z</time></trkpt><trkpt lat="45.6380101" lon="13.8701389"><ele>396.33333333333337</ele><time>2026-04-25T08:08:56.097Z</time></trkpt><trkpt lat="45.6379155" lon="13.8703607"><ele>396.6666666666667</ele><time>2026-04-25T08:08:57.096Z</time></trkpt><trkpt lat="45.6378194" lon="13.8705976"><ele>397.0</ele><time>2026-04-25T08:08:58.094Z</time></trkpt><trkpt lat="45.6377196" lon="13.8708477"><ele>398.6666666666667</ele><time>2026-04-25T08:08:59.098Z</time></trkpt><trkpt lat="45.6376081" lon="13.8710994"><ele>400.33333333333337</ele><time>2026-04-25T08:09:00.1Z</time></trkpt><trkpt lat="45.6374934" lon="13.8713521"><ele>402.0</ele><time>2026-04-25T08:09:01.09Z</time></trkpt><trkpt lat="45.6373783" lon="13.8716056"><ele>402.33333333333337</ele><time>2026-04-25T08:09:02.105Z</time></trkpt><trkpt lat="45.6372637" lon="13.8718518"><ele>402.6666666666667</ele><time>2026-04-25T08:09:03.096Z</time></trkpt><trkpt lat="45.6371505" lon="13.8720985"><ele>403.0</ele><time>2026-04-25T08:09:04.099Z</time></trkpt><trkpt lat="45.6370445" lon="13.8723495"><ele>406.33333333333337</ele><time>2026-04-25T08:09:05.097Z</time></trkpt><trkpt lat="45.6369368" lon="13.8725951"><ele>409.66666666666663</ele><time>2026-04-25T08:09:06.1Z</time></trkpt><trkpt lat="45.6368302" lon="13.8728412"><ele>413.0</ele><time>2026-04-25T08:09:07.113Z</time></trkpt><trkpt lat="45.636727" lon="13.8730922"><ele>414.0</ele><time>2026-04-25T08:09:08.104Z</time></trkpt><trkpt lat="45.6366275" lon="13.8733441"><ele>415.0</ele><time>2026-04-25T08:09:09.1Z</time></trkpt><trkpt lat="45.6365403" lon="13.8736084"><ele>416.0</ele><time>2026-04-25T08:09:10.107Z</time></trkpt><trkpt lat="45.6364714" lon="13.8738873"><ele>416.0</ele><time>2026-04-25T08:09:11.103Z</time></trkpt><trkpt lat="45.6364062" lon="13.8741678"><ele>416.0</ele><time>2026-04-25T08:09:12.103Z</time></trkpt><trkpt lat="45.6363523" lon="13.8744491"><ele>416.0</ele><time>2026-04-25T08:09:13.103Z</time></trkpt><trkpt lat="45.6362972" lon="13.8747221"><ele>416.0</ele><time>2026-04-25T08:09:14.123Z</time></trkpt><trkpt lat="45.6362465" lon="13.8749968"><ele>416.0</ele><time>2026-04-25T08:09:15.104Z</time></trkpt><trkpt lat="45.6361977" lon="13.8752692"><ele>416.0</ele><time>2026-04-25T08:09:16.112Z</time></trkpt><trkpt lat="45.636149" lon="13.8755499"><ele>418.3333333333333</ele><time>2026-04-25T08:09:17.102Z</time></trkpt><trkpt lat="45.636102" lon="13.8758264"><ele>420.66666666666663</ele><time>2026-04-25T08:09:18.106Z</time></trkpt><trkpt lat="45.6360515" lon="13.8761034"><ele>423.0</ele><time>2026-04-25T08:09:19.102Z</time></trkpt><trkpt lat="45.6360062" lon="13.8763827"><ele>423.66666666666663</ele><time>2026-04-25T08:09:20.099Z</time></trkpt><trkpt lat="45.6359597" lon="13.876663"><ele>424.3333333333333</ele><time>2026-04-25T08:09:21.101Z</time></trkpt><trkpt lat="45.6359124" lon="13.8769432"><ele>425.0</ele><time>2026-04-25T08:09:22.102Z</time></trkpt><trkpt lat="45.6358641" lon="13.8772267"><ele>426.3333333333333</ele><time>2026-04-25T08:09:23.09Z</time></trkpt><trkpt lat="45.635819" lon="13.877504"><ele>427.66666666666663</ele><time>2026-04-25T08:09:24.1Z</time></trkpt><trkpt lat="45.6357702" lon="13.8777912"><ele>429.0</ele><time>2026-04-25T08:09:25.103Z</time></trkpt><trkpt lat="45.6357238" lon="13.8780731"><ele>430.33333333333337</ele><time>2026-04-25T08:09:26.114Z</time></trkpt><trkpt lat="45.6356736" lon="13.8783543"><ele>431.6666666666667</ele><time>2026-04-25T08:09:27.1Z</time></trkpt><trkpt lat="45.6356198" lon="13.878639"><ele>433.0</ele><time>2026-04-25T08:09:28.101Z</time></trkpt><trkpt lat="45.6355725" lon="13.8789155"><ele>434.33333333333337</ele><time>2026-04-25T08:09:29.109Z</time></trkpt><trkpt lat="45.63553" lon="13.8791899"><ele>435.66666666666663</ele><time>2026-04-25T08:09:30.108Z</time></trkpt><trkpt lat="45.6354875" lon="13.8794648"><ele>437.0</ele><time>2026-04-25T08:09:31.101Z</time></trkpt><trkpt lat="45.6354391" lon="13.8797448"><ele>439.0</ele><time>2026-04-25T08:09:32.098Z</time></trkpt><trkpt lat="45.6353921" lon="13.880023"><ele>441.0</ele><time>2026-04-25T08:09:33.098Z</time></trkpt><trkpt lat="45.6353467" lon="13.8803079"><ele>443.0</ele><time>2026-04-25T08:09:34.104Z</time></trkpt><trkpt lat="45.6352982" lon="13.8805908"><ele>444.66666666666663</ele><time>2026-04-25T08:09:35.097Z</time></trkpt><trkpt lat="45.6352479" lon="13.8808669"><ele>446.33333333333337</ele><time>2026-04-25T08:09:36.105Z</time></trkpt><trkpt lat="45.6352" lon="13.8811494"><ele>448.0</ele><time>2026-04-25T08:09:37.1Z</time></trkpt><trkpt lat="45.6351422" lon="13.8814268"><ele>448.0</ele><time>2026-04-25T08:09:38.099Z</time></trkpt><trkpt lat="45.635073" lon="13.8817049"><ele>448.0</ele><time>2026-04-25T08:09:39.1Z</time></trkpt><trkpt lat="45.6349893" lon="13.8819803"><ele>448.0</ele><time>2026-04-25T08:09:40.1Z</time></trkpt><trkpt lat="45.6348943" lon="13.8822559"><ele>448.33333333333337</ele><time>2026-04-25T08:09:41.103Z</time></trkpt><trkpt lat="45.6347832" lon="13.8825207"><ele>448.66666666666663</ele><time>2026-04-25T08:09:42.093Z</time></trkpt><trkpt lat="45.634671" lon="13.8827721"><ele>449.0</ele><time>2026-04-25T08:09:43.089Z</time></trkpt><trkpt lat="45.6345523" lon="13.8830185"><ele>450.3333333333333</ele><time>2026-04-25T08:09:44.095Z</time></trkpt><trkpt lat="45.6344234" lon="13.8832576"><ele>451.66666666666663</ele><time>2026-04-25T08:09:45.088Z</time></trkpt><trkpt lat="45.6342947" lon="13.8834844"><ele>453.0</ele><time>2026-04-25T08:09:46.104Z</time></trkpt><trkpt lat="45.6341579" lon="13.8837028"><ele>453.0</ele><time>2026-04-25T08:09:47.09Z</time></trkpt><trkpt lat="45.6340069" lon="13.8839156"><ele>453.0</ele><time>2026-04-25T08:09:48.096Z</time></trkpt><trkpt lat="45.633851" lon="13.8841294"><ele>453.0</ele><time>2026-04-25T08:09:49.088Z</time></trkpt><trkpt lat="45.633699" lon="13.8843452"><ele>455.66666666666663</ele><time>2026-04-25T08:09:50.094Z</time></trkpt><trkpt lat="45.6335447" lon="13.8845575"><ele>458.3333333333333</ele><time>2026-04-25T08:09:51.097Z</time></trkpt><trkpt lat="45.6333889" lon="13.8847704"><ele>461.0</ele><time>2026-04-25T08:09:52.106Z</time></trkpt><trkpt lat="45.6332331" lon="13.8849768"><ele>461.0</ele><time>2026-04-25T08:09:53.102Z</time></trkpt><trkpt lat="45.6330807" lon="13.8851808"><ele>461.0</ele><time>2026-04-25T08:09:54.113Z</time></trkpt><trkpt lat="45.6329285" lon="13.8853812"><ele>461.0</ele><time>2026-04-25T08:09:55.094Z</time></trkpt><trkpt lat="45.6327786" lon="13.8855836"><ele>461.0</ele><time>2026-04-25T08:09:56.097Z</time></trkpt><trkpt lat="45.6326342" lon="13.8857934"><ele>461.0</ele><time>2026-04-25T08:09:57.095Z</time></trkpt><trkpt lat="45.6324844" lon="13.8859982"><ele>461.0</ele><time>2026-04-25T08:09:58.097Z</time></trkpt><trkpt lat="45.6323438" lon="13.8862066"><ele>461.0</ele><time>2026-04-25T08:09:59.096Z</time></trkpt><trkpt lat="45.632205" lon="13.8864152"><ele>461.0</ele><time>2026-04-25T08:10:00.096Z</time></trkpt><trkpt lat="45.6320786" lon="13.8866356"><ele>461.0</ele><time>2026-04-25T08:10:01.1Z</time></trkpt><trkpt lat="45.631966" lon="13.8868664"><ele>463.3333333333333</ele><time>2026-04-25T08:10:02.095Z</time></trkpt><trkpt lat="45.6318766" lon="13.8871173"><ele>465.66666666666663</ele><time>2026-04-25T08:10:03.097Z</time></trkpt><trkpt lat="45.6318087" lon="13.8873932"><ele>468.0</ele><time>2026-04-25T08:10:04.102Z</time></trkpt><trkpt lat="45.6317548" lon="13.887689"><ele>468.0</ele><time>2026-04-25T08:10:05.093Z</time></trkpt><trkpt lat="45.6316992" lon="13.8879905"><ele>468.0</ele><time>2026-04-25T08:10:06.093Z</time></trkpt><trkpt lat="45.6316415" lon="13.8882793"><ele>468.0</ele><time>2026-04-25T08:10:07.099Z</time></trkpt><trkpt lat="45.6315813" lon="13.8885625"><ele>469.33333333333337</ele><time>2026-04-25T08:10:08.1Z</time></trkpt><trkpt lat="45.6315151" lon="13.8888326"><ele>470.6666666666667</ele><time>2026-04-25T08:10:09.101Z</time></trkpt><trkpt lat="45.6314239" lon="13.8891064"><ele>472.0</ele><time>2026-04-25T08:10:10.099Z</time></trkpt><trkpt lat="45.6313113" lon="13.8893752"><ele>471.33333333333337</ele><time>2026-04-25T08:10:11.095Z</time></trkpt><trkpt lat="45.6311866" lon="13.8896292"><ele>470.66666666666663</ele><time>2026-04-25T08:10:12.094Z</time></trkpt><trkpt lat="45.631058" lon="13.8898775"><ele>470.0</ele><time>2026-04-25T08:10:13.086Z</time></trkpt><trkpt lat="45.630925" lon="13.8901228"><ele>474.0</ele><time>2026-04-25T08:10:14.091Z</time></trkpt><trkpt lat="45.6307916" lon="13.8903733"><ele>478.0</ele><time>2026-04-25T08:10:15.087Z</time></trkpt><trkpt lat="45.6306599" lon="13.8906298"><ele>482.0</ele><time>2026-04-25T08:10:16.089Z</time></trkpt><trkpt lat="45.6305303" lon="13.8908898"><ele>485.0</ele><time>2026-04-25T08:10:17.092Z</time></trkpt><trkpt lat="45.6303982" lon="13.8911506"><ele>488.0</ele><time>2026-04-25T08:10:18.086Z</time></trkpt><trkpt lat="45.630267" lon="13.8914114"><ele>485.66666666666663</ele><time>2026-04-25T08:10:19.113Z</time></trkpt><trkpt lat="45.6301354" lon="13.8916711"><ele>483.33333333333337</ele><time>2026-04-25T08:10:20.092Z</time></trkpt><trkpt lat="45.6300002" lon="13.8919247"><ele>481.0</ele><time>2026-04-25T08:10:21.088Z</time></trkpt><trkpt lat="45.6298579" lon="13.8921631"><ele>481.0</ele><time>2026-04-25T08:10:22.089Z</time></trkpt><trkpt lat="45.6297026" lon="13.8923714"><ele>481.0</ele><time>2026-04-25T08:10:23.098Z</time></trkpt><trkpt lat="45.6295372" lon="13.8925721"><ele>481.0</ele><time>2026-04-25T08:10:24.099Z</time></trkpt><trkpt lat="45.6293596" lon="13.8927661"><ele>480.0</ele><time>2026-04-25T08:10:25.092Z</time></trkpt><trkpt lat="45.6291849" lon="13.892952"><ele>479.0</ele><time>2026-04-25T08:10:26.094Z</time></trkpt><trkpt lat="45.6290144" lon="13.8931372"><ele>478.0</ele><time>2026-04-25T08:10:27.097Z</time></trkpt><trkpt lat="45.628851" lon="13.893317"><ele>479.33333333333337</ele><time>2026-04-25T08:10:28.09Z</time></trkpt><trkpt lat="45.6287044" lon="13.8934887"><ele>480.66666666666663</ele><time>2026-04-25T08:10:29.094Z</time></trkpt><trkpt lat="45.628565" lon="13.8936657"><ele>482.0</ele><time>2026-04-25T08:10:30.09Z</time></trkpt><trkpt lat="45.6284583" lon="13.8938898"><ele>478.3333333333333</ele><time>2026-04-25T08:10:31.091Z</time></trkpt><trkpt lat="45.6283789" lon="13.8941452"><ele>474.66666666666663</ele><time>2026-04-25T08:10:32.093Z</time></trkpt><trkpt lat="45.6283115" lon="13.8944171"><ele>471.0</ele><time>2026-04-25T08:10:33.093Z</time></trkpt><trkpt lat="45.6282407" lon="13.8947101"><ele>471.0</ele><time>2026-04-25T08:10:34.091Z</time></trkpt><trkpt lat="45.6281721" lon="13.895007"><ele>471.0</ele><time>2026-04-25T08:10:35.088Z</time></trkpt><trkpt lat="45.628106" lon="13.8952958"><ele>471.0</ele><time>2026-04-25T08:10:36.094Z</time></trkpt><trkpt lat="45.6280401" lon="13.8955848"><ele>472.0</ele><time>2026-04-25T08:10:37.087Z</time></trkpt><trkpt lat="45.6279801" lon="13.8958558"><ele>473.0</ele><time>2026-04-25T08:10:38.092Z</time></trkpt><trkpt lat="45.6279275" lon="13.8961063"><ele>474.0</ele><time>2026-04-25T08:10:39.091Z</time></trkpt><trkpt lat="45.6278776" lon="13.8963135"><ele>474.5</ele><time>2026-04-25T08:10:40.091Z</time></trkpt><trkpt lat="45.6278367" lon="13.8964794"><ele>475.0</ele><time>2026-04-25T08:10:41.108Z</time></trkpt><trkpt lat="45.6277986" lon="13.8966317"><ele>475.5</ele><time>2026-04-25T08:10:42.1Z</time></trkpt><trkpt lat="45.6277531" lon="13.8967909"><ele>476.0</ele><time>2026-04-25T08:10:43.096Z</time></trkpt><trkpt lat="45.6276883" lon="13.8969691"><ele>474.66666666666663</ele><time>2026-04-25T08:10:44.102Z</time></trkpt><trkpt lat="45.6275968" lon="13.8971458"><ele>473.33333333333337</ele><time>2026-04-25T08:10:45.096Z</time></trkpt><trkpt lat="45.627473" lon="13.8973182"><ele>472.0</ele><time>2026-04-25T08:10:46.094Z</time></trkpt><trkpt lat="45.6273341" lon="13.8974901"><ele>472.33333333333337</ele><time>2026-04-25T08:10:47.105Z</time></trkpt><trkpt lat="45.6271895" lon="13.8976701"><ele>472.66666666666663</ele><time>2026-04-25T08:10:48.098Z</time></trkpt><trkpt lat="45.6270415" lon="13.8978576"><ele>473.0</ele><time>2026-04-25T08:10:49.099Z</time></trkpt><trkpt lat="45.6269054" lon="13.8980751"><ele>473.0</ele><time>2026-04-25T08:10:50.092Z</time></trkpt><trkpt lat="45.6267732" lon="13.8983142"><ele>473.0</ele><time>2026-04-25T08:10:51.096Z</time></trkpt><trkpt lat="45.6266508" lon="13.8985608"><ele>473.0</ele><time>2026-04-25T08:10:52.096Z</time></trkpt><trkpt lat="45.6265209" lon="13.8987943"><ele>472.3333333333333</ele><time>2026-04-25T08:10:53.1Z</time></trkpt><trkpt lat="45.626382" lon="13.8990105"><ele>471.66666666666663</ele><time>2026-04-25T08:10:54.088Z</time></trkpt><trkpt lat="45.6262313" lon="13.8991944"><ele>471.0</ele><time>2026-04-25T08:10:55.079Z</time></trkpt><trkpt lat="45.6260725" lon="13.8993617"><ele>470.0</ele><time>2026-04-25T08:10:56.092Z</time></trkpt><trkpt lat="45.6259102" lon="13.8995093"><ele>469.0</ele><time>2026-04-25T08:10:57.093Z</time></trkpt><trkpt lat="45.6257303" lon="13.8996498"><ele>468.0</ele><time>2026-04-25T08:10:58.093Z</time></trkpt><trkpt lat="45.6255409" lon="13.8997892"><ele>468.0</ele><time>2026-04-25T08:10:59.098Z</time></trkpt><trkpt lat="45.6253499" lon="13.8999305"><ele>468.0</ele><time>2026-04-25T08:11:00.084Z</time></trkpt><trkpt lat="45.6251675" lon="13.9000752"><ele>468.0</ele><time>2026-04-25T08:11:01.09Z</time></trkpt><trkpt lat="45.6249952" lon="13.9002183"><ele>468.0</ele><time>2026-04-25T08:11:02.092Z</time></trkpt><trkpt lat="45.6248339" lon="13.9003583"><ele>468.0</ele><time>2026-04-25T08:11:03.096Z</time></trkpt><trkpt lat="45.624684" lon="13.9004879"><ele>468.0</ele><time>2026-04-25T08:11:04.097Z</time></trkpt><trkpt lat="45.6245407" lon="13.900617"><ele>468.33333333333337</ele><time>2026-04-25T08:11:05.097Z</time></trkpt><trkpt lat="45.6244035" lon="13.9007431"><ele>468.6666666666667</ele><time>2026-04-25T08:11:06.096Z</time></trkpt><trkpt lat="45.6242705" lon="13.900872"><ele>469.0</ele><time>2026-04-25T08:11:07.097Z</time></trkpt><trkpt lat="45.6241427" lon="13.9010101"><ele>469.25</ele><time>2026-04-25T08:11:08.101Z</time></trkpt><trkpt lat="45.6240225" lon="13.9011446"><ele>469.5</ele><time>2026-04-25T08:11:09.093Z</time></trkpt><trkpt lat="45.6239064" lon="13.901271"><ele>469.75</ele><time>2026-04-25T08:11:10.098Z</time></trkpt><trkpt lat="45.6238001" lon="13.9013898"><ele>470.0</ele><time>2026-04-25T08:11:11.103Z</time></trkpt><trkpt lat="45.6237012" lon="13.9015027"><ele>470.0</ele><time>2026-04-25T08:11:12.091Z</time></trkpt><trkpt lat="45.6236043" lon="13.9016247"><ele>470.0</ele><time>2026-04-25T08:11:13.109Z</time></trkpt><trkpt lat="45.6235065" lon="13.9017695"><ele>470.0</ele><time>2026-04-25T08:11:14.094Z</time></trkpt><trkpt lat="45.623408" lon="13.9019357"><ele>470.0</ele><time>2026-04-25T08:11:15.102Z</time></trkpt><trkpt lat="45.6233085" lon="13.9021203"><ele>470.0</ele><time>2026-04-25T08:11:16.097Z</time></trkpt><trkpt lat="45.6232086" lon="13.9023243"><ele>470.0</ele><time>2026-04-25T08:11:17.095Z</time></trkpt><trkpt lat="45.6231023" lon="13.9025305"><ele>470.0</ele><time>2026-04-25T08:11:18.105Z</time></trkpt><trkpt lat="45.6229868" lon="13.9027426"><ele>469.66666666666663</ele><time>2026-04-25T08:11:19.097Z</time></trkpt><trkpt lat="45.6228552" lon="13.9029607"><ele>469.33333333333337</ele><time>2026-04-25T08:11:20.096Z</time></trkpt><trkpt lat="45.6227213" lon="13.903182"><ele>469.0</ele><time>2026-04-25T08:11:21.104Z</time></trkpt><trkpt lat="45.6225845" lon="13.9034051"><ele>468.33333333333337</ele><time>2026-04-25T08:11:22.097Z</time></trkpt><trkpt lat="45.6224471" lon="13.9036339"><ele>467.66666666666663</ele><time>2026-04-25T08:11:23.096Z</time></trkpt><trkpt lat="45.6223079" lon="13.9038608"><ele>467.0</ele><time>2026-04-25T08:11:24.094Z</time></trkpt><trkpt lat="45.6221721" lon="13.9040908"><ele>466.0</ele><time>2026-04-25T08:11:25.097Z</time></trkpt><trkpt lat="45.6220311" lon="13.9043257"><ele>465.0</ele><time>2026-04-25T08:11:26.1Z</time></trkpt><trkpt lat="45.6218934" lon="13.9045629"><ele>464.0</ele><time>2026-04-25T08:11:27.102Z</time></trkpt><trkpt lat="45.6217651" lon="13.9047859"><ele>464.0</ele><time>2026-04-25T08:11:28.089Z</time></trkpt><trkpt lat="45.6216431" lon="13.9049975"><ele>464.0</ele><time>2026-04-25T08:11:29.095Z</time></trkpt><trkpt lat="45.6215231" lon="13.9051976"><ele>464.0</ele><time>2026-04-25T08:11:30.092Z</time></trkpt><trkpt lat="45.6214115" lon="13.9053834"><ele>463.6</ele><time>2026-04-25T08:11:31.091Z</time></trkpt><trkpt lat="45.6213288" lon="13.9055101"><ele>463.2</ele><time>2026-04-25T08:11:32.096Z</time></trkpt><trkpt lat="45.6212616" lon="13.9056066"><ele>462.80000000000007</ele><time>2026-04-25T08:11:33.093Z</time></trkpt><trkpt lat="45.621175" lon="13.9056508"><ele>462.40000000000003</ele><time>2026-04-25T08:11:34.095Z</time></trkpt><trkpt lat="45.6210831" lon="13.9056812"><ele>462.0</ele><time>2026-04-25T08:11:35.082Z</time></trkpt><trkpt lat="45.6210109" lon="13.9057534"><ele>462.0</ele><time>2026-04-25T08:11:36.091Z</time></trkpt><trkpt lat="45.6209489" lon="13.9058502"><ele>462.0</ele><time>2026-04-25T08:11:37.09Z</time></trkpt><trkpt lat="45.620899" lon="13.9059524"><ele>462.0</ele><time>2026-04-25T08:11:38.086Z</time></trkpt><trkpt lat="45.6208572" lon="13.9060388"><ele>462.0</ele><time>2026-04-25T08:11:39.088Z</time></trkpt><trkpt lat="45.6207906" lon="13.9061219"><ele>462.0</ele><time>2026-04-25T08:11:41.101Z</time></trkpt><trkpt lat="45.6207314" lon="13.9061654"><ele>462.0</ele><time>2026-04-25T08:13:06.105Z</time></trkpt><trkpt lat="45.6207174" lon="13.9062565"><ele>461.3333333333333</ele><time>2026-04-25T08:13:08.087Z</time></trkpt><trkpt lat="45.6207007" lon="13.9063764"><ele>460.66666666666663</ele><time>2026-04-25T08:13:10.105Z</time></trkpt><trkpt lat="45.6206799" lon="13.9064855"><ele>460.0</ele><time>2026-04-25T08:13:12.105Z</time></trkpt><trkpt lat="45.6206486" lon="13.9066247"><ele>459.3333333333333</ele><time>2026-04-25T08:13:14.102Z</time></trkpt><trkpt lat="45.6206166" lon="13.9067081"><ele>458.66666666666663</ele><time>2026-04-25T08:13:15.101Z</time></trkpt><trkpt lat="45.6205753" lon="13.9067952"><ele>458.0</ele><time>2026-04-25T08:13:16.114Z</time></trkpt><trkpt lat="45.6205234" lon="13.9068797"><ele>457.99999999999994</ele><time>2026-04-25T08:13:17.1Z</time></trkpt><trkpt lat="45.6204698" lon="13.9069691"><ele>458.0</ele><time>2026-04-25T08:13:18.109Z</time></trkpt><trkpt lat="45.6204206" lon="13.9070491"><ele>458.0</ele><time>2026-04-25T08:13:19.103Z</time></trkpt><trkpt lat="45.6203719" lon="13.9071302"><ele>458.0</ele><time>2026-04-25T08:13:20.107Z</time></trkpt><trkpt lat="45.6203229" lon="13.9072085"><ele>457.99999999999994</ele><time>2026-04-25T08:13:21.103Z</time></trkpt><trkpt lat="45.620274" lon="13.9072877"><ele>458.0</ele><time>2026-04-25T08:13:22.102Z</time></trkpt><trkpt lat="45.6202222" lon="13.9073754"><ele>457.59999999999997</ele><time>2026-04-25T08:13:23.102Z</time></trkpt><trkpt lat="45.6201711" lon="13.9074707"><ele>457.19999999999993</ele><time>2026-04-25T08:13:24.102Z</time></trkpt><trkpt lat="45.6201177" lon="13.9075675"><ele>456.8</ele><time>2026-04-25T08:13:25.102Z</time></trkpt><trkpt lat="45.6200626" lon="13.9076705"><ele>456.4</ele><time>2026-04-25T08:13:26.103Z</time></trkpt><trkpt lat="45.6200051" lon="13.9077721"><ele>456.0</ele><time>2026-04-25T08:13:27.102Z</time></trkpt><trkpt lat="45.6199446" lon="13.9078822"><ele>455.5</ele><time>2026-04-25T08:13:28.103Z</time></trkpt><trkpt lat="45.6198836" lon="13.907995"><ele>455.0</ele><time>2026-04-25T08:13:29.101Z</time></trkpt><trkpt lat="45.6198089" lon="13.9081245"><ele>454.5</ele><time>2026-04-25T08:13:30.105Z</time></trkpt><trkpt lat="45.6197307" lon="13.9082599"><ele>454.0</ele><time>2026-04-25T08:13:31.11Z</time></trkpt><trkpt lat="45.6196537" lon="13.9083943"><ele>454.0</ele><time>2026-04-25T08:13:32.105Z</time></trkpt><trkpt lat="45.6195727" lon="13.9085301"><ele>454.0</ele><time>2026-04-25T08:13:33.101Z</time></trkpt><trkpt lat="45.6194901" lon="13.9086764"><ele>454.0</ele><time>2026-04-25T08:13:34.098Z</time></trkpt><trkpt lat="45.6194055" lon="13.908826"><ele>454.0</ele><time>2026-04-25T08:13:35.094Z</time></trkpt><trkpt lat="45.6193192" lon="13.9089723"><ele>454.25</ele><time>2026-04-25T08:13:36.098Z</time></trkpt><trkpt lat="45.6192307" lon="13.9091251"><ele>454.5</ele><time>2026-04-25T08:13:37.104Z</time></trkpt><trkpt lat="45.6191367" lon="13.9092776"><ele>454.75</ele><time>2026-04-25T08:13:38.097Z</time></trkpt><trkpt lat="45.6190435" lon="13.9094253"><ele>455.0</ele><time>2026-04-25T08:13:39.1Z</time></trkpt><trkpt lat="45.6189422" lon="13.9095667"><ele>455.25</ele><time>2026-04-25T08:13:40.104Z</time></trkpt><trkpt lat="45.6188363" lon="13.9097065"><ele>455.5</ele><time>2026-04-25T08:13:41.1Z</time></trkpt><trkpt lat="45.6187243" lon="13.9098495"><ele>455.75</ele><time>2026-04-25T08:13:42.104Z</time></trkpt><trkpt lat="45.6186195" lon="13.9099964"><ele>456.0</ele><time>2026-04-25T08:13:43.1Z</time></trkpt><trkpt lat="45.6185163" lon="13.9101525"><ele>457.5</ele><time>2026-04-25T08:13:44.102Z</time></trkpt><trkpt lat="45.61841" lon="13.9103023"><ele>459.0</ele><time>2026-04-25T08:13:45.103Z</time></trkpt><trkpt lat="45.6183043" lon="13.910451"><ele>460.5</ele><time>2026-04-25T08:13:46.098Z</time></trkpt><trkpt lat="45.6181997" lon="13.9105932"><ele>462.0</ele><time>2026-04-25T08:13:47.099Z</time></trkpt><trkpt lat="45.6180974" lon="13.9107375"><ele>462.0</ele><time>2026-04-25T08:13:48.105Z</time></trkpt><trkpt lat="45.617994" lon="13.9108922"><ele>462.0</ele><time>2026-04-25T08:13:49.099Z</time></trkpt><trkpt lat="45.6178892" lon="13.9110461"><ele>462.0</ele><time>2026-04-25T08:13:50.1Z</time></trkpt><trkpt lat="45.6177865" lon="13.9112018"><ele>464.33333333333337</ele><time>2026-04-25T08:13:51.096Z</time></trkpt><trkpt lat="45.6176857" lon="13.9113667"><ele>466.6666666666667</ele><time>2026-04-25T08:13:52.108Z</time></trkpt><trkpt lat="45.6175873" lon="13.9115356"><ele>469.0</ele><time>2026-04-25T08:13:53.098Z</time></trkpt><trkpt lat="45.6174922" lon="13.911708"><ele>470.0</ele><time>2026-04-25T08:13:54.105Z</time></trkpt><trkpt lat="45.6173954" lon="13.9118803"><ele>471.0</ele><time>2026-04-25T08:13:55.1Z</time></trkpt><trkpt lat="45.6172979" lon="13.9120521"><ele>472.0</ele><time>2026-04-25T08:13:56.097Z</time></trkpt><trkpt lat="45.6172045" lon="13.912225"><ele>472.0</ele><time>2026-04-25T08:13:57.104Z</time></trkpt><trkpt lat="45.617111" lon="13.9123976"><ele>472.0</ele><time>2026-04-25T08:13:58.103Z</time></trkpt><trkpt lat="45.6170169" lon="13.9125736"><ele>472.0</ele><time>2026-04-25T08:13:59.095Z</time></trkpt><trkpt lat="45.6169178" lon="13.9127516"><ele>474.0</ele><time>2026-04-25T08:14:00.102Z</time></trkpt><trkpt lat="45.6168178" lon="13.9129251"><ele>476.0</ele><time>2026-04-25T08:14:01.1Z</time></trkpt><trkpt lat="45.616717" lon="13.9130973"><ele>478.0</ele><time>2026-04-25T08:14:02.098Z</time></trkpt><trkpt lat="45.6166184" lon="13.9132708"><ele>478.6666666666667</ele><time>2026-04-25T08:14:03.098Z</time></trkpt><trkpt lat="45.6165226" lon="13.9134498"><ele>479.33333333333337</ele><time>2026-04-25T08:14:04.095Z</time></trkpt><trkpt lat="45.6164252" lon="13.9136266"><ele>480.0</ele><time>2026-04-25T08:14:05.086Z</time></trkpt><trkpt lat="45.6163316" lon="13.9138029"><ele>480.0</ele><time>2026-04-25T08:14:06.089Z</time></trkpt><trkpt lat="45.6162392" lon="13.9139738"><ele>480.0</ele><time>2026-04-25T08:14:07.091Z</time></trkpt><trkpt lat="45.6161518" lon="13.9141398"><ele>480.0</ele><time>2026-04-25T08:14:08.104Z</time></trkpt><trkpt lat="45.6160668" lon="13.9143121"><ele>480.0</ele><time>2026-04-25T08:14:09.094Z</time></trkpt><trkpt lat="45.6159826" lon="13.9144773"><ele>481.75</ele><time>2026-04-25T08:14:10.103Z</time></trkpt><trkpt lat="45.6158907" lon="13.9146385"><ele>483.5</ele><time>2026-04-25T08:14:11.104Z</time></trkpt><trkpt lat="45.6157888" lon="13.9147857"><ele>485.25</ele><time>2026-04-25T08:14:12.104Z</time></trkpt><trkpt lat="45.6156817" lon="13.9149168"><ele>487.0</ele><time>2026-04-25T08:14:13.099Z</time></trkpt><trkpt lat="45.6155651" lon="13.9150396"><ele>488.6666666666667</ele><time>2026-04-25T08:14:14.12Z</time></trkpt><trkpt lat="45.6154329" lon="13.9151476"><ele>490.33333333333337</ele><time>2026-04-25T08:14:15.106Z</time></trkpt><trkpt lat="45.6152962" lon="13.9152404"><ele>492.0</ele><time>2026-04-25T08:14:16.107Z</time></trkpt><trkpt lat="45.6151537" lon="13.9153175"><ele>494.33333333333337</ele><time>2026-04-25T08:14:17.096Z</time></trkpt><trkpt lat="45.6150129" lon="13.915388"><ele>496.6666666666667</ele><time>2026-04-25T08:14:18.1Z</time></trkpt><trkpt lat="45.6148686" lon="13.9154492"><ele>499.0</ele><time>2026-04-25T08:14:19.103Z</time></trkpt><trkpt lat="45.61472" lon="13.9155108"><ele>499.0</ele><time>2026-04-25T08:14:20.102Z</time></trkpt><trkpt lat="45.6145712" lon="13.9155727"><ele>499.0</ele><time>2026-04-25T08:14:21.11Z</time></trkpt><trkpt lat="45.6144212" lon="13.9156356"><ele>499.0</ele><time>2026-04-25T08:14:22.113Z</time></trkpt><trkpt lat="45.6142728" lon="13.915696"><ele>498.6666666666667</ele><time>2026-04-25T08:14:23.099Z</time></trkpt><trkpt lat="45.6141276" lon="13.9157504"><ele>498.33333333333337</ele><time>2026-04-25T08:14:24.11Z</time></trkpt><trkpt lat="45.6139777" lon="13.9157921"><ele>498.0</ele><time>2026-04-25T08:14:25.108Z</time></trkpt><trkpt lat="45.6138242" lon="13.9158166"><ele>498.0</ele><time>2026-04-25T08:14:26.102Z</time></trkpt><trkpt lat="45.6136663" lon="13.9158116"><ele>498.0</ele><time>2026-04-25T08:14:27.113Z</time></trkpt><trkpt lat="45.6135072" lon="13.9157832"><ele>498.0</ele><time>2026-04-25T08:14:28.095Z</time></trkpt><trkpt lat="45.6133434" lon="13.9157435"><ele>500.66666666666663</ele><time>2026-04-25T08:14:29.098Z</time></trkpt><trkpt lat="45.6131776" lon="13.915699"><ele>503.3333333333333</ele><time>2026-04-25T08:14:30.098Z</time></trkpt><trkpt lat="45.6130143" lon="13.9156548"><ele>506.0</ele><time>2026-04-25T08:14:31.096Z</time></trkpt><trkpt lat="45.6128537" lon="13.9156159"><ele>505.66666666666663</ele><time>2026-04-25T08:14:32.104Z</time></trkpt><trkpt lat="45.6126912" lon="13.9155796"><ele>505.33333333333337</ele><time>2026-04-25T08:14:33.092Z</time></trkpt><trkpt lat="45.6125302" lon="13.9155521"><ele>505.0</ele><time>2026-04-25T08:14:34.093Z</time></trkpt><trkpt lat="45.6123764" lon="13.9155428"><ele>505.0</ele><time>2026-04-25T08:14:35.083Z</time></trkpt><trkpt lat="45.6122289" lon="13.9155678"><ele>505.0</ele><time>2026-04-25T08:14:36.098Z</time></trkpt><trkpt lat="45.6120895" lon="13.9156073"><ele>505.0</ele><time>2026-04-25T08:14:37.094Z</time></trkpt><trkpt lat="45.6119608" lon="13.9156904"><ele>505.0</ele><time>2026-04-25T08:14:38.092Z</time></trkpt><trkpt lat="45.6118376" lon="13.9158112"><ele>505.5</ele><time>2026-04-25T08:14:39.088Z</time></trkpt><trkpt lat="45.6117292" lon="13.9159547"><ele>506.0</ele><time>2026-04-25T08:14:40.095Z</time></trkpt><trkpt lat="45.6116411" lon="13.9161087"><ele>506.5</ele><time>2026-04-25T08:14:41.089Z</time></trkpt><trkpt lat="45.6115705" lon="13.9162909"><ele>507.0</ele><time>2026-04-25T08:14:42.086Z</time></trkpt><trkpt lat="45.611524" lon="13.9164934"><ele>507.0</ele><time>2026-04-25T08:14:43.099Z</time></trkpt><trkpt lat="45.6114983" lon="13.916704"><ele>507.0</ele><time>2026-04-25T08:14:44.096Z</time></trkpt><trkpt lat="45.6114945" lon="13.9169112"><ele>507.0</ele><time>2026-04-25T08:14:45.092Z</time></trkpt><trkpt lat="45.6115028" lon="13.9171244"><ele>507.0</ele><time>2026-04-25T08:14:46.105Z</time></trkpt><trkpt lat="45.6115113" lon="13.9173394"><ele>507.25</ele><time>2026-04-25T08:14:47.09Z</time></trkpt><trkpt lat="45.6115182" lon="13.9175585"><ele>507.5</ele><time>2026-04-25T08:14:48.093Z</time></trkpt><trkpt lat="45.6115257" lon="13.9177697"><ele>507.75</ele><time>2026-04-25T08:14:49.093Z</time></trkpt><trkpt lat="45.6115336" lon="13.9179725"><ele>508.0</ele><time>2026-04-25T08:14:50.095Z</time></trkpt><trkpt lat="45.6115406" lon="13.9181823"><ele>508.0</ele><time>2026-04-25T08:14:51.108Z</time></trkpt><trkpt lat="45.6115457" lon="13.9183869"><ele>508.0</ele><time>2026-04-25T08:14:52.089Z</time></trkpt><trkpt lat="45.6115533" lon="13.9185859"><ele>508.0</ele><time>2026-04-25T08:14:53.092Z</time></trkpt><trkpt lat="45.6115617" lon="13.91879"><ele>508.0</ele><time>2026-04-25T08:14:54.091Z</time></trkpt><trkpt lat="45.6115713" lon="13.9189919"><ele>508.75</ele><time>2026-04-25T08:14:55.086Z</time></trkpt><trkpt lat="45.6115799" lon="13.919183"><ele>509.5</ele><time>2026-04-25T08:14:56.086Z</time></trkpt><trkpt lat="45.6115842" lon="13.9193615"><ele>510.25</ele><time>2026-04-25T08:14:57.095Z</time></trkpt><trkpt lat="45.6115891" lon="13.9195331"><ele>511.0</ele><time>2026-04-25T08:14:58.092Z</time></trkpt><trkpt lat="45.6115818" lon="13.9197012"><ele>511.5</ele><time>2026-04-25T08:14:59.089Z</time></trkpt><trkpt lat="45.6115667" lon="13.9198711"><ele>512.0</ele><time>2026-04-25T08:15:00.093Z</time></trkpt><trkpt lat="45.6115477" lon="13.9200354"><ele>512.5</ele><time>2026-04-25T08:15:01.112Z</time></trkpt><trkpt lat="45.6115168" lon="13.9201952"><ele>513.0</ele><time>2026-04-25T08:15:02.096Z</time></trkpt><trkpt lat="45.611478" lon="13.9203535"><ele>513.6</ele><time>2026-04-25T08:15:03.087Z</time></trkpt><trkpt lat="45.6114354" lon="13.9204859"><ele>514.1999999999999</ele><time>2026-04-25T08:15:04.092Z</time></trkpt><trkpt lat="45.6113877" lon="13.9206165"><ele>514.8</ele><time>2026-04-25T08:15:05.086Z</time></trkpt><trkpt lat="45.6113332" lon="13.9207449"><ele>515.4</ele><time>2026-04-25T08:15:06.097Z</time></trkpt><trkpt lat="45.6112722" lon="13.9208618"><ele>516.0</ele><time>2026-04-25T08:15:07.087Z</time></trkpt><trkpt lat="45.6112078" lon="13.9209815"><ele>514.75</ele><time>2026-04-25T08:15:08.099Z</time></trkpt><trkpt lat="45.6111428" lon="13.9211098"><ele>513.5</ele><time>2026-04-25T08:15:09.095Z</time></trkpt><trkpt lat="45.6110746" lon="13.9212465"><ele>512.25</ele><time>2026-04-25T08:15:10.094Z</time></trkpt><trkpt lat="45.6110078" lon="13.9213861"><ele>511.0</ele><time>2026-04-25T08:15:11.094Z</time></trkpt><trkpt lat="45.6109355" lon="13.921529"><ele>511.0</ele><time>2026-04-25T08:15:12.095Z</time></trkpt><trkpt lat="45.6108624" lon="13.9216797"><ele>511.0</ele><time>2026-04-25T08:15:13.096Z</time></trkpt><trkpt lat="45.6107854" lon="13.9218277"><ele>511.0</ele><time>2026-04-25T08:15:14.097Z</time></trkpt><trkpt lat="45.6107099" lon="13.9219842"><ele>511.0</ele><time>2026-04-25T08:15:15.089Z</time></trkpt><trkpt lat="45.6106348" lon="13.9221426"><ele>512.5</ele><time>2026-04-25T08:15:16.095Z</time></trkpt><trkpt lat="45.6105572" lon="13.9223142"><ele>514.0</ele><time>2026-04-25T08:15:17.09Z</time></trkpt><trkpt lat="45.6104792" lon="13.922484"><ele>515.5</ele><time>2026-04-25T08:15:18.09Z</time></trkpt><trkpt lat="45.6104038" lon="13.9226554"><ele>517.0</ele><time>2026-04-25T08:15:19.087Z</time></trkpt><trkpt lat="45.6103319" lon="13.9228338"><ele>516.5</ele><time>2026-04-25T08:15:20.094Z</time></trkpt><trkpt lat="45.6102709" lon="13.9230156"><ele>516.0</ele><time>2026-04-25T08:15:21.096Z</time></trkpt><trkpt lat="45.6102229" lon="13.9231994"><ele>515.5</ele><time>2026-04-25T08:15:22.102Z</time></trkpt><trkpt lat="45.610179" lon="13.9233868"><ele>515.0</ele><time>2026-04-25T08:15:23.093Z</time></trkpt><trkpt lat="45.6101444" lon="13.9235641"><ele>515.0</ele><time>2026-04-25T08:15:24.101Z</time></trkpt><trkpt lat="45.6101145" lon="13.923742"><ele>515.0</ele><time>2026-04-25T08:15:25.093Z</time></trkpt><trkpt lat="45.6100917" lon="13.9239156"><ele>515.0</ele><time>2026-04-25T08:15:26.092Z</time></trkpt><trkpt lat="45.6100799" lon="13.9240872"><ele>515.0</ele><time>2026-04-25T08:15:27.091Z</time></trkpt><trkpt lat="45.6100732" lon="13.9242581"><ele>514.75</ele><time>2026-04-25T08:15:28.096Z</time></trkpt><trkpt lat="45.6100692" lon="13.9244298"><ele>514.5</ele><time>2026-04-25T08:15:29.1Z</time></trkpt><trkpt lat="45.6100673" lon="13.9246034"><ele>514.25</ele><time>2026-04-25T08:15:30.091Z</time></trkpt><trkpt lat="45.6100625" lon="13.9247773"><ele>514.0</ele><time>2026-04-25T08:15:31.1Z</time></trkpt><trkpt lat="45.6100589" lon="13.9249536"><ele>513.25</ele><time>2026-04-25T08:15:32.098Z</time></trkpt><trkpt lat="45.6100528" lon="13.9251382"><ele>512.5</ele><time>2026-04-25T08:15:33.092Z</time></trkpt><trkpt lat="45.6100459" lon="13.9253228"><ele>511.75</ele><time>2026-04-25T08:15:34.097Z</time></trkpt><trkpt lat="45.6100396" lon="13.9254882"><ele>511.0</ele><time>2026-04-25T08:15:35.091Z</time></trkpt><trkpt lat="45.6100322" lon="13.9256508"><ele>511.0</ele><time>2026-04-25T08:15:36.103Z</time></trkpt><trkpt lat="45.6100161" lon="13.9258148"><ele>511.0</ele><time>2026-04-25T08:15:37.105Z</time></trkpt><trkpt lat="45.6099977" lon="13.9259653"><ele>511.0</ele><time>2026-04-25T08:15:38.099Z</time></trkpt><trkpt lat="45.6099666" lon="13.9261116"><ele>511.0</ele><time>2026-04-25T08:15:39.098Z</time></trkpt><trkpt lat="45.6099271" lon="13.9262496"><ele>511.0</ele><time>2026-04-25T08:15:40.105Z</time></trkpt><trkpt lat="45.6098873" lon="13.9263842"><ele>510.8</ele><time>2026-04-25T08:15:41.097Z</time></trkpt><trkpt lat="45.609849" lon="13.9265123"><ele>510.6</ele><time>2026-04-25T08:15:42.1Z</time></trkpt><trkpt lat="45.609814" lon="13.9266445"><ele>510.4</ele><time>2026-04-25T08:15:43.095Z</time></trkpt><trkpt lat="45.6097784" lon="13.9267903"><ele>510.2</ele><time>2026-04-25T08:15:44.095Z</time></trkpt><trkpt lat="45.6097387" lon="13.9269466"><ele>510.0</ele><time>2026-04-25T08:15:45.094Z</time></trkpt><trkpt lat="45.6096908" lon="13.9271109"><ele>509.75</ele><time>2026-04-25T08:15:46.097Z</time></trkpt><trkpt lat="45.60964" lon="13.9272732"><ele>509.5</ele><time>2026-04-25T08:15:47.1Z</time></trkpt><trkpt lat="45.6095916" lon="13.9274328"><ele>509.25</ele><time>2026-04-25T08:15:48.092Z</time></trkpt><trkpt lat="45.6095455" lon="13.9275955"><ele>509.0</ele><time>2026-04-25T08:15:49.094Z</time></trkpt><trkpt lat="45.6094992" lon="13.9277659"><ele>506.5</ele><time>2026-04-25T08:15:50.098Z</time></trkpt><trkpt lat="45.6094551" lon="13.9279386"><ele>504.0</ele><time>2026-04-25T08:15:51.097Z</time></trkpt><trkpt lat="45.6094175" lon="13.9281166"><ele>501.5</ele><time>2026-04-25T08:15:52.096Z</time></trkpt><trkpt lat="45.6093795" lon="13.9282948"><ele>499.0</ele><time>2026-04-25T08:15:53.098Z</time></trkpt><trkpt lat="45.6093442" lon="13.9284674"><ele>498.75</ele><time>2026-04-25T08:15:54.102Z</time></trkpt><trkpt lat="45.6093122" lon="13.9286325"><ele>498.5</ele><time>2026-04-25T08:15:55.097Z</time></trkpt><trkpt lat="45.6092772" lon="13.928798"><ele>498.25</ele><time>2026-04-25T08:15:56.1Z</time></trkpt><trkpt lat="45.6092477" lon="13.9289601"><ele>498.0</ele><time>2026-04-25T08:15:57.091Z</time></trkpt><trkpt lat="45.6092154" lon="13.9291224"><ele>497.75</ele><time>2026-04-25T08:15:58.099Z</time></trkpt><trkpt lat="45.6091853" lon="13.9292904"><ele>497.5</ele><time>2026-04-25T08:15:59.096Z</time></trkpt><trkpt lat="45.6091457" lon="13.9294676"><ele>497.25</ele><time>2026-04-25T08:16:00.101Z</time></trkpt><trkpt lat="45.6091089" lon="13.9296433"><ele>497.0</ele><time>2026-04-25T08:16:01.095Z</time></trkpt><trkpt lat="45.6090689" lon="13.9298224"><ele>497.0</ele><time>2026-04-25T08:16:02.079Z</time></trkpt><trkpt lat="45.6090287" lon="13.9300007"><ele>497.0</ele><time>2026-04-25T08:16:03.08Z</time></trkpt><trkpt lat="45.6089947" lon="13.9301677"><ele>497.0</ele><time>2026-04-25T08:16:04.104Z</time></trkpt><trkpt lat="45.6089576" lon="13.9303388"><ele>497.0</ele><time>2026-04-25T08:16:05.1Z</time></trkpt><trkpt lat="45.6089307" lon="13.9304996"><ele>496.20000000000005</ele><time>2026-04-25T08:16:06.103Z</time></trkpt><trkpt lat="45.6089086" lon="13.9306381"><ele>495.40000000000003</ele><time>2026-04-25T08:16:07.098Z</time></trkpt><trkpt lat="45.608892" lon="13.9307554"><ele>494.59999999999997</ele><time>2026-04-25T08:16:08.096Z</time></trkpt><trkpt lat="45.608876" lon="13.9309055"><ele>493.79999999999995</ele><time>2026-04-25T08:16:10.097Z</time></trkpt><trkpt lat="45.6088598" lon="13.9310645"><ele>493.0</ele><time>2026-04-25T08:16:12.106Z</time></trkpt><trkpt lat="45.6088512" lon="13.9312238"><ele>492.4</ele><time>2026-04-25T08:16:14.099Z</time></trkpt><trkpt lat="45.6088459" lon="13.9313648"><ele>491.79999999999995</ele><time>2026-04-25T08:16:16.095Z</time></trkpt><trkpt lat="45.6088447" lon="13.931518"><ele>491.2</ele><time>2026-04-25T08:16:18.098Z</time></trkpt><trkpt lat="45.6088413" lon="13.9316925"><ele>490.6</ele><time>2026-04-25T08:16:20.099Z</time></trkpt><trkpt lat="45.6088337" lon="13.9317927"><ele>490.0</ele><time>2026-04-25T08:16:21.099Z</time></trkpt><trkpt lat="45.6088077" lon="13.9319039"><ele>489.6666666666667</ele><time>2026-04-25T08:16:22.098Z</time></trkpt><trkpt lat="45.6087646" lon="13.9320012"><ele>489.33333333333337</ele><time>2026-04-25T08:16:23.096Z</time></trkpt><trkpt lat="45.60871" lon="13.9320796"><ele>489.0</ele><time>2026-04-25T08:16:24.093Z</time></trkpt><trkpt lat="45.6086472" lon="13.9321619"><ele>488.66666666666663</ele><time>2026-04-25T08:16:25.094Z</time></trkpt><trkpt lat="45.6085874" lon="13.9322621"><ele>488.3333333333333</ele><time>2026-04-25T08:16:26.098Z</time></trkpt><trkpt lat="45.6085475" lon="13.9323833"><ele>488.0</ele><time>2026-04-25T08:16:27.107Z</time></trkpt><trkpt lat="45.6085287" lon="13.9325109"><ele>488.0</ele><time>2026-04-25T08:16:28.094Z</time></trkpt><trkpt lat="45.6085303" lon="13.9326417"><ele>487.99999999999994</ele><time>2026-04-25T08:16:29.089Z</time></trkpt><trkpt lat="45.6085492" lon="13.9327703"><ele>487.99999999999994</ele><time>2026-04-25T08:16:30.109Z</time></trkpt><trkpt lat="45.6085781" lon="13.9328889"><ele>488.0</ele><time>2026-04-25T08:16:31.09Z</time></trkpt><trkpt lat="45.6086153" lon="13.9330142"><ele>488.0</ele><time>2026-04-25T08:16:32.096Z</time></trkpt><trkpt lat="45.6086555" lon="13.9331367"><ele>487.99999999999994</ele><time>2026-04-25T08:16:33.097Z</time></trkpt><trkpt lat="45.6086966" lon="13.9332493"><ele>488.0</ele><time>2026-04-25T08:16:34.094Z</time></trkpt><trkpt lat="45.608732" lon="13.9333481"><ele>488.0</ele><time>2026-04-25T08:16:35.101Z</time></trkpt><trkpt lat="45.6087604" lon="13.9334545"><ele>488.0</ele><time>2026-04-25T08:16:37.096Z</time></trkpt><trkpt lat="45.6087972" lon="13.9335788"><ele>487.99999999999994</ele><time>2026-04-25T08:16:40.097Z</time></trkpt><trkpt lat="45.608829" lon="13.9337067"><ele>488.0</ele><time>2026-04-25T08:16:42.1Z</time></trkpt><trkpt lat="45.6088796" lon="13.9338759"><ele>487.79999999999995</ele><time>2026-04-25T08:16:44.1Z</time></trkpt><trkpt lat="45.6088903" lon="13.9339702"><ele>487.59999999999997</ele><time>2026-04-25T08:16:45.098Z</time></trkpt><trkpt lat="45.6088966" lon="13.9341298"><ele>487.40000000000003</ele><time>2026-04-25T08:16:47.106Z</time></trkpt><trkpt lat="45.6089742" lon="13.9342236"><ele>487.20000000000005</ele><time>2026-04-25T08:16:49.095Z</time></trkpt><trkpt lat="45.6090725" lon="13.9341884"><ele>487.0</ele><time>2026-04-25T08:16:51.095Z</time></trkpt><trkpt lat="45.6091327" lon="13.9341008"><ele>487.0</ele><time>2026-04-25T08:16:53.097Z</time></trkpt><trkpt lat="45.6092056" lon="13.934018"><ele>487.0</ele><time>2026-04-25T08:16:57.098Z</time></trkpt><trkpt lat="45.609225" lon="13.9339012"><ele>487.0</ele><time>2026-04-25T08:17:00.095Z</time></trkpt><trkpt lat="45.6091891" lon="13.933816"><ele>487.0</ele><time>2026-04-25T08:17:02.096Z</time></trkpt><trkpt lat="45.6091295" lon="13.933786"><ele>487.0</ele><time>2026-04-25T08:17:04.093Z</time></trkpt><trkpt lat="45.6090809" lon="13.9337102"><ele>487.0</ele><time>2026-04-25T08:17:10.09Z</time></trkpt><trkpt lat="45.6090429" lon="13.9336382"><ele>487.0</ele><time>2026-04-25T08:19:04.106Z</time></trkpt><trkpt lat="45.6090829" lon="13.9335466"><ele>487.00000000000006</ele><time>2026-04-25T08:22:26.116Z</time></trkpt><trkpt lat="45.6090704" lon="13.9334294"><ele>487.0</ele><time>2026-04-25T08:22:29.1Z</time></trkpt><trkpt lat="45.6089652" lon="13.9333955"><ele>487.0</ele><time>2026-04-25T08:22:31.092Z</time></trkpt><trkpt lat="45.6088839" lon="13.9334329"><ele>487.0</ele><time>2026-04-25T08:22:34.117Z</time></trkpt><trkpt lat="45.6088395" lon="13.9335696"><ele>487.00000000000006</ele><time>2026-04-25T08:22:40.122Z</time></trkpt><trkpt lat="45.6088451" lon="13.933665"><ele>487.0</ele><time>2026-04-25T08:22:41.096Z</time></trkpt><trkpt lat="45.6088645" lon="13.9337725"><ele>487.0</ele><time>2026-04-25T08:22:42.111Z</time></trkpt><trkpt lat="45.6088844" lon="13.9338872"><ele>487.00000000000006</ele><time>2026-04-25T08:22:43.114Z</time></trkpt><trkpt lat="45.6088886" lon="13.9339948"><ele>487.00000000000006</ele><time>2026-04-25T08:22:44.126Z</time></trkpt><trkpt lat="45.6089176" lon="13.9341598"><ele>487.0</ele><time>2026-04-25T08:22:46.107Z</time></trkpt><trkpt lat="45.6090217" lon="13.9342121"><ele>487.0</ele><time>2026-04-25T08:22:48.117Z</time></trkpt><trkpt lat="45.6090774" lon="13.934153"><ele>487.00000000000006</ele><time>2026-04-25T08:22:49.105Z</time></trkpt><trkpt lat="45.6091282" lon="13.9340867"><ele>487.0</ele><time>2026-04-25T08:22:50.095Z</time></trkpt><trkpt lat="45.6091786" lon="13.9340268"><ele>487.0</ele><time>2026-04-25T08:22:51.112Z</time></trkpt><trkpt lat="45.6092677" lon="13.9339686"><ele>487.0</ele><time>2026-04-25T08:22:53.102Z</time></trkpt><trkpt lat="45.6093489" lon="13.9340131"><ele>487.00000000000006</ele><time>2026-04-25T08:22:55.087Z</time></trkpt><trkpt lat="45.6094232" lon="13.9341012"><ele>487.0</ele><time>2026-04-25T08:22:57.09Z</time></trkpt><trkpt lat="45.6095005" lon="13.9342125"><ele>487.42857142857144</ele><time>2026-04-25T08:22:59.101Z</time></trkpt><trkpt lat="45.6095192" lon="13.934328"><ele>487.85714285714283</ele><time>2026-04-25T08:23:01.092Z</time></trkpt><trkpt lat="45.6094641" lon="13.9343944"><ele>488.2857142857143</ele><time>2026-04-25T08:23:03.09Z</time></trkpt><trkpt lat="45.6094042" lon="13.9344357"><ele>488.7142857142857</ele><time>2026-04-25T08:23:06.11Z</time></trkpt><trkpt lat="45.6093554" lon="13.9345065"><ele>489.1428571428571</ele><time>2026-04-25T08:23:08.094Z</time></trkpt><trkpt lat="45.6093183" lon="13.9346045"><ele>489.57142857142856</ele><time>2026-04-25T08:23:11.091Z</time></trkpt><trkpt lat="45.6093232" lon="13.9347098"><ele>490.0</ele><time>2026-04-25T08:30:56.097Z</time></trkpt><trkpt lat="45.6092713" lon="13.9346424"><ele>490.00000000000006</ele><time>2026-04-25T08:31:01.104Z</time></trkpt><trkpt lat="45.6093336" lon="13.9345606"><ele>490.0</ele><time>2026-04-25T08:31:03.088Z</time></trkpt><trkpt lat="45.6094213" lon="13.9344666"><ele>490.0</ele><time>2026-04-25T08:31:05.1Z</time></trkpt><trkpt lat="45.6094703" lon="13.9344087"><ele>490.0</ele><time>2026-04-25T08:31:06.095Z</time></trkpt><trkpt lat="45.6095239" lon="13.9342829"><ele>490.00000000000006</ele><time>2026-04-25T08:31:08.094Z</time></trkpt><trkpt lat="45.6094991" lon="13.934195"><ele>490.0</ele><time>2026-04-25T08:31:09.091Z</time></trkpt><trkpt lat="45.6094486" lon="13.9341082"><ele>489.57142857142856</ele><time>2026-04-25T08:31:10.094Z</time></trkpt><trkpt lat="45.6093935" lon="13.9340436"><ele>489.1428571428571</ele><time>2026-04-25T08:31:11.09Z</time></trkpt><trkpt lat="45.6093419" lon="13.9339846"><ele>488.7142857142857</ele><time>2026-04-25T08:31:12.098Z</time></trkpt><trkpt lat="45.6092806" lon="13.933951"><ele>488.2857142857143</ele><time>2026-04-25T08:31:13.096Z</time></trkpt><trkpt lat="45.6092101" lon="13.9339387"><ele>487.85714285714283</ele><time>2026-04-25T08:31:14.091Z</time></trkpt><trkpt lat="45.6091469" lon="13.9339385"><ele>487.42857142857144</ele><time>2026-04-25T08:31:15.09Z</time></trkpt><trkpt lat="45.6090777" lon="13.9339591"><ele>487.0</ele><time>2026-04-25T08:31:18.099Z</time></trkpt><trkpt lat="45.6089981" lon="13.9339756"><ele>487.00000000000006</ele><time>2026-04-25T08:31:21.101Z</time></trkpt><trkpt lat="45.6089052" lon="13.9340654"><ele>487.0</ele><time>2026-04-25T08:31:23.092Z</time></trkpt><trkpt lat="45.6088914" lon="13.9341534"><ele>487.0</ele><time>2026-04-25T08:31:24.104Z</time></trkpt><trkpt lat="45.6089226" lon="13.9342529"><ele>487.0</ele><time>2026-04-25T08:31:25.087Z</time></trkpt><trkpt lat="45.6089738" lon="13.9343513"><ele>487.00000000000006</ele><time>2026-04-25T08:31:26.091Z</time></trkpt><trkpt lat="45.6090168" lon="13.9344722"><ele>487.0</ele><time>2026-04-25T08:31:27.097Z</time></trkpt><trkpt lat="45.6090395" lon="13.9346162"><ele>487.75</ele><time>2026-04-25T08:31:28.102Z</time></trkpt><trkpt lat="45.609059" lon="13.9347646"><ele>488.5</ele><time>2026-04-25T08:31:29.101Z</time></trkpt><trkpt lat="45.6090826" lon="13.934919"><ele>489.25</ele><time>2026-04-25T08:31:30.105Z</time></trkpt><trkpt lat="45.6091111" lon="13.935082"><ele>490.0</ele><time>2026-04-25T08:31:31.098Z</time></trkpt><trkpt lat="45.6091388" lon="13.9352475"><ele>490.5</ele><time>2026-04-25T08:31:32.089Z</time></trkpt><trkpt lat="45.6091657" lon="13.9354179"><ele>491.0</ele><time>2026-04-25T08:31:33.096Z</time></trkpt><trkpt lat="45.6091971" lon="13.9355883"><ele>491.5</ele><time>2026-04-25T08:31:34.094Z</time></trkpt><trkpt lat="45.6092293" lon="13.9357528"><ele>492.0</ele><time>2026-04-25T08:31:35.099Z</time></trkpt><trkpt lat="45.6092597" lon="13.9359264"><ele>492.75</ele><time>2026-04-25T08:31:36.093Z</time></trkpt><trkpt lat="45.6092893" lon="13.9360984"><ele>493.5</ele><time>2026-04-25T08:31:37.11Z</time></trkpt><trkpt lat="45.6093144" lon="13.93627"><ele>494.25</ele><time>2026-04-25T08:31:38.092Z</time></trkpt><trkpt lat="45.6093389" lon="13.9364228"><ele>495.0</ele><time>2026-04-25T08:31:39.097Z</time></trkpt><trkpt lat="45.6093595" lon="13.9365648"><ele>495.0</ele><time>2026-04-25T08:31:40.098Z</time></trkpt><trkpt lat="45.6093639" lon="13.936709"><ele>495.0</ele><time>2026-04-25T08:31:41.096Z</time></trkpt><trkpt lat="45.6093496" lon="13.9368466"><ele>495.0</ele><time>2026-04-25T08:31:42.11Z</time></trkpt><trkpt lat="45.6093299" lon="13.9369581"><ele>495.0</ele><time>2026-04-25T08:31:43.1Z</time></trkpt><trkpt lat="45.6093028" lon="13.9370654"><ele>495.0</ele><time>2026-04-25T08:31:44.109Z</time></trkpt><trkpt lat="45.6092706" lon="13.9371732"><ele>495.0</ele><time>2026-04-25T08:31:45.098Z</time></trkpt><trkpt lat="45.6092326" lon="13.937273"><ele>495.8</ele><time>2026-04-25T08:31:46.096Z</time></trkpt><trkpt lat="45.6091935" lon="13.937369"><ele>496.6</ele><time>2026-04-25T08:31:47.097Z</time></trkpt><trkpt lat="45.6091574" lon="13.9374581"><ele>497.4</ele><time>2026-04-25T08:31:48.105Z</time></trkpt><trkpt lat="45.6090959" lon="13.9375811"><ele>498.2</ele><time>2026-04-25T08:31:50.11Z</time></trkpt><trkpt lat="45.6090124" lon="13.9376209"><ele>499.0</ele><time>2026-04-25T08:31:52.1Z</time></trkpt><trkpt lat="45.6089204" lon="13.9375073"><ele>499.0</ele><time>2026-04-25T08:31:54.099Z</time></trkpt><trkpt lat="45.6088657" lon="13.9374447"><ele>499.0</ele><time>2026-04-25T08:31:55.086Z</time></trkpt><trkpt lat="45.6087969" lon="13.9373589"><ele>499.0</ele><time>2026-04-25T08:31:56.099Z</time></trkpt><trkpt lat="45.6087267" lon="13.9372443"><ele>499.0</ele><time>2026-04-25T08:31:57.093Z</time></trkpt><trkpt lat="45.6086532" lon="13.9371007"><ele>499.0</ele><time>2026-04-25T08:31:58.106Z</time></trkpt><trkpt lat="45.6085706" lon="13.9369527"><ele>497.5</ele><time>2026-04-25T08:31:59.098Z</time></trkpt><trkpt lat="45.608489" lon="13.9368028"><ele>496.0</ele><time>2026-04-25T08:32:00.093Z</time></trkpt><trkpt lat="45.6084099" lon="13.9366548"><ele>494.5</ele><time>2026-04-25T08:32:01.091Z</time></trkpt><trkpt lat="45.6083254" lon="13.9365313"><ele>493.0</ele><time>2026-04-25T08:32:02.094Z</time></trkpt><trkpt lat="45.6082346" lon="13.9364228"><ele>493.0</ele><time>2026-04-25T08:32:03.094Z</time></trkpt><trkpt lat="45.6081433" lon="13.9363244"><ele>492.99999999999994</ele><time>2026-04-25T08:32:04.092Z</time></trkpt><trkpt lat="45.6080514" lon="13.9362442"><ele>492.99999999999994</ele><time>2026-04-25T08:32:05.102Z</time></trkpt><trkpt lat="45.6079675" lon="13.9361561"><ele>493.0</ele><time>2026-04-25T08:32:06.104Z</time></trkpt><trkpt lat="45.6078816" lon="13.9360747"><ele>493.0</ele><time>2026-04-25T08:32:07.096Z</time></trkpt><trkpt lat="45.6077934" lon="13.9359973"><ele>493.0</ele><time>2026-04-25T08:32:08.1Z</time></trkpt><trkpt lat="45.6076992" lon="13.9359175"><ele>492.99999999999994</ele><time>2026-04-25T08:32:09.09Z</time></trkpt><trkpt lat="45.6076083" lon="13.9358414"><ele>492.99999999999994</ele><time>2026-04-25T08:32:10.094Z</time></trkpt><trkpt lat="45.6075331" lon="13.9357657"><ele>493.0</ele><time>2026-04-25T08:32:11.091Z</time></trkpt><trkpt lat="45.6074692" lon="13.9357106"><ele>493.0</ele><time>2026-04-25T08:32:12.093Z</time></trkpt><trkpt lat="45.6074075" lon="13.9356447"><ele>493.00000000000006</ele><time>2026-04-25T08:32:13.1Z</time></trkpt><trkpt lat="45.6073475" lon="13.9355914"><ele>493.0</ele><time>2026-04-25T08:32:14.111Z</time></trkpt><trkpt lat="45.6072851" lon="13.9355398"><ele>493.0</ele><time>2026-04-25T08:32:15.095Z</time></trkpt><trkpt lat="45.6072161" lon="13.9354761"><ele>493.0</ele><time>2026-04-25T08:32:16.106Z</time></trkpt><trkpt lat="45.6071412" lon="13.9354018"><ele>493.00000000000006</ele><time>2026-04-25T08:32:17.089Z</time></trkpt><trkpt lat="45.607064" lon="13.9353216"><ele>493.0</ele><time>2026-04-25T08:32:18.096Z</time></trkpt><trkpt lat="45.6069824" lon="13.9352373"><ele>493.0</ele><time>2026-04-25T08:32:19.092Z</time></trkpt><trkpt lat="45.6068987" lon="13.9351542"><ele>492.99999999999994</ele><time>2026-04-25T08:32:20.093Z</time></trkpt><trkpt lat="45.6068175" lon="13.9350718"><ele>492.99999999999994</ele><time>2026-04-25T08:32:21.09Z</time></trkpt><trkpt lat="45.6067467" lon="13.934991"><ele>493.0</ele><time>2026-04-25T08:32:22.095Z</time></trkpt><trkpt lat="45.6066799" lon="13.9349205"><ele>493.0</ele><time>2026-04-25T08:32:23.093Z</time></trkpt><trkpt lat="45.6066008" lon="13.9348367"><ele>493.0</ele><time>2026-04-25T08:32:25.093Z</time></trkpt><trkpt lat="45.6065231" lon="13.9347669"><ele>492.99999999999994</ele><time>2026-04-25T08:32:27.106Z</time></trkpt><trkpt lat="45.6064194" lon="13.9346528"><ele>492.99999999999994</ele><time>2026-04-25T08:32:29.098Z</time></trkpt><trkpt lat="45.606354" lon="13.9345809"><ele>493.0</ele><time>2026-04-25T08:32:30.105Z</time></trkpt><trkpt lat="45.6062784" lon="13.9344956"><ele>493.0</ele><time>2026-04-25T08:32:31.088Z</time></trkpt><trkpt lat="45.6061862" lon="13.9344207"><ele>493.0</ele><time>2026-04-25T08:32:32.091Z</time></trkpt><trkpt lat="45.6061006" lon="13.9343472"><ele>492.99999999999994</ele><time>2026-04-25T08:32:33.09Z</time></trkpt><trkpt lat="45.6060212" lon="13.9342762"><ele>492.99999999999994</ele><time>2026-04-25T08:32:34.092Z</time></trkpt><trkpt lat="45.6059525" lon="13.9342168"><ele>493.0</ele><time>2026-04-25T08:32:35.091Z</time></trkpt><trkpt lat="45.6058928" lon="13.9341649"><ele>493.0</ele><time>2026-04-25T08:32:36.107Z</time></trkpt><trkpt lat="45.6057965" lon="13.9340871"><ele>493.00000000000006</ele><time>2026-04-25T08:32:38.113Z</time></trkpt><trkpt lat="45.6057407" lon="13.9340437"><ele>493.0</ele><time>2026-04-25T08:32:39.094Z</time></trkpt><trkpt lat="45.6056857" lon="13.9339837"><ele>493.0</ele><time>2026-04-25T08:32:40.097Z</time></trkpt><trkpt lat="45.6056231" lon="13.9339179"><ele>493.0</ele><time>2026-04-25T08:32:41.094Z</time></trkpt><trkpt lat="45.6055553" lon="13.9338507"><ele>493.00000000000006</ele><time>2026-04-25T08:32:42.099Z</time></trkpt><trkpt lat="45.6054809" lon="13.9337795"><ele>493.0</ele><time>2026-04-25T08:32:43.098Z</time></trkpt><trkpt lat="45.6053987" lon="13.9337071"><ele>493.0</ele><time>2026-04-25T08:32:44.093Z</time></trkpt><trkpt lat="45.6053073" lon="13.9336304"><ele>493.0</ele><time>2026-04-25T08:32:45.088Z</time></trkpt><trkpt lat="45.6052099" lon="13.933544"><ele>493.0</ele><time>2026-04-25T08:32:46.09Z</time></trkpt><trkpt lat="45.6051087" lon="13.9334578"><ele>493.0</ele><time>2026-04-25T08:32:47.088Z</time></trkpt><trkpt lat="45.6050054" lon="13.9333649"><ele>492.5</ele><time>2026-04-25T08:32:48.108Z</time></trkpt><trkpt lat="45.6049088" lon="13.9332637"><ele>492.0</ele><time>2026-04-25T08:32:49.088Z</time></trkpt><trkpt lat="45.6048184" lon="13.933154"><ele>491.5</ele><time>2026-04-25T08:32:50.098Z</time></trkpt><trkpt lat="45.6047333" lon="13.9330319"><ele>491.0</ele><time>2026-04-25T08:32:51.095Z</time></trkpt><trkpt lat="45.6046692" lon="13.9329043"><ele>491.0</ele><time>2026-04-25T08:32:52.097Z</time></trkpt><trkpt lat="45.6046269" lon="13.9327426"><ele>491.0</ele><time>2026-04-25T08:32:53.089Z</time></trkpt><trkpt lat="45.6046048" lon="13.9325694"><ele>491.0</ele><time>2026-04-25T08:32:54.113Z</time></trkpt><trkpt lat="45.6046002" lon="13.9324033"><ele>491.0</ele><time>2026-04-25T08:32:55.089Z</time></trkpt><trkpt lat="45.6046109" lon="13.9322487"><ele>490.4</ele><time>2026-04-25T08:32:56.082Z</time></trkpt><trkpt lat="45.6046342" lon="13.9320975"><ele>489.8</ele><time>2026-04-25T08:32:57.1Z</time></trkpt><trkpt lat="45.6046559" lon="13.9319635"><ele>489.19999999999993</ele><time>2026-04-25T08:32:58.092Z</time></trkpt><trkpt lat="45.604679" lon="13.931869"><ele>488.59999999999997</ele><time>2026-04-25T08:32:59.092Z</time></trkpt><trkpt lat="45.6047402" lon="13.9317617"><ele>488.0</ele><time>2026-04-25T08:33:01.099Z</time></trkpt><trkpt lat="45.6048253" lon="13.9316765"><ele>487.59999999999997</ele><time>2026-04-25T08:33:03.086Z</time></trkpt><trkpt lat="45.6048623" lon="13.9315433"><ele>487.19999999999993</ele><time>2026-04-25T08:33:05.088Z</time></trkpt><trkpt lat="45.604832" lon="13.9313966"><ele>486.8</ele><time>2026-04-25T08:33:07.09Z</time></trkpt><trkpt lat="45.6047742" lon="13.9313438"><ele>486.4</ele><time>2026-04-25T08:33:08.102Z</time></trkpt><trkpt lat="45.6046985" lon="13.9312868"><ele>486.0</ele><time>2026-04-25T08:33:09.084Z</time></trkpt><trkpt lat="45.6046271" lon="13.931211"><ele>486.0</ele><time>2026-04-25T08:33:10.089Z</time></trkpt><trkpt lat="45.6045571" lon="13.9310977"><ele>486.0</ele><time>2026-04-25T08:33:11.1Z</time></trkpt><trkpt lat="45.604479" lon="13.9309806"><ele>486.0</ele><time>2026-04-25T08:33:12.085Z</time></trkpt><trkpt lat="45.6043963" lon="13.9308578"><ele>486.0</ele><time>2026-04-25T08:33:13.086Z</time></trkpt><trkpt lat="45.6043009" lon="13.9307277"><ele>485.0</ele><time>2026-04-25T08:33:14.096Z</time></trkpt><trkpt lat="45.6041985" lon="13.9305875"><ele>484.0</ele><time>2026-04-25T08:33:15.09Z</time></trkpt><trkpt lat="45.6040907" lon="13.9304415"><ele>483.0</ele><time>2026-04-25T08:33:16.089Z</time></trkpt><trkpt lat="45.6039784" lon="13.9302865"><ele>482.0</ele><time>2026-04-25T08:33:17.097Z</time></trkpt><trkpt lat="45.6038619" lon="13.9301292"><ele>483.0</ele><time>2026-04-25T08:33:18.095Z</time></trkpt><trkpt lat="45.603742" lon="13.9299607"><ele>484.0</ele><time>2026-04-25T08:33:19.092Z</time></trkpt><trkpt lat="45.603616" lon="13.9297904"><ele>485.0</ele><time>2026-04-25T08:33:20.095Z</time></trkpt><trkpt lat="45.6034875" lon="13.9296178"><ele>483.3333333333333</ele><time>2026-04-25T08:33:21.085Z</time></trkpt><trkpt lat="45.6033575" lon="13.9294422"><ele>481.66666666666663</ele><time>2026-04-25T08:33:22.087Z</time></trkpt><trkpt lat="45.6032337" lon="13.929267"><ele>480.0</ele><time>2026-04-25T08:33:23.086Z</time></trkpt><trkpt lat="45.6031125" lon="13.9290977"><ele>480.0</ele><time>2026-04-25T08:33:24.089Z</time></trkpt><trkpt lat="45.6029889" lon="13.9289339"><ele>480.0</ele><time>2026-04-25T08:33:25.094Z</time></trkpt><trkpt lat="45.6028638" lon="13.9287736"><ele>480.0</ele><time>2026-04-25T08:33:26.087Z</time></trkpt><trkpt lat="45.6027348" lon="13.9286182"><ele>479.33333333333337</ele><time>2026-04-25T08:33:27.087Z</time></trkpt><trkpt lat="45.6026017" lon="13.9284766"><ele>478.6666666666667</ele><time>2026-04-25T08:33:28.081Z</time></trkpt><trkpt lat="45.6024619" lon="13.9283461"><ele>478.0</ele><time>2026-04-25T08:33:29.088Z</time></trkpt><trkpt lat="45.6023114" lon="13.9282309"><ele>478.0</ele><time>2026-04-25T08:33:30.084Z</time></trkpt><trkpt lat="45.6021557" lon="13.9281281"><ele>478.0</ele><time>2026-04-25T08:33:31.078Z</time></trkpt><trkpt lat="45.60199" lon="13.9280407"><ele>478.0</ele><time>2026-04-25T08:33:32.1Z</time></trkpt><trkpt lat="45.6018227" lon="13.9279719"><ele>476.33333333333337</ele><time>2026-04-25T08:33:33.083Z</time></trkpt><trkpt lat="45.6016548" lon="13.9279371"><ele>474.66666666666663</ele><time>2026-04-25T08:33:34.084Z</time></trkpt><trkpt lat="45.6014856" lon="13.9279078"><ele>473.0</ele><time>2026-04-25T08:33:35.08Z</time></trkpt><trkpt lat="45.6013213" lon="13.9279017"><ele>473.0</ele><time>2026-04-25T08:33:36.08Z</time></trkpt><trkpt lat="45.6011712" lon="13.9279142"><ele>473.0</ele><time>2026-04-25T08:33:37.081Z</time></trkpt><trkpt lat="45.6010268" lon="13.9279337"><ele>473.0</ele><time>2026-04-25T08:33:38.084Z</time></trkpt><trkpt lat="45.6008999" lon="13.9279644"><ele>473.0</ele><time>2026-04-25T08:33:39.074Z</time></trkpt><trkpt lat="45.600796" lon="13.9279787"><ele>472.57142857142856</ele><time>2026-04-25T08:33:40.1Z</time></trkpt><trkpt lat="45.600717" lon="13.9279503"><ele>472.1428571428571</ele><time>2026-04-25T08:33:41.089Z</time></trkpt><trkpt lat="45.6006439" lon="13.9278902"><ele>471.71428571428567</ele><time>2026-04-25T08:33:42.079Z</time></trkpt><trkpt lat="45.6005867" lon="13.9278467"><ele>471.2857142857143</ele><time>2026-04-25T08:33:43.085Z</time></trkpt><trkpt lat="45.6005227" lon="13.9278705"><ele>470.8571428571428</ele><time>2026-04-25T08:33:44.084Z</time></trkpt><trkpt lat="45.6004663" lon="13.9279285"><ele>470.4285714285714</ele><time>2026-04-25T08:33:45.084Z</time></trkpt><trkpt lat="45.6004289" lon="13.9280049"><ele>470.0</ele><time>2026-04-25T08:33:46.095Z</time></trkpt><trkpt lat="45.6003855" lon="13.9280948"><ele>469.4</ele><time>2026-04-25T08:33:47.09Z</time></trkpt><trkpt lat="45.6003254" lon="13.9281813"><ele>468.8</ele><time>2026-04-25T08:33:48.094Z</time></trkpt><trkpt lat="45.6002354" lon="13.9282497"><ele>468.20000000000005</ele><time>2026-04-25T08:33:49.084Z</time></trkpt><trkpt lat="45.60014" lon="13.9283016"><ele>467.6</ele><time>2026-04-25T08:33:50.08Z</time></trkpt><trkpt lat="45.6000346" lon="13.928351"><ele>467.0</ele><time>2026-04-25T08:33:51.092Z</time></trkpt><trkpt lat="45.5999285" lon="13.9284004"><ele>468.0</ele><time>2026-04-25T08:33:52.11Z</time></trkpt><trkpt lat="45.5998136" lon="13.928454"><ele>469.0</ele><time>2026-04-25T08:33:53.092Z</time></trkpt><trkpt lat="45.5996918" lon="13.9285121"><ele>470.0</ele><time>2026-04-25T08:33:54.088Z</time></trkpt><trkpt lat="45.5995602" lon="13.9285619"><ele>471.0</ele><time>2026-04-25T08:33:55.087Z</time></trkpt><trkpt lat="45.5994191" lon="13.9286035"><ele>471.0</ele><time>2026-04-25T08:33:56.088Z</time></trkpt><trkpt lat="45.5992717" lon="13.9286414"><ele>471.0</ele><time>2026-04-25T08:33:57.096Z</time></trkpt><trkpt lat="45.5991217" lon="13.9286581"><ele>471.0</ele><time>2026-04-25T08:33:58.101Z</time></trkpt><trkpt lat="45.5989705" lon="13.9286703"><ele>471.0</ele><time>2026-04-25T08:33:59.092Z</time></trkpt><trkpt lat="45.5988103" lon="13.9286649"><ele>471.0</ele><time>2026-04-25T08:34:00.087Z</time></trkpt><trkpt lat="45.5986505" lon="13.9286535"><ele>471.0</ele><time>2026-04-25T08:34:01.08Z</time></trkpt><trkpt lat="45.5984894" lon="13.9286366"><ele>469.66666666666663</ele><time>2026-04-25T08:34:02.085Z</time></trkpt><trkpt lat="45.5983272" lon="13.9286084"><ele>468.3333333333333</ele><time>2026-04-25T08:34:03.082Z</time></trkpt><trkpt lat="45.5981645" lon="13.9285866"><ele>467.0</ele><time>2026-04-25T08:34:04.084Z</time></trkpt><trkpt lat="45.5979951" lon="13.9285639"><ele>467.3333333333333</ele><time>2026-04-25T08:34:05.089Z</time></trkpt><trkpt lat="45.5978252" lon="13.9285422"><ele>467.66666666666663</ele><time>2026-04-25T08:34:06.086Z</time></trkpt><trkpt lat="45.5976524" lon="13.9285196"><ele>468.0</ele><time>2026-04-25T08:34:07.093Z</time></trkpt><trkpt lat="45.5974796" lon="13.928506"><ele>468.0</ele><time>2026-04-25T08:34:08.083Z</time></trkpt><trkpt lat="45.5973055" lon="13.928503"><ele>468.0</ele><time>2026-04-25T08:34:09.078Z</time></trkpt><trkpt lat="45.5971298" lon="13.9285097"><ele>468.0</ele><time>2026-04-25T08:34:10.08Z</time></trkpt><trkpt lat="45.5969502" lon="13.9285272"><ele>467.66666666666663</ele><time>2026-04-25T08:34:11.083Z</time></trkpt><trkpt lat="45.5967724" lon="13.9285481"><ele>467.3333333333333</ele><time>2026-04-25T08:34:12.086Z</time></trkpt><trkpt lat="45.5965869" lon="13.928581"><ele>467.0</ele><time>2026-04-25T08:34:13.088Z</time></trkpt><trkpt lat="45.5964038" lon="13.9286111"><ele>467.0</ele><time>2026-04-25T08:34:14.079Z</time></trkpt><trkpt lat="45.5962202" lon="13.9286413"><ele>467.0</ele><time>2026-04-25T08:34:15.083Z</time></trkpt><trkpt lat="45.5960386" lon="13.9286754"><ele>467.0</ele><time>2026-04-25T08:34:16.089Z</time></trkpt><trkpt lat="45.5958575" lon="13.9287066"><ele>467.0</ele><time>2026-04-25T08:34:17.086Z</time></trkpt><trkpt lat="45.5956751" lon="13.9287397"><ele>467.0</ele><time>2026-04-25T08:34:18.1Z</time></trkpt><trkpt lat="45.595499" lon="13.9287732"><ele>467.0</ele><time>2026-04-25T08:34:19.087Z</time></trkpt><trkpt lat="45.5953216" lon="13.9287989"><ele>465.3333333333333</ele><time>2026-04-25T08:34:20.079Z</time></trkpt><trkpt lat="45.5951453" lon="13.9288248"><ele>463.66666666666663</ele><time>2026-04-25T08:34:21.084Z</time></trkpt><trkpt lat="45.5949714" lon="13.928853"><ele>462.0</ele><time>2026-04-25T08:34:22.087Z</time></trkpt><trkpt lat="45.594801" lon="13.9288808"><ele>462.0</ele><time>2026-04-25T08:34:23.107Z</time></trkpt><trkpt lat="45.5946287" lon="13.9289065"><ele>462.0</ele><time>2026-04-25T08:34:24.083Z</time></trkpt><trkpt lat="45.5944587" lon="13.928937"><ele>462.0</ele><time>2026-04-25T08:34:25.085Z</time></trkpt><trkpt lat="45.5942922" lon="13.9289675"><ele>460.0</ele><time>2026-04-25T08:34:26.085Z</time></trkpt><trkpt lat="45.5941258" lon="13.9290001"><ele>458.0</ele><time>2026-04-25T08:34:27.084Z</time></trkpt><trkpt lat="45.5939568" lon="13.929028"><ele>456.0</ele><time>2026-04-25T08:34:28.082Z</time></trkpt><trkpt lat="45.5937818" lon="13.9290535"><ele>455.33333333333337</ele><time>2026-04-25T08:34:29.085Z</time></trkpt><trkpt lat="45.5936098" lon="13.9290821"><ele>454.6666666666667</ele><time>2026-04-25T08:34:30.083Z</time></trkpt><trkpt lat="45.5934386" lon="13.9291169"><ele>454.0</ele><time>2026-04-25T08:34:31.08Z</time></trkpt><trkpt lat="45.5932677" lon="13.9291447"><ele>454.0</ele><time>2026-04-25T08:34:32.097Z</time></trkpt><trkpt lat="45.5930948" lon="13.9291746"><ele>454.0</ele><time>2026-04-25T08:34:33.091Z</time></trkpt><trkpt lat="45.5929198" lon="13.9292029"><ele>454.0</ele><time>2026-04-25T08:34:34.08Z</time></trkpt><trkpt lat="45.5927468" lon="13.9292337"><ele>459.33333333333337</ele><time>2026-04-25T08:34:35.086Z</time></trkpt><trkpt lat="45.5925691" lon="13.9292634"><ele>464.66666666666663</ele><time>2026-04-25T08:34:36.08Z</time></trkpt><trkpt lat="45.5923884" lon="13.9292933"><ele>470.0</ele><time>2026-04-25T08:34:37.103Z</time></trkpt><trkpt lat="45.5922114" lon="13.9293221"><ele>470.0</ele><time>2026-04-25T08:34:38.082Z</time></trkpt><trkpt lat="45.5920334" lon="13.9293567"><ele>470.0</ele><time>2026-04-25T08:34:39.082Z</time></trkpt><trkpt lat="45.5918509" lon="13.9293922"><ele>470.0</ele><time>2026-04-25T08:34:40.079Z</time></trkpt><trkpt lat="45.5916681" lon="13.9294267"><ele>469.3333333333333</ele><time>2026-04-25T08:34:41.08Z</time></trkpt><trkpt lat="45.5914895" lon="13.9294566"><ele>468.66666666666663</ele><time>2026-04-25T08:34:42.111Z</time></trkpt><trkpt lat="45.5913162" lon="13.9294709"><ele>468.0</ele><time>2026-04-25T08:34:43.084Z</time></trkpt><trkpt lat="45.5911401" lon="13.929474"><ele>466.33333333333337</ele><time>2026-04-25T08:34:44.086Z</time></trkpt><trkpt lat="45.5909708" lon="13.9294725"><ele>464.6666666666667</ele><time>2026-04-25T08:34:45.083Z</time></trkpt><trkpt lat="45.590797" lon="13.9294634"><ele>463.0</ele><time>2026-04-25T08:34:46.087Z</time></trkpt><trkpt lat="45.5906209" lon="13.9294404"><ele>463.0</ele><time>2026-04-25T08:34:47.084Z</time></trkpt><trkpt lat="45.5904493" lon="13.9294111"><ele>463.0</ele><time>2026-04-25T08:34:48.085Z</time></trkpt><trkpt lat="45.5902738" lon="13.9293564"><ele>463.0</ele><time>2026-04-25T08:34:49.093Z</time></trkpt><trkpt lat="45.5901004" lon="13.9293021"><ele>461.0</ele><time>2026-04-25T08:34:50.089Z</time></trkpt><trkpt lat="45.5899264" lon="13.9292342"><ele>459.0</ele><time>2026-04-25T08:34:51.084Z</time></trkpt><trkpt lat="45.5897567" lon="13.9291561"><ele>457.0</ele><time>2026-04-25T08:34:52.091Z</time></trkpt><trkpt lat="45.58959" lon="13.9290769"><ele>452.6666666666667</ele><time>2026-04-25T08:34:53.087Z</time></trkpt><trkpt lat="45.5894185" lon="13.9289989"><ele>448.33333333333337</ele><time>2026-04-25T08:34:54.096Z</time></trkpt><trkpt lat="45.5892496" lon="13.9289315"><ele>444.0</ele><time>2026-04-25T08:34:55.087Z</time></trkpt><trkpt lat="45.5890754" lon="13.9288773"><ele>444.0</ele><time>2026-04-25T08:34:56.092Z</time></trkpt><trkpt lat="45.5888975" lon="13.9288353"><ele>444.0</ele><time>2026-04-25T08:34:57.088Z</time></trkpt><trkpt lat="45.5887246" lon="13.9288097"><ele>444.0</ele><time>2026-04-25T08:34:58.086Z</time></trkpt><trkpt lat="45.5885522" lon="13.9287981"><ele>445.0</ele><time>2026-04-25T08:34:59.087Z</time></trkpt><trkpt lat="45.5883828" lon="13.9288033"><ele>446.0</ele><time>2026-04-25T08:35:00.079Z</time></trkpt><trkpt lat="45.5882247" lon="13.9288224"><ele>447.0</ele><time>2026-04-25T08:35:01.085Z</time></trkpt><trkpt lat="45.588069" lon="13.9288442"><ele>447.0</ele><time>2026-04-25T08:35:02.081Z</time></trkpt><trkpt lat="45.5879126" lon="13.9288736"><ele>447.0</ele><time>2026-04-25T08:35:03.078Z</time></trkpt><trkpt lat="45.587755" lon="13.928903"><ele>447.0</ele><time>2026-04-25T08:35:04.089Z</time></trkpt><trkpt lat="45.5876031" lon="13.9289376"><ele>445.25</ele><time>2026-04-25T08:35:05.082Z</time></trkpt><trkpt lat="45.58746" lon="13.9289759"><ele>443.5</ele><time>2026-04-25T08:35:06.079Z</time></trkpt><trkpt lat="45.5873192" lon="13.9290207"><ele>441.75</ele><time>2026-04-25T08:35:07.079Z</time></trkpt><trkpt lat="45.5871888" lon="13.9290669"><ele>440.0</ele><time>2026-04-25T08:35:08.087Z</time></trkpt><trkpt lat="45.5870693" lon="13.929152"><ele>443.75</ele><time>2026-04-25T08:35:09.081Z</time></trkpt><trkpt lat="45.5869724" lon="13.9292834"><ele>447.5</ele><time>2026-04-25T08:35:10.075Z</time></trkpt><trkpt lat="45.5868713" lon="13.9294241"><ele>451.25</ele><time>2026-04-25T08:35:11.071Z</time></trkpt><trkpt lat="45.5867632" lon="13.9295447"><ele>455.0</ele><time>2026-04-25T08:35:12.078Z</time></trkpt><trkpt lat="45.5866461" lon="13.9296099"><ele>455.0</ele><time>2026-04-25T08:35:13.09Z</time></trkpt><trkpt lat="45.5865127" lon="13.9296557"><ele>455.0</ele><time>2026-04-25T08:35:14.081Z</time></trkpt><trkpt lat="45.5863683" lon="13.9297214"><ele>455.0</ele><time>2026-04-25T08:35:15.084Z</time></trkpt><trkpt lat="45.5862261" lon="13.9298063"><ele>455.0</ele><time>2026-04-25T08:35:16.087Z</time></trkpt><trkpt lat="45.5860754" lon="13.9299013"><ele>457.66666666666663</ele><time>2026-04-25T08:35:17.084Z</time></trkpt><trkpt lat="45.5859242" lon="13.9299959"><ele>460.33333333333337</ele><time>2026-04-25T08:35:18.096Z</time></trkpt><trkpt lat="45.5857713" lon="13.9300963"><ele>463.0</ele><time>2026-04-25T08:35:19.076Z</time></trkpt><trkpt lat="45.5856154" lon="13.9302042"><ele>463.0</ele><time>2026-04-25T08:35:20.078Z</time></trkpt><trkpt lat="45.5854564" lon="13.9303144"><ele>463.0</ele><time>2026-04-25T08:35:21.079Z</time></trkpt><trkpt lat="45.5853021" lon="13.9304285"><ele>463.0</ele><time>2026-04-25T08:35:22.078Z</time></trkpt><trkpt lat="45.5851468" lon="13.9305623"><ele>465.0</ele><time>2026-04-25T08:35:23.076Z</time></trkpt><trkpt lat="45.5849922" lon="13.9306946"><ele>467.0</ele><time>2026-04-25T08:35:24.077Z</time></trkpt><trkpt lat="45.5848348" lon="13.9308136"><ele>469.0</ele><time>2026-04-25T08:35:25.083Z</time></trkpt><trkpt lat="45.5846716" lon="13.9309175"><ele>466.0</ele><time>2026-04-25T08:35:26.078Z</time></trkpt><trkpt lat="45.5845078" lon="13.9310157"><ele>463.0</ele><time>2026-04-25T08:35:27.082Z</time></trkpt><trkpt lat="45.5843443" lon="13.9311118"><ele>460.0</ele><time>2026-04-25T08:35:28.079Z</time></trkpt><trkpt lat="45.584181" lon="13.9312164"><ele>460.0</ele><time>2026-04-25T08:35:29.074Z</time></trkpt><trkpt lat="45.5840203" lon="13.9313257"><ele>460.0</ele><time>2026-04-25T08:35:30.08Z</time></trkpt><trkpt lat="45.5838594" lon="13.9314225"><ele>460.0</ele><time>2026-04-25T08:35:31.072Z</time></trkpt><trkpt lat="45.5836952" lon="13.9315113"><ele>456.6666666666667</ele><time>2026-04-25T08:35:32.087Z</time></trkpt><trkpt lat="45.5835297" lon="13.9315936"><ele>453.33333333333337</ele><time>2026-04-25T08:35:33.081Z</time></trkpt><trkpt lat="45.5833573" lon="13.9316706"><ele>450.0</ele><time>2026-04-25T08:35:34.077Z</time></trkpt><trkpt lat="45.5831829" lon="13.9317402"><ele>455.0</ele><time>2026-04-25T08:35:35.077Z</time></trkpt><trkpt lat="45.5830126" lon="13.9318086"><ele>460.0</ele><time>2026-04-25T08:35:36.081Z</time></trkpt><trkpt lat="45.5828422" lon="13.9318799"><ele>465.0</ele><time>2026-04-25T08:35:37.079Z</time></trkpt><trkpt lat="45.5826732" lon="13.9319566"><ele>465.0</ele><time>2026-04-25T08:35:38.077Z</time></trkpt><trkpt lat="45.5825005" lon="13.9320432"><ele>465.0</ele><time>2026-04-25T08:35:39.076Z</time></trkpt><trkpt lat="45.5823312" lon="13.9321241"><ele>465.0</ele><time>2026-04-25T08:35:40.072Z</time></trkpt><trkpt lat="45.5821643" lon="13.9322088"><ele>463.0</ele><time>2026-04-25T08:35:41.076Z</time></trkpt><trkpt lat="45.582003" lon="13.932295"><ele>461.0</ele><time>2026-04-25T08:35:42.069Z</time></trkpt><trkpt lat="45.5818391" lon="13.9323909"><ele>459.0</ele><time>2026-04-25T08:35:43.08Z</time></trkpt><trkpt lat="45.581675" lon="13.9324916"><ele>465.66666666666663</ele><time>2026-04-25T08:35:44.076Z</time></trkpt><trkpt lat="45.5815086" lon="13.9325942"><ele>472.3333333333333</ele><time>2026-04-25T08:35:45.092Z</time></trkpt><trkpt lat="45.5813455" lon="13.9327091"><ele>479.0</ele><time>2026-04-25T08:35:46.071Z</time></trkpt><trkpt lat="45.5811858" lon="13.9328265"><ele>475.0</ele><time>2026-04-25T08:35:47.075Z</time></trkpt><trkpt lat="45.5810303" lon="13.9329472"><ele>471.0</ele><time>2026-04-25T08:35:48.077Z</time></trkpt><trkpt lat="45.5808695" lon="13.9330584"><ele>467.0</ele><time>2026-04-25T08:35:49.076Z</time></trkpt><trkpt lat="45.5807041" lon="13.9331688"><ele>467.0</ele><time>2026-04-25T08:35:50.085Z</time></trkpt><trkpt lat="45.580532" lon="13.9332665"><ele>467.0</ele><time>2026-04-25T08:35:51.08Z</time></trkpt><trkpt lat="45.5803607" lon="13.933365"><ele>467.0</ele><time>2026-04-25T08:35:52.081Z</time></trkpt><trkpt lat="45.5801909" lon="13.9334623"><ele>471.3333333333333</ele><time>2026-04-25T08:35:53.079Z</time></trkpt><trkpt lat="45.580023" lon="13.9335597"><ele>475.66666666666663</ele><time>2026-04-25T08:35:54.08Z</time></trkpt><trkpt lat="45.5798606" lon="13.9336498"><ele>480.0</ele><time>2026-04-25T08:35:55.08Z</time></trkpt><trkpt lat="45.5796974" lon="13.9337398"><ele>480.0</ele><time>2026-04-25T08:35:56.084Z</time></trkpt><trkpt lat="45.5795363" lon="13.933829"><ele>480.0</ele><time>2026-04-25T08:35:57.08Z</time></trkpt><trkpt lat="45.5793706" lon="13.933924"><ele>480.0</ele><time>2026-04-25T08:35:58.085Z</time></trkpt><trkpt lat="45.5792078" lon="13.9340261"><ele>483.33333333333337</ele><time>2026-04-25T08:35:59.079Z</time></trkpt><trkpt lat="45.5790482" lon="13.9341374"><ele>486.6666666666667</ele><time>2026-04-25T08:36:00.076Z</time></trkpt><trkpt lat="45.5788919" lon="13.9342599"><ele>490.0</ele><time>2026-04-25T08:36:01.085Z</time></trkpt><trkpt lat="45.5787315" lon="13.934383"><ele>486.0</ele><time>2026-04-25T08:36:02.081Z</time></trkpt><trkpt lat="45.578578" lon="13.9345132"><ele>482.0</ele><time>2026-04-25T08:36:03.074Z</time></trkpt><trkpt lat="45.5784169" lon="13.934643"><ele>478.0</ele><time>2026-04-25T08:36:04.079Z</time></trkpt><trkpt lat="45.5782549" lon="13.9347686"><ele>478.0</ele><time>2026-04-25T08:36:05.072Z</time></trkpt><trkpt lat="45.5780963" lon="13.9348845"><ele>478.0</ele><time>2026-04-25T08:36:06.08Z</time></trkpt><trkpt lat="45.5779367" lon="13.9349943"><ele>478.0</ele><time>2026-04-25T08:36:07.069Z</time></trkpt><trkpt lat="45.5777719" lon="13.9350965"><ele>481.6666666666667</ele><time>2026-04-25T08:36:08.071Z</time></trkpt><trkpt lat="45.5776044" lon="13.9351937"><ele>485.33333333333337</ele><time>2026-04-25T08:36:09.072Z</time></trkpt><trkpt lat="45.5774332" lon="13.9352795"><ele>489.0</ele><time>2026-04-25T08:36:10.076Z</time></trkpt><trkpt lat="45.5772657" lon="13.9353626"><ele>489.0</ele><time>2026-04-25T08:36:11.072Z</time></trkpt><trkpt lat="45.5771017" lon="13.9354523"><ele>489.0</ele><time>2026-04-25T08:36:12.072Z</time></trkpt><trkpt lat="45.5769408" lon="13.9355514"><ele>489.0</ele><time>2026-04-25T08:36:13.065Z</time></trkpt><trkpt lat="45.5767873" lon="13.9356612"><ele>490.66666666666663</ele><time>2026-04-25T08:36:14.077Z</time></trkpt><trkpt lat="45.5766402" lon="13.9357851"><ele>492.3333333333333</ele><time>2026-04-25T08:36:15.075Z</time></trkpt><trkpt lat="45.576503" lon="13.9359304"><ele>494.0</ele><time>2026-04-25T08:36:16.075Z</time></trkpt><trkpt lat="45.5763633" lon="13.9360845"><ele>494.0</ele><time>2026-04-25T08:36:17.079Z</time></trkpt><trkpt lat="45.5762175" lon="13.9362239"><ele>494.0</ele><time>2026-04-25T08:36:18.072Z</time></trkpt><trkpt lat="45.5760596" lon="13.9363477"><ele>494.0</ele><time>2026-04-25T08:36:19.071Z</time></trkpt><trkpt lat="45.5758943" lon="13.9364327"><ele>490.0</ele><time>2026-04-25T08:36:20.089Z</time></trkpt><trkpt lat="45.575731" lon="13.9364928"><ele>486.0</ele><time>2026-04-25T08:36:21.073Z</time></trkpt><trkpt lat="45.5755785" lon="13.9365567"><ele>482.0</ele><time>2026-04-25T08:36:22.077Z</time></trkpt><trkpt lat="45.5754334" lon="13.9366419"><ele>485.0</ele><time>2026-04-25T08:36:23.086Z</time></trkpt><trkpt lat="45.5752926" lon="13.9367279"><ele>488.0</ele><time>2026-04-25T08:36:24.084Z</time></trkpt><trkpt lat="45.5751523" lon="13.9368022"><ele>491.0</ele><time>2026-04-25T08:36:25.076Z</time></trkpt><trkpt lat="45.5750131" lon="13.9368523"><ele>494.0</ele><time>2026-04-25T08:36:26.093Z</time></trkpt><trkpt lat="45.5748683" lon="13.9368724"><ele>494.0</ele><time>2026-04-25T08:36:27.076Z</time></trkpt><trkpt lat="45.5747307" lon="13.9368683"><ele>494.0</ele><time>2026-04-25T08:36:28.082Z</time></trkpt><trkpt lat="45.5745993" lon="13.9368494"><ele>494.0</ele><time>2026-04-25T08:36:29.084Z</time></trkpt><trkpt lat="45.574476" lon="13.9368309"><ele>494.0</ele><time>2026-04-25T08:36:30.079Z</time></trkpt><trkpt lat="45.5743661" lon="13.936845"><ele>491.75</ele><time>2026-04-25T08:36:31.086Z</time></trkpt><trkpt lat="45.5742587" lon="13.9369048"><ele>489.5</ele><time>2026-04-25T08:36:32.08Z</time></trkpt><trkpt lat="45.5741579" lon="13.9370093"><ele>487.25</ele><time>2026-04-25T08:36:33.084Z</time></trkpt><trkpt lat="45.574048" lon="13.9371294"><ele>485.0</ele><time>2026-04-25T08:36:34.084Z</time></trkpt><trkpt lat="45.5739284" lon="13.9372607"><ele>485.0</ele><time>2026-04-25T08:36:35.083Z</time></trkpt><trkpt lat="45.5738074" lon="13.9373879"><ele>485.0</ele><time>2026-04-25T08:36:36.087Z</time></trkpt><trkpt lat="45.573688" lon="13.9375094"><ele>485.0</ele><time>2026-04-25T08:36:37.083Z</time></trkpt><trkpt lat="45.573569" lon="13.9376309"><ele>485.0</ele><time>2026-04-25T08:36:38.085Z</time></trkpt><trkpt lat="45.5734511" lon="13.9377515"><ele>483.0</ele><time>2026-04-25T08:36:39.087Z</time></trkpt><trkpt lat="45.5733372" lon="13.9378756"><ele>481.0</ele><time>2026-04-25T08:36:40.082Z</time></trkpt><trkpt lat="45.5732282" lon="13.9380015"><ele>479.0</ele><time>2026-04-25T08:36:41.088Z</time></trkpt><trkpt lat="45.5731211" lon="13.9381287"><ele>477.0</ele><time>2026-04-25T08:36:42.079Z</time></trkpt><trkpt lat="45.5730154" lon="13.9382531"><ele>477.0</ele><time>2026-04-25T08:36:43.096Z</time></trkpt><trkpt lat="45.5729175" lon="13.9383669"><ele>477.0</ele><time>2026-04-25T08:36:44.075Z</time></trkpt><trkpt lat="45.5728252" lon="13.938485"><ele>477.0</ele><time>2026-04-25T08:36:45.082Z</time></trkpt><trkpt lat="45.572735" lon="13.9385884"><ele>477.0</ele><time>2026-04-25T08:36:46.08Z</time></trkpt><trkpt lat="45.5726498" lon="13.9386697"><ele>478.0</ele><time>2026-04-25T08:36:47.079Z</time></trkpt><trkpt lat="45.5725743" lon="13.9387317"><ele>479.00000000000006</ele><time>2026-04-25T08:36:48.086Z</time></trkpt><trkpt lat="45.5724901" lon="13.938732"><ele>480.00000000000006</ele><time>2026-04-25T08:36:49.076Z</time></trkpt><trkpt lat="45.5723892" lon="13.9387038"><ele>481.0</ele><time>2026-04-25T08:36:50.089Z</time></trkpt><trkpt lat="45.5722864" lon="13.9386767"><ele>482.0</ele><time>2026-04-25T08:36:51.075Z</time></trkpt><trkpt lat="45.5721811" lon="13.9386536"><ele>482.0</ele><time>2026-04-25T08:36:52.074Z</time></trkpt><trkpt lat="45.5720744" lon="13.9386313"><ele>482.00000000000006</ele><time>2026-04-25T08:36:53.075Z</time></trkpt><trkpt lat="45.5719754" lon="13.9386203"><ele>482.00000000000006</ele><time>2026-04-25T08:36:54.085Z</time></trkpt><trkpt lat="45.5718833" lon="13.9386183"><ele>482.0</ele><time>2026-04-25T08:36:55.079Z</time></trkpt><trkpt lat="45.5717969" lon="13.9386132"><ele>482.0</ele><time>2026-04-25T08:36:56.097Z</time></trkpt><trkpt lat="45.571715" lon="13.9386088"><ele>479.40000000000003</ele><time>2026-04-25T08:36:57.09Z</time></trkpt><trkpt lat="45.5716406" lon="13.9386035"><ele>476.80000000000007</ele><time>2026-04-25T08:36:58.09Z</time></trkpt><trkpt lat="45.5715376" lon="13.938596"><ele>474.2</ele><time>2026-04-25T08:37:00.091Z</time></trkpt><trkpt lat="45.5714406" lon="13.9386228"><ele>471.6</ele><time>2026-04-25T08:37:02.091Z</time></trkpt><trkpt lat="45.5713642" lon="13.9387419"><ele>469.0</ele><time>2026-04-25T08:37:04.089Z</time></trkpt><trkpt lat="45.5712892" lon="13.9388488"><ele>468.79999999999995</ele><time>2026-04-25T08:37:06.084Z</time></trkpt><trkpt lat="45.5711732" lon="13.9388778"><ele>468.59999999999997</ele><time>2026-04-25T08:37:08.079Z</time></trkpt><trkpt lat="45.5710939" lon="13.9389451"><ele>468.4</ele><time>2026-04-25T08:37:09.091Z</time></trkpt><trkpt lat="45.5710189" lon="13.9390435"><ele>468.2</ele><time>2026-04-25T08:37:10.089Z</time></trkpt><trkpt lat="45.5709437" lon="13.9391502"><ele>468.0</ele><time>2026-04-25T08:37:11.099Z</time></trkpt><trkpt lat="45.5708589" lon="13.9392565"><ele>471.0</ele><time>2026-04-25T08:37:12.087Z</time></trkpt><trkpt lat="45.5707791" lon="13.9393535"><ele>473.99999999999994</ele><time>2026-04-25T08:37:13.083Z</time></trkpt><trkpt lat="45.5707027" lon="13.9394416"><ele>476.99999999999994</ele><time>2026-04-25T08:37:14.083Z</time></trkpt><trkpt lat="45.5706196" lon="13.9395201"><ele>480.0</ele><time>2026-04-25T08:37:15.085Z</time></trkpt><trkpt lat="45.570541" lon="13.9395981"><ele>483.0</ele><time>2026-04-25T08:37:16.086Z</time></trkpt><trkpt lat="45.5704584" lon="13.9396698"><ele>483.0</ele><time>2026-04-25T08:37:17.078Z</time></trkpt><trkpt lat="45.5703842" lon="13.9397545"><ele>482.99999999999994</ele><time>2026-04-25T08:37:18.096Z</time></trkpt><trkpt lat="45.570313" lon="13.9398381"><ele>482.99999999999994</ele><time>2026-04-25T08:37:19.086Z</time></trkpt><trkpt lat="45.5702486" lon="13.9399294"><ele>483.0</ele><time>2026-04-25T08:37:20.088Z</time></trkpt><trkpt lat="45.5701943" lon="13.9400323"><ele>483.0</ele><time>2026-04-25T08:37:21.086Z</time></trkpt><trkpt lat="45.5701408" lon="13.9401215"><ele>483.6666666666667</ele><time>2026-04-25T08:37:22.092Z</time></trkpt><trkpt lat="45.5700962" lon="13.94019"><ele>484.33333333333337</ele><time>2026-04-25T08:37:23.089Z</time></trkpt><trkpt lat="45.5700378" lon="13.9402657"><ele>485.0</ele><time>2026-04-25T08:37:24.086Z</time></trkpt><trkpt lat="45.5699647" lon="13.9403331"><ele>485.6666666666667</ele><time>2026-04-25T08:37:25.092Z</time></trkpt><trkpt lat="45.5698832" lon="13.9404001"><ele>486.33333333333337</ele><time>2026-04-25T08:37:26.089Z</time></trkpt><trkpt lat="45.5698063" lon="13.9404664"><ele>487.0</ele><time>2026-04-25T08:37:27.092Z</time></trkpt><trkpt lat="45.569733" lon="13.94053"><ele>487.00000000000006</ele><time>2026-04-25T08:37:28.093Z</time></trkpt><trkpt lat="45.5696524" lon="13.940599"><ele>487.0</ele><time>2026-04-25T08:37:29.094Z</time></trkpt><trkpt lat="45.5695683" lon="13.9406507"><ele>487.0</ele><time>2026-04-25T08:37:30.1Z</time></trkpt><trkpt lat="45.5694875" lon="13.9406925"><ele>487.0</ele><time>2026-04-25T08:37:31.089Z</time></trkpt><trkpt lat="45.5694125" lon="13.9407431"><ele>487.00000000000006</ele><time>2026-04-25T08:37:32.089Z</time></trkpt><trkpt lat="45.5693342" lon="13.9407857"><ele>487.0</ele><time>2026-04-25T08:37:33.09Z</time></trkpt><trkpt lat="45.5692433" lon="13.9408065"><ele>484.5</ele><time>2026-04-25T08:37:34.093Z</time></trkpt><trkpt lat="45.5691301" lon="13.9408009"><ele>482.0</ele><time>2026-04-25T08:37:35.084Z</time></trkpt><trkpt lat="45.5690104" lon="13.9407977"><ele>479.5</ele><time>2026-04-25T08:37:36.089Z</time></trkpt><trkpt lat="45.5688935" lon="13.9407975"><ele>477.0</ele><time>2026-04-25T08:37:37.089Z</time></trkpt><trkpt lat="45.5687863" lon="13.9407808"><ele>475.6</ele><time>2026-04-25T08:37:38.086Z</time></trkpt><trkpt lat="45.568685" lon="13.9407403"><ele>474.20000000000005</ele><time>2026-04-25T08:37:39.082Z</time></trkpt><trkpt lat="45.5685853" lon="13.9407068"><ele>472.8</ele><time>2026-04-25T08:37:40.092Z</time></trkpt><trkpt lat="45.5684985" lon="13.9407028"><ele>471.4</ele><time>2026-04-25T08:37:41.088Z</time></trkpt><trkpt lat="45.5684156" lon="13.9407301"><ele>470.0</ele><time>2026-04-25T08:37:42.089Z</time></trkpt><trkpt lat="45.5683264" lon="13.9407918"><ele>470.0</ele><time>2026-04-25T08:37:43.088Z</time></trkpt><trkpt lat="45.5682309" lon="13.9408499"><ele>470.0</ele><time>2026-04-25T08:37:44.085Z</time></trkpt><trkpt lat="45.5681302" lon="13.9409091"><ele>470.0</ele><time>2026-04-25T08:37:45.084Z</time></trkpt><trkpt lat="45.5680217" lon="13.9409701"><ele>470.0</ele><time>2026-04-25T08:37:46.083Z</time></trkpt><trkpt lat="45.5679082" lon="13.9410372"><ele>472.4</ele><time>2026-04-25T08:37:47.085Z</time></trkpt><trkpt lat="45.567805" lon="13.9411009"><ele>474.8</ele><time>2026-04-25T08:37:48.094Z</time></trkpt><trkpt lat="45.5677086" lon="13.9411486"><ele>477.20000000000005</ele><time>2026-04-25T08:37:49.076Z</time></trkpt><trkpt lat="45.5676129" lon="13.9412065"><ele>479.6</ele><time>2026-04-25T08:37:50.094Z</time></trkpt><trkpt lat="45.5675196" lon="13.9412937"><ele>482.0</ele><time>2026-04-25T08:37:51.078Z</time></trkpt><trkpt lat="45.5674344" lon="13.9413895"><ele>482.0</ele><time>2026-04-25T08:37:52.092Z</time></trkpt><trkpt lat="45.5673491" lon="13.9414841"><ele>482.00000000000006</ele><time>2026-04-25T08:37:53.078Z</time></trkpt><trkpt lat="45.5672579" lon="13.941566"><ele>482.00000000000006</ele><time>2026-04-25T08:37:54.088Z</time></trkpt><trkpt lat="45.5671591" lon="13.9416442"><ele>482.0</ele><time>2026-04-25T08:37:55.082Z</time></trkpt><trkpt lat="45.5670523" lon="13.9417146"><ele>482.0</ele><time>2026-04-25T08:37:56.085Z</time></trkpt><trkpt lat="45.5669428" lon="13.9417683"><ele>486.0</ele><time>2026-04-25T08:37:57.085Z</time></trkpt><trkpt lat="45.5668237" lon="13.9417977"><ele>490.0</ele><time>2026-04-25T08:37:58.076Z</time></trkpt><trkpt lat="45.5667048" lon="13.9418104"><ele>494.0</ele><time>2026-04-25T08:37:59.086Z</time></trkpt><trkpt lat="45.5665871" lon="13.941817"><ele>498.0</ele><time>2026-04-25T08:38:00.088Z</time></trkpt><trkpt lat="45.5664742" lon="13.9418172"><ele>498.0</ele><time>2026-04-25T08:38:01.084Z</time></trkpt><trkpt lat="45.5663585" lon="13.9418137"><ele>497.99999999999994</ele><time>2026-04-25T08:38:02.078Z</time></trkpt><trkpt lat="45.5662437" lon="13.9418283"><ele>497.99999999999994</ele><time>2026-04-25T08:38:03.083Z</time></trkpt><trkpt lat="45.5661425" lon="13.94186"><ele>498.0</ele><time>2026-04-25T08:38:04.092Z</time></trkpt><trkpt lat="45.5660544" lon="13.9419018"><ele>498.0</ele><time>2026-04-25T08:38:05.087Z</time></trkpt><trkpt lat="45.5659795" lon="13.9419304"><ele>498.1428571428571</ele><time>2026-04-25T08:38:06.085Z</time></trkpt><trkpt lat="45.5659167" lon="13.9419464"><ele>498.2857142857142</ele><time>2026-04-25T08:38:07.085Z</time></trkpt><trkpt lat="45.5658305" lon="13.941978"><ele>498.42857142857144</ele><time>2026-04-25T08:38:09.089Z</time></trkpt><trkpt lat="45.565794" lon="13.9420766"><ele>498.57142857142856</ele><time>2026-04-25T08:38:14.091Z</time></trkpt><trkpt lat="45.5658378" lon="13.9421603"><ele>498.7142857142857</ele><time>2026-04-25T08:38:16.083Z</time></trkpt><trkpt lat="45.5658566" lon="13.9422518"><ele>498.8571428571429</ele><time>2026-04-25T08:38:18.088Z</time></trkpt><trkpt lat="45.5658678" lon="13.9423553"><ele>499.00000000000006</ele><time>2026-04-25T08:38:21.095Z</time></trkpt><trkpt lat="45.5658942" lon="13.9422636"><ele>499.0</ele><time>2026-04-25T08:51:00.097Z</time></trkpt><trkpt lat="45.565821" lon="13.9421432"><ele>499.0</ele><time>2026-04-25T08:51:02.085Z</time></trkpt><trkpt lat="45.5657286" lon="13.9420396"><ele>499.0</ele><time>2026-04-25T08:51:04.127Z</time></trkpt><trkpt lat="45.5656408" lon="13.9419256"><ele>499.0</ele><time>2026-04-25T08:51:06.1Z</time></trkpt><trkpt lat="45.5656109" lon="13.9418425"><ele>499.0</ele><time>2026-04-25T08:51:07.092Z</time></trkpt><trkpt lat="45.565576" lon="13.9417409"><ele>498.2</ele><time>2026-04-25T08:51:08.087Z</time></trkpt><trkpt lat="45.5655159" lon="13.9416552"><ele>497.4</ele><time>2026-04-25T08:51:09.089Z</time></trkpt><trkpt lat="45.5654439" lon="13.9415877"><ele>496.6</ele><time>2026-04-25T08:51:10.085Z</time></trkpt><trkpt lat="45.5653605" lon="13.9415237"><ele>495.8</ele><time>2026-04-25T08:51:11.096Z</time></trkpt><trkpt lat="45.565269" lon="13.9414554"><ele>495.0</ele><time>2026-04-25T08:51:12.083Z</time></trkpt><trkpt lat="45.5651704" lon="13.9413905"><ele>495.0</ele><time>2026-04-25T08:51:13.09Z</time></trkpt><trkpt lat="45.5650581" lon="13.9413371"><ele>495.0</ele><time>2026-04-25T08:51:14.084Z</time></trkpt><trkpt lat="45.5649334" lon="13.9412962"><ele>495.0</ele><time>2026-04-25T08:51:15.08Z</time></trkpt><trkpt lat="45.5648143" lon="13.9412686"><ele>495.0</ele><time>2026-04-25T08:51:16.083Z</time></trkpt><trkpt lat="45.5647166" lon="13.9412523"><ele>495.0</ele><time>2026-04-25T08:51:17.088Z</time></trkpt><trkpt lat="45.5646179" lon="13.9412559"><ele>495.0</ele><time>2026-04-25T08:51:18.084Z</time></trkpt><trkpt lat="45.5645145" lon="13.9412711"><ele>495.0</ele><time>2026-04-25T08:51:19.082Z</time></trkpt><trkpt lat="45.5644034" lon="13.9412717"><ele>495.0</ele><time>2026-04-25T08:51:20.092Z</time></trkpt><trkpt lat="45.5642921" lon="13.941241"><ele>495.0</ele><time>2026-04-25T08:51:21.088Z</time></trkpt><trkpt lat="45.5641843" lon="13.941202"><ele>494.8</ele><time>2026-04-25T08:51:22.085Z</time></trkpt><trkpt lat="45.564097" lon="13.9411745"><ele>494.6</ele><time>2026-04-25T08:51:23.088Z</time></trkpt><trkpt lat="45.5640067" lon="13.941176"><ele>494.4</ele><time>2026-04-25T08:51:24.092Z</time></trkpt><trkpt lat="45.5638989" lon="13.9412138"><ele>494.2</ele><time>2026-04-25T08:51:25.092Z</time></trkpt><trkpt lat="45.5637792" lon="13.941271"><ele>494.0</ele><time>2026-04-25T08:51:26.083Z</time></trkpt><trkpt lat="45.5636323" lon="13.9413382"><ele>493.25</ele><time>2026-04-25T08:51:27.083Z</time></trkpt><trkpt lat="45.56347" lon="13.9414241"><ele>492.5</ele><time>2026-04-25T08:51:28.088Z</time></trkpt><trkpt lat="45.5633289" lon="13.9415044"><ele>491.75</ele><time>2026-04-25T08:51:29.085Z</time></trkpt><trkpt lat="45.5632262" lon="13.9415574"><ele>491.0</ele><time>2026-04-25T08:51:30.088Z</time></trkpt><trkpt lat="45.5631211" lon="13.9416024"><ele>491.0</ele><time>2026-04-25T08:51:31.094Z</time></trkpt><trkpt lat="45.5629988" lon="13.9416487"><ele>491.0</ele><time>2026-04-25T08:51:32.095Z</time></trkpt><trkpt lat="45.5628746" lon="13.9416992"><ele>491.0</ele><time>2026-04-25T08:51:33.081Z</time></trkpt><trkpt lat="45.5627501" lon="13.9417561"><ele>491.0</ele><time>2026-04-25T08:51:34.083Z</time></trkpt><trkpt lat="45.5626277" lon="13.9418093"><ele>491.75</ele><time>2026-04-25T08:51:35.081Z</time></trkpt><trkpt lat="45.5624944" lon="13.9418521"><ele>492.5</ele><time>2026-04-25T08:51:36.084Z</time></trkpt><trkpt lat="45.5623483" lon="13.9418809"><ele>493.25</ele><time>2026-04-25T08:51:37.09Z</time></trkpt><trkpt lat="45.5622012" lon="13.9419086"><ele>494.0</ele><time>2026-04-25T08:51:38.086Z</time></trkpt><trkpt lat="45.5620608" lon="13.9419572"><ele>493.25</ele><time>2026-04-25T08:51:39.085Z</time></trkpt><trkpt lat="45.5619206" lon="13.9420189"><ele>492.5</ele><time>2026-04-25T08:51:40.092Z</time></trkpt><trkpt lat="45.5617891" lon="13.942074"><ele>491.75</ele><time>2026-04-25T08:51:41.088Z</time></trkpt><trkpt lat="45.5616693" lon="13.942127"><ele>491.0</ele><time>2026-04-25T08:51:42.103Z</time></trkpt><trkpt lat="45.5615707" lon="13.9421595"><ele>491.0</ele><time>2026-04-25T08:51:43.089Z</time></trkpt><trkpt lat="45.5614828" lon="13.9421714"><ele>491.0</ele><time>2026-04-25T08:51:44.089Z</time></trkpt><trkpt lat="45.5613818" lon="13.9421544"><ele>491.0</ele><time>2026-04-25T08:51:45.081Z</time></trkpt><trkpt lat="45.561265" lon="13.9421183"><ele>491.0</ele><time>2026-04-25T08:51:46.084Z</time></trkpt><trkpt lat="45.5611402" lon="13.9420692"><ele>491.0</ele><time>2026-04-25T08:51:47.086Z</time></trkpt><trkpt lat="45.5610246" lon="13.9420287"><ele>491.20000000000005</ele><time>2026-04-25T08:51:48.09Z</time></trkpt><trkpt lat="45.5609281" lon="13.9419905"><ele>491.40000000000003</ele><time>2026-04-25T08:51:49.081Z</time></trkpt><trkpt lat="45.5608522" lon="13.9419603"><ele>491.6</ele><time>2026-04-25T08:51:50.091Z</time></trkpt><trkpt lat="45.5607888" lon="13.9419427"><ele>491.8</ele><time>2026-04-25T08:51:51.092Z</time></trkpt><trkpt lat="45.5606925" lon="13.9419917"><ele>492.0</ele><time>2026-04-25T08:51:53.092Z</time></trkpt><trkpt lat="45.5606253" lon="13.9421183"><ele>492.0</ele><time>2026-04-25T08:51:55.087Z</time></trkpt><trkpt lat="45.5605845" lon="13.9422132"><ele>492.0</ele><time>2026-04-25T08:51:56.095Z</time></trkpt><trkpt lat="45.5605291" lon="13.942309"><ele>492.0</ele><time>2026-04-25T08:51:57.097Z</time></trkpt><trkpt lat="45.5604602" lon="13.9423702"><ele>492.0</ele><time>2026-04-25T08:51:58.091Z</time></trkpt><trkpt lat="45.5603808" lon="13.9424051"><ele>492.0</ele><time>2026-04-25T08:51:59.091Z</time></trkpt><trkpt lat="45.5602814" lon="13.942427"><ele>492.0</ele><time>2026-04-25T08:52:00.09Z</time></trkpt><trkpt lat="45.5601731" lon="13.9424966"><ele>493.0</ele><time>2026-04-25T08:52:01.086Z</time></trkpt><trkpt lat="45.5600548" lon="13.9425858"><ele>494.0</ele><time>2026-04-25T08:52:02.085Z</time></trkpt><trkpt lat="45.559923" lon="13.9426747"><ele>495.0</ele><time>2026-04-25T08:52:03.094Z</time></trkpt><trkpt lat="45.5597904" lon="13.9427384"><ele>496.0</ele><time>2026-04-25T08:52:04.086Z</time></trkpt><trkpt lat="45.5596598" lon="13.9427948"><ele>496.0</ele><time>2026-04-25T08:52:05.086Z</time></trkpt><trkpt lat="45.5595401" lon="13.942857"><ele>496.0</ele><time>2026-04-25T08:52:06.093Z</time></trkpt><trkpt lat="45.5594283" lon="13.9429453"><ele>496.0</ele><time>2026-04-25T08:52:07.096Z</time></trkpt><trkpt lat="45.5593077" lon="13.943057"><ele>496.0</ele><time>2026-04-25T08:52:08.093Z</time></trkpt><trkpt lat="45.5591842" lon="13.9431713"><ele>496.5</ele><time>2026-04-25T08:52:09.09Z</time></trkpt><trkpt lat="45.559066" lon="13.9432694"><ele>497.0</ele><time>2026-04-25T08:52:10.088Z</time></trkpt><trkpt lat="45.558979" lon="13.9433258"><ele>497.5</ele><time>2026-04-25T08:52:11.087Z</time></trkpt><trkpt lat="45.558876" lon="13.9434002"><ele>498.0</ele><time>2026-04-25T08:52:13.09Z</time></trkpt><trkpt lat="45.5587611" lon="13.9434689"><ele>497.5</ele><time>2026-04-25T08:52:15.082Z</time></trkpt><trkpt lat="45.5586951" lon="13.9435089"><ele>497.0</ele><time>2026-04-25T08:52:16.092Z</time></trkpt><trkpt lat="45.5586153" lon="13.9435424"><ele>496.5</ele><time>2026-04-25T08:52:17.084Z</time></trkpt><trkpt lat="45.5585313" lon="13.943578"><ele>496.0</ele><time>2026-04-25T08:52:18.096Z</time></trkpt><trkpt lat="45.5584513" lon="13.9436145"><ele>495.5</ele><time>2026-04-25T08:52:19.089Z</time></trkpt><trkpt lat="45.5583696" lon="13.9436594"><ele>495.0</ele><time>2026-04-25T08:52:20.091Z</time></trkpt><trkpt lat="45.5582829" lon="13.9437088"><ele>495.0</ele><time>2026-04-25T08:52:21.083Z</time></trkpt><trkpt lat="45.558183" lon="13.9437548"><ele>495.0</ele><time>2026-04-25T08:52:22.094Z</time></trkpt><trkpt lat="45.5580608" lon="13.9438297"><ele>495.0</ele><time>2026-04-25T08:52:23.084Z</time></trkpt><trkpt lat="45.557935" lon="13.9439228"><ele>495.0</ele><time>2026-04-25T08:52:24.091Z</time></trkpt><trkpt lat="45.5578135" lon="13.9440113"><ele>495.0</ele><time>2026-04-25T08:52:25.089Z</time></trkpt><trkpt lat="45.5577025" lon="13.9440914"><ele>495.0</ele><time>2026-04-25T08:52:26.088Z</time></trkpt><trkpt lat="45.5576003" lon="13.9441743"><ele>495.0</ele><time>2026-04-25T08:52:27.096Z</time></trkpt><trkpt lat="45.557499" lon="13.9442736"><ele>495.0</ele><time>2026-04-25T08:52:28.086Z</time></trkpt><trkpt lat="45.5573869" lon="13.9443806"><ele>495.0</ele><time>2026-04-25T08:52:29.092Z</time></trkpt><trkpt lat="45.5572624" lon="13.9444868"><ele>495.0</ele><time>2026-04-25T08:52:30.079Z</time></trkpt><trkpt lat="45.5571294" lon="13.9445942"><ele>495.0</ele><time>2026-04-25T08:52:31.085Z</time></trkpt><trkpt lat="45.5569979" lon="13.9447161"><ele>495.66666666666663</ele><time>2026-04-25T08:52:32.078Z</time></trkpt><trkpt lat="45.5568581" lon="13.9448406"><ele>496.3333333333333</ele><time>2026-04-25T08:52:33.093Z</time></trkpt><trkpt lat="45.5567216" lon="13.9449625"><ele>497.0</ele><time>2026-04-25T08:52:34.086Z</time></trkpt><trkpt lat="45.5565951" lon="13.945065"><ele>497.0</ele><time>2026-04-25T08:52:35.092Z</time></trkpt><trkpt lat="45.5564793" lon="13.9451505"><ele>497.0</ele><time>2026-04-25T08:52:36.097Z</time></trkpt><trkpt lat="45.556366" lon="13.9452248"><ele>497.0</ele><time>2026-04-25T08:52:37.089Z</time></trkpt><trkpt lat="45.5562473" lon="13.9452839"><ele>497.0</ele><time>2026-04-25T08:52:38.094Z</time></trkpt><trkpt lat="45.5561342" lon="13.9453438"><ele>496.75</ele><time>2026-04-25T08:52:39.086Z</time></trkpt><trkpt lat="45.556028" lon="13.9453957"><ele>496.5</ele><time>2026-04-25T08:52:40.096Z</time></trkpt><trkpt lat="45.5559133" lon="13.9454282"><ele>496.25</ele><time>2026-04-25T08:52:41.084Z</time></trkpt><trkpt lat="45.5557911" lon="13.9454495"><ele>496.0</ele><time>2026-04-25T08:52:42.095Z</time></trkpt><trkpt lat="45.5556696" lon="13.9454518"><ele>496.0</ele><time>2026-04-25T08:52:43.085Z</time></trkpt><trkpt lat="45.5555364" lon="13.945428"><ele>496.0</ele><time>2026-04-25T08:52:44.092Z</time></trkpt><trkpt lat="45.5553934" lon="13.9454141"><ele>496.0</ele><time>2026-04-25T08:52:45.092Z</time></trkpt><trkpt lat="45.5552424" lon="13.9454026"><ele>496.0</ele><time>2026-04-25T08:52:46.085Z</time></trkpt><trkpt lat="45.5550894" lon="13.9453946"><ele>495.75</ele><time>2026-04-25T08:52:47.084Z</time></trkpt><trkpt lat="45.5549452" lon="13.9453789"><ele>495.5</ele><time>2026-04-25T08:52:48.095Z</time></trkpt><trkpt lat="45.5548121" lon="13.9453592"><ele>495.25</ele><time>2026-04-25T08:52:49.088Z</time></trkpt><trkpt lat="45.5546889" lon="13.9453391"><ele>495.0</ele><time>2026-04-25T08:52:50.092Z</time></trkpt><trkpt lat="45.5545697" lon="13.9453171"><ele>495.5</ele><time>2026-04-25T08:52:51.089Z</time></trkpt><trkpt lat="45.5544353" lon="13.9452773"><ele>496.0</ele><time>2026-04-25T08:52:52.103Z</time></trkpt><trkpt lat="45.5542905" lon="13.9452253"><ele>496.5</ele><time>2026-04-25T08:52:53.09Z</time></trkpt><trkpt lat="45.5541366" lon="13.9451819"><ele>497.0</ele><time>2026-04-25T08:52:54.089Z</time></trkpt><trkpt lat="45.5539817" lon="13.9451504"><ele>497.0</ele><time>2026-04-25T08:52:55.085Z</time></trkpt><trkpt lat="45.553827" lon="13.9451361"><ele>497.0</ele><time>2026-04-25T08:52:56.083Z</time></trkpt><trkpt lat="45.5536736" lon="13.9451259"><ele>497.0</ele><time>2026-04-25T08:52:57.086Z</time></trkpt><trkpt lat="45.5535227" lon="13.9451254"><ele>497.0</ele><time>2026-04-25T08:52:58.087Z</time></trkpt><trkpt lat="45.5533668" lon="13.9451328"><ele>497.0</ele><time>2026-04-25T08:52:59.086Z</time></trkpt><trkpt lat="45.5532137" lon="13.9451394"><ele>497.0</ele><time>2026-04-25T08:53:00.088Z</time></trkpt><trkpt lat="45.5530767" lon="13.9451432"><ele>497.0</ele><time>2026-04-25T08:53:01.082Z</time></trkpt><trkpt lat="45.5529448" lon="13.9451445"><ele>497.0</ele><time>2026-04-25T08:53:02.091Z</time></trkpt><trkpt lat="45.5528103" lon="13.9451303"><ele>497.0</ele><time>2026-04-25T08:53:03.086Z</time></trkpt><trkpt lat="45.552664" lon="13.9451166"><ele>497.0</ele><time>2026-04-25T08:53:04.083Z</time></trkpt><trkpt lat="45.5525203" lon="13.9451058"><ele>497.0</ele><time>2026-04-25T08:53:05.078Z</time></trkpt><trkpt lat="45.5524047" lon="13.9450962"><ele>496.99999999999994</ele><time>2026-04-25T08:53:06.088Z</time></trkpt><trkpt lat="45.5523367" lon="13.9450829"><ele>497.0</ele><time>2026-04-25T08:53:07.096Z</time></trkpt><trkpt lat="45.552235" lon="13.9450505"><ele>497.0</ele><time>2026-04-25T08:53:09.082Z</time></trkpt><trkpt lat="45.5521717" lon="13.9450291"><ele>497.0</ele><time>2026-04-25T08:53:10.101Z</time></trkpt><trkpt lat="45.5521076" lon="13.945013"><ele>496.99999999999994</ele><time>2026-04-25T08:53:11.084Z</time></trkpt><trkpt lat="45.5520323" lon="13.9450006"><ele>497.0</ele><time>2026-04-25T08:53:12.089Z</time></trkpt><trkpt lat="45.5519487" lon="13.9450063"><ele>495.40000000000003</ele><time>2026-04-25T08:53:13.085Z</time></trkpt><trkpt lat="45.551857" lon="13.9450187"><ele>493.80000000000007</ele><time>2026-04-25T08:53:14.09Z</time></trkpt><trkpt lat="45.5517579" lon="13.9450244"><ele>492.2</ele><time>2026-04-25T08:53:15.091Z</time></trkpt><trkpt lat="45.5516471" lon="13.9450231"><ele>490.6</ele><time>2026-04-25T08:53:16.086Z</time></trkpt><trkpt lat="45.5515281" lon="13.9450118"><ele>489.0</ele><time>2026-04-25T08:53:17.088Z</time></trkpt><trkpt lat="45.5513983" lon="13.9449917"><ele>489.0</ele><time>2026-04-25T08:53:18.088Z</time></trkpt><trkpt lat="45.5512546" lon="13.9449679"><ele>489.0</ele><time>2026-04-25T08:53:19.089Z</time></trkpt><trkpt lat="45.5511059" lon="13.9449523"><ele>489.0</ele><time>2026-04-25T08:53:20.091Z</time></trkpt><trkpt lat="45.5509499" lon="13.9449337"><ele>488.33333333333337</ele><time>2026-04-25T08:53:21.088Z</time></trkpt><trkpt lat="45.550792" lon="13.9449085"><ele>487.6666666666667</ele><time>2026-04-25T08:53:22.088Z</time></trkpt><trkpt lat="45.5506372" lon="13.9448858"><ele>487.0</ele><time>2026-04-25T08:53:23.108Z</time></trkpt><trkpt lat="45.5504832" lon="13.9448723"><ele>486.6666666666667</ele><time>2026-04-25T08:53:24.091Z</time></trkpt><trkpt lat="45.5503207" lon="13.9448602"><ele>486.33333333333337</ele><time>2026-04-25T08:53:25.089Z</time></trkpt><trkpt lat="45.5501555" lon="13.944854"><ele>486.0</ele><time>2026-04-25T08:53:26.083Z</time></trkpt><trkpt lat="45.5499918" lon="13.9448515"><ele>486.0</ele><time>2026-04-25T08:53:27.088Z</time></trkpt><trkpt lat="45.549825" lon="13.9448443"><ele>486.0</ele><time>2026-04-25T08:53:28.085Z</time></trkpt><trkpt lat="45.5496613" lon="13.9448343"><ele>486.0</ele><time>2026-04-25T08:53:29.085Z</time></trkpt><trkpt lat="45.549507" lon="13.9448214"><ele>485.66666666666663</ele><time>2026-04-25T08:53:30.083Z</time></trkpt><trkpt lat="45.5493575" lon="13.9448094"><ele>485.3333333333333</ele><time>2026-04-25T08:53:31.086Z</time></trkpt><trkpt lat="45.5492083" lon="13.9447991"><ele>485.0</ele><time>2026-04-25T08:53:32.077Z</time></trkpt><trkpt lat="45.5490574" lon="13.9448058"><ele>485.0</ele><time>2026-04-25T08:53:33.078Z</time></trkpt><trkpt lat="45.5489026" lon="13.9448266"><ele>485.0</ele><time>2026-04-25T08:53:34.077Z</time></trkpt><trkpt lat="45.5487389" lon="13.9448592"><ele>485.0</ele><time>2026-04-25T08:53:35.084Z</time></trkpt><trkpt lat="45.5485753" lon="13.9448949"><ele>483.66666666666663</ele><time>2026-04-25T08:53:36.086Z</time></trkpt><trkpt lat="45.548406" lon="13.94492"><ele>482.33333333333337</ele><time>2026-04-25T08:53:37.09Z</time></trkpt><trkpt lat="45.5482297" lon="13.9449423"><ele>481.0</ele><time>2026-04-25T08:53:38.101Z</time></trkpt><trkpt lat="45.5480543" lon="13.9449716"><ele>481.0</ele><time>2026-04-25T08:53:39.082Z</time></trkpt><trkpt lat="45.5478886" lon="13.9449985"><ele>481.0</ele><time>2026-04-25T08:53:40.077Z</time></trkpt><trkpt lat="45.5477345" lon="13.9450201"><ele>481.0</ele><time>2026-04-25T08:53:41.08Z</time></trkpt><trkpt lat="45.5475867" lon="13.9450527"><ele>481.5</ele><time>2026-04-25T08:53:42.09Z</time></trkpt><trkpt lat="45.5474399" lon="13.9450933"><ele>482.0</ele><time>2026-04-25T08:53:43.11Z</time></trkpt><trkpt lat="45.5472975" lon="13.9451409"><ele>482.5</ele><time>2026-04-25T08:53:44.083Z</time></trkpt><trkpt lat="45.5471584" lon="13.945191"><ele>483.0</ele><time>2026-04-25T08:53:45.08Z</time></trkpt><trkpt lat="45.5470141" lon="13.9452349"><ele>483.0</ele><time>2026-04-25T08:53:46.081Z</time></trkpt><trkpt lat="45.5468674" lon="13.9452716"><ele>483.0</ele><time>2026-04-25T08:53:47.082Z</time></trkpt><trkpt lat="45.5467225" lon="13.9453012"><ele>483.0</ele><time>2026-04-25T08:53:48.087Z</time></trkpt><trkpt lat="45.5465758" lon="13.9453182"><ele>483.0</ele><time>2026-04-25T08:53:49.079Z</time></trkpt><trkpt lat="45.5464262" lon="13.945309"><ele>483.0</ele><time>2026-04-25T08:53:50.089Z</time></trkpt><trkpt lat="45.5462765" lon="13.9452868"><ele>483.0</ele><time>2026-04-25T08:53:51.085Z</time></trkpt><trkpt lat="45.5461194" lon="13.9452638"><ele>483.0</ele><time>2026-04-25T08:53:52.085Z</time></trkpt><trkpt lat="45.545965" lon="13.9452549"><ele>482.66666666666663</ele><time>2026-04-25T08:53:53.082Z</time></trkpt><trkpt lat="45.5457982" lon="13.9452619"><ele>482.3333333333333</ele><time>2026-04-25T08:53:54.089Z</time></trkpt><trkpt lat="45.5456291" lon="13.9452549"><ele>482.0</ele><time>2026-04-25T08:53:55.085Z</time></trkpt><trkpt lat="45.5454541" lon="13.9452292"><ele>482.3333333333333</ele><time>2026-04-25T08:53:56.088Z</time></trkpt><trkpt lat="45.5452796" lon="13.9451954"><ele>482.66666666666663</ele><time>2026-04-25T08:53:57.088Z</time></trkpt><trkpt lat="45.545102" lon="13.9451749"><ele>483.0</ele><time>2026-04-25T08:53:58.086Z</time></trkpt><trkpt lat="45.5449303" lon="13.9451684"><ele>483.0</ele><time>2026-04-25T08:53:59.083Z</time></trkpt><trkpt lat="45.5447701" lon="13.9451473"><ele>483.0</ele><time>2026-04-25T08:54:00.082Z</time></trkpt><trkpt lat="45.5446156" lon="13.9451049"><ele>483.0</ele><time>2026-04-25T08:54:01.082Z</time></trkpt><trkpt lat="45.5444536" lon="13.9450499"><ele>483.33333333333337</ele><time>2026-04-25T08:54:02.079Z</time></trkpt><trkpt lat="45.5442911" lon="13.944993"><ele>483.6666666666667</ele><time>2026-04-25T08:54:03.08Z</time></trkpt><trkpt lat="45.5441314" lon="13.9449364"><ele>484.0</ele><time>2026-04-25T08:54:04.079Z</time></trkpt><trkpt lat="45.5439745" lon="13.9448778"><ele>484.0</ele><time>2026-04-25T08:54:05.073Z</time></trkpt><trkpt lat="45.5438263" lon="13.9448239"><ele>484.0</ele><time>2026-04-25T08:54:06.082Z</time></trkpt><trkpt lat="45.5436778" lon="13.9447895"><ele>484.0</ele><time>2026-04-25T08:54:07.081Z</time></trkpt><trkpt lat="45.5435269" lon="13.9447772"><ele>484.33333333333337</ele><time>2026-04-25T08:54:08.086Z</time></trkpt><trkpt lat="45.5433715" lon="13.9447763"><ele>484.66666666666663</ele><time>2026-04-25T08:54:09.084Z</time></trkpt><trkpt lat="45.5432172" lon="13.9447865"><ele>485.0</ele><time>2026-04-25T08:54:10.084Z</time></trkpt><trkpt lat="45.5430586" lon="13.9447865"><ele>485.0</ele><time>2026-04-25T08:54:11.082Z</time></trkpt><trkpt lat="45.5429051" lon="13.944772"><ele>485.0</ele><time>2026-04-25T08:54:12.08Z</time></trkpt><trkpt lat="45.5427535" lon="13.9447355"><ele>485.0</ele><time>2026-04-25T08:54:13.078Z</time></trkpt><trkpt lat="45.5426077" lon="13.9446882"><ele>485.5</ele><time>2026-04-25T08:54:14.09Z</time></trkpt><trkpt lat="45.5424634" lon="13.9446582"><ele>486.0</ele><time>2026-04-25T08:54:15.078Z</time></trkpt><trkpt lat="45.54232" lon="13.9446451"><ele>486.5</ele><time>2026-04-25T08:54:16.087Z</time></trkpt><trkpt lat="45.5421872" lon="13.9446373"><ele>487.0</ele><time>2026-04-25T08:54:17.085Z</time></trkpt><trkpt lat="45.5420407" lon="13.9446094"><ele>487.0</ele><time>2026-04-25T08:54:18.084Z</time></trkpt><trkpt lat="45.5418934" lon="13.9445689"><ele>487.0</ele><time>2026-04-25T08:54:19.082Z</time></trkpt><trkpt lat="45.5417343" lon="13.9445301"><ele>487.0</ele><time>2026-04-25T08:54:20.086Z</time></trkpt><trkpt lat="45.5415702" lon="13.9445018"><ele>487.0</ele><time>2026-04-25T08:54:21.081Z</time></trkpt><trkpt lat="45.5413996" lon="13.9444815"><ele>487.0</ele><time>2026-04-25T08:54:22.085Z</time></trkpt><trkpt lat="45.5412255" lon="13.9444785"><ele>487.0</ele><time>2026-04-25T08:54:23.082Z</time></trkpt><trkpt lat="45.5410459" lon="13.9444763"><ele>487.0</ele><time>2026-04-25T08:54:24.099Z</time></trkpt><trkpt lat="45.5408677" lon="13.9444662"><ele>487.0</ele><time>2026-04-25T08:54:25.086Z</time></trkpt><trkpt lat="45.5406899" lon="13.9444524"><ele>487.0</ele><time>2026-04-25T08:54:26.087Z</time></trkpt><trkpt lat="45.5405108" lon="13.9444406"><ele>487.6666666666667</ele><time>2026-04-25T08:54:27.093Z</time></trkpt><trkpt lat="45.5403368" lon="13.9444346"><ele>488.33333333333337</ele><time>2026-04-25T08:54:28.086Z</time></trkpt><trkpt lat="45.5401644" lon="13.9444366"><ele>489.0</ele><time>2026-04-25T08:54:29.1Z</time></trkpt><trkpt lat="45.5399903" lon="13.9444396"><ele>489.0</ele><time>2026-04-25T08:54:30.087Z</time></trkpt><trkpt lat="45.5398175" lon="13.9444444"><ele>489.0</ele><time>2026-04-25T08:54:31.082Z</time></trkpt><trkpt lat="45.539653" lon="13.9444364"><ele>489.0</ele><time>2026-04-25T08:54:32.082Z</time></trkpt><trkpt lat="45.5394904" lon="13.9444204"><ele>488.33333333333337</ele><time>2026-04-25T08:54:33.083Z</time></trkpt><trkpt lat="45.5393304" lon="13.9443892"><ele>487.6666666666667</ele><time>2026-04-25T08:54:34.081Z</time></trkpt><trkpt lat="45.5391662" lon="13.9443534"><ele>487.0</ele><time>2026-04-25T08:54:35.083Z</time></trkpt><trkpt lat="45.5390002" lon="13.9443145"><ele>487.0</ele><time>2026-04-25T08:54:36.079Z</time></trkpt><trkpt lat="45.5388368" lon="13.9442755"><ele>487.0</ele><time>2026-04-25T08:54:37.085Z</time></trkpt><trkpt lat="45.5386774" lon="13.94425"><ele>487.0</ele><time>2026-04-25T08:54:38.081Z</time></trkpt><trkpt lat="45.5385322" lon="13.9442444"><ele>486.75</ele><time>2026-04-25T08:54:39.089Z</time></trkpt><trkpt lat="45.5383988" lon="13.9442521"><ele>486.5</ele><time>2026-04-25T08:54:40.082Z</time></trkpt><trkpt lat="45.5382745" lon="13.9442582"><ele>486.25</ele><time>2026-04-25T08:54:41.086Z</time></trkpt><trkpt lat="45.5381597" lon="13.9442575"><ele>486.0</ele><time>2026-04-25T08:54:42.081Z</time></trkpt><trkpt lat="45.538057" lon="13.9442369"><ele>486.0</ele><time>2026-04-25T08:54:43.087Z</time></trkpt><trkpt lat="45.5379535" lon="13.9442175"><ele>486.0</ele><time>2026-04-25T08:54:44.096Z</time></trkpt><trkpt lat="45.5378472" lon="13.944193"><ele>486.0</ele><time>2026-04-25T08:54:45.078Z</time></trkpt><trkpt lat="45.537747" lon="13.9441696"><ele>486.0</ele><time>2026-04-25T08:54:46.082Z</time></trkpt><trkpt lat="45.5376519" lon="13.9441531"><ele>486.0</ele><time>2026-04-25T08:54:47.086Z</time></trkpt><trkpt lat="45.5375597" lon="13.9441481"><ele>486.4</ele><time>2026-04-25T08:54:48.092Z</time></trkpt><trkpt lat="45.537469" lon="13.9441536"><ele>486.8</ele><time>2026-04-25T08:54:49.092Z</time></trkpt><trkpt lat="45.5373671" lon="13.9441656"><ele>487.19999999999993</ele><time>2026-04-25T08:54:50.093Z</time></trkpt><trkpt lat="45.5372655" lon="13.9441837"><ele>487.59999999999997</ele><time>2026-04-25T08:54:51.086Z</time></trkpt><trkpt lat="45.5371643" lon="13.9442163"><ele>488.0</ele><time>2026-04-25T08:54:52.093Z</time></trkpt><trkpt lat="45.5370565" lon="13.9442385"><ele>488.4</ele><time>2026-04-25T08:54:53.09Z</time></trkpt><trkpt lat="45.5369533" lon="13.9442477"><ele>488.79999999999995</ele><time>2026-04-25T08:54:54.082Z</time></trkpt><trkpt lat="45.5368484" lon="13.9442555"><ele>489.2</ele><time>2026-04-25T08:54:55.085Z</time></trkpt><trkpt lat="45.5367404" lon="13.9442702"><ele>489.6</ele><time>2026-04-25T08:54:56.082Z</time></trkpt><trkpt lat="45.5366433" lon="13.9442836"><ele>490.0</ele><time>2026-04-25T08:54:57.084Z</time></trkpt><trkpt lat="45.5365514" lon="13.9442998"><ele>490.00000000000006</ele><time>2026-04-25T08:54:58.086Z</time></trkpt><trkpt lat="45.5364677" lon="13.9443035"><ele>490.0</ele><time>2026-04-25T08:54:59.087Z</time></trkpt><trkpt lat="45.5363912" lon="13.9443116"><ele>490.0</ele><time>2026-04-25T08:55:00.085Z</time></trkpt><trkpt lat="45.5363205" lon="13.9443169"><ele>490.0</ele><time>2026-04-25T08:55:01.108Z</time></trkpt><trkpt lat="45.5362563" lon="13.9443227"><ele>490.00000000000006</ele><time>2026-04-25T08:55:02.084Z</time></trkpt><trkpt lat="45.5361502" lon="13.9443287"><ele>490.0</ele><time>2026-04-25T08:55:04.079Z</time></trkpt><trkpt lat="45.5360899" lon="13.9443555"><ele>489.5</ele><time>2026-04-25T08:55:06.088Z</time></trkpt><trkpt lat="45.5359793" lon="13.944454"><ele>489.0</ele><time>2026-04-25T08:55:09.087Z</time></trkpt><trkpt lat="45.5359045" lon="13.944544"><ele>488.5</ele><time>2026-04-25T08:55:10.086Z</time></trkpt><trkpt lat="45.5358268" lon="13.9446637"><ele>488.0</ele><time>2026-04-25T08:55:11.095Z</time></trkpt><trkpt lat="45.5357403" lon="13.944784"><ele>488.0</ele><time>2026-04-25T08:55:12.083Z</time></trkpt><trkpt lat="45.5356416" lon="13.9448882"><ele>488.0</ele><time>2026-04-25T08:55:13.089Z</time></trkpt><trkpt lat="45.5355273" lon="13.9449784"><ele>488.0</ele><time>2026-04-25T08:55:14.084Z</time></trkpt><trkpt lat="45.5354019" lon="13.9450503"><ele>488.0</ele><time>2026-04-25T08:55:15.086Z</time></trkpt><trkpt lat="45.5352637" lon="13.9451127"><ele>488.3333333333333</ele><time>2026-04-25T08:55:16.092Z</time></trkpt><trkpt lat="45.5351129" lon="13.9451756"><ele>488.66666666666663</ele><time>2026-04-25T08:55:17.085Z</time></trkpt><trkpt lat="45.5349356" lon="13.9452127"><ele>489.0</ele><time>2026-04-25T08:55:18.093Z</time></trkpt><trkpt lat="45.5347522" lon="13.9452188"><ele>489.0</ele><time>2026-04-25T08:55:19.085Z</time></trkpt><trkpt lat="45.534559" lon="13.94522"><ele>489.0</ele><time>2026-04-25T08:55:20.083Z</time></trkpt><trkpt lat="45.534371" lon="13.945226"><ele>489.0</ele><time>2026-04-25T08:55:21.08Z</time></trkpt><trkpt lat="45.5341929" lon="13.9452582"><ele>489.66666666666663</ele><time>2026-04-25T08:55:22.088Z</time></trkpt><trkpt lat="45.534018" lon="13.9453225"><ele>490.3333333333333</ele><time>2026-04-25T08:55:23.083Z</time></trkpt><trkpt lat="45.5338591" lon="13.9454048"><ele>491.0</ele><time>2026-04-25T08:55:24.084Z</time></trkpt><trkpt lat="45.5337229" lon="13.9455145"><ele>492.66666666666663</ele><time>2026-04-25T08:55:25.083Z</time></trkpt><trkpt lat="45.5335992" lon="13.9456629"><ele>494.33333333333337</ele><time>2026-04-25T08:55:26.082Z</time></trkpt><trkpt lat="45.5334826" lon="13.9458454"><ele>496.0</ele><time>2026-04-25T08:55:27.073Z</time></trkpt><trkpt lat="45.5333657" lon="13.9460414"><ele>496.0</ele><time>2026-04-25T08:55:28.077Z</time></trkpt><trkpt lat="45.5332477" lon="13.9462183"><ele>496.0</ele><time>2026-04-25T08:55:29.087Z</time></trkpt><trkpt lat="45.5331363" lon="13.9463846"><ele>496.0</ele><time>2026-04-25T08:55:30.084Z</time></trkpt><trkpt lat="45.5330276" lon="13.9465577"><ele>496.33333333333337</ele><time>2026-04-25T08:55:31.078Z</time></trkpt><trkpt lat="45.5329249" lon="13.9467256"><ele>496.66666666666663</ele><time>2026-04-25T08:55:32.08Z</time></trkpt><trkpt lat="45.5328265" lon="13.9468911"><ele>497.0</ele><time>2026-04-25T08:55:33.082Z</time></trkpt><trkpt lat="45.5327301" lon="13.9470492"><ele>497.5</ele><time>2026-04-25T08:55:34.076Z</time></trkpt><trkpt lat="45.5326374" lon="13.9471942"><ele>498.0</ele><time>2026-04-25T08:55:35.076Z</time></trkpt><trkpt lat="45.5325463" lon="13.947333"><ele>498.5</ele><time>2026-04-25T08:55:36.088Z</time></trkpt><trkpt lat="45.5324617" lon="13.947463"><ele>499.0</ele><time>2026-04-25T08:55:37.076Z</time></trkpt><trkpt lat="45.532377" lon="13.9475971"><ele>499.0</ele><time>2026-04-25T08:55:38.076Z</time></trkpt><trkpt lat="45.5322873" lon="13.9477363"><ele>499.0</ele><time>2026-04-25T08:55:39.082Z</time></trkpt><trkpt lat="45.5321929" lon="13.9478645"><ele>499.0</ele><time>2026-04-25T08:55:40.081Z</time></trkpt><trkpt lat="45.5320923" lon="13.9479936"><ele>499.0</ele><time>2026-04-25T08:55:41.083Z</time></trkpt><trkpt lat="45.5319877" lon="13.9481142"><ele>499.0</ele><time>2026-04-25T08:55:42.093Z</time></trkpt><trkpt lat="45.5318741" lon="13.9482259"><ele>499.0</ele><time>2026-04-25T08:55:43.088Z</time></trkpt><trkpt lat="45.5317657" lon="13.9483301"><ele>499.0</ele><time>2026-04-25T08:55:44.087Z</time></trkpt><trkpt lat="45.5316598" lon="13.9484371"><ele>499.0</ele><time>2026-04-25T08:55:45.086Z</time></trkpt><trkpt lat="45.5315507" lon="13.9485417"><ele>500.25</ele><time>2026-04-25T08:55:46.084Z</time></trkpt><trkpt lat="45.531447" lon="13.9486432"><ele>501.5</ele><time>2026-04-25T08:55:47.084Z</time></trkpt><trkpt lat="45.5313449" lon="13.9487398"><ele>502.75</ele><time>2026-04-25T08:55:48.088Z</time></trkpt><trkpt lat="45.5312408" lon="13.9488354"><ele>504.0</ele><time>2026-04-25T08:55:49.087Z</time></trkpt><trkpt lat="45.5311337" lon="13.9489311"><ele>504.0</ele><time>2026-04-25T08:55:50.088Z</time></trkpt><trkpt lat="45.5310312" lon="13.9490255"><ele>504.0</ele><time>2026-04-25T08:55:51.084Z</time></trkpt><trkpt lat="45.5309366" lon="13.9491137"><ele>504.0</ele><time>2026-04-25T08:55:52.082Z</time></trkpt><trkpt lat="45.5308521" lon="13.9491999"><ele>504.0</ele><time>2026-04-25T08:55:53.083Z</time></trkpt><trkpt lat="45.5307668" lon="13.9492803"><ele>504.0</ele><time>2026-04-25T08:55:54.097Z</time></trkpt><trkpt lat="45.5306806" lon="13.9493614"><ele>503.6</ele><time>2026-04-25T08:55:55.077Z</time></trkpt><trkpt lat="45.5305938" lon="13.9494369"><ele>503.2</ele><time>2026-04-25T08:55:56.079Z</time></trkpt><trkpt lat="45.5305068" lon="13.9495153"><ele>502.80000000000007</ele><time>2026-04-25T08:55:57.082Z</time></trkpt><trkpt lat="45.5304215" lon="13.9495912"><ele>502.40000000000003</ele><time>2026-04-25T08:55:58.087Z</time></trkpt><trkpt lat="45.5303407" lon="13.949673"><ele>502.0</ele><time>2026-04-25T08:55:59.08Z</time></trkpt><trkpt lat="45.5302555" lon="13.9497597"><ele>502.0</ele><time>2026-04-25T08:56:00.082Z</time></trkpt><trkpt lat="45.5301621" lon="13.949851"><ele>502.0</ele><time>2026-04-25T08:56:01.088Z</time></trkpt><trkpt lat="45.5300616" lon="13.9499465"><ele>502.0</ele><time>2026-04-25T08:56:02.078Z</time></trkpt><trkpt lat="45.5299564" lon="13.9500452"><ele>502.0</ele><time>2026-04-25T08:56:03.094Z</time></trkpt><trkpt lat="45.529848" lon="13.9501517"><ele>501.75</ele><time>2026-04-25T08:56:04.085Z</time></trkpt><trkpt lat="45.5297395" lon="13.9502537"><ele>501.5</ele><time>2026-04-25T08:56:05.082Z</time></trkpt><trkpt lat="45.5296304" lon="13.9503564"><ele>501.25</ele><time>2026-04-25T08:56:06.087Z</time></trkpt><trkpt lat="45.5295186" lon="13.9504591"><ele>501.0</ele><time>2026-04-25T08:56:07.091Z</time></trkpt><trkpt lat="45.5294051" lon="13.9505636"><ele>501.0</ele><time>2026-04-25T08:56:08.086Z</time></trkpt><trkpt lat="45.5292935" lon="13.9506679"><ele>501.0</ele><time>2026-04-25T08:56:09.085Z</time></trkpt><trkpt lat="45.529182" lon="13.9507711"><ele>501.0</ele><time>2026-04-25T08:56:10.082Z</time></trkpt><trkpt lat="45.5290721" lon="13.950874"><ele>501.0</ele><time>2026-04-25T08:56:11.085Z</time></trkpt><trkpt lat="45.5289604" lon="13.9509789"><ele>501.5</ele><time>2026-04-25T08:56:12.089Z</time></trkpt><trkpt lat="45.5288567" lon="13.9510809"><ele>502.0</ele><time>2026-04-25T08:56:13.086Z</time></trkpt><trkpt lat="45.5287575" lon="13.9511763"><ele>502.5</ele><time>2026-04-25T08:56:14.085Z</time></trkpt><trkpt lat="45.5286609" lon="13.9512652"><ele>503.0</ele><time>2026-04-25T08:56:15.087Z</time></trkpt><trkpt lat="45.5285652" lon="13.9513551"><ele>503.0</ele><time>2026-04-25T08:56:16.084Z</time></trkpt><trkpt lat="45.5284672" lon="13.9514513"><ele>503.0</ele><time>2026-04-25T08:56:17.085Z</time></trkpt><trkpt lat="45.5283686" lon="13.951541"><ele>503.0</ele><time>2026-04-25T08:56:18.088Z</time></trkpt><trkpt lat="45.5282685" lon="13.9516359"><ele>503.0</ele><time>2026-04-25T08:56:19.086Z</time></trkpt><trkpt lat="45.5281669" lon="13.9517337"><ele>503.25</ele><time>2026-04-25T08:56:20.089Z</time></trkpt><trkpt lat="45.5280598" lon="13.9518318"><ele>503.5</ele><time>2026-04-25T08:56:21.084Z</time></trkpt><trkpt lat="45.5279511" lon="13.9519348"><ele>503.75</ele><time>2026-04-25T08:56:22.082Z</time></trkpt><trkpt lat="45.5278377" lon="13.9520359"><ele>504.0</ele><time>2026-04-25T08:56:23.088Z</time></trkpt><trkpt lat="45.5277216" lon="13.9521403"><ele>504.0</ele><time>2026-04-25T08:56:24.086Z</time></trkpt><trkpt lat="45.5275979" lon="13.9522448"><ele>504.0</ele><time>2026-04-25T08:56:25.085Z</time></trkpt><trkpt lat="45.5274678" lon="13.9523554"><ele>504.0</ele><time>2026-04-25T08:56:26.087Z</time></trkpt><trkpt lat="45.5273246" lon="13.9524716"><ele>505.33333333333337</ele><time>2026-04-25T08:56:27.088Z</time></trkpt><trkpt lat="45.5271701" lon="13.9525936"><ele>506.6666666666667</ele><time>2026-04-25T08:56:28.088Z</time></trkpt><trkpt lat="45.5270112" lon="13.9527204"><ele>508.0</ele><time>2026-04-25T08:56:29.077Z</time></trkpt><trkpt lat="45.5268527" lon="13.9528443"><ele>508.0</ele><time>2026-04-25T08:56:30.08Z</time></trkpt><trkpt lat="45.5266972" lon="13.952963"><ele>508.0</ele><time>2026-04-25T08:56:31.079Z</time></trkpt><trkpt lat="45.526552" lon="13.9530795"><ele>508.0</ele><time>2026-04-25T08:56:32.077Z</time></trkpt><trkpt lat="45.5264065" lon="13.9531918"><ele>508.0</ele><time>2026-04-25T08:56:33.079Z</time></trkpt><trkpt lat="45.5262593" lon="13.9533042"><ele>508.0</ele><time>2026-04-25T08:56:34.077Z</time></trkpt><trkpt lat="45.5261154" lon="13.9534164"><ele>508.0</ele><time>2026-04-25T08:56:35.079Z</time></trkpt><trkpt lat="45.5259823" lon="13.9535195"><ele>510.6666666666667</ele><time>2026-04-25T08:56:36.081Z</time></trkpt><trkpt lat="45.5258481" lon="13.9536156"><ele>513.3333333333334</ele><time>2026-04-25T08:56:37.095Z</time></trkpt><trkpt lat="45.5257179" lon="13.9537234"><ele>516.0</ele><time>2026-04-25T08:56:38.09Z</time></trkpt><trkpt lat="45.5255963" lon="13.9538461"><ele>516.0</ele><time>2026-04-25T08:56:39.084Z</time></trkpt><trkpt lat="45.5254978" lon="13.9540028"><ele>516.0</ele><time>2026-04-25T08:56:40.085Z</time></trkpt><trkpt lat="45.5254097" lon="13.9541761"><ele>516.0</ele><time>2026-04-25T08:56:41.081Z</time></trkpt><trkpt lat="45.5253345" lon="13.9543595"><ele>516.0</ele><time>2026-04-25T08:56:42.09Z</time></trkpt><trkpt lat="45.5252468" lon="13.9545319"><ele>518.25</ele><time>2026-04-25T08:56:43.085Z</time></trkpt><trkpt lat="45.5251364" lon="13.9546643"><ele>520.5</ele><time>2026-04-25T08:56:44.072Z</time></trkpt><trkpt lat="45.5250019" lon="13.9547571"><ele>522.75</ele><time>2026-04-25T08:56:45.076Z</time></trkpt><trkpt lat="45.5248567" lon="13.9548205"><ele>525.0</ele><time>2026-04-25T08:56:46.074Z</time></trkpt><trkpt lat="45.5247032" lon="13.954867"><ele>522.6666666666666</ele><time>2026-04-25T08:56:47.077Z</time></trkpt><trkpt lat="45.5245446" lon="13.9549205"><ele>520.3333333333333</ele><time>2026-04-25T08:56:48.091Z</time></trkpt><trkpt lat="45.5243867" lon="13.9549702"><ele>518.0</ele><time>2026-04-25T08:56:49.077Z</time></trkpt><trkpt lat="45.5242353" lon="13.9550166"><ele>524.0</ele><time>2026-04-25T08:56:50.073Z</time></trkpt><trkpt lat="45.5240978" lon="13.9550678"><ele>530.0</ele><time>2026-04-25T08:56:51.071Z</time></trkpt><trkpt lat="45.523972" lon="13.9551355"><ele>536.0</ele><time>2026-04-25T08:56:52.074Z</time></trkpt><trkpt lat="45.5238511" lon="13.9552332"><ele>542.0</ele><time>2026-04-25T08:56:53.079Z</time></trkpt><trkpt lat="45.5237344" lon="13.955363"><ele>539.5</ele><time>2026-04-25T08:56:54.073Z</time></trkpt><trkpt lat="45.5236277" lon="13.9555006"><ele>537.0</ele><time>2026-04-25T08:56:55.072Z</time></trkpt><trkpt lat="45.523511" lon="13.9555922"><ele>534.5</ele><time>2026-04-25T08:56:56.086Z</time></trkpt><trkpt lat="45.5233784" lon="13.9556535"><ele>532.0</ele><time>2026-04-25T08:56:57.076Z</time></trkpt><trkpt lat="45.5232371" lon="13.955684"><ele>532.0</ele><time>2026-04-25T08:56:58.064Z</time></trkpt><trkpt lat="45.5230976" lon="13.9556948"><ele>532.0</ele><time>2026-04-25T08:56:59.066Z</time></trkpt><trkpt lat="45.5229611" lon="13.9557047"><ele>532.0</ele><time>2026-04-25T08:57:00.066Z</time></trkpt><trkpt lat="45.5228215" lon="13.9557206"><ele>532.0</ele><time>2026-04-25T08:57:01.066Z</time></trkpt><trkpt lat="45.5226812" lon="13.9557363"><ele>531.0</ele><time>2026-04-25T08:57:02.065Z</time></trkpt><trkpt lat="45.5225365" lon="13.9557484"><ele>530.0</ele><time>2026-04-25T08:57:03.073Z</time></trkpt><trkpt lat="45.5223931" lon="13.9557679"><ele>529.0</ele><time>2026-04-25T08:57:04.066Z</time></trkpt><trkpt lat="45.5222522" lon="13.9557928"><ele>528.0</ele><time>2026-04-25T08:57:05.065Z</time></trkpt><trkpt lat="45.5221131" lon="13.9558371"><ele>535.3333333333334</ele><time>2026-04-25T08:57:06.07Z</time></trkpt><trkpt lat="45.5219717" lon="13.9558957"><ele>542.6666666666667</ele><time>2026-04-25T08:57:07.072Z</time></trkpt><trkpt lat="45.5218229" lon="13.9559736"><ele>550.0</ele><time>2026-04-25T08:57:08.088Z</time></trkpt><trkpt lat="45.5216651" lon="13.9560522"><ele>550.0</ele><time>2026-04-25T08:57:09.068Z</time></trkpt><trkpt lat="45.5215034" lon="13.9561336"><ele>550.0</ele><time>2026-04-25T08:57:10.071Z</time></trkpt><trkpt lat="45.5213493" lon="13.9562089"><ele>550.0</ele><time>2026-04-25T08:57:11.071Z</time></trkpt><trkpt lat="45.5212025" lon="13.9562783"><ele>549.0</ele><time>2026-04-25T08:57:12.063Z</time></trkpt><trkpt lat="45.521057" lon="13.956338"><ele>548.0</ele><time>2026-04-25T08:57:13.073Z</time></trkpt><trkpt lat="45.520908" lon="13.9563857"><ele>547.0</ele><time>2026-04-25T08:57:14.071Z</time></trkpt><trkpt lat="45.5207603" lon="13.9564234"><ele>547.0</ele><time>2026-04-25T08:57:15.068Z</time></trkpt><trkpt lat="45.5206085" lon="13.9564447"><ele>547.0</ele><time>2026-04-25T08:57:16.079Z</time></trkpt><trkpt lat="45.5204556" lon="13.9564465"><ele>547.0</ele><time>2026-04-25T08:57:17.064Z</time></trkpt><trkpt lat="45.5202998" lon="13.9564472"><ele>545.6666666666667</ele><time>2026-04-25T08:57:18.071Z</time></trkpt><trkpt lat="45.5201387" lon="13.9564657"><ele>544.3333333333334</ele><time>2026-04-25T08:57:19.068Z</time></trkpt><trkpt lat="45.5199626" lon="13.9565074"><ele>543.0</ele><time>2026-04-25T08:57:20.075Z</time></trkpt><trkpt lat="45.5197747" lon="13.9565639"><ele>543.0</ele><time>2026-04-25T08:57:21.066Z</time></trkpt><trkpt lat="45.5195725" lon="13.9566165"><ele>543.0</ele><time>2026-04-25T08:57:22.072Z</time></trkpt><trkpt lat="45.5193673" lon="13.9566705"><ele>543.0</ele><time>2026-04-25T08:57:23.07Z</time></trkpt><trkpt lat="45.5191706" lon="13.9567204"><ele>546.6666666666666</ele><time>2026-04-25T08:57:24.077Z</time></trkpt><trkpt lat="45.5189838" lon="13.9567867"><ele>550.3333333333333</ele><time>2026-04-25T08:57:25.076Z</time></trkpt><trkpt lat="45.518802" lon="13.9568619"><ele>554.0</ele><time>2026-04-25T08:57:26.09Z</time></trkpt><trkpt lat="45.5186241" lon="13.9569524"><ele>554.0</ele><time>2026-04-25T08:57:27.072Z</time></trkpt><trkpt lat="45.5184555" lon="13.9570517"><ele>554.0</ele><time>2026-04-25T08:57:28.081Z</time></trkpt><trkpt lat="45.5182966" lon="13.9571613"><ele>554.0</ele><time>2026-04-25T08:57:29.078Z</time></trkpt><trkpt lat="45.5181429" lon="13.9572787"><ele>554.0</ele><time>2026-04-25T08:57:30.086Z</time></trkpt><trkpt lat="45.5179924" lon="13.9573937"><ele>554.0</ele><time>2026-04-25T08:57:31.075Z</time></trkpt><trkpt lat="45.5178411" lon="13.9575113"><ele>554.0</ele><time>2026-04-25T08:57:32.082Z</time></trkpt><trkpt lat="45.5176906" lon="13.9576273"><ele>557.0</ele><time>2026-04-25T08:57:33.078Z</time></trkpt><trkpt lat="45.5175424" lon="13.9577379"><ele>560.0</ele><time>2026-04-25T08:57:34.079Z</time></trkpt><trkpt lat="45.5173956" lon="13.9578529"><ele>563.0</ele><time>2026-04-25T08:57:35.08Z</time></trkpt><trkpt lat="45.5172511" lon="13.9579665"><ele>563.0</ele><time>2026-04-25T08:57:36.075Z</time></trkpt><trkpt lat="45.5171139" lon="13.958089"><ele>563.0</ele><time>2026-04-25T08:57:37.087Z</time></trkpt><trkpt lat="45.5169843" lon="13.9582291"><ele>563.0</ele><time>2026-04-25T08:57:38.07Z</time></trkpt><trkpt lat="45.5168713" lon="13.9584024"><ele>564.0</ele><time>2026-04-25T08:57:39.085Z</time></trkpt><trkpt lat="45.5167728" lon="13.9585974"><ele>565.0</ele><time>2026-04-25T08:57:40.082Z</time></trkpt><trkpt lat="45.516686" lon="13.9588004"><ele>566.0</ele><time>2026-04-25T08:57:41.083Z</time></trkpt><trkpt lat="45.516594" lon="13.9589749"><ele>566.0</ele><time>2026-04-25T08:57:42.08Z</time></trkpt><trkpt lat="45.5164802" lon="13.9591053"><ele>566.0</ele><time>2026-04-25T08:57:43.074Z</time></trkpt><trkpt lat="45.5163473" lon="13.9592124"><ele>566.0</ele><time>2026-04-25T08:57:44.066Z</time></trkpt><trkpt lat="45.5161967" lon="13.9592902"><ele>572.0</ele><time>2026-04-25T08:57:45.075Z</time></trkpt><trkpt lat="45.5160342" lon="13.9593559"><ele>578.0</ele><time>2026-04-25T08:57:46.071Z</time></trkpt><trkpt lat="45.5158712" lon="13.9594044"><ele>584.0</ele><time>2026-04-25T08:57:47.069Z</time></trkpt><trkpt lat="45.5156994" lon="13.9594362"><ele>584.0</ele><time>2026-04-25T08:57:48.069Z</time></trkpt><trkpt lat="45.515527" lon="13.9594504"><ele>584.0</ele><time>2026-04-25T08:57:49.066Z</time></trkpt><trkpt lat="45.5153694" lon="13.9594718"><ele>584.0</ele><time>2026-04-25T08:57:50.072Z</time></trkpt><trkpt lat="45.5152203" lon="13.959512"><ele>580.0</ele><time>2026-04-25T08:57:51.066Z</time></trkpt><trkpt lat="45.5150755" lon="13.9595904"><ele>576.0</ele><time>2026-04-25T08:57:52.074Z</time></trkpt><trkpt lat="45.5149334" lon="13.9597041"><ele>572.0</ele><time>2026-04-25T08:57:53.077Z</time></trkpt><trkpt lat="45.5147998" lon="13.9598313"><ele>572.0</ele><time>2026-04-25T08:57:54.076Z</time></trkpt><trkpt lat="45.5146841" lon="13.9599611"><ele>572.0</ele><time>2026-04-25T08:57:55.079Z</time></trkpt><trkpt lat="45.5145969" lon="13.9601205"><ele>572.0</ele><time>2026-04-25T08:57:56.093Z</time></trkpt><trkpt lat="45.5145374" lon="13.960314"><ele>572.0</ele><time>2026-04-25T08:57:57.072Z</time></trkpt><trkpt lat="45.5145097" lon="13.9605173"><ele>571.75</ele><time>2026-04-25T08:57:58.07Z</time></trkpt><trkpt lat="45.5144744" lon="13.9606869"><ele>571.5</ele><time>2026-04-25T08:57:59.075Z</time></trkpt><trkpt lat="45.5144043" lon="13.960804"><ele>571.25</ele><time>2026-04-25T08:58:00.082Z</time></trkpt><trkpt lat="45.5143" lon="13.9609138"><ele>571.0</ele><time>2026-04-25T08:58:01.072Z</time></trkpt><trkpt lat="45.5141787" lon="13.9610244"><ele>577.3333333333334</ele><time>2026-04-25T08:58:02.072Z</time></trkpt><trkpt lat="45.5140544" lon="13.961135"><ele>583.6666666666666</ele><time>2026-04-25T08:58:03.082Z</time></trkpt><trkpt lat="45.5139232" lon="13.9612603"><ele>590.0</ele><time>2026-04-25T08:58:04.075Z</time></trkpt><trkpt lat="45.5137962" lon="13.9614004"><ele>593.6666666666666</ele><time>2026-04-25T08:58:05.073Z</time></trkpt><trkpt lat="45.5136772" lon="13.9615555"><ele>597.3333333333334</ele><time>2026-04-25T08:58:06.082Z</time></trkpt><trkpt lat="45.5135685" lon="13.9617211"><ele>601.0</ele><time>2026-04-25T08:58:07.071Z</time></trkpt><trkpt lat="45.5134544" lon="13.9618497"><ele>601.0</ele><time>2026-04-25T08:58:08.089Z</time></trkpt><trkpt lat="45.5133128" lon="13.961925"><ele>601.0</ele><time>2026-04-25T08:58:09.074Z</time></trkpt><trkpt lat="45.5131532" lon="13.9619664"><ele>601.0</ele><time>2026-04-25T08:58:10.065Z</time></trkpt><trkpt lat="45.512996" lon="13.9619835"><ele>597.0</ele><time>2026-04-25T08:58:11.066Z</time></trkpt><trkpt lat="45.5128536" lon="13.9620034"><ele>593.0</ele><time>2026-04-25T08:58:12.068Z</time></trkpt><trkpt lat="45.5127266" lon="13.9620429"><ele>589.0</ele><time>2026-04-25T08:58:13.069Z</time></trkpt><trkpt lat="45.5126127" lon="13.9621128"><ele>585.0</ele><time>2026-04-25T08:58:14.078Z</time></trkpt><trkpt lat="45.5125174" lon="13.962221"><ele>585.0</ele><time>2026-04-25T08:58:15.07Z</time></trkpt><trkpt lat="45.5124347" lon="13.9623742"><ele>585.0</ele><time>2026-04-25T08:58:16.085Z</time></trkpt><trkpt lat="45.5123778" lon="13.9625606"><ele>585.0</ele><time>2026-04-25T08:58:17.071Z</time></trkpt><trkpt lat="45.5123402" lon="13.9627666"><ele>585.0</ele><time>2026-04-25T08:58:18.075Z</time></trkpt><trkpt lat="45.5123126" lon="13.9629707"><ele>587.5</ele><time>2026-04-25T08:58:19.079Z</time></trkpt><trkpt lat="45.5122427" lon="13.9631452"><ele>590.0</ele><time>2026-04-25T08:58:20.08Z</time></trkpt><trkpt lat="45.5121601" lon="13.9633122"><ele>592.5</ele><time>2026-04-25T08:58:21.069Z</time></trkpt><trkpt lat="45.5120958" lon="13.963493"><ele>595.0</ele><time>2026-04-25T08:58:22.08Z</time></trkpt><trkpt lat="45.5120475" lon="13.963679"><ele>595.0</ele><time>2026-04-25T08:58:23.07Z</time></trkpt><trkpt lat="45.5119767" lon="13.9638481"><ele>595.0</ele><time>2026-04-25T08:58:24.077Z</time></trkpt><trkpt lat="45.5118694" lon="13.9639697"><ele>595.0</ele><time>2026-04-25T08:58:25.068Z</time></trkpt><trkpt lat="45.5117391" lon="13.964075"><ele>595.0</ele><time>2026-04-25T08:58:26.065Z</time></trkpt><trkpt lat="45.5116022" lon="13.9641858"><ele>595.3333333333334</ele><time>2026-04-25T08:58:27.078Z</time></trkpt><trkpt lat="45.5114648" lon="13.9643082"><ele>595.6666666666666</ele><time>2026-04-25T08:58:28.087Z</time></trkpt><trkpt lat="45.5113339" lon="13.9644635"><ele>596.0</ele><time>2026-04-25T08:58:29.08Z</time></trkpt><trkpt lat="45.5112112" lon="13.9646414"><ele>596.0</ele><time>2026-04-25T08:58:30.088Z</time></trkpt><trkpt lat="45.5110949" lon="13.964826"><ele>596.0</ele><time>2026-04-25T08:58:31.081Z</time></trkpt><trkpt lat="45.5109804" lon="13.9649924"><ele>596.0</ele><time>2026-04-25T08:58:32.08Z</time></trkpt><trkpt lat="45.5108667" lon="13.9651311"><ele>596.75</ele><time>2026-04-25T08:58:33.068Z</time></trkpt><trkpt lat="45.5107443" lon="13.9652379"><ele>597.5</ele><time>2026-04-25T08:58:34.079Z</time></trkpt><trkpt lat="45.5106088" lon="13.9652997"><ele>598.25</ele><time>2026-04-25T08:58:35.094Z</time></trkpt><trkpt lat="45.5104815" lon="13.9653373"><ele>599.0</ele><time>2026-04-25T08:58:36.076Z</time></trkpt><trkpt lat="45.5103849" lon="13.9654323"><ele>599.0</ele><time>2026-04-25T08:58:37.076Z</time></trkpt><trkpt lat="45.5103147" lon="13.9655713"><ele>599.0</ele><time>2026-04-25T08:58:38.074Z</time></trkpt><trkpt lat="45.5102703" lon="13.9657274"><ele>599.0</ele><time>2026-04-25T08:58:39.074Z</time></trkpt><trkpt lat="45.510229" lon="13.9658704"><ele>599.0</ele><time>2026-04-25T08:58:40.067Z</time></trkpt><trkpt lat="45.5101841" lon="13.9660039"><ele>602.2</ele><time>2026-04-25T08:58:41.073Z</time></trkpt><trkpt lat="45.5101286" lon="13.9661231"><ele>605.4</ele><time>2026-04-25T08:58:42.079Z</time></trkpt><trkpt lat="45.5100568" lon="13.9662179"><ele>608.6</ele><time>2026-04-25T08:58:43.074Z</time></trkpt><trkpt lat="45.5099661" lon="13.9662748"><ele>611.8</ele><time>2026-04-25T08:58:44.088Z</time></trkpt><trkpt lat="45.509853" lon="13.9662931"><ele>615.0</ele><time>2026-04-25T08:58:45.068Z</time></trkpt><trkpt lat="45.5097373" lon="13.9663116"><ele>615.0</ele><time>2026-04-25T08:58:46.067Z</time></trkpt><trkpt lat="45.5096505" lon="13.9663848"><ele>615.0</ele><time>2026-04-25T08:58:47.074Z</time></trkpt><trkpt lat="45.5095965" lon="13.966533"><ele>615.0</ele><time>2026-04-25T08:58:48.073Z</time></trkpt><trkpt lat="45.5095696" lon="13.9667072"><ele>615.0</ele><time>2026-04-25T08:58:49.068Z</time></trkpt><trkpt lat="45.509561" lon="13.9668853"><ele>614.0</ele><time>2026-04-25T08:58:50.077Z</time></trkpt><trkpt lat="45.5095592" lon="13.9670748"><ele>613.0</ele><time>2026-04-25T08:58:51.073Z</time></trkpt><trkpt lat="45.5095647" lon="13.9672833"><ele>612.0</ele><time>2026-04-25T08:58:52.082Z</time></trkpt><trkpt lat="45.5095677" lon="13.9674888"><ele>611.0</ele><time>2026-04-25T08:58:53.08Z</time></trkpt><trkpt lat="45.5095413" lon="13.9676766"><ele>611.0</ele><time>2026-04-25T08:58:54.08Z</time></trkpt><trkpt lat="45.5094738" lon="13.967837"><ele>611.0</ele><time>2026-04-25T08:58:55.071Z</time></trkpt><trkpt lat="45.509384" lon="13.9679898"><ele>611.0</ele><time>2026-04-25T08:58:56.076Z</time></trkpt><trkpt lat="45.5093114" lon="13.9681389"><ele>611.0</ele><time>2026-04-25T08:58:57.081Z</time></trkpt><trkpt lat="45.5092903" lon="13.9683129"><ele>613.0</ele><time>2026-04-25T08:58:58.082Z</time></trkpt><trkpt lat="45.5093104" lon="13.9685004"><ele>615.0</ele><time>2026-04-25T08:58:59.073Z</time></trkpt><trkpt lat="45.5093738" lon="13.9686837"><ele>617.0</ele><time>2026-04-25T08:59:00.073Z</time></trkpt><trkpt lat="45.5094557" lon="13.9688487"><ele>619.0</ele><time>2026-04-25T08:59:01.066Z</time></trkpt><trkpt lat="45.5095121" lon="13.9689909"><ele>619.0</ele><time>2026-04-25T08:59:02.075Z</time></trkpt><trkpt lat="45.5095176" lon="13.9691334"><ele>619.0</ele><time>2026-04-25T08:59:03.079Z</time></trkpt><trkpt lat="45.5094674" lon="13.9692732"><ele>619.0</ele><time>2026-04-25T08:59:04.078Z</time></trkpt><trkpt lat="45.509372" lon="13.9693819"><ele>619.0</ele><time>2026-04-25T08:59:05.067Z</time></trkpt><trkpt lat="45.5092534" lon="13.9694661"><ele>624.6666666666667</ele><time>2026-04-25T08:59:06.065Z</time></trkpt><trkpt lat="45.5091231" lon="13.9695553"><ele>630.3333333333334</ele><time>2026-04-25T08:59:07.066Z</time></trkpt><trkpt lat="45.5089822" lon="13.9696501"><ele>636.0</ele><time>2026-04-25T08:59:08.066Z</time></trkpt><trkpt lat="45.5088385" lon="13.9697485"><ele>634.25</ele><time>2026-04-25T08:59:09.073Z</time></trkpt><trkpt lat="45.5087045" lon="13.9698332"><ele>632.5</ele><time>2026-04-25T08:59:10.07Z</time></trkpt><trkpt lat="45.5085763" lon="13.9698947"><ele>630.75</ele><time>2026-04-25T08:59:11.078Z</time></trkpt><trkpt lat="45.5084424" lon="13.9698982"><ele>629.0</ele><time>2026-04-25T08:59:12.076Z</time></trkpt><trkpt lat="45.5083134" lon="13.9699023"><ele>629.0</ele><time>2026-04-25T08:59:13.066Z</time></trkpt><trkpt lat="45.5082111" lon="13.9699754"><ele>629.0</ele><time>2026-04-25T08:59:14.079Z</time></trkpt><trkpt lat="45.5081095" lon="13.9700944"><ele>629.0</ele><time>2026-04-25T08:59:15.072Z</time></trkpt><trkpt lat="45.5079998" lon="13.9702461"><ele>629.0</ele><time>2026-04-25T08:59:16.076Z</time></trkpt><trkpt lat="45.5078862" lon="13.9704052"><ele>628.6666666666666</ele><time>2026-04-25T08:59:17.07Z</time></trkpt><trkpt lat="45.5077736" lon="13.9705699"><ele>628.3333333333334</ele><time>2026-04-25T08:59:18.071Z</time></trkpt><trkpt lat="45.5076599" lon="13.9707332"><ele>628.0</ele><time>2026-04-25T08:59:19.074Z</time></trkpt><trkpt lat="45.5075464" lon="13.9709038"><ele>632.3333333333334</ele><time>2026-04-25T08:59:20.076Z</time></trkpt><trkpt lat="45.5074444" lon="13.9710798"><ele>636.6666666666666</ele><time>2026-04-25T08:59:21.075Z</time></trkpt><trkpt lat="45.507353" lon="13.9712735"><ele>641.0</ele><time>2026-04-25T08:59:22.082Z</time></trkpt><trkpt lat="45.5072729" lon="13.9714898"><ele>643.6666666666666</ele><time>2026-04-25T08:59:23.075Z</time></trkpt><trkpt lat="45.5071986" lon="13.9717247"><ele>646.3333333333334</ele><time>2026-04-25T08:59:24.078Z</time></trkpt><trkpt lat="45.5071219" lon="13.971963"><ele>649.0</ele><time>2026-04-25T08:59:25.077Z</time></trkpt><trkpt lat="45.5070453" lon="13.9721931"><ele>644.0</ele><time>2026-04-25T08:59:26.071Z</time></trkpt><trkpt lat="45.5069847" lon="13.9724253"><ele>639.0</ele><time>2026-04-25T08:59:27.08Z</time></trkpt><trkpt lat="45.5069324" lon="13.9726639"><ele>634.0</ele><time>2026-04-25T08:59:28.078Z</time></trkpt><trkpt lat="45.5068942" lon="13.9729114"><ele>634.0</ele><time>2026-04-25T08:59:29.078Z</time></trkpt><trkpt lat="45.5068593" lon="13.9731579"><ele>634.0</ele><time>2026-04-25T08:59:30.08Z</time></trkpt><trkpt lat="45.5068251" lon="13.973393"><ele>634.0</ele><time>2026-04-25T08:59:31.072Z</time></trkpt><trkpt lat="45.5067939" lon="13.9736127"><ele>635.5</ele><time>2026-04-25T08:59:32.077Z</time></trkpt><trkpt lat="45.5067648" lon="13.9738114"><ele>637.0</ele><time>2026-04-25T08:59:33.076Z</time></trkpt><trkpt lat="45.5067398" lon="13.9740027"><ele>638.5</ele><time>2026-04-25T08:59:34.077Z</time></trkpt><trkpt lat="45.5067086" lon="13.974191"><ele>640.0</ele><time>2026-04-25T08:59:35.076Z</time></trkpt><trkpt lat="45.5066639" lon="13.9743819"><ele>644.0</ele><time>2026-04-25T08:59:36.081Z</time></trkpt><trkpt lat="45.5065859" lon="13.9745644"><ele>648.0</ele><time>2026-04-25T08:59:37.083Z</time></trkpt><trkpt lat="45.5064886" lon="13.9747281"><ele>652.0</ele><time>2026-04-25T08:59:38.074Z</time></trkpt><trkpt lat="45.5063841" lon="13.9748931"><ele>655.0</ele><time>2026-04-25T08:59:39.089Z</time></trkpt><trkpt lat="45.5062949" lon="13.9750777"><ele>658.0</ele><time>2026-04-25T08:59:40.076Z</time></trkpt><trkpt lat="45.5062232" lon="13.9752769"><ele>661.0</ele><time>2026-04-25T08:59:41.08Z</time></trkpt><trkpt lat="45.5061654" lon="13.9754829"><ele>653.6666666666667</ele><time>2026-04-25T08:59:42.081Z</time></trkpt><trkpt lat="45.5061121" lon="13.9756896"><ele>646.3333333333334</ele><time>2026-04-25T08:59:43.077Z</time></trkpt><trkpt lat="45.5060771" lon="13.975912"><ele>639.0</ele><time>2026-04-25T08:59:44.075Z</time></trkpt><trkpt lat="45.5060616" lon="13.9761479"><ele>639.0</ele><time>2026-04-25T08:59:45.068Z</time></trkpt><trkpt lat="45.5060447" lon="13.9763883"><ele>639.0</ele><time>2026-04-25T08:59:46.07Z</time></trkpt><trkpt lat="45.5060367" lon="13.97663"><ele>639.0</ele><time>2026-04-25T08:59:47.077Z</time></trkpt><trkpt lat="45.5060241" lon="13.9768655"><ele>641.5</ele><time>2026-04-25T08:59:48.068Z</time></trkpt><trkpt lat="45.5060104" lon="13.9770834"><ele>644.0</ele><time>2026-04-25T08:59:49.074Z</time></trkpt><trkpt lat="45.5059817" lon="13.9772903"><ele>646.5</ele><time>2026-04-25T08:59:50.073Z</time></trkpt><trkpt lat="45.5059297" lon="13.9774825"><ele>649.0</ele><time>2026-04-25T08:59:51.073Z</time></trkpt><trkpt lat="45.5058527" lon="13.9776602"><ele>654.3333333333334</ele><time>2026-04-25T08:59:52.079Z</time></trkpt><trkpt lat="45.5057585" lon="13.9778356"><ele>659.6666666666666</ele><time>2026-04-25T08:59:53.079Z</time></trkpt><trkpt lat="45.5056558" lon="13.9780051"><ele>665.0</ele><time>2026-04-25T08:59:54.08Z</time></trkpt><trkpt lat="45.5055555" lon="13.9781817"><ele>669.3333333333333</ele><time>2026-04-25T08:59:55.084Z</time></trkpt><trkpt lat="45.5054626" lon="13.9783637"><ele>673.6666666666666</ele><time>2026-04-25T08:59:56.085Z</time></trkpt><trkpt lat="45.5053887" lon="13.9785661"><ele>678.0</ele><time>2026-04-25T08:59:57.08Z</time></trkpt><trkpt lat="45.5053309" lon="13.9787956"><ele>670.3333333333334</ele><time>2026-04-25T08:59:58.081Z</time></trkpt><trkpt lat="45.5052938" lon="13.9790316"><ele>662.6666666666667</ele><time>2026-04-25T08:59:59.075Z</time></trkpt><trkpt lat="45.5052588" lon="13.9792674"><ele>655.0</ele><time>2026-04-25T09:00:00.078Z</time></trkpt><trkpt lat="45.5052261" lon="13.9794903"><ele>655.0</ele><time>2026-04-25T09:00:01.088Z</time></trkpt><trkpt lat="45.5051755" lon="13.9796996"><ele>655.0</ele><time>2026-04-25T09:00:02.075Z</time></trkpt><trkpt lat="45.5051028" lon="13.9798917"><ele>655.0</ele><time>2026-04-25T09:00:03.074Z</time></trkpt><trkpt lat="45.5050016" lon="13.9800434"><ele>659.6666666666667</ele><time>2026-04-25T09:00:04.077Z</time></trkpt><trkpt lat="45.5048902" lon="13.9801957"><ele>664.3333333333334</ele><time>2026-04-25T09:00:05.072Z</time></trkpt><trkpt lat="45.5047918" lon="13.9803659"><ele>669.0</ele><time>2026-04-25T09:00:06.078Z</time></trkpt><trkpt lat="45.5047171" lon="13.9805687"><ele>669.0</ele><time>2026-04-25T09:00:07.083Z</time></trkpt><trkpt lat="45.5046467" lon="13.9807839"><ele>669.0</ele><time>2026-04-25T09:00:08.076Z</time></trkpt><trkpt lat="45.5045695" lon="13.9810066"><ele>669.0</ele><time>2026-04-25T09:00:09.08Z</time></trkpt><trkpt lat="45.5045034" lon="13.9812493"><ele>662.3333333333334</ele><time>2026-04-25T09:00:10.086Z</time></trkpt><trkpt lat="45.5044482" lon="13.9814996"><ele>655.6666666666667</ele><time>2026-04-25T09:00:11.08Z</time></trkpt><trkpt lat="45.5044052" lon="13.9817554"><ele>649.0</ele><time>2026-04-25T09:00:12.089Z</time></trkpt><trkpt lat="45.5043661" lon="13.9820132"><ele>649.0</ele><time>2026-04-25T09:00:13.075Z</time></trkpt><trkpt lat="45.5043368" lon="13.982265"><ele>649.0</ele><time>2026-04-25T09:00:14.071Z</time></trkpt><trkpt lat="45.5043112" lon="13.9824959"><ele>649.0</ele><time>2026-04-25T09:00:15.074Z</time></trkpt><trkpt lat="45.5042815" lon="13.9827193"><ele>649.5</ele><time>2026-04-25T09:00:16.082Z</time></trkpt><trkpt lat="45.5042542" lon="13.9829339"><ele>650.0</ele><time>2026-04-25T09:00:17.082Z</time></trkpt><trkpt lat="45.5042292" lon="13.9831372"><ele>650.5</ele><time>2026-04-25T09:00:18.09Z</time></trkpt><trkpt lat="45.5042067" lon="13.9833511"><ele>651.0</ele><time>2026-04-25T09:00:19.078Z</time></trkpt><trkpt lat="45.5041834" lon="13.9835778"><ele>652.0</ele><time>2026-04-25T09:00:20.081Z</time></trkpt><trkpt lat="45.5041589" lon="13.9838063"><ele>653.0</ele><time>2026-04-25T09:00:21.084Z</time></trkpt><trkpt lat="45.5041194" lon="13.9840436"><ele>654.0</ele><time>2026-04-25T09:00:22.092Z</time></trkpt><trkpt lat="45.50407" lon="13.9842814"><ele>654.3333333333334</ele><time>2026-04-25T09:00:23.086Z</time></trkpt><trkpt lat="45.5040207" lon="13.9845188"><ele>654.6666666666667</ele><time>2026-04-25T09:00:24.083Z</time></trkpt><trkpt lat="45.5039728" lon="13.9847494"><ele>655.0</ele><time>2026-04-25T09:00:25.082Z</time></trkpt><trkpt lat="45.5039336" lon="13.9849768"><ele>656.3333333333334</ele><time>2026-04-25T09:00:26.079Z</time></trkpt><trkpt lat="45.5038939" lon="13.9851956"><ele>657.6666666666666</ele><time>2026-04-25T09:00:27.087Z</time></trkpt><trkpt lat="45.5038572" lon="13.9854079"><ele>659.0</ele><time>2026-04-25T09:00:28.086Z</time></trkpt><trkpt lat="45.5038196" lon="13.9856053"><ele>659.0</ele><time>2026-04-25T09:00:29.078Z</time></trkpt><trkpt lat="45.5037816" lon="13.9858094"><ele>659.0</ele><time>2026-04-25T09:00:30.083Z</time></trkpt><trkpt lat="45.5037453" lon="13.9860284"><ele>659.0</ele><time>2026-04-25T09:00:31.083Z</time></trkpt><trkpt lat="45.5037051" lon="13.98624"><ele>650.6666666666666</ele><time>2026-04-25T09:00:32.086Z</time></trkpt><trkpt lat="45.5036741" lon="13.9864488"><ele>642.3333333333334</ele><time>2026-04-25T09:00:33.084Z</time></trkpt><trkpt lat="45.5036583" lon="13.9866672"><ele>634.0</ele><time>2026-04-25T09:00:34.081Z</time></trkpt><trkpt lat="45.5036628" lon="13.9868872"><ele>633.25</ele><time>2026-04-25T09:00:35.078Z</time></trkpt><trkpt lat="45.5036911" lon="13.9871058"><ele>632.5</ele><time>2026-04-25T09:00:36.09Z</time></trkpt><trkpt lat="45.5037171" lon="13.9873084"><ele>631.75</ele><time>2026-04-25T09:00:37.084Z</time></trkpt><trkpt lat="45.5037085" lon="13.9874964"><ele>631.0</ele><time>2026-04-25T09:00:38.083Z</time></trkpt><trkpt lat="45.5036472" lon="13.9876597"><ele>632.5</ele><time>2026-04-25T09:00:39.075Z</time></trkpt><trkpt lat="45.5035475" lon="13.9878135"><ele>634.0</ele><time>2026-04-25T09:00:40.076Z</time></trkpt><trkpt lat="45.5034483" lon="13.9879736"><ele>635.5</ele><time>2026-04-25T09:00:41.086Z</time></trkpt><trkpt lat="45.5033867" lon="13.9881606"><ele>637.0</ele><time>2026-04-25T09:00:42.088Z</time></trkpt><trkpt lat="45.5033522" lon="13.9883794"><ele>637.0</ele><time>2026-04-25T09:00:43.08Z</time></trkpt><trkpt lat="45.5033329" lon="13.9886065"><ele>637.0</ele><time>2026-04-25T09:00:44.086Z</time></trkpt><trkpt lat="45.5033267" lon="13.9888356"><ele>637.0</ele><time>2026-04-25T09:00:45.082Z</time></trkpt><trkpt lat="45.5033355" lon="13.9890834"><ele>635.6666666666667</ele><time>2026-04-25T09:00:46.084Z</time></trkpt><trkpt lat="45.5033564" lon="13.9893277"><ele>634.3333333333334</ele><time>2026-04-25T09:00:47.086Z</time></trkpt><trkpt lat="45.503376" lon="13.9895594"><ele>633.0</ele><time>2026-04-25T09:00:48.087Z</time></trkpt><trkpt lat="45.5033729" lon="13.9897947"><ele>634.3333333333334</ele><time>2026-04-25T09:00:49.086Z</time></trkpt><trkpt lat="45.5033518" lon="13.9900396"><ele>635.6666666666667</ele><time>2026-04-25T09:00:50.078Z</time></trkpt><trkpt lat="45.5033166" lon="13.9902754"><ele>637.0</ele><time>2026-04-25T09:00:51.089Z</time></trkpt><trkpt lat="45.5032788" lon="13.9905049"><ele>637.0</ele><time>2026-04-25T09:00:52.085Z</time></trkpt><trkpt lat="45.5032429" lon="13.9907399"><ele>637.0</ele><time>2026-04-25T09:00:53.076Z</time></trkpt><trkpt lat="45.5031987" lon="13.9909723"><ele>637.0</ele><time>2026-04-25T09:00:54.09Z</time></trkpt><trkpt lat="45.5031476" lon="13.9911976"><ele>636.3333333333334</ele><time>2026-04-25T09:00:55.082Z</time></trkpt><trkpt lat="45.5030699" lon="13.9914119"><ele>635.6666666666666</ele><time>2026-04-25T09:00:56.084Z</time></trkpt><trkpt lat="45.5029869" lon="13.9916207"><ele>635.0</ele><time>2026-04-25T09:00:57.082Z</time></trkpt><trkpt lat="45.5029038" lon="13.9918259"><ele>635.0</ele><time>2026-04-25T09:00:58.08Z</time></trkpt><trkpt lat="45.5028216" lon="13.9920158"><ele>635.0</ele><time>2026-04-25T09:00:59.081Z</time></trkpt><trkpt lat="45.5027424" lon="13.9921943"><ele>635.0</ele><time>2026-04-25T09:01:00.076Z</time></trkpt><trkpt lat="45.5026612" lon="13.9923583"><ele>635.0</ele><time>2026-04-25T09:01:01.079Z</time></trkpt><trkpt lat="45.5025728" lon="13.992518"><ele>636.5</ele><time>2026-04-25T09:01:02.083Z</time></trkpt><trkpt lat="45.5024764" lon="13.9926717"><ele>638.0</ele><time>2026-04-25T09:01:03.077Z</time></trkpt><trkpt lat="45.5023695" lon="13.9928183"><ele>639.5</ele><time>2026-04-25T09:01:04.089Z</time></trkpt><trkpt lat="45.5022517" lon="13.9929636"><ele>641.0</ele><time>2026-04-25T09:01:05.08Z</time></trkpt><trkpt lat="45.5021307" lon="13.9931124"><ele>639.3333333333333</ele><time>2026-04-25T09:01:06.078Z</time></trkpt><trkpt lat="45.502009" lon="13.9932673"><ele>637.6666666666666</ele><time>2026-04-25T09:01:07.084Z</time></trkpt><trkpt lat="45.501885" lon="13.9934164"><ele>636.0</ele><time>2026-04-25T09:01:08.078Z</time></trkpt><trkpt lat="45.501759" lon="13.9935475"><ele>639.3333333333334</ele><time>2026-04-25T09:01:09.081Z</time></trkpt><trkpt lat="45.5016232" lon="13.993663"><ele>642.6666666666667</ele><time>2026-04-25T09:01:10.075Z</time></trkpt><trkpt lat="45.5014974" lon="13.9938019"><ele>646.0</ele><time>2026-04-25T09:01:11.078Z</time></trkpt><trkpt lat="45.5013852" lon="13.9939718"><ele>646.0</ele><time>2026-04-25T09:01:12.082Z</time></trkpt><trkpt lat="45.5012838" lon="13.9941571"><ele>646.0</ele><time>2026-04-25T09:01:13.089Z</time></trkpt><trkpt lat="45.5011848" lon="13.9943432"><ele>646.0</ele><time>2026-04-25T09:01:14.087Z</time></trkpt><trkpt lat="45.501088" lon="13.9945149"><ele>647.3333333333334</ele><time>2026-04-25T09:01:15.082Z</time></trkpt><trkpt lat="45.5009866" lon="13.994681"><ele>648.6666666666666</ele><time>2026-04-25T09:01:16.086Z</time></trkpt><trkpt lat="45.5008745" lon="13.9948317"><ele>650.0</ele><time>2026-04-25T09:01:17.08Z</time></trkpt><trkpt lat="45.5007476" lon="13.9949605"><ele>652.3333333333333</ele><time>2026-04-25T09:01:18.085Z</time></trkpt><trkpt lat="45.5006064" lon="13.9950691"><ele>654.6666666666666</ele><time>2026-04-25T09:01:19.08Z</time></trkpt><trkpt lat="45.5004561" lon="13.9951786"><ele>657.0</ele><time>2026-04-25T09:01:20.083Z</time></trkpt><trkpt lat="45.5003045" lon="13.9952959"><ele>657.0</ele><time>2026-04-25T09:01:21.092Z</time></trkpt><trkpt lat="45.5001598" lon="13.9954128"><ele>657.0</ele><time>2026-04-25T09:01:22.086Z</time></trkpt><trkpt lat="45.5000222" lon="13.995527"><ele>657.0</ele><time>2026-04-25T09:01:23.08Z</time></trkpt><trkpt lat="45.4998851" lon="13.9956428"><ele>657.0</ele><time>2026-04-25T09:01:24.079Z</time></trkpt><trkpt lat="45.4997523" lon="13.9957699"><ele>657.0</ele><time>2026-04-25T09:01:25.085Z</time></trkpt><trkpt lat="45.4996237" lon="13.9959146"><ele>657.0</ele><time>2026-04-25T09:01:26.086Z</time></trkpt><trkpt lat="45.4994997" lon="13.9960786"><ele>656.0</ele><time>2026-04-25T09:01:27.083Z</time></trkpt><trkpt lat="45.4993843" lon="13.9962573"><ele>655.0</ele><time>2026-04-25T09:01:28.075Z</time></trkpt><trkpt lat="45.4992736" lon="13.9964383"><ele>654.0</ele><time>2026-04-25T09:01:29.074Z</time></trkpt><trkpt lat="45.4991647" lon="13.9966135"><ele>657.0</ele><time>2026-04-25T09:01:30.073Z</time></trkpt><trkpt lat="45.4990628" lon="13.996785"><ele>660.0</ele><time>2026-04-25T09:01:31.075Z</time></trkpt><trkpt lat="45.4989618" lon="13.9969576"><ele>663.0</ele><time>2026-04-25T09:01:32.081Z</time></trkpt><trkpt lat="45.4988575" lon="13.9971336"><ele>663.0</ele><time>2026-04-25T09:01:33.076Z</time></trkpt><trkpt lat="45.498752" lon="13.9973087"><ele>663.0</ele><time>2026-04-25T09:01:34.089Z</time></trkpt><trkpt lat="45.4986462" lon="13.9974763"><ele>663.0</ele><time>2026-04-25T09:01:35.071Z</time></trkpt><trkpt lat="45.4985479" lon="13.9976376"><ele>662.25</ele><time>2026-04-25T09:01:36.081Z</time></trkpt><trkpt lat="45.4984557" lon="13.9977856"><ele>661.5</ele><time>2026-04-25T09:01:37.075Z</time></trkpt><trkpt lat="45.4983664" lon="13.9979189"><ele>660.75</ele><time>2026-04-25T09:01:38.079Z</time></trkpt><trkpt lat="45.4982633" lon="13.998015"><ele>660.0</ele><time>2026-04-25T09:01:39.078Z</time></trkpt><trkpt lat="45.498136" lon="13.9980643"><ele>660.0</ele><time>2026-04-25T09:01:40.074Z</time></trkpt><trkpt lat="45.4980035" lon="13.9980834"><ele>660.0</ele><time>2026-04-25T09:01:41.073Z</time></trkpt><trkpt lat="45.497872" lon="13.998069"><ele>660.0</ele><time>2026-04-25T09:01:42.079Z</time></trkpt><trkpt lat="45.4977372" lon="13.9980644"><ele>660.0</ele><time>2026-04-25T09:01:43.115Z</time></trkpt><trkpt lat="45.4976172" lon="13.9981103"><ele>660.75</ele><time>2026-04-25T09:01:44.094Z</time></trkpt><trkpt lat="45.4975109" lon="13.998218"><ele>661.5</ele><time>2026-04-25T09:01:45.079Z</time></trkpt><trkpt lat="45.497423" lon="13.9983668"><ele>662.25</ele><time>2026-04-25T09:01:46.08Z</time></trkpt><trkpt lat="45.497357" lon="13.998549"><ele>663.0</ele><time>2026-04-25T09:01:47.084Z</time></trkpt><trkpt lat="45.4973023" lon="13.9987469"><ele>663.0</ele><time>2026-04-25T09:01:48.091Z</time></trkpt><trkpt lat="45.4972493" lon="13.9989424"><ele>663.0</ele><time>2026-04-25T09:01:49.085Z</time></trkpt><trkpt lat="45.497191" lon="13.999132"><ele>663.0</ele><time>2026-04-25T09:01:50.094Z</time></trkpt><trkpt lat="45.4971323" lon="13.9993201"><ele>663.0</ele><time>2026-04-25T09:01:51.082Z</time></trkpt><trkpt lat="45.4970686" lon="13.9995005"><ele>661.5</ele><time>2026-04-25T09:01:52.09Z</time></trkpt><trkpt lat="45.4969909" lon="13.9996597"><ele>660.0</ele><time>2026-04-25T09:01:53.075Z</time></trkpt><trkpt lat="45.496897" lon="13.9998066"><ele>658.5</ele><time>2026-04-25T09:01:54.074Z</time></trkpt><trkpt lat="45.4968019" lon="13.9999509"><ele>657.0</ele><time>2026-04-25T09:01:55.075Z</time></trkpt><trkpt lat="45.4967145" lon="14.0000928"><ele>657.0</ele><time>2026-04-25T09:01:56.072Z</time></trkpt><trkpt lat="45.4966462" lon="14.0002555"><ele>657.0</ele><time>2026-04-25T09:01:57.074Z</time></trkpt><trkpt lat="45.4966147" lon="14.0004493"><ele>657.0</ele><time>2026-04-25T09:01:58.08Z</time></trkpt><trkpt lat="45.4965988" lon="14.000659"><ele>657.0</ele><time>2026-04-25T09:01:59.066Z</time></trkpt><trkpt lat="45.496585" lon="14.0008849"><ele>658.6666666666666</ele><time>2026-04-25T09:02:00.074Z</time></trkpt><trkpt lat="45.4965795" lon="14.0011079"><ele>660.3333333333333</ele><time>2026-04-25T09:02:01.092Z</time></trkpt><trkpt lat="45.4965882" lon="14.0013387"><ele>662.0</ele><time>2026-04-25T09:02:02.084Z</time></trkpt><trkpt lat="45.4966005" lon="14.0015771"><ele>662.6666666666666</ele><time>2026-04-25T09:02:03.092Z</time></trkpt><trkpt lat="45.4966142" lon="14.0018059"><ele>663.3333333333334</ele><time>2026-04-25T09:02:04.081Z</time></trkpt><trkpt lat="45.4966315" lon="14.0020237"><ele>664.0</ele><time>2026-04-25T09:02:05.075Z</time></trkpt><trkpt lat="45.4966584" lon="14.0022142"><ele>664.0</ele><time>2026-04-25T09:02:06.074Z</time></trkpt><trkpt lat="45.4966967" lon="14.0023908"><ele>664.0</ele><time>2026-04-25T09:02:07.085Z</time></trkpt><trkpt lat="45.4967313" lon="14.0025558"><ele>664.0</ele><time>2026-04-25T09:02:08.079Z</time></trkpt><trkpt lat="45.496754" lon="14.0027115"><ele>664.0</ele><time>2026-04-25T09:02:09.091Z</time></trkpt><trkpt lat="45.4967562" lon="14.0028594"><ele>664.3333333333334</ele><time>2026-04-25T09:02:10.076Z</time></trkpt><trkpt lat="45.4967439" lon="14.0029948"><ele>664.6666666666667</ele><time>2026-04-25T09:02:11.066Z</time></trkpt><trkpt lat="45.4967356" lon="14.0031039"><ele>665.0</ele><time>2026-04-25T09:02:12.082Z</time></trkpt><trkpt lat="45.4966912" lon="14.003249"><ele>665.3333333333334</ele><time>2026-04-25T09:02:14.078Z</time></trkpt><trkpt lat="45.4966421" lon="14.0033146"><ele>665.6666666666666</ele><time>2026-04-25T09:02:15.07Z</time></trkpt><trkpt lat="45.4966134" lon="14.0034175"><ele>666.0</ele><time>2026-04-25T09:02:16.089Z</time></trkpt><trkpt lat="45.4966035" lon="14.0035468"><ele>666.1999999999999</ele><time>2026-04-25T09:02:17.08Z</time></trkpt><trkpt lat="45.4965908" lon="14.0036899"><ele>666.4</ele><time>2026-04-25T09:02:18.095Z</time></trkpt><trkpt lat="45.4965603" lon="14.0038311"><ele>666.6</ele><time>2026-04-25T09:02:19.084Z</time></trkpt><trkpt lat="45.4965145" lon="14.0039687"><ele>666.8</ele><time>2026-04-25T09:02:20.085Z</time></trkpt><trkpt lat="45.496457" lon="14.004091"><ele>667.0</ele><time>2026-04-25T09:02:21.088Z</time></trkpt><trkpt lat="45.4963874" lon="14.0042092"><ele>667.2</ele><time>2026-04-25T09:02:22.096Z</time></trkpt><trkpt lat="45.4963242" lon="14.0043341"><ele>667.4000000000001</ele><time>2026-04-25T09:02:23.092Z</time></trkpt><trkpt lat="45.4962784" lon="14.0044715"><ele>667.5999999999999</ele><time>2026-04-25T09:02:24.094Z</time></trkpt><trkpt lat="45.4962411" lon="14.0046131"><ele>667.8</ele><time>2026-04-25T09:02:25.082Z</time></trkpt><trkpt lat="45.4961959" lon="14.0047555"><ele>668.0</ele><time>2026-04-25T09:02:26.088Z</time></trkpt><trkpt lat="45.4961383" lon="14.0048725"><ele>668.2</ele><time>2026-04-25T09:02:27.082Z</time></trkpt><trkpt lat="45.4960604" lon="14.0049776"><ele>668.4</ele><time>2026-04-25T09:02:28.087Z</time></trkpt><trkpt lat="45.4959692" lon="14.0050678"><ele>668.6</ele><time>2026-04-25T09:02:29.076Z</time></trkpt><trkpt lat="45.4958764" lon="14.0051346"><ele>668.8000000000001</ele><time>2026-04-25T09:02:30.085Z</time></trkpt><trkpt lat="45.4957918" lon="14.0052041"><ele>669.0</ele><time>2026-04-25T09:02:31.087Z</time></trkpt><trkpt lat="45.4957282" lon="14.0053166"><ele>668.0</ele><time>2026-04-25T09:02:32.083Z</time></trkpt><trkpt lat="45.4956635" lon="14.005448"><ele>667.0</ele><time>2026-04-25T09:02:33.077Z</time></trkpt><trkpt lat="45.4955835" lon="14.0055694"><ele>666.0</ele><time>2026-04-25T09:02:34.083Z</time></trkpt><trkpt lat="45.4955092" lon="14.0056657"><ele>665.0</ele><time>2026-04-25T09:02:35.083Z</time></trkpt><trkpt lat="45.4954334" lon="14.0057518"><ele>664.0</ele><time>2026-04-25T09:02:36.083Z</time></trkpt><trkpt lat="45.4953526" lon="14.0058271"><ele>662.4000000000001</ele><time>2026-04-25T09:02:37.081Z</time></trkpt><trkpt lat="45.4952755" lon="14.0059004"><ele>660.8</ele><time>2026-04-25T09:02:38.082Z</time></trkpt><trkpt lat="45.4952091" lon="14.0059788"><ele>659.2</ele><time>2026-04-25T09:02:39.108Z</time></trkpt><trkpt lat="45.4951699" lon="14.0060816"><ele>657.5999999999999</ele><time>2026-04-25T09:02:40.094Z</time></trkpt><trkpt lat="45.4951511" lon="14.0062112"><ele>656.0</ele><time>2026-04-25T09:02:41.083Z</time></trkpt><trkpt lat="45.495139" lon="14.0063574"><ele>656.0</ele><time>2026-04-25T09:02:42.076Z</time></trkpt><trkpt lat="45.4951263" lon="14.0065155"><ele>656.0</ele><time>2026-04-25T09:02:43.088Z</time></trkpt><trkpt lat="45.4950987" lon="14.006677"><ele>656.0</ele><time>2026-04-25T09:02:44.088Z</time></trkpt><trkpt lat="45.4950552" lon="14.0068415"><ele>656.0</ele><time>2026-04-25T09:02:45.085Z</time></trkpt><trkpt lat="45.4950034" lon="14.0070103"><ele>655.0</ele><time>2026-04-25T09:02:46.086Z</time></trkpt><trkpt lat="45.4949515" lon="14.0071876"><ele>654.0</ele><time>2026-04-25T09:02:47.094Z</time></trkpt><trkpt lat="45.4949022" lon="14.0073683"><ele>653.0</ele><time>2026-04-25T09:02:48.088Z</time></trkpt><trkpt lat="45.494849" lon="14.0075463"><ele>652.0</ele><time>2026-04-25T09:02:49.085Z</time></trkpt><trkpt lat="45.4947923" lon="14.0077258"><ele>651.0</ele><time>2026-04-25T09:02:50.082Z</time></trkpt><trkpt lat="45.4947328" lon="14.0079002"><ele>650.0</ele><time>2026-04-25T09:02:51.082Z</time></trkpt><trkpt lat="45.4946707" lon="14.0080698"><ele>649.0</ele><time>2026-04-25T09:02:52.085Z</time></trkpt><trkpt lat="45.4946092" lon="14.0082367"><ele>648.0</ele><time>2026-04-25T09:02:53.089Z</time></trkpt><trkpt lat="45.4945448" lon="14.0084143"><ele>647.25</ele><time>2026-04-25T09:02:54.086Z</time></trkpt><trkpt lat="45.4944755" lon="14.0085917"><ele>646.5</ele><time>2026-04-25T09:02:55.083Z</time></trkpt><trkpt lat="45.4944102" lon="14.00877"><ele>645.75</ele><time>2026-04-25T09:02:56.089Z</time></trkpt><trkpt lat="45.4943377" lon="14.0089427"><ele>645.0</ele><time>2026-04-25T09:02:57.092Z</time></trkpt><trkpt lat="45.4942586" lon="14.00911"><ele>645.0</ele><time>2026-04-25T09:02:58.094Z</time></trkpt><trkpt lat="45.4941775" lon="14.0092675"><ele>645.0</ele><time>2026-04-25T09:02:59.081Z</time></trkpt><trkpt lat="45.4940994" lon="14.0094343"><ele>645.0</ele><time>2026-04-25T09:03:00.085Z</time></trkpt><trkpt lat="45.4940326" lon="14.0096041"><ele>645.0</ele><time>2026-04-25T09:03:01.086Z</time></trkpt><trkpt lat="45.4939778" lon="14.0097491"><ele>645.0</ele><time>2026-04-25T09:03:02.088Z</time></trkpt><trkpt lat="45.493931" lon="14.0098527"><ele>645.0</ele><time>2026-04-25T09:03:03.083Z</time></trkpt><trkpt lat="45.4938225" lon="14.009912"><ele>645.0</ele><time>2026-04-25T09:03:05.074Z</time></trkpt><trkpt lat="45.4937363" lon="14.009906"><ele>645.0</ele><time>2026-04-25T09:03:06.084Z</time></trkpt><trkpt lat="45.4936496" lon="14.009857"><ele>645.0</ele><time>2026-04-25T09:03:07.082Z</time></trkpt><trkpt lat="45.4935581" lon="14.0097837"><ele>645.25</ele><time>2026-04-25T09:03:08.092Z</time></trkpt><trkpt lat="45.4934579" lon="14.0097046"><ele>645.5</ele><time>2026-04-25T09:03:09.081Z</time></trkpt><trkpt lat="45.4933478" lon="14.0096462"><ele>645.75</ele><time>2026-04-25T09:03:10.101Z</time></trkpt><trkpt lat="45.4932408" lon="14.0096204"><ele>646.0</ele><time>2026-04-25T09:03:11.095Z</time></trkpt><trkpt lat="45.493131" lon="14.0096211"><ele>646.0</ele><time>2026-04-25T09:03:12.092Z</time></trkpt><trkpt lat="45.4930226" lon="14.0096542"><ele>646.0</ele><time>2026-04-25T09:03:13.087Z</time></trkpt><trkpt lat="45.492932" lon="14.0097011"><ele>646.0</ele><time>2026-04-25T09:03:14.09Z</time></trkpt><trkpt lat="45.4928505" lon="14.009748"><ele>646.0</ele><time>2026-04-25T09:03:15.087Z</time></trkpt><trkpt lat="45.4927994" lon="14.0098061"><ele>646.0</ele><time>2026-04-25T09:03:16.09Z</time></trkpt><trkpt lat="45.4927866" lon="14.0099621"><ele>645.8333333333334</ele><time>2026-04-25T09:03:18.093Z</time></trkpt><trkpt lat="45.4928156" lon="14.0100594"><ele>645.6666666666667</ele><time>2026-04-25T09:03:19.078Z</time></trkpt><trkpt lat="45.4928546" lon="14.0101735"><ele>645.5</ele><time>2026-04-25T09:03:20.08Z</time></trkpt><trkpt lat="45.4928689" lon="14.0102782"><ele>645.3333333333334</ele><time>2026-04-25T09:03:21.097Z</time></trkpt><trkpt lat="45.4928541" lon="14.0103866"><ele>645.1666666666666</ele><time>2026-04-25T09:03:22.083Z</time></trkpt><trkpt lat="45.4928104" lon="14.0104865"><ele>645.0</ele><time>2026-04-25T09:03:23.086Z</time></trkpt><trkpt lat="45.4927595" lon="14.0105996"><ele>645.0</ele><time>2026-04-25T09:03:24.101Z</time></trkpt><trkpt lat="45.4927068" lon="14.0107265"><ele>645.0</ele><time>2026-04-25T09:03:25.089Z</time></trkpt><trkpt lat="45.492666" lon="14.0108712"><ele>645.0</ele><time>2026-04-25T09:03:26.089Z</time></trkpt><trkpt lat="45.492648" lon="14.011047"><ele>645.0</ele><time>2026-04-25T09:03:27.085Z</time></trkpt><trkpt lat="45.4926412" lon="14.0112221"><ele>644.8333333333334</ele><time>2026-04-25T09:03:28.083Z</time></trkpt><trkpt lat="45.4926429" lon="14.0113531"><ele>644.6666666666666</ele><time>2026-04-25T09:03:29.091Z</time></trkpt><trkpt lat="45.4926188" lon="14.0114652"><ele>644.5</ele><time>2026-04-25T09:03:30.087Z</time></trkpt><trkpt lat="45.4925698" lon="14.0115518"><ele>644.3333333333333</ele><time>2026-04-25T09:03:31.091Z</time></trkpt><trkpt lat="45.4925089" lon="14.0116249"><ele>644.1666666666666</ele><time>2026-04-25T09:03:32.081Z</time></trkpt><trkpt lat="45.4924416" lon="14.0116918"><ele>644.0</ele><time>2026-04-25T09:03:33.085Z</time></trkpt><trkpt lat="45.4923648" lon="14.0117464"><ele>644.0</ele><time>2026-04-25T09:03:34.085Z</time></trkpt><trkpt lat="45.4922626" lon="14.0117882"><ele>644.0</ele><time>2026-04-25T09:03:35.095Z</time></trkpt><trkpt lat="45.492146" lon="14.0118092"><ele>644.0</ele><time>2026-04-25T09:03:36.081Z</time></trkpt><trkpt lat="45.4920285" lon="14.0118301"><ele>644.0</ele><time>2026-04-25T09:03:37.093Z</time></trkpt><trkpt lat="45.4919218" lon="14.0118192"><ele>644.0</ele><time>2026-04-25T09:03:38.09Z</time></trkpt><trkpt lat="45.4918187" lon="14.0118001"><ele>643.0</ele><time>2026-04-25T09:03:39.089Z</time></trkpt><trkpt lat="45.4917162" lon="14.0118013"><ele>642.0</ele><time>2026-04-25T09:03:40.086Z</time></trkpt><trkpt lat="45.4916175" lon="14.0118172"><ele>641.0</ele><time>2026-04-25T09:03:41.103Z</time></trkpt><trkpt lat="45.4915213" lon="14.0118461"><ele>640.0</ele><time>2026-04-25T09:03:42.098Z</time></trkpt><trkpt lat="45.4914317" lon="14.0118891"><ele>639.0</ele><time>2026-04-25T09:03:43.107Z</time></trkpt><trkpt lat="45.4913425" lon="14.0119387"><ele>638.2</ele><time>2026-04-25T09:03:44.096Z</time></trkpt><trkpt lat="45.4912478" lon="14.0119972"><ele>637.4</ele><time>2026-04-25T09:03:45.096Z</time></trkpt><trkpt lat="45.491142" lon="14.0120519"><ele>636.6</ele><time>2026-04-25T09:03:46.094Z</time></trkpt><trkpt lat="45.4910354" lon="14.0121092"><ele>635.8</ele><time>2026-04-25T09:03:47.092Z</time></trkpt><trkpt lat="45.4909341" lon="14.0121657"><ele>635.0</ele><time>2026-04-25T09:03:48.105Z</time></trkpt><trkpt lat="45.4908479" lon="14.012229"><ele>635.0</ele><time>2026-04-25T09:03:49.092Z</time></trkpt><trkpt lat="45.4907697" lon="14.0123252"><ele>635.0</ele><time>2026-04-25T09:03:50.09Z</time></trkpt><trkpt lat="45.4906924" lon="14.0124356"><ele>635.0</ele><time>2026-04-25T09:03:51.1Z</time></trkpt><trkpt lat="45.4906155" lon="14.0125519"><ele>635.0</ele><time>2026-04-25T09:03:52.086Z</time></trkpt><trkpt lat="45.490551" lon="14.0126787"><ele>635.0</ele><time>2026-04-25T09:03:53.098Z</time></trkpt><trkpt lat="45.4905049" lon="14.0128102"><ele>634.2</ele><time>2026-04-25T09:03:54.092Z</time></trkpt><trkpt lat="45.4904769" lon="14.0129445"><ele>633.4</ele><time>2026-04-25T09:03:55.087Z</time></trkpt><trkpt lat="45.4904503" lon="14.0130775"><ele>632.6</ele><time>2026-04-25T09:03:56.097Z</time></trkpt><trkpt lat="45.4903962" lon="14.0131978"><ele>631.8</ele><time>2026-04-25T09:03:57.091Z</time></trkpt><trkpt lat="45.4903399" lon="14.0133185"><ele>631.0</ele><time>2026-04-25T09:03:58.091Z</time></trkpt><trkpt lat="45.4903056" lon="14.0134623"><ele>629.2</ele><time>2026-04-25T09:03:59.085Z</time></trkpt><trkpt lat="45.4902831" lon="14.0135919"><ele>627.4000000000001</ele><time>2026-04-25T09:04:00.079Z</time></trkpt><trkpt lat="45.4902337" lon="14.0137153"><ele>625.6</ele><time>2026-04-25T09:04:01.092Z</time></trkpt><trkpt lat="45.4901612" lon="14.0138268"><ele>623.8000000000001</ele><time>2026-04-25T09:04:02.093Z</time></trkpt><trkpt lat="45.4900778" lon="14.0139452"><ele>622.0</ele><time>2026-04-25T09:04:03.087Z</time></trkpt><trkpt lat="45.4899957" lon="14.0140875"><ele>623.5</ele><time>2026-04-25T09:04:04.091Z</time></trkpt><trkpt lat="45.489913" lon="14.014241"><ele>625.0</ele><time>2026-04-25T09:04:05.081Z</time></trkpt><trkpt lat="45.489822" lon="14.0143958"><ele>626.5</ele><time>2026-04-25T09:04:06.092Z</time></trkpt><trkpt lat="45.4897362" lon="14.0145488"><ele>628.0</ele><time>2026-04-25T09:04:07.091Z</time></trkpt><trkpt lat="45.4896525" lon="14.0147139"><ele>624.25</ele><time>2026-04-25T09:04:08.091Z</time></trkpt><trkpt lat="45.4895746" lon="14.0148851"><ele>620.5</ele><time>2026-04-25T09:04:09.087Z</time></trkpt><trkpt lat="45.4895105" lon="14.0150714"><ele>616.75</ele><time>2026-04-25T09:04:10.074Z</time></trkpt><trkpt lat="45.489456" lon="14.0152601"><ele>613.0</ele><time>2026-04-25T09:04:11.083Z</time></trkpt><trkpt lat="45.4893993" lon="14.0154535"><ele>613.0</ele><time>2026-04-25T09:04:12.081Z</time></trkpt><trkpt lat="45.4893357" lon="14.0156513"><ele>613.0</ele><time>2026-04-25T09:04:13.073Z</time></trkpt><trkpt lat="45.489268" lon="14.0158468"><ele>613.0</ele><time>2026-04-25T09:04:14.084Z</time></trkpt><trkpt lat="45.4891851" lon="14.0160271"><ele>615.0</ele><time>2026-04-25T09:04:15.079Z</time></trkpt><trkpt lat="45.4890969" lon="14.0162051"><ele>617.0</ele><time>2026-04-25T09:04:16.087Z</time></trkpt><trkpt lat="45.4890218" lon="14.0163836"><ele>619.0</ele><time>2026-04-25T09:04:17.084Z</time></trkpt><trkpt lat="45.4889605" lon="14.0165504"><ele>621.0</ele><time>2026-04-25T09:04:18.087Z</time></trkpt><trkpt lat="45.4888909" lon="14.0167103"><ele>620.0</ele><time>2026-04-25T09:04:19.085Z</time></trkpt><trkpt lat="45.488816" lon="14.0168361"><ele>619.0</ele><time>2026-04-25T09:04:20.083Z</time></trkpt><trkpt lat="45.4887349" lon="14.0169298"><ele>618.0</ele><time>2026-04-25T09:04:21.082Z</time></trkpt><trkpt lat="45.4886399" lon="14.016977"><ele>617.0</ele><time>2026-04-25T09:04:22.085Z</time></trkpt><trkpt lat="45.4885348" lon="14.0170042"><ele>616.0</ele><time>2026-04-25T09:04:23.074Z</time></trkpt><trkpt lat="45.4884254" lon="14.0170362"><ele>616.0</ele><time>2026-04-25T09:04:24.087Z</time></trkpt><trkpt lat="45.48833" lon="14.0170919"><ele>616.0</ele><time>2026-04-25T09:04:25.079Z</time></trkpt><trkpt lat="45.4882278" lon="14.0171865"><ele>616.0</ele><time>2026-04-25T09:04:26.089Z</time></trkpt><trkpt lat="45.4881179" lon="14.017307"><ele>616.0</ele><time>2026-04-25T09:04:27.082Z</time></trkpt><trkpt lat="45.4880039" lon="14.0174176"><ele>615.0</ele><time>2026-04-25T09:04:28.078Z</time></trkpt><trkpt lat="45.4878789" lon="14.0175284"><ele>614.0</ele><time>2026-04-25T09:04:29.08Z</time></trkpt><trkpt lat="45.4877536" lon="14.0176519"><ele>613.0</ele><time>2026-04-25T09:04:30.082Z</time></trkpt><trkpt lat="45.4876368" lon="14.0177838"><ele>612.0</ele><time>2026-04-25T09:04:31.078Z</time></trkpt><trkpt lat="45.4875244" lon="14.017936"><ele>612.0</ele><time>2026-04-25T09:04:32.086Z</time></trkpt><trkpt lat="45.4874212" lon="14.0180951"><ele>612.0</ele><time>2026-04-25T09:04:33.08Z</time></trkpt><trkpt lat="45.4873231" lon="14.0182484"><ele>612.0</ele><time>2026-04-25T09:04:34.085Z</time></trkpt><trkpt lat="45.487221" lon="14.0183808"><ele>612.0</ele><time>2026-04-25T09:04:35.088Z</time></trkpt><trkpt lat="45.487114" lon="14.0185071"><ele>610.75</ele><time>2026-04-25T09:04:36.086Z</time></trkpt><trkpt lat="45.4870135" lon="14.0186424"><ele>609.5</ele><time>2026-04-25T09:04:37.085Z</time></trkpt><trkpt lat="45.4869154" lon="14.0187903"><ele>608.25</ele><time>2026-04-25T09:04:38.077Z</time></trkpt><trkpt lat="45.4868235" lon="14.0189547"><ele>607.0</ele><time>2026-04-25T09:04:39.08Z</time></trkpt><trkpt lat="45.4867344" lon="14.0191171"><ele>608.75</ele><time>2026-04-25T09:04:40.082Z</time></trkpt><trkpt lat="45.4866479" lon="14.0192764"><ele>610.5</ele><time>2026-04-25T09:04:41.074Z</time></trkpt><trkpt lat="45.4865605" lon="14.0194404"><ele>612.25</ele><time>2026-04-25T09:04:42.08Z</time></trkpt><trkpt lat="45.4864867" lon="14.019612"><ele>614.0</ele><time>2026-04-25T09:04:43.083Z</time></trkpt><trkpt lat="45.4864227" lon="14.019791"><ele>614.0</ele><time>2026-04-25T09:04:44.078Z</time></trkpt><trkpt lat="45.4863541" lon="14.0199442"><ele>614.0</ele><time>2026-04-25T09:04:45.087Z</time></trkpt><trkpt lat="45.4862814" lon="14.0200768"><ele>614.0</ele><time>2026-04-25T09:04:46.086Z</time></trkpt><trkpt lat="45.4861991" lon="14.020183"><ele>614.0</ele><time>2026-04-25T09:04:47.089Z</time></trkpt><trkpt lat="45.4861103" lon="14.0202599"><ele>611.75</ele><time>2026-04-25T09:04:48.077Z</time></trkpt><trkpt lat="45.4860142" lon="14.0203305"><ele>609.5</ele><time>2026-04-25T09:04:49.08Z</time></trkpt><trkpt lat="45.4859064" lon="14.0204222"><ele>607.25</ele><time>2026-04-25T09:04:50.098Z</time></trkpt><trkpt lat="45.4857975" lon="14.0205267"><ele>605.0</ele><time>2026-04-25T09:04:51.077Z</time></trkpt><trkpt lat="45.4856957" lon="14.0206427"><ele>605.0</ele><time>2026-04-25T09:04:52.083Z</time></trkpt><trkpt lat="45.4856036" lon="14.0207758"><ele>605.0</ele><time>2026-04-25T09:04:53.08Z</time></trkpt><trkpt lat="45.4855209" lon="14.0209377"><ele>605.0</ele><time>2026-04-25T09:04:54.08Z</time></trkpt><trkpt lat="45.4854435" lon="14.0211013"><ele>605.0</ele><time>2026-04-25T09:04:55.08Z</time></trkpt><trkpt lat="45.4853687" lon="14.0212517"><ele>606.0</ele><time>2026-04-25T09:04:56.086Z</time></trkpt><trkpt lat="45.4853059" lon="14.0213916"><ele>607.0</ele><time>2026-04-25T09:04:57.078Z</time></trkpt><trkpt lat="45.4852406" lon="14.0215185"><ele>608.0</ele><time>2026-04-25T09:04:58.104Z</time></trkpt><trkpt lat="45.4851583" lon="14.0216086"><ele>609.0</ele><time>2026-04-25T09:04:59.076Z</time></trkpt><trkpt lat="45.4850637" lon="14.0216852"><ele>610.0</ele><time>2026-04-25T09:05:00.069Z</time></trkpt><trkpt lat="45.4849717" lon="14.0217835"><ele>610.0</ele><time>2026-04-25T09:05:01.084Z</time></trkpt><trkpt lat="45.484891" lon="14.021916"><ele>610.0</ele><time>2026-04-25T09:05:02.074Z</time></trkpt><trkpt lat="45.4848067" lon="14.0220577"><ele>610.0</ele><time>2026-04-25T09:05:03.075Z</time></trkpt><trkpt lat="45.484724" lon="14.0222022"><ele>610.0</ele><time>2026-04-25T09:05:04.074Z</time></trkpt><trkpt lat="45.484633" lon="14.0223501"><ele>608.0</ele><time>2026-04-25T09:05:05.079Z</time></trkpt><trkpt lat="45.4845288" lon="14.0224763"><ele>606.0</ele><time>2026-04-25T09:05:06.087Z</time></trkpt><trkpt lat="45.4844124" lon="14.0225777"><ele>604.0</ele><time>2026-04-25T09:05:07.076Z</time></trkpt><trkpt lat="45.4843029" lon="14.0226874"><ele>602.0</ele><time>2026-04-25T09:05:08.075Z</time></trkpt><trkpt lat="45.4841937" lon="14.022816"><ele>602.0</ele><time>2026-04-25T09:05:09.077Z</time></trkpt><trkpt lat="45.4840899" lon="14.0229642"><ele>602.0</ele><time>2026-04-25T09:05:10.077Z</time></trkpt><trkpt lat="45.4839899" lon="14.0231119"><ele>602.0</ele><time>2026-04-25T09:05:11.08Z</time></trkpt><trkpt lat="45.4838754" lon="14.023219"><ele>602.0</ele><time>2026-04-25T09:05:12.079Z</time></trkpt><trkpt lat="45.4837599" lon="14.0233084"><ele>601.25</ele><time>2026-04-25T09:05:13.076Z</time></trkpt><trkpt lat="45.4836389" lon="14.0233804"><ele>600.5</ele><time>2026-04-25T09:05:14.083Z</time></trkpt><trkpt lat="45.483535" lon="14.0234629"><ele>599.75</ele><time>2026-04-25T09:05:15.078Z</time></trkpt><trkpt lat="45.4834389" lon="14.0235643"><ele>599.0</ele><time>2026-04-25T09:05:16.081Z</time></trkpt><trkpt lat="45.483362" lon="14.0236926"><ele>599.0</ele><time>2026-04-25T09:05:17.079Z</time></trkpt><trkpt lat="45.4832879" lon="14.023844"><ele>599.0</ele><time>2026-04-25T09:05:18.072Z</time></trkpt><trkpt lat="45.4832129" lon="14.0239943"><ele>599.0</ele><time>2026-04-25T09:05:19.084Z</time></trkpt><trkpt lat="45.4831173" lon="14.024119"><ele>599.0</ele><time>2026-04-25T09:05:20.076Z</time></trkpt><trkpt lat="45.4830128" lon="14.0242254"><ele>598.5</ele><time>2026-04-25T09:05:21.081Z</time></trkpt><trkpt lat="45.4828916" lon="14.0243004"><ele>598.0</ele><time>2026-04-25T09:05:22.083Z</time></trkpt><trkpt lat="45.4827683" lon="14.0243575"><ele>597.5</ele><time>2026-04-25T09:05:23.075Z</time></trkpt><trkpt lat="45.4826562" lon="14.0244265"><ele>597.0</ele><time>2026-04-25T09:05:24.083Z</time></trkpt><trkpt lat="45.4825554" lon="14.0245244"><ele>597.0</ele><time>2026-04-25T09:05:25.082Z</time></trkpt><trkpt lat="45.4824587" lon="14.0246425"><ele>597.0</ele><time>2026-04-25T09:05:26.082Z</time></trkpt><trkpt lat="45.4823644" lon="14.0247755"><ele>597.0</ele><time>2026-04-25T09:05:27.091Z</time></trkpt><trkpt lat="45.4822587" lon="14.0249"><ele>597.0</ele><time>2026-04-25T09:05:28.083Z</time></trkpt><trkpt lat="45.4821391" lon="14.0250231"><ele>597.5</ele><time>2026-04-25T09:05:29.077Z</time></trkpt><trkpt lat="45.4820115" lon="14.0251443"><ele>598.0</ele><time>2026-04-25T09:05:30.073Z</time></trkpt><trkpt lat="45.4818844" lon="14.025237"><ele>598.5</ele><time>2026-04-25T09:05:31.076Z</time></trkpt><trkpt lat="45.4817741" lon="14.0253307"><ele>599.0</ele><time>2026-04-25T09:05:32.074Z</time></trkpt><trkpt lat="45.4816708" lon="14.02545"><ele>599.0</ele><time>2026-04-25T09:05:33.069Z</time></trkpt><trkpt lat="45.481591" lon="14.0255991"><ele>599.0</ele><time>2026-04-25T09:05:34.08Z</time></trkpt><trkpt lat="45.4815084" lon="14.0257556"><ele>599.0</ele><time>2026-04-25T09:05:35.071Z</time></trkpt><trkpt lat="45.4814304" lon="14.0258961"><ele>599.0</ele><time>2026-04-25T09:05:36.081Z</time></trkpt><trkpt lat="45.481352" lon="14.0260133"><ele>599.6</ele><time>2026-04-25T09:05:37.073Z</time></trkpt><trkpt lat="45.4812754" lon="14.0260946"><ele>600.2</ele><time>2026-04-25T09:05:38.074Z</time></trkpt><trkpt lat="45.4811795" lon="14.0261174"><ele>600.8000000000001</ele><time>2026-04-25T09:05:39.069Z</time></trkpt><trkpt lat="45.4810754" lon="14.0261075"><ele>601.4</ele><time>2026-04-25T09:05:40.065Z</time></trkpt><trkpt lat="45.4809687" lon="14.0260954"><ele>602.0</ele><time>2026-04-25T09:05:41.073Z</time></trkpt><trkpt lat="45.4808539" lon="14.0260874"><ele>602.0</ele><time>2026-04-25T09:05:42.077Z</time></trkpt><trkpt lat="45.4807314" lon="14.0260997"><ele>602.0</ele><time>2026-04-25T09:05:43.073Z</time></trkpt><trkpt lat="45.480606" lon="14.0261292"><ele>602.0</ele><time>2026-04-25T09:05:44.079Z</time></trkpt><trkpt lat="45.4804942" lon="14.0261929"><ele>602.0</ele><time>2026-04-25T09:05:45.078Z</time></trkpt><trkpt lat="45.4804054" lon="14.0262878"><ele>601.5</ele><time>2026-04-25T09:05:46.081Z</time></trkpt><trkpt lat="45.4803207" lon="14.0263845"><ele>601.0</ele><time>2026-04-25T09:05:47.069Z</time></trkpt><trkpt lat="45.4802296" lon="14.0264681"><ele>600.5</ele><time>2026-04-25T09:05:48.08Z</time></trkpt><trkpt lat="45.4801144" lon="14.0265046"><ele>600.0</ele><time>2026-04-25T09:05:49.083Z</time></trkpt><trkpt lat="45.4799854" lon="14.0265335"><ele>600.0</ele><time>2026-04-25T09:05:50.067Z</time></trkpt><trkpt lat="45.4798469" lon="14.0266157"><ele>600.0</ele><time>2026-04-25T09:05:51.075Z</time></trkpt><trkpt lat="45.4797225" lon="14.026716"><ele>600.0</ele><time>2026-04-25T09:05:52.074Z</time></trkpt><trkpt lat="45.479623" lon="14.0268413"><ele>600.0</ele><time>2026-04-25T09:05:53.07Z</time></trkpt><trkpt lat="45.4795371" lon="14.0269648"><ele>600.4</ele><time>2026-04-25T09:05:54.076Z</time></trkpt><trkpt lat="45.4794654" lon="14.0270817"><ele>600.8</ele><time>2026-04-25T09:05:55.081Z</time></trkpt><trkpt lat="45.4793949" lon="14.0271525"><ele>601.2</ele><time>2026-04-25T09:05:56.073Z</time></trkpt><trkpt lat="45.4792998" lon="14.0271694"><ele>601.6</ele><time>2026-04-25T09:05:57.073Z</time></trkpt><trkpt lat="45.4792038" lon="14.0271673"><ele>602.0</ele><time>2026-04-25T09:05:58.077Z</time></trkpt><trkpt lat="45.4790956" lon="14.0271367"><ele>602.0</ele><time>2026-04-25T09:05:59.073Z</time></trkpt><trkpt lat="45.4789859" lon="14.0271092"><ele>602.0</ele><time>2026-04-25T09:06:00.08Z</time></trkpt><trkpt lat="45.4788754" lon="14.0271088"><ele>602.0</ele><time>2026-04-25T09:06:01.068Z</time></trkpt><trkpt lat="45.4787764" lon="14.0271253"><ele>602.0</ele><time>2026-04-25T09:06:02.068Z</time></trkpt><trkpt lat="45.4786832" lon="14.0271868"><ele>602.0</ele><time>2026-04-25T09:06:03.064Z</time></trkpt><trkpt lat="45.4785954" lon="14.027277"><ele>603.25</ele><time>2026-04-25T09:06:04.066Z</time></trkpt><trkpt lat="45.4785218" lon="14.027395"><ele>604.5</ele><time>2026-04-25T09:06:05.071Z</time></trkpt><trkpt lat="45.4784273" lon="14.0275025"><ele>605.75</ele><time>2026-04-25T09:06:06.071Z</time></trkpt><trkpt lat="45.4783174" lon="14.0275679"><ele>607.0</ele><time>2026-04-25T09:06:07.069Z</time></trkpt><trkpt lat="45.4782014" lon="14.0275905"><ele>607.25</ele><time>2026-04-25T09:06:08.063Z</time></trkpt><trkpt lat="45.4780729" lon="14.0276013"><ele>607.5</ele><time>2026-04-25T09:06:09.103Z</time></trkpt><trkpt lat="45.4779541" lon="14.0276197"><ele>607.75</ele><time>2026-04-25T09:06:10.07Z</time></trkpt><trkpt lat="45.4778381" lon="14.0276395"><ele>608.0</ele><time>2026-04-25T09:06:11.072Z</time></trkpt><trkpt lat="45.4777256" lon="14.0276856"><ele>606.5</ele><time>2026-04-25T09:06:12.076Z</time></trkpt><trkpt lat="45.4776166" lon="14.0277641"><ele>605.0</ele><time>2026-04-25T09:06:13.069Z</time></trkpt><trkpt lat="45.4775155" lon="14.0278687"><ele>603.5</ele><time>2026-04-25T09:06:14.08Z</time></trkpt><trkpt lat="45.4774167" lon="14.0279807"><ele>602.0</ele><time>2026-04-25T09:06:15.07Z</time></trkpt><trkpt lat="45.4773192" lon="14.0280783"><ele>602.0</ele><time>2026-04-25T09:06:16.081Z</time></trkpt><trkpt lat="45.4772281" lon="14.0281686"><ele>602.0</ele><time>2026-04-25T09:06:17.066Z</time></trkpt><trkpt lat="45.4771367" lon="14.0282544"><ele>602.0</ele><time>2026-04-25T09:06:18.074Z</time></trkpt><trkpt lat="45.4770338" lon="14.0283039"><ele>602.0</ele><time>2026-04-25T09:06:19.076Z</time></trkpt><trkpt lat="45.476922" lon="14.028303"><ele>602.0</ele><time>2026-04-25T09:06:20.07Z</time></trkpt><trkpt lat="45.4768114" lon="14.0282831"><ele>601.75</ele><time>2026-04-25T09:06:21.076Z</time></trkpt><trkpt lat="45.4766891" lon="14.0282463"><ele>601.5</ele><time>2026-04-25T09:06:22.067Z</time></trkpt><trkpt lat="45.4765601" lon="14.0282037"><ele>601.25</ele><time>2026-04-25T09:06:23.09Z</time></trkpt><trkpt lat="45.4764187" lon="14.0281941"><ele>601.0</ele><time>2026-04-25T09:06:24.075Z</time></trkpt><trkpt lat="45.4762874" lon="14.0281973"><ele>601.5</ele><time>2026-04-25T09:06:25.081Z</time></trkpt><trkpt lat="45.4761627" lon="14.0282013"><ele>602.0</ele><time>2026-04-25T09:06:26.074Z</time></trkpt><trkpt lat="45.4760369" lon="14.0282368"><ele>602.5</ele><time>2026-04-25T09:06:27.075Z</time></trkpt><trkpt lat="45.4759175" lon="14.0283095"><ele>603.0</ele><time>2026-04-25T09:06:28.076Z</time></trkpt><trkpt lat="45.4757942" lon="14.0284031"><ele>602.75</ele><time>2026-04-25T09:06:29.081Z</time></trkpt><trkpt lat="45.4756734" lon="14.028509"><ele>602.5</ele><time>2026-04-25T09:06:30.081Z</time></trkpt><trkpt lat="45.4755526" lon="14.028604"><ele>602.25</ele><time>2026-04-25T09:06:31.084Z</time></trkpt><trkpt lat="45.4754267" lon="14.0286765"><ele>602.0</ele><time>2026-04-25T09:06:32.07Z</time></trkpt><trkpt lat="45.475307" lon="14.0287345"><ele>602.0</ele><time>2026-04-25T09:06:33.075Z</time></trkpt><trkpt lat="45.4751894" lon="14.0288059"><ele>602.0</ele><time>2026-04-25T09:06:34.072Z</time></trkpt><trkpt lat="45.4750854" lon="14.0289042"><ele>602.0</ele><time>2026-04-25T09:06:35.073Z</time></trkpt><trkpt lat="45.4749814" lon="14.0290254"><ele>602.0</ele><time>2026-04-25T09:06:36.08Z</time></trkpt><trkpt lat="45.4748916" lon="14.0291443"><ele>602.8000000000001</ele><time>2026-04-25T09:06:37.073Z</time></trkpt><trkpt lat="45.4748022" lon="14.0292539"><ele>603.6</ele><time>2026-04-25T09:06:38.074Z</time></trkpt><trkpt lat="45.474711" lon="14.029354"><ele>604.4000000000001</ele><time>2026-04-25T09:06:39.075Z</time></trkpt><trkpt lat="45.4746186" lon="14.0294158"><ele>605.2</ele><time>2026-04-25T09:06:40.074Z</time></trkpt><trkpt lat="45.474528" lon="14.0294546"><ele>606.0</ele><time>2026-04-25T09:06:41.066Z</time></trkpt><trkpt lat="45.4744536" lon="14.029485"><ele>604.7142857142858</ele><time>2026-04-25T09:06:42.101Z</time></trkpt><trkpt lat="45.4744025" lon="14.0295412"><ele>603.4285714285714</ele><time>2026-04-25T09:06:43.067Z</time></trkpt><trkpt lat="45.4743553" lon="14.0296099"><ele>602.1428571428571</ele><time>2026-04-25T09:06:44.067Z</time></trkpt><trkpt lat="45.4743329" lon="14.0297015"><ele>600.8571428571429</ele><time>2026-04-25T09:06:45.07Z</time></trkpt><trkpt lat="45.4743294" lon="14.0298059"><ele>599.5714285714286</ele><time>2026-04-25T09:06:46.065Z</time></trkpt><trkpt lat="45.4743257" lon="14.0299097"><ele>598.2857142857143</ele><time>2026-04-25T09:06:47.081Z</time></trkpt><trkpt lat="45.474313" lon="14.0300003"><ele>597.0</ele><time>2026-04-25T09:06:48.082Z</time></trkpt><trkpt lat="45.4742493" lon="14.0301246"><ele>596.6</ele><time>2026-04-25T09:06:50.077Z</time></trkpt><trkpt lat="45.4741245" lon="14.0301795"><ele>596.2</ele><time>2026-04-25T09:06:52.072Z</time></trkpt><trkpt lat="45.4740333" lon="14.0301638"><ele>595.8</ele><time>2026-04-25T09:06:53.073Z</time></trkpt><trkpt lat="45.4739454" lon="14.0301196"><ele>595.4</ele><time>2026-04-25T09:06:54.073Z</time></trkpt><trkpt lat="45.473883" lon="14.0300763"><ele>595.0</ele><time>2026-04-25T09:06:55.076Z</time></trkpt><trkpt lat="45.4737847" lon="14.030108"><ele>590.8</ele><time>2026-04-25T09:06:57.069Z</time></trkpt><trkpt lat="45.4737236" lon="14.0302546"><ele>586.6</ele><time>2026-04-25T09:06:59.084Z</time></trkpt><trkpt lat="45.4737145" lon="14.0303785"><ele>582.4</ele><time>2026-04-25T09:07:00.075Z</time></trkpt><trkpt lat="45.4737122" lon="14.0305309"><ele>578.2</ele><time>2026-04-25T09:07:01.073Z</time></trkpt><trkpt lat="45.4737245" lon="14.0307033"><ele>574.0</ele><time>2026-04-25T09:07:02.082Z</time></trkpt><trkpt lat="45.4737328" lon="14.0308796"><ele>573.75</ele><time>2026-04-25T09:07:03.073Z</time></trkpt><trkpt lat="45.4737248" lon="14.0310502"><ele>573.5</ele><time>2026-04-25T09:07:04.074Z</time></trkpt><trkpt lat="45.473703" lon="14.031223"><ele>573.25</ele><time>2026-04-25T09:07:05.076Z</time></trkpt><trkpt lat="45.4736678" lon="14.0313965"><ele>573.0</ele><time>2026-04-25T09:07:06.073Z</time></trkpt><trkpt lat="45.4736437" lon="14.0315825"><ele>573.0</ele><time>2026-04-25T09:07:07.071Z</time></trkpt><trkpt lat="45.4736366" lon="14.0317859"><ele>573.0</ele><time>2026-04-25T09:07:08.077Z</time></trkpt><trkpt lat="45.4736142" lon="14.0319732"><ele>573.0</ele><time>2026-04-25T09:07:09.09Z</time></trkpt><trkpt lat="45.4735909" lon="14.0321528"><ele>573.0</ele><time>2026-04-25T09:07:10.072Z</time></trkpt><trkpt lat="45.4735615" lon="14.0323331"><ele>575.5</ele><time>2026-04-25T09:07:11.077Z</time></trkpt><trkpt lat="45.4735111" lon="14.0324976"><ele>578.0</ele><time>2026-04-25T09:07:12.08Z</time></trkpt><trkpt lat="45.4734569" lon="14.032643"><ele>580.5</ele><time>2026-04-25T09:07:13.073Z</time></trkpt><trkpt lat="45.473394" lon="14.0327768"><ele>583.0</ele><time>2026-04-25T09:07:14.089Z</time></trkpt><trkpt lat="45.4733295" lon="14.0329045"><ele>583.0</ele><time>2026-04-25T09:07:15.076Z</time></trkpt><trkpt lat="45.4732547" lon="14.0330505"><ele>583.0</ele><time>2026-04-25T09:07:16.08Z</time></trkpt><trkpt lat="45.4731671" lon="14.0331844"><ele>583.0</ele><time>2026-04-25T09:07:17.075Z</time></trkpt><trkpt lat="45.473066" lon="14.0333052"><ele>583.0</ele><time>2026-04-25T09:07:18.076Z</time></trkpt><trkpt lat="45.4729514" lon="14.0334027"><ele>581.0</ele><time>2026-04-25T09:07:19.075Z</time></trkpt><trkpt lat="45.4728326" lon="14.0334793"><ele>579.0</ele><time>2026-04-25T09:07:20.071Z</time></trkpt><trkpt lat="45.47271" lon="14.0335631"><ele>577.0</ele><time>2026-04-25T09:07:21.072Z</time></trkpt><trkpt lat="45.472584" lon="14.0336688"><ele>575.0</ele><time>2026-04-25T09:07:22.072Z</time></trkpt><trkpt lat="45.4724579" lon="14.0337911"><ele>575.0</ele><time>2026-04-25T09:07:23.07Z</time></trkpt><trkpt lat="45.4723319" lon="14.0339177"><ele>575.0</ele><time>2026-04-25T09:07:24.079Z</time></trkpt><trkpt lat="45.4722025" lon="14.0340223"><ele>575.0</ele><time>2026-04-25T09:07:25.069Z</time></trkpt><trkpt lat="45.4720721" lon="14.0341229"><ele>575.25</ele><time>2026-04-25T09:07:26.066Z</time></trkpt><trkpt lat="45.4719464" lon="14.0342354"><ele>575.5</ele><time>2026-04-25T09:07:27.07Z</time></trkpt><trkpt lat="45.4718268" lon="14.0343465"><ele>575.75</ele><time>2026-04-25T09:07:28.074Z</time></trkpt><trkpt lat="45.4717005" lon="14.0344418"><ele>576.0</ele><time>2026-04-25T09:07:29.07Z</time></trkpt><trkpt lat="45.4715706" lon="14.0345205"><ele>576.0</ele><time>2026-04-25T09:07:30.075Z</time></trkpt><trkpt lat="45.471438" lon="14.0345942"><ele>576.0</ele><time>2026-04-25T09:07:31.07Z</time></trkpt><trkpt lat="45.4713101" lon="14.034659"><ele>576.0</ele><time>2026-04-25T09:07:32.073Z</time></trkpt><trkpt lat="45.4711829" lon="14.0346952"><ele>576.0</ele><time>2026-04-25T09:07:33.076Z</time></trkpt><trkpt lat="45.4710478" lon="14.0347049"><ele>574.6</ele><time>2026-04-25T09:07:34.072Z</time></trkpt><trkpt lat="45.470923" lon="14.0347127"><ele>573.2</ele><time>2026-04-25T09:07:35.075Z</time></trkpt><trkpt lat="45.4708137" lon="14.0347284"><ele>571.8</ele><time>2026-04-25T09:07:36.068Z</time></trkpt><trkpt lat="45.4707338" lon="14.0347517"><ele>570.4</ele><time>2026-04-25T09:07:37.07Z</time></trkpt><trkpt lat="45.4706665" lon="14.0347947"><ele>569.0</ele><time>2026-04-25T09:07:38.074Z</time></trkpt><trkpt lat="45.4706153" lon="14.0348487"><ele>569.0</ele><time>2026-04-25T09:07:39.069Z</time></trkpt><trkpt lat="45.4705879" lon="14.0349363"><ele>569.0</ele><time>2026-04-25T09:07:40.073Z</time></trkpt><trkpt lat="45.4705789" lon="14.0350519"><ele>569.0</ele><time>2026-04-25T09:07:41.073Z</time></trkpt><trkpt lat="45.4705821" lon="14.0351965"><ele>569.0</ele><time>2026-04-25T09:07:42.077Z</time></trkpt><trkpt lat="45.4705681" lon="14.0353617"><ele>569.0</ele><time>2026-04-25T09:07:43.084Z</time></trkpt><trkpt lat="45.4705391" lon="14.0355138"><ele>571.4</ele><time>2026-04-25T09:07:44.073Z</time></trkpt><trkpt lat="45.4704994" lon="14.0356566"><ele>573.8</ele><time>2026-04-25T09:07:45.068Z</time></trkpt><trkpt lat="45.4704515" lon="14.0357859"><ele>576.2</ele><time>2026-04-25T09:07:46.074Z</time></trkpt><trkpt lat="45.4703768" lon="14.0358755"><ele>578.6</ele><time>2026-04-25T09:07:47.067Z</time></trkpt><trkpt lat="45.4702959" lon="14.03596"><ele>581.0</ele><time>2026-04-25T09:07:48.08Z</time></trkpt><trkpt lat="45.4702174" lon="14.0360376"><ele>581.0</ele><time>2026-04-25T09:07:49.071Z</time></trkpt><trkpt lat="45.4701493" lon="14.0360994"><ele>581.0</ele><time>2026-04-25T09:07:50.072Z</time></trkpt><trkpt lat="45.4700676" lon="14.0361745"><ele>581.0</ele><time>2026-04-25T09:07:52.08Z</time></trkpt><trkpt lat="45.4700188" lon="14.0363133"><ele>581.0</ele><time>2026-04-25T09:07:54.08Z</time></trkpt><trkpt lat="45.470033" lon="14.0364224"><ele>581.0</ele><time>2026-04-25T09:07:55.073Z</time></trkpt><trkpt lat="45.4700877" lon="14.0365426"><ele>580.0</ele><time>2026-04-25T09:07:56.066Z</time></trkpt><trkpt lat="45.4701758" lon="14.0366847"><ele>579.0</ele><time>2026-04-25T09:07:57.072Z</time></trkpt><trkpt lat="45.470279" lon="14.0368501"><ele>578.0</ele><time>2026-04-25T09:07:58.075Z</time></trkpt><trkpt lat="45.4703884" lon="14.0370365"><ele>581.6666666666666</ele><time>2026-04-25T09:07:59.083Z</time></trkpt><trkpt lat="45.4704934" lon="14.0372265"><ele>585.3333333333334</ele><time>2026-04-25T09:08:00.072Z</time></trkpt><trkpt lat="45.4705887" lon="14.0374181"><ele>589.0</ele><time>2026-04-25T09:08:01.074Z</time></trkpt><trkpt lat="45.4706472" lon="14.0375965"><ele>589.0</ele><time>2026-04-25T09:08:02.078Z</time></trkpt><trkpt lat="45.4706666" lon="14.037763"><ele>589.0</ele><time>2026-04-25T09:08:03.079Z</time></trkpt><trkpt lat="45.4706515" lon="14.0379293"><ele>589.0</ele><time>2026-04-25T09:08:04.065Z</time></trkpt><trkpt lat="45.4706288" lon="14.0381008"><ele>589.0</ele><time>2026-04-25T09:08:05.062Z</time></trkpt><trkpt lat="45.4706081" lon="14.0382834"><ele>587.0</ele><time>2026-04-25T09:08:06.076Z</time></trkpt><trkpt lat="45.4706128" lon="14.0384765"><ele>585.0</ele><time>2026-04-25T09:08:07.074Z</time></trkpt><trkpt lat="45.4706244" lon="14.0386784"><ele>583.0</ele><time>2026-04-25T09:08:08.081Z</time></trkpt><trkpt lat="45.4706429" lon="14.0388671"><ele>581.0</ele><time>2026-04-25T09:08:09.076Z</time></trkpt><trkpt lat="45.4706689" lon="14.0390436"><ele>580.2</ele><time>2026-04-25T09:08:10.075Z</time></trkpt><trkpt lat="45.4707064" lon="14.0392011"><ele>579.4000000000001</ele><time>2026-04-25T09:08:11.073Z</time></trkpt><trkpt lat="45.4707543" lon="14.0393347"><ele>578.6</ele><time>2026-04-25T09:08:12.086Z</time></trkpt><trkpt lat="45.4707947" lon="14.0394596"><ele>577.8000000000001</ele><time>2026-04-25T09:08:13.08Z</time></trkpt><trkpt lat="45.4708104" lon="14.0395781"><ele>577.0</ele><time>2026-04-25T09:08:14.089Z</time></trkpt><trkpt lat="45.4708091" lon="14.0397023"><ele>577.0</ele><time>2026-04-25T09:08:15.077Z</time></trkpt><trkpt lat="45.4707909" lon="14.0398098"><ele>577.0</ele><time>2026-04-25T09:08:16.08Z</time></trkpt><trkpt lat="45.4707713" lon="14.039898"><ele>577.0</ele><time>2026-04-25T09:08:17.072Z</time></trkpt><trkpt lat="45.4706947" lon="14.0399649"><ele>577.0</ele><time>2026-04-25T09:08:19.076Z</time></trkpt><trkpt lat="45.470571" lon="14.0399639"><ele>577.0</ele><time>2026-04-25T09:08:21.079Z</time></trkpt><trkpt lat="45.4705002" lon="14.0399554"><ele>577.0</ele><time>2026-04-25T09:08:22.09Z</time></trkpt><trkpt lat="45.4704336" lon="14.0399484"><ele>576.1666666666667</ele><time>2026-04-25T09:08:23.081Z</time></trkpt><trkpt lat="45.4703699" lon="14.0399283"><ele>575.3333333333334</ele><time>2026-04-25T09:08:24.086Z</time></trkpt><trkpt lat="45.4702686" lon="14.0398546"><ele>574.5</ele><time>2026-04-25T09:08:26.081Z</time></trkpt><trkpt lat="45.4702189" lon="14.0397905"><ele>573.6666666666666</ele><time>2026-04-25T09:08:27.085Z</time></trkpt><trkpt lat="45.4701679" lon="14.0397151"><ele>572.8333333333333</ele><time>2026-04-25T09:08:28.081Z</time></trkpt><trkpt lat="45.4701128" lon="14.039636"><ele>572.0</ele><time>2026-04-25T09:08:29.08Z</time></trkpt><trkpt lat="45.470058" lon="14.0395604"><ele>571.9999999999999</ele><time>2026-04-25T09:08:30.091Z</time></trkpt><trkpt lat="45.4700047" lon="14.0394861"><ele>572.0</ele><time>2026-04-25T09:08:31.076Z</time></trkpt><trkpt lat="45.4699446" lon="14.0394232"><ele>572.0</ele><time>2026-04-25T09:08:32.089Z</time></trkpt><trkpt lat="45.4698884" lon="14.0393678"><ele>572.0</ele><time>2026-04-25T09:08:33.073Z</time></trkpt><trkpt lat="45.4698217" lon="14.0393201"><ele>572.0</ele><time>2026-04-25T09:08:34.079Z</time></trkpt><trkpt lat="45.4697586" lon="14.0392649"><ele>571.9999999999999</ele><time>2026-04-25T09:08:35.077Z</time></trkpt><trkpt lat="45.4697089" lon="14.0391931"><ele>572.0</ele><time>2026-04-25T09:08:36.079Z</time></trkpt><trkpt lat="45.4696667" lon="14.0391042"><ele>571.8000000000001</ele><time>2026-04-25T09:08:37.081Z</time></trkpt><trkpt lat="45.4696488" lon="14.0389852"><ele>571.6</ele><time>2026-04-25T09:08:38.092Z</time></trkpt><trkpt lat="45.4696397" lon="14.0388552"><ele>571.4000000000001</ele><time>2026-04-25T09:08:39.084Z</time></trkpt><trkpt lat="45.4696331" lon="14.0387231"><ele>571.2</ele><time>2026-04-25T09:08:40.076Z</time></trkpt><trkpt lat="45.4696144" lon="14.0385937"><ele>571.0</ele><time>2026-04-25T09:08:41.084Z</time></trkpt><trkpt lat="45.4695824" lon="14.0384695"><ele>570.6666666666667</ele><time>2026-04-25T09:08:42.08Z</time></trkpt><trkpt lat="45.4695401" lon="14.0383592"><ele>570.3333333333334</ele><time>2026-04-25T09:08:43.101Z</time></trkpt><trkpt lat="45.4694875" lon="14.0382534"><ele>570.0</ele><time>2026-04-25T09:08:44.084Z</time></trkpt><trkpt lat="45.4694323" lon="14.0381566"><ele>569.6666666666666</ele><time>2026-04-25T09:08:45.075Z</time></trkpt><trkpt lat="45.4693723" lon="14.0380761"><ele>569.3333333333333</ele><time>2026-04-25T09:08:46.083Z</time></trkpt><trkpt lat="45.4693075" lon="14.0380116"><ele>569.0</ele><time>2026-04-25T09:08:47.084Z</time></trkpt><trkpt lat="45.4692393" lon="14.0379701"><ele>568.8333333333333</ele><time>2026-04-25T09:08:48.094Z</time></trkpt><trkpt lat="45.4691681" lon="14.0379393"><ele>568.6666666666666</ele><time>2026-04-25T09:08:49.081Z</time></trkpt><trkpt lat="45.4691008" lon="14.0378857"><ele>568.5</ele><time>2026-04-25T09:08:50.085Z</time></trkpt><trkpt lat="45.4690382" lon="14.0378193"><ele>568.3333333333334</ele><time>2026-04-25T09:08:51.082Z</time></trkpt><trkpt lat="45.4689705" lon="14.037743"><ele>568.1666666666667</ele><time>2026-04-25T09:08:52.088Z</time></trkpt><trkpt lat="45.4689043" lon="14.0376457"><ele>568.0</ele><time>2026-04-25T09:08:53.092Z</time></trkpt><trkpt lat="45.4688459" lon="14.0375366"><ele>568.0</ele><time>2026-04-25T09:08:54.075Z</time></trkpt><trkpt lat="45.4687871" lon="14.0374224"><ele>568.0</ele><time>2026-04-25T09:08:55.078Z</time></trkpt><trkpt lat="45.4687243" lon="14.0373021"><ele>568.0</ele><time>2026-04-25T09:08:56.073Z</time></trkpt><trkpt lat="45.4686505" lon="14.0371857"><ele>568.0</ele><time>2026-04-25T09:08:57.081Z</time></trkpt><trkpt lat="45.4685776" lon="14.0370656"><ele>568.0</ele><time>2026-04-25T09:08:58.082Z</time></trkpt><trkpt lat="45.4685112" lon="14.0369448"><ele>567.1999999999999</ele><time>2026-04-25T09:08:59.074Z</time></trkpt><trkpt lat="45.4684475" lon="14.036834"><ele>566.4</ele><time>2026-04-25T09:09:00.08Z</time></trkpt><trkpt lat="45.4683877" lon="14.0367218"><ele>565.5999999999999</ele><time>2026-04-25T09:09:01.076Z</time></trkpt><trkpt lat="45.4683308" lon="14.0366003"><ele>564.8</ele><time>2026-04-25T09:09:02.084Z</time></trkpt><trkpt lat="45.4682679" lon="14.0364761"><ele>564.0</ele><time>2026-04-25T09:09:03.076Z</time></trkpt><trkpt lat="45.4681924" lon="14.0363638"><ele>563.8</ele><time>2026-04-25T09:09:04.079Z</time></trkpt><trkpt lat="45.4681065" lon="14.0362713"><ele>563.5999999999999</ele><time>2026-04-25T09:09:05.069Z</time></trkpt><trkpt lat="45.4680077" lon="14.036194"><ele>563.4</ele><time>2026-04-25T09:09:06.076Z</time></trkpt><trkpt lat="45.4679092" lon="14.0361103"><ele>563.1999999999999</ele><time>2026-04-25T09:09:07.078Z</time></trkpt><trkpt lat="45.4678238" lon="14.0360219"><ele>563.0</ele><time>2026-04-25T09:09:08.076Z</time></trkpt><trkpt lat="45.4677445" lon="14.0359158"><ele>561.8</ele><time>2026-04-25T09:09:09.091Z</time></trkpt><trkpt lat="45.4676628" lon="14.0358132"><ele>560.5999999999999</ele><time>2026-04-25T09:09:10.072Z</time></trkpt><trkpt lat="45.4675726" lon="14.0357219"><ele>559.4000000000001</ele><time>2026-04-25T09:09:11.079Z</time></trkpt><trkpt lat="45.4674784" lon="14.0356321"><ele>558.2</ele><time>2026-04-25T09:09:12.077Z</time></trkpt><trkpt lat="45.4673852" lon="14.035532"><ele>557.0</ele><time>2026-04-25T09:09:13.076Z</time></trkpt><trkpt lat="45.4672997" lon="14.0354208"><ele>557.0</ele><time>2026-04-25T09:09:14.079Z</time></trkpt><trkpt lat="45.4672194" lon="14.0353008"><ele>557.0</ele><time>2026-04-25T09:09:15.082Z</time></trkpt><trkpt lat="45.4671273" lon="14.0351908"><ele>557.0</ele><time>2026-04-25T09:09:16.075Z</time></trkpt><trkpt lat="45.4670364" lon="14.0350825"><ele>557.0</ele><time>2026-04-25T09:09:17.084Z</time></trkpt><trkpt lat="45.4669487" lon="14.0349659"><ele>556.75</ele><time>2026-04-25T09:09:18.074Z</time></trkpt><trkpt lat="45.4668601" lon="14.0348349"><ele>556.5</ele><time>2026-04-25T09:09:19.072Z</time></trkpt><trkpt lat="45.4667675" lon="14.0347091"><ele>556.25</ele><time>2026-04-25T09:09:20.075Z</time></trkpt><trkpt lat="45.4666748" lon="14.0345823"><ele>556.0</ele><time>2026-04-25T09:09:21.079Z</time></trkpt><trkpt lat="45.4665898" lon="14.0344693"><ele>556.0</ele><time>2026-04-25T09:09:22.078Z</time></trkpt><trkpt lat="45.4665126" lon="14.0343831"><ele>556.0</ele><time>2026-04-25T09:09:23.071Z</time></trkpt><trkpt lat="45.4664304" lon="14.0343107"><ele>556.0</ele><time>2026-04-25T09:09:24.082Z</time></trkpt><trkpt lat="45.4663324" lon="14.0342596"><ele>556.0</ele><time>2026-04-25T09:09:25.076Z</time></trkpt><trkpt lat="45.4662329" lon="14.0342225"><ele>556.0</ele><time>2026-04-25T09:09:26.08Z</time></trkpt><trkpt lat="45.4661504" lon="14.0341798"><ele>557.5</ele><time>2026-04-25T09:09:27.079Z</time></trkpt><trkpt lat="45.4660808" lon="14.0341211"><ele>559.0</ele><time>2026-04-25T09:09:28.083Z</time></trkpt><trkpt lat="45.4660245" lon="14.0340289"><ele>560.5</ele><time>2026-04-25T09:09:29.072Z</time></trkpt><trkpt lat="45.4659867" lon="14.0339295"><ele>562.0</ele><time>2026-04-25T09:09:30.074Z</time></trkpt><trkpt lat="45.4659717" lon="14.0338253"><ele>563.5</ele><time>2026-04-25T09:09:31.08Z</time></trkpt><trkpt lat="45.4659594" lon="14.0336966"><ele>565.0</ele><time>2026-04-25T09:09:32.074Z</time></trkpt><trkpt lat="45.465957" lon="14.0335559"><ele>565.0</ele><time>2026-04-25T09:09:33.086Z</time></trkpt><trkpt lat="45.4659532" lon="14.0334162"><ele>565.0</ele><time>2026-04-25T09:09:34.077Z</time></trkpt><trkpt lat="45.4659293" lon="14.0332644"><ele>565.0</ele><time>2026-04-25T09:09:35.082Z</time></trkpt><trkpt lat="45.4658958" lon="14.0331296"><ele>565.0</ele><time>2026-04-25T09:09:36.081Z</time></trkpt><trkpt lat="45.4658725" lon="14.0329877"><ele>565.0</ele><time>2026-04-25T09:09:37.081Z</time></trkpt><trkpt lat="45.4658821" lon="14.0328573"><ele>566.5</ele><time>2026-04-25T09:09:38.093Z</time></trkpt><trkpt lat="45.4658968" lon="14.0327292"><ele>568.0</ele><time>2026-04-25T09:09:39.072Z</time></trkpt><trkpt lat="45.4659188" lon="14.0326149"><ele>569.5</ele><time>2026-04-25T09:09:40.082Z</time></trkpt><trkpt lat="45.4659349" lon="14.0325126"><ele>571.0</ele><time>2026-04-25T09:09:41.08Z</time></trkpt><trkpt lat="45.4659192" lon="14.0324095"><ele>572.5</ele><time>2026-04-25T09:09:42.083Z</time></trkpt><trkpt lat="45.4658891" lon="14.0323096"><ele>574.0</ele><time>2026-04-25T09:09:43.103Z</time></trkpt><trkpt lat="45.4658561" lon="14.0322169"><ele>575.8333333333334</ele><time>2026-04-25T09:09:44.069Z</time></trkpt><trkpt lat="45.4658068" lon="14.0321409"><ele>577.6666666666667</ele><time>2026-04-25T09:09:45.079Z</time></trkpt><trkpt lat="45.4657495" lon="14.0320884"><ele>579.5</ele><time>2026-04-25T09:09:46.072Z</time></trkpt><trkpt lat="45.4657348" lon="14.0319896"><ele>581.3333333333334</ele><time>2026-04-25T09:09:48.074Z</time></trkpt><trkpt lat="45.4658117" lon="14.0318908"><ele>583.1666666666666</ele><time>2026-04-25T09:09:50.072Z</time></trkpt><trkpt lat="45.4658927" lon="14.0318093"><ele>585.0</ele><time>2026-04-25T09:09:51.075Z</time></trkpt><trkpt lat="45.4659768" lon="14.031727"><ele>585.0</ele><time>2026-04-25T09:09:52.071Z</time></trkpt><trkpt lat="45.4660541" lon="14.0316526"><ele>585.0</ele><time>2026-04-25T09:09:53.086Z</time></trkpt><trkpt lat="45.4661201" lon="14.0316027"><ele>585.0</ele><time>2026-04-25T09:09:54.079Z</time></trkpt><trkpt lat="45.4661898" lon="14.0315948"><ele>585.0</ele><time>2026-04-25T09:09:55.091Z</time></trkpt><trkpt lat="45.4662621" lon="14.0315988"><ele>585.0</ele><time>2026-04-25T09:09:56.073Z</time></trkpt><trkpt lat="45.4663368" lon="14.0315828"><ele>585.0</ele><time>2026-04-25T09:09:57.079Z</time></trkpt><trkpt lat="45.4664083" lon="14.031533"><ele>588.0</ele><time>2026-04-25T09:09:58.085Z</time></trkpt><trkpt lat="45.4664789" lon="14.0314673"><ele>591.0</ele><time>2026-04-25T09:09:59.081Z</time></trkpt><trkpt lat="45.4665667" lon="14.031385"><ele>594.0</ele><time>2026-04-25T09:10:00.091Z</time></trkpt><trkpt lat="45.4666644" lon="14.0312943"><ele>597.0</ele><time>2026-04-25T09:10:01.079Z</time></trkpt><trkpt lat="45.4667711" lon="14.031207"><ele>600.0</ele><time>2026-04-25T09:10:02.086Z</time></trkpt><trkpt lat="45.4668454" lon="14.0311262"><ele>600.0</ele><time>2026-04-25T09:10:03.078Z</time></trkpt><trkpt lat="45.4668849" lon="14.0310473"><ele>600.0</ele><time>2026-04-25T09:10:04.078Z</time></trkpt><trkpt lat="45.466922" lon="14.0309594"><ele>600.0</ele><time>2026-04-25T09:10:05.077Z</time></trkpt><trkpt lat="45.4669668" lon="14.0308498"><ele>600.0</ele><time>2026-04-25T09:10:06.094Z</time></trkpt><trkpt lat="45.4670206" lon="14.0307359"><ele>600.0</ele><time>2026-04-25T09:10:07.081Z</time></trkpt><trkpt lat="45.4670933" lon="14.0306395"><ele>600.0</ele><time>2026-04-25T09:10:08.098Z</time></trkpt><trkpt lat="45.4671828" lon="14.0305655"><ele>600.6</ele><time>2026-04-25T09:10:09.072Z</time></trkpt><trkpt lat="45.4672638" lon="14.0304878"><ele>601.2</ele><time>2026-04-25T09:10:10.08Z</time></trkpt><trkpt lat="45.467328" lon="14.0303878"><ele>601.8</ele><time>2026-04-25T09:10:11.085Z</time></trkpt><trkpt lat="45.4673926" lon="14.0302809"><ele>602.4</ele><time>2026-04-25T09:10:12.081Z</time></trkpt><trkpt lat="45.4674748" lon="14.0301734"><ele>603.0</ele><time>2026-04-25T09:10:13.083Z</time></trkpt><trkpt lat="45.467571" lon="14.0300742"><ele>606.0</ele><time>2026-04-25T09:10:14.094Z</time></trkpt><trkpt lat="45.4676724" lon="14.0299412"><ele>609.0</ele><time>2026-04-25T09:10:15.084Z</time></trkpt><trkpt lat="45.4677675" lon="14.0297967"><ele>612.0</ele><time>2026-04-25T09:10:16.089Z</time></trkpt><trkpt lat="45.4678622" lon="14.0296602"><ele>615.0</ele><time>2026-04-25T09:10:17.081Z</time></trkpt><trkpt lat="45.4679323" lon="14.0295565"><ele>614.0</ele><time>2026-04-25T09:10:18.079Z</time></trkpt><trkpt lat="45.4679838" lon="14.0294516"><ele>613.0</ele><time>2026-04-25T09:10:19.08Z</time></trkpt><trkpt lat="45.4680043" lon="14.0293576"><ele>612.0</ele><time>2026-04-25T09:10:20.083Z</time></trkpt><trkpt lat="45.4679764" lon="14.0292195"><ele>611.0</ele><time>2026-04-25T09:10:22.073Z</time></trkpt><trkpt lat="45.4679002" lon="14.0290932"><ele>610.0</ele><time>2026-04-25T09:10:24.083Z</time></trkpt><trkpt lat="45.4678605" lon="14.0290173"><ele>609.0</ele><time>2026-04-25T09:10:25.083Z</time></trkpt><trkpt lat="45.4678101" lon="14.0289557"><ele>613.0</ele><time>2026-04-25T09:10:26.088Z</time></trkpt><trkpt lat="45.4677311" lon="14.0288876"><ele>617.0</ele><time>2026-04-25T09:10:27.085Z</time></trkpt><trkpt lat="45.4676483" lon="14.0288092"><ele>621.0</ele><time>2026-04-25T09:10:28.088Z</time></trkpt><trkpt lat="45.4675721" lon="14.0287249"><ele>625.0</ele><time>2026-04-25T09:10:29.084Z</time></trkpt><trkpt lat="45.4675192" lon="14.0286296"><ele>629.0</ele><time>2026-04-25T09:10:30.099Z</time></trkpt><trkpt lat="45.4674832" lon="14.0285193"><ele>629.0</ele><time>2026-04-25T09:10:31.092Z</time></trkpt><trkpt lat="45.4674654" lon="14.028397"><ele>629.0</ele><time>2026-04-25T09:10:32.076Z</time></trkpt><trkpt lat="45.4674604" lon="14.0282203"><ele>629.0</ele><time>2026-04-25T09:10:33.079Z</time></trkpt><trkpt lat="45.4674575" lon="14.0280316"><ele>629.0</ele><time>2026-04-25T09:10:34.081Z</time></trkpt><trkpt lat="45.4674584" lon="14.0278613"><ele>631.8</ele><time>2026-04-25T09:10:35.081Z</time></trkpt><trkpt lat="45.4674797" lon="14.0277225"><ele>634.5999999999999</ele><time>2026-04-25T09:10:36.107Z</time></trkpt><trkpt lat="45.4675174" lon="14.0276101"><ele>637.4</ele><time>2026-04-25T09:10:37.069Z</time></trkpt><trkpt lat="45.4675705" lon="14.0274921"><ele>640.1999999999999</ele><time>2026-04-25T09:10:38.078Z</time></trkpt><trkpt lat="45.4676395" lon="14.0273507"><ele>643.0</ele><time>2026-04-25T09:10:39.083Z</time></trkpt><trkpt lat="45.4677134" lon="14.0272077"><ele>644.8</ele><time>2026-04-25T09:10:40.077Z</time></trkpt><trkpt lat="45.4677801" lon="14.0270794"><ele>646.5999999999999</ele><time>2026-04-25T09:10:41.088Z</time></trkpt><trkpt lat="45.4678448" lon="14.0269633"><ele>648.4000000000001</ele><time>2026-04-25T09:10:42.08Z</time></trkpt><trkpt lat="45.4679165" lon="14.0268589"><ele>650.2</ele><time>2026-04-25T09:10:43.082Z</time></trkpt><trkpt lat="45.4679803" lon="14.0267617"><ele>652.0</ele><time>2026-04-25T09:10:44.077Z</time></trkpt><trkpt lat="45.4680181" lon="14.0266723"><ele>652.1666666666667</ele><time>2026-04-25T09:10:45.084Z</time></trkpt><trkpt lat="45.46805" lon="14.0265817"><ele>652.3333333333334</ele><time>2026-04-25T09:10:46.084Z</time></trkpt><trkpt lat="45.4680897" lon="14.0265035"><ele>652.5</ele><time>2026-04-25T09:10:47.084Z</time></trkpt><trkpt lat="45.468155" lon="14.0264323"><ele>652.6666666666666</ele><time>2026-04-25T09:10:48.117Z</time></trkpt><trkpt lat="45.4682285" lon="14.0263666"><ele>652.8333333333333</ele><time>2026-04-25T09:10:49.083Z</time></trkpt><trkpt lat="45.4682953" lon="14.0263105"><ele>653.0</ele><time>2026-04-25T09:10:50.092Z</time></trkpt><trkpt lat="45.4683498" lon="14.0261858"><ele>653.0</ele><time>2026-04-25T09:10:52.085Z</time></trkpt><trkpt lat="45.468342" lon="14.0260963"><ele>653.0</ele><time>2026-04-25T09:10:53.09Z</time></trkpt><trkpt lat="45.4683141" lon="14.0259813"><ele>653.0</ele><time>2026-04-25T09:10:54.086Z</time></trkpt><trkpt lat="45.4682421" lon="14.0258499"><ele>653.0</ele><time>2026-04-25T09:10:55.074Z</time></trkpt><trkpt lat="45.4681525" lon="14.0257179"><ele>653.0</ele><time>2026-04-25T09:10:56.086Z</time></trkpt><trkpt lat="45.4680658" lon="14.0255835"><ele>653.0</ele><time>2026-04-25T09:10:57.081Z</time></trkpt><trkpt lat="45.4679931" lon="14.0254284"><ele>653.0</ele><time>2026-04-25T09:10:58.092Z</time></trkpt><trkpt lat="45.4679255" lon="14.0252811"><ele>653.0</ele><time>2026-04-25T09:10:59.086Z</time></trkpt><trkpt lat="45.4678516" lon="14.0251396"><ele>653.0</ele><time>2026-04-25T09:11:00.087Z</time></trkpt><trkpt lat="45.4677901" lon="14.0250021"><ele>658.5999999999999</ele><time>2026-04-25T09:11:01.09Z</time></trkpt><trkpt lat="45.4677451" lon="14.0248547"><ele>664.1999999999999</ele><time>2026-04-25T09:11:02.088Z</time></trkpt><trkpt lat="45.4677169" lon="14.0247051"><ele>669.8</ele><time>2026-04-25T09:11:03.088Z</time></trkpt><trkpt lat="45.467701" lon="14.0246031"><ele>675.4</ele><time>2026-04-25T09:11:04.093Z</time></trkpt><trkpt lat="45.4676438" lon="14.0245361"><ele>681.0</ele><time>2026-04-25T09:11:07.088Z</time></trkpt><trkpt lat="45.4675993" lon="14.0246409"><ele>681.0</ele><time>2026-04-25T09:11:09.076Z</time></trkpt><trkpt lat="45.4675883" lon="14.0247461"><ele>681.0</ele><time>2026-04-25T09:11:10.11Z</time></trkpt><trkpt lat="45.4675894" lon="14.0249205"><ele>681.0</ele><time>2026-04-25T09:11:11.071Z</time></trkpt><trkpt lat="45.4675663" lon="14.0250736"><ele>681.0</ele><time>2026-04-25T09:11:12.077Z</time></trkpt><trkpt lat="45.4675099" lon="14.0252241"><ele>681.0</ele><time>2026-04-25T09:11:13.092Z</time></trkpt><trkpt lat="45.4674411" lon="14.0253806"><ele>680.0</ele><time>2026-04-25T09:11:14.076Z</time></trkpt><trkpt lat="45.4673732" lon="14.0255294"><ele>679.0</ele><time>2026-04-25T09:11:15.099Z</time></trkpt><trkpt lat="45.4673007" lon="14.0256598"><ele>678.0</ele><time>2026-04-25T09:11:16.085Z</time></trkpt><trkpt lat="45.4672417" lon="14.0257353"><ele>677.0</ele><time>2026-04-25T09:11:17.094Z</time></trkpt><trkpt lat="45.4671453" lon="14.0257526"><ele>676.0</ele><time>2026-04-25T09:11:19.082Z</time></trkpt><trkpt lat="45.4670538" lon="14.0257008"><ele>681.0</ele><time>2026-04-25T09:11:21.088Z</time></trkpt><trkpt lat="45.4669907" lon="14.0255319"><ele>686.0</ele><time>2026-04-25T09:11:23.076Z</time></trkpt><trkpt lat="45.4669607" lon="14.0254164"><ele>691.0</ele><time>2026-04-25T09:11:24.088Z</time></trkpt><trkpt lat="45.4669378" lon="14.0252854"><ele>696.0</ele><time>2026-04-25T09:11:25.081Z</time></trkpt><trkpt lat="45.4669285" lon="14.0251397"><ele>701.0</ele><time>2026-04-25T09:11:26.103Z</time></trkpt><trkpt lat="45.4669202" lon="14.0250006"><ele>703.1999999999999</ele><time>2026-04-25T09:11:27.094Z</time></trkpt><trkpt lat="45.4669071" lon="14.0248808"><ele>705.4</ele><time>2026-04-25T09:11:28.091Z</time></trkpt><trkpt lat="45.4668847" lon="14.0247872"><ele>707.6</ele><time>2026-04-25T09:11:29.087Z</time></trkpt><trkpt lat="45.4668219" lon="14.0246374"><ele>709.8</ele><time>2026-04-25T09:11:31.084Z</time></trkpt><trkpt lat="45.4667204" lon="14.0246041"><ele>712.0</ele><time>2026-04-25T09:11:33.076Z</time></trkpt><trkpt lat="45.4665997" lon="14.0246886"><ele>712.0</ele><time>2026-04-25T09:11:35.078Z</time></trkpt><trkpt lat="45.4665264" lon="14.0247468"><ele>712.0</ele><time>2026-04-25T09:11:36.08Z</time></trkpt><trkpt lat="45.4664368" lon="14.0248238"><ele>712.0</ele><time>2026-04-25T09:11:37.08Z</time></trkpt><trkpt lat="45.4663501" lon="14.024909"><ele>712.0</ele><time>2026-04-25T09:11:38.102Z</time></trkpt><trkpt lat="45.4662769" lon="14.02501"><ele>712.0</ele><time>2026-04-25T09:11:39.085Z</time></trkpt><trkpt lat="45.4662134" lon="14.0251446"><ele>715.3333333333334</ele><time>2026-04-25T09:11:40.086Z</time></trkpt><trkpt lat="45.4661795" lon="14.0252894"><ele>718.6666666666667</ele><time>2026-04-25T09:11:41.084Z</time></trkpt><trkpt lat="45.4661515" lon="14.0254123"><ele>722.0</ele><time>2026-04-25T09:11:42.076Z</time></trkpt><trkpt lat="45.4661103" lon="14.0254998"><ele>725.3333333333334</ele><time>2026-04-25T09:11:43.089Z</time></trkpt><trkpt lat="45.4660654" lon="14.0255809"><ele>728.6666666666666</ele><time>2026-04-25T09:11:44.078Z</time></trkpt><trkpt lat="45.4660185" lon="14.025677"><ele>732.0</ele><time>2026-04-25T09:11:45.096Z</time></trkpt><trkpt lat="45.4659655" lon="14.0257837"><ele>728.0</ele><time>2026-04-25T09:11:46.087Z</time></trkpt><trkpt lat="45.465908" lon="14.025902"><ele>724.0</ele><time>2026-04-25T09:11:47.082Z</time></trkpt><trkpt lat="45.4658298" lon="14.026054"><ele>720.0</ele><time>2026-04-25T09:11:48.09Z</time></trkpt><trkpt lat="45.4657532" lon="14.0262207"><ele>716.0</ele><time>2026-04-25T09:11:49.09Z</time></trkpt><trkpt lat="45.4656762" lon="14.0263807"><ele>716.0</ele><time>2026-04-25T09:11:50.09Z</time></trkpt><trkpt lat="45.4655972" lon="14.0265434"><ele>716.0</ele><time>2026-04-25T09:11:51.084Z</time></trkpt><trkpt lat="45.4655143" lon="14.0266825"><ele>716.0</ele><time>2026-04-25T09:11:52.098Z</time></trkpt><trkpt lat="45.4654361" lon="14.0268078"><ele>716.0</ele><time>2026-04-25T09:11:53.086Z</time></trkpt><trkpt lat="45.46536" lon="14.0269287"><ele>716.5999999999999</ele><time>2026-04-25T09:11:54.09Z</time></trkpt><trkpt lat="45.4653002" lon="14.0270321"><ele>717.2</ele><time>2026-04-25T09:11:55.084Z</time></trkpt><trkpt lat="45.4652258" lon="14.0271061"><ele>717.8</ele><time>2026-04-25T09:11:57.082Z</time></trkpt><trkpt lat="45.4651465" lon="14.0270897"><ele>718.4000000000001</ele><time>2026-04-25T09:11:59.086Z</time></trkpt><trkpt lat="45.4650355" lon="14.0270648"><ele>719.0</ele><time>2026-04-25T09:12:01.09Z</time></trkpt><trkpt lat="45.4649473" lon="14.0270907"><ele>719.0</ele><time>2026-04-25T09:12:02.082Z</time></trkpt><trkpt lat="45.464864" lon="14.0271513"><ele>719.0</ele><time>2026-04-25T09:12:03.082Z</time></trkpt><trkpt lat="45.4647644" lon="14.0272303"><ele>719.0</ele><time>2026-04-25T09:12:04.08Z</time></trkpt><trkpt lat="45.464647" lon="14.0273329"><ele>719.0</ele><time>2026-04-25T09:12:05.079Z</time></trkpt><trkpt lat="45.4645494" lon="14.0274579"><ele>721.0</ele><time>2026-04-25T09:12:06.077Z</time></trkpt><trkpt lat="45.4644791" lon="14.0275801"><ele>723.0</ele><time>2026-04-25T09:12:07.081Z</time></trkpt><trkpt lat="45.4644353" lon="14.0276955"><ele>725.0</ele><time>2026-04-25T09:12:08.079Z</time></trkpt><trkpt lat="45.4644157" lon="14.027809"><ele>727.0</ele><time>2026-04-25T09:12:09.091Z</time></trkpt><trkpt lat="45.4643859" lon="14.0279055"><ele>729.0</ele><time>2026-04-25T09:12:10.084Z</time></trkpt><trkpt lat="45.4643403" lon="14.0279707"><ele>731.0</ele><time>2026-04-25T09:12:11.092Z</time></trkpt><trkpt lat="45.4642334" lon="14.0280665"><ele>731.0</ele><time>2026-04-25T09:12:13.088Z</time></trkpt><trkpt lat="45.4641575" lon="14.0281028"><ele>731.0</ele><time>2026-04-25T09:12:14.088Z</time></trkpt><trkpt lat="45.4640673" lon="14.0281628"><ele>731.0</ele><time>2026-04-25T09:12:15.084Z</time></trkpt><trkpt lat="45.4639698" lon="14.0282487"><ele>731.0</ele><time>2026-04-25T09:12:16.078Z</time></trkpt><trkpt lat="45.4638673" lon="14.0283541"><ele>731.0</ele><time>2026-04-25T09:12:17.072Z</time></trkpt><trkpt lat="45.4637589" lon="14.0284815"><ele>735.75</ele><time>2026-04-25T09:12:18.08Z</time></trkpt><trkpt lat="45.4636556" lon="14.0286089"><ele>740.5</ele><time>2026-04-25T09:12:19.072Z</time></trkpt><trkpt lat="45.463553" lon="14.0287269"><ele>745.25</ele><time>2026-04-25T09:12:20.074Z</time></trkpt><trkpt lat="45.4634541" lon="14.0288503"><ele>750.0</ele><time>2026-04-25T09:12:21.078Z</time></trkpt><trkpt lat="45.4633443" lon="14.0289765"><ele>750.0</ele><time>2026-04-25T09:12:22.081Z</time></trkpt><trkpt lat="45.4632259" lon="14.0291"><ele>750.0</ele><time>2026-04-25T09:12:23.074Z</time></trkpt><trkpt lat="45.4631053" lon="14.029222"><ele>750.0</ele><time>2026-04-25T09:12:24.079Z</time></trkpt><trkpt lat="45.4629863" lon="14.0293457"><ele>750.0</ele><time>2026-04-25T09:12:25.082Z</time></trkpt><trkpt lat="45.4628709" lon="14.0294729"><ele>752.25</ele><time>2026-04-25T09:12:26.079Z</time></trkpt><trkpt lat="45.4627646" lon="14.0296002"><ele>754.5</ele><time>2026-04-25T09:12:27.079Z</time></trkpt><trkpt lat="45.4626575" lon="14.0297232"><ele>756.75</ele><time>2026-04-25T09:12:28.078Z</time></trkpt><trkpt lat="45.4625536" lon="14.0298105"><ele>759.0</ele><time>2026-04-25T09:12:29.089Z</time></trkpt><trkpt lat="45.4624526" lon="14.029876"><ele>759.0</ele><time>2026-04-25T09:12:30.087Z</time></trkpt><trkpt lat="45.4623511" lon="14.0299275"><ele>759.0</ele><time>2026-04-25T09:12:31.08Z</time></trkpt><trkpt lat="45.4622255" lon="14.0300016"><ele>759.0</ele><time>2026-04-25T09:12:32.082Z</time></trkpt><trkpt lat="45.462104" lon="14.0301065"><ele>759.0</ele><time>2026-04-25T09:12:33.079Z</time></trkpt><trkpt lat="45.4619814" lon="14.0302483"><ele>760.25</ele><time>2026-04-25T09:12:34.08Z</time></trkpt><trkpt lat="45.4618771" lon="14.0304013"><ele>761.5</ele><time>2026-04-25T09:12:35.088Z</time></trkpt><trkpt lat="45.461776" lon="14.030542"><ele>762.75</ele><time>2026-04-25T09:12:36.078Z</time></trkpt><trkpt lat="45.4616855" lon="14.0306805"><ele>764.0</ele><time>2026-04-25T09:12:37.078Z</time></trkpt><trkpt lat="45.4616033" lon="14.0308183"><ele>758.75</ele><time>2026-04-25T09:12:38.075Z</time></trkpt><trkpt lat="45.4615102" lon="14.0309513"><ele>753.5</ele><time>2026-04-25T09:12:39.07Z</time></trkpt><trkpt lat="45.4614234" lon="14.0310971"><ele>748.25</ele><time>2026-04-25T09:12:40.084Z</time></trkpt><trkpt lat="45.4613604" lon="14.0312635"><ele>743.0</ele><time>2026-04-25T09:12:41.077Z</time></trkpt><trkpt lat="45.461322" lon="14.0314376"><ele>743.0</ele><time>2026-04-25T09:12:42.077Z</time></trkpt><trkpt lat="45.4612846" lon="14.0316083"><ele>743.0</ele><time>2026-04-25T09:12:43.081Z</time></trkpt><trkpt lat="45.4612467" lon="14.0317575"><ele>743.0</ele><time>2026-04-25T09:12:44.089Z</time></trkpt><trkpt lat="45.4612065" lon="14.0318891"><ele>743.0</ele><time>2026-04-25T09:12:45.073Z</time></trkpt><trkpt lat="45.4611645" lon="14.0320443"><ele>745.4</ele><time>2026-04-25T09:12:46.092Z</time></trkpt><trkpt lat="45.4611162" lon="14.0321822"><ele>747.8</ele><time>2026-04-25T09:12:47.073Z</time></trkpt><trkpt lat="45.4610673" lon="14.0323194"><ele>750.2</ele><time>2026-04-25T09:12:48.079Z</time></trkpt><trkpt lat="45.4610027" lon="14.0324472"><ele>752.6</ele><time>2026-04-25T09:12:49.077Z</time></trkpt><trkpt lat="45.4609311" lon="14.0325748"><ele>755.0</ele><time>2026-04-25T09:12:50.086Z</time></trkpt><trkpt lat="45.4608635" lon="14.0327043"><ele>751.0</ele><time>2026-04-25T09:12:51.084Z</time></trkpt><trkpt lat="45.4608011" lon="14.0328326"><ele>747.0</ele><time>2026-04-25T09:12:52.078Z</time></trkpt><trkpt lat="45.460758" lon="14.0329392"><ele>743.0</ele><time>2026-04-25T09:12:53.08Z</time></trkpt><trkpt lat="45.4607329" lon="14.033029"><ele>739.0</ele><time>2026-04-25T09:12:54.082Z</time></trkpt><trkpt lat="45.4607073" lon="14.0331406"><ele>735.0</ele><time>2026-04-25T09:12:56.078Z</time></trkpt><trkpt lat="45.4606748" lon="14.0332435"><ele>731.0</ele><time>2026-04-25T09:13:47.082Z</time></trkpt><trkpt lat="45.4605949" lon="14.0333596"><ele>730.8</ele><time>2026-04-25T09:13:49.091Z</time></trkpt><trkpt lat="45.4605299" lon="14.0334343"><ele>730.5999999999999</ele><time>2026-04-25T09:13:50.084Z</time></trkpt><trkpt lat="45.4604563" lon="14.0335097"><ele>730.4</ele><time>2026-04-25T09:13:51.082Z</time></trkpt><trkpt lat="45.4603841" lon="14.0335813"><ele>730.2</ele><time>2026-04-25T09:13:52.087Z</time></trkpt><trkpt lat="45.4603061" lon="14.033659"><ele>730.0</ele><time>2026-04-25T09:13:53.082Z</time></trkpt><trkpt lat="45.4602205" lon="14.0337325"><ele>730.0</ele><time>2026-04-25T09:13:54.085Z</time></trkpt><trkpt lat="45.4601245" lon="14.0338089"><ele>730.0</ele><time>2026-04-25T09:13:55.078Z</time></trkpt><trkpt lat="45.460012" lon="14.0338994"><ele>730.0</ele><time>2026-04-25T09:13:56.091Z</time></trkpt><trkpt lat="45.4598939" lon="14.0339921"><ele>730.0</ele><time>2026-04-25T09:13:57.083Z</time></trkpt><trkpt lat="45.4597719" lon="14.0340801"><ele>727.5</ele><time>2026-04-25T09:13:58.086Z</time></trkpt><trkpt lat="45.4596557" lon="14.0341648"><ele>725.0</ele><time>2026-04-25T09:13:59.082Z</time></trkpt><trkpt lat="45.4595464" lon="14.0342506"><ele>722.5</ele><time>2026-04-25T09:14:00.084Z</time></trkpt><trkpt lat="45.4594326" lon="14.0343343"><ele>720.0</ele><time>2026-04-25T09:14:01.078Z</time></trkpt><trkpt lat="45.4593179" lon="14.0344222"><ele>720.0</ele><time>2026-04-25T09:14:02.078Z</time></trkpt><trkpt lat="45.4592116" lon="14.0345258"><ele>720.0</ele><time>2026-04-25T09:14:03.083Z</time></trkpt><trkpt lat="45.4591037" lon="14.0346326"><ele>720.0</ele><time>2026-04-25T09:14:04.079Z</time></trkpt><trkpt lat="45.4590017" lon="14.0347274"><ele>720.0</ele><time>2026-04-25T09:14:05.083Z</time></trkpt><trkpt lat="45.458896" lon="14.0348098"><ele>718.75</ele><time>2026-04-25T09:14:06.08Z</time></trkpt><trkpt lat="45.4587797" lon="14.034864"><ele>717.5</ele><time>2026-04-25T09:14:07.078Z</time></trkpt><trkpt lat="45.4586613" lon="14.0349166"><ele>716.25</ele><time>2026-04-25T09:14:08.084Z</time></trkpt><trkpt lat="45.4585578" lon="14.035016"><ele>715.0</ele><time>2026-04-25T09:14:09.091Z</time></trkpt><trkpt lat="45.4584741" lon="14.0351338"><ele>715.0</ele><time>2026-04-25T09:14:10.073Z</time></trkpt><trkpt lat="45.4584212" lon="14.0352722"><ele>715.0</ele><time>2026-04-25T09:14:11.1Z</time></trkpt><trkpt lat="45.4583873" lon="14.0354305"><ele>715.0</ele><time>2026-04-25T09:14:12.079Z</time></trkpt><trkpt lat="45.4583831" lon="14.0356129"><ele>715.0</ele><time>2026-04-25T09:14:13.073Z</time></trkpt><trkpt lat="45.4583925" lon="14.0357982"><ele>712.5</ele><time>2026-04-25T09:14:14.073Z</time></trkpt><trkpt lat="45.4584077" lon="14.0359687"><ele>710.0</ele><time>2026-04-25T09:14:15.079Z</time></trkpt><trkpt lat="45.4584208" lon="14.0361402"><ele>707.5</ele><time>2026-04-25T09:14:16.084Z</time></trkpt><trkpt lat="45.4584233" lon="14.0363126"><ele>705.0</ele><time>2026-04-25T09:14:17.079Z</time></trkpt><trkpt lat="45.4584078" lon="14.0365018"><ele>703.5</ele><time>2026-04-25T09:14:18.092Z</time></trkpt><trkpt lat="45.4583767" lon="14.0366898"><ele>702.0</ele><time>2026-04-25T09:14:19.077Z</time></trkpt><trkpt lat="45.4583299" lon="14.0368824"><ele>700.5</ele><time>2026-04-25T09:14:20.091Z</time></trkpt><trkpt lat="45.4582692" lon="14.0370729"><ele>699.0</ele><time>2026-04-25T09:14:21.083Z</time></trkpt><trkpt lat="45.4581988" lon="14.0372638"><ele>699.0</ele><time>2026-04-25T09:14:22.083Z</time></trkpt><trkpt lat="45.4581215" lon="14.0374384"><ele>699.0</ele><time>2026-04-25T09:14:23.079Z</time></trkpt><trkpt lat="45.4580423" lon="14.0376011"><ele>699.0</ele><time>2026-04-25T09:14:24.081Z</time></trkpt><trkpt lat="45.4579644" lon="14.0377657"><ele>699.0</ele><time>2026-04-25T09:14:25.073Z</time></trkpt><trkpt lat="45.4578913" lon="14.0379485"><ele>701.0</ele><time>2026-04-25T09:14:26.079Z</time></trkpt><trkpt lat="45.4578261" lon="14.0381357"><ele>703.0</ele><time>2026-04-25T09:14:27.077Z</time></trkpt><trkpt lat="45.457761" lon="14.0383339"><ele>705.0</ele><time>2026-04-25T09:14:28.082Z</time></trkpt><trkpt lat="45.457695" lon="14.0385314"><ele>705.0</ele><time>2026-04-25T09:14:29.085Z</time></trkpt><trkpt lat="45.4576292" lon="14.038736"><ele>705.0</ele><time>2026-04-25T09:14:30.082Z</time></trkpt><trkpt lat="45.4575618" lon="14.0389428"><ele>705.0</ele><time>2026-04-25T09:14:31.09Z</time></trkpt><trkpt lat="45.4574997" lon="14.0391336"><ele>703.0</ele><time>2026-04-25T09:14:32.077Z</time></trkpt><trkpt lat="45.4574357" lon="14.0393042"><ele>701.0</ele><time>2026-04-25T09:14:33.073Z</time></trkpt><trkpt lat="45.457379" lon="14.0394644"><ele>699.0</ele><time>2026-04-25T09:14:34.081Z</time></trkpt><trkpt lat="45.4573415" lon="14.0396222"><ele>697.0</ele><time>2026-04-25T09:14:35.081Z</time></trkpt><trkpt lat="45.4573434" lon="14.0397988"><ele>696.0</ele><time>2026-04-25T09:14:36.076Z</time></trkpt><trkpt lat="45.4573748" lon="14.0399767"><ele>695.0</ele><time>2026-04-25T09:14:37.087Z</time></trkpt><trkpt lat="45.4574128" lon="14.0401419"><ele>694.0</ele><time>2026-04-25T09:14:38.072Z</time></trkpt><trkpt lat="45.4574458" lon="14.0402927"><ele>693.0</ele><time>2026-04-25T09:14:39.083Z</time></trkpt><trkpt lat="45.4574676" lon="14.0404447"><ele>693.0</ele><time>2026-04-25T09:14:40.081Z</time></trkpt><trkpt lat="45.4574691" lon="14.040591"><ele>693.0</ele><time>2026-04-25T09:14:41.077Z</time></trkpt><trkpt lat="45.4574374" lon="14.0407468"><ele>693.0</ele><time>2026-04-25T09:14:42.088Z</time></trkpt><trkpt lat="45.4573833" lon="14.040905"><ele>693.0</ele><time>2026-04-25T09:14:43.075Z</time></trkpt><trkpt lat="45.457307" lon="14.0410627"><ele>693.75</ele><time>2026-04-25T09:14:44.072Z</time></trkpt><trkpt lat="45.4572085" lon="14.0411858"><ele>694.5</ele><time>2026-04-25T09:14:45.067Z</time></trkpt><trkpt lat="45.4570954" lon="14.0412686"><ele>695.25</ele><time>2026-04-25T09:14:46.07Z</time></trkpt><trkpt lat="45.4569724" lon="14.0413311"><ele>696.0</ele><time>2026-04-25T09:14:47.078Z</time></trkpt><trkpt lat="45.456849" lon="14.0413802"><ele>696.0</ele><time>2026-04-25T09:14:48.066Z</time></trkpt><trkpt lat="45.4567405" lon="14.0414318"><ele>696.0</ele><time>2026-04-25T09:14:49.075Z</time></trkpt><trkpt lat="45.4566442" lon="14.0414977"><ele>696.0</ele><time>2026-04-25T09:14:50.07Z</time></trkpt><trkpt lat="45.4565666" lon="14.04158"><ele>696.0</ele><time>2026-04-25T09:14:51.073Z</time></trkpt><trkpt lat="45.4564971" lon="14.0416633"><ele>696.0</ele><time>2026-04-25T09:14:52.071Z</time></trkpt><trkpt lat="45.4564335" lon="14.0417485"><ele>695.8</ele><time>2026-04-25T09:14:53.069Z</time></trkpt><trkpt lat="45.4563819" lon="14.04185"><ele>695.5999999999999</ele><time>2026-04-25T09:14:54.073Z</time></trkpt><trkpt lat="45.4563397" lon="14.0419767"><ele>695.4</ele><time>2026-04-25T09:14:55.066Z</time></trkpt><trkpt lat="45.4563044" lon="14.0420963"><ele>695.2</ele><time>2026-04-25T09:14:56.082Z</time></trkpt><trkpt lat="45.45626" lon="14.0422263"><ele>695.0</ele><time>2026-04-25T09:14:57.078Z</time></trkpt><trkpt lat="45.456223" lon="14.0423638"><ele>695.6</ele><time>2026-04-25T09:14:58.077Z</time></trkpt><trkpt lat="45.4561851" lon="14.0424967"><ele>696.2</ele><time>2026-04-25T09:14:59.073Z</time></trkpt><trkpt lat="45.4561497" lon="14.0426185"><ele>696.8</ele><time>2026-04-25T09:15:00.075Z</time></trkpt><trkpt lat="45.4561143" lon="14.0427388"><ele>697.4</ele><time>2026-04-25T09:15:01.075Z</time></trkpt><trkpt lat="45.4560813" lon="14.042843"><ele>698.0</ele><time>2026-04-25T09:15:02.073Z</time></trkpt><trkpt lat="45.4560516" lon="14.0429582"><ele>698.0</ele><time>2026-04-25T09:15:03.079Z</time></trkpt><trkpt lat="45.456038" lon="14.0430829"><ele>698.0</ele><time>2026-04-25T09:15:04.083Z</time></trkpt><trkpt lat="45.4560384" lon="14.0432361"><ele>698.0</ele><time>2026-04-25T09:15:05.078Z</time></trkpt><trkpt lat="45.4560371" lon="14.0434028"><ele>698.0</ele><time>2026-04-25T09:15:06.08Z</time></trkpt><trkpt lat="45.4560461" lon="14.0435842"><ele>698.0</ele><time>2026-04-25T09:15:07.088Z</time></trkpt><trkpt lat="45.4560553" lon="14.043784"><ele>698.3333333333333</ele><time>2026-04-25T09:15:08.078Z</time></trkpt><trkpt lat="45.4560617" lon="14.044011"><ele>698.6666666666666</ele><time>2026-04-25T09:15:09.085Z</time></trkpt><trkpt lat="45.4560529" lon="14.0442397"><ele>699.0</ele><time>2026-04-25T09:15:10.077Z</time></trkpt><trkpt lat="45.4560371" lon="14.0444813"><ele>697.3333333333334</ele><time>2026-04-25T09:15:11.083Z</time></trkpt><trkpt lat="45.4560203" lon="14.0447225"><ele>695.6666666666667</ele><time>2026-04-25T09:15:12.075Z</time></trkpt><trkpt lat="45.4560025" lon="14.0449563"><ele>694.0</ele><time>2026-04-25T09:15:13.08Z</time></trkpt><trkpt lat="45.4559912" lon="14.0451816"><ele>694.0</ele><time>2026-04-25T09:15:14.077Z</time></trkpt><trkpt lat="45.4559791" lon="14.0454033"><ele>694.0</ele><time>2026-04-25T09:15:15.085Z</time></trkpt><trkpt lat="45.4559611" lon="14.0456279"><ele>694.0</ele><time>2026-04-25T09:15:16.076Z</time></trkpt><trkpt lat="45.4559346" lon="14.0458474"><ele>694.5</ele><time>2026-04-25T09:15:17.081Z</time></trkpt><trkpt lat="45.4559042" lon="14.0460667"><ele>695.0</ele><time>2026-04-25T09:15:18.081Z</time></trkpt><trkpt lat="45.4558821" lon="14.0462701"><ele>695.5</ele><time>2026-04-25T09:15:19.08Z</time></trkpt><trkpt lat="45.4558618" lon="14.0464664"><ele>696.0</ele><time>2026-04-25T09:15:20.094Z</time></trkpt><trkpt lat="45.4558385" lon="14.046651"><ele>697.0</ele><time>2026-04-25T09:15:21.078Z</time></trkpt><trkpt lat="45.4558151" lon="14.0468225"><ele>698.0</ele><time>2026-04-25T09:15:22.076Z</time></trkpt><trkpt lat="45.4557879" lon="14.0469973"><ele>699.0</ele><time>2026-04-25T09:15:23.078Z</time></trkpt><trkpt lat="45.4557589" lon="14.0471729"><ele>700.0</ele><time>2026-04-25T09:15:24.079Z</time></trkpt><trkpt lat="45.4557198" lon="14.0473475"><ele>701.6</ele><time>2026-04-25T09:15:25.079Z</time></trkpt><trkpt lat="45.455676" lon="14.0475187"><ele>703.2</ele><time>2026-04-25T09:15:26.076Z</time></trkpt><trkpt lat="45.4556268" lon="14.0476637"><ele>704.8</ele><time>2026-04-25T09:15:27.083Z</time></trkpt><trkpt lat="45.4555733" lon="14.0477753"><ele>706.4</ele><time>2026-04-25T09:15:28.073Z</time></trkpt><trkpt lat="45.4555096" lon="14.0478718"><ele>708.0</ele><time>2026-04-25T09:15:29.066Z</time></trkpt><trkpt lat="45.4554223" lon="14.0479219"><ele>704.3333333333334</ele><time>2026-04-25T09:15:30.067Z</time></trkpt><trkpt lat="45.4553212" lon="14.0479329"><ele>700.6666666666666</ele><time>2026-04-25T09:15:31.067Z</time></trkpt><trkpt lat="45.4552325" lon="14.0479236"><ele>697.0</ele><time>2026-04-25T09:15:32.071Z</time></trkpt><trkpt lat="45.4551534" lon="14.0479324"><ele>693.3333333333333</ele><time>2026-04-25T09:15:33.071Z</time></trkpt><trkpt lat="45.4550812" lon="14.0479707"><ele>689.6666666666666</ele><time>2026-04-25T09:15:34.083Z</time></trkpt><trkpt lat="45.4550266" lon="14.0480424"><ele>686.0</ele><time>2026-04-25T09:15:35.069Z</time></trkpt><trkpt lat="45.4549864" lon="14.0481483"><ele>686.0</ele><time>2026-04-25T09:15:36.077Z</time></trkpt><trkpt lat="45.4549392" lon="14.0482729"><ele>686.0</ele><time>2026-04-25T09:15:37.061Z</time></trkpt><trkpt lat="45.4548927" lon="14.0484114"><ele>686.0</ele><time>2026-04-25T09:15:38.072Z</time></trkpt><trkpt lat="45.4548415" lon="14.0485568"><ele>686.0</ele><time>2026-04-25T09:15:39.074Z</time></trkpt><trkpt lat="45.4547897" lon="14.0487031"><ele>686.0</ele><time>2026-04-25T09:15:40.077Z</time></trkpt><trkpt lat="45.4547358" lon="14.0488505"><ele>688.5</ele><time>2026-04-25T09:15:41.088Z</time></trkpt><trkpt lat="45.4546711" lon="14.0489979"><ele>691.0</ele><time>2026-04-25T09:15:42.088Z</time></trkpt><trkpt lat="45.4545933" lon="14.0491448"><ele>693.5</ele><time>2026-04-25T09:15:43.083Z</time></trkpt><trkpt lat="45.4545077" lon="14.0492765"><ele>696.0</ele><time>2026-04-25T09:15:44.078Z</time></trkpt><trkpt lat="45.4544268" lon="14.0493925"><ele>696.0</ele><time>2026-04-25T09:15:45.083Z</time></trkpt><trkpt lat="45.45434" lon="14.0495045"><ele>696.0</ele><time>2026-04-25T09:15:46.081Z</time></trkpt><trkpt lat="45.454251" lon="14.0496216"><ele>696.0</ele><time>2026-04-25T09:15:47.076Z</time></trkpt><trkpt lat="45.454171" lon="14.0497295"><ele>696.0</ele><time>2026-04-25T09:15:48.083Z</time></trkpt><trkpt lat="45.4540979" lon="14.0498442"><ele>699.1999999999999</ele><time>2026-04-25T09:15:49.077Z</time></trkpt><trkpt lat="45.4540386" lon="14.0499664"><ele>702.4</ele><time>2026-04-25T09:15:50.081Z</time></trkpt><trkpt lat="45.453985" lon="14.0500989"><ele>705.6</ele><time>2026-04-25T09:15:51.083Z</time></trkpt><trkpt lat="45.4539366" lon="14.0502465"><ele>708.8</ele><time>2026-04-25T09:15:52.094Z</time></trkpt><trkpt lat="45.4538851" lon="14.0504009"><ele>712.0</ele><time>2026-04-25T09:15:53.08Z</time></trkpt><trkpt lat="45.453835" lon="14.0505597"><ele>712.0</ele><time>2026-04-25T09:15:54.096Z</time></trkpt><trkpt lat="45.4537906" lon="14.0507006"><ele>712.0</ele><time>2026-04-25T09:15:55.076Z</time></trkpt><trkpt lat="45.4537482" lon="14.0508357"><ele>712.0</ele><time>2026-04-25T09:15:56.074Z</time></trkpt><trkpt lat="45.4536983" lon="14.0509565"><ele>712.0</ele><time>2026-04-25T09:15:57.08Z</time></trkpt><trkpt lat="45.4536351" lon="14.051042"><ele>712.0</ele><time>2026-04-25T09:15:58.078Z</time></trkpt><trkpt lat="45.453547" lon="14.0510937"><ele>711.5</ele><time>2026-04-25T09:15:59.074Z</time></trkpt><trkpt lat="45.4534601" lon="14.0511244"><ele>711.0</ele><time>2026-04-25T09:16:00.064Z</time></trkpt><trkpt lat="45.4533875" lon="14.0511735"><ele>710.5</ele><time>2026-04-25T09:16:01.069Z</time></trkpt><trkpt lat="45.4533311" lon="14.051259"><ele>710.0</ele><time>2026-04-25T09:16:02.075Z</time></trkpt><trkpt lat="45.4532885" lon="14.0513766"><ele>709.5</ele><time>2026-04-25T09:16:03.077Z</time></trkpt><trkpt lat="45.4532677" lon="14.0515065"><ele>709.0</ele><time>2026-04-25T09:16:04.067Z</time></trkpt><trkpt lat="45.4532575" lon="14.0516288"><ele>709.0</ele><time>2026-04-25T09:16:05.075Z</time></trkpt><trkpt lat="45.4532551" lon="14.0517571"><ele>709.0</ele><time>2026-04-25T09:16:06.083Z</time></trkpt><trkpt lat="45.4532618" lon="14.0518845"><ele>709.0</ele><time>2026-04-25T09:16:07.085Z</time></trkpt><trkpt lat="45.4532709" lon="14.0520212"><ele>709.0</ele><time>2026-04-25T09:16:08.101Z</time></trkpt><trkpt lat="45.4532788" lon="14.052172"><ele>709.0</ele><time>2026-04-25T09:16:09.086Z</time></trkpt><trkpt lat="45.4532798" lon="14.0523172"><ele>709.0</ele><time>2026-04-25T09:16:10.08Z</time></trkpt><trkpt lat="45.453296" lon="14.0524546"><ele>709.0</ele><time>2026-04-25T09:16:11.078Z</time></trkpt><trkpt lat="45.4533427" lon="14.0525621"><ele>709.0</ele><time>2026-04-25T09:16:12.089Z</time></trkpt><trkpt lat="45.4533939" lon="14.0526475"><ele>709.0</ele><time>2026-04-25T09:16:13.077Z</time></trkpt><trkpt lat="45.4534564" lon="14.0527301"><ele>709.0</ele><time>2026-04-25T09:16:14.086Z</time></trkpt><trkpt lat="45.4535166" lon="14.0528043"><ele>709.0</ele><time>2026-04-25T09:16:15.077Z</time></trkpt><trkpt lat="45.4535807" lon="14.0528761"><ele>709.5</ele><time>2026-04-25T09:16:16.088Z</time></trkpt><trkpt lat="45.4536283" lon="14.052945"><ele>710.0</ele><time>2026-04-25T09:16:17.084Z</time></trkpt><trkpt lat="45.4536778" lon="14.053001"><ele>710.5</ele><time>2026-04-25T09:16:25.086Z</time></trkpt><trkpt lat="45.4537408" lon="14.0530124"><ele>711.0</ele><time>2026-04-25T09:16:28.092Z</time></trkpt><trkpt lat="45.4538163" lon="14.0530533"><ele>711.5</ele><time>2026-04-25T09:16:31.089Z</time></trkpt><trkpt lat="45.4539222" lon="14.0529477"><ele>712.0</ele><time>2026-04-25T09:16:33.08Z</time></trkpt><trkpt lat="45.4539583" lon="14.0528372"><ele>715.0</ele><time>2026-04-25T09:16:34.076Z</time></trkpt><trkpt lat="45.4539796" lon="14.0527"><ele>718.0</ele><time>2026-04-25T09:16:35.074Z</time></trkpt><trkpt lat="45.4540003" lon="14.0525387"><ele>721.0</ele><time>2026-04-25T09:16:36.077Z</time></trkpt><trkpt lat="45.4540229" lon="14.052398"><ele>724.0</ele><time>2026-04-25T09:16:37.084Z</time></trkpt><trkpt lat="45.4540619" lon="14.0522899"><ele>727.0</ele><time>2026-04-25T09:16:38.081Z</time></trkpt><trkpt lat="45.454117" lon="14.052221"><ele>727.0</ele><time>2026-04-25T09:16:39.097Z</time></trkpt><trkpt lat="45.4541812" lon="14.0521895"><ele>727.0</ele><time>2026-04-25T09:16:40.079Z</time></trkpt><trkpt lat="45.4542448" lon="14.0522045"><ele>727.0</ele><time>2026-04-25T09:16:41.078Z</time></trkpt><trkpt lat="45.4543032" lon="14.0522434"><ele>727.0</ele><time>2026-04-25T09:16:42.075Z</time></trkpt><trkpt lat="45.4543638" lon="14.0523141"><ele>727.0</ele><time>2026-04-25T09:16:43.073Z</time></trkpt><trkpt lat="45.4544347" lon="14.0524288"><ele>727.0</ele><time>2026-04-25T09:16:44.081Z</time></trkpt><trkpt lat="45.4545121" lon="14.0525701"><ele>727.0</ele><time>2026-04-25T09:16:45.071Z</time></trkpt><trkpt lat="45.4545875" lon="14.0527137"><ele>727.0</ele><time>2026-04-25T09:16:46.083Z</time></trkpt><trkpt lat="45.4546649" lon="14.0528399"><ele>727.0</ele><time>2026-04-25T09:16:47.088Z</time></trkpt><trkpt lat="45.4547421" lon="14.0529642"><ele>727.0</ele><time>2026-04-25T09:16:48.09Z</time></trkpt><trkpt lat="45.4548257" lon="14.0530897"><ele>731.25</ele><time>2026-04-25T09:16:49.077Z</time></trkpt><trkpt lat="45.4549099" lon="14.0532226"><ele>735.5</ele><time>2026-04-25T09:16:50.102Z</time></trkpt><trkpt lat="45.4549871" lon="14.0533782"><ele>739.75</ele><time>2026-04-25T09:16:51.079Z</time></trkpt><trkpt lat="45.4550695" lon="14.0535356"><ele>744.0</ele><time>2026-04-25T09:16:52.078Z</time></trkpt><trkpt lat="45.4551444" lon="14.05369"><ele>744.0</ele><time>2026-04-25T09:16:53.08Z</time></trkpt><trkpt lat="45.4552088" lon="14.0538515"><ele>744.0</ele><time>2026-04-25T09:16:54.084Z</time></trkpt><trkpt lat="45.4552531" lon="14.0540192"><ele>744.0</ele><time>2026-04-25T09:16:55.08Z</time></trkpt><trkpt lat="45.4552841" lon="14.0541919"><ele>744.0</ele><time>2026-04-25T09:16:56.083Z</time></trkpt><trkpt lat="45.4553034" lon="14.0543614"><ele>743.25</ele><time>2026-04-25T09:16:57.079Z</time></trkpt><trkpt lat="45.4553053" lon="14.0545348"><ele>742.5</ele><time>2026-04-25T09:16:58.082Z</time></trkpt><trkpt lat="45.4552871" lon="14.0547183"><ele>741.75</ele><time>2026-04-25T09:16:59.086Z</time></trkpt><trkpt lat="45.4552516" lon="14.0549164"><ele>741.0</ele><time>2026-04-25T09:17:00.086Z</time></trkpt><trkpt lat="45.4552134" lon="14.0551205"><ele>742.5</ele><time>2026-04-25T09:17:01.082Z</time></trkpt><trkpt lat="45.4552059" lon="14.0553067"><ele>744.0</ele><time>2026-04-25T09:17:02.093Z</time></trkpt><trkpt lat="45.4552208" lon="14.0554735"><ele>745.5</ele><time>2026-04-25T09:17:03.082Z</time></trkpt><trkpt lat="45.4552649" lon="14.0556309"><ele>747.0</ele><time>2026-04-25T09:17:04.08Z</time></trkpt><trkpt lat="45.4553246" lon="14.0557667"><ele>747.8</ele><time>2026-04-25T09:17:05.068Z</time></trkpt><trkpt lat="45.4553874" lon="14.0558617"><ele>748.6</ele><time>2026-04-25T09:17:06.083Z</time></trkpt><trkpt lat="45.455472" lon="14.055935"><ele>749.4</ele><time>2026-04-25T09:17:07.071Z</time></trkpt><trkpt lat="45.455553" lon="14.0559933"><ele>750.1999999999999</ele><time>2026-04-25T09:17:08.082Z</time></trkpt><trkpt lat="45.4556446" lon="14.0560507"><ele>751.0</ele><time>2026-04-25T09:17:09.071Z</time></trkpt><trkpt lat="45.4557537" lon="14.056077"><ele>754.5999999999999</ele><time>2026-04-25T09:17:10.076Z</time></trkpt><trkpt lat="45.4558654" lon="14.0561016"><ele>758.2</ele><time>2026-04-25T09:17:11.072Z</time></trkpt><trkpt lat="45.4559784" lon="14.0561195"><ele>761.8</ele><time>2026-04-25T09:17:12.066Z</time></trkpt><trkpt lat="45.4560778" lon="14.056143"><ele>765.4000000000001</ele><time>2026-04-25T09:17:13.076Z</time></trkpt><trkpt lat="45.4561511" lon="14.0561749"><ele>769.0</ele><time>2026-04-25T09:17:14.078Z</time></trkpt><trkpt lat="45.456208" lon="14.0562185"><ele>768.9999999999999</ele><time>2026-04-25T09:17:15.072Z</time></trkpt><trkpt lat="45.4562496" lon="14.0563091"><ele>769.0</ele><time>2026-04-25T09:17:16.081Z</time></trkpt><trkpt lat="45.4562726" lon="14.0564235"><ele>769.0</ele><time>2026-04-25T09:17:17.07Z</time></trkpt><trkpt lat="45.4562891" lon="14.0565392"><ele>769.0</ele><time>2026-04-25T09:17:18.082Z</time></trkpt><trkpt lat="45.4563068" lon="14.0566804"><ele>768.9999999999999</ele><time>2026-04-25T09:17:19.098Z</time></trkpt><trkpt lat="45.4563228" lon="14.0568174"><ele>769.0</ele><time>2026-04-25T09:17:20.064Z</time></trkpt><trkpt lat="45.4563444" lon="14.0569577"><ele>770.4000000000001</ele><time>2026-04-25T09:17:21.069Z</time></trkpt><trkpt lat="45.4563826" lon="14.0571019"><ele>771.8</ele><time>2026-04-25T09:17:22.058Z</time></trkpt><trkpt lat="45.4564304" lon="14.0572407"><ele>773.2</ele><time>2026-04-25T09:17:23.06Z</time></trkpt><trkpt lat="45.456489" lon="14.0573649"><ele>774.5999999999999</ele><time>2026-04-25T09:17:24.072Z</time></trkpt><trkpt lat="45.4565548" lon="14.0574676"><ele>776.0</ele><time>2026-04-25T09:17:25.074Z</time></trkpt><trkpt lat="45.4566371" lon="14.057572"><ele>777.4</ele><time>2026-04-25T09:17:26.089Z</time></trkpt><trkpt lat="45.4566995" lon="14.0576877"><ele>778.8</ele><time>2026-04-25T09:17:27.084Z</time></trkpt><trkpt lat="45.4567633" lon="14.0578091"><ele>780.1999999999999</ele><time>2026-04-25T09:17:28.085Z</time></trkpt><trkpt lat="45.456826" lon="14.0579348"><ele>781.5999999999999</ele><time>2026-04-25T09:17:29.077Z</time></trkpt><trkpt lat="45.4568866" lon="14.0580493"><ele>783.0</ele><time>2026-04-25T09:17:30.077Z</time></trkpt><trkpt lat="45.4569513" lon="14.058165"><ele>784.5</ele><time>2026-04-25T09:17:31.078Z</time></trkpt><trkpt lat="45.4570102" lon="14.0582931"><ele>786.0</ele><time>2026-04-25T09:17:32.077Z</time></trkpt><trkpt lat="45.4570462" lon="14.0584201"><ele>787.5</ele><time>2026-04-25T09:17:33.085Z</time></trkpt><trkpt lat="45.4570644" lon="14.0585443"><ele>789.0</ele><time>2026-04-25T09:17:34.077Z</time></trkpt><trkpt lat="45.457059" lon="14.0586411"><ele>790.5</ele><time>2026-04-25T09:17:35.081Z</time></trkpt><trkpt lat="45.457018" lon="14.0587131"><ele>792.0</ele><time>2026-04-25T09:17:36.076Z</time></trkpt><trkpt lat="45.456961" lon="14.0587703"><ele>792.0</ele><time>2026-04-25T09:17:37.065Z</time></trkpt><trkpt lat="45.4568793" lon="14.0588137"><ele>792.0</ele><time>2026-04-25T09:17:38.069Z</time></trkpt><trkpt lat="45.4567675" lon="14.0588586"><ele>792.0</ele><time>2026-04-25T09:17:39.072Z</time></trkpt><trkpt lat="45.4566608" lon="14.0589299"><ele>792.0</ele><time>2026-04-25T09:17:40.078Z</time></trkpt><trkpt lat="45.4565699" lon="14.0590264"><ele>792.0</ele><time>2026-04-25T09:17:41.069Z</time></trkpt><trkpt lat="45.4565005" lon="14.0591526"><ele>791.75</ele><time>2026-04-25T09:17:42.077Z</time></trkpt><trkpt lat="45.4564529" lon="14.0593236"><ele>791.5</ele><time>2026-04-25T09:17:43.069Z</time></trkpt><trkpt lat="45.4564159" lon="14.0595016"><ele>791.25</ele><time>2026-04-25T09:17:44.066Z</time></trkpt><trkpt lat="45.4563765" lon="14.0596766"><ele>791.0</ele><time>2026-04-25T09:17:45.07Z</time></trkpt><trkpt lat="45.4563487" lon="14.0598515"><ele>790.75</ele><time>2026-04-25T09:17:46.07Z</time></trkpt><trkpt lat="45.4563352" lon="14.060029"><ele>790.5</ele><time>2026-04-25T09:17:47.07Z</time></trkpt><trkpt lat="45.4563236" lon="14.0602224"><ele>790.25</ele><time>2026-04-25T09:17:48.076Z</time></trkpt><trkpt lat="45.4563222" lon="14.0604334"><ele>790.0</ele><time>2026-04-25T09:17:49.071Z</time></trkpt><trkpt lat="45.4563352" lon="14.0606458"><ele>789.25</ele><time>2026-04-25T09:17:50.065Z</time></trkpt><trkpt lat="45.4563368" lon="14.0608503"><ele>788.5</ele><time>2026-04-25T09:17:51.069Z</time></trkpt><trkpt lat="45.4563386" lon="14.0610463"><ele>787.75</ele><time>2026-04-25T09:17:52.074Z</time></trkpt><trkpt lat="45.4563466" lon="14.0612407"><ele>787.0</ele><time>2026-04-25T09:17:53.066Z</time></trkpt><trkpt lat="45.4563605" lon="14.0614368"><ele>787.75</ele><time>2026-04-25T09:17:54.073Z</time></trkpt><trkpt lat="45.4563985" lon="14.0616396"><ele>788.5</ele><time>2026-04-25T09:17:55.071Z</time></trkpt><trkpt lat="45.4564576" lon="14.0618331"><ele>789.25</ele><time>2026-04-25T09:17:56.069Z</time></trkpt><trkpt lat="45.4565023" lon="14.0620325"><ele>790.0</ele><time>2026-04-25T09:17:57.069Z</time></trkpt><trkpt lat="45.4565463" lon="14.0622317"><ele>790.0</ele><time>2026-04-25T09:17:58.074Z</time></trkpt><trkpt lat="45.4565984" lon="14.0624207"><ele>790.0</ele><time>2026-04-25T09:17:59.075Z</time></trkpt><trkpt lat="45.4566557" lon="14.0626145"><ele>790.0</ele><time>2026-04-25T09:18:00.072Z</time></trkpt><trkpt lat="45.456712" lon="14.0628076"><ele>790.0</ele><time>2026-04-25T09:18:01.088Z</time></trkpt><trkpt lat="45.45676" lon="14.0630069"><ele>792.25</ele><time>2026-04-25T09:18:02.066Z</time></trkpt><trkpt lat="45.4568081" lon="14.0632147"><ele>794.5</ele><time>2026-04-25T09:18:03.072Z</time></trkpt><trkpt lat="45.4568602" lon="14.0634167"><ele>796.75</ele><time>2026-04-25T09:18:04.068Z</time></trkpt><trkpt lat="45.4569132" lon="14.0636011"><ele>799.0</ele><time>2026-04-25T09:18:05.066Z</time></trkpt><trkpt lat="45.4569647" lon="14.0637787"><ele>799.75</ele><time>2026-04-25T09:18:06.073Z</time></trkpt><trkpt lat="45.4570181" lon="14.063961"><ele>800.5</ele><time>2026-04-25T09:18:07.073Z</time></trkpt><trkpt lat="45.4570632" lon="14.0641387"><ele>801.25</ele><time>2026-04-25T09:18:08.081Z</time></trkpt><trkpt lat="45.4571068" lon="14.0643142"><ele>802.0</ele><time>2026-04-25T09:18:09.074Z</time></trkpt><trkpt lat="45.4571466" lon="14.064484"><ele>799.5</ele><time>2026-04-25T09:18:10.078Z</time></trkpt><trkpt lat="45.4571868" lon="14.0646536"><ele>797.0</ele><time>2026-04-25T09:18:11.069Z</time></trkpt><trkpt lat="45.4572257" lon="14.0648255"><ele>794.5</ele><time>2026-04-25T09:18:12.073Z</time></trkpt><trkpt lat="45.4572675" lon="14.0650028"><ele>792.0</ele><time>2026-04-25T09:18:13.066Z</time></trkpt><trkpt lat="45.4573035" lon="14.0651782"><ele>792.0</ele><time>2026-04-25T09:18:14.077Z</time></trkpt><trkpt lat="45.4573446" lon="14.0653539"><ele>792.0</ele><time>2026-04-25T09:18:15.074Z</time></trkpt><trkpt lat="45.4573882" lon="14.0655316"><ele>792.0</ele><time>2026-04-25T09:18:16.073Z</time></trkpt><trkpt lat="45.4574399" lon="14.0657025"><ele>792.0</ele><time>2026-04-25T09:18:17.075Z</time></trkpt><trkpt lat="45.4574923" lon="14.0658646"><ele>791.6</ele><time>2026-04-25T09:18:18.08Z</time></trkpt><trkpt lat="45.457542" lon="14.0659864"><ele>791.2</ele><time>2026-04-25T09:18:19.08Z</time></trkpt><trkpt lat="45.4575723" lon="14.0660962"><ele>790.8</ele><time>2026-04-25T09:18:20.102Z</time></trkpt><trkpt lat="45.4575708" lon="14.0662385"><ele>790.4</ele><time>2026-04-25T09:18:21.079Z</time></trkpt><trkpt lat="45.457529" lon="14.0663941"><ele>790.0</ele><time>2026-04-25T09:18:22.085Z</time></trkpt><trkpt lat="45.4574827" lon="14.0665369"><ele>789.5</ele><time>2026-04-25T09:18:23.068Z</time></trkpt><trkpt lat="45.4574521" lon="14.0666822"><ele>789.0</ele><time>2026-04-25T09:18:24.076Z</time></trkpt><trkpt lat="45.4574453" lon="14.0668443"><ele>788.5</ele><time>2026-04-25T09:18:25.079Z</time></trkpt><trkpt lat="45.4574427" lon="14.0670292"><ele>788.0</ele><time>2026-04-25T09:18:26.077Z</time></trkpt><trkpt lat="45.4574297" lon="14.0672272"><ele>788.0</ele><time>2026-04-25T09:18:27.07Z</time></trkpt><trkpt lat="45.4574084" lon="14.0674226"><ele>788.0</ele><time>2026-04-25T09:18:28.075Z</time></trkpt><trkpt lat="45.4573691" lon="14.0676016"><ele>788.0</ele><time>2026-04-25T09:18:29.074Z</time></trkpt><trkpt lat="45.4573201" lon="14.0677403"><ele>788.0</ele><time>2026-04-25T09:18:30.074Z</time></trkpt><trkpt lat="45.4572863" lon="14.0678477"><ele>788.2</ele><time>2026-04-25T09:18:31.076Z</time></trkpt><trkpt lat="45.4572809" lon="14.0679439"><ele>788.4</ele><time>2026-04-25T09:18:32.084Z</time></trkpt><trkpt lat="45.4573162" lon="14.0680243"><ele>788.6</ele><time>2026-04-25T09:18:33.074Z</time></trkpt><trkpt lat="45.457382" lon="14.0681183"><ele>788.8000000000001</ele><time>2026-04-25T09:18:34.083Z</time></trkpt><trkpt lat="45.4574636" lon="14.068215"><ele>789.0</ele><time>2026-04-25T09:18:35.066Z</time></trkpt><trkpt lat="45.4575528" lon="14.0683315"><ele>790.75</ele><time>2026-04-25T09:18:36.076Z</time></trkpt><trkpt lat="45.4576357" lon="14.0684719"><ele>792.5</ele><time>2026-04-25T09:18:37.08Z</time></trkpt><trkpt lat="45.4577191" lon="14.068597"><ele>794.25</ele><time>2026-04-25T09:18:38.078Z</time></trkpt><trkpt lat="45.4578111" lon="14.0686862"><ele>796.0</ele><time>2026-04-25T09:18:39.078Z</time></trkpt><trkpt lat="45.4579134" lon="14.0687442"><ele>796.5</ele><time>2026-04-25T09:18:40.086Z</time></trkpt><trkpt lat="45.4580276" lon="14.0687918"><ele>797.0</ele><time>2026-04-25T09:18:41.08Z</time></trkpt><trkpt lat="45.458141" lon="14.0688461"><ele>797.5</ele><time>2026-04-25T09:18:42.082Z</time></trkpt><trkpt lat="45.4582395" lon="14.0689292"><ele>798.0</ele><time>2026-04-25T09:18:43.071Z</time></trkpt><trkpt lat="45.458322" lon="14.0690347"><ele>798.8</ele><time>2026-04-25T09:18:44.085Z</time></trkpt><trkpt lat="45.4583756" lon="14.0691499"><ele>799.5999999999999</ele><time>2026-04-25T09:18:45.082Z</time></trkpt><trkpt lat="45.4584015" lon="14.069295"><ele>800.4000000000001</ele><time>2026-04-25T09:18:46.074Z</time></trkpt><trkpt lat="45.4584041" lon="14.0694551"><ele>801.2</ele><time>2026-04-25T09:18:47.074Z</time></trkpt><trkpt lat="45.4584087" lon="14.0696204"><ele>802.0</ele><time>2026-04-25T09:18:48.074Z</time></trkpt><trkpt lat="45.4584249" lon="14.0697678"><ele>802.0</ele><time>2026-04-25T09:18:49.083Z</time></trkpt><trkpt lat="45.4584702" lon="14.0699043"><ele>802.0</ele><time>2026-04-25T09:18:50.079Z</time></trkpt><trkpt lat="45.45853" lon="14.0700296"><ele>802.0</ele><time>2026-04-25T09:18:51.077Z</time></trkpt><trkpt lat="45.4585929" lon="14.0701471"><ele>802.0</ele><time>2026-04-25T09:18:52.07Z</time></trkpt><trkpt lat="45.4586292" lon="14.0702432"><ele>802.0</ele><time>2026-04-25T09:18:53.079Z</time></trkpt><trkpt lat="45.4586118" lon="14.0703551"><ele>803.6</ele><time>2026-04-25T09:18:55.072Z</time></trkpt><trkpt lat="45.4585223" lon="14.0704584"><ele>805.2</ele><time>2026-04-25T09:18:57.071Z</time></trkpt><trkpt lat="45.4584379" lon="14.0705177"><ele>806.8</ele><time>2026-04-25T09:18:58.083Z</time></trkpt><trkpt lat="45.4583413" lon="14.0705952"><ele>808.4</ele><time>2026-04-25T09:18:59.077Z</time></trkpt><trkpt lat="45.4582425" lon="14.0706879"><ele>810.0</ele><time>2026-04-25T09:19:00.082Z</time></trkpt><trkpt lat="45.4581384" lon="14.070792"><ele>810.8</ele><time>2026-04-25T09:19:01.085Z</time></trkpt><trkpt lat="45.4580278" lon="14.0708946"><ele>811.6</ele><time>2026-04-25T09:19:02.084Z</time></trkpt><trkpt lat="45.4579264" lon="14.070989"><ele>812.4000000000001</ele><time>2026-04-25T09:19:03.082Z</time></trkpt><trkpt lat="45.4578586" lon="14.0710935"><ele>813.2</ele><time>2026-04-25T09:19:04.088Z</time></trkpt><trkpt lat="45.4578118" lon="14.0711989"><ele>814.0</ele><time>2026-04-25T09:19:05.072Z</time></trkpt><trkpt lat="45.4577779" lon="14.0713176"><ele>814.0</ele><time>2026-04-25T09:19:06.084Z</time></trkpt><trkpt lat="45.4577458" lon="14.0714592"><ele>814.0</ele><time>2026-04-25T09:19:07.082Z</time></trkpt><trkpt lat="45.4577097" lon="14.07161"><ele>814.0</ele><time>2026-04-25T09:19:08.079Z</time></trkpt><trkpt lat="45.4576668" lon="14.0717611"><ele>814.0</ele><time>2026-04-25T09:19:09.08Z</time></trkpt><trkpt lat="45.457602" lon="14.0718931"><ele>814.0</ele><time>2026-04-25T09:19:10.085Z</time></trkpt><trkpt lat="45.4575207" lon="14.0720032"><ele>816.8000000000001</ele><time>2026-04-25T09:19:11.076Z</time></trkpt><trkpt lat="45.4574509" lon="14.0721148"><ele>819.6</ele><time>2026-04-25T09:19:12.089Z</time></trkpt><trkpt lat="45.4574049" lon="14.072244"><ele>822.4</ele><time>2026-04-25T09:19:13.08Z</time></trkpt><trkpt lat="45.4573887" lon="14.072383"><ele>825.2</ele><time>2026-04-25T09:19:14.076Z</time></trkpt><trkpt lat="45.4573811" lon="14.0725407"><ele>828.0</ele><time>2026-04-25T09:19:15.083Z</time></trkpt><trkpt lat="45.4573837" lon="14.0727042"><ele>830.75</ele><time>2026-04-25T09:19:16.072Z</time></trkpt><trkpt lat="45.4573815" lon="14.0728721"><ele>833.5</ele><time>2026-04-25T09:19:17.071Z</time></trkpt><trkpt lat="45.4573833" lon="14.0730465"><ele>836.25</ele><time>2026-04-25T09:19:18.092Z</time></trkpt><trkpt lat="45.457386" lon="14.0732314"><ele>839.0</ele><time>2026-04-25T09:19:19.077Z</time></trkpt><trkpt lat="45.4573874" lon="14.0734184"><ele>841.5</ele><time>2026-04-25T09:19:20.089Z</time></trkpt><trkpt lat="45.4573949" lon="14.0736109"><ele>844.0</ele><time>2026-04-25T09:19:21.077Z</time></trkpt><trkpt lat="45.4574007" lon="14.0738052"><ele>846.5</ele><time>2026-04-25T09:19:22.086Z</time></trkpt><trkpt lat="45.4574011" lon="14.0739936"><ele>849.0</ele><time>2026-04-25T09:19:23.079Z</time></trkpt><trkpt lat="45.4573909" lon="14.0741767"><ele>851.0</ele><time>2026-04-25T09:19:24.082Z</time></trkpt><trkpt lat="45.4573801" lon="14.0743514"><ele>853.0</ele><time>2026-04-25T09:19:25.075Z</time></trkpt><trkpt lat="45.4573689" lon="14.0745377"><ele>855.0</ele><time>2026-04-25T09:19:26.073Z</time></trkpt><trkpt lat="45.4573609" lon="14.0747193"><ele>857.0</ele><time>2026-04-25T09:19:27.08Z</time></trkpt><trkpt lat="45.4573575" lon="14.0748973"><ele>859.5</ele><time>2026-04-25T09:19:28.075Z</time></trkpt><trkpt lat="45.457351" lon="14.0750708"><ele>862.0</ele><time>2026-04-25T09:19:29.088Z</time></trkpt><trkpt lat="45.4573482" lon="14.0752459"><ele>864.5</ele><time>2026-04-25T09:19:30.076Z</time></trkpt><trkpt lat="45.4573545" lon="14.0754293"><ele>867.0</ele><time>2026-04-25T09:19:31.077Z</time></trkpt><trkpt lat="45.4573567" lon="14.0756129"><ele>869.25</ele><time>2026-04-25T09:19:32.087Z</time></trkpt><trkpt lat="45.4573601" lon="14.0757962"><ele>871.5</ele><time>2026-04-25T09:19:33.08Z</time></trkpt><trkpt lat="45.4573597" lon="14.0759819"><ele>873.75</ele><time>2026-04-25T09:19:34.093Z</time></trkpt><trkpt lat="45.4573607" lon="14.076166"><ele>876.0</ele><time>2026-04-25T09:19:35.079Z</time></trkpt><trkpt lat="45.4573507" lon="14.0763585"><ele>876.0</ele><time>2026-04-25T09:19:36.08Z</time></trkpt><trkpt lat="45.4573185" lon="14.0765539"><ele>876.0</ele><time>2026-04-25T09:19:37.074Z</time></trkpt><trkpt lat="45.4572671" lon="14.0767225"><ele>876.0</ele><time>2026-04-25T09:19:38.081Z</time></trkpt><trkpt lat="45.4572064" lon="14.0768659"><ele>876.0</ele><time>2026-04-25T09:19:39.093Z</time></trkpt><trkpt lat="45.4571356" lon="14.0769938"><ele>876.5</ele><time>2026-04-25T09:19:40.08Z</time></trkpt><trkpt lat="45.4570807" lon="14.077133"><ele>877.0</ele><time>2026-04-25T09:19:41.077Z</time></trkpt><trkpt lat="45.4570402" lon="14.0772893"><ele>877.5</ele><time>2026-04-25T09:19:42.082Z</time></trkpt><trkpt lat="45.456983" lon="14.0774379"><ele>878.0</ele><time>2026-04-25T09:19:43.081Z</time></trkpt><trkpt lat="45.4569166" lon="14.0776028"><ele>878.0</ele><time>2026-04-25T09:19:44.082Z</time></trkpt><trkpt lat="45.4568609" lon="14.0777761"><ele>878.0</ele><time>2026-04-25T09:19:45.082Z</time></trkpt><trkpt lat="45.4568162" lon="14.0779558"><ele>878.0</ele><time>2026-04-25T09:19:46.09Z</time></trkpt><trkpt lat="45.4567701" lon="14.0781338"><ele>878.0</ele><time>2026-04-25T09:19:47.089Z</time></trkpt><trkpt lat="45.4567213" lon="14.0783178"><ele>881.75</ele><time>2026-04-25T09:19:48.081Z</time></trkpt><trkpt lat="45.4566792" lon="14.0785003"><ele>885.5</ele><time>2026-04-25T09:19:49.074Z</time></trkpt><trkpt lat="45.4566258" lon="14.0786876"><ele>889.25</ele><time>2026-04-25T09:19:50.086Z</time></trkpt><trkpt lat="45.4565781" lon="14.0788647"><ele>893.0</ele><time>2026-04-25T09:19:51.084Z</time></trkpt><trkpt lat="45.4565347" lon="14.0790608"><ele>896.0</ele><time>2026-04-25T09:19:52.098Z</time></trkpt><trkpt lat="45.4564951" lon="14.079254"><ele>899.0</ele><time>2026-04-25T09:19:53.084Z</time></trkpt><trkpt lat="45.4564523" lon="14.0794472"><ele>902.0</ele><time>2026-04-25T09:19:54.085Z</time></trkpt><trkpt lat="45.4564084" lon="14.07964"><ele>905.0</ele><time>2026-04-25T09:19:55.093Z</time></trkpt><trkpt lat="45.4563639" lon="14.0798324"><ele>905.2</ele><time>2026-04-25T09:19:56.093Z</time></trkpt><trkpt lat="45.4563358" lon="14.0800089"><ele>905.4</ele><time>2026-04-25T09:19:57.092Z</time></trkpt><trkpt lat="45.4563172" lon="14.0801682"><ele>905.5999999999999</ele><time>2026-04-25T09:19:58.108Z</time></trkpt><trkpt lat="45.4562881" lon="14.0802939"><ele>905.8</ele><time>2026-04-25T09:19:59.085Z</time></trkpt><trkpt lat="45.4562616" lon="14.0803887"><ele>906.0</ele><time>2026-04-25T09:20:00.099Z</time></trkpt><trkpt lat="45.4562187" lon="14.080472"><ele>906.0</ele><time>2026-04-25T09:20:01.098Z</time></trkpt><trkpt lat="45.4561505" lon="14.080565"><ele>905.9999999999999</ele><time>2026-04-25T09:20:02.084Z</time></trkpt><trkpt lat="45.4560744" lon="14.0806756"><ele>905.9999999999999</ele><time>2026-04-25T09:20:03.095Z</time></trkpt><trkpt lat="45.4560055" lon="14.0808065"><ele>906.0</ele><time>2026-04-25T09:20:04.097Z</time></trkpt><trkpt lat="45.4559416" lon="14.0809544"><ele>906.0</ele><time>2026-04-25T09:20:05.093Z</time></trkpt><trkpt lat="45.4558902" lon="14.0811077"><ele>907.5999999999999</ele><time>2026-04-25T09:20:06.103Z</time></trkpt><trkpt lat="45.4558499" lon="14.0812517"><ele>909.1999999999999</ele><time>2026-04-25T09:20:07.089Z</time></trkpt><trkpt lat="45.4558286" lon="14.0813874"><ele>910.8000000000001</ele><time>2026-04-25T09:20:08.098Z</time></trkpt><trkpt lat="45.4558258" lon="14.0815169"><ele>912.4000000000001</ele><time>2026-04-25T09:20:09.096Z</time></trkpt><trkpt lat="45.4558482" lon="14.0816418"><ele>914.0</ele><time>2026-04-25T09:20:10.079Z</time></trkpt><trkpt lat="45.4558922" lon="14.0817554"><ele>916.0</ele><time>2026-04-25T09:20:11.08Z</time></trkpt><trkpt lat="45.4559473" lon="14.0818762"><ele>918.0</ele><time>2026-04-25T09:20:12.082Z</time></trkpt><trkpt lat="45.4560146" lon="14.082014"><ele>920.0</ele><time>2026-04-25T09:20:13.104Z</time></trkpt><trkpt lat="45.4560746" lon="14.0821636"><ele>922.0</ele><time>2026-04-25T09:20:14.093Z</time></trkpt><trkpt lat="45.456135" lon="14.0823277"><ele>922.75</ele><time>2026-04-25T09:20:15.11Z</time></trkpt><trkpt lat="45.4561864" lon="14.0825157"><ele>923.5</ele><time>2026-04-25T09:20:16.089Z</time></trkpt><trkpt lat="45.45622" lon="14.0827129"><ele>924.25</ele><time>2026-04-25T09:20:17.094Z</time></trkpt><trkpt lat="45.456246" lon="14.0829021"><ele>925.0</ele><time>2026-04-25T09:20:18.088Z</time></trkpt><trkpt lat="45.4562627" lon="14.0830812"><ele>925.0</ele><time>2026-04-25T09:20:19.094Z</time></trkpt><trkpt lat="45.456271" lon="14.0832623"><ele>925.0</ele><time>2026-04-25T09:20:20.091Z</time></trkpt><trkpt lat="45.456272" lon="14.0834418"><ele>925.0</ele><time>2026-04-25T09:20:21.103Z</time></trkpt><trkpt lat="45.4562711" lon="14.083602"><ele>925.0</ele><time>2026-04-25T09:20:22.096Z</time></trkpt><trkpt lat="45.4562764" lon="14.0837484"><ele>928.4999999999999</ele><time>2026-04-25T09:20:23.092Z</time></trkpt><trkpt lat="45.4562981" lon="14.0838635"><ele>932.0</ele><time>2026-04-25T09:20:24.114Z</time></trkpt><trkpt lat="45.456329" lon="14.0839485"><ele>935.5</ele><time>2026-04-25T09:20:25.101Z</time></trkpt><trkpt lat="45.4563754" lon="14.084013"><ele>939.0</ele><time>2026-04-25T09:20:26.091Z</time></trkpt><trkpt lat="45.4564924" lon="14.0840172"><ele>942.4999999999999</ele><time>2026-04-25T09:20:28.088Z</time></trkpt><trkpt lat="45.4565536" lon="14.0839626"><ele>946.0</ele><time>2026-04-25T09:20:29.096Z</time></trkpt><trkpt lat="45.4566138" lon="14.0838871"><ele>945.9999999999999</ele><time>2026-04-25T09:20:30.087Z</time></trkpt><trkpt lat="45.4566777" lon="14.0838125"><ele>946.0</ele><time>2026-04-25T09:20:31.098Z</time></trkpt><trkpt lat="45.4567525" lon="14.0837671"><ele>946.0</ele><time>2026-04-25T09:20:32.101Z</time></trkpt><trkpt lat="45.45684" lon="14.0837416"><ele>946.0</ele><time>2026-04-25T09:20:33.09Z</time></trkpt><trkpt lat="45.4569195" lon="14.0837422"><ele>945.9999999999999</ele><time>2026-04-25T09:20:34.084Z</time></trkpt><trkpt lat="45.4569848" lon="14.0837767"><ele>946.0</ele><time>2026-04-25T09:20:35.086Z</time></trkpt><trkpt lat="45.4570383" lon="14.0838314"><ele>945.9999999999999</ele><time>2026-04-25T09:20:36.088Z</time></trkpt><trkpt lat="45.4570765" lon="14.0839114"><ele>946.0</ele><time>2026-04-25T09:20:37.086Z</time></trkpt><trkpt lat="45.457099" lon="14.0840012"><ele>946.0</ele><time>2026-04-25T09:20:38.108Z</time></trkpt><trkpt lat="45.45712" lon="14.0841012"><ele>946.0</ele><time>2026-04-25T09:20:39.084Z</time></trkpt><trkpt lat="45.4571565" lon="14.0841744"><ele>945.9999999999999</ele><time>2026-04-25T09:20:40.095Z</time></trkpt><trkpt lat="45.457252" lon="14.0841992"><ele>946.0</ele><time>2026-04-25T09:20:42.087Z</time></trkpt><trkpt lat="45.4573088" lon="14.0840707"><ele>948.4285714285714</ele><time>2026-04-25T09:20:44.089Z</time></trkpt><trkpt lat="45.4573292" lon="14.0839713"><ele>950.8571428571429</ele><time>2026-04-25T09:20:45.103Z</time></trkpt><trkpt lat="45.4573602" lon="14.0838832"><ele>953.2857142857143</ele><time>2026-04-25T09:20:46.081Z</time></trkpt><trkpt lat="45.4574067" lon="14.0837955"><ele>955.7142857142858</ele><time>2026-04-25T09:20:47.096Z</time></trkpt><trkpt lat="45.4574604" lon="14.0837044"><ele>958.1428571428571</ele><time>2026-04-25T09:20:48.098Z</time></trkpt><trkpt lat="45.4575153" lon="14.0836375"><ele>960.5714285714287</ele><time>2026-04-25T09:20:49.089Z</time></trkpt><trkpt lat="45.4575711" lon="14.0835772"><ele>963.0000000000001</ele><time>2026-04-25T09:20:50.093Z</time></trkpt><trkpt lat="45.4576216" lon="14.0835217"><ele>963.0</ele><time>2026-04-25T09:20:51.089Z</time></trkpt><trkpt lat="45.457712" lon="14.0834139"><ele>963.0</ele><time>2026-04-25T09:20:53.087Z</time></trkpt><trkpt lat="45.4577861" lon="14.0832733"><ele>963.0</ele><time>2026-04-25T09:20:55.083Z</time></trkpt><trkpt lat="45.4578224" lon="14.0831984"><ele>963.0</ele><time>2026-04-25T09:20:56.095Z</time></trkpt><trkpt lat="45.45786" lon="14.0831256"><ele>963.0</ele><time>2026-04-25T09:20:57.096Z</time></trkpt><trkpt lat="45.4579455" lon="14.0830221"><ele>964.5999999999999</ele><time>2026-04-25T09:20:59.09Z</time></trkpt><trkpt lat="45.4580402" lon="14.0829583"><ele>966.1999999999999</ele><time>2026-04-25T09:21:01.095Z</time></trkpt><trkpt lat="45.4581268" lon="14.0828679"><ele>967.8</ele><time>2026-04-25T09:21:03.103Z</time></trkpt><trkpt lat="45.4581871" lon="14.0827618"><ele>969.4</ele><time>2026-04-25T09:21:05.099Z</time></trkpt><trkpt lat="45.4582182" lon="14.0826638"><ele>971.0</ele><time>2026-04-25T09:21:07.095Z</time></trkpt><trkpt lat="45.4582429" lon="14.0825576"><ele>971.0</ele><time>2026-04-25T09:21:10.11Z</time></trkpt><trkpt lat="45.4582052" lon="14.0826483"><ele>970.9999999999999</ele><time>2026-04-25T09:30:33.154Z</time></trkpt><trkpt lat="45.4581672" lon="14.0827968"><ele>970.9999999999999</ele><time>2026-04-25T09:30:35.102Z</time></trkpt><trkpt lat="45.4581109" lon="14.0829149"><ele>971.0</ele><time>2026-04-25T09:30:37.108Z</time></trkpt><trkpt lat="45.4580043" lon="14.0830001"><ele>971.0</ele><time>2026-04-25T09:30:39.094Z</time></trkpt><trkpt lat="45.4578883" lon="14.083107"><ele>969.6666666666667</ele><time>2026-04-25T09:30:41.1Z</time></trkpt><trkpt lat="45.4578253" lon="14.0831741"><ele>968.3333333333334</ele><time>2026-04-25T09:30:42.109Z</time></trkpt><trkpt lat="45.4577687" lon="14.0832368"><ele>967.0</ele><time>2026-04-25T09:30:43.099Z</time></trkpt><trkpt lat="45.457713" lon="14.0832989"><ele>965.6666666666667</ele><time>2026-04-25T09:30:44.101Z</time></trkpt><trkpt lat="45.4576569" lon="14.0833455"><ele>964.3333333333334</ele><time>2026-04-25T09:30:45.098Z</time></trkpt><trkpt lat="45.4575692" lon="14.0834558"><ele>963.0</ele><time>2026-04-25T09:30:47.096Z</time></trkpt><trkpt lat="45.4574856" lon="14.0835879"><ele>963.0</ele><time>2026-04-25T09:30:49.1Z</time></trkpt><trkpt lat="45.4573988" lon="14.0837079"><ele>963.0</ele><time>2026-04-25T09:30:51.116Z</time></trkpt><trkpt lat="45.4573072" lon="14.0838019"><ele>963.0</ele><time>2026-04-25T09:30:53.109Z</time></trkpt><trkpt lat="45.4572541" lon="14.0839075"><ele>963.0</ele><time>2026-04-25T09:30:55.098Z</time></trkpt><trkpt lat="45.4572493" lon="14.0840431"><ele>963.0</ele><time>2026-04-25T09:30:57.088Z</time></trkpt><trkpt lat="45.4572381" lon="14.0841728"><ele>962.8333333333334</ele><time>2026-04-25T09:30:59.1Z</time></trkpt><trkpt lat="45.4572235" lon="14.0842724"><ele>962.6666666666667</ele><time>2026-04-25T09:31:01.098Z</time></trkpt><trkpt lat="45.4572207" lon="14.0844038"><ele>962.5</ele><time>2026-04-25T09:31:17.11Z</time></trkpt><trkpt lat="45.4572216" lon="14.0844986"><ele>962.3333333333334</ele><time>2026-04-25T09:31:18.116Z</time></trkpt><trkpt lat="45.4572166" lon="14.0846042"><ele>962.1666666666667</ele><time>2026-04-25T09:31:19.105Z</time></trkpt><trkpt lat="45.4572249" lon="14.084741"><ele>962.0</ele><time>2026-04-25T09:31:20.115Z</time></trkpt><trkpt lat="45.4572543" lon="14.0848827"><ele>961.6</ele><time>2026-04-25T09:31:21.106Z</time></trkpt><trkpt lat="45.457288" lon="14.0850354"><ele>961.2</ele><time>2026-04-25T09:31:22.143Z</time></trkpt><trkpt lat="45.4573127" lon="14.0851831"><ele>960.8</ele><time>2026-04-25T09:31:23.105Z</time></trkpt><trkpt lat="45.4573272" lon="14.0853234"><ele>960.4</ele><time>2026-04-25T09:31:24.126Z</time></trkpt><trkpt lat="45.4573357" lon="14.0854532"><ele>960.0</ele><time>2026-04-25T09:31:25.127Z</time></trkpt><trkpt lat="45.4573315" lon="14.0855612"><ele>960.0</ele><time>2026-04-25T09:31:26.146Z</time></trkpt><trkpt lat="45.4573086" lon="14.0856727"><ele>960.0</ele><time>2026-04-25T09:31:27.123Z</time></trkpt><trkpt lat="45.4572734" lon="14.0857881"><ele>960.0</ele><time>2026-04-25T09:31:28.123Z</time></trkpt><trkpt lat="45.4572404" lon="14.0858964"><ele>960.0</ele><time>2026-04-25T09:31:29.12Z</time></trkpt><trkpt lat="45.4572046" lon="14.086004"><ele>960.0</ele><time>2026-04-25T09:31:30.11Z</time></trkpt><trkpt lat="45.4571633" lon="14.0861136"><ele>960.0</ele><time>2026-04-25T09:31:31.12Z</time></trkpt><trkpt lat="45.4571153" lon="14.0862178"><ele>959.8</ele><time>2026-04-25T09:31:32.111Z</time></trkpt><trkpt lat="45.457053" lon="14.0863199"><ele>959.6</ele><time>2026-04-25T09:31:33.12Z</time></trkpt><trkpt lat="45.456985" lon="14.0864177"><ele>959.4000000000001</ele><time>2026-04-25T09:31:34.104Z</time></trkpt><trkpt lat="45.4569155" lon="14.0865081"><ele>959.2</ele><time>2026-04-25T09:31:35.101Z</time></trkpt><trkpt lat="45.4568497" lon="14.0866041"><ele>959.0</ele><time>2026-04-25T09:31:36.111Z</time></trkpt><trkpt lat="45.4567906" lon="14.0866926"><ele>959.0</ele><time>2026-04-25T09:31:37.104Z</time></trkpt><trkpt lat="45.4567277" lon="14.0867826"><ele>959.0000000000001</ele><time>2026-04-25T09:31:38.125Z</time></trkpt><trkpt lat="45.45666" lon="14.086875"><ele>959.0000000000001</ele><time>2026-04-25T09:31:39.107Z</time></trkpt><trkpt lat="45.4565978" lon="14.0869752"><ele>959.0</ele><time>2026-04-25T09:31:40.115Z</time></trkpt><trkpt lat="45.4565361" lon="14.0870843"><ele>959.0</ele><time>2026-04-25T09:31:41.099Z</time></trkpt><trkpt lat="45.4564783" lon="14.0871962"><ele>959.0</ele><time>2026-04-25T09:31:42.112Z</time></trkpt><trkpt lat="45.4564168" lon="14.0873137"><ele>959.0000000000001</ele><time>2026-04-25T09:31:43.107Z</time></trkpt><trkpt lat="45.4563548" lon="14.0874389"><ele>959.0000000000001</ele><time>2026-04-25T09:31:44.104Z</time></trkpt><trkpt lat="45.456287" lon="14.0875538"><ele>959.0</ele><time>2026-04-25T09:31:45.092Z</time></trkpt><trkpt lat="45.4562254" lon="14.0876597"><ele>959.0</ele><time>2026-04-25T09:31:46.095Z</time></trkpt><trkpt lat="45.456157" lon="14.0877698"><ele>959.6</ele><time>2026-04-25T09:31:47.097Z</time></trkpt><trkpt lat="45.4560897" lon="14.0878837"><ele>960.2</ele><time>2026-04-25T09:31:48.108Z</time></trkpt><trkpt lat="45.4560238" lon="14.0880057"><ele>960.8000000000001</ele><time>2026-04-25T09:31:49.113Z</time></trkpt><trkpt lat="45.4559554" lon="14.0881464"><ele>961.4000000000001</ele><time>2026-04-25T09:31:50.088Z</time></trkpt><trkpt lat="45.4558961" lon="14.0882769"><ele>962.0</ele><time>2026-04-25T09:31:51.1Z</time></trkpt><trkpt lat="45.4558375" lon="14.0884033"><ele>960.1666666666667</ele><time>2026-04-25T09:31:52.092Z</time></trkpt><trkpt lat="45.4557868" lon="14.088538"><ele>958.3333333333334</ele><time>2026-04-25T09:31:53.096Z</time></trkpt><trkpt lat="45.4557504" lon="14.0886532"><ele>956.5</ele><time>2026-04-25T09:31:54.099Z</time></trkpt><trkpt lat="45.455724" lon="14.0887636"><ele>954.6666666666667</ele><time>2026-04-25T09:31:55.099Z</time></trkpt><trkpt lat="45.4556921" lon="14.0888769"><ele>952.8333333333334</ele><time>2026-04-25T09:31:56.095Z</time></trkpt><trkpt lat="45.4556803" lon="14.0889878"><ele>951.0</ele><time>2026-04-25T09:31:57.109Z</time></trkpt><trkpt lat="45.4556989" lon="14.0891189"><ele>949.75</ele><time>2026-04-25T09:31:58.084Z</time></trkpt><trkpt lat="45.4557267" lon="14.0892509"><ele>948.5</ele><time>2026-04-25T09:31:59.1Z</time></trkpt><trkpt lat="45.4557655" lon="14.0894207"><ele>947.25</ele><time>2026-04-25T09:32:00.1Z</time></trkpt><trkpt lat="45.4557884" lon="14.0895817"><ele>946.0</ele><time>2026-04-25T09:32:01.093Z</time></trkpt><trkpt lat="45.4558162" lon="14.0897537"><ele>946.25</ele><time>2026-04-25T09:32:02.096Z</time></trkpt><trkpt lat="45.4558444" lon="14.0899251"><ele>946.5</ele><time>2026-04-25T09:32:03.092Z</time></trkpt><trkpt lat="45.4558705" lon="14.0900941"><ele>946.75</ele><time>2026-04-25T09:32:04.097Z</time></trkpt><trkpt lat="45.4559073" lon="14.0902643"><ele>947.0</ele><time>2026-04-25T09:32:05.077Z</time></trkpt><trkpt lat="45.4559514" lon="14.0904217"><ele>947.0</ele><time>2026-04-25T09:32:06.09Z</time></trkpt><trkpt lat="45.4560093" lon="14.0905693"><ele>947.0</ele><time>2026-04-25T09:32:07.085Z</time></trkpt><trkpt lat="45.4560673" lon="14.0907183"><ele>947.0</ele><time>2026-04-25T09:32:08.078Z</time></trkpt><trkpt lat="45.4561246" lon="14.0908696"><ele>947.0</ele><time>2026-04-25T09:32:09.081Z</time></trkpt><trkpt lat="45.4561591" lon="14.091026"><ele>947.75</ele><time>2026-04-25T09:32:10.085Z</time></trkpt><trkpt lat="45.4561908" lon="14.0911718"><ele>948.5</ele><time>2026-04-25T09:32:11.104Z</time></trkpt><trkpt lat="45.4562183" lon="14.0913115"><ele>949.25</ele><time>2026-04-25T09:32:12.081Z</time></trkpt><trkpt lat="45.4562482" lon="14.0915983"><ele>950.0</ele><time>2026-04-25T09:32:14.097Z</time></trkpt><trkpt lat="45.4562534" lon="14.0917427"><ele>950.2</ele><time>2026-04-25T09:32:15.088Z</time></trkpt><trkpt lat="45.4562591" lon="14.0918925"><ele>950.4</ele><time>2026-04-25T09:32:16.101Z</time></trkpt><trkpt lat="45.4562538" lon="14.0920445"><ele>950.5999999999999</ele><time>2026-04-25T09:32:17.078Z</time></trkpt><trkpt lat="45.4562418" lon="14.0921892"><ele>950.8</ele><time>2026-04-25T09:32:18.081Z</time></trkpt><trkpt lat="45.4562262" lon="14.0923284"><ele>951.0</ele><time>2026-04-25T09:32:19.083Z</time></trkpt><trkpt lat="45.4562183" lon="14.0924723"><ele>949.8</ele><time>2026-04-25T09:32:20.08Z</time></trkpt><trkpt lat="45.4562178" lon="14.0926174"><ele>948.5999999999999</ele><time>2026-04-25T09:32:21.081Z</time></trkpt><trkpt lat="45.4562099" lon="14.0927529"><ele>947.4</ele><time>2026-04-25T09:32:22.089Z</time></trkpt><trkpt lat="45.4562002" lon="14.0928842"><ele>946.2</ele><time>2026-04-25T09:32:23.076Z</time></trkpt><trkpt lat="45.4561814" lon="14.0930126"><ele>945.0</ele><time>2026-04-25T09:32:24.084Z</time></trkpt><trkpt lat="45.4561534" lon="14.0931295"><ele>945.0</ele><time>2026-04-25T09:32:25.082Z</time></trkpt><trkpt lat="45.456119" lon="14.0932463"><ele>945.0</ele><time>2026-04-25T09:32:26.079Z</time></trkpt><trkpt lat="45.4560759" lon="14.0933534"><ele>945.0</ele><time>2026-04-25T09:32:27.096Z</time></trkpt><trkpt lat="45.4560211" lon="14.0934519"><ele>945.0</ele><time>2026-04-25T09:32:28.098Z</time></trkpt><trkpt lat="45.4559688" lon="14.0935446"><ele>945.0</ele><time>2026-04-25T09:32:29.085Z</time></trkpt><trkpt lat="45.4559104" lon="14.0936359"><ele>945.0</ele><time>2026-04-25T09:32:30.099Z</time></trkpt><trkpt lat="45.455848" lon="14.093718"><ele>941.8</ele><time>2026-04-25T09:32:31.095Z</time></trkpt><trkpt lat="45.4557792" lon="14.0937974"><ele>938.6</ele><time>2026-04-25T09:32:32.099Z</time></trkpt><trkpt lat="45.4557024" lon="14.0938797"><ele>935.4000000000001</ele><time>2026-04-25T09:32:33.102Z</time></trkpt><trkpt lat="45.4556206" lon="14.0939564"><ele>932.2</ele><time>2026-04-25T09:32:34.097Z</time></trkpt><trkpt lat="45.4555399" lon="14.0940366"><ele>929.0</ele><time>2026-04-25T09:32:35.091Z</time></trkpt><trkpt lat="45.455459" lon="14.0941195"><ele>928.2</ele><time>2026-04-25T09:32:36.095Z</time></trkpt><trkpt lat="45.4553773" lon="14.094209"><ele>927.4000000000001</ele><time>2026-04-25T09:32:37.092Z</time></trkpt><trkpt lat="45.4553007" lon="14.0942932"><ele>926.6</ele><time>2026-04-25T09:32:38.101Z</time></trkpt><trkpt lat="45.4552212" lon="14.0943919"><ele>925.8</ele><time>2026-04-25T09:32:39.092Z</time></trkpt><trkpt lat="45.4551564" lon="14.0944951"><ele>925.0</ele><time>2026-04-25T09:32:40.088Z</time></trkpt><trkpt lat="45.4550922" lon="14.0945947"><ele>925.0</ele><time>2026-04-25T09:32:41.085Z</time></trkpt><trkpt lat="45.4550323" lon="14.0947032"><ele>925.0</ele><time>2026-04-25T09:32:42.086Z</time></trkpt><trkpt lat="45.454971" lon="14.0948062"><ele>925.0</ele><time>2026-04-25T09:32:43.089Z</time></trkpt><trkpt lat="45.4549078" lon="14.0949063"><ele>925.0</ele><time>2026-04-25T09:32:44.093Z</time></trkpt><trkpt lat="45.4548468" lon="14.094999"><ele>925.0</ele><time>2026-04-25T09:32:45.08Z</time></trkpt><trkpt lat="45.4547824" lon="14.095093"><ele>924.1666666666666</ele><time>2026-04-25T09:32:46.088Z</time></trkpt><trkpt lat="45.4547197" lon="14.0951926"><ele>923.3333333333333</ele><time>2026-04-25T09:32:47.083Z</time></trkpt><trkpt lat="45.4546687" lon="14.095294"><ele>922.5</ele><time>2026-04-25T09:32:48.083Z</time></trkpt><trkpt lat="45.4546323" lon="14.0953942"><ele>921.6666666666667</ele><time>2026-04-25T09:32:49.086Z</time></trkpt><trkpt lat="45.4546158" lon="14.0955119"><ele>920.8333333333334</ele><time>2026-04-25T09:32:50.086Z</time></trkpt><trkpt lat="45.4546168" lon="14.0956467"><ele>920.0</ele><time>2026-04-25T09:32:51.073Z</time></trkpt><trkpt lat="45.4546231" lon="14.095772"><ele>916.6666666666667</ele><time>2026-04-25T09:32:52.075Z</time></trkpt><trkpt lat="45.4546371" lon="14.0958931"><ele>913.3333333333334</ele><time>2026-04-25T09:32:53.083Z</time></trkpt><trkpt lat="45.4546582" lon="14.096015"><ele>910.0</ele><time>2026-04-25T09:32:54.079Z</time></trkpt><trkpt lat="45.4546818" lon="14.0961298"><ele>906.6666666666667</ele><time>2026-04-25T09:32:55.082Z</time></trkpt><trkpt lat="45.4547102" lon="14.0962405"><ele>903.3333333333334</ele><time>2026-04-25T09:32:56.088Z</time></trkpt><trkpt lat="45.4547359" lon="14.096346"><ele>900.0</ele><time>2026-04-25T09:32:57.087Z</time></trkpt><trkpt lat="45.4547436" lon="14.0964393"><ele>899.4</ele><time>2026-04-25T09:32:58.093Z</time></trkpt><trkpt lat="45.4547141" lon="14.0966165"><ele>898.8</ele><time>2026-04-25T09:33:00.083Z</time></trkpt><trkpt lat="45.4546886" lon="14.0967237"><ele>898.2</ele><time>2026-04-25T09:33:01.115Z</time></trkpt><trkpt lat="45.4546602" lon="14.0968439"><ele>897.6</ele><time>2026-04-25T09:33:02.09Z</time></trkpt><trkpt lat="45.4546415" lon="14.0969735"><ele>897.0</ele><time>2026-04-25T09:33:03.092Z</time></trkpt><trkpt lat="45.4546266" lon="14.0971159"><ele>897.0</ele><time>2026-04-25T09:33:04.09Z</time></trkpt><trkpt lat="45.4546402" lon="14.0972677"><ele>897.0</ele><time>2026-04-25T09:33:05.085Z</time></trkpt><trkpt lat="45.4546781" lon="14.0974136"><ele>897.0</ele><time>2026-04-25T09:33:06.088Z</time></trkpt><trkpt lat="45.4547238" lon="14.0975333"><ele>897.0</ele><time>2026-04-25T09:33:07.09Z</time></trkpt><trkpt lat="45.4547776" lon="14.0976322"><ele>897.0</ele><time>2026-04-25T09:33:08.093Z</time></trkpt><trkpt lat="45.4548339" lon="14.0977239"><ele>896.6666666666666</ele><time>2026-04-25T09:33:09.089Z</time></trkpt><trkpt lat="45.4548841" lon="14.0978238"><ele>896.3333333333333</ele><time>2026-04-25T09:33:10.105Z</time></trkpt><trkpt lat="45.4549109" lon="14.0979278"><ele>896.0</ele><time>2026-04-25T09:33:11.094Z</time></trkpt><trkpt lat="45.4549257" lon="14.0980357"><ele>895.6666666666666</ele><time>2026-04-25T09:33:12.097Z</time></trkpt><trkpt lat="45.4549071" lon="14.0981461"><ele>895.3333333333333</ele><time>2026-04-25T09:33:13.087Z</time></trkpt><trkpt lat="45.4548709" lon="14.0982605"><ele>895.0</ele><time>2026-04-25T09:33:14.08Z</time></trkpt><trkpt lat="45.4548295" lon="14.0983542"><ele>894.2</ele><time>2026-04-25T09:33:15.08Z</time></trkpt><trkpt lat="45.4548586" lon="14.0984555"><ele>893.4</ele><time>2026-04-25T09:33:21.073Z</time></trkpt><trkpt lat="45.4549441" lon="14.0985135"><ele>892.5999999999999</ele><time>2026-04-25T09:33:24.086Z</time></trkpt><trkpt lat="45.4550696" lon="14.0985053"><ele>891.8</ele><time>2026-04-25T09:33:26.093Z</time></trkpt><trkpt lat="45.455145" lon="14.098503"><ele>891.0</ele><time>2026-04-25T09:33:27.094Z</time></trkpt><trkpt lat="45.4552256" lon="14.0985056"><ele>891.0</ele><time>2026-04-25T09:33:28.09Z</time></trkpt><trkpt lat="45.4552869" lon="14.0985612"><ele>891.0</ele><time>2026-04-25T09:33:29.091Z</time></trkpt><trkpt lat="45.4553336" lon="14.0986395"><ele>891.0</ele><time>2026-04-25T09:33:30.081Z</time></trkpt><trkpt lat="45.4553532" lon="14.0987461"><ele>891.0</ele><time>2026-04-25T09:33:31.076Z</time></trkpt><trkpt lat="45.4553494" lon="14.0988671"><ele>891.0</ele><time>2026-04-25T09:33:32.071Z</time></trkpt><trkpt lat="45.4553508" lon="14.0989855"><ele>891.0</ele><time>2026-04-25T09:33:33.076Z</time></trkpt><trkpt lat="45.4553524" lon="14.0991015"><ele>890.4</ele><time>2026-04-25T09:33:34.093Z</time></trkpt><trkpt lat="45.4553489" lon="14.0992244"><ele>889.8</ele><time>2026-04-25T09:33:35.092Z</time></trkpt><trkpt lat="45.4553349" lon="14.0993548"><ele>889.1999999999999</ele><time>2026-04-25T09:33:36.086Z</time></trkpt><trkpt lat="45.4553236" lon="14.0994963"><ele>888.5999999999999</ele><time>2026-04-25T09:33:37.092Z</time></trkpt><trkpt lat="45.4553025" lon="14.0996497"><ele>888.0</ele><time>2026-04-25T09:33:38.079Z</time></trkpt><trkpt lat="45.455292" lon="14.0998136"><ele>888.5</ele><time>2026-04-25T09:33:39.074Z</time></trkpt><trkpt lat="45.4552958" lon="14.099994"><ele>889.0</ele><time>2026-04-25T09:33:40.079Z</time></trkpt><trkpt lat="45.4552863" lon="14.1001702"><ele>889.5</ele><time>2026-04-25T09:33:41.08Z</time></trkpt><trkpt lat="45.4552829" lon="14.1003269"><ele>890.0</ele><time>2026-04-25T09:33:42.081Z</time></trkpt><trkpt lat="45.4552891" lon="14.1004814"><ele>890.0</ele><time>2026-04-25T09:33:43.083Z</time></trkpt><trkpt lat="45.4552965" lon="14.1006232"><ele>890.0</ele><time>2026-04-25T09:33:44.072Z</time></trkpt><trkpt lat="45.4552953" lon="14.1007695"><ele>890.0</ele><time>2026-04-25T09:33:45.073Z</time></trkpt><trkpt lat="45.4552806" lon="14.1009182"><ele>890.0</ele><time>2026-04-25T09:33:46.08Z</time></trkpt><trkpt lat="45.4552655" lon="14.1010586"><ele>890.0</ele><time>2026-04-25T09:33:47.076Z</time></trkpt><trkpt lat="45.4552518" lon="14.1011909"><ele>891.2</ele><time>2026-04-25T09:33:48.085Z</time></trkpt><trkpt lat="45.4552355" lon="14.1013301"><ele>892.4</ele><time>2026-04-25T09:33:49.069Z</time></trkpt><trkpt lat="45.4552165" lon="14.1014652"><ele>893.5999999999999</ele><time>2026-04-25T09:33:50.077Z</time></trkpt><trkpt lat="45.4552026" lon="14.1015983"><ele>894.8</ele><time>2026-04-25T09:33:51.068Z</time></trkpt><trkpt lat="45.455185" lon="14.1017212"><ele>896.0</ele><time>2026-04-25T09:33:52.07Z</time></trkpt><trkpt lat="45.4551655" lon="14.1018452"><ele>897.5000000000001</ele><time>2026-04-25T09:33:53.076Z</time></trkpt><trkpt lat="45.455143" lon="14.1019597"><ele>899.0</ele><time>2026-04-25T09:33:54.07Z</time></trkpt><trkpt lat="45.4551233" lon="14.1020781"><ele>900.5</ele><time>2026-04-25T09:33:55.077Z</time></trkpt><trkpt lat="45.4551098" lon="14.1022069"><ele>902.0</ele><time>2026-04-25T09:33:56.072Z</time></trkpt><trkpt lat="45.4551019" lon="14.1023466"><ele>903.5000000000001</ele><time>2026-04-25T09:33:57.086Z</time></trkpt><trkpt lat="45.4551005" lon="14.1024746"><ele>905.0</ele><time>2026-04-25T09:33:58.079Z</time></trkpt><trkpt lat="45.4551042" lon="14.1026015"><ele>906.3333333333334</ele><time>2026-04-25T09:33:59.081Z</time></trkpt><trkpt lat="45.4551174" lon="14.1027237"><ele>907.6666666666667</ele><time>2026-04-25T09:34:00.078Z</time></trkpt><trkpt lat="45.4551418" lon="14.1028388"><ele>909.0</ele><time>2026-04-25T09:34:01.076Z</time></trkpt><trkpt lat="45.4551852" lon="14.102939"><ele>910.3333333333333</ele><time>2026-04-25T09:34:02.075Z</time></trkpt><trkpt lat="45.4552395" lon="14.1030257"><ele>911.6666666666666</ele><time>2026-04-25T09:34:03.069Z</time></trkpt><trkpt lat="45.4552963" lon="14.1031076"><ele>913.0</ele><time>2026-04-25T09:34:04.084Z</time></trkpt><trkpt lat="45.4553484" lon="14.1032065"><ele>914.1666666666666</ele><time>2026-04-25T09:34:05.077Z</time></trkpt><trkpt lat="45.4553867" lon="14.1032958"><ele>915.3333333333333</ele><time>2026-04-25T09:34:06.081Z</time></trkpt><trkpt lat="45.4553907" lon="14.1034143"><ele>916.5</ele><time>2026-04-25T09:34:07.078Z</time></trkpt><trkpt lat="45.4553718" lon="14.103538"><ele>917.6666666666667</ele><time>2026-04-25T09:34:08.065Z</time></trkpt><trkpt lat="45.4553378" lon="14.1036512"><ele>918.8333333333334</ele><time>2026-04-25T09:34:09.067Z</time></trkpt><trkpt lat="45.4552675" lon="14.1037611"><ele>920.0</ele><time>2026-04-25T09:34:10.078Z</time></trkpt><trkpt lat="45.4551879" lon="14.1038656"><ele>920.0</ele><time>2026-04-25T09:34:11.068Z</time></trkpt><trkpt lat="45.4551033" lon="14.1039725"><ele>920.0</ele><time>2026-04-25T09:34:12.088Z</time></trkpt><trkpt lat="45.4550202" lon="14.1040849"><ele>920.0</ele><time>2026-04-25T09:34:13.079Z</time></trkpt><trkpt lat="45.4549407" lon="14.1041918"><ele>920.0</ele><time>2026-04-25T09:34:14.082Z</time></trkpt><trkpt lat="45.4548654" lon="14.1042789"><ele>920.0</ele><time>2026-04-25T09:34:15.07Z</time></trkpt><trkpt lat="45.4548017" lon="14.1043489"><ele>919.7142857142856</ele><time>2026-04-25T09:34:16.071Z</time></trkpt><trkpt lat="45.4547373" lon="14.1044032"><ele>919.4285714285713</ele><time>2026-04-25T09:34:17.069Z</time></trkpt><trkpt lat="45.4546739" lon="14.1044574"><ele>919.1428571428571</ele><time>2026-04-25T09:34:18.08Z</time></trkpt><trkpt lat="45.4546082" lon="14.1045114"><ele>918.8571428571428</ele><time>2026-04-25T09:34:19.08Z</time></trkpt><trkpt lat="45.4545411" lon="14.1045638"><ele>918.5714285714284</ele><time>2026-04-25T09:34:20.091Z</time></trkpt><trkpt lat="45.4544835" lon="14.1046136"><ele>918.2857142857143</ele><time>2026-04-25T09:34:21.078Z</time></trkpt><trkpt lat="45.4544271" lon="14.104663"><ele>918.0</ele><time>2026-04-25T09:34:22.078Z</time></trkpt><trkpt lat="45.4543679" lon="14.1047164"><ele>919.3333333333334</ele><time>2026-04-25T09:34:23.077Z</time></trkpt><trkpt lat="45.4543102" lon="14.1047713"><ele>920.6666666666667</ele><time>2026-04-25T09:34:24.077Z</time></trkpt><trkpt lat="45.454252" lon="14.1048323"><ele>922.0</ele><time>2026-04-25T09:34:25.078Z</time></trkpt><trkpt lat="45.4541826" lon="14.1048951"><ele>923.3333333333334</ele><time>2026-04-25T09:34:26.085Z</time></trkpt><trkpt lat="45.4541185" lon="14.1049602"><ele>924.6666666666667</ele><time>2026-04-25T09:34:27.075Z</time></trkpt><trkpt lat="45.4540448" lon="14.1050179"><ele>926.0</ele><time>2026-04-25T09:34:28.081Z</time></trkpt><trkpt lat="45.453981" lon="14.1050741"><ele>926.0000000000001</ele><time>2026-04-25T09:34:29.078Z</time></trkpt><trkpt lat="45.4539228" lon="14.1051386"><ele>926.0</ele><time>2026-04-25T09:34:30.075Z</time></trkpt><trkpt lat="45.4538716" lon="14.1052104"><ele>926.0</ele><time>2026-04-25T09:34:31.086Z</time></trkpt><trkpt lat="45.4538253" lon="14.1052825"><ele>926.0</ele><time>2026-04-25T09:34:32.076Z</time></trkpt><trkpt lat="45.4537765" lon="14.1053458"><ele>926.0000000000001</ele><time>2026-04-25T09:34:33.081Z</time></trkpt><trkpt lat="45.4536752" lon="14.1054308"><ele>926.0</ele><time>2026-04-25T09:34:35.079Z</time></trkpt><trkpt lat="45.453606" lon="14.1054521"><ele>928.3333333333334</ele><time>2026-04-25T09:34:36.077Z</time></trkpt><trkpt lat="45.4535425" lon="14.1054764"><ele>930.6666666666667</ele><time>2026-04-25T09:34:37.073Z</time></trkpt><trkpt lat="45.4534794" lon="14.1054945"><ele>933.0</ele><time>2026-04-25T09:34:38.076Z</time></trkpt><trkpt lat="45.4534115" lon="14.1054937"><ele>935.3333333333333</ele><time>2026-04-25T09:34:39.08Z</time></trkpt><trkpt lat="45.4532839" lon="14.1054832"><ele>937.6666666666666</ele><time>2026-04-25T09:34:41.073Z</time></trkpt><trkpt lat="45.4532169" lon="14.1054705"><ele>940.0</ele><time>2026-04-25T09:34:42.075Z</time></trkpt><trkpt lat="45.4531459" lon="14.1054539"><ele>939.9999999999999</ele><time>2026-04-25T09:34:43.079Z</time></trkpt><trkpt lat="45.4530818" lon="14.1054552"><ele>940.0</ele><time>2026-04-25T09:34:44.075Z</time></trkpt><trkpt lat="45.4530195" lon="14.1054704"><ele>940.0</ele><time>2026-04-25T09:34:45.084Z</time></trkpt><trkpt lat="45.4529552" lon="14.1054927"><ele>940.0</ele><time>2026-04-25T09:34:46.08Z</time></trkpt><trkpt lat="45.4528327" lon="14.1055183"><ele>939.9999999999999</ele><time>2026-04-25T09:34:48.084Z</time></trkpt><trkpt lat="45.4527568" lon="14.1055604"><ele>940.0</ele><time>2026-04-25T09:34:49.078Z</time></trkpt><trkpt lat="45.4526817" lon="14.1056164"><ele>940.9999999999999</ele><time>2026-04-25T09:34:50.087Z</time></trkpt><trkpt lat="45.4526213" lon="14.1056709"><ele>942.0</ele><time>2026-04-25T09:34:51.076Z</time></trkpt><trkpt lat="45.4525663" lon="14.1057183"><ele>943.0</ele><time>2026-04-25T09:34:52.099Z</time></trkpt><trkpt lat="45.4524948" lon="14.1057626"><ele>944.0</ele><time>2026-04-25T09:34:54.079Z</time></trkpt><trkpt lat="45.452396" lon="14.1057005"><ele>944.9999999999999</ele><time>2026-04-25T09:34:57.073Z</time></trkpt><trkpt lat="45.4523006" lon="14.105602"><ele>946.0</ele><time>2026-04-25T09:34:59.078Z</time></trkpt><trkpt lat="45.4522385" lon="14.1055558"><ele>945.4999999999999</ele><time>2026-04-25T09:35:00.072Z</time></trkpt><trkpt lat="45.4521784" lon="14.1055262"><ele>945.0</ele><time>2026-04-25T09:35:01.074Z</time></trkpt><trkpt lat="45.452116" lon="14.1055077"><ele>944.5</ele><time>2026-04-25T09:35:02.08Z</time></trkpt><trkpt lat="45.4520505" lon="14.1054977"><ele>944.0</ele><time>2026-04-25T09:35:03.08Z</time></trkpt><trkpt lat="45.4519193" lon="14.1055137"><ele>943.4999999999999</ele><time>2026-04-25T09:35:05.095Z</time></trkpt><trkpt lat="45.4517978" lon="14.1055368"><ele>943.0</ele><time>2026-04-25T09:35:07.076Z</time></trkpt><trkpt lat="45.4516744" lon="14.1055702"><ele>943.0</ele><time>2026-04-25T09:35:09.079Z</time></trkpt><trkpt lat="45.4515597" lon="14.1056086"><ele>943.0</ele><time>2026-04-25T09:35:11.083Z</time></trkpt><trkpt lat="45.4514841" lon="14.1056958"><ele>943.0</ele><time>2026-04-25T09:35:13.079Z</time></trkpt><trkpt lat="45.4514224" lon="14.1057613"><ele>943.0</ele><time>2026-04-25T09:35:15.073Z</time></trkpt><trkpt lat="45.4513478" lon="14.105808"><ele>943.0</ele><time>2026-04-25T09:35:17.086Z</time></trkpt><trkpt lat="45.4512506" lon="14.1058578"><ele>941.4285714285714</ele><time>2026-04-25T09:35:19.076Z</time></trkpt><trkpt lat="45.4511784" lon="14.1059185"><ele>939.8571428571429</ele><time>2026-04-25T09:35:20.08Z</time></trkpt><trkpt lat="45.451125" lon="14.1059775"><ele>938.2857142857143</ele><time>2026-04-25T09:35:21.081Z</time></trkpt><trkpt lat="45.4510634" lon="14.1060414"><ele>936.7142857142858</ele><time>2026-04-25T09:35:22.077Z</time></trkpt><trkpt lat="45.4510062" lon="14.1060841"><ele>935.1428571428571</ele><time>2026-04-25T09:35:23.081Z</time></trkpt><trkpt lat="45.4509471" lon="14.1061166"><ele>933.5714285714287</ele><time>2026-04-25T09:35:24.086Z</time></trkpt><trkpt lat="45.4508782" lon="14.1061443"><ele>932.0</ele><time>2026-04-25T09:35:25.075Z</time></trkpt><trkpt lat="45.4508063" lon="14.1061837"><ele>932.0</ele><time>2026-04-25T09:35:26.079Z</time></trkpt><trkpt lat="45.4507167" lon="14.1062089"><ele>932.0</ele><time>2026-04-25T09:35:27.074Z</time></trkpt><trkpt lat="45.4506149" lon="14.1062441"><ele>932.0</ele><time>2026-04-25T09:35:28.083Z</time></trkpt><trkpt lat="45.4505222" lon="14.1062903"><ele>932.0</ele><time>2026-04-25T09:35:29.072Z</time></trkpt><trkpt lat="45.4504374" lon="14.1063078"><ele>932.0</ele><time>2026-04-25T09:35:30.072Z</time></trkpt><trkpt lat="45.4503607" lon="14.1063123"><ele>931.3333333333334</ele><time>2026-04-25T09:35:31.077Z</time></trkpt><trkpt lat="45.4502832" lon="14.1063237"><ele>930.6666666666667</ele><time>2026-04-25T09:35:32.071Z</time></trkpt><trkpt lat="45.4502199" lon="14.1063363"><ele>930.0</ele><time>2026-04-25T09:35:33.087Z</time></trkpt><trkpt lat="45.4501393" lon="14.1063365"><ele>929.3333333333333</ele><time>2026-04-25T09:35:35.083Z</time></trkpt><trkpt lat="45.4500912" lon="14.1062751"><ele>928.6666666666666</ele><time>2026-04-25T09:35:37.062Z</time></trkpt><trkpt lat="45.4500474" lon="14.10618"><ele>928.0</ele><time>2026-04-25T09:35:39.068Z</time></trkpt><trkpt lat="45.449995" lon="14.1060426"><ele>928.0</ele><time>2026-04-25T09:35:41.074Z</time></trkpt><trkpt lat="45.4499162" lon="14.1058986"><ele>928.0</ele><time>2026-04-25T09:35:43.08Z</time></trkpt><trkpt lat="45.4498343" lon="14.1057685"><ele>928.0</ele><time>2026-04-25T09:35:45.076Z</time></trkpt><trkpt lat="45.4497817" lon="14.1057126"><ele>928.0</ele><time>2026-04-25T09:35:46.082Z</time></trkpt><trkpt lat="45.4497086" lon="14.1056677"><ele>928.0</ele><time>2026-04-25T09:35:47.097Z</time></trkpt><trkpt lat="45.4496288" lon="14.1056262"><ele>928.4999999999999</ele><time>2026-04-25T09:35:48.093Z</time></trkpt><trkpt lat="45.4495446" lon="14.1055479"><ele>929.0</ele><time>2026-04-25T09:35:50.088Z</time></trkpt><trkpt lat="45.4495052" lon="14.1054443"><ele>929.5</ele><time>2026-04-25T09:35:52.1Z</time></trkpt><trkpt lat="45.4495131" lon="14.105339"><ele>930.0</ele><time>2026-04-25T09:35:54.08Z</time></trkpt><trkpt lat="45.449536" lon="14.1052411"><ele>930.4999999999999</ele><time>2026-04-25T09:35:56.08Z</time></trkpt><trkpt lat="45.4495924" lon="14.1051521"><ele>931.0</ele><time>2026-04-25T09:35:58.079Z</time></trkpt><trkpt lat="45.4496653" lon="14.1050335"><ele>934.0</ele><time>2026-04-25T09:36:00.084Z</time></trkpt><trkpt lat="45.4496999" lon="14.1048631"><ele>936.9999999999999</ele><time>2026-04-25T09:36:02.083Z</time></trkpt><trkpt lat="45.4497402" lon="14.1046983"><ele>939.9999999999999</ele><time>2026-04-25T09:36:04.09Z</time></trkpt><trkpt lat="45.4497642" lon="14.1045972"><ele>943.0</ele><time>2026-04-25T09:36:05.077Z</time></trkpt><trkpt lat="45.4497743" lon="14.1044668"><ele>946.0</ele><time>2026-04-25T09:36:07.076Z</time></trkpt><trkpt lat="45.4497515" lon="14.1043683"><ele>945.9999999999999</ele><time>2026-04-25T09:36:09.076Z</time></trkpt><trkpt lat="45.4496954" lon="14.1043106"><ele>946.0</ele><time>2026-04-25T09:36:11.07Z</time></trkpt><trkpt lat="45.4495936" lon="14.1042778"><ele>946.0</ele><time>2026-04-25T09:36:13.071Z</time></trkpt><trkpt lat="45.4495283" lon="14.104261"><ele>946.0</ele><time>2026-04-25T09:36:14.08Z</time></trkpt><trkpt lat="45.4494568" lon="14.104239"><ele>945.9999999999999</ele><time>2026-04-25T09:36:15.082Z</time></trkpt><trkpt lat="45.4493836" lon="14.104219"><ele>946.0</ele><time>2026-04-25T09:36:16.08Z</time></trkpt><trkpt lat="45.4493239" lon="14.1041768"><ele>945.7142857142858</ele><time>2026-04-25T09:36:17.077Z</time></trkpt><trkpt lat="45.4492594" lon="14.1041466"><ele>945.4285714285713</ele><time>2026-04-25T09:36:18.073Z</time></trkpt><trkpt lat="45.4491904" lon="14.1041281"><ele>945.1428571428571</ele><time>2026-04-25T09:36:19.074Z</time></trkpt><trkpt lat="45.4490805" lon="14.1041249"><ele>944.8571428571429</ele><time>2026-04-25T09:36:21.081Z</time></trkpt><trkpt lat="45.4490168" lon="14.1041345"><ele>944.5714285714287</ele><time>2026-04-25T09:36:22.073Z</time></trkpt><trkpt lat="45.4489529" lon="14.1041493"><ele>944.2857142857142</ele><time>2026-04-25T09:36:23.078Z</time></trkpt><trkpt lat="45.4488869" lon="14.1041645"><ele>944.0</ele><time>2026-04-25T09:36:24.093Z</time></trkpt><trkpt lat="45.4488153" lon="14.1041709"><ele>945.2</ele><time>2026-04-25T09:36:25.082Z</time></trkpt><trkpt lat="45.4486917" lon="14.1041559"><ele>946.4000000000001</ele><time>2026-04-25T09:36:27.078Z</time></trkpt><trkpt lat="45.4486288" lon="14.1041409"><ele>947.6</ele><time>2026-04-25T09:36:28.085Z</time></trkpt><trkpt lat="45.4485104" lon="14.1040642"><ele>948.8</ele><time>2026-04-25T09:36:30.085Z</time></trkpt><trkpt lat="45.4484473" lon="14.104023"><ele>950.0</ele><time>2026-04-25T09:36:31.096Z</time></trkpt><trkpt lat="45.4483833" lon="14.1039768"><ele>950.8333333333334</ele><time>2026-04-25T09:36:32.083Z</time></trkpt><trkpt lat="45.448275" lon="14.1038882"><ele>951.6666666666667</ele><time>2026-04-25T09:36:34.084Z</time></trkpt><trkpt lat="45.4482104" lon="14.1038379"><ele>952.5</ele><time>2026-04-25T09:36:35.081Z</time></trkpt><trkpt lat="45.4481508" lon="14.1037971"><ele>953.3333333333333</ele><time>2026-04-25T09:36:36.083Z</time></trkpt><trkpt lat="45.4480879" lon="14.1037385"><ele>954.1666666666666</ele><time>2026-04-25T09:36:37.081Z</time></trkpt><trkpt lat="45.4480195" lon="14.1036801"><ele>955.0</ele><time>2026-04-25T09:36:38.076Z</time></trkpt><trkpt lat="45.4479557" lon="14.1036316"><ele>954.9999999999999</ele><time>2026-04-25T09:36:39.07Z</time></trkpt><trkpt lat="45.4478933" lon="14.1035841"><ele>955.0</ele><time>2026-04-25T09:36:40.097Z</time></trkpt><trkpt lat="45.4478312" lon="14.1035317"><ele>955.0</ele><time>2026-04-25T09:36:41.078Z</time></trkpt><trkpt lat="45.4477409" lon="14.1034549"><ele>955.0</ele><time>2026-04-25T09:36:43.081Z</time></trkpt><trkpt lat="45.4476868" lon="14.1034065"><ele>954.9999999999999</ele><time>2026-04-25T09:36:44.081Z</time></trkpt><trkpt lat="45.4476081" lon="14.1032859"><ele>955.0</ele><time>2026-04-25T09:36:46.078Z</time></trkpt><trkpt lat="45.4475749" lon="14.1032057"><ele>955.8333333333333</ele><time>2026-04-25T09:36:47.08Z</time></trkpt><trkpt lat="45.4475166" lon="14.1031129"><ele>956.6666666666666</ele><time>2026-04-25T09:36:48.084Z</time></trkpt><trkpt lat="45.4474548" lon="14.1030196"><ele>957.5</ele><time>2026-04-25T09:36:49.072Z</time></trkpt><trkpt lat="45.4473986" lon="14.1029302"><ele>958.3333333333333</ele><time>2026-04-25T09:36:50.087Z</time></trkpt><trkpt lat="45.4473405" lon="14.1028747"><ele>959.1666666666666</ele><time>2026-04-25T09:36:51.088Z</time></trkpt><trkpt lat="45.4472811" lon="14.1028439"><ele>960.0</ele><time>2026-04-25T09:36:52.084Z</time></trkpt><trkpt lat="45.4471721" lon="14.1028716"><ele>960.0</ele><time>2026-04-25T09:36:54.074Z</time></trkpt><trkpt lat="45.4471162" lon="14.1029135"><ele>960.0</ele><time>2026-04-25T09:36:55.076Z</time></trkpt><trkpt lat="45.4470564" lon="14.1029647"><ele>960.0</ele><time>2026-04-25T09:36:56.08Z</time></trkpt><trkpt lat="45.4469564" lon="14.1030868"><ele>960.0</ele><time>2026-04-25T09:36:58.083Z</time></trkpt><trkpt lat="45.446911" lon="14.1031635"><ele>960.0</ele><time>2026-04-25T09:36:59.079Z</time></trkpt><trkpt lat="45.4468709" lon="14.1032334"><ele>960.0</ele><time>2026-04-25T09:37:00.079Z</time></trkpt><trkpt lat="45.4467928" lon="14.1033474"><ele>960.0</ele><time>2026-04-25T09:37:02.085Z</time></trkpt><trkpt lat="45.4467082" lon="14.1033731"><ele>960.0</ele><time>2026-04-25T09:37:04.084Z</time></trkpt><trkpt lat="45.4466253" lon="14.1033048"><ele>960.0</ele><time>2026-04-25T09:37:06.068Z</time></trkpt><trkpt lat="45.4465744" lon="14.1032516"><ele>960.0</ele><time>2026-04-25T09:37:07.073Z</time></trkpt><trkpt lat="45.4465154" lon="14.1032124"><ele>960.0</ele><time>2026-04-25T09:37:43.085Z</time></trkpt><trkpt lat="45.4464386" lon="14.1032416"><ele>960.0</ele><time>2026-04-25T09:37:47.074Z</time></trkpt><trkpt lat="45.4464215" lon="14.1033493"><ele>960.0</ele><time>2026-04-25T09:37:49.074Z</time></trkpt><trkpt lat="45.4464662" lon="14.1034871"><ele>960.0</ele><time>2026-04-25T09:37:51.07Z</time></trkpt><trkpt lat="45.4465366" lon="14.1036273"><ele>960.0</ele><time>2026-04-25T09:37:53.079Z</time></trkpt><trkpt lat="45.4465694" lon="14.1037043"><ele>960.0</ele><time>2026-04-25T09:37:54.089Z</time></trkpt><trkpt lat="45.4466284" lon="14.1038556"><ele>960.0</ele><time>2026-04-25T09:37:56.084Z</time></trkpt><trkpt lat="45.4466664" lon="14.1039316"><ele>960.0</ele><time>2026-04-25T09:37:57.084Z</time></trkpt><trkpt lat="45.4467085" lon="14.1040162"><ele>960.0</ele><time>2026-04-25T09:37:58.08Z</time></trkpt><trkpt lat="45.4467407" lon="14.1040993"><ele>960.0</ele><time>2026-04-25T09:37:59.083Z</time></trkpt><trkpt lat="45.446765" lon="14.1041835"><ele>960.0</ele><time>2026-04-25T09:38:00.086Z</time></trkpt><trkpt lat="45.4468036" lon="14.1043508"><ele>960.0</ele><time>2026-04-25T09:38:02.086Z</time></trkpt><trkpt lat="45.4467913" lon="14.104439"><ele>960.0</ele><time>2026-04-25T09:38:03.066Z</time></trkpt><trkpt lat="45.4467717" lon="14.1046055"><ele>960.1666666666666</ele><time>2026-04-25T09:38:05.074Z</time></trkpt><trkpt lat="45.4467746" lon="14.1046987"><ele>960.3333333333333</ele><time>2026-04-25T09:38:06.077Z</time></trkpt><trkpt lat="45.446803" lon="14.1048761"><ele>960.5</ele><time>2026-04-25T09:38:08.075Z</time></trkpt><trkpt lat="45.4468245" lon="14.1049736"><ele>960.6666666666666</ele><time>2026-04-25T09:38:09.076Z</time></trkpt><trkpt lat="45.4468493" lon="14.1050662"><ele>960.8333333333333</ele><time>2026-04-25T09:38:10.078Z</time></trkpt><trkpt lat="45.4468914" lon="14.1051642"><ele>961.0</ele><time>2026-04-25T09:38:12.083Z</time></trkpt><trkpt lat="45.4469338" lon="14.1052384"><ele>961.6666666666666</ele><time>2026-04-25T09:38:14.072Z</time></trkpt><trkpt lat="45.4469846" lon="14.1053112"><ele>962.3333333333333</ele><time>2026-04-25T09:38:17.069Z</time></trkpt><trkpt lat="45.4470123" lon="14.1054138"><ele>963.0</ele><time>2026-04-25T09:38:22.083Z</time></trkpt><trkpt lat="45.4470266" lon="14.105508"><ele>963.6666666666667</ele><time>2026-04-25T09:38:25.084Z</time></trkpt><trkpt lat="45.4469869" lon="14.1056117"><ele>964.3333333333334</ele><time>2026-04-25T09:38:28.071Z</time></trkpt><trkpt lat="45.4469734" lon="14.1057224"><ele>965.0</ele><time>2026-04-25T09:38:30.093Z</time></trkpt><trkpt lat="45.4470136" lon="14.1058805"><ele>965.8333333333334</ele><time>2026-04-25T09:38:32.079Z</time></trkpt><trkpt lat="45.4470357" lon="14.1059825"><ele>966.6666666666667</ele><time>2026-04-25T09:38:33.087Z</time></trkpt><trkpt lat="45.4470556" lon="14.1061024"><ele>967.5</ele><time>2026-04-25T09:38:34.079Z</time></trkpt><trkpt lat="45.4470776" lon="14.106225"><ele>968.3333333333333</ele><time>2026-04-25T09:38:35.08Z</time></trkpt><trkpt lat="45.447101" lon="14.1063566"><ele>969.1666666666666</ele><time>2026-04-25T09:38:36.13Z</time></trkpt><trkpt lat="45.4471162" lon="14.1064812"><ele>970.0</ele><time>2026-04-25T09:38:37.083Z</time></trkpt><trkpt lat="45.4471266" lon="14.1066057"><ele>970.1428571428573</ele><time>2026-04-25T09:38:38.068Z</time></trkpt><trkpt lat="45.4471299" lon="14.106719"><ele>970.2857142857143</ele><time>2026-04-25T09:38:39.073Z</time></trkpt><trkpt lat="45.4471281" lon="14.1068212"><ele>970.4285714285716</ele><time>2026-04-25T09:38:40.067Z</time></trkpt><trkpt lat="45.4471271" lon="14.1069273"><ele>970.5714285714287</ele><time>2026-04-25T09:38:41.07Z</time></trkpt><trkpt lat="45.4471226" lon="14.1070248"><ele>970.7142857142858</ele><time>2026-04-25T09:38:42.064Z</time></trkpt><trkpt lat="45.4471102" lon="14.1071237"><ele>970.8571428571429</ele><time>2026-04-25T09:38:43.071Z</time></trkpt><trkpt lat="45.4470968" lon="14.1072181"><ele>971.0</ele><time>2026-04-25T09:38:44.068Z</time></trkpt><trkpt lat="45.4470794" lon="14.1073159"><ele>969.5000000000001</ele><time>2026-04-25T09:38:45.07Z</time></trkpt><trkpt lat="45.4470565" lon="14.1074275"><ele>968.0</ele><time>2026-04-25T09:38:46.076Z</time></trkpt><trkpt lat="45.4470367" lon="14.1075329"><ele>966.5</ele><time>2026-04-25T09:38:47.065Z</time></trkpt><trkpt lat="45.4470152" lon="14.1076357"><ele>965.0</ele><time>2026-04-25T09:38:48.066Z</time></trkpt><trkpt lat="45.4469959" lon="14.1077337"><ele>963.5000000000001</ele><time>2026-04-25T09:38:49.069Z</time></trkpt><trkpt lat="45.4469743" lon="14.1078453"><ele>962.0</ele><time>2026-04-25T09:38:50.075Z</time></trkpt><trkpt lat="45.4469499" lon="14.1079387"><ele>961.9999999999999</ele><time>2026-04-25T09:38:51.079Z</time></trkpt><trkpt lat="45.4469313" lon="14.1080289"><ele>962.0</ele><time>2026-04-25T09:38:52.082Z</time></trkpt><trkpt lat="45.4469055" lon="14.1081204"><ele>961.9999999999999</ele><time>2026-04-25T09:38:53.078Z</time></trkpt><trkpt lat="45.446867" lon="14.1082147"><ele>961.9999999999999</ele><time>2026-04-25T09:38:54.076Z</time></trkpt><trkpt lat="45.4468234" lon="14.1083048"><ele>962.0</ele><time>2026-04-25T09:38:55.076Z</time></trkpt><trkpt lat="45.4467862" lon="14.1084004"><ele>961.9999999999999</ele><time>2026-04-25T09:38:56.071Z</time></trkpt><trkpt lat="45.4467606" lon="14.1085021"><ele>961.9999999999999</ele><time>2026-04-25T09:38:57.074Z</time></trkpt><trkpt lat="45.4467336" lon="14.1086013"><ele>960.1666666666667</ele><time>2026-04-25T09:38:58.07Z</time></trkpt><trkpt lat="45.4467031" lon="14.1087046"><ele>958.3333333333334</ele><time>2026-04-25T09:38:59.077Z</time></trkpt><trkpt lat="45.4466764" lon="14.1088181"><ele>956.5</ele><time>2026-04-25T09:39:00.075Z</time></trkpt><trkpt lat="45.4466419" lon="14.1089305"><ele>954.6666666666667</ele><time>2026-04-25T09:39:01.081Z</time></trkpt><trkpt lat="45.4466103" lon="14.1090383"><ele>952.8333333333334</ele><time>2026-04-25T09:39:02.076Z</time></trkpt><trkpt lat="45.4465844" lon="14.1091331"><ele>951.0</ele><time>2026-04-25T09:39:03.069Z</time></trkpt><trkpt lat="45.4465649" lon="14.1092282"><ele>950.0</ele><time>2026-04-25T09:39:04.079Z</time></trkpt><trkpt lat="45.4464966" lon="14.1093623"><ele>948.9999999999999</ele><time>2026-04-25T09:39:06.073Z</time></trkpt><trkpt lat="45.446468" lon="14.1094507"><ele>947.9999999999999</ele><time>2026-04-25T09:39:07.082Z</time></trkpt><trkpt lat="45.4464355" lon="14.109625"><ele>947.0</ele><time>2026-04-25T09:39:09.075Z</time></trkpt><trkpt lat="45.446405" lon="14.1098114"><ele>946.0</ele><time>2026-04-25T09:39:11.077Z</time></trkpt><trkpt lat="45.4463847" lon="14.1099181"><ele>944.9999999999999</ele><time>2026-04-25T09:39:12.065Z</time></trkpt><trkpt lat="45.446356" lon="14.1100295"><ele>944.0</ele><time>2026-04-25T09:39:13.079Z</time></trkpt><trkpt lat="45.4463301" lon="14.110137"><ele>943.0</ele><time>2026-04-25T09:39:14.076Z</time></trkpt><trkpt lat="45.4463126" lon="14.11025"><ele>942.0</ele><time>2026-04-25T09:39:15.069Z</time></trkpt><trkpt lat="45.4463065" lon="14.1103511"><ele>940.9999999999999</ele><time>2026-04-25T09:39:16.091Z</time></trkpt><trkpt lat="45.4462972" lon="14.1104554"><ele>940.0</ele><time>2026-04-25T09:39:17.068Z</time></trkpt><trkpt lat="45.4462756" lon="14.1105406"><ele>940.8333333333333</ele><time>2026-04-25T09:39:18.072Z</time></trkpt><trkpt lat="45.4462493" lon="14.1106292"><ele>941.6666666666666</ele><time>2026-04-25T09:39:19.065Z</time></trkpt><trkpt lat="45.4462075" lon="14.1107089"><ele>942.5</ele><time>2026-04-25T09:39:20.082Z</time></trkpt><trkpt lat="45.4461415" lon="14.1107845"><ele>943.3333333333333</ele><time>2026-04-25T09:39:21.064Z</time></trkpt><trkpt lat="45.4460726" lon="14.1108636"><ele>944.1666666666666</ele><time>2026-04-25T09:39:22.081Z</time></trkpt><trkpt lat="45.4460021" lon="14.1109449"><ele>945.0</ele><time>2026-04-25T09:39:23.069Z</time></trkpt><trkpt lat="45.4459374" lon="14.1110353"><ele>945.0</ele><time>2026-04-25T09:39:24.085Z</time></trkpt><trkpt lat="45.4458651" lon="14.1111219"><ele>945.0</ele><time>2026-04-25T09:39:25.072Z</time></trkpt><trkpt lat="45.445792" lon="14.1112093"><ele>945.0</ele><time>2026-04-25T09:39:26.073Z</time></trkpt><trkpt lat="45.4457157" lon="14.1112985"><ele>945.0</ele><time>2026-04-25T09:39:27.07Z</time></trkpt><trkpt lat="45.4456386" lon="14.1113828"><ele>945.0</ele><time>2026-04-25T09:39:28.072Z</time></trkpt><trkpt lat="45.4455741" lon="14.1114646"><ele>945.0</ele><time>2026-04-25T09:39:29.068Z</time></trkpt><trkpt lat="45.4455178" lon="14.1115568"><ele>945.0</ele><time>2026-04-25T09:39:30.07Z</time></trkpt><trkpt lat="45.4454662" lon="14.1116617"><ele>945.0</ele><time>2026-04-25T09:39:31.075Z</time></trkpt><trkpt lat="45.4454303" lon="14.1117534"><ele>945.0</ele><time>2026-04-25T09:39:32.079Z</time></trkpt><trkpt lat="45.4453912" lon="14.1118494"><ele>945.0</ele><time>2026-04-25T09:39:33.072Z</time></trkpt><trkpt lat="45.4453556" lon="14.1119304"><ele>945.0</ele><time>2026-04-25T09:39:34.07Z</time></trkpt><trkpt lat="45.4453193" lon="14.1120196"><ele>944.1428571428571</ele><time>2026-04-25T09:39:35.082Z</time></trkpt><trkpt lat="45.4452789" lon="14.1121064"><ele>943.2857142857142</ele><time>2026-04-25T09:39:36.072Z</time></trkpt><trkpt lat="45.4452489" lon="14.1122038"><ele>942.4285714285714</ele><time>2026-04-25T09:39:37.069Z</time></trkpt><trkpt lat="45.445212" lon="14.1122963"><ele>941.5714285714286</ele><time>2026-04-25T09:39:38.076Z</time></trkpt><trkpt lat="45.4451732" lon="14.1123956"><ele>940.7142857142857</ele><time>2026-04-25T09:39:39.072Z</time></trkpt><trkpt lat="45.4451381" lon="14.1124802"><ele>939.8571428571429</ele><time>2026-04-25T09:39:40.075Z</time></trkpt><trkpt lat="45.4451017" lon="14.1125655"><ele>939.0</ele><time>2026-04-25T09:39:41.07Z</time></trkpt><trkpt lat="45.4450602" lon="14.112654"><ele>939.0</ele><time>2026-04-25T09:39:42.073Z</time></trkpt><trkpt lat="45.4450176" lon="14.1127391"><ele>939.0</ele><time>2026-04-25T09:39:43.07Z</time></trkpt><trkpt lat="45.4449744" lon="14.1128157"><ele>939.0</ele><time>2026-04-25T09:39:44.07Z</time></trkpt><trkpt lat="45.4449303" lon="14.1128874"><ele>939.0</ele><time>2026-04-25T09:39:45.075Z</time></trkpt><trkpt lat="45.4448787" lon="14.1129594"><ele>939.0</ele><time>2026-04-25T09:39:46.071Z</time></trkpt><trkpt lat="45.4448231" lon="14.1130244"><ele>939.0</ele><time>2026-04-25T09:39:47.095Z</time></trkpt><trkpt lat="45.4447623" lon="14.1130881"><ele>939.0</ele><time>2026-04-25T09:39:48.075Z</time></trkpt><trkpt lat="45.4447139" lon="14.1131491"><ele>939.75</ele><time>2026-04-25T09:39:49.074Z</time></trkpt><trkpt lat="45.4446383" lon="14.1132949"><ele>940.5</ele><time>2026-04-25T09:39:51.074Z</time></trkpt><trkpt lat="45.4445828" lon="14.1134731"><ele>941.25</ele><time>2026-04-25T09:39:53.08Z</time></trkpt><trkpt lat="45.4445645" lon="14.113574"><ele>942.0</ele><time>2026-04-25T09:39:54.078Z</time></trkpt><trkpt lat="45.4445365" lon="14.1137491"><ele>942.0</ele><time>2026-04-25T09:39:56.088Z</time></trkpt><trkpt lat="45.4445222" lon="14.1138507"><ele>942.0</ele><time>2026-04-25T09:39:57.075Z</time></trkpt><trkpt lat="45.4445" lon="14.1140307"><ele>942.0</ele><time>2026-04-25T09:39:59.07Z</time></trkpt><trkpt lat="45.4444467" lon="14.1141933"><ele>942.0</ele><time>2026-04-25T09:40:01.072Z</time></trkpt><trkpt lat="45.4444114" lon="14.1142865"><ele>942.0</ele><time>2026-04-25T09:40:02.076Z</time></trkpt><trkpt lat="45.4443704" lon="14.1143744"><ele>939.8333333333334</ele><time>2026-04-25T09:40:03.074Z</time></trkpt><trkpt lat="45.4443306" lon="14.1144689"><ele>937.6666666666667</ele><time>2026-04-25T09:40:04.079Z</time></trkpt><trkpt lat="45.4442908" lon="14.1145589"><ele>935.5</ele><time>2026-04-25T09:40:05.079Z</time></trkpt><trkpt lat="45.4442568" lon="14.1146569"><ele>933.3333333333334</ele><time>2026-04-25T09:40:06.073Z</time></trkpt><trkpt lat="45.4442218" lon="14.1147522"><ele>931.1666666666667</ele><time>2026-04-25T09:40:07.09Z</time></trkpt><trkpt lat="45.4441902" lon="14.1148621"><ele>929.0</ele><time>2026-04-25T09:40:08.068Z</time></trkpt><trkpt lat="45.4441544" lon="14.1149929"><ele>927.8000000000001</ele><time>2026-04-25T09:40:09.069Z</time></trkpt><trkpt lat="45.4441307" lon="14.1151224"><ele>926.6000000000001</ele><time>2026-04-25T09:40:10.075Z</time></trkpt><trkpt lat="45.4441285" lon="14.1152566"><ele>925.4</ele><time>2026-04-25T09:40:11.068Z</time></trkpt><trkpt lat="45.4441344" lon="14.1153994"><ele>924.2</ele><time>2026-04-25T09:40:12.084Z</time></trkpt><trkpt lat="45.4441319" lon="14.1155403"><ele>923.0</ele><time>2026-04-25T09:40:13.067Z</time></trkpt><trkpt lat="45.4441233" lon="14.1156833"><ele>922.8333333333334</ele><time>2026-04-25T09:40:14.072Z</time></trkpt><trkpt lat="45.4441115" lon="14.11582"><ele>922.6666666666667</ele><time>2026-04-25T09:40:15.069Z</time></trkpt><trkpt lat="45.444084" lon="14.1159572"><ele>922.5</ele><time>2026-04-25T09:40:16.068Z</time></trkpt><trkpt lat="45.4440426" lon="14.116076"><ele>922.3333333333333</ele><time>2026-04-25T09:40:17.07Z</time></trkpt><trkpt lat="45.4440105" lon="14.1161733"><ele>922.1666666666666</ele><time>2026-04-25T09:40:18.072Z</time></trkpt><trkpt lat="45.4439759" lon="14.1162521"><ele>922.0</ele><time>2026-04-25T09:40:19.068Z</time></trkpt><trkpt lat="45.4439093" lon="14.1163396"><ele>922.0</ele><time>2026-04-25T09:40:21.076Z</time></trkpt><trkpt lat="45.443832" lon="14.1163563"><ele>922.0</ele><time>2026-04-25T09:40:23.066Z</time></trkpt><trkpt lat="45.4437775" lon="14.1164213"><ele>922.0</ele><time>2026-04-25T09:40:25.075Z</time></trkpt><trkpt lat="45.4437389" lon="14.1166156"><ele>922.0</ele><time>2026-04-25T09:40:27.062Z</time></trkpt><trkpt lat="45.4437119" lon="14.1167485"><ele>922.0</ele><time>2026-04-25T09:40:28.076Z</time></trkpt><trkpt lat="45.4436796" lon="14.1168578"><ele>923.0</ele><time>2026-04-25T09:40:29.071Z</time></trkpt><trkpt lat="45.4436373" lon="14.1169521"><ele>924.0</ele><time>2026-04-25T09:40:30.075Z</time></trkpt><trkpt lat="45.4435721" lon="14.117029"><ele>925.0</ele><time>2026-04-25T09:40:31.075Z</time></trkpt><trkpt lat="45.4434976" lon="14.1171082"><ele>926.0</ele><time>2026-04-25T09:40:32.069Z</time></trkpt><trkpt lat="45.4434286" lon="14.1171994"><ele>927.0</ele><time>2026-04-25T09:40:33.081Z</time></trkpt><trkpt lat="45.443365" lon="14.1173208"><ele>926.2</ele><time>2026-04-25T09:40:34.086Z</time></trkpt><trkpt lat="45.443304" lon="14.1174645"><ele>925.4000000000001</ele><time>2026-04-25T09:40:35.069Z</time></trkpt><trkpt lat="45.4432452" lon="14.1176036"><ele>924.5999999999999</ele><time>2026-04-25T09:40:36.084Z</time></trkpt><trkpt lat="45.443181" lon="14.1177317"><ele>923.8</ele><time>2026-04-25T09:40:37.068Z</time></trkpt><trkpt lat="45.4431175" lon="14.1178284"><ele>923.0</ele><time>2026-04-25T09:40:38.072Z</time></trkpt><trkpt lat="45.4430581" lon="14.1178973"><ele>923.0000000000001</ele><time>2026-04-25T09:40:39.073Z</time></trkpt><trkpt lat="45.4429948" lon="14.1179469"><ele>923.0</ele><time>2026-04-25T09:40:40.072Z</time></trkpt><trkpt lat="45.4429393" lon="14.1179962"><ele>923.0</ele><time>2026-04-25T09:40:41.073Z</time></trkpt><trkpt lat="45.4428695" lon="14.1181318"><ele>923.0</ele><time>2026-04-25T09:40:43.071Z</time></trkpt><trkpt lat="45.4428447" lon="14.1182247"><ele>923.0000000000001</ele><time>2026-04-25T09:40:44.071Z</time></trkpt><trkpt lat="45.4428165" lon="14.1183259"><ele>923.0</ele><time>2026-04-25T09:40:45.082Z</time></trkpt><trkpt lat="45.4427736" lon="14.1184378"><ele>923.5999999999999</ele><time>2026-04-25T09:40:46.07Z</time></trkpt><trkpt lat="45.4427165" lon="14.1185436"><ele>924.1999999999999</ele><time>2026-04-25T09:40:47.069Z</time></trkpt><trkpt lat="45.4426469" lon="14.1186523"><ele>924.8</ele><time>2026-04-25T09:40:48.077Z</time></trkpt><trkpt lat="45.4425645" lon="14.1187643"><ele>925.4</ele><time>2026-04-25T09:40:49.077Z</time></trkpt><trkpt lat="45.4424764" lon="14.1188649"><ele>926.0</ele><time>2026-04-25T09:40:50.077Z</time></trkpt><trkpt lat="45.4423832" lon="14.1189701"><ele>926.1999999999999</ele><time>2026-04-25T09:40:51.08Z</time></trkpt><trkpt lat="45.4422959" lon="14.1190696"><ele>926.3999999999999</ele><time>2026-04-25T09:40:52.092Z</time></trkpt><trkpt lat="45.4421995" lon="14.1191496"><ele>926.6</ele><time>2026-04-25T09:40:53.08Z</time></trkpt><trkpt lat="45.4421043" lon="14.1192299"><ele>926.8</ele><time>2026-04-25T09:40:54.088Z</time></trkpt><trkpt lat="45.4420141" lon="14.1193021"><ele>927.0</ele><time>2026-04-25T09:40:55.076Z</time></trkpt><trkpt lat="45.4419261" lon="14.1193542"><ele>927.0</ele><time>2026-04-25T09:40:56.085Z</time></trkpt><trkpt lat="45.4418399" lon="14.1193892"><ele>927.0</ele><time>2026-04-25T09:40:57.073Z</time></trkpt><trkpt lat="45.4417511" lon="14.1194244"><ele>927.0</ele><time>2026-04-25T09:40:58.071Z</time></trkpt><trkpt lat="45.4416713" lon="14.1194818"><ele>927.0</ele><time>2026-04-25T09:40:59.068Z</time></trkpt><trkpt lat="45.4416034" lon="14.1195335"><ele>927.0</ele><time>2026-04-25T09:41:00.064Z</time></trkpt><trkpt lat="45.4415326" lon="14.1195803"><ele>927.0</ele><time>2026-04-25T09:41:01.081Z</time></trkpt><trkpt lat="45.4414535" lon="14.1196207"><ele>926.9999999999999</ele><time>2026-04-25T09:41:02.075Z</time></trkpt><trkpt lat="45.4413795" lon="14.1196424"><ele>927.0</ele><time>2026-04-25T09:41:03.108Z</time></trkpt><trkpt lat="45.4413116" lon="14.1196375"><ele>926.9999999999999</ele><time>2026-04-25T09:41:04.098Z</time></trkpt><trkpt lat="45.4412458" lon="14.119595"><ele>926.9999999999999</ele><time>2026-04-25T09:41:05.064Z</time></trkpt><trkpt lat="45.4411858" lon="14.1195397"><ele>927.0</ele><time>2026-04-25T09:41:06.081Z</time></trkpt><trkpt lat="45.4411298" lon="14.1194796"><ele>926.9999999999999</ele><time>2026-04-25T09:41:07.071Z</time></trkpt><trkpt lat="45.4410671" lon="14.1193996"><ele>926.9999999999999</ele><time>2026-04-25T09:41:08.078Z</time></trkpt><trkpt lat="45.4409966" lon="14.1193366"><ele>926.5</ele><time>2026-04-25T09:41:09.067Z</time></trkpt><trkpt lat="45.44092" lon="14.119296"><ele>926.0</ele><time>2026-04-25T09:41:10.081Z</time></trkpt><trkpt lat="45.4408348" lon="14.1192808"><ele>925.5</ele><time>2026-04-25T09:41:11.065Z</time></trkpt><trkpt lat="45.4407614" lon="14.1192885"><ele>925.0</ele><time>2026-04-25T09:41:12.074Z</time></trkpt><trkpt lat="45.4406854" lon="14.1193006"><ele>924.5</ele><time>2026-04-25T09:41:13.076Z</time></trkpt><trkpt lat="45.4406113" lon="14.1193337"><ele>924.0</ele><time>2026-04-25T09:41:14.076Z</time></trkpt><trkpt lat="45.4405489" lon="14.1193863"><ele>924.0</ele><time>2026-04-25T09:41:15.077Z</time></trkpt><trkpt lat="45.4404783" lon="14.1194598"><ele>924.0</ele><time>2026-04-25T09:41:16.064Z</time></trkpt><trkpt lat="45.4404291" lon="14.1195244"><ele>924.0</ele><time>2026-04-25T09:41:17.082Z</time></trkpt><trkpt lat="45.4403681" lon="14.1195901"><ele>924.0</ele><time>2026-04-25T09:41:18.06Z</time></trkpt><trkpt lat="45.4403066" lon="14.1196386"><ele>924.0</ele><time>2026-04-25T09:41:19.07Z</time></trkpt><trkpt lat="45.4402203" lon="14.1196647"><ele>924.0</ele><time>2026-04-25T09:41:20.07Z</time></trkpt><trkpt lat="45.4401373" lon="14.119675"><ele>923.7142857142858</ele><time>2026-04-25T09:41:21.065Z</time></trkpt><trkpt lat="45.4400608" lon="14.1196937"><ele>923.4285714285714</ele><time>2026-04-25T09:41:22.074Z</time></trkpt><trkpt lat="45.4399871" lon="14.1197043"><ele>923.1428571428571</ele><time>2026-04-25T09:41:23.073Z</time></trkpt><trkpt lat="45.4399143" lon="14.1197084"><ele>922.8571428571429</ele><time>2026-04-25T09:41:24.083Z</time></trkpt><trkpt lat="45.4398431" lon="14.1197169"><ele>922.5714285714287</ele><time>2026-04-25T09:41:25.075Z</time></trkpt><trkpt lat="45.4397684" lon="14.1197226"><ele>922.2857142857143</ele><time>2026-04-25T09:41:26.07Z</time></trkpt><trkpt lat="45.4396936" lon="14.1197378"><ele>922.0</ele><time>2026-04-25T09:41:27.079Z</time></trkpt><trkpt lat="45.4396276" lon="14.1197559"><ele>920.3333333333333</ele><time>2026-04-25T09:41:28.072Z</time></trkpt><trkpt lat="45.4395649" lon="14.1197699"><ele>918.6666666666666</ele><time>2026-04-25T09:41:29.073Z</time></trkpt><trkpt lat="45.4394474" lon="14.1198082"><ele>917.0</ele><time>2026-04-25T09:41:31.078Z</time></trkpt><trkpt lat="45.4393403" lon="14.1198217"><ele>915.3333333333333</ele><time>2026-04-25T09:41:33.076Z</time></trkpt><trkpt lat="45.4392752" lon="14.1198164"><ele>913.6666666666666</ele><time>2026-04-25T09:41:34.077Z</time></trkpt><trkpt lat="45.4392107" lon="14.1198133"><ele>912.0</ele><time>2026-04-25T09:41:35.073Z</time></trkpt><trkpt lat="45.4391408" lon="14.1197991"><ele>912.0</ele><time>2026-04-25T09:41:36.074Z</time></trkpt><trkpt lat="45.4390637" lon="14.119782"><ele>912.0</ele><time>2026-04-25T09:41:37.075Z</time></trkpt><trkpt lat="45.4389883" lon="14.1197636"><ele>912.0</ele><time>2026-04-25T09:41:38.075Z</time></trkpt><trkpt lat="45.4389122" lon="14.11974"><ele>912.0</ele><time>2026-04-25T09:41:39.08Z</time></trkpt><trkpt lat="45.4388324" lon="14.119718"><ele>912.0</ele><time>2026-04-25T09:41:40.081Z</time></trkpt><trkpt lat="45.4387516" lon="14.1196782"><ele>912.0</ele><time>2026-04-25T09:41:41.084Z</time></trkpt><trkpt lat="45.4386647" lon="14.1196262"><ele>909.6666666666666</ele><time>2026-04-25T09:41:42.103Z</time></trkpt><trkpt lat="45.4385821" lon="14.1195673"><ele>907.3333333333333</ele><time>2026-04-25T09:41:43.075Z</time></trkpt><trkpt lat="45.4385048" lon="14.1195098"><ele>905.0</ele><time>2026-04-25T09:41:44.08Z</time></trkpt><trkpt lat="45.43842" lon="14.1194574"><ele>902.6666666666666</ele><time>2026-04-25T09:41:45.081Z</time></trkpt><trkpt lat="45.4383374" lon="14.1194116"><ele>900.3333333333333</ele><time>2026-04-25T09:41:46.074Z</time></trkpt><trkpt lat="45.4382641" lon="14.1193848"><ele>898.0</ele><time>2026-04-25T09:41:47.095Z</time></trkpt><trkpt lat="45.4381867" lon="14.119362"><ele>898.0</ele><time>2026-04-25T09:41:48.079Z</time></trkpt><trkpt lat="45.4381172" lon="14.1193387"><ele>898.0</ele><time>2026-04-25T09:41:49.074Z</time></trkpt><trkpt lat="45.4379943" lon="14.1192977"><ele>898.0</ele><time>2026-04-25T09:41:51.079Z</time></trkpt><trkpt lat="45.437864" lon="14.1192648"><ele>898.0</ele><time>2026-04-25T09:41:53.075Z</time></trkpt><trkpt lat="45.4377979" lon="14.1192402"><ele>898.0</ele><time>2026-04-25T09:41:54.077Z</time></trkpt><trkpt lat="45.4377254" lon="14.1192063"><ele>898.6666666666666</ele><time>2026-04-25T09:41:55.075Z</time></trkpt><trkpt lat="45.43765" lon="14.1191617"><ele>899.3333333333333</ele><time>2026-04-25T09:41:56.075Z</time></trkpt><trkpt lat="45.4375652" lon="14.1191126"><ele>900.0</ele><time>2026-04-25T09:41:57.072Z</time></trkpt><trkpt lat="45.4374821" lon="14.1190609"><ele>900.6666666666667</ele><time>2026-04-25T09:41:58.075Z</time></trkpt><trkpt lat="45.4374005" lon="14.1190155"><ele>901.3333333333334</ele><time>2026-04-25T09:41:59.076Z</time></trkpt><trkpt lat="45.4373143" lon="14.1189656"><ele>902.0</ele><time>2026-04-25T09:42:00.076Z</time></trkpt><trkpt lat="45.4372201" lon="14.1189084"><ele>899.8</ele><time>2026-04-25T09:42:01.079Z</time></trkpt><trkpt lat="45.4371232" lon="14.1188459"><ele>897.6</ele><time>2026-04-25T09:42:02.066Z</time></trkpt><trkpt lat="45.4370195" lon="14.1188033"><ele>895.3999999999999</ele><time>2026-04-25T09:42:03.09Z</time></trkpt><trkpt lat="45.4369224" lon="14.1187812"><ele>893.1999999999999</ele><time>2026-04-25T09:42:04.08Z</time></trkpt><trkpt lat="45.4368299" lon="14.1187698"><ele>891.0</ele><time>2026-04-25T09:42:05.076Z</time></trkpt><trkpt lat="45.4367422" lon="14.1187596"><ele>891.0</ele><time>2026-04-25T09:42:06.079Z</time></trkpt><trkpt lat="45.4366611" lon="14.1187467"><ele>891.0</ele><time>2026-04-25T09:42:07.073Z</time></trkpt><trkpt lat="45.4365874" lon="14.1187183"><ele>891.0</ele><time>2026-04-25T09:42:08.081Z</time></trkpt><trkpt lat="45.4365173" lon="14.1186828"><ele>891.0</ele><time>2026-04-25T09:42:09.074Z</time></trkpt><trkpt lat="45.436455" lon="14.1186575"><ele>891.0</ele><time>2026-04-25T09:42:10.097Z</time></trkpt><trkpt lat="45.4363595" lon="14.1185561"><ele>891.0</ele><time>2026-04-25T09:42:12.083Z</time></trkpt><trkpt lat="45.4363025" lon="14.118392"><ele>890.8333333333334</ele><time>2026-04-25T09:42:14.067Z</time></trkpt><trkpt lat="45.436264" lon="14.1183135"><ele>890.6666666666667</ele><time>2026-04-25T09:42:15.072Z</time></trkpt><trkpt lat="45.4362129" lon="14.1182567"><ele>890.5</ele><time>2026-04-25T09:42:16.077Z</time></trkpt><trkpt lat="45.4361314" lon="14.1182161"><ele>890.3333333333334</ele><time>2026-04-25T09:42:17.071Z</time></trkpt><trkpt lat="45.4360353" lon="14.1181603"><ele>890.1666666666667</ele><time>2026-04-25T09:42:18.069Z</time></trkpt><trkpt lat="45.4359479" lon="14.1180879"><ele>890.0</ele><time>2026-04-25T09:42:19.084Z</time></trkpt><trkpt lat="45.4358597" lon="14.1180237"><ele>890.0</ele><time>2026-04-25T09:42:20.07Z</time></trkpt><trkpt lat="45.4357746" lon="14.1179762"><ele>890.0</ele><time>2026-04-25T09:42:21.069Z</time></trkpt><trkpt lat="45.4356838" lon="14.1179501"><ele>890.0</ele><time>2026-04-25T09:42:22.078Z</time></trkpt><trkpt lat="45.4355836" lon="14.1179591"><ele>890.0</ele><time>2026-04-25T09:42:23.077Z</time></trkpt><trkpt lat="45.4354879" lon="14.1179839"><ele>890.0</ele><time>2026-04-25T09:42:24.089Z</time></trkpt><trkpt lat="45.4353928" lon="14.1180086"><ele>890.0</ele><time>2026-04-25T09:42:25.074Z</time></trkpt><trkpt lat="45.4352969" lon="14.1180141"><ele>890.0</ele><time>2026-04-25T09:42:26.076Z</time></trkpt><trkpt lat="45.4352061" lon="14.1179961"><ele>890.0</ele><time>2026-04-25T09:42:27.073Z</time></trkpt><trkpt lat="45.4351105" lon="14.1179691"><ele>890.0</ele><time>2026-04-25T09:42:28.075Z</time></trkpt><trkpt lat="45.4350076" lon="14.1179446"><ele>890.0</ele><time>2026-04-25T09:42:29.079Z</time></trkpt><trkpt lat="45.4348983" lon="14.1179193"><ele>890.0</ele><time>2026-04-25T09:42:30.078Z</time></trkpt><trkpt lat="45.4347918" lon="14.1178985"><ele>890.0</ele><time>2026-04-25T09:42:31.084Z</time></trkpt><trkpt lat="45.4346914" lon="14.1178836"><ele>890.0</ele><time>2026-04-25T09:42:32.074Z</time></trkpt><trkpt lat="45.434588" lon="14.1178706"><ele>890.0</ele><time>2026-04-25T09:42:33.076Z</time></trkpt><trkpt lat="45.4344871" lon="14.1178421"><ele>890.0</ele><time>2026-04-25T09:42:34.078Z</time></trkpt><trkpt lat="45.4343965" lon="14.1178105"><ele>889.0</ele><time>2026-04-25T09:42:35.079Z</time></trkpt><trkpt lat="45.4343017" lon="14.1177653"><ele>888.0</ele><time>2026-04-25T09:42:36.099Z</time></trkpt><trkpt lat="45.4342064" lon="14.1177008"><ele>887.0</ele><time>2026-04-25T09:42:37.078Z</time></trkpt><trkpt lat="45.4341123" lon="14.1176347"><ele>886.0</ele><time>2026-04-25T09:42:38.081Z</time></trkpt><trkpt lat="45.4340283" lon="14.1175655"><ele>885.0</ele><time>2026-04-25T09:42:39.077Z</time></trkpt><trkpt lat="45.433946" lon="14.1175097"><ele>885.0</ele><time>2026-04-25T09:42:40.074Z</time></trkpt><trkpt lat="45.4338666" lon="14.1174819"><ele>885.0</ele><time>2026-04-25T09:42:41.092Z</time></trkpt><trkpt lat="45.4337907" lon="14.1174738"><ele>885.0</ele><time>2026-04-25T09:42:42.075Z</time></trkpt><trkpt lat="45.4337287" lon="14.1175186"><ele>885.0</ele><time>2026-04-25T09:42:43.082Z</time></trkpt><trkpt lat="45.4336219" lon="14.1175776"><ele>885.0</ele><time>2026-04-25T09:42:45.078Z</time></trkpt><trkpt lat="45.4335072" lon="14.1174398"><ele>884.6</ele><time>2026-04-25T09:42:47.079Z</time></trkpt><trkpt lat="45.4334202" lon="14.117375"><ele>884.2</ele><time>2026-04-25T09:42:48.076Z</time></trkpt><trkpt lat="45.4333212" lon="14.1173092"><ele>883.8</ele><time>2026-04-25T09:42:49.076Z</time></trkpt><trkpt lat="45.4332278" lon="14.1172525"><ele>883.4</ele><time>2026-04-25T09:42:50.073Z</time></trkpt><trkpt lat="45.4331504" lon="14.1172038"><ele>883.0</ele><time>2026-04-25T09:42:51.081Z</time></trkpt><trkpt lat="45.4330748" lon="14.1171775"><ele>883.0</ele><time>2026-04-25T09:42:52.085Z</time></trkpt><trkpt lat="45.432995" lon="14.1171739"><ele>883.0</ele><time>2026-04-25T09:42:53.091Z</time></trkpt><trkpt lat="45.4329044" lon="14.1171989"><ele>883.0</ele><time>2026-04-25T09:42:54.077Z</time></trkpt><trkpt lat="45.4328167" lon="14.1172268"><ele>883.0</ele><time>2026-04-25T09:42:55.074Z</time></trkpt><trkpt lat="45.4327212" lon="14.1172487"><ele>883.0</ele><time>2026-04-25T09:42:56.078Z</time></trkpt><trkpt lat="45.4326275" lon="14.1172596"><ele>880.4</ele><time>2026-04-25T09:42:57.081Z</time></trkpt><trkpt lat="45.432536" lon="14.1172552"><ele>877.8</ele><time>2026-04-25T09:42:58.08Z</time></trkpt><trkpt lat="45.4324348" lon="14.1172285"><ele>875.2</ele><time>2026-04-25T09:42:59.078Z</time></trkpt><trkpt lat="45.4323262" lon="14.1171881"><ele>872.6</ele><time>2026-04-25T09:43:00.074Z</time></trkpt><trkpt lat="45.4322208" lon="14.1171445"><ele>870.0</ele><time>2026-04-25T09:43:01.081Z</time></trkpt><trkpt lat="45.4321281" lon="14.1170994"><ele>869.0</ele><time>2026-04-25T09:43:02.078Z</time></trkpt><trkpt lat="45.4320341" lon="14.1170311"><ele>868.0</ele><time>2026-04-25T09:43:03.096Z</time></trkpt><trkpt lat="45.4319478" lon="14.1169379"><ele>867.0</ele><time>2026-04-25T09:43:04.076Z</time></trkpt><trkpt lat="45.4318634" lon="14.1168413"><ele>866.0</ele><time>2026-04-25T09:43:05.074Z</time></trkpt><trkpt lat="45.4317829" lon="14.1167637"><ele>865.0</ele><time>2026-04-25T09:43:06.079Z</time></trkpt><trkpt lat="45.4317032" lon="14.1166975"><ele>864.9999999999999</ele><time>2026-04-25T09:43:07.078Z</time></trkpt><trkpt lat="45.4316297" lon="14.1166416"><ele>865.0</ele><time>2026-04-25T09:43:08.072Z</time></trkpt><trkpt lat="45.4315508" lon="14.1166155"><ele>865.0</ele><time>2026-04-25T09:43:09.069Z</time></trkpt><trkpt lat="45.4314808" lon="14.1166171"><ele>865.0</ele><time>2026-04-25T09:43:10.065Z</time></trkpt><trkpt lat="45.4313824" lon="14.1166399"><ele>864.9999999999999</ele><time>2026-04-25T09:43:12.074Z</time></trkpt><trkpt lat="45.4312995" lon="14.1166271"><ele>865.0</ele><time>2026-04-25T09:43:14.08Z</time></trkpt><trkpt lat="45.4312286" lon="14.1166105"><ele>863.9999999999999</ele><time>2026-04-25T09:43:15.07Z</time></trkpt><trkpt lat="45.4311491" lon="14.1166217"><ele>863.0</ele><time>2026-04-25T09:43:16.079Z</time></trkpt><trkpt lat="45.4310682" lon="14.116639"><ele>862.0</ele><time>2026-04-25T09:43:17.068Z</time></trkpt><trkpt lat="45.4309925" lon="14.1166671"><ele>861.0</ele><time>2026-04-25T09:43:18.073Z</time></trkpt><trkpt lat="45.4309146" lon="14.1166987"><ele>859.9999999999999</ele><time>2026-04-25T09:43:19.076Z</time></trkpt><trkpt lat="45.4308356" lon="14.1167347"><ele>859.0</ele><time>2026-04-25T09:43:20.08Z</time></trkpt><trkpt lat="45.4307578" lon="14.116776"><ele>859.0</ele><time>2026-04-25T09:43:21.074Z</time></trkpt><trkpt lat="45.4306795" lon="14.116828"><ele>859.0000000000001</ele><time>2026-04-25T09:43:22.082Z</time></trkpt><trkpt lat="45.4305971" lon="14.1168993"><ele>859.0000000000001</ele><time>2026-04-25T09:43:23.075Z</time></trkpt><trkpt lat="45.430515" lon="14.1169778"><ele>859.0</ele><time>2026-04-25T09:43:24.077Z</time></trkpt><trkpt lat="45.4304323" lon="14.1170621"><ele>859.0</ele><time>2026-04-25T09:43:25.072Z</time></trkpt><trkpt lat="45.4303521" lon="14.1171479"><ele>858.3333333333333</ele><time>2026-04-25T09:43:26.073Z</time></trkpt><trkpt lat="45.4302765" lon="14.117225"><ele>857.6666666666666</ele><time>2026-04-25T09:43:27.082Z</time></trkpt><trkpt lat="45.430203" lon="14.117299"><ele>857.0</ele><time>2026-04-25T09:43:28.078Z</time></trkpt><trkpt lat="45.4301367" lon="14.1173698"><ele>856.3333333333333</ele><time>2026-04-25T09:43:29.08Z</time></trkpt><trkpt lat="45.4300666" lon="14.1174351"><ele>855.6666666666666</ele><time>2026-04-25T09:43:30.081Z</time></trkpt><trkpt lat="45.4300056" lon="14.1175071"><ele>855.0</ele><time>2026-04-25T09:43:31.07Z</time></trkpt><trkpt lat="45.4299468" lon="14.1175724"><ele>855.0</ele><time>2026-04-25T09:43:32.082Z</time></trkpt><trkpt lat="45.4298848" lon="14.1176466"><ele>855.0</ele><time>2026-04-25T09:43:33.07Z</time></trkpt><trkpt lat="45.4298183" lon="14.1177264"><ele>855.0</ele><time>2026-04-25T09:43:34.071Z</time></trkpt><trkpt lat="45.4297484" lon="14.1178001"><ele>855.0</ele><time>2026-04-25T09:43:35.068Z</time></trkpt><trkpt lat="45.4296706" lon="14.1178701"><ele>855.0</ele><time>2026-04-25T09:43:36.075Z</time></trkpt><trkpt lat="45.4295808" lon="14.1179314"><ele>855.0</ele><time>2026-04-25T09:43:37.065Z</time></trkpt><trkpt lat="45.4295023" lon="14.1179924"><ele>854.0</ele><time>2026-04-25T09:43:38.069Z</time></trkpt><trkpt lat="45.4294292" lon="14.1180366"><ele>853.0</ele><time>2026-04-25T09:43:39.083Z</time></trkpt><trkpt lat="45.4293537" lon="14.1180851"><ele>852.0</ele><time>2026-04-25T09:43:41.068Z</time></trkpt><trkpt lat="45.429301" lon="14.1181879"><ele>851.0</ele><time>2026-04-25T09:43:44.081Z</time></trkpt><trkpt lat="45.4292493" lon="14.1183422"><ele>850.0</ele><time>2026-04-25T09:43:46.064Z</time></trkpt><trkpt lat="45.429211" lon="14.118446"><ele>849.9999999999999</ele><time>2026-04-25T09:43:47.071Z</time></trkpt><trkpt lat="45.4291831" lon="14.1185536"><ele>850.0</ele><time>2026-04-25T09:43:48.076Z</time></trkpt><trkpt lat="45.4291624" lon="14.1186728"><ele>850.0</ele><time>2026-04-25T09:43:49.075Z</time></trkpt><trkpt lat="45.4291459" lon="14.1187924"><ele>850.0</ele><time>2026-04-25T09:43:50.07Z</time></trkpt><trkpt lat="45.4291181" lon="14.1188961"><ele>849.9999999999999</ele><time>2026-04-25T09:43:51.074Z</time></trkpt><trkpt lat="45.4290916" lon="14.1190042"><ele>850.0</ele><time>2026-04-25T09:43:52.073Z</time></trkpt><trkpt lat="45.4290736" lon="14.1191188"><ele>850.9999999999999</ele><time>2026-04-25T09:43:53.073Z</time></trkpt><trkpt lat="45.4290776" lon="14.1192426"><ele>852.0</ele><time>2026-04-25T09:43:54.08Z</time></trkpt><trkpt lat="45.4290872" lon="14.1193725"><ele>853.0</ele><time>2026-04-25T09:43:55.072Z</time></trkpt><trkpt lat="45.4290935" lon="14.1195014"><ele>854.0</ele><time>2026-04-25T09:43:56.082Z</time></trkpt><trkpt lat="45.4290893" lon="14.1196221"><ele>854.9999999999999</ele><time>2026-04-25T09:43:57.078Z</time></trkpt><trkpt lat="45.4290791" lon="14.119749"><ele>856.0</ele><time>2026-04-25T09:43:58.101Z</time></trkpt><trkpt lat="45.4290628" lon="14.119874"><ele>856.8</ele><time>2026-04-25T09:43:59.079Z</time></trkpt><trkpt lat="45.4290419" lon="14.1199927"><ele>857.5999999999999</ele><time>2026-04-25T09:44:00.076Z</time></trkpt><trkpt lat="45.4290227" lon="14.1201181"><ele>858.4</ele><time>2026-04-25T09:44:01.081Z</time></trkpt><trkpt lat="45.4290038" lon="14.1202418"><ele>859.2</ele><time>2026-04-25T09:44:02.083Z</time></trkpt><trkpt lat="45.4289874" lon="14.1203744"><ele>860.0</ele><time>2026-04-25T09:44:03.079Z</time></trkpt><trkpt lat="45.4289763" lon="14.1205096"><ele>860.0</ele><time>2026-04-25T09:44:04.085Z</time></trkpt><trkpt lat="45.4289697" lon="14.1206412"><ele>860.0</ele><time>2026-04-25T09:44:05.072Z</time></trkpt><trkpt lat="45.4289716" lon="14.1207779"><ele>860.0</ele><time>2026-04-25T09:44:06.069Z</time></trkpt><trkpt lat="45.4289721" lon="14.1209235"><ele>860.0</ele><time>2026-04-25T09:44:07.072Z</time></trkpt><trkpt lat="45.4289721" lon="14.1210729"><ele>860.0</ele><time>2026-04-25T09:44:08.07Z</time></trkpt><trkpt lat="45.4289711" lon="14.1212509"><ele>860.5</ele><time>2026-04-25T09:44:09.073Z</time></trkpt><trkpt lat="45.4289655" lon="14.1214373"><ele>861.0</ele><time>2026-04-25T09:44:10.073Z</time></trkpt><trkpt lat="45.4289549" lon="14.1216176"><ele>861.5</ele><time>2026-04-25T09:44:11.077Z</time></trkpt><trkpt lat="45.4289413" lon="14.1217843"><ele>862.0</ele><time>2026-04-25T09:44:12.084Z</time></trkpt><trkpt lat="45.4289289" lon="14.1219248"><ele>862.2</ele><time>2026-04-25T09:44:13.077Z</time></trkpt><trkpt lat="45.4289143" lon="14.1220627"><ele>862.4000000000001</ele><time>2026-04-25T09:44:14.075Z</time></trkpt><trkpt lat="45.4288982" lon="14.1222046"><ele>862.5999999999999</ele><time>2026-04-25T09:44:15.072Z</time></trkpt><trkpt lat="45.4288792" lon="14.1223517"><ele>862.8</ele><time>2026-04-25T09:44:16.082Z</time></trkpt><trkpt lat="45.4288734" lon="14.1224926"><ele>863.0</ele><time>2026-04-25T09:44:17.07Z</time></trkpt><trkpt lat="45.428876" lon="14.1226279"><ele>863.1666666666667</ele><time>2026-04-25T09:44:18.08Z</time></trkpt><trkpt lat="45.4288664" lon="14.1227305"><ele>863.3333333333334</ele><time>2026-04-25T09:44:19.083Z</time></trkpt><trkpt lat="45.4288517" lon="14.1228346"><ele>863.5</ele><time>2026-04-25T09:44:49.072Z</time></trkpt><trkpt lat="45.4288071" lon="14.1229396"><ele>863.6666666666667</ele><time>2026-04-25T09:44:51.089Z</time></trkpt><trkpt lat="45.4287724" lon="14.1230251"><ele>863.8333333333334</ele><time>2026-04-25T09:44:52.083Z</time></trkpt><trkpt lat="45.4287055" lon="14.1231298"><ele>864.0</ele><time>2026-04-25T09:44:53.084Z</time></trkpt><trkpt lat="45.4286401" lon="14.1232336"><ele>865.2</ele><time>2026-04-25T09:44:54.076Z</time></trkpt><trkpt lat="45.4285626" lon="14.123339"><ele>866.4000000000001</ele><time>2026-04-25T09:44:55.068Z</time></trkpt><trkpt lat="45.4284831" lon="14.1234581"><ele>867.6</ele><time>2026-04-25T09:44:56.078Z</time></trkpt><trkpt lat="45.4284106" lon="14.123575"><ele>868.8</ele><time>2026-04-25T09:44:57.08Z</time></trkpt><trkpt lat="45.4283463" lon="14.1237043"><ele>870.0</ele><time>2026-04-25T09:44:58.084Z</time></trkpt><trkpt lat="45.4282826" lon="14.1238485"><ele>870.0</ele><time>2026-04-25T09:44:59.085Z</time></trkpt><trkpt lat="45.428218" lon="14.1239912"><ele>870.0</ele><time>2026-04-25T09:45:00.079Z</time></trkpt><trkpt lat="45.4281558" lon="14.1241161"><ele>870.0</ele><time>2026-04-25T09:45:01.082Z</time></trkpt><trkpt lat="45.4280956" lon="14.1242191"><ele>870.0</ele><time>2026-04-25T09:45:02.077Z</time></trkpt><trkpt lat="45.4280345" lon="14.124305"><ele>870.0</ele><time>2026-04-25T09:45:03.087Z</time></trkpt><trkpt lat="45.4279376" lon="14.1243784"><ele>872.6666666666667</ele><time>2026-04-25T09:45:04.086Z</time></trkpt><trkpt lat="45.427812" lon="14.1244498"><ele>875.3333333333334</ele><time>2026-04-25T09:45:05.069Z</time></trkpt><trkpt lat="45.4276646" lon="14.1245603"><ele>878.0</ele><time>2026-04-25T09:45:06.101Z</time></trkpt><trkpt lat="45.4275325" lon="14.1246677"><ele>878.0</ele><time>2026-04-25T09:45:07.07Z</time></trkpt><trkpt lat="45.4274197" lon="14.1247675"><ele>878.0</ele><time>2026-04-25T09:45:08.076Z</time></trkpt><trkpt lat="45.427326" lon="14.1248785"><ele>878.0</ele><time>2026-04-25T09:45:09.074Z</time></trkpt><trkpt lat="45.4272513" lon="14.1250002"><ele>878.0</ele><time>2026-04-25T09:45:10.073Z</time></trkpt><trkpt lat="45.4271964" lon="14.1251289"><ele>877.2</ele><time>2026-04-25T09:45:11.081Z</time></trkpt><trkpt lat="45.4271537" lon="14.125245"><ele>876.4</ele><time>2026-04-25T09:45:12.083Z</time></trkpt><trkpt lat="45.4271242" lon="14.1253725"><ele>875.6000000000001</ele><time>2026-04-25T09:45:13.09Z</time></trkpt><trkpt lat="45.4270754" lon="14.1254815"><ele>874.8000000000001</ele><time>2026-04-25T09:45:14.086Z</time></trkpt><trkpt lat="45.4270099" lon="14.1255904"><ele>874.0</ele><time>2026-04-25T09:45:15.077Z</time></trkpt><trkpt lat="45.4269372" lon="14.1256968"><ele>876.6</ele><time>2026-04-25T09:45:16.076Z</time></trkpt><trkpt lat="45.4268742" lon="14.1258011"><ele>879.2</ele><time>2026-04-25T09:45:17.075Z</time></trkpt><trkpt lat="45.4268153" lon="14.1259096"><ele>881.8000000000001</ele><time>2026-04-25T09:45:18.072Z</time></trkpt><trkpt lat="45.4267636" lon="14.1260103"><ele>884.4000000000001</ele><time>2026-04-25T09:45:19.079Z</time></trkpt><trkpt lat="45.4267097" lon="14.1261138"><ele>887.0</ele><time>2026-04-25T09:45:20.08Z</time></trkpt><trkpt lat="45.4266445" lon="14.1262129"><ele>887.0000000000001</ele><time>2026-04-25T09:45:21.105Z</time></trkpt><trkpt lat="45.4265729" lon="14.1262937"><ele>887.0</ele><time>2026-04-25T09:45:22.068Z</time></trkpt><trkpt lat="45.4265015" lon="14.1263615"><ele>887.0</ele><time>2026-04-25T09:45:23.084Z</time></trkpt><trkpt lat="45.4264284" lon="14.1264146"><ele>887.0</ele><time>2026-04-25T09:45:24.073Z</time></trkpt><trkpt lat="45.4263459" lon="14.1264703"><ele>887.0000000000001</ele><time>2026-04-25T09:45:25.085Z</time></trkpt><trkpt lat="45.4262671" lon="14.1265251"><ele>887.0</ele><time>2026-04-25T09:45:26.075Z</time></trkpt><trkpt lat="45.4261876" lon="14.1266061"><ele>888.0000000000001</ele><time>2026-04-25T09:45:27.066Z</time></trkpt><trkpt lat="45.4261066" lon="14.1266904"><ele>889.0</ele><time>2026-04-25T09:45:28.058Z</time></trkpt><trkpt lat="45.4260237" lon="14.1267581"><ele>890.0</ele><time>2026-04-25T09:45:29.06Z</time></trkpt><trkpt lat="45.4259469" lon="14.1268069"><ele>891.0</ele><time>2026-04-25T09:45:30.078Z</time></trkpt><trkpt lat="45.4258706" lon="14.1268285"><ele>892.0000000000001</ele><time>2026-04-25T09:45:31.059Z</time></trkpt><trkpt lat="45.4257992" lon="14.1268343"><ele>893.0</ele><time>2026-04-25T09:45:32.065Z</time></trkpt><trkpt lat="45.4257244" lon="14.1268516"><ele>893.0000000000001</ele><time>2026-04-25T09:45:33.072Z</time></trkpt><trkpt lat="45.4256481" lon="14.1268758"><ele>893.0</ele><time>2026-04-25T09:45:34.073Z</time></trkpt><trkpt lat="45.4255738" lon="14.1270072"><ele>893.0</ele><time>2026-04-25T09:45:36.063Z</time></trkpt><trkpt lat="45.4255552" lon="14.127099"><ele>893.0</ele><time>2026-04-25T09:45:37.076Z</time></trkpt><trkpt lat="45.4255397" lon="14.1271935"><ele>893.0000000000001</ele><time>2026-04-25T09:45:38.056Z</time></trkpt><trkpt lat="45.4255249" lon="14.1272858"><ele>893.0</ele><time>2026-04-25T09:45:39.067Z</time></trkpt><trkpt lat="45.4255102" lon="14.1273822"><ele>893.0</ele><time>2026-04-25T09:45:40.082Z</time></trkpt><trkpt lat="45.4254841" lon="14.1274958"><ele>893.0</ele><time>2026-04-25T09:45:41.08Z</time></trkpt><trkpt lat="45.425439" lon="14.1276231"><ele>893.0</ele><time>2026-04-25T09:45:42.079Z</time></trkpt><trkpt lat="45.4253832" lon="14.1277423"><ele>893.0</ele><time>2026-04-25T09:45:43.07Z</time></trkpt><trkpt lat="45.4253293" lon="14.1278735"><ele>893.0</ele><time>2026-04-25T09:45:44.077Z</time></trkpt><trkpt lat="45.4252761" lon="14.1279991"><ele>894.4</ele><time>2026-04-25T09:45:45.072Z</time></trkpt><trkpt lat="45.4252237" lon="14.1281184"><ele>895.8</ele><time>2026-04-25T09:45:46.076Z</time></trkpt><trkpt lat="45.4251659" lon="14.1282263"><ele>897.2</ele><time>2026-04-25T09:45:47.074Z</time></trkpt><trkpt lat="45.4251003" lon="14.1283197"><ele>898.6</ele><time>2026-04-25T09:45:48.075Z</time></trkpt><trkpt lat="45.4250223" lon="14.1283885"><ele>900.0</ele><time>2026-04-25T09:45:49.075Z</time></trkpt><trkpt lat="45.4249429" lon="14.1284631"><ele>900.0</ele><time>2026-04-25T09:45:50.075Z</time></trkpt><trkpt lat="45.4248789" lon="14.1285463"><ele>900.0</ele><time>2026-04-25T09:45:51.077Z</time></trkpt><trkpt lat="45.4248376" lon="14.128639"><ele>900.0</ele><time>2026-04-25T09:45:52.074Z</time></trkpt><trkpt lat="45.4248213" lon="14.1287493"><ele>900.0</ele><time>2026-04-25T09:45:53.064Z</time></trkpt><trkpt lat="45.424809" lon="14.1288471"><ele>900.0</ele><time>2026-04-25T09:45:54.071Z</time></trkpt><trkpt lat="45.4247691" lon="14.1289964"><ele>900.0</ele><time>2026-04-25T09:45:56.081Z</time></trkpt><trkpt lat="45.4246736" lon="14.1291184"><ele>902.1666666666666</ele><time>2026-04-25T09:45:58.07Z</time></trkpt><trkpt lat="45.424626" lon="14.1291905"><ele>904.3333333333333</ele><time>2026-04-25T09:45:59.072Z</time></trkpt><trkpt lat="45.4245818" lon="14.1292873"><ele>906.5</ele><time>2026-04-25T09:46:00.076Z</time></trkpt><trkpt lat="45.4245417" lon="14.1293867"><ele>908.6666666666666</ele><time>2026-04-25T09:46:01.077Z</time></trkpt><trkpt lat="45.4245035" lon="14.1294923"><ele>910.8333333333333</ele><time>2026-04-25T09:46:02.077Z</time></trkpt><trkpt lat="45.4244592" lon="14.1295725"><ele>913.0</ele><time>2026-04-25T09:46:03.08Z</time></trkpt><trkpt lat="45.4243932" lon="14.1296514"><ele>913.0</ele><time>2026-04-25T09:46:04.078Z</time></trkpt><trkpt lat="45.4243115" lon="14.12974"><ele>913.0</ele><time>2026-04-25T09:46:05.075Z</time></trkpt><trkpt lat="45.4242217" lon="14.1298242"><ele>913.0</ele><time>2026-04-25T09:46:06.069Z</time></trkpt><trkpt lat="45.4241262" lon="14.1298998"><ele>913.0</ele><time>2026-04-25T09:46:07.072Z</time></trkpt><trkpt lat="45.4240247" lon="14.1299736"><ele>913.0</ele><time>2026-04-25T09:46:08.071Z</time></trkpt><trkpt lat="45.4239222" lon="14.1300509"><ele>913.75</ele><time>2026-04-25T09:46:09.069Z</time></trkpt><trkpt lat="45.4238182" lon="14.1301291"><ele>914.5</ele><time>2026-04-25T09:46:10.08Z</time></trkpt><trkpt lat="45.4237166" lon="14.1302064"><ele>915.25</ele><time>2026-04-25T09:46:11.07Z</time></trkpt><trkpt lat="45.4236118" lon="14.1302823"><ele>916.0</ele><time>2026-04-25T09:46:12.07Z</time></trkpt><trkpt lat="45.4235239" lon="14.1303693"><ele>915.9999999999999</ele><time>2026-04-25T09:46:13.067Z</time></trkpt><trkpt lat="45.4234667" lon="14.1304725"><ele>916.0</ele><time>2026-04-25T09:46:14.068Z</time></trkpt><trkpt lat="45.423414" lon="14.1305714"><ele>916.0</ele><time>2026-04-25T09:46:15.066Z</time></trkpt><trkpt lat="45.4233593" lon="14.1306506"><ele>916.0</ele><time>2026-04-25T09:46:16.072Z</time></trkpt><trkpt lat="45.4232926" lon="14.130712"><ele>915.9999999999999</ele><time>2026-04-25T09:46:17.071Z</time></trkpt><trkpt lat="45.4232179" lon="14.1307644"><ele>916.0</ele><time>2026-04-25T09:46:18.075Z</time></trkpt><trkpt lat="45.4231354" lon="14.130833"><ele>917.1666666666666</ele><time>2026-04-25T09:46:19.073Z</time></trkpt><trkpt lat="45.4230637" lon="14.1309115"><ele>918.3333333333333</ele><time>2026-04-25T09:46:20.075Z</time></trkpt><trkpt lat="45.4230201" lon="14.1309998"><ele>919.5</ele><time>2026-04-25T09:46:21.065Z</time></trkpt><trkpt lat="45.4229738" lon="14.1310951"><ele>920.6666666666667</ele><time>2026-04-25T09:46:22.074Z</time></trkpt><trkpt lat="45.4229388" lon="14.1311834"><ele>921.8333333333334</ele><time>2026-04-25T09:46:23.071Z</time></trkpt><trkpt lat="45.422893" lon="14.1312987"><ele>923.0</ele><time>2026-04-25T09:46:24.084Z</time></trkpt><trkpt lat="45.4228531" lon="14.1313983"><ele>923.0000000000001</ele><time>2026-04-25T09:46:25.081Z</time></trkpt><trkpt lat="45.4228068" lon="14.131483"><ele>923.0</ele><time>2026-04-25T09:46:26.077Z</time></trkpt><trkpt lat="45.4227573" lon="14.131551"><ele>923.0</ele><time>2026-04-25T09:46:27.073Z</time></trkpt><trkpt lat="45.4226556" lon="14.1316331"><ele>923.0</ele><time>2026-04-25T09:46:29.081Z</time></trkpt><trkpt lat="45.4225913" lon="14.1316617"><ele>923.0000000000001</ele><time>2026-04-25T09:46:30.08Z</time></trkpt><trkpt lat="45.4224846" lon="14.1315841"><ele>923.0</ele><time>2026-04-25T09:46:32.068Z</time></trkpt><trkpt lat="45.4224251" lon="14.1315251"><ele>923.0</ele><time>2026-04-25T09:46:33.065Z</time></trkpt><trkpt lat="45.4223516" lon="14.131458"><ele>923.0</ele><time>2026-04-25T09:46:35.08Z</time></trkpt><trkpt lat="45.4222648" lon="14.1314221"><ele>923.0</ele><time>2026-04-25T09:46:37.076Z</time></trkpt><trkpt lat="45.42216" lon="14.1314227"><ele>923.0</ele><time>2026-04-25T09:46:39.072Z</time></trkpt><trkpt lat="45.4220677" lon="14.1314976"><ele>923.0</ele><time>2026-04-25T09:46:41.063Z</time></trkpt><trkpt lat="45.421983" lon="14.1315984"><ele>925.3333333333334</ele><time>2026-04-25T09:46:43.075Z</time></trkpt><trkpt lat="45.4219012" lon="14.1316925"><ele>927.6666666666667</ele><time>2026-04-25T09:46:45.1Z</time></trkpt><trkpt lat="45.4217974" lon="14.131811"><ele>930.0</ele><time>2026-04-25T09:46:47.081Z</time></trkpt><trkpt lat="45.4217654" lon="14.1318932"><ele>932.3333333333333</ele><time>2026-04-25T09:46:48.085Z</time></trkpt><trkpt lat="45.4217426" lon="14.1319787"><ele>934.6666666666666</ele><time>2026-04-25T09:46:49.072Z</time></trkpt><trkpt lat="45.4217302" lon="14.1320676"><ele>937.0</ele><time>2026-04-25T09:46:50.093Z</time></trkpt><trkpt lat="45.4217228" lon="14.1321717"><ele>937.0</ele><time>2026-04-25T09:46:51.068Z</time></trkpt><trkpt lat="45.421712" lon="14.132267"><ele>937.0</ele><time>2026-04-25T09:46:52.078Z</time></trkpt><trkpt lat="45.4216911" lon="14.1324341"><ele>937.0</ele><time>2026-04-25T09:46:54.081Z</time></trkpt><trkpt lat="45.4216423" lon="14.1325806"><ele>937.0</ele><time>2026-04-25T09:46:56.08Z</time></trkpt><trkpt lat="45.421605" lon="14.1326864"><ele>937.0</ele><time>2026-04-25T09:46:58.087Z</time></trkpt><trkpt lat="45.421546" lon="14.1327434"><ele>935.5</ele><time>2026-04-25T09:47:05.074Z</time></trkpt><trkpt lat="45.4214746" lon="14.1328418"><ele>934.0</ele><time>2026-04-25T09:47:08.072Z</time></trkpt><trkpt lat="45.4214077" lon="14.132946"><ele>932.5</ele><time>2026-04-25T09:47:10.07Z</time></trkpt><trkpt lat="45.4213213" lon="14.1330656"><ele>931.0</ele><time>2026-04-25T09:47:12.085Z</time></trkpt><trkpt lat="45.4212213" lon="14.1332152"><ele>930.4999999999999</ele><time>2026-04-25T09:47:14.071Z</time></trkpt><trkpt lat="45.4211777" lon="14.1332917"><ele>930.0</ele><time>2026-04-25T09:47:15.074Z</time></trkpt><trkpt lat="45.421132" lon="14.1333858"><ele>929.5</ele><time>2026-04-25T09:47:16.077Z</time></trkpt><trkpt lat="45.4210945" lon="14.1334886"><ele>929.0</ele><time>2026-04-25T09:47:17.072Z</time></trkpt><trkpt lat="45.4210627" lon="14.1335967"><ele>928.4999999999999</ele><time>2026-04-25T09:47:18.086Z</time></trkpt><trkpt lat="45.4210313" lon="14.1337142"><ele>928.0</ele><time>2026-04-25T09:47:19.079Z</time></trkpt><trkpt lat="45.4209903" lon="14.1338266"><ele>928.0</ele><time>2026-04-25T09:47:20.077Z</time></trkpt><trkpt lat="45.420944" lon="14.1339294"><ele>928.0</ele><time>2026-04-25T09:47:21.077Z</time></trkpt><trkpt lat="45.4208877" lon="14.1340218"><ele>928.0</ele><time>2026-04-25T09:47:22.077Z</time></trkpt><trkpt lat="45.420844" lon="14.1340923"><ele>928.0</ele><time>2026-04-25T09:47:23.079Z</time></trkpt><trkpt lat="45.4207609" lon="14.1341936"><ele>928.0</ele><time>2026-04-25T09:47:25.076Z</time></trkpt><trkpt lat="45.4206654" lon="14.1342913"><ele>929.2</ele><time>2026-04-25T09:47:27.078Z</time></trkpt><trkpt lat="45.420567" lon="14.1343608"><ele>930.4</ele><time>2026-04-25T09:47:29.086Z</time></trkpt><trkpt lat="45.4204981" lon="14.134386"><ele>931.6000000000001</ele><time>2026-04-25T09:47:30.084Z</time></trkpt><trkpt lat="45.4203875" lon="14.1343867"><ele>932.8000000000001</ele><time>2026-04-25T09:47:32.083Z</time></trkpt><trkpt lat="45.4202796" lon="14.1344179"><ele>934.0</ele><time>2026-04-25T09:47:34.077Z</time></trkpt><trkpt lat="45.4201724" lon="14.1344698"><ele>933.9999999999999</ele><time>2026-04-25T09:47:36.086Z</time></trkpt><trkpt lat="45.4201018" lon="14.1344761"><ele>934.0</ele><time>2026-04-25T09:47:37.074Z</time></trkpt><trkpt lat="45.4199794" lon="14.1344512"><ele>934.0</ele><time>2026-04-25T09:47:39.067Z</time></trkpt><trkpt lat="45.4198644" lon="14.1344159"><ele>934.0</ele><time>2026-04-25T09:47:41.079Z</time></trkpt><trkpt lat="45.4197991" lon="14.1344125"><ele>933.9999999999999</ele><time>2026-04-25T09:47:42.075Z</time></trkpt><trkpt lat="45.4197284" lon="14.1344178"><ele>934.0</ele><time>2026-04-25T09:47:43.081Z</time></trkpt><trkpt lat="45.4196495" lon="14.1344298"><ele>936.4999999999999</ele><time>2026-04-25T09:47:44.084Z</time></trkpt><trkpt lat="45.4195686" lon="14.1344515"><ele>939.0</ele><time>2026-04-25T09:47:45.073Z</time></trkpt><trkpt lat="45.4194848" lon="14.1344763"><ele>941.5</ele><time>2026-04-25T09:47:46.086Z</time></trkpt><trkpt lat="45.4194097" lon="14.1344924"><ele>944.0</ele><time>2026-04-25T09:47:47.082Z</time></trkpt><trkpt lat="45.4193433" lon="14.1345287"><ele>946.4999999999999</ele><time>2026-04-25T09:47:48.075Z</time></trkpt><trkpt lat="45.4192798" lon="14.1345596"><ele>949.0</ele><time>2026-04-25T09:47:49.074Z</time></trkpt><trkpt lat="45.4191708" lon="14.1346438"><ele>949.0000000000001</ele><time>2026-04-25T09:47:51.068Z</time></trkpt><trkpt lat="45.4191107" lon="14.1346935"><ele>949.0</ele><time>2026-04-25T09:47:52.073Z</time></trkpt><trkpt lat="45.4190514" lon="14.1347495"><ele>949.0000000000001</ele><time>2026-04-25T09:47:53.071Z</time></trkpt><trkpt lat="45.418988" lon="14.1348069"><ele>949.0000000000001</ele><time>2026-04-25T09:47:54.074Z</time></trkpt><trkpt lat="45.4189269" lon="14.1348738"><ele>949.0</ele><time>2026-04-25T09:47:55.073Z</time></trkpt><trkpt lat="45.4188698" lon="14.1349502"><ele>949.0000000000001</ele><time>2026-04-25T09:47:56.067Z</time></trkpt><trkpt lat="45.4188244" lon="14.1350324"><ele>949.0000000000001</ele><time>2026-04-25T09:47:57.065Z</time></trkpt><trkpt lat="45.4187782" lon="14.1351199"><ele>949.6666666666666</ele><time>2026-04-25T09:47:58.077Z</time></trkpt><trkpt lat="45.418732" lon="14.1352163"><ele>950.3333333333333</ele><time>2026-04-25T09:47:59.073Z</time></trkpt><trkpt lat="45.4186941" lon="14.1353107"><ele>951.0</ele><time>2026-04-25T09:48:00.068Z</time></trkpt><trkpt lat="45.4186543" lon="14.1353953"><ele>951.6666666666667</ele><time>2026-04-25T09:48:01.064Z</time></trkpt><trkpt lat="45.4186098" lon="14.1354658"><ele>952.3333333333334</ele><time>2026-04-25T09:48:02.07Z</time></trkpt><trkpt lat="45.4184969" lon="14.1355825"><ele>953.0</ele><time>2026-04-25T09:48:04.083Z</time></trkpt><trkpt lat="45.4184339" lon="14.1356533"><ele>951.1666666666667</ele><time>2026-04-25T09:48:05.066Z</time></trkpt><trkpt lat="45.4183705" lon="14.1357231"><ele>949.3333333333334</ele><time>2026-04-25T09:48:06.064Z</time></trkpt><trkpt lat="45.4183056" lon="14.1357966"><ele>947.5</ele><time>2026-04-25T09:48:07.072Z</time></trkpt><trkpt lat="45.4182344" lon="14.1358875"><ele>945.6666666666667</ele><time>2026-04-25T09:48:08.074Z</time></trkpt><trkpt lat="45.4181733" lon="14.1359747"><ele>943.8333333333334</ele><time>2026-04-25T09:48:09.072Z</time></trkpt><trkpt lat="45.4181111" lon="14.1360631"><ele>942.0</ele><time>2026-04-25T09:48:10.085Z</time></trkpt><trkpt lat="45.4180582" lon="14.1361494"><ele>942.0</ele><time>2026-04-25T09:48:11.069Z</time></trkpt><trkpt lat="45.4180124" lon="14.1362354"><ele>942.0</ele><time>2026-04-25T09:48:12.068Z</time></trkpt><trkpt lat="45.4179709" lon="14.1363196"><ele>942.0</ele><time>2026-04-25T09:48:13.065Z</time></trkpt><trkpt lat="45.4179111" lon="14.1364643"><ele>942.0</ele><time>2026-04-25T09:48:15.077Z</time></trkpt><trkpt lat="45.4178771" lon="14.1366161"><ele>942.0</ele><time>2026-04-25T09:48:17.083Z</time></trkpt><trkpt lat="45.4179118" lon="14.1367675"><ele>944.0</ele><time>2026-04-25T09:48:19.073Z</time></trkpt><trkpt lat="45.4179617" lon="14.1368935"><ele>946.0</ele><time>2026-04-25T09:48:21.065Z</time></trkpt><trkpt lat="45.4179554" lon="14.1370425"><ele>948.0</ele><time>2026-04-25T09:48:23.075Z</time></trkpt><trkpt lat="45.4179056" lon="14.1371909"><ele>950.0</ele><time>2026-04-25T09:48:25.068Z</time></trkpt><trkpt lat="45.4179" lon="14.1373387"><ele>952.0</ele><time>2026-04-25T09:48:27.077Z</time></trkpt><trkpt lat="45.4179256" lon="14.1374802"><ele>952.4000000000001</ele><time>2026-04-25T09:48:29.081Z</time></trkpt><trkpt lat="45.4179397" lon="14.1376173"><ele>952.8000000000001</ele><time>2026-04-25T09:48:31.078Z</time></trkpt><trkpt lat="45.4179051" lon="14.1377345"><ele>953.2</ele><time>2026-04-25T09:48:33.071Z</time></trkpt><trkpt lat="45.417824" lon="14.137764"><ele>953.6</ele><time>2026-04-25T09:48:35.069Z</time></trkpt><trkpt lat="45.4177558" lon="14.1378393"><ele>954.0</ele><time>2026-04-25T09:48:37.071Z</time></trkpt><trkpt lat="45.4177077" lon="14.1379862"><ele>954.0</ele><time>2026-04-25T09:48:39.063Z</time></trkpt><trkpt lat="45.4176707" lon="14.1380979"><ele>954.0</ele><time>2026-04-25T09:48:41.084Z</time></trkpt><trkpt lat="45.4176092" lon="14.1380769"><ele>954.0</ele><time>2026-04-25T09:48:44.061Z</time></trkpt><trkpt lat="45.4175775" lon="14.1379894"><ele>954.0</ele><time>2026-04-25T09:48:45.07Z</time></trkpt><trkpt lat="45.417522" lon="14.1378625"><ele>954.0</ele><time>2026-04-25T09:48:47.066Z</time></trkpt><trkpt lat="45.4174691" lon="14.1377743"><ele>954.0</ele><time>2026-04-25T09:48:50.074Z</time></trkpt><trkpt lat="45.4174339" lon="14.1376993"><ele>954.0</ele><time>2026-04-25T09:48:51.074Z</time></trkpt><trkpt lat="45.4173793" lon="14.1375387"><ele>954.0</ele><time>2026-04-25T09:48:53.066Z</time></trkpt><trkpt lat="45.4173303" lon="14.1373722"><ele>954.0</ele><time>2026-04-25T09:48:55.073Z</time></trkpt><trkpt lat="45.4172905" lon="14.1372332"><ele>954.0</ele><time>2026-04-25T09:48:57.079Z</time></trkpt><trkpt lat="45.4172993" lon="14.1370425"><ele>953.6666666666666</ele><time>2026-04-25T09:48:59.074Z</time></trkpt><trkpt lat="45.4173099" lon="14.1369512"><ele>953.3333333333333</ele><time>2026-04-25T09:49:00.063Z</time></trkpt><trkpt lat="45.4172854" lon="14.1368061"><ele>953.0</ele><time>2026-04-25T09:49:02.083Z</time></trkpt><trkpt lat="45.4172131" lon="14.1367263"><ele>952.6666666666666</ele><time>2026-04-25T09:49:04.068Z</time></trkpt><trkpt lat="45.417116" lon="14.1367147"><ele>952.3333333333333</ele><time>2026-04-25T09:49:06.072Z</time></trkpt><trkpt lat="45.4170561" lon="14.1367451"><ele>952.0</ele><time>2026-04-25T09:49:07.064Z</time></trkpt><trkpt lat="45.4169304" lon="14.1367645"><ele>956.4000000000001</ele><time>2026-04-25T09:49:09.079Z</time></trkpt><trkpt lat="45.4168046" lon="14.1367511"><ele>960.8000000000001</ele><time>2026-04-25T09:49:11.085Z</time></trkpt><trkpt lat="45.4166951" lon="14.1368412"><ele>965.2</ele><time>2026-04-25T09:49:13.061Z</time></trkpt><trkpt lat="45.4166327" lon="14.136905"><ele>969.6</ele><time>2026-04-25T09:49:14.076Z</time></trkpt><trkpt lat="45.4165714" lon="14.1369747"><ele>974.0</ele><time>2026-04-25T09:49:15.069Z</time></trkpt><trkpt lat="45.4165041" lon="14.1370474"><ele>974.0000000000001</ele><time>2026-04-25T09:49:16.078Z</time></trkpt><trkpt lat="45.4164368" lon="14.137129"><ele>974.0</ele><time>2026-04-25T09:49:17.068Z</time></trkpt><trkpt lat="45.4163665" lon="14.1372098"><ele>974.0</ele><time>2026-04-25T09:49:18.07Z</time></trkpt><trkpt lat="45.416305" lon="14.137304"><ele>974.0</ele><time>2026-04-25T09:49:19.083Z</time></trkpt><trkpt lat="45.416254" lon="14.1374049"><ele>974.0000000000001</ele><time>2026-04-25T09:49:20.073Z</time></trkpt><trkpt lat="45.4162025" lon="14.1375102"><ele>974.0</ele><time>2026-04-25T09:49:21.069Z</time></trkpt><trkpt lat="45.4161523" lon="14.1375993"><ele>975.3333333333334</ele><time>2026-04-25T09:49:22.09Z</time></trkpt><trkpt lat="45.4161008" lon="14.137664"><ele>976.6666666666667</ele><time>2026-04-25T09:49:23.08Z</time></trkpt><trkpt lat="45.4160359" lon="14.1377096"><ele>978.0</ele><time>2026-04-25T09:49:24.08Z</time></trkpt><trkpt lat="45.415973" lon="14.1377479"><ele>979.3333333333333</ele><time>2026-04-25T09:49:25.079Z</time></trkpt><trkpt lat="45.4159018" lon="14.1377846"><ele>980.6666666666666</ele><time>2026-04-25T09:49:26.072Z</time></trkpt><trkpt lat="45.4158134" lon="14.1378077"><ele>982.0</ele><time>2026-04-25T09:49:27.077Z</time></trkpt><trkpt lat="45.4157152" lon="14.1378348"><ele>982.0</ele><time>2026-04-25T09:49:28.076Z</time></trkpt><trkpt lat="45.4156155" lon="14.1378678"><ele>982.0</ele><time>2026-04-25T09:49:29.075Z</time></trkpt><trkpt lat="45.4155139" lon="14.1379127"><ele>982.0</ele><time>2026-04-25T09:49:30.081Z</time></trkpt><trkpt lat="45.4154186" lon="14.1379647"><ele>982.0</ele><time>2026-04-25T09:49:31.082Z</time></trkpt><trkpt lat="45.4153181" lon="14.1380206"><ele>982.0</ele><time>2026-04-25T09:49:32.084Z</time></trkpt><trkpt lat="45.4152165" lon="14.1380748"><ele>982.0</ele><time>2026-04-25T09:49:33.079Z</time></trkpt><trkpt lat="45.4151123" lon="14.1381415"><ele>982.0</ele><time>2026-04-25T09:49:34.067Z</time></trkpt><trkpt lat="45.4150164" lon="14.1381986"><ele>982.0</ele><time>2026-04-25T09:49:35.067Z</time></trkpt><trkpt lat="45.4149104" lon="14.1382516"><ele>982.0</ele><time>2026-04-25T09:49:36.066Z</time></trkpt><trkpt lat="45.414807" lon="14.1383055"><ele>982.0</ele><time>2026-04-25T09:49:37.071Z</time></trkpt><trkpt lat="45.4147036" lon="14.1383781"><ele>983.6</ele><time>2026-04-25T09:49:38.09Z</time></trkpt><trkpt lat="45.4146079" lon="14.1384509"><ele>985.2</ele><time>2026-04-25T09:49:39.07Z</time></trkpt><trkpt lat="45.4145306" lon="14.1385324"><ele>986.8</ele><time>2026-04-25T09:49:40.073Z</time></trkpt><trkpt lat="45.414467" lon="14.1386163"><ele>988.4</ele><time>2026-04-25T09:49:41.085Z</time></trkpt><trkpt lat="45.414412" lon="14.1386918"><ele>990.0</ele><time>2026-04-25T09:49:42.082Z</time></trkpt><trkpt lat="45.4143415" lon="14.1387531"><ele>990.0</ele><time>2026-04-25T09:49:43.088Z</time></trkpt><trkpt lat="45.4142628" lon="14.13881"><ele>990.0</ele><time>2026-04-25T09:49:44.08Z</time></trkpt><trkpt lat="45.4141801" lon="14.1388694"><ele>990.0</ele><time>2026-04-25T09:49:45.073Z</time></trkpt><trkpt lat="45.4141033" lon="14.138943"><ele>990.0</ele><time>2026-04-25T09:49:46.078Z</time></trkpt><trkpt lat="45.4140309" lon="14.139037"><ele>990.0</ele><time>2026-04-25T09:49:47.07Z</time></trkpt><trkpt lat="45.4139603" lon="14.1391333"><ele>987.75</ele><time>2026-04-25T09:49:48.077Z</time></trkpt><trkpt lat="45.41389" lon="14.1392437"><ele>985.5</ele><time>2026-04-25T09:49:49.078Z</time></trkpt><trkpt lat="45.4138283" lon="14.1393766"><ele>983.25</ele><time>2026-04-25T09:49:50.079Z</time></trkpt><trkpt lat="45.4137623" lon="14.1395356"><ele>981.0</ele><time>2026-04-25T09:49:51.079Z</time></trkpt><trkpt lat="45.4136971" lon="14.1396883"><ele>984.5</ele><time>2026-04-25T09:49:52.085Z</time></trkpt><trkpt lat="45.4136376" lon="14.1398423"><ele>988.0</ele><time>2026-04-25T09:49:53.074Z</time></trkpt><trkpt lat="45.4135779" lon="14.1399927"><ele>991.5</ele><time>2026-04-25T09:49:54.081Z</time></trkpt><trkpt lat="45.4135167" lon="14.1401373"><ele>995.0</ele><time>2026-04-25T09:49:55.083Z</time></trkpt><trkpt lat="45.4134637" lon="14.1402868"><ele>995.0</ele><time>2026-04-25T09:49:56.085Z</time></trkpt><trkpt lat="45.4134093" lon="14.1404426"><ele>995.0</ele><time>2026-04-25T09:49:57.074Z</time></trkpt><trkpt lat="45.4133627" lon="14.1405942"><ele>995.0</ele><time>2026-04-25T09:49:58.071Z</time></trkpt><trkpt lat="45.4133136" lon="14.1407236"><ele>995.0</ele><time>2026-04-25T09:49:59.078Z</time></trkpt><trkpt lat="45.4132609" lon="14.1408276"><ele>995.0</ele><time>2026-04-25T09:50:00.074Z</time></trkpt><trkpt lat="45.4131971" lon="14.1409283"><ele>993.75</ele><time>2026-04-25T09:50:01.078Z</time></trkpt><trkpt lat="45.4131282" lon="14.1410212"><ele>992.5</ele><time>2026-04-25T09:50:02.086Z</time></trkpt><trkpt lat="45.4130464" lon="14.1411416"><ele>991.25</ele><time>2026-04-25T09:50:03.078Z</time></trkpt><trkpt lat="45.4129688" lon="14.1412719"><ele>990.0</ele><time>2026-04-25T09:50:04.08Z</time></trkpt><trkpt lat="45.4128796" lon="14.1413939"><ele>991.25</ele><time>2026-04-25T09:50:05.088Z</time></trkpt><trkpt lat="45.4127801" lon="14.1415022"><ele>992.5</ele><time>2026-04-25T09:50:06.086Z</time></trkpt><trkpt lat="45.4126706" lon="14.1415975"><ele>993.75</ele><time>2026-04-25T09:50:07.078Z</time></trkpt><trkpt lat="45.4125759" lon="14.1416871"><ele>995.0</ele><time>2026-04-25T09:50:08.088Z</time></trkpt><trkpt lat="45.4124872" lon="14.1417849"><ele>995.0</ele><time>2026-04-25T09:50:09.079Z</time></trkpt><trkpt lat="45.412399" lon="14.1418905"><ele>995.0</ele><time>2026-04-25T09:50:10.073Z</time></trkpt><trkpt lat="45.4123084" lon="14.1419992"><ele>995.0</ele><time>2026-04-25T09:50:11.08Z</time></trkpt><trkpt lat="45.4122249" lon="14.1421065"><ele>995.0</ele><time>2026-04-25T09:50:12.085Z</time></trkpt><trkpt lat="45.4121346" lon="14.1422127"><ele>995.0</ele><time>2026-04-25T09:50:13.076Z</time></trkpt><trkpt lat="45.4120451" lon="14.1423159"><ele>995.0</ele><time>2026-04-25T09:50:14.095Z</time></trkpt><trkpt lat="45.4119548" lon="14.1424218"><ele>995.0</ele><time>2026-04-25T09:50:15.077Z</time></trkpt><trkpt lat="45.4118673" lon="14.1425204"><ele>995.0</ele><time>2026-04-25T09:50:16.086Z</time></trkpt><trkpt lat="45.4117795" lon="14.14261"><ele>995.0</ele><time>2026-04-25T09:50:17.075Z</time></trkpt><trkpt lat="45.4116931" lon="14.1427146"><ele>995.0</ele><time>2026-04-25T09:50:18.084Z</time></trkpt><trkpt lat="45.4116144" lon="14.14283"><ele>995.0</ele><time>2026-04-25T09:50:19.085Z</time></trkpt><trkpt lat="45.4115346" lon="14.1429595"><ele>995.0</ele><time>2026-04-25T09:50:20.082Z</time></trkpt><trkpt lat="45.4114536" lon="14.1430758"><ele>995.0</ele><time>2026-04-25T09:50:21.08Z</time></trkpt><trkpt lat="45.4113688" lon="14.1431858"><ele>995.0</ele><time>2026-04-25T09:50:22.076Z</time></trkpt><trkpt lat="45.4112936" lon="14.1432922"><ele>995.0</ele><time>2026-04-25T09:50:23.075Z</time></trkpt><trkpt lat="45.4112265" lon="14.1434032"><ele>995.0</ele><time>2026-04-25T09:50:24.079Z</time></trkpt><trkpt lat="45.4111697" lon="14.1435194"><ele>995.0</ele><time>2026-04-25T09:50:25.08Z</time></trkpt><trkpt lat="45.4111085" lon="14.1436426"><ele>992.8</ele><time>2026-04-25T09:50:26.077Z</time></trkpt><trkpt lat="45.4110611" lon="14.1437761"><ele>990.6</ele><time>2026-04-25T09:50:27.072Z</time></trkpt><trkpt lat="45.4110162" lon="14.1439193"><ele>988.4000000000001</ele><time>2026-04-25T09:50:28.074Z</time></trkpt><trkpt lat="45.4109726" lon="14.1440624"><ele>986.2</ele><time>2026-04-25T09:50:29.078Z</time></trkpt><trkpt lat="45.4109263" lon="14.1441897"><ele>984.0</ele><time>2026-04-25T09:50:30.076Z</time></trkpt><trkpt lat="45.4108827" lon="14.1443075"><ele>983.5</ele><time>2026-04-25T09:50:31.098Z</time></trkpt><trkpt lat="45.4108332" lon="14.1444194"><ele>983.0</ele><time>2026-04-25T09:50:32.072Z</time></trkpt><trkpt lat="45.4107942" lon="14.1445302"><ele>982.5</ele><time>2026-04-25T09:50:33.081Z</time></trkpt><trkpt lat="45.4107658" lon="14.144639"><ele>982.0</ele><time>2026-04-25T09:50:34.083Z</time></trkpt><trkpt lat="45.4107493" lon="14.1447548"><ele>981.5</ele><time>2026-04-25T09:50:35.076Z</time></trkpt><trkpt lat="45.4107318" lon="14.1448816"><ele>981.0</ele><time>2026-04-25T09:50:36.089Z</time></trkpt><trkpt lat="45.4107139" lon="14.1450102"><ele>980.6666666666666</ele><time>2026-04-25T09:50:37.081Z</time></trkpt><trkpt lat="45.4106973" lon="14.145125"><ele>980.3333333333333</ele><time>2026-04-25T09:50:38.079Z</time></trkpt><trkpt lat="45.4106738" lon="14.1452366"><ele>980.0</ele><time>2026-04-25T09:50:39.081Z</time></trkpt><trkpt lat="45.4106509" lon="14.1453544"><ele>979.6666666666666</ele><time>2026-04-25T09:50:40.084Z</time></trkpt><trkpt lat="45.4106428" lon="14.1454716"><ele>979.3333333333333</ele><time>2026-04-25T09:50:41.082Z</time></trkpt><trkpt lat="45.41065" lon="14.1455795"><ele>979.0</ele><time>2026-04-25T09:50:42.086Z</time></trkpt><trkpt lat="45.4106779" lon="14.145682"><ele>978.2</ele><time>2026-04-25T09:50:43.077Z</time></trkpt><trkpt lat="45.4107027" lon="14.1457735"><ele>977.4000000000001</ele><time>2026-04-25T09:50:44.091Z</time></trkpt><trkpt lat="45.4107731" lon="14.1459006"><ele>976.6</ele><time>2026-04-25T09:50:46.085Z</time></trkpt><trkpt lat="45.4108555" lon="14.1460134"><ele>975.8</ele><time>2026-04-25T09:50:48.09Z</time></trkpt><trkpt lat="45.4109415" lon="14.1461081"><ele>975.0</ele><time>2026-04-25T09:50:50.095Z</time></trkpt><trkpt lat="45.4110383" lon="14.146177"><ele>975.0</ele><time>2026-04-25T09:50:52.096Z</time></trkpt><trkpt lat="45.4111362" lon="14.1462399"><ele>975.0</ele><time>2026-04-25T09:50:54.091Z</time></trkpt><trkpt lat="45.4112316" lon="14.1463049"><ele>975.0</ele><time>2026-04-25T09:50:56.088Z</time></trkpt><trkpt lat="45.4113423" lon="14.1463778"><ele>975.0</ele><time>2026-04-25T09:50:58.09Z</time></trkpt><trkpt lat="45.4114511" lon="14.1464627"><ele>974.8</ele><time>2026-04-25T09:51:00.084Z</time></trkpt><trkpt lat="45.4115587" lon="14.1465356"><ele>974.6</ele><time>2026-04-25T09:51:02.084Z</time></trkpt><trkpt lat="45.4116669" lon="14.1465872"><ele>974.4000000000001</ele><time>2026-04-25T09:51:04.084Z</time></trkpt><trkpt lat="45.4117197" lon="14.1466604"><ele>974.2</ele><time>2026-04-25T09:51:06.082Z</time></trkpt><trkpt lat="45.4117118" lon="14.1467772"><ele>974.0</ele><time>2026-04-25T09:51:08.076Z</time></trkpt><trkpt lat="45.4116541" lon="14.1468788"><ele>972.6666666666667</ele><time>2026-04-25T09:51:10.069Z</time></trkpt><trkpt lat="45.4115699" lon="14.1469853"><ele>971.3333333333334</ele><time>2026-04-25T09:51:12.086Z</time></trkpt><trkpt lat="45.4115015" lon="14.1470638"><ele>970.0</ele><time>2026-04-25T09:51:14.088Z</time></trkpt><trkpt lat="45.4114579" lon="14.1471341"><ele>968.6666666666667</ele><time>2026-04-25T09:51:16.069Z</time></trkpt><trkpt lat="45.4113992" lon="14.1472073"><ele>967.3333333333334</ele><time>2026-04-25T09:51:18.07Z</time></trkpt><trkpt lat="45.4113482" lon="14.1473126"><ele>966.0</ele><time>2026-04-25T09:51:20.093Z</time></trkpt><trkpt lat="45.411302" lon="14.1474576"><ele>965.5</ele><time>2026-04-25T09:51:22.087Z</time></trkpt><trkpt lat="45.4112719" lon="14.1475638"><ele>965.0</ele><time>2026-04-25T09:51:23.077Z</time></trkpt><trkpt lat="45.4112362" lon="14.147688"><ele>964.5</ele><time>2026-04-25T09:51:24.089Z</time></trkpt><trkpt lat="45.4111976" lon="14.1477968"><ele>964.0</ele><time>2026-04-25T09:51:25.089Z</time></trkpt><trkpt lat="45.4111507" lon="14.1478961"><ele>963.5</ele><time>2026-04-25T09:51:26.081Z</time></trkpt><trkpt lat="45.411108" lon="14.1479963"><ele>963.0</ele><time>2026-04-25T09:51:27.082Z</time></trkpt><trkpt lat="45.4110632" lon="14.1480978"><ele>963.0</ele><time>2026-04-25T09:51:28.08Z</time></trkpt><trkpt lat="45.4110377" lon="14.1481976"><ele>963.0</ele><time>2026-04-25T09:51:29.094Z</time></trkpt><trkpt lat="45.4110168" lon="14.1483017"><ele>963.0</ele><time>2026-04-25T09:51:30.102Z</time></trkpt><trkpt lat="45.4109871" lon="14.1484122"><ele>963.0</ele><time>2026-04-25T09:51:31.084Z</time></trkpt><trkpt lat="45.4109551" lon="14.1485402"><ele>963.0</ele><time>2026-04-25T09:51:32.086Z</time></trkpt><trkpt lat="45.4109088" lon="14.1486883"><ele>963.0</ele><time>2026-04-25T09:51:33.079Z</time></trkpt><trkpt lat="45.4108525" lon="14.1488458"><ele>962.0</ele><time>2026-04-25T09:51:34.078Z</time></trkpt><trkpt lat="45.4108039" lon="14.1490026"><ele>961.0</ele><time>2026-04-25T09:51:35.08Z</time></trkpt><trkpt lat="45.4107638" lon="14.1491389"><ele>960.0</ele><time>2026-04-25T09:51:36.081Z</time></trkpt><trkpt lat="45.4107203" lon="14.1492734"><ele>959.0</ele><time>2026-04-25T09:51:37.082Z</time></trkpt><trkpt lat="45.4106693" lon="14.1493942"><ele>958.0</ele><time>2026-04-25T09:51:38.081Z</time></trkpt><trkpt lat="45.4106158" lon="14.1495074"><ele>956.2</ele><time>2026-04-25T09:51:39.08Z</time></trkpt><trkpt lat="45.4105694" lon="14.1496268"><ele>954.4</ele><time>2026-04-25T09:51:40.089Z</time></trkpt><trkpt lat="45.4105266" lon="14.1497368"><ele>952.6000000000001</ele><time>2026-04-25T09:51:41.086Z</time></trkpt><trkpt lat="45.410501" lon="14.1498278"><ele>950.8000000000001</ele><time>2026-04-25T09:51:42.081Z</time></trkpt><trkpt lat="45.4104957" lon="14.1499999"><ele>949.0</ele><time>2026-04-25T09:51:44.104Z</time></trkpt><trkpt lat="45.4105216" lon="14.1501165"><ele>947.0</ele><time>2026-04-25T09:51:45.075Z</time></trkpt><trkpt lat="45.4105479" lon="14.1502558"><ele>945.0000000000001</ele><time>2026-04-25T09:51:46.072Z</time></trkpt><trkpt lat="45.4105791" lon="14.1503872"><ele>943.0000000000001</ele><time>2026-04-25T09:51:47.082Z</time></trkpt><trkpt lat="45.4106164" lon="14.1505213"><ele>941.0</ele><time>2026-04-25T09:51:48.081Z</time></trkpt><trkpt lat="45.410654" lon="14.1506508"><ele>939.0</ele><time>2026-04-25T09:51:49.082Z</time></trkpt><trkpt lat="45.410698" lon="14.1507842"><ele>937.8000000000001</ele><time>2026-04-25T09:51:50.092Z</time></trkpt><trkpt lat="45.4107486" lon="14.1509107"><ele>936.6000000000001</ele><time>2026-04-25T09:51:51.081Z</time></trkpt><trkpt lat="45.4107991" lon="14.1510253"><ele>935.4</ele><time>2026-04-25T09:51:52.078Z</time></trkpt><trkpt lat="45.410835" lon="14.1511077"><ele>934.2</ele><time>2026-04-25T09:51:53.074Z</time></trkpt><trkpt lat="45.4108685" lon="14.1512583"><ele>933.0</ele><time>2026-04-25T09:51:55.096Z</time></trkpt><trkpt lat="45.4108874" lon="14.1514364"><ele>931.4</ele><time>2026-04-25T09:51:57.088Z</time></trkpt><trkpt lat="45.4108858" lon="14.1515534"><ele>929.8</ele><time>2026-04-25T09:51:58.083Z</time></trkpt><trkpt lat="45.4108848" lon="14.1516827"><ele>928.2</ele><time>2026-04-25T09:51:59.078Z</time></trkpt><trkpt lat="45.4108703" lon="14.1518336"><ele>926.6</ele><time>2026-04-25T09:52:00.073Z</time></trkpt><trkpt lat="45.4108477" lon="14.1519876"><ele>925.0</ele><time>2026-04-25T09:52:01.072Z</time></trkpt><trkpt lat="45.4108193" lon="14.1521476"><ele>925.0</ele><time>2026-04-25T09:52:02.071Z</time></trkpt><trkpt lat="45.41078" lon="14.1522968"><ele>925.0</ele><time>2026-04-25T09:52:03.08Z</time></trkpt><trkpt lat="45.4107371" lon="14.1524314"><ele>925.0</ele><time>2026-04-25T09:52:04.082Z</time></trkpt><trkpt lat="45.4106861" lon="14.1525478"><ele>925.0</ele><time>2026-04-25T09:52:05.087Z</time></trkpt><trkpt lat="45.4106377" lon="14.1526476"><ele>925.0</ele><time>2026-04-25T09:52:06.083Z</time></trkpt><trkpt lat="45.4106024" lon="14.1527616"><ele>924.8</ele><time>2026-04-25T09:52:07.075Z</time></trkpt><trkpt lat="45.4105777" lon="14.1528905"><ele>924.6</ele><time>2026-04-25T09:52:08.088Z</time></trkpt><trkpt lat="45.4105612" lon="14.1530336"><ele>924.4000000000001</ele><time>2026-04-25T09:52:09.081Z</time></trkpt><trkpt lat="45.4105431" lon="14.1531802"><ele>924.2</ele><time>2026-04-25T09:52:10.081Z</time></trkpt><trkpt lat="45.4105238" lon="14.153326"><ele>924.0</ele><time>2026-04-25T09:52:11.083Z</time></trkpt><trkpt lat="45.4104925" lon="14.1534582"><ele>922.6</ele><time>2026-04-25T09:52:12.074Z</time></trkpt><trkpt lat="45.4104501" lon="14.153572"><ele>921.2</ele><time>2026-04-25T09:52:13.079Z</time></trkpt><trkpt lat="45.4103917" lon="14.1536646"><ele>919.8000000000001</ele><time>2026-04-25T09:52:14.089Z</time></trkpt><trkpt lat="45.4103298" lon="14.1537731"><ele>918.4000000000001</ele><time>2026-04-25T09:52:15.066Z</time></trkpt><trkpt lat="45.4102572" lon="14.1538815"><ele>917.0</ele><time>2026-04-25T09:52:16.087Z</time></trkpt><trkpt lat="45.4101907" lon="14.1539946"><ele>918.2</ele><time>2026-04-25T09:52:17.077Z</time></trkpt><trkpt lat="45.4101388" lon="14.1541087"><ele>919.4000000000001</ele><time>2026-04-25T09:52:18.077Z</time></trkpt><trkpt lat="45.4100966" lon="14.1542432"><ele>920.5999999999999</ele><time>2026-04-25T09:52:19.072Z</time></trkpt><trkpt lat="45.4100679" lon="14.1543753"><ele>921.8</ele><time>2026-04-25T09:52:20.074Z</time></trkpt><trkpt lat="45.4100301" lon="14.1545076"><ele>923.0</ele><time>2026-04-25T09:52:21.073Z</time></trkpt><trkpt lat="45.4099767" lon="14.1546437"><ele>923.0</ele><time>2026-04-25T09:52:22.08Z</time></trkpt><trkpt lat="45.4099044" lon="14.1547723"><ele>923.0</ele><time>2026-04-25T09:52:23.075Z</time></trkpt><trkpt lat="45.4098187" lon="14.1548886"><ele>923.0</ele><time>2026-04-25T09:52:24.078Z</time></trkpt><trkpt lat="45.4097349" lon="14.1549956"><ele>923.0</ele><time>2026-04-25T09:52:25.074Z</time></trkpt><trkpt lat="45.4096619" lon="14.1551002"><ele>921.5999999999999</ele><time>2026-04-25T09:52:26.077Z</time></trkpt><trkpt lat="45.4096142" lon="14.1552118"><ele>920.1999999999999</ele><time>2026-04-25T09:52:27.079Z</time></trkpt><trkpt lat="45.409579" lon="14.1553261"><ele>918.8</ele><time>2026-04-25T09:52:28.071Z</time></trkpt><trkpt lat="45.4095472" lon="14.1554504"><ele>917.4</ele><time>2026-04-25T09:52:29.071Z</time></trkpt><trkpt lat="45.4095169" lon="14.1555758"><ele>916.0</ele><time>2026-04-25T09:52:30.07Z</time></trkpt><trkpt lat="45.4094888" lon="14.1557119"><ele>916.0</ele><time>2026-04-25T09:52:31.077Z</time></trkpt><trkpt lat="45.4094701" lon="14.1558694"><ele>915.9999999999999</ele><time>2026-04-25T09:52:32.073Z</time></trkpt><trkpt lat="45.4094495" lon="14.1560232"><ele>915.9999999999999</ele><time>2026-04-25T09:52:33.093Z</time></trkpt><trkpt lat="45.4094201" lon="14.1561833"><ele>916.0</ele><time>2026-04-25T09:52:34.079Z</time></trkpt><trkpt lat="45.4093926" lon="14.1563357"><ele>916.0</ele><time>2026-04-25T09:52:35.079Z</time></trkpt><trkpt lat="45.4093632" lon="14.1564916"><ele>915.8</ele><time>2026-04-25T09:52:36.072Z</time></trkpt><trkpt lat="45.4093263" lon="14.1566306"><ele>915.5999999999999</ele><time>2026-04-25T09:52:37.077Z</time></trkpt><trkpt lat="45.4092866" lon="14.1567798"><ele>915.4</ele><time>2026-04-25T09:52:38.101Z</time></trkpt><trkpt lat="45.409248" lon="14.1569267"><ele>915.2</ele><time>2026-04-25T09:52:39.079Z</time></trkpt><trkpt lat="45.4092089" lon="14.1570594"><ele>915.0</ele><time>2026-04-25T09:52:40.077Z</time></trkpt><trkpt lat="45.4091771" lon="14.1571869"><ele>915.0</ele><time>2026-04-25T09:52:41.084Z</time></trkpt><trkpt lat="45.4091498" lon="14.1573166"><ele>915.0</ele><time>2026-04-25T09:52:42.076Z</time></trkpt><trkpt lat="45.4091241" lon="14.1574527"><ele>915.0</ele><time>2026-04-25T09:52:43.075Z</time></trkpt><trkpt lat="45.4091014" lon="14.1575891"><ele>915.0</ele><time>2026-04-25T09:52:44.074Z</time></trkpt><trkpt lat="45.4090756" lon="14.157741"><ele>915.0</ele><time>2026-04-25T09:52:45.078Z</time></trkpt><trkpt lat="45.4090416" lon="14.1579055"><ele>914.0</ele><time>2026-04-25T09:52:46.073Z</time></trkpt><trkpt lat="45.4090075" lon="14.1580824"><ele>913.0</ele><time>2026-04-25T09:52:47.074Z</time></trkpt><trkpt lat="45.4089876" lon="14.1582484"><ele>912.0</ele><time>2026-04-25T09:52:48.075Z</time></trkpt><trkpt lat="45.4089659" lon="14.1584109"><ele>911.0</ele><time>2026-04-25T09:52:49.072Z</time></trkpt><trkpt lat="45.4089292" lon="14.1585875"><ele>910.75</ele><time>2026-04-25T09:52:50.071Z</time></trkpt><trkpt lat="45.4088705" lon="14.1587483"><ele>910.5</ele><time>2026-04-25T09:52:51.083Z</time></trkpt><trkpt lat="45.4088135" lon="14.158903"><ele>910.25</ele><time>2026-04-25T09:52:52.075Z</time></trkpt><trkpt lat="45.4087577" lon="14.1590408"><ele>910.0</ele><time>2026-04-25T09:52:53.077Z</time></trkpt><trkpt lat="45.4087041" lon="14.1591586"><ele>907.0</ele><time>2026-04-25T09:52:54.071Z</time></trkpt><trkpt lat="45.4086631" lon="14.1592705"><ele>904.0</ele><time>2026-04-25T09:52:55.071Z</time></trkpt><trkpt lat="45.4086251" lon="14.1593992"><ele>901.0</ele><time>2026-04-25T09:52:56.075Z</time></trkpt><trkpt lat="45.4085934" lon="14.1595282"><ele>898.0</ele><time>2026-04-25T09:52:57.072Z</time></trkpt><trkpt lat="45.4085765" lon="14.1596459"><ele>895.0</ele><time>2026-04-25T09:52:58.083Z</time></trkpt><trkpt lat="45.4085783" lon="14.1597693"><ele>894.9999999999999</ele><time>2026-04-25T09:52:59.069Z</time></trkpt><trkpt lat="45.4085794" lon="14.1598819"><ele>895.0</ele><time>2026-04-25T09:53:00.071Z</time></trkpt><trkpt lat="45.4085643" lon="14.1600069"><ele>895.0</ele><time>2026-04-25T09:53:01.065Z</time></trkpt><trkpt lat="45.4085349" lon="14.1601293"><ele>895.0</ele><time>2026-04-25T09:53:02.073Z</time></trkpt><trkpt lat="45.408506" lon="14.1602482"><ele>894.9999999999999</ele><time>2026-04-25T09:53:03.066Z</time></trkpt><trkpt lat="45.4084667" lon="14.1603783"><ele>895.0</ele><time>2026-04-25T09:53:04.089Z</time></trkpt><trkpt lat="45.4084197" lon="14.1605179"><ele>895.0</ele><time>2026-04-25T09:53:05.063Z</time></trkpt><trkpt lat="45.4083648" lon="14.1606456"><ele>895.0</ele><time>2026-04-25T09:53:06.067Z</time></trkpt><trkpt lat="45.4083004" lon="14.1607656"><ele>895.0</ele><time>2026-04-25T09:53:07.072Z</time></trkpt><trkpt lat="45.4082234" lon="14.1608862"><ele>895.0</ele><time>2026-04-25T09:53:08.06Z</time></trkpt><trkpt lat="45.4081467" lon="14.160981"><ele>895.0</ele><time>2026-04-25T09:53:09.082Z</time></trkpt><trkpt lat="45.4080645" lon="14.1610748"><ele>894.2</ele><time>2026-04-25T09:53:10.071Z</time></trkpt><trkpt lat="45.4079971" lon="14.1611734"><ele>893.4</ele><time>2026-04-25T09:53:11.071Z</time></trkpt><trkpt lat="45.4079361" lon="14.1612794"><ele>892.5999999999999</ele><time>2026-04-25T09:53:12.071Z</time></trkpt><trkpt lat="45.4078727" lon="14.1614018"><ele>891.8</ele><time>2026-04-25T09:53:13.067Z</time></trkpt><trkpt lat="45.4078176" lon="14.1615317"><ele>891.0</ele><time>2026-04-25T09:53:14.075Z</time></trkpt><trkpt lat="45.4077731" lon="14.1616748"><ele>891.0</ele><time>2026-04-25T09:53:15.074Z</time></trkpt><trkpt lat="45.407747" lon="14.1618054"><ele>890.9999999999999</ele><time>2026-04-25T09:53:16.066Z</time></trkpt><trkpt lat="45.4077347" lon="14.1619209"><ele>890.9999999999999</ele><time>2026-04-25T09:53:17.076Z</time></trkpt><trkpt lat="45.4077387" lon="14.1620405"><ele>891.0</ele><time>2026-04-25T09:53:18.07Z</time></trkpt><trkpt lat="45.4077565" lon="14.1621775"><ele>891.0</ele><time>2026-04-25T09:53:19.064Z</time></trkpt><trkpt lat="45.4077905" lon="14.1623094"><ele>890.8333333333334</ele><time>2026-04-25T09:53:20.069Z</time></trkpt><trkpt lat="45.4078172" lon="14.1624226"><ele>890.6666666666667</ele><time>2026-04-25T09:53:21.065Z</time></trkpt><trkpt lat="45.4078409" lon="14.1625333"><ele>890.5</ele><time>2026-04-25T09:53:22.067Z</time></trkpt><trkpt lat="45.4078437" lon="14.1626531"><ele>890.3333333333334</ele><time>2026-04-25T09:53:23.072Z</time></trkpt><trkpt lat="45.4078299" lon="14.1627721"><ele>890.1666666666667</ele><time>2026-04-25T09:53:24.078Z</time></trkpt><trkpt lat="45.4078064" lon="14.1628956"><ele>890.0</ele><time>2026-04-25T09:53:25.063Z</time></trkpt><trkpt lat="45.4077896" lon="14.1630305"><ele>890.0000000000001</ele><time>2026-04-25T09:53:26.069Z</time></trkpt><trkpt lat="45.4077782" lon="14.1631585"><ele>890.0</ele><time>2026-04-25T09:53:27.066Z</time></trkpt><trkpt lat="45.4077477" lon="14.1632595"><ele>890.0</ele><time>2026-04-25T09:53:28.073Z</time></trkpt><trkpt lat="45.4076979" lon="14.1633454"><ele>890.0</ele><time>2026-04-25T09:53:29.06Z</time></trkpt><trkpt lat="45.4076324" lon="14.1634241"><ele>890.0000000000001</ele><time>2026-04-25T09:53:30.064Z</time></trkpt><trkpt lat="45.4075617" lon="14.1634972"><ele>890.0</ele><time>2026-04-25T09:53:31.077Z</time></trkpt><trkpt lat="45.4074809" lon="14.1635677"><ele>890.6</ele><time>2026-04-25T09:53:32.078Z</time></trkpt><trkpt lat="45.4074087" lon="14.1636571"><ele>891.2</ele><time>2026-04-25T09:53:33.072Z</time></trkpt><trkpt lat="45.4073369" lon="14.1637624"><ele>891.8</ele><time>2026-04-25T09:53:34.08Z</time></trkpt><trkpt lat="45.4072716" lon="14.1638867"><ele>892.4</ele><time>2026-04-25T09:53:35.068Z</time></trkpt><trkpt lat="45.407214" lon="14.1640183"><ele>893.0</ele><time>2026-04-25T09:53:36.069Z</time></trkpt><trkpt lat="45.4071604" lon="14.1641386"><ele>893.8333333333334</ele><time>2026-04-25T09:53:37.063Z</time></trkpt><trkpt lat="45.4071022" lon="14.164244"><ele>894.6666666666667</ele><time>2026-04-25T09:53:38.067Z</time></trkpt><trkpt lat="45.4070386" lon="14.1643162"><ele>895.5</ele><time>2026-04-25T09:53:39.076Z</time></trkpt><trkpt lat="45.4069683" lon="14.1643685"><ele>896.3333333333333</ele><time>2026-04-25T09:53:40.069Z</time></trkpt><trkpt lat="45.4068939" lon="14.1644271"><ele>897.1666666666666</ele><time>2026-04-25T09:53:41.079Z</time></trkpt><trkpt lat="45.4068171" lon="14.1644928"><ele>898.0</ele><time>2026-04-25T09:53:42.089Z</time></trkpt><trkpt lat="45.4067325" lon="14.1645627"><ele>897.9999999999999</ele><time>2026-04-25T09:53:43.073Z</time></trkpt><trkpt lat="45.4066528" lon="14.1646321"><ele>898.0</ele><time>2026-04-25T09:53:44.088Z</time></trkpt><trkpt lat="45.4065892" lon="14.1647185"><ele>898.0</ele><time>2026-04-25T09:53:45.067Z</time></trkpt><trkpt lat="45.4065544" lon="14.1648209"><ele>898.0</ele><time>2026-04-25T09:53:46.071Z</time></trkpt><trkpt lat="45.4065338" lon="14.164928"><ele>897.9999999999999</ele><time>2026-04-25T09:53:47.059Z</time></trkpt><trkpt lat="45.4065132" lon="14.1650466"><ele>898.0</ele><time>2026-04-25T09:53:48.064Z</time></trkpt><trkpt lat="45.4064898" lon="14.1651724"><ele>898.0</ele><time>2026-04-25T09:53:49.067Z</time></trkpt><trkpt lat="45.4064438" lon="14.1652909"><ele>898.0</ele><time>2026-04-25T09:53:50.071Z</time></trkpt><trkpt lat="45.4063907" lon="14.1654112"><ele>898.0</ele><time>2026-04-25T09:53:51.067Z</time></trkpt><trkpt lat="45.4063289" lon="14.165531"><ele>898.0</ele><time>2026-04-25T09:53:52.07Z</time></trkpt><trkpt lat="45.4062543" lon="14.1656467"><ele>898.0</ele><time>2026-04-25T09:53:53.07Z</time></trkpt><trkpt lat="45.4061792" lon="14.165751"><ele>900.4</ele><time>2026-04-25T09:53:54.072Z</time></trkpt><trkpt lat="45.4060988" lon="14.1658434"><ele>902.8</ele><time>2026-04-25T09:53:55.076Z</time></trkpt><trkpt lat="45.4060258" lon="14.1659414"><ele>905.2</ele><time>2026-04-25T09:53:56.071Z</time></trkpt><trkpt lat="45.4059565" lon="14.1660531"><ele>907.6</ele><time>2026-04-25T09:53:57.066Z</time></trkpt><trkpt lat="45.4058942" lon="14.1661755"><ele>910.0</ele><time>2026-04-25T09:53:58.066Z</time></trkpt><trkpt lat="45.4058344" lon="14.1663057"><ele>910.0</ele><time>2026-04-25T09:53:59.068Z</time></trkpt><trkpt lat="45.4057695" lon="14.1664297"><ele>910.0</ele><time>2026-04-25T09:54:00.07Z</time></trkpt><trkpt lat="45.4056984" lon="14.1665546"><ele>910.0</ele><time>2026-04-25T09:54:01.083Z</time></trkpt><trkpt lat="45.4056217" lon="14.1666918"><ele>910.0</ele><time>2026-04-25T09:54:02.071Z</time></trkpt><trkpt lat="45.4055414" lon="14.1668346"><ele>911.25</ele><time>2026-04-25T09:54:03.071Z</time></trkpt><trkpt lat="45.4054403" lon="14.1669666"><ele>912.5</ele><time>2026-04-25T09:54:04.073Z</time></trkpt><trkpt lat="45.4053431" lon="14.1670828"><ele>913.75</ele><time>2026-04-25T09:54:05.072Z</time></trkpt><trkpt lat="45.4052631" lon="14.1671898"><ele>915.0</ele><time>2026-04-25T09:54:06.068Z</time></trkpt><trkpt lat="45.4051911" lon="14.1672906"><ele>918.0</ele><time>2026-04-25T09:54:07.073Z</time></trkpt><trkpt lat="45.4051288" lon="14.1674078"><ele>921.0</ele><time>2026-04-25T09:54:08.068Z</time></trkpt><trkpt lat="45.4050693" lon="14.1675366"><ele>924.0</ele><time>2026-04-25T09:54:09.073Z</time></trkpt><trkpt lat="45.4050013" lon="14.1676609"><ele>927.0</ele><time>2026-04-25T09:54:10.071Z</time></trkpt><trkpt lat="45.4049242" lon="14.1677884"><ele>930.0</ele><time>2026-04-25T09:54:11.072Z</time></trkpt><trkpt lat="45.4048461" lon="14.1679288"><ele>930.0</ele><time>2026-04-25T09:54:12.075Z</time></trkpt><trkpt lat="45.4047592" lon="14.1680495"><ele>930.0</ele><time>2026-04-25T09:54:13.068Z</time></trkpt><trkpt lat="45.4046715" lon="14.1681341"><ele>930.0</ele><time>2026-04-25T09:54:14.077Z</time></trkpt><trkpt lat="45.4045855" lon="14.1682091"><ele>930.0</ele><time>2026-04-25T09:54:15.069Z</time></trkpt><trkpt lat="45.4044916" lon="14.168307"><ele>930.0</ele><time>2026-04-25T09:54:16.07Z</time></trkpt><trkpt lat="45.4044021" lon="14.1684022"><ele>932.6</ele><time>2026-04-25T09:54:17.074Z</time></trkpt><trkpt lat="45.4043121" lon="14.16851"><ele>935.2</ele><time>2026-04-25T09:54:18.069Z</time></trkpt><trkpt lat="45.4042358" lon="14.1685944"><ele>937.8</ele><time>2026-04-25T09:54:19.069Z</time></trkpt><trkpt lat="45.4041556" lon="14.1686476"><ele>940.4</ele><time>2026-04-25T09:54:20.072Z</time></trkpt><trkpt lat="45.404075" lon="14.1686733"><ele>943.0</ele><time>2026-04-25T09:54:21.077Z</time></trkpt><trkpt lat="45.4039938" lon="14.168666"><ele>943.0</ele><time>2026-04-25T09:54:22.069Z</time></trkpt><trkpt lat="45.4038917" lon="14.168673"><ele>943.0</ele><time>2026-04-25T09:54:23.078Z</time></trkpt><trkpt lat="45.4037732" lon="14.1686605"><ele>943.0</ele><time>2026-04-25T09:54:24.072Z</time></trkpt><trkpt lat="45.40363" lon="14.1686443"><ele>943.0</ele><time>2026-04-25T09:54:25.067Z</time></trkpt><trkpt lat="45.4034966" lon="14.1686467"><ele>943.75</ele><time>2026-04-25T09:54:26.08Z</time></trkpt><trkpt lat="45.4033589" lon="14.1686488"><ele>944.5</ele><time>2026-04-25T09:54:27.073Z</time></trkpt><trkpt lat="45.4032279" lon="14.1686479"><ele>945.25</ele><time>2026-04-25T09:54:28.077Z</time></trkpt><trkpt lat="45.4031137" lon="14.1686729"><ele>946.0</ele><time>2026-04-25T09:54:29.079Z</time></trkpt><trkpt lat="45.4030208" lon="14.1687465"><ele>946.25</ele><time>2026-04-25T09:54:30.088Z</time></trkpt><trkpt lat="45.4029312" lon="14.1688519"><ele>946.5</ele><time>2026-04-25T09:54:31.068Z</time></trkpt><trkpt lat="45.4028541" lon="14.1689688"><ele>946.75</ele><time>2026-04-25T09:54:32.066Z</time></trkpt><trkpt lat="45.4027567" lon="14.1691043"><ele>947.0</ele><time>2026-04-25T09:54:33.072Z</time></trkpt><trkpt lat="45.4026603" lon="14.1692522"><ele>947.0</ele><time>2026-04-25T09:54:34.067Z</time></trkpt><trkpt lat="45.4025594" lon="14.1694271"><ele>947.0</ele><time>2026-04-25T09:54:35.096Z</time></trkpt><trkpt lat="45.4024538" lon="14.1695981"><ele>947.0</ele><time>2026-04-25T09:54:36.065Z</time></trkpt><trkpt lat="45.4023611" lon="14.1697478"><ele>949.0</ele><time>2026-04-25T09:54:37.065Z</time></trkpt><trkpt lat="45.4022906" lon="14.1699206"><ele>951.0</ele><time>2026-04-25T09:54:38.064Z</time></trkpt><trkpt lat="45.4022397" lon="14.1700937"><ele>953.0</ele><time>2026-04-25T09:54:39.07Z</time></trkpt><trkpt lat="45.4021861" lon="14.1702537"><ele>955.0</ele><time>2026-04-25T09:54:40.068Z</time></trkpt><trkpt lat="45.4021357" lon="14.1704157"><ele>951.75</ele><time>2026-04-25T09:54:41.074Z</time></trkpt><trkpt lat="45.4021" lon="14.1705862"><ele>948.5</ele><time>2026-04-25T09:54:42.075Z</time></trkpt><trkpt lat="45.4020717" lon="14.1707558"><ele>945.25</ele><time>2026-04-25T09:54:43.072Z</time></trkpt><trkpt lat="45.4020471" lon="14.1709302"><ele>942.0</ele><time>2026-04-25T09:54:44.072Z</time></trkpt><trkpt lat="45.402024" lon="14.1711005"><ele>942.0</ele><time>2026-04-25T09:54:45.065Z</time></trkpt><trkpt lat="45.4020014" lon="14.1712528"><ele>942.0</ele><time>2026-04-25T09:54:46.089Z</time></trkpt><trkpt lat="45.4019647" lon="14.1713891"><ele>942.0</ele><time>2026-04-25T09:54:47.069Z</time></trkpt><trkpt lat="45.4019099" lon="14.1715299"><ele>942.0</ele><time>2026-04-25T09:54:48.07Z</time></trkpt><trkpt lat="45.4018393" lon="14.1716697"><ele>942.0</ele><time>2026-04-25T09:54:49.073Z</time></trkpt><trkpt lat="45.4017607" lon="14.1718195"><ele>942.2</ele><time>2026-04-25T09:54:50.067Z</time></trkpt><trkpt lat="45.4016999" lon="14.1719739"><ele>942.4000000000001</ele><time>2026-04-25T09:54:51.072Z</time></trkpt><trkpt lat="45.4016677" lon="14.1721136"><ele>942.5999999999999</ele><time>2026-04-25T09:54:52.067Z</time></trkpt><trkpt lat="45.4016492" lon="14.1722593"><ele>942.8</ele><time>2026-04-25T09:54:53.079Z</time></trkpt><trkpt lat="45.4016499" lon="14.172423"><ele>943.0</ele><time>2026-04-25T09:54:54.07Z</time></trkpt><trkpt lat="45.4016496" lon="14.1725997"><ele>943.0</ele><time>2026-04-25T09:54:55.069Z</time></trkpt><trkpt lat="45.4016626" lon="14.1727677"><ele>943.0</ele><time>2026-04-25T09:54:56.074Z</time></trkpt><trkpt lat="45.4016649" lon="14.1729344"><ele>943.0</ele><time>2026-04-25T09:54:57.07Z</time></trkpt><trkpt lat="45.4016564" lon="14.1730737"><ele>943.0</ele><time>2026-04-25T09:54:58.079Z</time></trkpt><trkpt lat="45.4016152" lon="14.1731876"><ele>943.0</ele><time>2026-04-25T09:54:59.075Z</time></trkpt><trkpt lat="45.4015586" lon="14.1732951"><ele>942.8</ele><time>2026-04-25T09:55:00.065Z</time></trkpt><trkpt lat="45.4014866" lon="14.173393"><ele>942.5999999999999</ele><time>2026-04-25T09:55:01.061Z</time></trkpt><trkpt lat="45.4014123" lon="14.1734946"><ele>942.4000000000001</ele><time>2026-04-25T09:55:02.059Z</time></trkpt><trkpt lat="45.4013331" lon="14.173601"><ele>942.2</ele><time>2026-04-25T09:55:03.068Z</time></trkpt><trkpt lat="45.4012519" lon="14.1737163"><ele>942.0</ele><time>2026-04-25T09:55:04.069Z</time></trkpt><trkpt lat="45.4011726" lon="14.1738229"><ele>940.2</ele><time>2026-04-25T09:55:05.08Z</time></trkpt><trkpt lat="45.401091" lon="14.1739112"><ele>938.4000000000001</ele><time>2026-04-25T09:55:06.076Z</time></trkpt><trkpt lat="45.400995" lon="14.1739737"><ele>936.5999999999999</ele><time>2026-04-25T09:55:07.073Z</time></trkpt><trkpt lat="45.4009042" lon="14.174014"><ele>934.8</ele><time>2026-04-25T09:55:08.074Z</time></trkpt><trkpt lat="45.400824" lon="14.1740402"><ele>933.0</ele><time>2026-04-25T09:55:09.07Z</time></trkpt><trkpt lat="45.4007649" lon="14.1740853"><ele>933.0</ele><time>2026-04-25T09:55:10.075Z</time></trkpt><trkpt lat="45.4007165" lon="14.1741492"><ele>932.9999999999999</ele><time>2026-04-25T09:55:11.069Z</time></trkpt><trkpt lat="45.4006691" lon="14.1742246"><ele>933.0</ele><time>2026-04-25T09:55:12.082Z</time></trkpt><trkpt lat="45.4006154" lon="14.1742989"><ele>933.0</ele><time>2026-04-25T09:55:13.069Z</time></trkpt><trkpt lat="45.4005498" lon="14.1743547"><ele>932.9999999999999</ele><time>2026-04-25T09:55:14.074Z</time></trkpt><trkpt lat="45.4004792" lon="14.1743918"><ele>933.0</ele><time>2026-04-25T09:55:15.066Z</time></trkpt><trkpt lat="45.4004057" lon="14.1744024"><ele>933.0</ele><time>2026-04-25T09:55:16.069Z</time></trkpt><trkpt lat="45.400327" lon="14.1743777"><ele>931.5999999999999</ele><time>2026-04-25T09:55:17.071Z</time></trkpt><trkpt lat="45.4002443" lon="14.17434"><ele>930.1999999999999</ele><time>2026-04-25T09:55:18.07Z</time></trkpt><trkpt lat="45.4001558" lon="14.1743042"><ele>928.8</ele><time>2026-04-25T09:55:19.077Z</time></trkpt><trkpt lat="45.4000608" lon="14.1742747"><ele>927.4</ele><time>2026-04-25T09:55:20.076Z</time></trkpt><trkpt lat="45.3999619" lon="14.1742491"><ele>926.0</ele><time>2026-04-25T09:55:21.073Z</time></trkpt><trkpt lat="45.399864" lon="14.1742164"><ele>926.0</ele><time>2026-04-25T09:55:22.088Z</time></trkpt><trkpt lat="45.3997732" lon="14.1741896"><ele>925.9999999999999</ele><time>2026-04-25T09:55:23.075Z</time></trkpt><trkpt lat="45.3996903" lon="14.1741737"><ele>925.9999999999999</ele><time>2026-04-25T09:55:24.071Z</time></trkpt><trkpt lat="45.399602" lon="14.1742127"><ele>926.0</ele><time>2026-04-25T09:55:25.076Z</time></trkpt><trkpt lat="45.3995196" lon="14.1742868"><ele>926.0</ele><time>2026-04-25T09:55:26.061Z</time></trkpt><trkpt lat="45.3994317" lon="14.174352"><ele>923.8</ele><time>2026-04-25T09:55:27.068Z</time></trkpt><trkpt lat="45.3993427" lon="14.174422"><ele>921.5999999999999</ele><time>2026-04-25T09:55:28.083Z</time></trkpt><trkpt lat="45.399259" lon="14.1744808"><ele>919.4</ele><time>2026-04-25T09:55:29.073Z</time></trkpt><trkpt lat="45.3991715" lon="14.1745272"><ele>917.2</ele><time>2026-04-25T09:55:30.074Z</time></trkpt><trkpt lat="45.3990867" lon="14.1745723"><ele>915.0</ele><time>2026-04-25T09:55:31.082Z</time></trkpt><trkpt lat="45.3990051" lon="14.1746238"><ele>915.0</ele><time>2026-04-25T09:55:32.083Z</time></trkpt><trkpt lat="45.3989263" lon="14.1746936"><ele>915.0</ele><time>2026-04-25T09:55:33.078Z</time></trkpt><trkpt lat="45.3988514" lon="14.1747772"><ele>915.0</ele><time>2026-04-25T09:55:34.074Z</time></trkpt><trkpt lat="45.3987814" lon="14.1748659"><ele>915.0</ele><time>2026-04-25T09:55:35.077Z</time></trkpt><trkpt lat="45.3987095" lon="14.1749358"><ele>915.0</ele><time>2026-04-25T09:55:36.079Z</time></trkpt><trkpt lat="45.398641" lon="14.1749801"><ele>915.0</ele><time>2026-04-25T09:55:37.079Z</time></trkpt><trkpt lat="45.398551" lon="14.1750685"><ele>915.0</ele><time>2026-04-25T09:55:39.085Z</time></trkpt><trkpt lat="45.3985038" lon="14.1752209"><ele>915.0</ele><time>2026-04-25T09:55:41.07Z</time></trkpt><trkpt lat="45.3984913" lon="14.1753204"><ele>915.0</ele><time>2026-04-25T09:55:42.087Z</time></trkpt><trkpt lat="45.398487" lon="14.1754379"><ele>915.0</ele><time>2026-04-25T09:55:43.077Z</time></trkpt><trkpt lat="45.3984829" lon="14.1755656"><ele>915.0</ele><time>2026-04-25T09:55:44.071Z</time></trkpt><trkpt lat="45.3984863" lon="14.1757137"><ele>915.0</ele><time>2026-04-25T09:55:45.071Z</time></trkpt><trkpt lat="45.3984946" lon="14.1758642"><ele>915.0</ele><time>2026-04-25T09:55:46.074Z</time></trkpt><trkpt lat="45.3985207" lon="14.1760266"><ele>915.0</ele><time>2026-04-25T09:55:47.087Z</time></trkpt><trkpt lat="45.3985461" lon="14.1762031"><ele>915.0</ele><time>2026-04-25T09:55:48.078Z</time></trkpt><trkpt lat="45.3985726" lon="14.1763675"><ele>915.6</ele><time>2026-04-25T09:55:49.07Z</time></trkpt><trkpt lat="45.3985873" lon="14.1765275"><ele>916.2</ele><time>2026-04-25T09:55:50.072Z</time></trkpt><trkpt lat="45.3985907" lon="14.1766611"><ele>916.8</ele><time>2026-04-25T09:55:51.072Z</time></trkpt><trkpt lat="45.3985915" lon="14.1768007"><ele>917.4</ele><time>2026-04-25T09:55:52.095Z</time></trkpt><trkpt lat="45.3985757" lon="14.1769302"><ele>918.0</ele><time>2026-04-25T09:55:53.07Z</time></trkpt><trkpt lat="45.3985424" lon="14.1770568"><ele>918.0</ele><time>2026-04-25T09:55:54.072Z</time></trkpt><trkpt lat="45.3984889" lon="14.1771767"><ele>918.0</ele><time>2026-04-25T09:55:55.069Z</time></trkpt><trkpt lat="45.3984022" lon="14.1772983"><ele>918.0</ele><time>2026-04-25T09:55:56.08Z</time></trkpt><trkpt lat="45.3983046" lon="14.1774016"><ele>918.0</ele><time>2026-04-25T09:55:57.064Z</time></trkpt><trkpt lat="45.3982068" lon="14.1775109"><ele>917.75</ele><time>2026-04-25T09:55:58.077Z</time></trkpt><trkpt lat="45.3981153" lon="14.1776439"><ele>917.5</ele><time>2026-04-25T09:55:59.08Z</time></trkpt><trkpt lat="45.398046" lon="14.1777836"><ele>917.25</ele><time>2026-04-25T09:56:00.078Z</time></trkpt><trkpt lat="45.3980018" lon="14.1779372"><ele>917.0</ele><time>2026-04-25T09:56:01.083Z</time></trkpt><trkpt lat="45.3979675" lon="14.1781046"><ele>917.0</ele><time>2026-04-25T09:56:02.078Z</time></trkpt><trkpt lat="45.3979459" lon="14.1782929"><ele>917.0</ele><time>2026-04-25T09:56:03.074Z</time></trkpt><trkpt lat="45.3979303" lon="14.1784829"><ele>917.0</ele><time>2026-04-25T09:56:04.074Z</time></trkpt><trkpt lat="45.3979102" lon="14.1786614"><ele>917.0</ele><time>2026-04-25T09:56:05.081Z</time></trkpt><trkpt lat="45.3978855" lon="14.1788272"><ele>917.0</ele><time>2026-04-25T09:56:06.071Z</time></trkpt><trkpt lat="45.3978498" lon="14.1789695"><ele>917.0</ele><time>2026-04-25T09:56:07.072Z</time></trkpt><trkpt lat="45.3977871" lon="14.1790978"><ele>917.0</ele><time>2026-04-25T09:56:08.079Z</time></trkpt><trkpt lat="45.3977032" lon="14.179226"><ele>917.0</ele><time>2026-04-25T09:56:09.067Z</time></trkpt><trkpt lat="45.3976093" lon="14.1793466"><ele>917.0</ele><time>2026-04-25T09:56:10.072Z</time></trkpt><trkpt lat="45.3975095" lon="14.1794627"><ele>917.0</ele><time>2026-04-25T09:56:11.065Z</time></trkpt><trkpt lat="45.3974096" lon="14.1795758"><ele>917.0</ele><time>2026-04-25T09:56:12.075Z</time></trkpt><trkpt lat="45.3973223" lon="14.1797041"><ele>917.0</ele><time>2026-04-25T09:56:13.069Z</time></trkpt><trkpt lat="45.3972486" lon="14.1798281"><ele>919.25</ele><time>2026-04-25T09:56:14.071Z</time></trkpt><trkpt lat="45.397193" lon="14.1799551"><ele>921.5</ele><time>2026-04-25T09:56:15.075Z</time></trkpt><trkpt lat="45.3971419" lon="14.1800916"><ele>923.75</ele><time>2026-04-25T09:56:16.068Z</time></trkpt><trkpt lat="45.3970985" lon="14.1802507"><ele>926.0</ele><time>2026-04-25T09:56:17.078Z</time></trkpt><trkpt lat="45.3970598" lon="14.1804199"><ele>921.4</ele><time>2026-04-25T09:56:18.068Z</time></trkpt><trkpt lat="45.39702" lon="14.1805903"><ele>916.8</ele><time>2026-04-25T09:56:19.072Z</time></trkpt><trkpt lat="45.3969821" lon="14.1807498"><ele>912.1999999999999</ele><time>2026-04-25T09:56:20.068Z</time></trkpt><trkpt lat="45.3969523" lon="14.1808997"><ele>907.5999999999999</ele><time>2026-04-25T09:56:21.065Z</time></trkpt><trkpt lat="45.3969439" lon="14.181025"><ele>903.0</ele><time>2026-04-25T09:56:22.073Z</time></trkpt><trkpt lat="45.3969582" lon="14.181151"><ele>902.5999999999999</ele><time>2026-04-25T09:56:23.073Z</time></trkpt><trkpt lat="45.3969837" lon="14.1812787"><ele>902.1999999999999</ele><time>2026-04-25T09:56:24.062Z</time></trkpt><trkpt lat="45.397017" lon="14.1814095"><ele>901.8</ele><time>2026-04-25T09:56:25.065Z</time></trkpt><trkpt lat="45.3970558" lon="14.181546"><ele>901.4</ele><time>2026-04-25T09:56:26.065Z</time></trkpt><trkpt lat="45.397106" lon="14.1816985"><ele>901.0</ele><time>2026-04-25T09:56:27.074Z</time></trkpt><trkpt lat="45.397167" lon="14.1818616"><ele>902.25</ele><time>2026-04-25T09:56:28.073Z</time></trkpt><trkpt lat="45.397221" lon="14.1820198"><ele>903.5</ele><time>2026-04-25T09:56:29.064Z</time></trkpt><trkpt lat="45.3972738" lon="14.1821671"><ele>904.75</ele><time>2026-04-25T09:56:30.069Z</time></trkpt><trkpt lat="45.3973144" lon="14.182309"><ele>906.0</ele><time>2026-04-25T09:56:31.069Z</time></trkpt><trkpt lat="45.3973531" lon="14.1824584"><ele>906.0</ele><time>2026-04-25T09:56:32.071Z</time></trkpt><trkpt lat="45.3973985" lon="14.1826076"><ele>905.9999999999999</ele><time>2026-04-25T09:56:33.072Z</time></trkpt><trkpt lat="45.3974468" lon="14.1827413"><ele>905.9999999999999</ele><time>2026-04-25T09:56:34.072Z</time></trkpt><trkpt lat="45.3974976" lon="14.1828708"><ele>906.0</ele><time>2026-04-25T09:56:35.067Z</time></trkpt><trkpt lat="45.3975431" lon="14.182997"><ele>906.0</ele><time>2026-04-25T09:56:36.069Z</time></trkpt><trkpt lat="45.3975831" lon="14.183127"><ele>901.0</ele><time>2026-04-25T09:56:37.067Z</time></trkpt><trkpt lat="45.3976133" lon="14.1832715"><ele>896.0</ele><time>2026-04-25T09:56:38.074Z</time></trkpt><trkpt lat="45.3976465" lon="14.18342"><ele>891.0</ele><time>2026-04-25T09:56:39.067Z</time></trkpt><trkpt lat="45.3976721" lon="14.1835797"><ele>886.0</ele><time>2026-04-25T09:56:40.073Z</time></trkpt><trkpt lat="45.3976944" lon="14.1837518"><ele>886.0</ele><time>2026-04-25T09:56:41.068Z</time></trkpt><trkpt lat="45.397711" lon="14.183921"><ele>885.9999999999999</ele><time>2026-04-25T09:56:42.069Z</time></trkpt><trkpt lat="45.3977132" lon="14.1840829"><ele>885.9999999999999</ele><time>2026-04-25T09:56:43.076Z</time></trkpt><trkpt lat="45.3977161" lon="14.1842369"><ele>886.0</ele><time>2026-04-25T09:56:44.079Z</time></trkpt><trkpt lat="45.3977212" lon="14.1843824"><ele>886.0</ele><time>2026-04-25T09:56:45.065Z</time></trkpt><trkpt lat="45.3977146" lon="14.1845284"><ele>883.5</ele><time>2026-04-25T09:56:46.069Z</time></trkpt><trkpt lat="45.3976998" lon="14.1846776"><ele>881.0</ele><time>2026-04-25T09:56:47.068Z</time></trkpt><trkpt lat="45.3976845" lon="14.1848462"><ele>878.5</ele><time>2026-04-25T09:56:48.067Z</time></trkpt><trkpt lat="45.3976529" lon="14.1850231"><ele>876.0</ele><time>2026-04-25T09:56:49.071Z</time></trkpt><trkpt lat="45.3976155" lon="14.1852063"><ele>875.25</ele><time>2026-04-25T09:56:50.064Z</time></trkpt><trkpt lat="45.3975787" lon="14.1853885"><ele>874.5</ele><time>2026-04-25T09:56:51.081Z</time></trkpt><trkpt lat="45.3975395" lon="14.1855739"><ele>873.75</ele><time>2026-04-25T09:56:52.078Z</time></trkpt><trkpt lat="45.3975018" lon="14.185767"><ele>873.0</ele><time>2026-04-25T09:56:53.072Z</time></trkpt><trkpt lat="45.3974628" lon="14.1859558"><ele>872.5</ele><time>2026-04-25T09:56:54.065Z</time></trkpt><trkpt lat="45.3974236" lon="14.1861518"><ele>872.0</ele><time>2026-04-25T09:56:55.07Z</time></trkpt><trkpt lat="45.3973857" lon="14.1863479"><ele>871.5</ele><time>2026-04-25T09:56:56.072Z</time></trkpt><trkpt lat="45.3973468" lon="14.186541"><ele>871.0</ele><time>2026-04-25T09:56:57.071Z</time></trkpt><trkpt lat="45.3973142" lon="14.1867411"><ele>872.75</ele><time>2026-04-25T09:56:58.088Z</time></trkpt><trkpt lat="45.3972941" lon="14.1869397"><ele>874.5</ele><time>2026-04-25T09:56:59.072Z</time></trkpt><trkpt lat="45.3972887" lon="14.1871392"><ele>876.25</ele><time>2026-04-25T09:57:00.076Z</time></trkpt><trkpt lat="45.3972989" lon="14.1873427"><ele>878.0</ele><time>2026-04-25T09:57:01.07Z</time></trkpt><trkpt lat="45.3973085" lon="14.1875453"><ele>880.25</ele><time>2026-04-25T09:57:02.07Z</time></trkpt><trkpt lat="45.3973181" lon="14.1877546"><ele>882.5</ele><time>2026-04-25T09:57:03.076Z</time></trkpt><trkpt lat="45.397314" lon="14.1879509"><ele>884.75</ele><time>2026-04-25T09:57:04.066Z</time></trkpt><trkpt lat="45.397299" lon="14.1881296"><ele>887.0</ele><time>2026-04-25T09:57:05.077Z</time></trkpt><trkpt lat="45.397262" lon="14.1883067"><ele>888.2</ele><time>2026-04-25T09:57:06.069Z</time></trkpt><trkpt lat="45.3971997" lon="14.1884573"><ele>889.4000000000001</ele><time>2026-04-25T09:57:07.089Z</time></trkpt><trkpt lat="45.3971349" lon="14.1885874"><ele>890.5999999999999</ele><time>2026-04-25T09:57:08.066Z</time></trkpt><trkpt lat="45.3970589" lon="14.1887019"><ele>891.8</ele><time>2026-04-25T09:57:09.064Z</time></trkpt><trkpt lat="45.3969801" lon="14.1887933"><ele>893.0</ele><time>2026-04-25T09:57:10.068Z</time></trkpt><trkpt lat="45.3969062" lon="14.1888605"><ele>892.8333333333334</ele><time>2026-04-25T09:57:11.072Z</time></trkpt><trkpt lat="45.3968361" lon="14.1889149"><ele>892.6666666666667</ele><time>2026-04-25T09:57:12.073Z</time></trkpt><trkpt lat="45.396765" lon="14.1889587"><ele>892.5</ele><time>2026-04-25T09:57:13.071Z</time></trkpt><trkpt lat="45.3967019" lon="14.1889962"><ele>892.3333333333333</ele><time>2026-04-25T09:57:14.101Z</time></trkpt><trkpt lat="45.3966191" lon="14.1890485"><ele>892.1666666666666</ele><time>2026-04-25T09:57:16.075Z</time></trkpt><trkpt lat="45.3965883" lon="14.1891435"><ele>892.0</ele><time>2026-04-25T09:57:18.066Z</time></trkpt><trkpt lat="45.3965996" lon="14.189277"><ele>892.0</ele><time>2026-04-25T09:57:20.066Z</time></trkpt><trkpt lat="45.39659" lon="14.1894381"><ele>892.0</ele><time>2026-04-25T09:57:22.074Z</time></trkpt><trkpt lat="45.3965582" lon="14.1896107"><ele>892.0</ele><time>2026-04-25T09:57:24.078Z</time></trkpt><trkpt lat="45.3965416" lon="14.189701"><ele>892.0</ele><time>2026-04-25T09:57:25.073Z</time></trkpt><trkpt lat="45.3965273" lon="14.1898142"><ele>892.0</ele><time>2026-04-25T09:57:26.079Z</time></trkpt><trkpt lat="45.3965075" lon="14.189939"><ele>893.1666666666666</ele><time>2026-04-25T09:57:27.072Z</time></trkpt><trkpt lat="45.396485" lon="14.190056"><ele>894.3333333333333</ele><time>2026-04-25T09:57:28.078Z</time></trkpt><trkpt lat="45.3964583" lon="14.1901721"><ele>895.5</ele><time>2026-04-25T09:57:29.073Z</time></trkpt><trkpt lat="45.3964298" lon="14.1902767"><ele>896.6666666666667</ele><time>2026-04-25T09:57:30.08Z</time></trkpt><trkpt lat="45.3964051" lon="14.190387"><ele>897.8333333333334</ele><time>2026-04-25T09:57:31.077Z</time></trkpt><trkpt lat="45.3963812" lon="14.1904946"><ele>899.0</ele><time>2026-04-25T09:57:32.078Z</time></trkpt><trkpt lat="45.3963621" lon="14.1905932"><ele>900.2</ele><time>2026-04-25T09:57:33.073Z</time></trkpt><trkpt lat="45.3963455" lon="14.1906956"><ele>901.4000000000001</ele><time>2026-04-25T09:57:34.076Z</time></trkpt><trkpt lat="45.3963176" lon="14.1908618"><ele>902.6</ele><time>2026-04-25T09:57:36.087Z</time></trkpt><trkpt lat="45.3962844" lon="14.191032"><ele>903.8</ele><time>2026-04-25T09:57:38.075Z</time></trkpt><trkpt lat="45.3962624" lon="14.191117"><ele>905.0</ele><time>2026-04-25T09:57:39.076Z</time></trkpt><trkpt lat="45.3962136" lon="14.1912894"><ele>911.0</ele><time>2026-04-25T09:57:41.077Z</time></trkpt><trkpt lat="45.3961907" lon="14.1913831"><ele>916.9999999999999</ele><time>2026-04-25T09:57:42.076Z</time></trkpt><trkpt lat="45.3961664" lon="14.1914717"><ele>923.0</ele><time>2026-04-25T09:57:43.095Z</time></trkpt><trkpt lat="45.39614" lon="14.1915599"><ele>929.0</ele><time>2026-04-25T09:57:44.073Z</time></trkpt><trkpt lat="45.3961162" lon="14.1916463"><ele>934.9999999999999</ele><time>2026-04-25T09:57:45.069Z</time></trkpt><trkpt lat="45.3960884" lon="14.1917299"><ele>941.0</ele><time>2026-04-25T09:57:46.067Z</time></trkpt><trkpt lat="45.3960548" lon="14.1918218"><ele>947.0</ele><time>2026-04-25T09:57:47.077Z</time></trkpt><trkpt lat="45.3960222" lon="14.1919194"><ele>947.1666666666667</ele><time>2026-04-25T09:57:48.069Z</time></trkpt><trkpt lat="45.3959833" lon="14.1920258"><ele>947.3333333333334</ele><time>2026-04-25T09:57:49.079Z</time></trkpt><trkpt lat="45.3959377" lon="14.1921359"><ele>947.5</ele><time>2026-04-25T09:57:50.069Z</time></trkpt><trkpt lat="45.3958967" lon="14.1922371"><ele>947.6666666666667</ele><time>2026-04-25T09:57:51.066Z</time></trkpt><trkpt lat="45.3958587" lon="14.1923303"><ele>947.8333333333334</ele><time>2026-04-25T09:57:52.08Z</time></trkpt><trkpt lat="45.3958079" lon="14.1924401"><ele>948.0</ele><time>2026-04-25T09:57:54.073Z</time></trkpt><trkpt lat="45.3957456" lon="14.1923722"><ele>948.2</ele><time>2026-04-25T09:58:03.064Z</time></trkpt><trkpt lat="45.395732" lon="14.192261"><ele>948.4</ele><time>2026-04-25T09:58:09.078Z</time></trkpt><trkpt lat="45.3957229" lon="14.192144"><ele>948.6000000000001</ele><time>2026-04-25T09:58:11.074Z</time></trkpt><trkpt lat="45.395712" lon="14.1919873"><ele>948.8000000000001</ele><time>2026-04-25T09:58:13.082Z</time></trkpt><trkpt lat="45.3956902" lon="14.1918334"><ele>949.0</ele><time>2026-04-25T09:58:15.076Z</time></trkpt><trkpt lat="45.3956429" lon="14.1917526"><ele>948.9999999999999</ele><time>2026-04-25T09:58:16.073Z</time></trkpt><trkpt lat="45.3955829" lon="14.1916891"><ele>949.0</ele><time>2026-04-25T09:58:17.061Z</time></trkpt><trkpt lat="45.3955191" lon="14.1916393"><ele>949.0</ele><time>2026-04-25T09:58:18.068Z</time></trkpt><trkpt lat="45.3954387" lon="14.1915931"><ele>949.0</ele><time>2026-04-25T09:58:19.06Z</time></trkpt><trkpt lat="45.3953565" lon="14.1915556"><ele>948.9999999999999</ele><time>2026-04-25T09:58:20.067Z</time></trkpt><trkpt lat="45.395276" lon="14.1915126"><ele>949.0</ele><time>2026-04-25T09:58:21.069Z</time></trkpt><trkpt lat="45.3952043" lon="14.1914706"><ele>952.4000000000001</ele><time>2026-04-25T09:58:22.08Z</time></trkpt><trkpt lat="45.3951398" lon="14.1914561"><ele>955.8000000000001</ele><time>2026-04-25T09:58:23.078Z</time></trkpt><trkpt lat="45.3950412" lon="14.1915011"><ele>959.1999999999999</ele><time>2026-04-25T09:58:25.062Z</time></trkpt><trkpt lat="45.3949886" lon="14.1915801"><ele>962.5999999999999</ele><time>2026-04-25T09:58:27.077Z</time></trkpt><trkpt lat="45.394973" lon="14.1917627"><ele>966.0</ele><time>2026-04-25T09:58:29.069Z</time></trkpt><trkpt lat="45.3949754" lon="14.1918732"><ele>967.6666666666666</ele><time>2026-04-25T09:58:30.064Z</time></trkpt><trkpt lat="45.3949769" lon="14.191986"><ele>969.3333333333333</ele><time>2026-04-25T09:58:31.081Z</time></trkpt><trkpt lat="45.3949842" lon="14.1921075"><ele>971.0</ele><time>2026-04-25T09:58:32.071Z</time></trkpt><trkpt lat="45.39499" lon="14.1922275"><ele>972.6666666666666</ele><time>2026-04-25T09:58:33.065Z</time></trkpt><trkpt lat="45.3949903" lon="14.1923588"><ele>974.3333333333333</ele><time>2026-04-25T09:58:34.068Z</time></trkpt><trkpt lat="45.3949922" lon="14.1924963"><ele>976.0</ele><time>2026-04-25T09:58:35.074Z</time></trkpt><trkpt lat="45.3949951" lon="14.1926327"><ele>978.1666666666666</ele><time>2026-04-25T09:58:36.079Z</time></trkpt><trkpt lat="45.395008" lon="14.1927736"><ele>980.3333333333333</ele><time>2026-04-25T09:58:37.074Z</time></trkpt><trkpt lat="45.395031" lon="14.1929212"><ele>982.5</ele><time>2026-04-25T09:58:38.081Z</time></trkpt><trkpt lat="45.3950502" lon="14.1930384"><ele>984.6666666666667</ele><time>2026-04-25T09:58:39.077Z</time></trkpt><trkpt lat="45.3950641" lon="14.193141"><ele>986.8333333333334</ele><time>2026-04-25T09:58:40.084Z</time></trkpt><trkpt lat="45.3950786" lon="14.1932545"><ele>989.0</ele><time>2026-04-25T09:58:41.079Z</time></trkpt><trkpt lat="45.3950869" lon="14.1933662"><ele>989.5000000000001</ele><time>2026-04-25T09:58:42.092Z</time></trkpt><trkpt lat="45.3950724" lon="14.1934663"><ele>990.0</ele><time>2026-04-25T09:58:43.084Z</time></trkpt><trkpt lat="45.3950204" lon="14.1935804"><ele>990.5</ele><time>2026-04-25T09:58:44.077Z</time></trkpt><trkpt lat="45.3949702" lon="14.1936789"><ele>991.0</ele><time>2026-04-25T09:58:45.063Z</time></trkpt><trkpt lat="45.3949225" lon="14.1937594"><ele>991.5000000000001</ele><time>2026-04-25T09:58:46.084Z</time></trkpt><trkpt lat="45.3948826" lon="14.1938368"><ele>992.0</ele><time>2026-04-25T09:58:47.077Z</time></trkpt><trkpt lat="45.3948427" lon="14.193922"><ele>992.3333333333334</ele><time>2026-04-25T09:58:48.089Z</time></trkpt><trkpt lat="45.3948058" lon="14.1940083"><ele>992.6666666666667</ele><time>2026-04-25T09:58:49.073Z</time></trkpt><trkpt lat="45.3947738" lon="14.1941124"><ele>993.0</ele><time>2026-04-25T09:58:50.072Z</time></trkpt><trkpt lat="45.3947441" lon="14.1941942"><ele>993.3333333333333</ele><time>2026-04-25T09:58:53.07Z</time></trkpt><trkpt lat="45.3947296" lon="14.194283"><ele>993.6666666666666</ele><time>2026-04-25T09:59:03.069Z</time></trkpt><trkpt lat="45.3946957" lon="14.1944333"><ele>994.0</ele><time>2026-04-25T09:59:05.071Z</time></trkpt><trkpt lat="45.39467" lon="14.1946131"><ele>994.0</ele><time>2026-04-25T09:59:07.085Z</time></trkpt><trkpt lat="45.3946715" lon="14.1947233"><ele>994.0</ele><time>2026-04-25T09:59:08.07Z</time></trkpt><trkpt lat="45.3946744" lon="14.1948162"><ele>994.0</ele><time>2026-04-25T09:59:09.078Z</time></trkpt><trkpt lat="45.3946799" lon="14.1949087"><ele>994.0</ele><time>2026-04-25T09:59:10.068Z</time></trkpt><trkpt lat="45.3946828" lon="14.1949989"><ele>994.0</ele><time>2026-04-25T09:59:11.074Z</time></trkpt><trkpt lat="45.3946773" lon="14.1950901"><ele>994.0</ele><time>2026-04-25T09:59:12.075Z</time></trkpt><trkpt lat="45.3946663" lon="14.1951845"><ele>994.0</ele><time>2026-04-25T09:59:13.074Z</time></trkpt><trkpt lat="45.3946486" lon="14.1952812"><ele>994.4285714285714</ele><time>2026-04-25T09:59:14.082Z</time></trkpt><trkpt lat="45.394627" lon="14.1953764"><ele>994.8571428571429</ele><time>2026-04-25T09:59:15.07Z</time></trkpt><trkpt lat="45.3946304" lon="14.1954768"><ele>995.2857142857142</ele><time>2026-04-25T09:59:16.077Z</time></trkpt><trkpt lat="45.3946627" lon="14.1955674"><ele>995.7142857142857</ele><time>2026-04-25T09:59:17.061Z</time></trkpt><trkpt lat="45.3946995" lon="14.1956573"><ele>996.1428571428571</ele><time>2026-04-25T09:59:18.065Z</time></trkpt><trkpt lat="45.3947403" lon="14.1957485"><ele>996.5714285714284</ele><time>2026-04-25T09:59:19.089Z</time></trkpt><trkpt lat="45.3947719" lon="14.195865"><ele>996.9999999999999</ele><time>2026-04-25T09:59:20.075Z</time></trkpt><trkpt lat="45.3947987" lon="14.1959991"><ele>997.5714285714284</ele><time>2026-04-25T09:59:21.088Z</time></trkpt><trkpt lat="45.3948267" lon="14.1961222"><ele>998.1428571428571</ele><time>2026-04-25T09:59:22.072Z</time></trkpt><trkpt lat="45.394855" lon="14.1962276"><ele>998.7142857142857</ele><time>2026-04-25T09:59:23.075Z</time></trkpt><trkpt lat="45.3948873" lon="14.1963157"><ele>999.2857142857142</ele><time>2026-04-25T09:59:24.087Z</time></trkpt><trkpt lat="45.3949123" lon="14.1964042"><ele>999.8571428571429</ele><time>2026-04-25T09:59:25.082Z</time></trkpt><trkpt lat="45.3949327" lon="14.1964907"><ele>1000.4285714285714</ele><time>2026-04-25T09:59:26.083Z</time></trkpt><trkpt lat="45.3949572" lon="14.1965944"><ele>1001.0</ele><time>2026-04-25T09:59:27.071Z</time></trkpt><trkpt lat="45.3949777" lon="14.1966923"><ele>1001.8333333333334</ele><time>2026-04-25T09:59:28.082Z</time></trkpt><trkpt lat="45.3950012" lon="14.1967978"><ele>1002.6666666666667</ele><time>2026-04-25T09:59:29.082Z</time></trkpt><trkpt lat="45.3950333" lon="14.1969096"><ele>1003.5</ele><time>2026-04-25T09:59:30.079Z</time></trkpt><trkpt lat="45.3950687" lon="14.1970082"><ele>1004.3333333333333</ele><time>2026-04-25T09:59:31.075Z</time></trkpt><trkpt lat="45.3951151" lon="14.1971108"><ele>1005.1666666666666</ele><time>2026-04-25T09:59:32.087Z</time></trkpt><trkpt lat="45.3951854" lon="14.1971851"><ele>1006.0</ele><time>2026-04-25T09:59:33.072Z</time></trkpt><trkpt lat="45.3952549" lon="14.1972514"><ele>1005.9999999999999</ele><time>2026-04-25T09:59:34.07Z</time></trkpt><trkpt lat="45.3953252" lon="14.1973145"><ele>1006.0</ele><time>2026-04-25T09:59:35.093Z</time></trkpt><trkpt lat="45.3953818" lon="14.1973905"><ele>1006.0</ele><time>2026-04-25T09:59:36.076Z</time></trkpt><trkpt lat="45.3954364" lon="14.1974831"><ele>1006.0</ele><time>2026-04-25T09:59:37.095Z</time></trkpt><trkpt lat="45.3954892" lon="14.1975807"><ele>1005.9999999999999</ele><time>2026-04-25T09:59:38.085Z</time></trkpt><trkpt lat="45.395555" lon="14.1976692"><ele>1006.0</ele><time>2026-04-25T09:59:39.081Z</time></trkpt><trkpt lat="45.3956195" lon="14.1977615"><ele>1004.3333333333333</ele><time>2026-04-25T09:59:40.08Z</time></trkpt><trkpt lat="45.3956799" lon="14.1978564"><ele>1002.6666666666666</ele><time>2026-04-25T09:59:41.079Z</time></trkpt><trkpt lat="45.3957384" lon="14.1979577"><ele>1001.0</ele><time>2026-04-25T09:59:42.076Z</time></trkpt><trkpt lat="45.3957949" lon="14.1980625"><ele>999.3333333333333</ele><time>2026-04-25T09:59:43.083Z</time></trkpt><trkpt lat="45.3958473" lon="14.1981531"><ele>997.6666666666666</ele><time>2026-04-25T09:59:44.09Z</time></trkpt><trkpt lat="45.3959006" lon="14.1982421"><ele>996.0</ele><time>2026-04-25T09:59:45.078Z</time></trkpt><trkpt lat="45.3959487" lon="14.1983396"><ele>996.0</ele><time>2026-04-25T09:59:46.086Z</time></trkpt><trkpt lat="45.3959845" lon="14.198431"><ele>996.0</ele><time>2026-04-25T09:59:47.081Z</time></trkpt><trkpt lat="45.3960178" lon="14.1985198"><ele>996.0</ele><time>2026-04-25T09:59:48.082Z</time></trkpt><trkpt lat="45.3960576" lon="14.1986089"><ele>996.0</ele><time>2026-04-25T09:59:49.102Z</time></trkpt><trkpt lat="45.3961031" lon="14.1987092"><ele>996.0</ele><time>2026-04-25T09:59:50.079Z</time></trkpt><trkpt lat="45.3961564" lon="14.1988105"><ele>996.0</ele><time>2026-04-25T09:59:51.078Z</time></trkpt><trkpt lat="45.3962136" lon="14.1989168"><ele>995.6666666666666</ele><time>2026-04-25T09:59:52.081Z</time></trkpt><trkpt lat="45.3962712" lon="14.1990208"><ele>995.3333333333333</ele><time>2026-04-25T09:59:53.076Z</time></trkpt><trkpt lat="45.3963288" lon="14.199122"><ele>995.0</ele><time>2026-04-25T09:59:54.078Z</time></trkpt><trkpt lat="45.3963862" lon="14.1992268"><ele>994.6666666666666</ele><time>2026-04-25T09:59:55.08Z</time></trkpt><trkpt lat="45.3964214" lon="14.1993171"><ele>994.3333333333333</ele><time>2026-04-25T09:59:56.081Z</time></trkpt><trkpt lat="45.3964152" lon="14.1994356"><ele>994.0</ele><time>2026-04-25T09:59:57.08Z</time></trkpt><trkpt lat="45.3963714" lon="14.1995669"><ele>993.9999999999999</ele><time>2026-04-25T09:59:58.084Z</time></trkpt><trkpt lat="45.3963194" lon="14.1996942"><ele>994.0</ele><time>2026-04-25T09:59:59.061Z</time></trkpt><trkpt lat="45.3962644" lon="14.1998167"><ele>994.0</ele><time>2026-04-25T10:00:00.067Z</time></trkpt><trkpt lat="45.3962204" lon="14.1999202"><ele>994.0</ele><time>2026-04-25T10:00:01.076Z</time></trkpt><trkpt lat="45.396188" lon="14.2000193"><ele>993.9999999999999</ele><time>2026-04-25T10:00:02.077Z</time></trkpt><trkpt lat="45.3961577" lon="14.200103"><ele>994.0</ele><time>2026-04-25T10:00:03.078Z</time></trkpt><trkpt lat="45.3961193" lon="14.2001852"><ele>995.6</ele><time>2026-04-25T10:00:04.093Z</time></trkpt><trkpt lat="45.3960603" lon="14.2002686"><ele>997.2</ele><time>2026-04-25T10:00:05.083Z</time></trkpt><trkpt lat="45.3959895" lon="14.2003512"><ele>998.8000000000001</ele><time>2026-04-25T10:00:06.08Z</time></trkpt><trkpt lat="45.3959207" lon="14.2004446"><ele>1000.4000000000001</ele><time>2026-04-25T10:00:07.084Z</time></trkpt><trkpt lat="45.395849" lon="14.200532"><ele>1002.0</ele><time>2026-04-25T10:00:08.084Z</time></trkpt><trkpt lat="45.395768" lon="14.2005995"><ele>1003.2</ele><time>2026-04-25T10:00:09.08Z</time></trkpt><trkpt lat="45.3956813" lon="14.2006705"><ele>1004.4000000000001</ele><time>2026-04-25T10:00:10.079Z</time></trkpt><trkpt lat="45.3955974" lon="14.2007682"><ele>1005.5999999999999</ele><time>2026-04-25T10:00:11.086Z</time></trkpt><trkpt lat="45.3955372" lon="14.200882"><ele>1006.8</ele><time>2026-04-25T10:00:12.081Z</time></trkpt><trkpt lat="45.3955053" lon="14.2009794"><ele>1008.0</ele><time>2026-04-25T10:00:13.074Z</time></trkpt><trkpt lat="45.3954978" lon="14.2010729"><ele>1008.0</ele><time>2026-04-25T10:00:14.068Z</time></trkpt><trkpt lat="45.3955138" lon="14.2011721"><ele>1008.0</ele><time>2026-04-25T10:00:15.078Z</time></trkpt><trkpt lat="45.3955172" lon="14.2012652"><ele>1008.0</ele><time>2026-04-25T10:00:16.074Z</time></trkpt><trkpt lat="45.395483" lon="14.2013704"><ele>1008.0</ele><time>2026-04-25T10:00:17.074Z</time></trkpt><trkpt lat="45.3954083" lon="14.2014524"><ele>1008.0</ele><time>2026-04-25T10:00:18.084Z</time></trkpt><trkpt lat="45.3953228" lon="14.2015289"><ele>1008.0</ele><time>2026-04-25T10:00:19.067Z</time></trkpt><trkpt lat="45.395238" lon="14.2015994"><ele>1010.1666666666666</ele><time>2026-04-25T10:00:20.068Z</time></trkpt><trkpt lat="45.395163" lon="14.2016552"><ele>1012.3333333333333</ele><time>2026-04-25T10:00:21.074Z</time></trkpt><trkpt lat="45.3951012" lon="14.2016942"><ele>1014.5</ele><time>2026-04-25T10:00:24.076Z</time></trkpt><trkpt lat="45.3951432" lon="14.2018541"><ele>1016.6666666666666</ele><time>2026-04-25T10:00:34.072Z</time></trkpt><trkpt lat="45.3951807" lon="14.2019477"><ele>1018.8333333333333</ele><time>2026-04-25T10:00:35.083Z</time></trkpt><trkpt lat="45.3952282" lon="14.2020564"><ele>1021.0</ele><time>2026-04-25T10:00:36.082Z</time></trkpt><trkpt lat="45.3952838" lon="14.202165"><ele>1021.0</ele><time>2026-04-25T10:00:37.075Z</time></trkpt><trkpt lat="45.3953522" lon="14.202263"><ele>1020.9999999999999</ele><time>2026-04-25T10:00:38.091Z</time></trkpt><trkpt lat="45.3954301" lon="14.2023566"><ele>1020.9999999999999</ele><time>2026-04-25T10:00:39.079Z</time></trkpt><trkpt lat="45.3955247" lon="14.202441"><ele>1021.0</ele><time>2026-04-25T10:00:40.085Z</time></trkpt><trkpt lat="45.395623" lon="14.2025178"><ele>1021.0</ele><time>2026-04-25T10:00:41.064Z</time></trkpt><trkpt lat="45.3957211" lon="14.2025723"><ele>1022.8</ele><time>2026-04-25T10:00:42.075Z</time></trkpt><trkpt lat="45.3958088" lon="14.2026035"><ele>1024.6</ele><time>2026-04-25T10:00:43.08Z</time></trkpt><trkpt lat="45.3958974" lon="14.2026428"><ele>1026.4</ele><time>2026-04-25T10:00:44.076Z</time></trkpt><trkpt lat="45.3959544" lon="14.2026913"><ele>1028.2</ele><time>2026-04-25T10:00:45.075Z</time></trkpt><trkpt lat="45.395965" lon="14.2028596"><ele>1030.0</ele><time>2026-04-25T10:00:47.055Z</time></trkpt><trkpt lat="45.3959265" lon="14.2029877"><ele>1030.0</ele><time>2026-04-25T10:00:48.058Z</time></trkpt><trkpt lat="45.3958458" lon="14.2031317"><ele>1030.0</ele><time>2026-04-25T10:00:49.06Z</time></trkpt><trkpt lat="45.3957591" lon="14.2032432"><ele>1030.0</ele><time>2026-04-25T10:00:50.052Z</time></trkpt><trkpt lat="45.3956692" lon="14.2033294"><ele>1030.0</ele><time>2026-04-25T10:00:51.062Z</time></trkpt><trkpt lat="45.3955872" lon="14.2033928"><ele>1030.0</ele><time>2026-04-25T10:00:52.057Z</time></trkpt><trkpt lat="45.3955595" lon="14.2035002"><ele>1031.6</ele><time>2026-04-25T10:00:54.07Z</time></trkpt><trkpt lat="45.3956365" lon="14.2036157"><ele>1033.2</ele><time>2026-04-25T10:00:56.064Z</time></trkpt><trkpt lat="45.395709" lon="14.2036548"><ele>1034.8</ele><time>2026-04-25T10:00:57.065Z</time></trkpt><trkpt lat="45.3957992" lon="14.203672"><ele>1036.4</ele><time>2026-04-25T10:00:58.06Z</time></trkpt><trkpt lat="45.3959085" lon="14.2036603"><ele>1038.0</ele><time>2026-04-25T10:00:59.061Z</time></trkpt><trkpt lat="45.3960247" lon="14.2036225"><ele>1038.0</ele><time>2026-04-25T10:01:00.069Z</time></trkpt><trkpt lat="45.3961358" lon="14.2035801"><ele>1038.0</ele><time>2026-04-25T10:01:01.064Z</time></trkpt><trkpt lat="45.3962282" lon="14.203545"><ele>1038.0</ele><time>2026-04-25T10:01:02.085Z</time></trkpt><trkpt lat="45.3963206" lon="14.2035968"><ele>1038.0</ele><time>2026-04-25T10:01:04.074Z</time></trkpt><trkpt lat="45.3963164" lon="14.2037119"><ele>1038.0</ele><time>2026-04-25T10:01:06.068Z</time></trkpt><trkpt lat="45.3962593" lon="14.2038144"><ele>1038.0</ele><time>2026-04-25T10:01:07.063Z</time></trkpt><trkpt lat="45.3961792" lon="14.2039211"><ele>1038.0</ele><time>2026-04-25T10:01:08.061Z</time></trkpt><trkpt lat="45.3961048" lon="14.2040515"><ele>1038.0</ele><time>2026-04-25T10:01:09.065Z</time></trkpt><trkpt lat="45.396031" lon="14.2042128"><ele>1038.0</ele><time>2026-04-25T10:01:10.071Z</time></trkpt><trkpt lat="45.3959554" lon="14.204382"><ele>1042.0</ele><time>2026-04-25T10:01:11.064Z</time></trkpt><trkpt lat="45.3958819" lon="14.2045562"><ele>1046.0</ele><time>2026-04-25T10:01:12.068Z</time></trkpt><trkpt lat="45.3958068" lon="14.2047352"><ele>1050.0</ele><time>2026-04-25T10:01:13.071Z</time></trkpt><trkpt lat="45.3957304" lon="14.2048986"><ele>1054.0</ele><time>2026-04-25T10:01:14.067Z</time></trkpt><trkpt lat="45.3956501" lon="14.2050587"><ele>1054.75</ele><time>2026-04-25T10:01:15.061Z</time></trkpt><trkpt lat="45.395564" lon="14.2052133"><ele>1055.5</ele><time>2026-04-25T10:01:16.059Z</time></trkpt><trkpt lat="45.3954796" lon="14.205375"><ele>1056.25</ele><time>2026-04-25T10:01:17.065Z</time></trkpt><trkpt lat="45.3953939" lon="14.2055402"><ele>1057.0</ele><time>2026-04-25T10:01:18.068Z</time></trkpt><trkpt lat="45.3953027" lon="14.2056925"><ele>1061.5</ele><time>2026-04-25T10:01:19.062Z</time></trkpt><trkpt lat="45.3952076" lon="14.2058264"><ele>1066.0</ele><time>2026-04-25T10:01:20.059Z</time></trkpt><trkpt lat="45.3951059" lon="14.2059445"><ele>1070.5</ele><time>2026-04-25T10:01:21.059Z</time></trkpt><trkpt lat="45.3949973" lon="14.2060438"><ele>1075.0</ele><time>2026-04-25T10:01:22.056Z</time></trkpt><trkpt lat="45.3948776" lon="14.2061299"><ele>1075.0</ele><time>2026-04-25T10:01:23.075Z</time></trkpt><trkpt lat="45.3947687" lon="14.2062052"><ele>1075.0</ele><time>2026-04-25T10:01:24.066Z</time></trkpt><trkpt lat="45.3946795" lon="14.2062949"><ele>1075.0</ele><time>2026-04-25T10:01:25.059Z</time></trkpt><trkpt lat="45.394612" lon="14.2064042"><ele>1075.0</ele><time>2026-04-25T10:01:26.069Z</time></trkpt><trkpt lat="45.3945531" lon="14.2065257"><ele>1075.0</ele><time>2026-04-25T10:01:27.064Z</time></trkpt><trkpt lat="45.394485" lon="14.2066469"><ele>1076.4</ele><time>2026-04-25T10:01:28.065Z</time></trkpt><trkpt lat="45.3944056" lon="14.2067676"><ele>1077.8</ele><time>2026-04-25T10:01:29.066Z</time></trkpt><trkpt lat="45.3943393" lon="14.2068897"><ele>1079.2</ele><time>2026-04-25T10:01:30.066Z</time></trkpt><trkpt lat="45.3942838" lon="14.2070054"><ele>1080.6</ele><time>2026-04-25T10:01:31.068Z</time></trkpt><trkpt lat="45.3942242" lon="14.2071262"><ele>1082.0</ele><time>2026-04-25T10:01:32.074Z</time></trkpt><trkpt lat="45.3941786" lon="14.2072545"><ele>1083.4</ele><time>2026-04-25T10:01:33.065Z</time></trkpt><trkpt lat="45.394146" lon="14.2073769"><ele>1084.8000000000002</ele><time>2026-04-25T10:01:34.071Z</time></trkpt><trkpt lat="45.394133" lon="14.2074718"><ele>1086.2</ele><time>2026-04-25T10:01:35.067Z</time></trkpt><trkpt lat="45.3941152" lon="14.2075949"><ele>1087.6000000000001</ele><time>2026-04-25T10:01:52.084Z</time></trkpt><trkpt lat="45.3940972" lon="14.2077837"><ele>1089.0</ele><time>2026-04-25T10:01:54.077Z</time></trkpt><trkpt lat="45.3940773" lon="14.2079331"><ele>1089.0</ele><time>2026-04-25T10:01:55.066Z</time></trkpt><trkpt lat="45.394051" lon="14.2080844"><ele>1089.0</ele><time>2026-04-25T10:01:56.072Z</time></trkpt><trkpt lat="45.3940249" lon="14.2082409"><ele>1089.0</ele><time>2026-04-25T10:01:57.067Z</time></trkpt><trkpt lat="45.3939966" lon="14.2083971"><ele>1089.0</ele><time>2026-04-25T10:01:58.064Z</time></trkpt><trkpt lat="45.3939745" lon="14.2085557"><ele>1089.0</ele><time>2026-04-25T10:01:59.068Z</time></trkpt><trkpt lat="45.3939469" lon="14.2086933"><ele>1090.75</ele><time>2026-04-25T10:02:00.067Z</time></trkpt><trkpt lat="45.3939107" lon="14.2088251"><ele>1092.5</ele><time>2026-04-25T10:02:01.09Z</time></trkpt><trkpt lat="45.3938609" lon="14.2089642"><ele>1094.25</ele><time>2026-04-25T10:02:02.066Z</time></trkpt><trkpt lat="45.3937873" lon="14.209126"><ele>1096.0</ele><time>2026-04-25T10:02:03.073Z</time></trkpt><trkpt lat="45.3937119" lon="14.2092799"><ele>1097.5</ele><time>2026-04-25T10:02:04.075Z</time></trkpt><trkpt lat="45.3936449" lon="14.2094204"><ele>1099.0</ele><time>2026-04-25T10:02:05.073Z</time></trkpt><trkpt lat="45.3935702" lon="14.2095417"><ele>1100.5</ele><time>2026-04-25T10:02:06.066Z</time></trkpt><trkpt lat="45.3934899" lon="14.2096494"><ele>1102.0</ele><time>2026-04-25T10:02:07.069Z</time></trkpt><trkpt lat="45.3933911" lon="14.2097434"><ele>1102.0</ele><time>2026-04-25T10:02:08.067Z</time></trkpt><trkpt lat="45.3932773" lon="14.2097991"><ele>1102.0</ele><time>2026-04-25T10:02:09.086Z</time></trkpt><trkpt lat="45.3931697" lon="14.2098357"><ele>1102.0</ele><time>2026-04-25T10:02:10.056Z</time></trkpt><trkpt lat="45.3930846" lon="14.2098952"><ele>1102.0</ele><time>2026-04-25T10:02:11.063Z</time></trkpt><trkpt lat="45.3930209" lon="14.2099803"><ele>1102.0</ele><time>2026-04-25T10:02:12.072Z</time></trkpt><trkpt lat="45.3929801" lon="14.2100972"><ele>1102.2</ele><time>2026-04-25T10:02:13.062Z</time></trkpt><trkpt lat="45.392952" lon="14.210233"><ele>1102.4</ele><time>2026-04-25T10:02:14.065Z</time></trkpt><trkpt lat="45.392938" lon="14.210371"><ele>1102.6</ele><time>2026-04-25T10:02:15.066Z</time></trkpt><trkpt lat="45.3929427" lon="14.210519"><ele>1102.8</ele><time>2026-04-25T10:02:16.074Z</time></trkpt><trkpt lat="45.3929524" lon="14.2106726"><ele>1103.0</ele><time>2026-04-25T10:02:17.067Z</time></trkpt><trkpt lat="45.3929562" lon="14.2108205"><ele>1102.0</ele><time>2026-04-25T10:02:18.078Z</time></trkpt><trkpt lat="45.3929394" lon="14.2109771"><ele>1101.0</ele><time>2026-04-25T10:02:19.076Z</time></trkpt><trkpt lat="45.3928993" lon="14.2111194"><ele>1100.0</ele><time>2026-04-25T10:02:20.067Z</time></trkpt><trkpt lat="45.3928402" lon="14.2112733"><ele>1099.0</ele><time>2026-04-25T10:02:21.068Z</time></trkpt><trkpt lat="45.3927487" lon="14.2114271"><ele>1101.0</ele><time>2026-04-25T10:02:22.062Z</time></trkpt><trkpt lat="45.3926579" lon="14.2115756"><ele>1103.0</ele><time>2026-04-25T10:02:23.062Z</time></trkpt><trkpt lat="45.3925663" lon="14.2117133"><ele>1105.0</ele><time>2026-04-25T10:02:24.068Z</time></trkpt><trkpt lat="45.3924878" lon="14.2118568"><ele>1107.0</ele><time>2026-04-25T10:02:25.076Z</time></trkpt><trkpt lat="45.3924271" lon="14.212006"><ele>1107.0</ele><time>2026-04-25T10:02:26.067Z</time></trkpt><trkpt lat="45.3923667" lon="14.2121601"><ele>1107.0</ele><time>2026-04-25T10:02:27.073Z</time></trkpt><trkpt lat="45.3923083" lon="14.2123164"><ele>1107.0</ele><time>2026-04-25T10:02:28.07Z</time></trkpt><trkpt lat="45.3922624" lon="14.2124614"><ele>1107.0</ele><time>2026-04-25T10:02:29.066Z</time></trkpt><trkpt lat="45.392234" lon="14.2125704"><ele>1107.0</ele><time>2026-04-25T10:02:30.072Z</time></trkpt><trkpt lat="45.3922586" lon="14.2127435"><ele>1107.8</ele><time>2026-04-25T10:02:32.081Z</time></trkpt><trkpt lat="45.3923138" lon="14.2128227"><ele>1108.6</ele><time>2026-04-25T10:02:33.058Z</time></trkpt><trkpt lat="45.392366" lon="14.2129241"><ele>1109.3999999999999</ele><time>2026-04-25T10:02:34.051Z</time></trkpt><trkpt lat="45.3924177" lon="14.2130376"><ele>1110.2</ele><time>2026-04-25T10:02:35.062Z</time></trkpt><trkpt lat="45.3924467" lon="14.2131607"><ele>1111.0</ele><time>2026-04-25T10:02:36.063Z</time></trkpt><trkpt lat="45.3924445" lon="14.2133044"><ele>1110.8</ele><time>2026-04-25T10:02:37.066Z</time></trkpt><trkpt lat="45.3924008" lon="14.2134401"><ele>1110.6</ele><time>2026-04-25T10:02:38.066Z</time></trkpt><trkpt lat="45.3923262" lon="14.2135695"><ele>1110.4</ele><time>2026-04-25T10:02:39.06Z</time></trkpt><trkpt lat="45.392247" lon="14.2136677"><ele>1110.2</ele><time>2026-04-25T10:02:40.058Z</time></trkpt><trkpt lat="45.3921582" lon="14.2137286"><ele>1110.0</ele><time>2026-04-25T10:02:41.061Z</time></trkpt><trkpt lat="45.3920505" lon="14.2137511"><ele>1110.0</ele><time>2026-04-25T10:02:42.06Z</time></trkpt><trkpt lat="45.3919416" lon="14.2137371"><ele>1110.0</ele><time>2026-04-25T10:02:43.056Z</time></trkpt><trkpt lat="45.3918332" lon="14.2137128"><ele>1110.0</ele><time>2026-04-25T10:02:44.069Z</time></trkpt><trkpt lat="45.391731" lon="14.2137008"><ele>1110.0</ele><time>2026-04-25T10:02:45.072Z</time></trkpt><trkpt lat="45.3916389" lon="14.2136991"><ele>1110.0</ele><time>2026-04-25T10:02:46.069Z</time></trkpt><trkpt lat="45.3915565" lon="14.2137276"><ele>1110.0</ele><time>2026-04-25T10:02:47.068Z</time></trkpt><trkpt lat="45.3914992" lon="14.2137782"><ele>1110.0</ele><time>2026-04-25T10:02:48.07Z</time></trkpt><trkpt lat="45.3914708" lon="14.2139355"><ele>1110.0</ele><time>2026-04-25T10:02:50.063Z</time></trkpt><trkpt lat="45.3914892" lon="14.2140601"><ele>1110.0</ele><time>2026-04-25T10:02:51.067Z</time></trkpt><trkpt lat="45.3914666" lon="14.2142202"><ele>1110.0</ele><time>2026-04-25T10:02:52.07Z</time></trkpt><trkpt lat="45.3914074" lon="14.214382"><ele>1110.25</ele><time>2026-04-25T10:02:53.076Z</time></trkpt><trkpt lat="45.3913496" lon="14.2145456"><ele>1110.5</ele><time>2026-04-25T10:02:54.083Z</time></trkpt><trkpt lat="45.3912956" lon="14.2147336"><ele>1110.75</ele><time>2026-04-25T10:02:55.076Z</time></trkpt><trkpt lat="45.3912441" lon="14.2149271"><ele>1111.0</ele><time>2026-04-25T10:02:56.079Z</time></trkpt><trkpt lat="45.3911932" lon="14.2151139"><ele>1111.2</ele><time>2026-04-25T10:02:57.061Z</time></trkpt><trkpt lat="45.3911467" lon="14.2152906"><ele>1111.3999999999999</ele><time>2026-04-25T10:02:58.07Z</time></trkpt><trkpt lat="45.3910981" lon="14.2154437"><ele>1111.6</ele><time>2026-04-25T10:02:59.092Z</time></trkpt><trkpt lat="45.3910579" lon="14.2155735"><ele>1111.8</ele><time>2026-04-25T10:03:00.064Z</time></trkpt><trkpt lat="45.391024" lon="14.2156875"><ele>1112.0</ele><time>2026-04-25T10:03:01.096Z</time></trkpt><trkpt lat="45.3909877" lon="14.2158123"><ele>1112.0</ele><time>2026-04-25T10:03:02.059Z</time></trkpt><trkpt lat="45.3909471" lon="14.2159348"><ele>1112.0</ele><time>2026-04-25T10:03:03.079Z</time></trkpt><trkpt lat="45.3908963" lon="14.2160501"><ele>1112.0</ele><time>2026-04-25T10:03:04.108Z</time></trkpt><trkpt lat="45.3908522" lon="14.2161819"><ele>1112.0</ele><time>2026-04-25T10:03:05.072Z</time></trkpt><trkpt lat="45.390816" lon="14.2163112"><ele>1112.0</ele><time>2026-04-25T10:03:06.064Z</time></trkpt><trkpt lat="45.3908049" lon="14.216468"><ele>1110.75</ele><time>2026-04-25T10:03:07.071Z</time></trkpt><trkpt lat="45.3908152" lon="14.2166321"><ele>1109.5</ele><time>2026-04-25T10:03:08.065Z</time></trkpt><trkpt lat="45.3908464" lon="14.2167978"><ele>1108.25</ele><time>2026-04-25T10:03:09.065Z</time></trkpt><trkpt lat="45.3908868" lon="14.2169512"><ele>1107.0</ele><time>2026-04-25T10:03:10.061Z</time></trkpt><trkpt lat="45.3909349" lon="14.21711"><ele>1107.0</ele><time>2026-04-25T10:03:11.073Z</time></trkpt><trkpt lat="45.3909976" lon="14.2172614"><ele>1107.0</ele><time>2026-04-25T10:03:12.076Z</time></trkpt><trkpt lat="45.3910577" lon="14.2174096"><ele>1107.0</ele><time>2026-04-25T10:03:13.071Z</time></trkpt><trkpt lat="45.3911014" lon="14.2175495"><ele>1107.0</ele><time>2026-04-25T10:03:14.07Z</time></trkpt><trkpt lat="45.3911484" lon="14.2176928"><ele>1105.0</ele><time>2026-04-25T10:03:15.072Z</time></trkpt><trkpt lat="45.3911951" lon="14.2178502"><ele>1103.0</ele><time>2026-04-25T10:03:16.062Z</time></trkpt><trkpt lat="45.3912347" lon="14.2180084"><ele>1101.0</ele><time>2026-04-25T10:03:17.055Z</time></trkpt><trkpt lat="45.3912648" lon="14.2181695"><ele>1099.0</ele><time>2026-04-25T10:03:18.066Z</time></trkpt><trkpt lat="45.3912897" lon="14.2183232"><ele>1096.25</ele><time>2026-04-25T10:03:19.072Z</time></trkpt><trkpt lat="45.3913053" lon="14.2184845"><ele>1093.5</ele><time>2026-04-25T10:03:20.063Z</time></trkpt><trkpt lat="45.3913051" lon="14.2186406"><ele>1090.75</ele><time>2026-04-25T10:03:21.065Z</time></trkpt><trkpt lat="45.3912853" lon="14.2188091"><ele>1088.0</ele><time>2026-04-25T10:03:22.056Z</time></trkpt><trkpt lat="45.3912528" lon="14.2189911"><ele>1086.75</ele><time>2026-04-25T10:03:23.065Z</time></trkpt><trkpt lat="45.391214" lon="14.2191861"><ele>1085.5</ele><time>2026-04-25T10:03:24.077Z</time></trkpt><trkpt lat="45.3911651" lon="14.2193711"><ele>1084.25</ele><time>2026-04-25T10:03:25.066Z</time></trkpt><trkpt lat="45.391121" lon="14.2195503"><ele>1083.0</ele><time>2026-04-25T10:03:26.067Z</time></trkpt><trkpt lat="45.391079" lon="14.2197267"><ele>1083.5</ele><time>2026-04-25T10:03:27.07Z</time></trkpt><trkpt lat="45.3910433" lon="14.2198853"><ele>1084.0</ele><time>2026-04-25T10:03:28.069Z</time></trkpt><trkpt lat="45.3909926" lon="14.2200394"><ele>1084.5</ele><time>2026-04-25T10:03:29.066Z</time></trkpt><trkpt lat="45.3909269" lon="14.2201905"><ele>1085.0</ele><time>2026-04-25T10:03:30.069Z</time></trkpt><trkpt lat="45.3908494" lon="14.2203136"><ele>1085.0</ele><time>2026-04-25T10:03:31.068Z</time></trkpt><trkpt lat="45.3907643" lon="14.2204419"><ele>1085.0</ele><time>2026-04-25T10:03:32.075Z</time></trkpt><trkpt lat="45.3906735" lon="14.220572"><ele>1085.0</ele><time>2026-04-25T10:03:33.071Z</time></trkpt><trkpt lat="45.3905863" lon="14.2207024"><ele>1085.0</ele><time>2026-04-25T10:03:34.07Z</time></trkpt><trkpt lat="45.3905124" lon="14.2208421"><ele>1078.75</ele><time>2026-04-25T10:03:35.07Z</time></trkpt><trkpt lat="45.3904451" lon="14.2209788"><ele>1072.5</ele><time>2026-04-25T10:03:36.072Z</time></trkpt><trkpt lat="45.3903754" lon="14.2211172"><ele>1066.25</ele><time>2026-04-25T10:03:37.074Z</time></trkpt><trkpt lat="45.3903075" lon="14.2212553"><ele>1060.0</ele><time>2026-04-25T10:03:38.075Z</time></trkpt><trkpt lat="45.3902428" lon="14.2213921"><ele>1060.6666666666665</ele><time>2026-04-25T10:03:39.078Z</time></trkpt><trkpt lat="45.3901902" lon="14.2215324"><ele>1061.3333333333333</ele><time>2026-04-25T10:03:40.066Z</time></trkpt><trkpt lat="45.3901601" lon="14.2216517"><ele>1062.0</ele><time>2026-04-25T10:03:41.072Z</time></trkpt><trkpt lat="45.3901611" lon="14.221749"><ele>1062.6666666666667</ele><time>2026-04-25T10:03:42.074Z</time></trkpt><trkpt lat="45.3901919" lon="14.2218321"><ele>1063.3333333333335</ele><time>2026-04-25T10:03:43.064Z</time></trkpt><trkpt lat="45.3902495" lon="14.2219127"><ele>1064.0</ele><time>2026-04-25T10:03:44.076Z</time></trkpt><trkpt lat="45.3903232" lon="14.2219738"><ele>1064.0</ele><time>2026-04-25T10:03:45.061Z</time></trkpt><trkpt lat="45.3904104" lon="14.2220272"><ele>1064.0</ele><time>2026-04-25T10:03:46.059Z</time></trkpt><trkpt lat="45.3905123" lon="14.2220763"><ele>1064.0</ele><time>2026-04-25T10:03:47.067Z</time></trkpt><trkpt lat="45.3906084" lon="14.222137"><ele>1064.0</ele><time>2026-04-25T10:03:48.067Z</time></trkpt><trkpt lat="45.3906901" lon="14.2222125"><ele>1064.0</ele><time>2026-04-25T10:03:49.069Z</time></trkpt><trkpt lat="45.3907655" lon="14.2222857"><ele>1067.0</ele><time>2026-04-25T10:03:50.066Z</time></trkpt><trkpt lat="45.3908372" lon="14.2223815"><ele>1070.0</ele><time>2026-04-25T10:03:51.068Z</time></trkpt><trkpt lat="45.3908982" lon="14.2225179"><ele>1073.0</ele><time>2026-04-25T10:03:52.068Z</time></trkpt><trkpt lat="45.3909523" lon="14.2226726"><ele>1076.0</ele><time>2026-04-25T10:03:53.06Z</time></trkpt><trkpt lat="45.3909961" lon="14.2228451"><ele>1076.0</ele><time>2026-04-25T10:03:54.076Z</time></trkpt><trkpt lat="45.3910483" lon="14.2230222"><ele>1076.0</ele><time>2026-04-25T10:03:55.069Z</time></trkpt><trkpt lat="45.3911042" lon="14.2231935"><ele>1076.0</ele><time>2026-04-25T10:03:56.063Z</time></trkpt><trkpt lat="45.3911566" lon="14.223348"><ele>1076.0</ele><time>2026-04-25T10:03:57.073Z</time></trkpt><trkpt lat="45.3912084" lon="14.2234902"><ele>1075.5</ele><time>2026-04-25T10:03:58.074Z</time></trkpt><trkpt lat="45.3912628" lon="14.2236381"><ele>1075.0</ele><time>2026-04-25T10:03:59.076Z</time></trkpt><trkpt lat="45.3913353" lon="14.2237937"><ele>1074.5</ele><time>2026-04-25T10:04:00.07Z</time></trkpt><trkpt lat="45.3914078" lon="14.2239365"><ele>1074.0</ele><time>2026-04-25T10:04:01.068Z</time></trkpt><trkpt lat="45.3914767" lon="14.2240689"><ele>1074.0</ele><time>2026-04-25T10:04:02.077Z</time></trkpt><trkpt lat="45.39153" lon="14.224204"><ele>1074.0</ele><time>2026-04-25T10:04:03.072Z</time></trkpt><trkpt lat="45.3915439" lon="14.2243421"><ele>1074.0</ele><time>2026-04-25T10:04:04.067Z</time></trkpt><trkpt lat="45.3915229" lon="14.2244959"><ele>1074.0</ele><time>2026-04-25T10:04:05.067Z</time></trkpt><trkpt lat="45.391494" lon="14.224676"><ele>1074.0</ele><time>2026-04-25T10:04:06.06Z</time></trkpt><trkpt lat="45.3914537" lon="14.2248514"><ele>1073.5</ele><time>2026-04-25T10:04:07.057Z</time></trkpt><trkpt lat="45.3914149" lon="14.2250237"><ele>1073.0</ele><time>2026-04-25T10:04:08.066Z</time></trkpt><trkpt lat="45.3913702" lon="14.2251989"><ele>1072.5</ele><time>2026-04-25T10:04:09.068Z</time></trkpt><trkpt lat="45.3913007" lon="14.2253664"><ele>1072.0</ele><time>2026-04-25T10:04:10.083Z</time></trkpt><trkpt lat="45.3912129" lon="14.225534"><ele>1067.0</ele><time>2026-04-25T10:04:11.065Z</time></trkpt><trkpt lat="45.3911326" lon="14.2256937"><ele>1062.0</ele><time>2026-04-25T10:04:12.062Z</time></trkpt><trkpt lat="45.3910587" lon="14.2258409"><ele>1057.0</ele><time>2026-04-25T10:04:13.065Z</time></trkpt><trkpt lat="45.390996" lon="14.2259732"><ele>1052.0</ele><time>2026-04-25T10:04:14.067Z</time></trkpt><trkpt lat="45.3909345" lon="14.2260971"><ele>1052.0</ele><time>2026-04-25T10:04:15.06Z</time></trkpt><trkpt lat="45.3908913" lon="14.2262423"><ele>1052.0</ele><time>2026-04-25T10:04:16.066Z</time></trkpt><trkpt lat="45.3908764" lon="14.2264004"><ele>1052.0</ele><time>2026-04-25T10:04:17.064Z</time></trkpt><trkpt lat="45.3908631" lon="14.2265477"><ele>1052.0</ele><time>2026-04-25T10:04:18.068Z</time></trkpt><trkpt lat="45.390849" lon="14.2266889"><ele>1052.0</ele><time>2026-04-25T10:04:19.075Z</time></trkpt><trkpt lat="45.3908427" lon="14.2268156"><ele>1053.6</ele><time>2026-04-25T10:04:20.071Z</time></trkpt><trkpt lat="45.3908749" lon="14.2269366"><ele>1055.2</ele><time>2026-04-25T10:04:21.068Z</time></trkpt><trkpt lat="45.3909202" lon="14.2270511"><ele>1056.8</ele><time>2026-04-25T10:04:22.049Z</time></trkpt><trkpt lat="45.3909566" lon="14.2271743"><ele>1058.4</ele><time>2026-04-25T10:04:23.065Z</time></trkpt><trkpt lat="45.3909762" lon="14.2273102"><ele>1060.0</ele><time>2026-04-25T10:04:24.066Z</time></trkpt><trkpt lat="45.3909736" lon="14.2274641"><ele>1060.0</ele><time>2026-04-25T10:04:25.071Z</time></trkpt><trkpt lat="45.3909482" lon="14.2276415"><ele>1060.0</ele><time>2026-04-25T10:04:26.079Z</time></trkpt><trkpt lat="45.390904" lon="14.2278351"><ele>1060.0</ele><time>2026-04-25T10:04:27.067Z</time></trkpt><trkpt lat="45.3908604" lon="14.2280314"><ele>1060.0</ele><time>2026-04-25T10:04:28.065Z</time></trkpt><trkpt lat="45.3908221" lon="14.2282066"><ele>1059.2</ele><time>2026-04-25T10:04:29.061Z</time></trkpt><trkpt lat="45.3908029" lon="14.228352"><ele>1058.4</ele><time>2026-04-25T10:04:30.073Z</time></trkpt><trkpt lat="45.3908011" lon="14.2284781"><ele>1057.6</ele><time>2026-04-25T10:04:31.074Z</time></trkpt><trkpt lat="45.3908167" lon="14.22858"><ele>1056.8</ele><time>2026-04-25T10:04:32.077Z</time></trkpt><trkpt lat="45.3908702" lon="14.2286815"><ele>1056.0</ele><time>2026-04-25T10:04:34.071Z</time></trkpt><trkpt lat="45.3909488" lon="14.2287877"><ele>1056.0</ele><time>2026-04-25T10:04:36.077Z</time></trkpt><trkpt lat="45.3910084" lon="14.2288467"><ele>1056.0</ele><time>2026-04-25T10:04:37.076Z</time></trkpt><trkpt lat="45.3910699" lon="14.228889"><ele>1056.0</ele><time>2026-04-25T10:04:38.081Z</time></trkpt><trkpt lat="45.3911365" lon="14.2289095"><ele>1056.0</ele><time>2026-04-25T10:04:39.065Z</time></trkpt><trkpt lat="45.3912617" lon="14.2289144"><ele>1056.0</ele><time>2026-04-25T10:04:41.085Z</time></trkpt><trkpt lat="45.3913815" lon="14.2288594"><ele>1057.2</ele><time>2026-04-25T10:04:43.077Z</time></trkpt><trkpt lat="45.3914535" lon="14.2288192"><ele>1058.3999999999999</ele><time>2026-04-25T10:04:44.075Z</time></trkpt><trkpt lat="45.3915384" lon="14.2287606"><ele>1059.6</ele><time>2026-04-25T10:04:45.075Z</time></trkpt><trkpt lat="45.3916286" lon="14.2287029"><ele>1060.8</ele><time>2026-04-25T10:04:46.073Z</time></trkpt><trkpt lat="45.3917253" lon="14.2286396"><ele>1062.0</ele><time>2026-04-25T10:04:47.073Z</time></trkpt><trkpt lat="45.3918261" lon="14.2285832"><ele>1062.0</ele><time>2026-04-25T10:04:48.06Z</time></trkpt><trkpt lat="45.3919218" lon="14.2285337"><ele>1062.0</ele><time>2026-04-25T10:04:49.069Z</time></trkpt><trkpt lat="45.3920305" lon="14.2285119"><ele>1062.0</ele><time>2026-04-25T10:04:50.06Z</time></trkpt><trkpt lat="45.3921405" lon="14.2285382"><ele>1062.0</ele><time>2026-04-25T10:04:51.057Z</time></trkpt><trkpt lat="45.3922555" lon="14.2285827"><ele>1062.0</ele><time>2026-04-25T10:04:52.069Z</time></trkpt><trkpt lat="45.3923734" lon="14.2286262"><ele>1061.5</ele><time>2026-04-25T10:04:53.065Z</time></trkpt><trkpt lat="45.3924845" lon="14.2286469"><ele>1061.0</ele><time>2026-04-25T10:04:54.067Z</time></trkpt><trkpt lat="45.3926023" lon="14.2286462"><ele>1060.5</ele><time>2026-04-25T10:04:55.076Z</time></trkpt><trkpt lat="45.3927315" lon="14.2286373"><ele>1060.0</ele><time>2026-04-25T10:04:56.067Z</time></trkpt><trkpt lat="45.392856" lon="14.2286431"><ele>1060.0</ele><time>2026-04-25T10:04:57.07Z</time></trkpt><trkpt lat="45.3929686" lon="14.2286478"><ele>1060.0</ele><time>2026-04-25T10:04:58.075Z</time></trkpt><trkpt lat="45.3930739" lon="14.2286773"><ele>1060.0</ele><time>2026-04-25T10:04:59.069Z</time></trkpt><trkpt lat="45.3931725" lon="14.2287395"><ele>1060.0</ele><time>2026-04-25T10:05:00.068Z</time></trkpt><trkpt lat="45.393269" lon="14.2288084"><ele>1060.0</ele><time>2026-04-25T10:05:01.07Z</time></trkpt><trkpt lat="45.3933654" lon="14.2288629"><ele>1061.2</ele><time>2026-04-25T10:05:02.068Z</time></trkpt><trkpt lat="45.3934629" lon="14.2288844"><ele>1062.4</ele><time>2026-04-25T10:05:03.066Z</time></trkpt><trkpt lat="45.3935584" lon="14.2288814"><ele>1063.6</ele><time>2026-04-25T10:05:04.069Z</time></trkpt><trkpt lat="45.3936483" lon="14.2288662"><ele>1064.8</ele><time>2026-04-25T10:05:05.068Z</time></trkpt><trkpt lat="45.3937373" lon="14.2288436"><ele>1066.0</ele><time>2026-04-25T10:05:06.073Z</time></trkpt><trkpt lat="45.3938144" lon="14.2288449"><ele>1067.2</ele><time>2026-04-25T10:05:07.068Z</time></trkpt><trkpt lat="45.3938891" lon="14.2288934"><ele>1068.3999999999999</ele><time>2026-04-25T10:05:08.066Z</time></trkpt><trkpt lat="45.3939697" lon="14.2289905"><ele>1069.6</ele><time>2026-04-25T10:05:09.056Z</time></trkpt><trkpt lat="45.3940427" lon="14.2291186"><ele>1070.8</ele><time>2026-04-25T10:05:10.053Z</time></trkpt><trkpt lat="45.3941123" lon="14.2292404"><ele>1072.0</ele><time>2026-04-25T10:05:11.055Z</time></trkpt><trkpt lat="45.3941891" lon="14.2293372"><ele>1065.2</ele><time>2026-04-25T10:05:12.058Z</time></trkpt><trkpt lat="45.3942651" lon="14.2293943"><ele>1058.4</ele><time>2026-04-25T10:05:13.063Z</time></trkpt><trkpt lat="45.3943426" lon="14.2294327"><ele>1051.6</ele><time>2026-04-25T10:05:14.064Z</time></trkpt><trkpt lat="45.3944274" lon="14.2294651"><ele>1044.8</ele><time>2026-04-25T10:05:15.062Z</time></trkpt><trkpt lat="45.3945205" lon="14.2294803"><ele>1038.0</ele><time>2026-04-25T10:05:16.069Z</time></trkpt><trkpt lat="45.3946265" lon="14.2294783"><ele>1039.2</ele><time>2026-04-25T10:05:17.068Z</time></trkpt><trkpt lat="45.3947366" lon="14.2294619"><ele>1040.4</ele><time>2026-04-25T10:05:18.079Z</time></trkpt><trkpt lat="45.3948475" lon="14.2294381"><ele>1041.6000000000001</ele><time>2026-04-25T10:05:19.071Z</time></trkpt><trkpt lat="45.3949429" lon="14.2293967"><ele>1042.8</ele><time>2026-04-25T10:05:20.07Z</time></trkpt><trkpt lat="45.3950265" lon="14.2293414"><ele>1044.0</ele><time>2026-04-25T10:05:21.072Z</time></trkpt><trkpt lat="45.3951115" lon="14.2292772"><ele>1044.0</ele><time>2026-04-25T10:05:22.072Z</time></trkpt><trkpt lat="45.3951925" lon="14.2292005"><ele>1044.0</ele><time>2026-04-25T10:05:23.066Z</time></trkpt><trkpt lat="45.3952759" lon="14.2291166"><ele>1044.0</ele><time>2026-04-25T10:05:24.074Z</time></trkpt><trkpt lat="45.3953583" lon="14.2290414"><ele>1044.0</ele><time>2026-04-25T10:05:25.07Z</time></trkpt><trkpt lat="45.3954312" lon="14.228997"><ele>1044.0</ele><time>2026-04-25T10:05:26.07Z</time></trkpt><trkpt lat="45.3955346" lon="14.2289653"><ele>1042.1666666666667</ele><time>2026-04-25T10:05:28.068Z</time></trkpt><trkpt lat="45.3956496" lon="14.2289756"><ele>1040.3333333333333</ele><time>2026-04-25T10:05:30.076Z</time></trkpt><trkpt lat="45.3957197" lon="14.2289952"><ele>1038.5</ele><time>2026-04-25T10:05:32.073Z</time></trkpt><trkpt lat="45.3958191" lon="14.2290007"><ele>1036.6666666666665</ele><time>2026-04-25T10:05:50.067Z</time></trkpt><trkpt lat="45.3958864" lon="14.2290216"><ele>1034.8333333333333</ele><time>2026-04-25T10:05:51.067Z</time></trkpt><trkpt lat="45.3959623" lon="14.2290652"><ele>1033.0</ele><time>2026-04-25T10:05:52.071Z</time></trkpt><trkpt lat="45.3960469" lon="14.2291343"><ele>1033.0</ele><time>2026-04-25T10:05:53.066Z</time></trkpt><trkpt lat="45.3961343" lon="14.2292135"><ele>1033.0</ele><time>2026-04-25T10:05:54.067Z</time></trkpt><trkpt lat="45.3962267" lon="14.229312"><ele>1033.0</ele><time>2026-04-25T10:05:55.062Z</time></trkpt><trkpt lat="45.3963217" lon="14.2293907"><ele>1033.0</ele><time>2026-04-25T10:05:56.069Z</time></trkpt><trkpt lat="45.3963976" lon="14.229436"><ele>1033.0</ele><time>2026-04-25T10:05:57.065Z</time></trkpt><trkpt lat="45.3964998" lon="14.2294601"><ele>1032.0</ele><time>2026-04-25T10:05:59.071Z</time></trkpt><trkpt lat="45.3965831" lon="14.2293191"><ele>1031.0</ele><time>2026-04-25T10:06:01.073Z</time></trkpt><trkpt lat="45.3966119" lon="14.2292143"><ele>1030.0</ele><time>2026-04-25T10:06:02.061Z</time></trkpt><trkpt lat="45.3966242" lon="14.2291043"><ele>1029.0</ele><time>2026-04-25T10:06:03.064Z</time></trkpt><trkpt lat="45.3966522" lon="14.2289784"><ele>1028.0</ele><time>2026-04-25T10:06:04.073Z</time></trkpt><trkpt lat="45.3967021" lon="14.2288493"><ele>1030.6</ele><time>2026-04-25T10:06:05.074Z</time></trkpt><trkpt lat="45.3967659" lon="14.2287342"><ele>1033.1999999999998</ele><time>2026-04-25T10:06:06.074Z</time></trkpt><trkpt lat="45.3968324" lon="14.2286374"><ele>1035.8</ele><time>2026-04-25T10:06:07.078Z</time></trkpt><trkpt lat="45.3969005" lon="14.2285592"><ele>1038.3999999999999</ele><time>2026-04-25T10:06:08.077Z</time></trkpt><trkpt lat="45.3969695" lon="14.228494"><ele>1041.0</ele><time>2026-04-25T10:06:09.067Z</time></trkpt><trkpt lat="45.3970423" lon="14.2284391"><ele>1041.0</ele><time>2026-04-25T10:06:10.065Z</time></trkpt><trkpt lat="45.397111" lon="14.2283765"><ele>1041.0</ele><time>2026-04-25T10:06:11.064Z</time></trkpt><trkpt lat="45.3971822" lon="14.2283243"><ele>1041.0</ele><time>2026-04-25T10:06:12.058Z</time></trkpt><trkpt lat="45.3972395" lon="14.2282755"><ele>1041.0</ele><time>2026-04-25T10:06:13.078Z</time></trkpt><trkpt lat="45.3972928" lon="14.2282173"><ele>1041.0</ele><time>2026-04-25T10:06:14.063Z</time></trkpt><trkpt lat="45.3973444" lon="14.228162"><ele>1041.0</ele><time>2026-04-25T10:06:15.119Z</time></trkpt><trkpt lat="45.3973992" lon="14.2281031"><ele>1041.0</ele><time>2026-04-25T10:06:16.054Z</time></trkpt><trkpt lat="45.397457" lon="14.2280464"><ele>1040.5</ele><time>2026-04-25T10:06:17.082Z</time></trkpt><trkpt lat="45.3975256" lon="14.2279941"><ele>1040.0</ele><time>2026-04-25T10:06:18.078Z</time></trkpt><trkpt lat="45.3975992" lon="14.2279392"><ele>1039.5</ele><time>2026-04-25T10:06:19.073Z</time></trkpt><trkpt lat="45.3976737" lon="14.227885"><ele>1039.0</ele><time>2026-04-25T10:06:20.067Z</time></trkpt><trkpt lat="45.3977545" lon="14.2278308"><ele>1038.5</ele><time>2026-04-25T10:06:21.06Z</time></trkpt><trkpt lat="45.3978401" lon="14.2277786"><ele>1038.0</ele><time>2026-04-25T10:06:22.067Z</time></trkpt><trkpt lat="45.3979189" lon="14.2277233"><ele>1038.0</ele><time>2026-04-25T10:06:23.054Z</time></trkpt><trkpt lat="45.3979942" lon="14.2276756"><ele>1038.0</ele><time>2026-04-25T10:06:24.052Z</time></trkpt><trkpt lat="45.3980656" lon="14.2276214"><ele>1038.0</ele><time>2026-04-25T10:06:25.059Z</time></trkpt><trkpt lat="45.3981495" lon="14.2275764"><ele>1038.0</ele><time>2026-04-25T10:06:27.072Z</time></trkpt><trkpt lat="45.3980649" lon="14.2275947"><ele>1038.0</ele><time>2026-04-25T10:06:53.068Z</time></trkpt><trkpt lat="45.3979752" lon="14.2276498"><ele>1038.0</ele><time>2026-04-25T10:06:54.07Z</time></trkpt><trkpt lat="45.3978807" lon="14.2277061"><ele>1038.0</ele><time>2026-04-25T10:06:55.074Z</time></trkpt><trkpt lat="45.3977891" lon="14.2277801"><ele>1038.0</ele><time>2026-04-25T10:06:56.076Z</time></trkpt><trkpt lat="45.3976873" lon="14.2278671"><ele>1038.0</ele><time>2026-04-25T10:06:57.064Z</time></trkpt><trkpt lat="45.3975759" lon="14.2279519"><ele>1038.0</ele><time>2026-04-25T10:06:58.065Z</time></trkpt><trkpt lat="45.3974698" lon="14.2280361"><ele>1038.0</ele><time>2026-04-25T10:06:59.066Z</time></trkpt><trkpt lat="45.3973719" lon="14.2281126"><ele>1038.0</ele><time>2026-04-25T10:07:00.064Z</time></trkpt><trkpt lat="45.3972887" lon="14.2281925"><ele>1038.0</ele><time>2026-04-25T10:07:01.071Z</time></trkpt><trkpt lat="45.3972056" lon="14.2282723"><ele>1038.0</ele><time>2026-04-25T10:07:02.072Z</time></trkpt><trkpt lat="45.3971181" lon="14.2283548"><ele>1038.0</ele><time>2026-04-25T10:07:03.063Z</time></trkpt><trkpt lat="45.3970321" lon="14.2284422"><ele>1038.6</ele><time>2026-04-25T10:07:04.068Z</time></trkpt><trkpt lat="45.3969445" lon="14.2285266"><ele>1039.1999999999998</ele><time>2026-04-25T10:07:05.061Z</time></trkpt><trkpt lat="45.3968498" lon="14.2286173"><ele>1039.8</ele><time>2026-04-25T10:07:06.067Z</time></trkpt><trkpt lat="45.3967503" lon="14.2287101"><ele>1040.3999999999999</ele><time>2026-04-25T10:07:07.065Z</time></trkpt><trkpt lat="45.3966669" lon="14.2288128"><ele>1041.0</ele><time>2026-04-25T10:07:08.066Z</time></trkpt><trkpt lat="45.3966052" lon="14.2289341"><ele>1038.3999999999999</ele><time>2026-04-25T10:07:09.077Z</time></trkpt><trkpt lat="45.3965677" lon="14.2290718"><ele>1035.8</ele><time>2026-04-25T10:07:10.061Z</time></trkpt><trkpt lat="45.3965503" lon="14.2292004"><ele>1033.1999999999998</ele><time>2026-04-25T10:07:11.06Z</time></trkpt><trkpt lat="45.3965281" lon="14.2293166"><ele>1030.6</ele><time>2026-04-25T10:07:12.079Z</time></trkpt><trkpt lat="45.3964898" lon="14.2294411"><ele>1028.0</ele><time>2026-04-25T10:07:14.078Z</time></trkpt><trkpt lat="45.3964064" lon="14.2294218"><ele>1028.0</ele><time>2026-04-25T10:07:16.068Z</time></trkpt><trkpt lat="45.3963366" lon="14.2293697"><ele>1028.0</ele><time>2026-04-25T10:07:17.067Z</time></trkpt><trkpt lat="45.3962608" lon="14.2293003"><ele>1028.0</ele><time>2026-04-25T10:07:18.063Z</time></trkpt><trkpt lat="45.3961786" lon="14.2292223"><ele>1028.0</ele><time>2026-04-25T10:07:19.07Z</time></trkpt><trkpt lat="45.3961047" lon="14.2291474"><ele>1028.0</ele><time>2026-04-25T10:07:20.071Z</time></trkpt><trkpt lat="45.3960422" lon="14.2290861"><ele>1028.0</ele><time>2026-04-25T10:07:21.08Z</time></trkpt><trkpt lat="45.3959572" lon="14.2290043"><ele>1029.0</ele><time>2026-04-25T10:07:23.069Z</time></trkpt><trkpt lat="45.3958741" lon="14.2289719"><ele>1030.0</ele><time>2026-04-25T10:07:25.062Z</time></trkpt><trkpt lat="45.3959527" lon="14.229008"><ele>1031.0</ele><time>2026-04-25T10:07:55.072Z</time></trkpt><trkpt lat="45.3960396" lon="14.2290215"><ele>1032.0</ele><time>2026-04-25T10:07:56.092Z</time></trkpt><trkpt lat="45.3961319" lon="14.2290835"><ele>1033.0</ele><time>2026-04-25T10:07:57.091Z</time></trkpt><trkpt lat="45.3962218" lon="14.2291859"><ele>1033.0</ele><time>2026-04-25T10:07:58.068Z</time></trkpt><trkpt lat="45.3963051" lon="14.2292751"><ele>1033.0</ele><time>2026-04-25T10:07:59.084Z</time></trkpt><trkpt lat="45.3963831" lon="14.2293545"><ele>1033.0</ele><time>2026-04-25T10:08:00.081Z</time></trkpt><trkpt lat="45.3964504" lon="14.2294036"><ele>1033.0</ele><time>2026-04-25T10:08:01.077Z</time></trkpt><trkpt lat="45.3965021" lon="14.2294618"><ele>1033.0</ele><time>2026-04-25T10:08:04.1Z</time></trkpt><trkpt lat="45.3965749" lon="14.229384"><ele>1033.0</ele><time>2026-04-25T10:08:09.086Z</time></trkpt><trkpt lat="45.3966021" lon="14.2291891"><ele>1032.0</ele><time>2026-04-25T10:08:11.082Z</time></trkpt><trkpt lat="45.3966102" lon="14.2290795"><ele>1031.0</ele><time>2026-04-25T10:08:12.087Z</time></trkpt><trkpt lat="45.3966373" lon="14.2289482"><ele>1030.0</ele><time>2026-04-25T10:08:14.086Z</time></trkpt><trkpt lat="45.3966716" lon="14.2290243"><ele>1029.0</ele><time>2026-04-25T10:08:22.074Z</time></trkpt><trkpt lat="45.3966757" lon="14.2291782"><ele>1028.0</ele><time>2026-04-25T10:08:25.105Z</time></trkpt><trkpt lat="45.3967272" lon="14.2293471"><ele>1028.0</ele><time>2026-04-25T10:08:27.107Z</time></trkpt><trkpt lat="45.3967589" lon="14.2294389"><ele>1028.0</ele><time>2026-04-25T10:08:28.066Z</time></trkpt><trkpt lat="45.3967697" lon="14.2296029"><ele>1028.0</ele><time>2026-04-25T10:08:30.094Z</time></trkpt><trkpt lat="45.3967355" lon="14.2297303"><ele>1028.0</ele><time>2026-04-25T10:08:32.07Z</time></trkpt><trkpt lat="45.3966649" lon="14.2297605"><ele>1028.0</ele><time>2026-04-25T10:08:34.071Z</time></trkpt><trkpt lat="45.3965779" lon="14.2297433"><ele>1028.0</ele><time>2026-04-25T10:08:36.074Z</time></trkpt><trkpt lat="45.3964819" lon="14.2297077"><ele>1028.0</ele><time>2026-04-25T10:08:38.09Z</time></trkpt><trkpt lat="45.3963745" lon="14.2296776"><ele>1028.0</ele><time>2026-04-25T10:08:40.082Z</time></trkpt><trkpt lat="45.3963103" lon="14.2296699"><ele>1028.0</ele><time>2026-04-25T10:08:41.081Z</time></trkpt><trkpt lat="45.396184" lon="14.2296211"><ele>1028.0</ele><time>2026-04-25T10:08:43.087Z</time></trkpt><trkpt lat="45.3961115" lon="14.2296087"><ele>1028.0</ele><time>2026-04-25T10:08:44.079Z</time></trkpt><trkpt lat="45.3960339" lon="14.2296098"><ele>1028.8333333333335</ele><time>2026-04-25T10:08:45.072Z</time></trkpt><trkpt lat="45.3959526" lon="14.2296243"><ele>1029.6666666666667</ele><time>2026-04-25T10:08:46.08Z</time></trkpt><trkpt lat="45.3958757" lon="14.2296406"><ele>1030.5</ele><time>2026-04-25T10:08:47.074Z</time></trkpt><trkpt lat="45.3958028" lon="14.2296687"><ele>1031.3333333333333</ele><time>2026-04-25T10:08:48.079Z</time></trkpt><trkpt lat="45.3957361" lon="14.2296998"><ele>1032.1666666666665</ele><time>2026-04-25T10:08:49.071Z</time></trkpt><trkpt lat="45.3956721" lon="14.2297484"><ele>1033.0</ele><time>2026-04-25T10:08:50.068Z</time></trkpt><trkpt lat="45.3956158" lon="14.2298298"><ele>1030.1666666666665</ele><time>2026-04-25T10:08:51.073Z</time></trkpt><trkpt lat="45.3955568" lon="14.2299088"><ele>1027.3333333333333</ele><time>2026-04-25T10:08:52.073Z</time></trkpt><trkpt lat="45.3954957" lon="14.2299796"><ele>1024.5</ele><time>2026-04-25T10:08:53.075Z</time></trkpt><trkpt lat="45.3954315" lon="14.2300443"><ele>1021.6666666666667</ele><time>2026-04-25T10:08:54.074Z</time></trkpt><trkpt lat="45.3953638" lon="14.2301051"><ele>1018.8333333333334</ele><time>2026-04-25T10:08:55.074Z</time></trkpt><trkpt lat="45.3952962" lon="14.2301528"><ele>1016.0</ele><time>2026-04-25T10:08:56.066Z</time></trkpt><trkpt lat="45.3952156" lon="14.2301837"><ele>1015.0</ele><time>2026-04-25T10:08:57.059Z</time></trkpt><trkpt lat="45.3951304" lon="14.2302167"><ele>1013.9999999999999</ele><time>2026-04-25T10:08:58.067Z</time></trkpt><trkpt lat="45.3950362" lon="14.2302484"><ele>1012.9999999999999</ele><time>2026-04-25T10:08:59.063Z</time></trkpt><trkpt lat="45.3949469" lon="14.2302834"><ele>1012.0</ele><time>2026-04-25T10:09:00.074Z</time></trkpt><trkpt lat="45.3948609" lon="14.2303097"><ele>1011.0</ele><time>2026-04-25T10:09:01.079Z</time></trkpt><trkpt lat="45.3947741" lon="14.230343"><ele>1011.0</ele><time>2026-04-25T10:09:02.065Z</time></trkpt><trkpt lat="45.3946898" lon="14.230377"><ele>1011.0</ele><time>2026-04-25T10:09:03.073Z</time></trkpt><trkpt lat="45.3946143" lon="14.2304198"><ele>1011.0</ele><time>2026-04-25T10:09:04.065Z</time></trkpt><trkpt lat="45.3945386" lon="14.2304581"><ele>1011.0</ele><time>2026-04-25T10:09:05.068Z</time></trkpt><trkpt lat="45.3944652" lon="14.2305071"><ele>1011.0</ele><time>2026-04-25T10:09:06.064Z</time></trkpt><trkpt lat="45.3943878" lon="14.2305634"><ele>1011.0</ele><time>2026-04-25T10:09:07.082Z</time></trkpt><trkpt lat="45.3943105" lon="14.2306246"><ele>1007.1666666666666</ele><time>2026-04-25T10:09:08.07Z</time></trkpt><trkpt lat="45.3942374" lon="14.2306849"><ele>1003.3333333333333</ele><time>2026-04-25T10:09:09.074Z</time></trkpt><trkpt lat="45.394176" lon="14.2307368"><ele>999.5</ele><time>2026-04-25T10:09:10.08Z</time></trkpt><trkpt lat="45.3940841" lon="14.2308062"><ele>995.6666666666666</ele><time>2026-04-25T10:09:12.082Z</time></trkpt><trkpt lat="45.3940332" lon="14.2309042"><ele>991.8333333333333</ele><time>2026-04-25T10:09:14.094Z</time></trkpt><trkpt lat="45.3940808" lon="14.2310082"><ele>988.0</ele><time>2026-04-25T10:09:17.07Z</time></trkpt><trkpt lat="45.3941583" lon="14.2310282"><ele>987.9999999999999</ele><time>2026-04-25T10:09:19.063Z</time></trkpt><trkpt lat="45.3942868" lon="14.2310348"><ele>988.0</ele><time>2026-04-25T10:09:21.057Z</time></trkpt><trkpt lat="45.3943559" lon="14.2310298"><ele>988.0</ele><time>2026-04-25T10:09:22.073Z</time></trkpt><trkpt lat="45.3944189" lon="14.2310315"><ele>988.0</ele><time>2026-04-25T10:09:23.078Z</time></trkpt><trkpt lat="45.394484" lon="14.2310278"><ele>987.9999999999999</ele><time>2026-04-25T10:09:24.077Z</time></trkpt><trkpt lat="45.3946052" lon="14.2310601"><ele>988.0</ele><time>2026-04-25T10:09:26.085Z</time></trkpt><trkpt lat="45.394722" lon="14.2311036"><ele>988.3333333333333</ele><time>2026-04-25T10:09:28.078Z</time></trkpt><trkpt lat="45.3948326" lon="14.2311446"><ele>988.6666666666666</ele><time>2026-04-25T10:09:30.07Z</time></trkpt><trkpt lat="45.3949376" lon="14.231216"><ele>989.0</ele><time>2026-04-25T10:09:32.068Z</time></trkpt><trkpt lat="45.3949895" lon="14.2312915"><ele>989.3333333333333</ele><time>2026-04-25T10:09:34.062Z</time></trkpt><trkpt lat="45.39499" lon="14.2313918"><ele>989.6666666666666</ele><time>2026-04-25T10:09:41.076Z</time></trkpt><trkpt lat="45.3949498" lon="14.2314694"><ele>990.0</ele><time>2026-04-25T10:09:43.06Z</time></trkpt><trkpt lat="45.3948896" lon="14.2315601"><ele>986.3333333333334</ele><time>2026-04-25T10:09:45.077Z</time></trkpt><trkpt lat="45.394815" lon="14.2316704"><ele>982.6666666666667</ele><time>2026-04-25T10:09:47.072Z</time></trkpt><trkpt lat="45.3947678" lon="14.2317329"><ele>979.0</ele><time>2026-04-25T10:09:48.088Z</time></trkpt><trkpt lat="45.3946739" lon="14.2318407"><ele>975.3333333333334</ele><time>2026-04-25T10:09:50.065Z</time></trkpt><trkpt lat="45.3946182" lon="14.2318828"><ele>971.6666666666667</ele><time>2026-04-25T10:09:51.074Z</time></trkpt><trkpt lat="45.3945497" lon="14.2319105"><ele>968.0</ele><time>2026-04-25T10:09:52.071Z</time></trkpt><trkpt lat="45.3944716" lon="14.231933"><ele>967.5000000000001</ele><time>2026-04-25T10:09:53.057Z</time></trkpt><trkpt lat="45.3943988" lon="14.2319553"><ele>967.0</ele><time>2026-04-25T10:09:54.076Z</time></trkpt><trkpt lat="45.3943343" lon="14.2319639"><ele>966.5</ele><time>2026-04-25T10:09:55.068Z</time></trkpt><trkpt lat="45.3942678" lon="14.2319898"><ele>966.0</ele><time>2026-04-25T10:09:56.076Z</time></trkpt><trkpt lat="45.3941626" lon="14.2320708"><ele>965.5000000000001</ele><time>2026-04-25T10:09:58.067Z</time></trkpt><trkpt lat="45.3940609" lon="14.2321185"><ele>965.0</ele><time>2026-04-25T10:10:00.067Z</time></trkpt><trkpt lat="45.3939371" lon="14.2321217"><ele>964.4</ele><time>2026-04-25T10:10:02.061Z</time></trkpt><trkpt lat="45.3938223" lon="14.2321573"><ele>963.8</ele><time>2026-04-25T10:10:04.065Z</time></trkpt><trkpt lat="45.393729" lon="14.2322339"><ele>963.2</ele><time>2026-04-25T10:10:06.076Z</time></trkpt><trkpt lat="45.3936465" lon="14.2323394"><ele>962.6</ele><time>2026-04-25T10:10:08.068Z</time></trkpt><trkpt lat="45.3936278" lon="14.2324617"><ele>962.0</ele><time>2026-04-25T10:10:10.062Z</time></trkpt><trkpt lat="45.3936388" lon="14.2325859"><ele>957.8</ele><time>2026-04-25T10:10:12.081Z</time></trkpt><trkpt lat="45.3936577" lon="14.2327273"><ele>953.6</ele><time>2026-04-25T10:10:14.078Z</time></trkpt><trkpt lat="45.3936686" lon="14.2328842"><ele>949.3999999999999</ele><time>2026-04-25T10:10:16.07Z</time></trkpt><trkpt lat="45.3936691" lon="14.23303"><ele>945.1999999999999</ele><time>2026-04-25T10:10:18.076Z</time></trkpt><trkpt lat="45.393658" lon="14.2331685"><ele>941.0</ele><time>2026-04-25T10:10:20.087Z</time></trkpt><trkpt lat="45.3936164" lon="14.2333069"><ele>938.1999999999999</ele><time>2026-04-25T10:10:22.06Z</time></trkpt><trkpt lat="45.3935556" lon="14.2333876"><ele>935.3999999999999</ele><time>2026-04-25T10:10:24.07Z</time></trkpt><trkpt lat="45.3934848" lon="14.233449"><ele>932.6</ele><time>2026-04-25T10:10:26.065Z</time></trkpt><trkpt lat="45.393395" lon="14.2334968"><ele>929.8</ele><time>2026-04-25T10:10:28.073Z</time></trkpt><trkpt lat="45.3932959" lon="14.2335243"><ele>927.0</ele><time>2026-04-25T10:10:30.08Z</time></trkpt><trkpt lat="45.3931795" lon="14.2335094"><ele>927.0</ele><time>2026-04-25T10:10:32.068Z</time></trkpt><trkpt lat="45.3931134" lon="14.2334859"><ele>927.0</ele><time>2026-04-25T10:10:33.067Z</time></trkpt><trkpt lat="45.3930045" lon="14.2334191"><ele>927.0</ele><time>2026-04-25T10:10:35.079Z</time></trkpt><trkpt lat="45.3929008" lon="14.2333645"><ele>927.0</ele><time>2026-04-25T10:10:37.084Z</time></trkpt><trkpt lat="45.392801" lon="14.2333135"><ele>927.0</ele><time>2026-04-25T10:10:39.081Z</time></trkpt><trkpt lat="45.3927523" lon="14.2332543"><ele>928.4000000000001</ele><time>2026-04-25T10:10:40.069Z</time></trkpt><trkpt lat="45.3927037" lon="14.2331959"><ele>929.8000000000001</ele><time>2026-04-25T10:10:41.069Z</time></trkpt><trkpt lat="45.3926125" lon="14.233079"><ele>931.2</ele><time>2026-04-25T10:10:43.077Z</time></trkpt><trkpt lat="45.3925091" lon="14.2330042"><ele>932.6</ele><time>2026-04-25T10:10:45.074Z</time></trkpt><trkpt lat="45.3923833" lon="14.2329912"><ele>934.0</ele><time>2026-04-25T10:10:47.072Z</time></trkpt><trkpt lat="45.3923179" lon="14.2330046"><ele>933.9999999999999</ele><time>2026-04-25T10:10:48.071Z</time></trkpt><trkpt lat="45.3922492" lon="14.2330226"><ele>934.0</ele><time>2026-04-25T10:10:49.076Z</time></trkpt><trkpt lat="45.3921779" lon="14.2330322"><ele>933.9999999999999</ele><time>2026-04-25T10:10:50.078Z</time></trkpt><trkpt lat="45.3921115" lon="14.2330413"><ele>933.9999999999999</ele><time>2026-04-25T10:10:51.074Z</time></trkpt><trkpt lat="45.3920401" lon="14.2330553"><ele>934.0</ele><time>2026-04-25T10:10:52.095Z</time></trkpt><trkpt lat="45.3919726" lon="14.2330739"><ele>933.9999999999999</ele><time>2026-04-25T10:10:53.06Z</time></trkpt><trkpt lat="45.3919081" lon="14.2330968"><ele>933.9999999999999</ele><time>2026-04-25T10:10:54.071Z</time></trkpt><trkpt lat="45.3918441" lon="14.2331392"><ele>928.9999999999999</ele><time>2026-04-25T10:10:55.073Z</time></trkpt><trkpt lat="45.3917773" lon="14.2331919"><ele>924.0</ele><time>2026-04-25T10:10:56.064Z</time></trkpt><trkpt lat="45.3917144" lon="14.2332486"><ele>919.0</ele><time>2026-04-25T10:10:57.07Z</time></trkpt><trkpt lat="45.3916508" lon="14.2333041"><ele>914.0</ele><time>2026-04-25T10:10:58.069Z</time></trkpt><trkpt lat="45.3915969" lon="14.2333651"><ele>908.9999999999999</ele><time>2026-04-25T10:10:59.069Z</time></trkpt><trkpt lat="45.3915458" lon="14.2334246"><ele>904.0</ele><time>2026-04-25T10:11:00.065Z</time></trkpt><trkpt lat="45.3914807" lon="14.2335273"><ele>903.9999999999999</ele><time>2026-04-25T10:11:02.067Z</time></trkpt><trkpt lat="45.3913664" lon="14.2335216"><ele>904.0</ele><time>2026-04-25T10:11:30.073Z</time></trkpt><trkpt lat="45.3912887" lon="14.2334746"><ele>904.0</ele><time>2026-04-25T10:11:31.084Z</time></trkpt><trkpt lat="45.3912183" lon="14.2334356"><ele>904.0</ele><time>2026-04-25T10:11:32.077Z</time></trkpt><trkpt lat="45.3911543" lon="14.2333943"><ele>903.9999999999999</ele><time>2026-04-25T10:11:33.069Z</time></trkpt><trkpt lat="45.3910864" lon="14.2333586"><ele>904.0</ele><time>2026-04-25T10:11:34.077Z</time></trkpt><trkpt lat="45.3910028" lon="14.2333217"><ele>905.2</ele><time>2026-04-25T10:11:35.075Z</time></trkpt><trkpt lat="45.3909023" lon="14.2332815"><ele>906.4000000000001</ele><time>2026-04-25T10:11:36.074Z</time></trkpt><trkpt lat="45.3908179" lon="14.2332546"><ele>907.6</ele><time>2026-04-25T10:11:37.082Z</time></trkpt><trkpt lat="45.3907233" lon="14.2332543"><ele>908.8</ele><time>2026-04-25T10:11:38.076Z</time></trkpt><trkpt lat="45.3906192" lon="14.2332707"><ele>910.0</ele><time>2026-04-25T10:11:39.071Z</time></trkpt><trkpt lat="45.3905069" lon="14.233301"><ele>912.5</ele><time>2026-04-25T10:11:40.083Z</time></trkpt><trkpt lat="45.3903934" lon="14.2333276"><ele>915.0</ele><time>2026-04-25T10:11:41.067Z</time></trkpt><trkpt lat="45.3902756" lon="14.2333499"><ele>917.5</ele><time>2026-04-25T10:11:42.09Z</time></trkpt><trkpt lat="45.3901509" lon="14.2333686"><ele>920.0</ele><time>2026-04-25T10:11:43.069Z</time></trkpt><trkpt lat="45.3900354" lon="14.2333897"><ele>920.0</ele><time>2026-04-25T10:11:44.068Z</time></trkpt><trkpt lat="45.3899262" lon="14.2334186"><ele>920.0</ele><time>2026-04-25T10:11:45.064Z</time></trkpt><trkpt lat="45.3898169" lon="14.2334554"><ele>920.0</ele><time>2026-04-25T10:11:46.077Z</time></trkpt><trkpt lat="45.3897086" lon="14.2334962"><ele>920.0</ele><time>2026-04-25T10:11:47.075Z</time></trkpt><trkpt lat="45.3896147" lon="14.2335611"><ele>920.0</ele><time>2026-04-25T10:11:48.084Z</time></trkpt><trkpt lat="45.3895261" lon="14.2336482"><ele>922.6</ele><time>2026-04-25T10:11:49.07Z</time></trkpt><trkpt lat="45.3894511" lon="14.2337464"><ele>925.2</ele><time>2026-04-25T10:11:50.057Z</time></trkpt><trkpt lat="45.3893699" lon="14.2338123"><ele>927.8</ele><time>2026-04-25T10:11:51.072Z</time></trkpt><trkpt lat="45.3892723" lon="14.233855"><ele>930.4</ele><time>2026-04-25T10:11:52.072Z</time></trkpt><trkpt lat="45.3891636" lon="14.2338908"><ele>933.0</ele><time>2026-04-25T10:11:53.067Z</time></trkpt><trkpt lat="45.3890522" lon="14.2339326"><ele>933.5</ele><time>2026-04-25T10:11:54.074Z</time></trkpt><trkpt lat="45.3889425" lon="14.2339931"><ele>934.0</ele><time>2026-04-25T10:11:55.063Z</time></trkpt><trkpt lat="45.3888318" lon="14.2340737"><ele>934.5</ele><time>2026-04-25T10:11:56.064Z</time></trkpt><trkpt lat="45.38873" lon="14.2341749"><ele>935.0</ele><time>2026-04-25T10:11:57.059Z</time></trkpt><trkpt lat="45.3886342" lon="14.2342769"><ele>935.0</ele><time>2026-04-25T10:11:58.064Z</time></trkpt><trkpt lat="45.3885386" lon="14.2343761"><ele>935.0</ele><time>2026-04-25T10:11:59.066Z</time></trkpt><trkpt lat="45.388449" lon="14.2344697"><ele>935.0</ele><time>2026-04-25T10:12:00.062Z</time></trkpt><trkpt lat="45.388365" lon="14.2345649"><ele>935.0</ele><time>2026-04-25T10:12:01.059Z</time></trkpt><trkpt lat="45.3882901" lon="14.234639"><ele>935.0</ele><time>2026-04-25T10:12:02.057Z</time></trkpt><trkpt lat="45.3882122" lon="14.2346741"><ele>935.0</ele><time>2026-04-25T10:12:03.064Z</time></trkpt><trkpt lat="45.3881204" lon="14.2346876"><ele>935.0</ele><time>2026-04-25T10:12:04.079Z</time></trkpt><trkpt lat="45.3880207" lon="14.2346923"><ele>935.0</ele><time>2026-04-25T10:12:05.052Z</time></trkpt><trkpt lat="45.3879201" lon="14.2346966"><ele>935.0</ele><time>2026-04-25T10:12:06.072Z</time></trkpt><trkpt lat="45.3878229" lon="14.2347091"><ele>935.0</ele><time>2026-04-25T10:12:07.07Z</time></trkpt><trkpt lat="45.3877342" lon="14.2347295"><ele>935.4</ele><time>2026-04-25T10:12:08.07Z</time></trkpt><trkpt lat="45.3876329" lon="14.2347693"><ele>935.8</ele><time>2026-04-25T10:12:09.068Z</time></trkpt><trkpt lat="45.3875399" lon="14.2348384"><ele>936.2</ele><time>2026-04-25T10:12:10.062Z</time></trkpt><trkpt lat="45.3874502" lon="14.2349116"><ele>936.6</ele><time>2026-04-25T10:12:11.076Z</time></trkpt><trkpt lat="45.3873626" lon="14.234958"><ele>937.0</ele><time>2026-04-25T10:12:12.069Z</time></trkpt><trkpt lat="45.3872721" lon="14.2349968"><ele>939.2</ele><time>2026-04-25T10:12:13.069Z</time></trkpt><trkpt lat="45.3871715" lon="14.2350312"><ele>941.4000000000001</ele><time>2026-04-25T10:12:14.068Z</time></trkpt><trkpt lat="45.3870648" lon="14.2350566"><ele>943.5999999999999</ele><time>2026-04-25T10:12:15.075Z</time></trkpt><trkpt lat="45.3869511" lon="14.2350774"><ele>945.8</ele><time>2026-04-25T10:12:16.069Z</time></trkpt><trkpt lat="45.3868466" lon="14.2350994"><ele>948.0</ele><time>2026-04-25T10:12:17.076Z</time></trkpt><trkpt lat="45.3867501" lon="14.2351134"><ele>948.0</ele><time>2026-04-25T10:12:18.079Z</time></trkpt><trkpt lat="45.3866569" lon="14.2351048"><ele>948.0</ele><time>2026-04-25T10:12:19.072Z</time></trkpt><trkpt lat="45.3865613" lon="14.2350655"><ele>948.0</ele><time>2026-04-25T10:12:20.073Z</time></trkpt><trkpt lat="45.3864666" lon="14.2349959"><ele>948.0</ele><time>2026-04-25T10:12:21.084Z</time></trkpt><trkpt lat="45.3863837" lon="14.2348312"><ele>948.0</ele><time>2026-04-25T10:12:22.064Z</time></trkpt><trkpt lat="45.3863222" lon="14.2346373"><ele>948.25</ele><time>2026-04-25T10:12:23.068Z</time></trkpt><trkpt lat="45.386268" lon="14.2344571"><ele>948.5</ele><time>2026-04-25T10:12:24.068Z</time></trkpt><trkpt lat="45.3862122" lon="14.2343026"><ele>948.75</ele><time>2026-04-25T10:12:25.069Z</time></trkpt><trkpt lat="45.3861566" lon="14.2341504"><ele>949.0</ele><time>2026-04-25T10:12:26.069Z</time></trkpt><trkpt lat="45.3861042" lon="14.2340123"><ele>950.8333333333333</ele><time>2026-04-25T10:12:27.078Z</time></trkpt><trkpt lat="45.3860709" lon="14.233887"><ele>952.6666666666666</ele><time>2026-04-25T10:12:28.067Z</time></trkpt><trkpt lat="45.3860686" lon="14.2337709"><ele>954.5</ele><time>2026-04-25T10:12:29.068Z</time></trkpt><trkpt lat="45.3860836" lon="14.2336693"><ele>956.3333333333333</ele><time>2026-04-25T10:12:30.069Z</time></trkpt><trkpt lat="45.3861007" lon="14.2335674"><ele>958.1666666666666</ele><time>2026-04-25T10:12:31.059Z</time></trkpt><trkpt lat="45.3860954" lon="14.2334168"><ele>960.0</ele><time>2026-04-25T10:12:33.068Z</time></trkpt><trkpt lat="45.3859929" lon="14.2333622"><ele>960.0</ele><time>2026-04-25T10:12:35.057Z</time></trkpt><trkpt lat="45.3859257" lon="14.2333585"><ele>960.0</ele><time>2026-04-25T10:12:36.061Z</time></trkpt><trkpt lat="45.3858412" lon="14.233342"><ele>960.0</ele><time>2026-04-25T10:12:37.072Z</time></trkpt><trkpt lat="45.3857683" lon="14.2332996"><ele>960.0</ele><time>2026-04-25T10:12:38.062Z</time></trkpt><trkpt lat="45.3856936" lon="14.2332386"><ele>960.0</ele><time>2026-04-25T10:12:39.072Z</time></trkpt><trkpt lat="45.3856173" lon="14.2332084"><ele>960.0</ele><time>2026-04-25T10:12:40.076Z</time></trkpt><trkpt lat="45.3855348" lon="14.2332234"><ele>961.6666666666666</ele><time>2026-04-25T10:12:41.072Z</time></trkpt><trkpt lat="45.3854695" lon="14.2332611"><ele>963.3333333333333</ele><time>2026-04-25T10:12:42.076Z</time></trkpt><trkpt lat="45.3853986" lon="14.2332982"><ele>965.0</ele><time>2026-04-25T10:12:43.076Z</time></trkpt><trkpt lat="45.3853234" lon="14.2333242"><ele>966.6666666666666</ele><time>2026-04-25T10:12:44.081Z</time></trkpt><trkpt lat="45.3852342" lon="14.2333519"><ele>968.3333333333333</ele><time>2026-04-25T10:12:45.073Z</time></trkpt><trkpt lat="45.3851425" lon="14.233367"><ele>970.0</ele><time>2026-04-25T10:12:46.075Z</time></trkpt><trkpt lat="45.3850604" lon="14.233383"><ele>969.9999999999999</ele><time>2026-04-25T10:12:47.074Z</time></trkpt><trkpt lat="45.3849932" lon="14.2333967"><ele>970.0</ele><time>2026-04-25T10:12:48.077Z</time></trkpt><trkpt lat="45.3849151" lon="14.2334037"><ele>970.0</ele><time>2026-04-25T10:12:55.094Z</time></trkpt><trkpt lat="45.3848204" lon="14.2333909"><ele>970.0</ele><time>2026-04-25T10:12:57.063Z</time></trkpt><trkpt lat="45.3847394" lon="14.2333794"><ele>969.9999999999999</ele><time>2026-04-25T10:12:58.067Z</time></trkpt><trkpt lat="45.3846625" lon="14.2333503"><ele>970.0</ele><time>2026-04-25T10:12:59.06Z</time></trkpt><trkpt lat="45.3845921" lon="14.2332954"><ele>971.2</ele><time>2026-04-25T10:13:00.074Z</time></trkpt><trkpt lat="45.3845212" lon="14.23321"><ele>972.4</ele><time>2026-04-25T10:13:01.07Z</time></trkpt><trkpt lat="45.3844565" lon="14.2330752"><ele>973.5999999999999</ele><time>2026-04-25T10:13:02.076Z</time></trkpt><trkpt lat="45.3844162" lon="14.2329267"><ele>974.8</ele><time>2026-04-25T10:13:03.062Z</time></trkpt><trkpt lat="45.3843826" lon="14.2327847"><ele>976.0</ele><time>2026-04-25T10:13:04.062Z</time></trkpt><trkpt lat="45.384332" lon="14.2326631"><ele>976.0</ele><time>2026-04-25T10:13:05.076Z</time></trkpt><trkpt lat="45.3842704" lon="14.2325435"><ele>975.9999999999999</ele><time>2026-04-25T10:13:06.075Z</time></trkpt><trkpt lat="45.3842088" lon="14.2324215"><ele>975.9999999999999</ele><time>2026-04-25T10:13:07.082Z</time></trkpt><trkpt lat="45.3841529" lon="14.2323026"><ele>976.0</ele><time>2026-04-25T10:13:08.085Z</time></trkpt><trkpt lat="45.3841079" lon="14.232189"><ele>976.0</ele><time>2026-04-25T10:13:09.089Z</time></trkpt><trkpt lat="45.3840712" lon="14.2320611"><ele>975.0</ele><time>2026-04-25T10:13:10.081Z</time></trkpt><trkpt lat="45.3840502" lon="14.2319264"><ele>974.0</ele><time>2026-04-25T10:13:11.075Z</time></trkpt><trkpt lat="45.3840616" lon="14.2317496"><ele>973.0</ele><time>2026-04-25T10:13:12.082Z</time></trkpt><trkpt lat="45.3840889" lon="14.2315532"><ele>972.0</ele><time>2026-04-25T10:13:13.066Z</time></trkpt><trkpt lat="45.3841026" lon="14.2313692"><ele>974.4000000000001</ele><time>2026-04-25T10:13:14.072Z</time></trkpt><trkpt lat="45.3841061" lon="14.2311974"><ele>976.8000000000001</ele><time>2026-04-25T10:13:15.066Z</time></trkpt><trkpt lat="45.3840946" lon="14.2310528"><ele>979.2</ele><time>2026-04-25T10:13:16.075Z</time></trkpt><trkpt lat="45.3840846" lon="14.2309336"><ele>981.6</ele><time>2026-04-25T10:13:17.075Z</time></trkpt><trkpt lat="45.3840839" lon="14.2308281"><ele>984.0</ele><time>2026-04-25T10:13:18.077Z</time></trkpt><trkpt lat="45.3841249" lon="14.2306643"><ele>987.4000000000001</ele><time>2026-04-25T10:13:20.077Z</time></trkpt><trkpt lat="45.3841805" lon="14.2306067"><ele>990.8000000000001</ele><time>2026-04-25T10:13:21.066Z</time></trkpt><trkpt lat="45.3842498" lon="14.230574"><ele>994.1999999999999</ele><time>2026-04-25T10:13:22.067Z</time></trkpt><trkpt lat="45.384345" lon="14.2305349"><ele>997.5999999999999</ele><time>2026-04-25T10:13:23.067Z</time></trkpt><trkpt lat="45.3844515" lon="14.2304818"><ele>1001.0</ele><time>2026-04-25T10:13:24.077Z</time></trkpt><trkpt lat="45.3845621" lon="14.2304361"><ele>1002.0</ele><time>2026-04-25T10:13:25.069Z</time></trkpt><trkpt lat="45.3846912" lon="14.2303981"><ele>1003.0</ele><time>2026-04-25T10:13:26.074Z</time></trkpt><trkpt lat="45.3848265" lon="14.2303773"><ele>1004.0</ele><time>2026-04-25T10:13:27.071Z</time></trkpt><trkpt lat="45.3849442" lon="14.2303706"><ele>1005.0</ele><time>2026-04-25T10:13:28.068Z</time></trkpt><trkpt lat="45.3850434" lon="14.230366"><ele>1005.0</ele><time>2026-04-25T10:13:29.064Z</time></trkpt><trkpt lat="45.3851216" lon="14.2303432"><ele>1005.0</ele><time>2026-04-25T10:13:30.075Z</time></trkpt><trkpt lat="45.3851857" lon="14.2302905"><ele>1005.0</ele><time>2026-04-25T10:13:31.074Z</time></trkpt><trkpt lat="45.385254" lon="14.2302086"><ele>1005.0</ele><time>2026-04-25T10:13:32.073Z</time></trkpt><trkpt lat="45.3853248" lon="14.230115"><ele>1005.0</ele><time>2026-04-25T10:13:33.062Z</time></trkpt><trkpt lat="45.385399" lon="14.2300413"><ele>1005.0</ele><time>2026-04-25T10:13:34.069Z</time></trkpt><trkpt lat="45.3854836" lon="14.2300102"><ele>1006.1666666666666</ele><time>2026-04-25T10:13:35.072Z</time></trkpt><trkpt lat="45.3855822" lon="14.2300144"><ele>1007.3333333333333</ele><time>2026-04-25T10:13:36.061Z</time></trkpt><trkpt lat="45.385674" lon="14.2300252"><ele>1008.5</ele><time>2026-04-25T10:13:37.062Z</time></trkpt><trkpt lat="45.3857678" lon="14.2300362"><ele>1009.6666666666666</ele><time>2026-04-25T10:13:38.078Z</time></trkpt><trkpt lat="45.3858513" lon="14.2300263"><ele>1010.8333333333333</ele><time>2026-04-25T10:13:39.074Z</time></trkpt><trkpt lat="45.3859204" lon="14.2299894"><ele>1012.0</ele><time>2026-04-25T10:13:40.074Z</time></trkpt><trkpt lat="45.3859895" lon="14.2299248"><ele>1011.9999999999999</ele><time>2026-04-25T10:13:41.079Z</time></trkpt><trkpt lat="45.3860539" lon="14.2298356"><ele>1012.0</ele><time>2026-04-25T10:13:42.06Z</time></trkpt><trkpt lat="45.3861195" lon="14.2297486"><ele>1012.0</ele><time>2026-04-25T10:13:43.066Z</time></trkpt><trkpt lat="45.3861811" lon="14.2296833"><ele>1012.0</ele><time>2026-04-25T10:13:44.076Z</time></trkpt><trkpt lat="45.386257" lon="14.2296496"><ele>1011.9999999999999</ele><time>2026-04-25T10:13:46.079Z</time></trkpt><trkpt lat="45.3862599" lon="14.2295526"><ele>1012.0</ele><time>2026-04-25T10:13:57.061Z</time></trkpt><trkpt lat="45.3862115" lon="14.2294532"><ele>1012.8333333333333</ele><time>2026-04-25T10:13:59.068Z</time></trkpt><trkpt lat="45.386163" lon="14.2293793"><ele>1013.6666666666666</ele><time>2026-04-25T10:14:00.081Z</time></trkpt><trkpt lat="45.3861058" lon="14.229294"><ele>1014.5</ele><time>2026-04-25T10:14:01.08Z</time></trkpt><trkpt lat="45.3860586" lon="14.2292073"><ele>1015.3333333333333</ele><time>2026-04-25T10:14:02.097Z</time></trkpt><trkpt lat="45.3860158" lon="14.2291079"><ele>1016.1666666666666</ele><time>2026-04-25T10:14:03.086Z</time></trkpt><trkpt lat="45.3859869" lon="14.2290024"><ele>1017.0</ele><time>2026-04-25T10:14:04.08Z</time></trkpt><trkpt lat="45.3859748" lon="14.2288875"><ele>1017.0</ele><time>2026-04-25T10:14:05.077Z</time></trkpt><trkpt lat="45.3859869" lon="14.2287684"><ele>1017.0</ele><time>2026-04-25T10:14:06.079Z</time></trkpt><trkpt lat="45.3860019" lon="14.2286662"><ele>1017.0</ele><time>2026-04-25T10:14:07.069Z</time></trkpt><trkpt lat="45.3860164" lon="14.2285609"><ele>1017.0</ele><time>2026-04-25T10:14:08.093Z</time></trkpt><trkpt lat="45.3860283" lon="14.2284525"><ele>1017.0</ele><time>2026-04-25T10:14:09.081Z</time></trkpt><trkpt lat="45.3860489" lon="14.2283364"><ele>1017.0</ele><time>2026-04-25T10:14:10.082Z</time></trkpt><trkpt lat="45.3860727" lon="14.2282158"><ele>1016.8</ele><time>2026-04-25T10:14:11.077Z</time></trkpt><trkpt lat="45.3860849" lon="14.2280899"><ele>1016.6</ele><time>2026-04-25T10:14:12.073Z</time></trkpt><trkpt lat="45.3860738" lon="14.2279588"><ele>1016.3999999999999</ele><time>2026-04-25T10:14:13.09Z</time></trkpt><trkpt lat="45.3860431" lon="14.2278171"><ele>1016.1999999999999</ele><time>2026-04-25T10:14:14.066Z</time></trkpt><trkpt lat="45.3859976" lon="14.2276807"><ele>1016.0</ele><time>2026-04-25T10:14:15.112Z</time></trkpt><trkpt lat="45.3859296" lon="14.2275511"><ele>1016.0</ele><time>2026-04-25T10:14:16.067Z</time></trkpt><trkpt lat="45.3858564" lon="14.2274294"><ele>1015.9999999999999</ele><time>2026-04-25T10:14:17.084Z</time></trkpt><trkpt lat="45.3857736" lon="14.2273209"><ele>1015.9999999999999</ele><time>2026-04-25T10:14:18.085Z</time></trkpt><trkpt lat="45.3856745" lon="14.2272347"><ele>1016.0</ele><time>2026-04-25T10:14:19.075Z</time></trkpt><trkpt lat="45.3855849" lon="14.2271659"><ele>1016.0</ele><time>2026-04-25T10:14:20.075Z</time></trkpt><trkpt lat="45.3854869" lon="14.2271187"><ele>1017.4</ele><time>2026-04-25T10:14:21.075Z</time></trkpt><trkpt lat="45.3853922" lon="14.2270992"><ele>1018.8</ele><time>2026-04-25T10:14:22.076Z</time></trkpt><trkpt lat="45.3852985" lon="14.2271041"><ele>1020.1999999999999</ele><time>2026-04-25T10:14:23.071Z</time></trkpt><trkpt lat="45.3851934" lon="14.2271419"><ele>1021.5999999999999</ele><time>2026-04-25T10:14:24.087Z</time></trkpt><trkpt lat="45.3851011" lon="14.2272262"><ele>1023.0</ele><time>2026-04-25T10:14:25.065Z</time></trkpt><trkpt lat="45.3850078" lon="14.2273367"><ele>1023.0</ele><time>2026-04-25T10:14:26.072Z</time></trkpt><trkpt lat="45.3849306" lon="14.227416"><ele>1023.0</ele><time>2026-04-25T10:14:27.074Z</time></trkpt><trkpt lat="45.3848479" lon="14.2274444"><ele>1023.0</ele><time>2026-04-25T10:14:28.08Z</time></trkpt><trkpt lat="45.3847641" lon="14.2274305"><ele>1023.0</ele><time>2026-04-25T10:14:29.082Z</time></trkpt><trkpt lat="45.3846568" lon="14.2274008"><ele>1023.0</ele><time>2026-04-25T10:14:30.067Z</time></trkpt><trkpt lat="45.3845373" lon="14.2273614"><ele>1024.6</ele><time>2026-04-25T10:14:31.076Z</time></trkpt><trkpt lat="45.384407" lon="14.2273176"><ele>1026.1999999999998</ele><time>2026-04-25T10:14:32.078Z</time></trkpt><trkpt lat="45.3842921" lon="14.2272896"><ele>1027.8</ele><time>2026-04-25T10:14:33.076Z</time></trkpt><trkpt lat="45.3841911" lon="14.2272797"><ele>1029.3999999999999</ele><time>2026-04-25T10:14:34.089Z</time></trkpt><trkpt lat="45.3841028" lon="14.2272937"><ele>1031.0</ele><time>2026-04-25T10:14:35.081Z</time></trkpt><trkpt lat="45.3840179" lon="14.2273412"><ele>1031.0</ele><time>2026-04-25T10:14:36.082Z</time></trkpt><trkpt lat="45.3839317" lon="14.2274183"><ele>1031.0</ele><time>2026-04-25T10:14:37.065Z</time></trkpt><trkpt lat="45.3838538" lon="14.2275302"><ele>1031.0</ele><time>2026-04-25T10:14:38.065Z</time></trkpt><trkpt lat="45.3837818" lon="14.2276408"><ele>1031.0</ele><time>2026-04-25T10:14:39.065Z</time></trkpt><trkpt lat="45.3837097" lon="14.2277451"><ele>1031.0</ele><time>2026-04-25T10:14:40.065Z</time></trkpt><trkpt lat="45.3836421" lon="14.227817"><ele>1033.1666666666667</ele><time>2026-04-25T10:14:41.072Z</time></trkpt><trkpt lat="45.3835809" lon="14.2278717"><ele>1035.3333333333335</ele><time>2026-04-25T10:14:42.067Z</time></trkpt><trkpt lat="45.3835135" lon="14.2279003"><ele>1037.5</ele><time>2026-04-25T10:14:43.07Z</time></trkpt><trkpt lat="45.383438" lon="14.2278847"><ele>1039.6666666666667</ele><time>2026-04-25T10:14:44.078Z</time></trkpt><trkpt lat="45.3833607" lon="14.2278433"><ele>1041.8333333333333</ele><time>2026-04-25T10:14:45.066Z</time></trkpt><trkpt lat="45.3832875" lon="14.2278377"><ele>1044.0</ele><time>2026-04-25T10:14:46.066Z</time></trkpt><trkpt lat="45.3832121" lon="14.2278575"><ele>1044.0</ele><time>2026-04-25T10:14:47.085Z</time></trkpt><trkpt lat="45.3831362" lon="14.2279201"><ele>1044.0</ele><time>2026-04-25T10:14:48.071Z</time></trkpt><trkpt lat="45.3830663" lon="14.2280156"><ele>1044.0</ele><time>2026-04-25T10:14:49.073Z</time></trkpt><trkpt lat="45.383" lon="14.2281157"><ele>1044.0</ele><time>2026-04-25T10:14:50.075Z</time></trkpt><trkpt lat="45.3829361" lon="14.2282122"><ele>1044.0</ele><time>2026-04-25T10:14:51.077Z</time></trkpt><trkpt lat="45.382862" lon="14.2283193"><ele>1041.5</ele><time>2026-04-25T10:14:52.08Z</time></trkpt><trkpt lat="45.3827661" lon="14.2284417"><ele>1039.0</ele><time>2026-04-25T10:14:53.069Z</time></trkpt><trkpt lat="45.3826611" lon="14.228554"><ele>1036.5</ele><time>2026-04-25T10:14:54.089Z</time></trkpt><trkpt lat="45.3825574" lon="14.2286392"><ele>1034.0</ele><time>2026-04-25T10:14:55.075Z</time></trkpt><trkpt lat="45.3824509" lon="14.2287056"><ele>1034.0</ele><time>2026-04-25T10:14:56.078Z</time></trkpt><trkpt lat="45.3823429" lon="14.2287518"><ele>1034.0</ele><time>2026-04-25T10:14:57.079Z</time></trkpt><trkpt lat="45.382238" lon="14.2287871"><ele>1034.0</ele><time>2026-04-25T10:14:58.079Z</time></trkpt><trkpt lat="45.3821378" lon="14.2288182"><ele>1034.0</ele><time>2026-04-25T10:14:59.079Z</time></trkpt><trkpt lat="45.3820357" lon="14.2288283"><ele>1034.0</ele><time>2026-04-25T10:15:00.08Z</time></trkpt><trkpt lat="45.3819423" lon="14.2288121"><ele>1036.0</ele><time>2026-04-25T10:15:01.077Z</time></trkpt><trkpt lat="45.3818586" lon="14.2287647"><ele>1038.0</ele><time>2026-04-25T10:15:02.071Z</time></trkpt><trkpt lat="45.3817797" lon="14.2286953"><ele>1040.0</ele><time>2026-04-25T10:15:03.077Z</time></trkpt><trkpt lat="45.3816946" lon="14.2286033"><ele>1042.0</ele><time>2026-04-25T10:15:04.08Z</time></trkpt><trkpt lat="45.3816044" lon="14.2285032"><ele>1044.0</ele><time>2026-04-25T10:15:05.073Z</time></trkpt><trkpt lat="45.3815243" lon="14.2284334"><ele>1044.0</ele><time>2026-04-25T10:15:06.076Z</time></trkpt><trkpt lat="45.3814512" lon="14.2284116"><ele>1044.0</ele><time>2026-04-25T10:15:07.083Z</time></trkpt><trkpt lat="45.381373" lon="14.2284198"><ele>1044.0</ele><time>2026-04-25T10:15:08.065Z</time></trkpt><trkpt lat="45.3812902" lon="14.2284556"><ele>1044.0</ele><time>2026-04-25T10:15:09.064Z</time></trkpt><trkpt lat="45.3811957" lon="14.2285105"><ele>1044.0</ele><time>2026-04-25T10:15:10.068Z</time></trkpt><trkpt lat="45.381085" lon="14.228572"><ele>1045.5</ele><time>2026-04-25T10:15:11.076Z</time></trkpt><trkpt lat="45.3809527" lon="14.2286403"><ele>1047.0</ele><time>2026-04-25T10:15:12.068Z</time></trkpt><trkpt lat="45.3808108" lon="14.2286869"><ele>1048.5</ele><time>2026-04-25T10:15:13.063Z</time></trkpt><trkpt lat="45.3806809" lon="14.2287233"><ele>1050.0</ele><time>2026-04-25T10:15:14.078Z</time></trkpt><trkpt lat="45.3805689" lon="14.2287794"><ele>1049.0</ele><time>2026-04-25T10:15:15.068Z</time></trkpt><trkpt lat="45.3804857" lon="14.2288556"><ele>1048.0</ele><time>2026-04-25T10:15:16.073Z</time></trkpt><trkpt lat="45.3804317" lon="14.228941"><ele>1047.0</ele><time>2026-04-25T10:15:17.058Z</time></trkpt><trkpt lat="45.3803661" lon="14.2290203"><ele>1046.0</ele><time>2026-04-25T10:15:19.064Z</time></trkpt><trkpt lat="45.3803647" lon="14.2289193"><ele>1045.0</ele><time>2026-04-25T10:15:49.065Z</time></trkpt><trkpt lat="45.3803176" lon="14.2287325"><ele>1045.0</ele><time>2026-04-25T10:15:51.063Z</time></trkpt><trkpt lat="45.3802873" lon="14.2286252"><ele>1045.0</ele><time>2026-04-25T10:15:52.077Z</time></trkpt><trkpt lat="45.3802555" lon="14.2285305"><ele>1045.0</ele><time>2026-04-25T10:15:53.07Z</time></trkpt><trkpt lat="45.3802214" lon="14.228442"><ele>1045.0</ele><time>2026-04-25T10:15:54.064Z</time></trkpt><trkpt lat="45.3801827" lon="14.2283608"><ele>1045.0</ele><time>2026-04-25T10:15:55.085Z</time></trkpt><trkpt lat="45.3801514" lon="14.228265"><ele>1045.0</ele><time>2026-04-25T10:15:56.066Z</time></trkpt><trkpt lat="45.3801203" lon="14.2281697"><ele>1045.0</ele><time>2026-04-25T10:15:57.068Z</time></trkpt><trkpt lat="45.3800941" lon="14.2280742"><ele>1046.8333333333333</ele><time>2026-04-25T10:15:58.06Z</time></trkpt><trkpt lat="45.3800757" lon="14.2279749"><ele>1048.6666666666665</ele><time>2026-04-25T10:15:59.07Z</time></trkpt><trkpt lat="45.3800566" lon="14.2278659"><ele>1050.5</ele><time>2026-04-25T10:16:00.07Z</time></trkpt><trkpt lat="45.3800382" lon="14.2277683"><ele>1052.3333333333333</ele><time>2026-04-25T10:16:01.068Z</time></trkpt><trkpt lat="45.3800164" lon="14.227674"><ele>1054.1666666666667</ele><time>2026-04-25T10:16:02.071Z</time></trkpt><trkpt lat="45.3800075" lon="14.2275818"><ele>1056.0</ele><time>2026-04-25T10:16:03.073Z</time></trkpt><trkpt lat="45.3799948" lon="14.2274385"><ele>1056.0</ele><time>2026-04-25T10:16:05.069Z</time></trkpt><trkpt lat="45.3799241" lon="14.2273784"><ele>1056.0</ele><time>2026-04-25T10:16:07.061Z</time></trkpt><trkpt lat="45.3797985" lon="14.2273471"><ele>1056.0</ele><time>2026-04-25T10:16:09.055Z</time></trkpt><trkpt lat="45.3797256" lon="14.2273466"><ele>1056.0</ele><time>2026-04-25T10:16:10.085Z</time></trkpt><trkpt lat="45.3796438" lon="14.2273448"><ele>1056.0</ele><time>2026-04-25T10:16:11.076Z</time></trkpt><trkpt lat="45.379561" lon="14.2273357"><ele>1056.0</ele><time>2026-04-25T10:16:12.07Z</time></trkpt><trkpt lat="45.3794888" lon="14.2273162"><ele>1055.142857142857</ele><time>2026-04-25T10:16:13.067Z</time></trkpt><trkpt lat="45.379415" lon="14.2272931"><ele>1054.2857142857142</ele><time>2026-04-25T10:16:14.081Z</time></trkpt><trkpt lat="45.3793599" lon="14.2272314"><ele>1053.4285714285716</ele><time>2026-04-25T10:16:15.07Z</time></trkpt><trkpt lat="45.3793241" lon="14.2271462"><ele>1052.5714285714284</ele><time>2026-04-25T10:16:16.076Z</time></trkpt><trkpt lat="45.3793056" lon="14.2270446"><ele>1051.7142857142858</ele><time>2026-04-25T10:16:17.071Z</time></trkpt><trkpt lat="45.3793021" lon="14.2269391"><ele>1050.857142857143</ele><time>2026-04-25T10:16:18.068Z</time></trkpt><trkpt lat="45.3793188" lon="14.2268405"><ele>1050.0</ele><time>2026-04-25T10:16:19.064Z</time></trkpt><trkpt lat="45.3793504" lon="14.2267449"><ele>1050.0</ele><time>2026-04-25T10:16:20.068Z</time></trkpt><trkpt lat="45.3793677" lon="14.2266353"><ele>1050.0</ele><time>2026-04-25T10:16:21.072Z</time></trkpt><trkpt lat="45.3793635" lon="14.2265276"><ele>1050.0</ele><time>2026-04-25T10:16:22.076Z</time></trkpt><trkpt lat="45.3793527" lon="14.2264242"><ele>1050.0</ele><time>2026-04-25T10:16:23.091Z</time></trkpt><trkpt lat="45.3793268" lon="14.2263221"><ele>1050.0</ele><time>2026-04-25T10:16:24.086Z</time></trkpt><trkpt lat="45.3792901" lon="14.2262348"><ele>1050.0</ele><time>2026-04-25T10:16:25.07Z</time></trkpt><trkpt lat="45.3792384" lon="14.2261694"><ele>1050.0</ele><time>2026-04-25T10:16:26.083Z</time></trkpt><trkpt lat="45.379183" lon="14.2261153"><ele>1050.3333333333333</ele><time>2026-04-25T10:16:27.073Z</time></trkpt><trkpt lat="45.3791418" lon="14.2260401"><ele>1050.6666666666667</ele><time>2026-04-25T10:16:28.08Z</time></trkpt><trkpt lat="45.3791381" lon="14.2258747"><ele>1051.0</ele><time>2026-04-25T10:16:30.07Z</time></trkpt><trkpt lat="45.3791961" lon="14.2257713"><ele>1051.3333333333335</ele><time>2026-04-25T10:16:32.063Z</time></trkpt><trkpt lat="45.379296" lon="14.2257651"><ele>1051.6666666666667</ele><time>2026-04-25T10:16:34.064Z</time></trkpt><trkpt lat="45.3793682" lon="14.2257675"><ele>1052.0</ele><time>2026-04-25T10:16:35.064Z</time></trkpt><trkpt lat="45.3794328" lon="14.2257484"><ele>1052.0</ele><time>2026-04-25T10:16:36.079Z</time></trkpt><trkpt lat="45.3795071" lon="14.2256488"><ele>1052.0</ele><time>2026-04-25T10:16:38.063Z</time></trkpt><trkpt lat="45.3795115" lon="14.2254937"><ele>1052.0</ele><time>2026-04-25T10:16:40.062Z</time></trkpt><trkpt lat="45.379428" lon="14.2253673"><ele>1052.0</ele><time>2026-04-25T10:16:42.064Z</time></trkpt><trkpt lat="45.3793418" lon="14.2253053"><ele>1052.0</ele><time>2026-04-25T10:16:43.06Z</time></trkpt><trkpt lat="45.3792284" lon="14.2252406"><ele>1052.8333333333335</ele><time>2026-04-25T10:16:44.059Z</time></trkpt><trkpt lat="45.3791362" lon="14.2251744"><ele>1053.6666666666667</ele><time>2026-04-25T10:16:45.063Z</time></trkpt><trkpt lat="45.3790607" lon="14.2251119"><ele>1054.5</ele><time>2026-04-25T10:16:46.091Z</time></trkpt><trkpt lat="45.3790091" lon="14.2250538"><ele>1055.3333333333333</ele><time>2026-04-25T10:16:47.076Z</time></trkpt><trkpt lat="45.3789607" lon="14.224897"><ele>1056.1666666666665</ele><time>2026-04-25T10:16:49.063Z</time></trkpt><trkpt lat="45.3789586" lon="14.2248"><ele>1057.0</ele><time>2026-04-25T10:16:50.068Z</time></trkpt><trkpt lat="45.3789555" lon="14.2246884"><ele>1057.6666666666665</ele><time>2026-04-25T10:16:51.063Z</time></trkpt><trkpt lat="45.378923" lon="14.2245913"><ele>1058.3333333333333</ele><time>2026-04-25T10:16:52.08Z</time></trkpt><trkpt lat="45.3788796" lon="14.224523"><ele>1059.0</ele><time>2026-04-25T10:16:53.072Z</time></trkpt><trkpt lat="45.378814" lon="14.2244776"><ele>1059.6666666666667</ele><time>2026-04-25T10:16:54.067Z</time></trkpt><trkpt lat="45.3787357" lon="14.2244595"><ele>1060.3333333333335</ele><time>2026-04-25T10:16:55.064Z</time></trkpt><trkpt lat="45.3786354" lon="14.2244585"><ele>1061.0</ele><time>2026-04-25T10:16:56.061Z</time></trkpt><trkpt lat="45.3785416" lon="14.2244512"><ele>1061.0</ele><time>2026-04-25T10:16:57.065Z</time></trkpt><trkpt lat="45.3784503" lon="14.2244505"><ele>1061.0</ele><time>2026-04-25T10:16:58.075Z</time></trkpt><trkpt lat="45.3783672" lon="14.2244484"><ele>1061.0</ele><time>2026-04-25T10:16:59.072Z</time></trkpt><trkpt lat="45.3783006" lon="14.2244138"><ele>1061.0</ele><time>2026-04-25T10:17:00.073Z</time></trkpt><trkpt lat="45.3782491" lon="14.2243535"><ele>1061.0</ele><time>2026-04-25T10:17:01.079Z</time></trkpt><trkpt lat="45.3781897" lon="14.224274"><ele>1061.0</ele><time>2026-04-25T10:17:02.066Z</time></trkpt><trkpt lat="45.3781387" lon="14.2241864"><ele>1061.0</ele><time>2026-04-25T10:17:03.073Z</time></trkpt><trkpt lat="45.3780829" lon="14.2240914"><ele>1061.0</ele><time>2026-04-25T10:17:04.076Z</time></trkpt><trkpt lat="45.3780266" lon="14.2239971"><ele>1061.0</ele><time>2026-04-25T10:17:05.076Z</time></trkpt><trkpt lat="45.3779753" lon="14.2239007"><ele>1061.0</ele><time>2026-04-25T10:17:06.084Z</time></trkpt><trkpt lat="45.3779235" lon="14.2238092"><ele>1061.0</ele><time>2026-04-25T10:17:07.082Z</time></trkpt><trkpt lat="45.3778857" lon="14.2237147"><ele>1061.0</ele><time>2026-04-25T10:17:08.076Z</time></trkpt><trkpt lat="45.3778887" lon="14.2236231"><ele>1060.8333333333335</ele><time>2026-04-25T10:17:09.075Z</time></trkpt><trkpt lat="45.3779207" lon="14.2235371"><ele>1060.6666666666667</ele><time>2026-04-25T10:17:10.073Z</time></trkpt><trkpt lat="45.3779682" lon="14.2234537"><ele>1060.5</ele><time>2026-04-25T10:17:11.062Z</time></trkpt><trkpt lat="45.3780303" lon="14.2233654"><ele>1060.3333333333333</ele><time>2026-04-25T10:17:12.075Z</time></trkpt><trkpt lat="45.3780931" lon="14.2232672"><ele>1060.1666666666665</ele><time>2026-04-25T10:17:13.073Z</time></trkpt><trkpt lat="45.3781536" lon="14.2231647"><ele>1060.0</ele><time>2026-04-25T10:17:14.076Z</time></trkpt><trkpt lat="45.3782116" lon="14.2230632"><ele>1060.0</ele><time>2026-04-25T10:17:15.072Z</time></trkpt><trkpt lat="45.3782636" lon="14.2229789"><ele>1060.0</ele><time>2026-04-25T10:17:16.072Z</time></trkpt><trkpt lat="45.3783104" lon="14.222887"><ele>1060.0</ele><time>2026-04-25T10:17:17.081Z</time></trkpt><trkpt lat="45.3783758" lon="14.2227974"><ele>1060.0</ele><time>2026-04-25T10:17:18.076Z</time></trkpt><trkpt lat="45.3784572" lon="14.2227172"><ele>1060.0</ele><time>2026-04-25T10:17:19.077Z</time></trkpt><trkpt lat="45.3785357" lon="14.2226508"><ele>1060.0</ele><time>2026-04-25T10:17:20.086Z</time></trkpt><trkpt lat="45.3786097" lon="14.2225981"><ele>1060.0</ele><time>2026-04-25T10:17:21.081Z</time></trkpt><trkpt lat="45.3786808" lon="14.2225424"><ele>1060.0</ele><time>2026-04-25T10:17:22.075Z</time></trkpt><trkpt lat="45.3787505" lon="14.222489"><ele>1060.0</ele><time>2026-04-25T10:17:23.078Z</time></trkpt><trkpt lat="45.3788125" lon="14.2224221"><ele>1060.0</ele><time>2026-04-25T10:17:24.075Z</time></trkpt><trkpt lat="45.3788536" lon="14.2223418"><ele>1060.0</ele><time>2026-04-25T10:17:25.084Z</time></trkpt><trkpt lat="45.3788722" lon="14.2222451"><ele>1060.0</ele><time>2026-04-25T10:17:26.068Z</time></trkpt><trkpt lat="45.3788768" lon="14.2221408"><ele>1060.1666666666665</ele><time>2026-04-25T10:17:27.092Z</time></trkpt><trkpt lat="45.378879" lon="14.2220321"><ele>1060.3333333333333</ele><time>2026-04-25T10:17:28.07Z</time></trkpt><trkpt lat="45.3788879" lon="14.2219207"><ele>1060.5</ele><time>2026-04-25T10:17:29.09Z</time></trkpt><trkpt lat="45.3788951" lon="14.2218054"><ele>1060.6666666666667</ele><time>2026-04-25T10:17:30.085Z</time></trkpt><trkpt lat="45.3789" lon="14.2216732"><ele>1060.8333333333335</ele><time>2026-04-25T10:17:31.072Z</time></trkpt><trkpt lat="45.3789022" lon="14.2215543"><ele>1061.0</ele><time>2026-04-25T10:17:32.078Z</time></trkpt><trkpt lat="45.3788923" lon="14.2214468"><ele>1061.1666666666667</ele><time>2026-04-25T10:17:33.084Z</time></trkpt><trkpt lat="45.3788525" lon="14.2213525"><ele>1061.3333333333335</ele><time>2026-04-25T10:17:34.073Z</time></trkpt><trkpt lat="45.3788042" lon="14.2212598"><ele>1061.5</ele><time>2026-04-25T10:17:35.078Z</time></trkpt><trkpt lat="45.3787698" lon="14.2211683"><ele>1061.6666666666667</ele><time>2026-04-25T10:17:36.082Z</time></trkpt><trkpt lat="45.3787899" lon="14.2210563"><ele>1061.8333333333333</ele><time>2026-04-25T10:17:38.076Z</time></trkpt><trkpt lat="45.3788928" lon="14.2209726"><ele>1062.0</ele><time>2026-04-25T10:17:40.064Z</time></trkpt><trkpt lat="45.3789624" lon="14.2209196"><ele>1062.0</ele><time>2026-04-25T10:17:41.064Z</time></trkpt><trkpt lat="45.3790307" lon="14.2208619"><ele>1062.0</ele><time>2026-04-25T10:17:42.075Z</time></trkpt><trkpt lat="45.3790976" lon="14.2208009"><ele>1062.0</ele><time>2026-04-25T10:17:43.081Z</time></trkpt><trkpt lat="45.3791508" lon="14.2207316"><ele>1062.0</ele><time>2026-04-25T10:17:44.074Z</time></trkpt><trkpt lat="45.3792027" lon="14.2206394"><ele>1062.0</ele><time>2026-04-25T10:17:45.086Z</time></trkpt><trkpt lat="45.3792409" lon="14.2205518"><ele>1062.0</ele><time>2026-04-25T10:17:46.069Z</time></trkpt><trkpt lat="45.3792566" lon="14.2204445"><ele>1060.8333333333333</ele><time>2026-04-25T10:17:47.076Z</time></trkpt><trkpt lat="45.3792517" lon="14.2203403"><ele>1059.6666666666667</ele><time>2026-04-25T10:17:48.073Z</time></trkpt><trkpt lat="45.3792261" lon="14.2202386"><ele>1058.5</ele><time>2026-04-25T10:17:49.064Z</time></trkpt><trkpt lat="45.3791868" lon="14.2201475"><ele>1057.3333333333335</ele><time>2026-04-25T10:17:50.074Z</time></trkpt><trkpt lat="45.3791522" lon="14.2200643"><ele>1056.1666666666667</ele><time>2026-04-25T10:17:51.07Z</time></trkpt><trkpt lat="45.3791556" lon="14.2198987"><ele>1055.0</ele><time>2026-04-25T10:17:53.077Z</time></trkpt><trkpt lat="45.3791888" lon="14.2197971"><ele>1053.0</ele><time>2026-04-25T10:17:54.065Z</time></trkpt><trkpt lat="45.3792207" lon="14.219701"><ele>1051.0</ele><time>2026-04-25T10:17:55.068Z</time></trkpt><trkpt lat="45.3792636" lon="14.2195863"><ele>1049.0</ele><time>2026-04-25T10:17:56.073Z</time></trkpt><trkpt lat="45.3793065" lon="14.2194767"><ele>1047.0</ele><time>2026-04-25T10:17:57.072Z</time></trkpt><trkpt lat="45.3793611" lon="14.2193754"><ele>1045.0</ele><time>2026-04-25T10:17:58.073Z</time></trkpt><trkpt lat="45.3794186" lon="14.2192958"><ele>1043.0</ele><time>2026-04-25T10:17:59.079Z</time></trkpt><trkpt lat="45.3794844" lon="14.219215"><ele>1043.0</ele><time>2026-04-25T10:18:00.078Z</time></trkpt><trkpt lat="45.3795588" lon="14.2191198"><ele>1043.0</ele><time>2026-04-25T10:18:01.08Z</time></trkpt><trkpt lat="45.3796296" lon="14.2190369"><ele>1043.0</ele><time>2026-04-25T10:18:02.076Z</time></trkpt><trkpt lat="45.3796959" lon="14.2189413"><ele>1043.0</ele><time>2026-04-25T10:18:03.089Z</time></trkpt><trkpt lat="45.3797621" lon="14.218838"><ele>1043.0</ele><time>2026-04-25T10:18:04.076Z</time></trkpt><trkpt lat="45.3798232" lon="14.218737"><ele>1043.4</ele><time>2026-04-25T10:18:05.076Z</time></trkpt><trkpt lat="45.3798829" lon="14.2186328"><ele>1043.8</ele><time>2026-04-25T10:18:06.075Z</time></trkpt><trkpt lat="45.379923" lon="14.2185217"><ele>1044.2</ele><time>2026-04-25T10:18:07.072Z</time></trkpt><trkpt lat="45.3799591" lon="14.2183995"><ele>1044.6</ele><time>2026-04-25T10:18:08.072Z</time></trkpt><trkpt lat="45.3799867" lon="14.2182726"><ele>1045.0</ele><time>2026-04-25T10:18:09.074Z</time></trkpt><trkpt lat="45.3800134" lon="14.2181477"><ele>1044.3333333333333</ele><time>2026-04-25T10:18:10.07Z</time></trkpt><trkpt lat="45.3800371" lon="14.2180141"><ele>1043.6666666666665</ele><time>2026-04-25T10:18:11.082Z</time></trkpt><trkpt lat="45.3800569" lon="14.2178882"><ele>1043.0</ele><time>2026-04-25T10:18:12.081Z</time></trkpt><trkpt lat="45.3800706" lon="14.2177785"><ele>1042.3333333333333</ele><time>2026-04-25T10:18:13.074Z</time></trkpt><trkpt lat="45.3800701" lon="14.2176858"><ele>1041.6666666666667</ele><time>2026-04-25T10:18:14.079Z</time></trkpt><trkpt lat="45.3800355" lon="14.2176011"><ele>1041.0</ele><time>2026-04-25T10:18:16.073Z</time></trkpt><trkpt lat="45.3799839" lon="14.2175423"><ele>1041.0</ele><time>2026-04-25T10:18:19.082Z</time></trkpt><trkpt lat="45.3800648" lon="14.217564"><ele>1041.0</ele><time>2026-04-25T10:19:31.094Z</time></trkpt><trkpt lat="45.3801481" lon="14.2175114"><ele>1041.0</ele><time>2026-04-25T10:19:33.076Z</time></trkpt><trkpt lat="45.3802308" lon="14.2173779"><ele>1041.0</ele><time>2026-04-25T10:19:35.069Z</time></trkpt><trkpt lat="45.3802923" lon="14.2172348"><ele>1041.0</ele><time>2026-04-25T10:19:37.088Z</time></trkpt><trkpt lat="45.3803704" lon="14.2171242"><ele>1040.5</ele><time>2026-04-25T10:19:39.089Z</time></trkpt><trkpt lat="45.3804411" lon="14.2170924"><ele>1040.0</ele><time>2026-04-25T10:19:55.094Z</time></trkpt><trkpt lat="45.3804837" lon="14.2169914"><ele>1039.5</ele><time>2026-04-25T10:19:58.092Z</time></trkpt><trkpt lat="45.3805251" lon="14.2168486"><ele>1039.0</ele><time>2026-04-25T10:20:00.093Z</time></trkpt><trkpt lat="45.3805635" lon="14.2167158"><ele>1038.5</ele><time>2026-04-25T10:20:02.091Z</time></trkpt><trkpt lat="45.3805894" lon="14.216627"><ele>1038.0</ele><time>2026-04-25T10:20:04.086Z</time></trkpt><trkpt lat="45.3806476" lon="14.2165658"><ele>1040.3333333333333</ele><time>2026-04-25T10:20:06.073Z</time></trkpt><trkpt lat="45.3807196" lon="14.2164981"><ele>1042.6666666666667</ele><time>2026-04-25T10:20:08.081Z</time></trkpt><trkpt lat="45.3807841" lon="14.2164269"><ele>1045.0</ele><time>2026-04-25T10:20:10.098Z</time></trkpt><trkpt lat="45.3808497" lon="14.2163844"><ele>1047.3333333333335</ele><time>2026-04-25T10:20:17.093Z</time></trkpt><trkpt lat="45.3809095" lon="14.2163553"><ele>1049.6666666666667</ele><time>2026-04-25T10:20:23.087Z</time></trkpt><trkpt lat="45.3808293" lon="14.2163868"><ele>1052.0</ele><time>2026-04-25T10:20:47.096Z</time></trkpt><trkpt lat="45.3807382" lon="14.2164502"><ele>1052.0</ele><time>2026-04-25T10:20:49.095Z</time></trkpt><trkpt lat="45.3806628" lon="14.2165162"><ele>1052.0</ele><time>2026-04-25T10:20:51.084Z</time></trkpt><trkpt lat="45.3805934" lon="14.216591"><ele>1052.0</ele><time>2026-04-25T10:20:53.096Z</time></trkpt><trkpt lat="45.3805493" lon="14.2166975"><ele>1052.0</ele><time>2026-04-25T10:20:56.073Z</time></trkpt><trkpt lat="45.380518" lon="14.2168066"><ele>1052.0</ele><time>2026-04-25T10:20:58.097Z</time></trkpt><trkpt lat="45.3805052" lon="14.2168987"><ele>1052.0</ele><time>2026-04-25T10:20:59.096Z</time></trkpt><trkpt lat="45.3804831" lon="14.2170059"><ele>1052.0</ele><time>2026-04-25T10:21:02.108Z</time></trkpt><trkpt lat="45.3805417" lon="14.2170629"><ele>1052.0</ele><time>2026-04-25T10:21:10.105Z</time></trkpt><trkpt lat="45.3806335" lon="14.2170299"><ele>1052.0</ele><time>2026-04-25T10:21:13.099Z</time></trkpt><trkpt lat="45.3806977" lon="14.2170131"><ele>1052.0</ele><time>2026-04-25T10:21:38.107Z</time></trkpt><trkpt lat="45.3806159" lon="14.2170009"><ele>1052.0</ele><time>2026-04-25T10:21:58.1Z</time></trkpt><trkpt lat="45.3805411" lon="14.2170438"><ele>1052.0</ele><time>2026-04-25T10:21:59.089Z</time></trkpt><trkpt lat="45.3804759" lon="14.2170679"><ele>1049.25</ele><time>2026-04-25T10:22:00.092Z</time></trkpt><trkpt lat="45.3803601" lon="14.217136"><ele>1046.5</ele><time>2026-04-25T10:22:02.103Z</time></trkpt><trkpt lat="45.3802767" lon="14.2172414"><ele>1043.75</ele><time>2026-04-25T10:22:04.12Z</time></trkpt><trkpt lat="45.3802105" lon="14.2173819"><ele>1041.0</ele><time>2026-04-25T10:22:06.094Z</time></trkpt><trkpt lat="45.3801394" lon="14.2175235"><ele>1041.0</ele><time>2026-04-25T10:22:08.1Z</time></trkpt><trkpt lat="45.3800855" lon="14.2176516"><ele>1041.0</ele><time>2026-04-25T10:22:10.105Z</time></trkpt><trkpt lat="45.3800457" lon="14.2177841"><ele>1041.0</ele><time>2026-04-25T10:22:12.097Z</time></trkpt><trkpt lat="45.380022" lon="14.2179052"><ele>1041.0</ele><time>2026-04-25T10:22:14.113Z</time></trkpt><trkpt lat="45.3799937" lon="14.2180546"><ele>1041.0</ele><time>2026-04-25T10:22:16.103Z</time></trkpt><trkpt lat="45.3799598" lon="14.2182083"><ele>1041.8</ele><time>2026-04-25T10:22:18.112Z</time></trkpt><trkpt lat="45.3799309" lon="14.218364"><ele>1042.6</ele><time>2026-04-25T10:22:20.094Z</time></trkpt><trkpt lat="45.3799002" lon="14.2184939"><ele>1043.4</ele><time>2026-04-25T10:22:22.105Z</time></trkpt><trkpt lat="45.3798561" lon="14.2185798"><ele>1044.2</ele><time>2026-04-25T10:22:25.095Z</time></trkpt><trkpt lat="45.3798351" lon="14.2186704"><ele>1045.0</ele><time>2026-04-25T10:22:29.088Z</time></trkpt><trkpt lat="45.3799121" lon="14.218528"><ele>1045.0</ele><time>2026-04-25T10:22:48.089Z</time></trkpt><trkpt lat="45.3799394" lon="14.2184119"><ele>1045.0</ele><time>2026-04-25T10:22:49.09Z</time></trkpt><trkpt lat="45.3799612" lon="14.2182875"><ele>1045.0</ele><time>2026-04-25T10:22:50.088Z</time></trkpt><trkpt lat="45.3799877" lon="14.218167"><ele>1045.0</ele><time>2026-04-25T10:22:51.075Z</time></trkpt><trkpt lat="45.3800144" lon="14.2180314"><ele>1045.0</ele><time>2026-04-25T10:22:52.079Z</time></trkpt><trkpt lat="45.3800369" lon="14.2178903"><ele>1044.2</ele><time>2026-04-25T10:22:53.104Z</time></trkpt><trkpt lat="45.3800544" lon="14.2177716"><ele>1043.4</ele><time>2026-04-25T10:22:54.09Z</time></trkpt><trkpt lat="45.3800516" lon="14.2176623"><ele>1042.6</ele><time>2026-04-25T10:22:55.086Z</time></trkpt><trkpt lat="45.3799895" lon="14.217531"><ele>1041.8</ele><time>2026-04-25T10:22:57.072Z</time></trkpt><trkpt lat="45.3798843" lon="14.2174422"><ele>1041.0</ele><time>2026-04-25T10:22:59.077Z</time></trkpt><trkpt lat="45.3797733" lon="14.2173589"><ele>1036.6</ele><time>2026-04-25T10:23:01.092Z</time></trkpt><trkpt lat="45.3796749" lon="14.2172632"><ele>1032.1999999999998</ele><time>2026-04-25T10:23:03.089Z</time></trkpt><trkpt lat="45.3795971" lon="14.2171501"><ele>1027.8000000000002</ele><time>2026-04-25T10:23:05.086Z</time></trkpt><trkpt lat="45.3795396" lon="14.2170267"><ele>1023.4000000000001</ele><time>2026-04-25T10:23:07.086Z</time></trkpt><trkpt lat="45.3795177" lon="14.2169341"><ele>1019.0</ele><time>2026-04-25T10:23:19.079Z</time></trkpt><trkpt lat="45.3795361" lon="14.2168097"><ele>1019.0</ele><time>2026-04-25T10:23:22.085Z</time></trkpt><trkpt lat="45.3795817" lon="14.2167223"><ele>1019.0000000000001</ele><time>2026-04-25T10:23:24.073Z</time></trkpt><trkpt lat="45.3796405" lon="14.2165966"><ele>1019.0000000000001</ele><time>2026-04-25T10:23:26.082Z</time></trkpt><trkpt lat="45.3796484" lon="14.216506"><ele>1019.0</ele><time>2026-04-25T10:23:27.083Z</time></trkpt><trkpt lat="45.3796583" lon="14.21636"><ele>1019.0</ele><time>2026-04-25T10:23:29.066Z</time></trkpt><trkpt lat="45.3796738" lon="14.2161882"><ele>1021.5714285714287</ele><time>2026-04-25T10:23:31.08Z</time></trkpt><trkpt lat="45.3796878" lon="14.2160899"><ele>1024.142857142857</ele><time>2026-04-25T10:23:32.081Z</time></trkpt><trkpt lat="45.3796976" lon="14.2159788"><ele>1026.7142857142858</ele><time>2026-04-25T10:23:33.094Z</time></trkpt><trkpt lat="45.3797041" lon="14.2158752"><ele>1029.2857142857142</ele><time>2026-04-25T10:23:34.082Z</time></trkpt><trkpt lat="45.3797072" lon="14.2157666"><ele>1031.857142857143</ele><time>2026-04-25T10:23:35.09Z</time></trkpt><trkpt lat="45.3797095" lon="14.2156661"><ele>1034.4285714285716</ele><time>2026-04-25T10:23:36.088Z</time></trkpt><trkpt lat="45.3797138" lon="14.2155649"><ele>1037.0</ele><time>2026-04-25T10:23:37.086Z</time></trkpt><trkpt lat="45.3797221" lon="14.2154624"><ele>1037.5</ele><time>2026-04-25T10:23:38.085Z</time></trkpt><trkpt lat="45.3797341" lon="14.2153697"><ele>1038.0</ele><time>2026-04-25T10:23:39.087Z</time></trkpt><trkpt lat="45.3797414" lon="14.2152801"><ele>1038.5</ele><time>2026-04-25T10:23:40.082Z</time></trkpt><trkpt lat="45.3797425" lon="14.2151413"><ele>1039.0</ele><time>2026-04-25T10:23:42.09Z</time></trkpt><trkpt lat="45.3797492" lon="14.2149722"><ele>1039.5</ele><time>2026-04-25T10:23:44.079Z</time></trkpt><trkpt lat="45.3797606" lon="14.2148748"><ele>1040.0</ele><time>2026-04-25T10:23:45.083Z</time></trkpt><trkpt lat="45.379778" lon="14.214754"><ele>1041.0</ele><time>2026-04-25T10:23:46.081Z</time></trkpt><trkpt lat="45.3797954" lon="14.2146294"><ele>1042.0</ele><time>2026-04-25T10:23:47.075Z</time></trkpt><trkpt lat="45.3798088" lon="14.2144754"><ele>1043.0</ele><time>2026-04-25T10:23:48.073Z</time></trkpt><trkpt lat="45.3798174" lon="14.2143121"><ele>1044.0</ele><time>2026-04-25T10:23:49.083Z</time></trkpt><trkpt lat="45.37983" lon="14.2141407"><ele>1045.0</ele><time>2026-04-25T10:23:50.073Z</time></trkpt><trkpt lat="45.3798461" lon="14.2139659"><ele>1045.0</ele><time>2026-04-25T10:23:51.07Z</time></trkpt><trkpt lat="45.3798603" lon="14.2138054"><ele>1045.0</ele><time>2026-04-25T10:23:52.077Z</time></trkpt><trkpt lat="45.3798769" lon="14.2136494"><ele>1045.0</ele><time>2026-04-25T10:23:53.08Z</time></trkpt><trkpt lat="45.3798931" lon="14.2134992"><ele>1045.0</ele><time>2026-04-25T10:23:54.083Z</time></trkpt><trkpt lat="45.3798988" lon="14.2133632"><ele>1045.0</ele><time>2026-04-25T10:23:55.079Z</time></trkpt><trkpt lat="45.3799029" lon="14.2132386"><ele>1043.1666666666665</ele><time>2026-04-25T10:23:56.076Z</time></trkpt><trkpt lat="45.379912" lon="14.2131144"><ele>1041.3333333333333</ele><time>2026-04-25T10:23:57.082Z</time></trkpt><trkpt lat="45.3799214" lon="14.2129989"><ele>1039.5</ele><time>2026-04-25T10:23:58.08Z</time></trkpt><trkpt lat="45.3799357" lon="14.2129089"><ele>1037.6666666666667</ele><time>2026-04-25T10:23:59.086Z</time></trkpt><trkpt lat="45.3799661" lon="14.2127482"><ele>1035.8333333333335</ele><time>2026-04-25T10:24:01.091Z</time></trkpt><trkpt lat="45.3799836" lon="14.2126548"><ele>1034.0</ele><time>2026-04-25T10:24:02.089Z</time></trkpt><trkpt lat="45.3800054" lon="14.2125491"><ele>1034.0</ele><time>2026-04-25T10:24:03.073Z</time></trkpt><trkpt lat="45.380044" lon="14.2124351"><ele>1034.0</ele><time>2026-04-25T10:24:04.081Z</time></trkpt><trkpt lat="45.3801017" lon="14.2123099"><ele>1034.0</ele><time>2026-04-25T10:24:05.087Z</time></trkpt><trkpt lat="45.3801622" lon="14.2121904"><ele>1034.0</ele><time>2026-04-25T10:24:06.077Z</time></trkpt><trkpt lat="45.3802222" lon="14.2120668"><ele>1034.0</ele><time>2026-04-25T10:24:07.083Z</time></trkpt><trkpt lat="45.3802836" lon="14.2119389"><ele>1031.0</ele><time>2026-04-25T10:24:08.087Z</time></trkpt><trkpt lat="45.3803412" lon="14.2118101"><ele>1028.0</ele><time>2026-04-25T10:24:09.082Z</time></trkpt><trkpt lat="45.3803922" lon="14.2116834"><ele>1025.0</ele><time>2026-04-25T10:24:10.074Z</time></trkpt><trkpt lat="45.3804307" lon="14.2115449"><ele>1022.0</ele><time>2026-04-25T10:24:11.083Z</time></trkpt><trkpt lat="45.3804617" lon="14.2114006"><ele>1019.0</ele><time>2026-04-25T10:24:12.07Z</time></trkpt><trkpt lat="45.3804794" lon="14.2112483"><ele>1017.0</ele><time>2026-04-25T10:24:13.085Z</time></trkpt><trkpt lat="45.3804693" lon="14.2110804"><ele>1015.0</ele><time>2026-04-25T10:24:14.072Z</time></trkpt><trkpt lat="45.3804488" lon="14.2109029"><ele>1013.0</ele><time>2026-04-25T10:24:15.065Z</time></trkpt><trkpt lat="45.3804205" lon="14.2107259"><ele>1011.0</ele><time>2026-04-25T10:24:16.066Z</time></trkpt><trkpt lat="45.3803817" lon="14.2105548"><ele>1010.25</ele><time>2026-04-25T10:24:17.069Z</time></trkpt><trkpt lat="45.3803337" lon="14.2103924"><ele>1009.5</ele><time>2026-04-25T10:24:18.067Z</time></trkpt><trkpt lat="45.3802804" lon="14.2102384"><ele>1008.75</ele><time>2026-04-25T10:24:19.069Z</time></trkpt><trkpt lat="45.3802313" lon="14.210077"><ele>1008.0</ele><time>2026-04-25T10:24:20.068Z</time></trkpt><trkpt lat="45.3801931" lon="14.209914"><ele>1007.25</ele><time>2026-04-25T10:24:21.059Z</time></trkpt><trkpt lat="45.380157" lon="14.2097493"><ele>1006.5</ele><time>2026-04-25T10:24:22.069Z</time></trkpt><trkpt lat="45.380123" lon="14.2095837"><ele>1005.75</ele><time>2026-04-25T10:24:23.067Z</time></trkpt><trkpt lat="45.3800894" lon="14.2094151"><ele>1005.0</ele><time>2026-04-25T10:24:24.074Z</time></trkpt><trkpt lat="45.3800577" lon="14.2092489"><ele>1005.0</ele><time>2026-04-25T10:24:25.074Z</time></trkpt><trkpt lat="45.3800251" lon="14.2090934"><ele>1005.0</ele><time>2026-04-25T10:24:26.068Z</time></trkpt><trkpt lat="45.3800037" lon="14.2089377"><ele>1005.0</ele><time>2026-04-25T10:24:27.073Z</time></trkpt><trkpt lat="45.3799916" lon="14.2087889"><ele>1005.0</ele><time>2026-04-25T10:24:28.076Z</time></trkpt><trkpt lat="45.3799877" lon="14.2086374"><ele>1005.0</ele><time>2026-04-25T10:24:29.066Z</time></trkpt><trkpt lat="45.3799915" lon="14.208476"><ele>1004.6</ele><time>2026-04-25T10:24:30.08Z</time></trkpt><trkpt lat="45.379999" lon="14.2083164"><ele>1004.2</ele><time>2026-04-25T10:24:31.073Z</time></trkpt><trkpt lat="45.3800081" lon="14.2081657"><ele>1003.8</ele><time>2026-04-25T10:24:32.071Z</time></trkpt><trkpt lat="45.3800238" lon="14.2080152"><ele>1003.4</ele><time>2026-04-25T10:24:33.077Z</time></trkpt><trkpt lat="45.3800401" lon="14.207871"><ele>1003.0</ele><time>2026-04-25T10:24:34.074Z</time></trkpt><trkpt lat="45.380073" lon="14.2077228"><ele>999.75</ele><time>2026-04-25T10:24:35.091Z</time></trkpt><trkpt lat="45.380144" lon="14.2075729"><ele>996.5</ele><time>2026-04-25T10:24:36.074Z</time></trkpt><trkpt lat="45.3802228" lon="14.2074363"><ele>993.25</ele><time>2026-04-25T10:24:37.073Z</time></trkpt><trkpt lat="45.380302" lon="14.2073002"><ele>990.0</ele><time>2026-04-25T10:24:38.066Z</time></trkpt><trkpt lat="45.3803705" lon="14.2071703"><ele>993.0</ele><time>2026-04-25T10:24:39.079Z</time></trkpt><trkpt lat="45.3804435" lon="14.2070339"><ele>996.0</ele><time>2026-04-25T10:24:40.077Z</time></trkpt><trkpt lat="45.3805092" lon="14.2069036"><ele>999.0</ele><time>2026-04-25T10:24:41.073Z</time></trkpt><trkpt lat="45.3805762" lon="14.2067774"><ele>1002.0</ele><time>2026-04-25T10:24:42.068Z</time></trkpt><trkpt lat="45.3806461" lon="14.2066422"><ele>1002.0</ele><time>2026-04-25T10:24:43.069Z</time></trkpt><trkpt lat="45.380715" lon="14.2065101"><ele>1002.0</ele><time>2026-04-25T10:24:44.067Z</time></trkpt><trkpt lat="45.3807814" lon="14.2063845"><ele>1002.0</ele><time>2026-04-25T10:24:45.073Z</time></trkpt><trkpt lat="45.3808402" lon="14.2062602"><ele>1002.0</ele><time>2026-04-25T10:24:46.065Z</time></trkpt><trkpt lat="45.3809002" lon="14.2061247"><ele>1002.0</ele><time>2026-04-25T10:24:47.065Z</time></trkpt><trkpt lat="45.3809612" lon="14.2059751"><ele>997.25</ele><time>2026-04-25T10:24:48.07Z</time></trkpt><trkpt lat="45.381024" lon="14.2057998"><ele>992.5</ele><time>2026-04-25T10:24:49.065Z</time></trkpt><trkpt lat="45.3810807" lon="14.2056096"><ele>987.75</ele><time>2026-04-25T10:24:50.066Z</time></trkpt><trkpt lat="45.3811285" lon="14.2054254"><ele>983.0</ele><time>2026-04-25T10:24:51.067Z</time></trkpt><trkpt lat="45.3811681" lon="14.2052397"><ele>978.25</ele><time>2026-04-25T10:24:52.069Z</time></trkpt><trkpt lat="45.3812009" lon="14.2050562"><ele>973.5</ele><time>2026-04-25T10:24:53.064Z</time></trkpt><trkpt lat="45.3812361" lon="14.2048881"><ele>968.75</ele><time>2026-04-25T10:24:54.06Z</time></trkpt><trkpt lat="45.3812719" lon="14.2047155"><ele>964.0</ele><time>2026-04-25T10:24:55.068Z</time></trkpt><trkpt lat="45.3813087" lon="14.2045302"><ele>961.0</ele><time>2026-04-25T10:24:56.064Z</time></trkpt><trkpt lat="45.3813405" lon="14.2043453"><ele>958.0</ele><time>2026-04-25T10:24:57.063Z</time></trkpt><trkpt lat="45.3813768" lon="14.2041469"><ele>955.0</ele><time>2026-04-25T10:24:58.076Z</time></trkpt><trkpt lat="45.3814092" lon="14.2039545"><ele>952.0</ele><time>2026-04-25T10:24:59.068Z</time></trkpt><trkpt lat="45.381437" lon="14.2037527"><ele>955.5</ele><time>2026-04-25T10:25:00.06Z</time></trkpt><trkpt lat="45.3814604" lon="14.203555"><ele>959.0</ele><time>2026-04-25T10:25:01.067Z</time></trkpt><trkpt lat="45.3814872" lon="14.2033588"><ele>962.5</ele><time>2026-04-25T10:25:02.065Z</time></trkpt><trkpt lat="45.3815116" lon="14.2031742"><ele>966.0</ele><time>2026-04-25T10:25:03.073Z</time></trkpt><trkpt lat="45.3815379" lon="14.2029944"><ele>966.0</ele><time>2026-04-25T10:25:04.062Z</time></trkpt><trkpt lat="45.381568" lon="14.2028114"><ele>966.0</ele><time>2026-04-25T10:25:05.067Z</time></trkpt><trkpt lat="45.381594" lon="14.2026359"><ele>966.0</ele><time>2026-04-25T10:25:06.076Z</time></trkpt><trkpt lat="45.3816221" lon="14.2024619"><ele>966.0</ele><time>2026-04-25T10:25:07.063Z</time></trkpt><trkpt lat="45.3816471" lon="14.2022945"><ele>962.75</ele><time>2026-04-25T10:25:08.077Z</time></trkpt><trkpt lat="45.3816791" lon="14.2021288"><ele>959.5</ele><time>2026-04-25T10:25:09.068Z</time></trkpt><trkpt lat="45.381726" lon="14.2019605"><ele>956.25</ele><time>2026-04-25T10:25:10.067Z</time></trkpt><trkpt lat="45.3817795" lon="14.201798"><ele>953.0</ele><time>2026-04-25T10:25:11.065Z</time></trkpt><trkpt lat="45.3818351" lon="14.2016372"><ele>949.75</ele><time>2026-04-25T10:25:12.067Z</time></trkpt><trkpt lat="45.3818927" lon="14.2014739"><ele>946.5</ele><time>2026-04-25T10:25:13.08Z</time></trkpt><trkpt lat="45.3819565" lon="14.2013193"><ele>943.25</ele><time>2026-04-25T10:25:14.079Z</time></trkpt><trkpt lat="45.3820272" lon="14.2011596"><ele>940.0</ele><time>2026-04-25T10:25:15.08Z</time></trkpt><trkpt lat="45.3821058" lon="14.2009944"><ele>940.0</ele><time>2026-04-25T10:25:16.074Z</time></trkpt><trkpt lat="45.3821792" lon="14.2008313"><ele>940.0</ele><time>2026-04-25T10:25:17.071Z</time></trkpt><trkpt lat="45.382245" lon="14.200675"><ele>940.0</ele><time>2026-04-25T10:25:18.079Z</time></trkpt><trkpt lat="45.3823099" lon="14.2005137"><ele>940.0</ele><time>2026-04-25T10:25:19.09Z</time></trkpt><trkpt lat="45.382381" lon="14.200352"><ele>941.0</ele><time>2026-04-25T10:25:20.079Z</time></trkpt><trkpt lat="45.3824591" lon="14.2002023"><ele>942.0</ele><time>2026-04-25T10:25:21.076Z</time></trkpt><trkpt lat="45.3825491" lon="14.200048"><ele>943.0</ele><time>2026-04-25T10:25:22.086Z</time></trkpt><trkpt lat="45.3826425" lon="14.1998916"><ele>944.0</ele><time>2026-04-25T10:25:23.073Z</time></trkpt><trkpt lat="45.3827325" lon="14.1997486"><ele>944.75</ele><time>2026-04-25T10:25:24.085Z</time></trkpt><trkpt lat="45.3828209" lon="14.1996186"><ele>945.5</ele><time>2026-04-25T10:25:25.079Z</time></trkpt><trkpt lat="45.3829072" lon="14.199487"><ele>946.25</ele><time>2026-04-25T10:25:26.078Z</time></trkpt><trkpt lat="45.382994" lon="14.1993507"><ele>947.0</ele><time>2026-04-25T10:25:27.08Z</time></trkpt><trkpt lat="45.3830787" lon="14.1992147"><ele>947.0</ele><time>2026-04-25T10:25:28.075Z</time></trkpt><trkpt lat="45.3831665" lon="14.1990788"><ele>947.0</ele><time>2026-04-25T10:25:29.084Z</time></trkpt><trkpt lat="45.3832548" lon="14.1989386"><ele>947.0</ele><time>2026-04-25T10:25:30.089Z</time></trkpt><trkpt lat="45.3833418" lon="14.1987994"><ele>947.0</ele><time>2026-04-25T10:25:31.073Z</time></trkpt><trkpt lat="45.3834304" lon="14.1986657"><ele>945.75</ele><time>2026-04-25T10:25:32.086Z</time></trkpt><trkpt lat="45.3835214" lon="14.1985292"><ele>944.5</ele><time>2026-04-25T10:25:33.087Z</time></trkpt><trkpt lat="45.3836149" lon="14.1984027"><ele>943.25</ele><time>2026-04-25T10:25:34.095Z</time></trkpt><trkpt lat="45.3837004" lon="14.19828"><ele>942.0</ele><time>2026-04-25T10:25:35.084Z</time></trkpt><trkpt lat="45.3837835" lon="14.198166"><ele>942.2</ele><time>2026-04-25T10:25:36.086Z</time></trkpt><trkpt lat="45.3838637" lon="14.1980525"><ele>942.4000000000001</ele><time>2026-04-25T10:25:37.088Z</time></trkpt><trkpt lat="45.3839411" lon="14.1979449"><ele>942.5999999999999</ele><time>2026-04-25T10:25:38.079Z</time></trkpt><trkpt lat="45.3840078" lon="14.1978441"><ele>942.8</ele><time>2026-04-25T10:25:39.085Z</time></trkpt><trkpt lat="45.3840737" lon="14.1977467"><ele>943.0</ele><time>2026-04-25T10:25:40.086Z</time></trkpt><trkpt lat="45.3841398" lon="14.1976585"><ele>942.9999999999999</ele><time>2026-04-25T10:25:41.082Z</time></trkpt><trkpt lat="45.3842016" lon="14.1975742"><ele>943.0</ele><time>2026-04-25T10:25:42.093Z</time></trkpt><trkpt lat="45.3842595" lon="14.1974835"><ele>943.0</ele><time>2026-04-25T10:25:43.088Z</time></trkpt><trkpt lat="45.3843207" lon="14.1973954"><ele>943.0</ele><time>2026-04-25T10:25:44.096Z</time></trkpt><trkpt lat="45.3843789" lon="14.1973063"><ele>942.9999999999999</ele><time>2026-04-25T10:25:45.093Z</time></trkpt><trkpt lat="45.3844458" lon="14.1972174"><ele>943.0</ele><time>2026-04-25T10:25:46.086Z</time></trkpt><trkpt lat="45.3845108" lon="14.1971262"><ele>943.6666666666666</ele><time>2026-04-25T10:25:47.074Z</time></trkpt><trkpt lat="45.3845774" lon="14.1970289"><ele>944.3333333333333</ele><time>2026-04-25T10:25:48.076Z</time></trkpt><trkpt lat="45.3846435" lon="14.1969371"><ele>945.0</ele><time>2026-04-25T10:25:49.093Z</time></trkpt><trkpt lat="45.3847057" lon="14.1968572"><ele>945.6666666666667</ele><time>2026-04-25T10:25:50.08Z</time></trkpt><trkpt lat="45.3847592" lon="14.1967946"><ele>946.3333333333334</ele><time>2026-04-25T10:25:51.111Z</time></trkpt><trkpt lat="45.3848379" lon="14.196714"><ele>947.0</ele><time>2026-04-25T10:25:53.077Z</time></trkpt><trkpt lat="45.3848751" lon="14.1966281"><ele>947.0</ele><time>2026-04-25T10:25:55.084Z</time></trkpt><trkpt lat="45.3848153" lon="14.1965576"><ele>947.0</ele><time>2026-04-25T10:25:58.072Z</time></trkpt><trkpt lat="45.3847289" lon="14.1966134"><ele>947.0</ele><time>2026-04-25T10:26:00.067Z</time></trkpt><trkpt lat="45.3846318" lon="14.1967161"><ele>947.0</ele><time>2026-04-25T10:26:02.071Z</time></trkpt><trkpt lat="45.3845337" lon="14.1967995"><ele>947.0</ele><time>2026-04-25T10:26:04.083Z</time></trkpt><trkpt lat="45.3844185" lon="14.1967384"><ele>945.2857142857142</ele><time>2026-04-25T10:26:06.091Z</time></trkpt><trkpt lat="45.3843656" lon="14.196679"><ele>943.5714285714284</ele><time>2026-04-25T10:26:07.069Z</time></trkpt><trkpt lat="45.3843066" lon="14.1966181"><ele>941.8571428571429</ele><time>2026-04-25T10:26:08.074Z</time></trkpt><trkpt lat="45.3842277" lon="14.1965967"><ele>940.1428571428571</ele><time>2026-04-25T10:26:09.095Z</time></trkpt><trkpt lat="45.3841547" lon="14.1965977"><ele>938.4285714285714</ele><time>2026-04-25T10:26:10.075Z</time></trkpt><trkpt lat="45.3840837" lon="14.1966179"><ele>936.7142857142858</ele><time>2026-04-25T10:26:11.077Z</time></trkpt><trkpt lat="45.3840117" lon="14.1966341"><ele>935.0000000000001</ele><time>2026-04-25T10:26:12.067Z</time></trkpt><trkpt lat="45.3839361" lon="14.1966266"><ele>935.0000000000001</ele><time>2026-04-25T10:26:13.078Z</time></trkpt><trkpt lat="45.3838581" lon="14.196593"><ele>935.0</ele><time>2026-04-25T10:26:14.08Z</time></trkpt><trkpt lat="45.383799" lon="14.1965216"><ele>935.0</ele><time>2026-04-25T10:26:15.067Z</time></trkpt><trkpt lat="45.3837485" lon="14.1964302"><ele>935.0</ele><time>2026-04-25T10:26:16.069Z</time></trkpt><trkpt lat="45.3837157" lon="14.1963367"><ele>935.0000000000001</ele><time>2026-04-25T10:26:17.064Z</time></trkpt><trkpt lat="45.3836923" lon="14.1962362"><ele>935.0</ele><time>2026-04-25T10:26:18.069Z</time></trkpt><trkpt lat="45.383698" lon="14.19606"><ele>933.0000000000001</ele><time>2026-04-25T10:26:20.082Z</time></trkpt><trkpt lat="45.3837327" lon="14.1959681"><ele>931.0</ele><time>2026-04-25T10:26:21.063Z</time></trkpt><trkpt lat="45.3837612" lon="14.195871"><ele>929.0000000000001</ele><time>2026-04-25T10:26:22.082Z</time></trkpt><trkpt lat="45.383787" lon="14.1957706"><ele>927.0000000000001</ele><time>2026-04-25T10:26:23.075Z</time></trkpt><trkpt lat="45.3837861" lon="14.1956698"><ele>925.0</ele><time>2026-04-25T10:26:24.082Z</time></trkpt><trkpt lat="45.3837808" lon="14.1955689"><ele>923.0000000000001</ele><time>2026-04-25T10:26:25.084Z</time></trkpt><trkpt lat="45.3837449" lon="14.1954672"><ele>921.0000000000001</ele><time>2026-04-25T10:26:26.077Z</time></trkpt><trkpt lat="45.3836972" lon="14.195345"><ele>920.6666666666666</ele><time>2026-04-25T10:26:27.061Z</time></trkpt><trkpt lat="45.3836657" lon="14.195246"><ele>920.3333333333333</ele><time>2026-04-25T10:26:28.09Z</time></trkpt><trkpt lat="45.3836341" lon="14.1951514"><ele>920.0</ele><time>2026-04-25T10:26:29.086Z</time></trkpt><trkpt lat="45.3835898" lon="14.1950657"><ele>919.6666666666666</ele><time>2026-04-25T10:26:30.088Z</time></trkpt><trkpt lat="45.3835012" lon="14.1950141"><ele>919.3333333333333</ele><time>2026-04-25T10:26:31.082Z</time></trkpt><trkpt lat="45.3833967" lon="14.1949917"><ele>919.0</ele><time>2026-04-25T10:26:32.071Z</time></trkpt><trkpt lat="45.383303" lon="14.1949803"><ele>918.9999999999999</ele><time>2026-04-25T10:26:33.069Z</time></trkpt><trkpt lat="45.3832184" lon="14.194973"><ele>919.0</ele><time>2026-04-25T10:26:34.084Z</time></trkpt><trkpt lat="45.3831481" lon="14.1949413"><ele>919.0</ele><time>2026-04-25T10:26:35.084Z</time></trkpt><trkpt lat="45.3830919" lon="14.1948994"><ele>919.0</ele><time>2026-04-25T10:26:36.084Z</time></trkpt><trkpt lat="45.3830392" lon="14.1948379"><ele>918.9999999999999</ele><time>2026-04-25T10:26:37.091Z</time></trkpt><trkpt lat="45.3829894" lon="14.1947575"><ele>919.0</ele><time>2026-04-25T10:26:38.077Z</time></trkpt><trkpt lat="45.3829329" lon="14.1946613"><ele>919.0</ele><time>2026-04-25T10:26:40.088Z</time></trkpt><trkpt lat="45.3828734" lon="14.1946234"><ele>918.9999999999999</ele><time>2026-04-25T10:26:42.089Z</time></trkpt><trkpt lat="45.3827935" lon="14.1946348"><ele>919.0</ele><time>2026-04-25T10:26:45.079Z</time></trkpt><trkpt lat="45.3827378" lon="14.1946794"><ele>919.0</ele><time>2026-04-25T10:26:47.075Z</time></trkpt><trkpt lat="45.3826852" lon="14.1947458"><ele>918.9999999999999</ele><time>2026-04-25T10:26:50.078Z</time></trkpt><trkpt lat="45.3826304" lon="14.1948016"><ele>919.0</ele><time>2026-04-25T10:27:03.084Z</time></trkpt><trkpt lat="45.3825648" lon="14.1947871"><ele>919.0</ele><time>2026-04-25T10:33:32.074Z</time></trkpt><trkpt lat="45.3824965" lon="14.1946861"><ele>918.9999999999999</ele><time>2026-04-25T10:33:34.075Z</time></trkpt><trkpt lat="45.3824619" lon="14.1946095"><ele>919.0</ele><time>2026-04-25T10:33:35.078Z</time></trkpt><trkpt lat="45.3824235" lon="14.1945275"><ele>919.0</ele><time>2026-04-25T10:33:36.089Z</time></trkpt><trkpt lat="45.382337" lon="14.1944192"><ele>919.0</ele><time>2026-04-25T10:33:38.092Z</time></trkpt><trkpt lat="45.3822659" lon="14.1943756"><ele>918.9999999999999</ele><time>2026-04-25T10:33:39.082Z</time></trkpt><trkpt lat="45.3821781" lon="14.1943415"><ele>919.0</ele><time>2026-04-25T10:33:40.073Z</time></trkpt><trkpt lat="45.3820784" lon="14.1942977"><ele>917.4999999999999</ele><time>2026-04-25T10:33:41.07Z</time></trkpt><trkpt lat="45.3819967" lon="14.1942237"><ele>916.0</ele><time>2026-04-25T10:33:42.092Z</time></trkpt><trkpt lat="45.3819491" lon="14.1941385"><ele>914.5</ele><time>2026-04-25T10:33:43.084Z</time></trkpt><trkpt lat="45.3819248" lon="14.194043"><ele>913.0</ele><time>2026-04-25T10:33:44.069Z</time></trkpt><trkpt lat="45.3819035" lon="14.1939298"><ele>911.4999999999999</ele><time>2026-04-25T10:33:45.075Z</time></trkpt><trkpt lat="45.381877" lon="14.1937856"><ele>910.0</ele><time>2026-04-25T10:33:46.087Z</time></trkpt><trkpt lat="45.3818397" lon="14.1936314"><ele>909.75</ele><time>2026-04-25T10:33:47.083Z</time></trkpt><trkpt lat="45.3817987" lon="14.1934625"><ele>909.5</ele><time>2026-04-25T10:33:48.095Z</time></trkpt><trkpt lat="45.3817578" lon="14.1932868"><ele>909.25</ele><time>2026-04-25T10:33:49.088Z</time></trkpt><trkpt lat="45.3817232" lon="14.193111"><ele>909.0</ele><time>2026-04-25T10:33:50.081Z</time></trkpt><trkpt lat="45.3816923" lon="14.192929"><ele>909.0</ele><time>2026-04-25T10:33:51.086Z</time></trkpt><trkpt lat="45.3816624" lon="14.1927501"><ele>909.0</ele><time>2026-04-25T10:33:52.083Z</time></trkpt><trkpt lat="45.3816309" lon="14.1925835"><ele>909.0</ele><time>2026-04-25T10:33:53.086Z</time></trkpt><trkpt lat="45.3815984" lon="14.1924239"><ele>909.0</ele><time>2026-04-25T10:33:54.083Z</time></trkpt><trkpt lat="45.3815657" lon="14.1922824"><ele>910.0</ele><time>2026-04-25T10:33:55.085Z</time></trkpt><trkpt lat="45.3815337" lon="14.1921516"><ele>911.0</ele><time>2026-04-25T10:33:56.091Z</time></trkpt><trkpt lat="45.3815118" lon="14.1920265"><ele>912.0</ele><time>2026-04-25T10:33:57.083Z</time></trkpt><trkpt lat="45.3815057" lon="14.1919069"><ele>913.0</ele><time>2026-04-25T10:33:58.088Z</time></trkpt><trkpt lat="45.3815089" lon="14.1917947"><ele>914.0</ele><time>2026-04-25T10:33:59.087Z</time></trkpt><trkpt lat="45.3815164" lon="14.1916933"><ele>915.0</ele><time>2026-04-25T10:34:00.074Z</time></trkpt><trkpt lat="45.3815391" lon="14.1916013"><ele>915.0</ele><time>2026-04-25T10:34:01.075Z</time></trkpt><trkpt lat="45.3815751" lon="14.1915218"><ele>915.0000000000001</ele><time>2026-04-25T10:34:02.077Z</time></trkpt><trkpt lat="45.3816176" lon="14.1914454"><ele>915.0</ele><time>2026-04-25T10:34:03.074Z</time></trkpt><trkpt lat="45.381669" lon="14.1913724"><ele>915.0</ele><time>2026-04-25T10:34:04.071Z</time></trkpt><trkpt lat="45.3817075" lon="14.1912878"><ele>915.0000000000001</ele><time>2026-04-25T10:34:05.075Z</time></trkpt><trkpt lat="45.381732" lon="14.191195"><ele>915.0</ele><time>2026-04-25T10:34:06.101Z</time></trkpt><trkpt lat="45.3817453" lon="14.1910903"><ele>915.0</ele><time>2026-04-25T10:34:07.088Z</time></trkpt><trkpt lat="45.3817501" lon="14.1909843"><ele>917.0</ele><time>2026-04-25T10:34:08.077Z</time></trkpt><trkpt lat="45.3817561" lon="14.1908855"><ele>919.0</ele><time>2026-04-25T10:34:09.085Z</time></trkpt><trkpt lat="45.381757" lon="14.1907896"><ele>921.0</ele><time>2026-04-25T10:34:10.085Z</time></trkpt><trkpt lat="45.3817483" lon="14.1906217"><ele>923.0</ele><time>2026-04-25T10:34:12.09Z</time></trkpt><trkpt lat="45.3817529" lon="14.1905265"><ele>925.0</ele><time>2026-04-25T10:34:13.084Z</time></trkpt><trkpt lat="45.3817614" lon="14.1904246"><ele>927.0</ele><time>2026-04-25T10:34:14.099Z</time></trkpt><trkpt lat="45.3817787" lon="14.1903014"><ele>927.5</ele><time>2026-04-25T10:34:15.082Z</time></trkpt><trkpt lat="45.3818047" lon="14.19018"><ele>928.0</ele><time>2026-04-25T10:34:16.084Z</time></trkpt><trkpt lat="45.3818403" lon="14.1900686"><ele>928.5</ele><time>2026-04-25T10:34:17.087Z</time></trkpt><trkpt lat="45.3818707" lon="14.1899565"><ele>929.0</ele><time>2026-04-25T10:34:18.079Z</time></trkpt><trkpt lat="45.3819076" lon="14.1898443"><ele>929.5</ele><time>2026-04-25T10:34:19.078Z</time></trkpt><trkpt lat="45.3819393" lon="14.1897437"><ele>930.0</ele><time>2026-04-25T10:34:20.091Z</time></trkpt><trkpt lat="45.3819806" lon="14.1895983"><ele>930.0</ele><time>2026-04-25T10:34:22.084Z</time></trkpt><trkpt lat="45.3819872" lon="14.1895018"><ele>930.0</ele><time>2026-04-25T10:34:23.082Z</time></trkpt><trkpt lat="45.3819687" lon="14.1893945"><ele>930.0</ele><time>2026-04-25T10:34:24.092Z</time></trkpt><trkpt lat="45.381947" lon="14.189276"><ele>930.0</ele><time>2026-04-25T10:34:25.065Z</time></trkpt><trkpt lat="45.3819288" lon="14.1891679"><ele>930.0</ele><time>2026-04-25T10:34:26.087Z</time></trkpt><trkpt lat="45.3819176" lon="14.1890693"><ele>930.0</ele><time>2026-04-25T10:34:27.082Z</time></trkpt><trkpt lat="45.3819089" lon="14.1889686"><ele>929.4285714285713</ele><time>2026-04-25T10:34:28.089Z</time></trkpt><trkpt lat="45.3819022" lon="14.1888671"><ele>928.8571428571429</ele><time>2026-04-25T10:34:29.082Z</time></trkpt><trkpt lat="45.3819069" lon="14.1887621"><ele>928.2857142857142</ele><time>2026-04-25T10:34:30.087Z</time></trkpt><trkpt lat="45.3819168" lon="14.1886608"><ele>927.7142857142857</ele><time>2026-04-25T10:34:31.085Z</time></trkpt><trkpt lat="45.3819324" lon="14.1885657"><ele>927.1428571428571</ele><time>2026-04-25T10:34:32.078Z</time></trkpt><trkpt lat="45.3819604" lon="14.1884766"><ele>926.5714285714286</ele><time>2026-04-25T10:34:33.083Z</time></trkpt><trkpt lat="45.3819823" lon="14.1883867"><ele>926.0</ele><time>2026-04-25T10:34:34.09Z</time></trkpt><trkpt lat="45.3819931" lon="14.1882966"><ele>926.5000000000001</ele><time>2026-04-25T10:34:35.084Z</time></trkpt><trkpt lat="45.3820048" lon="14.1881195"><ele>927.0</ele><time>2026-04-25T10:34:37.093Z</time></trkpt><trkpt lat="45.3820059" lon="14.1880099"><ele>927.5</ele><time>2026-04-25T10:34:38.088Z</time></trkpt><trkpt lat="45.3820125" lon="14.1879083"><ele>928.0</ele><time>2026-04-25T10:34:39.103Z</time></trkpt><trkpt lat="45.382007" lon="14.18781"><ele>928.5000000000001</ele><time>2026-04-25T10:34:40.083Z</time></trkpt><trkpt lat="45.3819985" lon="14.187708"><ele>929.0</ele><time>2026-04-25T10:34:41.084Z</time></trkpt><trkpt lat="45.3819977" lon="14.1875953"><ele>929.0000000000001</ele><time>2026-04-25T10:34:42.083Z</time></trkpt><trkpt lat="45.3820076" lon="14.1874748"><ele>929.0</ele><time>2026-04-25T10:34:43.091Z</time></trkpt><trkpt lat="45.3820057" lon="14.1873644"><ele>929.0</ele><time>2026-04-25T10:34:44.088Z</time></trkpt><trkpt lat="45.3820046" lon="14.1872662"><ele>929.0</ele><time>2026-04-25T10:34:45.094Z</time></trkpt><trkpt lat="45.382003" lon="14.1871639"><ele>929.0000000000001</ele><time>2026-04-25T10:34:46.085Z</time></trkpt><trkpt lat="45.3820531" lon="14.1870364"><ele>929.0</ele><time>2026-04-25T10:34:48.084Z</time></trkpt><trkpt lat="45.3821089" lon="14.1869853"><ele>931.1666666666667</ele><time>2026-04-25T10:34:49.067Z</time></trkpt><trkpt lat="45.3821766" lon="14.1869184"><ele>933.3333333333334</ele><time>2026-04-25T10:34:50.081Z</time></trkpt><trkpt lat="45.382245" lon="14.1868457"><ele>935.5</ele><time>2026-04-25T10:34:51.086Z</time></trkpt><trkpt lat="45.3823187" lon="14.186786"><ele>937.6666666666667</ele><time>2026-04-25T10:34:52.09Z</time></trkpt><trkpt lat="45.3823928" lon="14.1867265"><ele>939.8333333333334</ele><time>2026-04-25T10:34:53.086Z</time></trkpt><trkpt lat="45.3824721" lon="14.1866655"><ele>942.0</ele><time>2026-04-25T10:34:54.08Z</time></trkpt><trkpt lat="45.3825517" lon="14.1866118"><ele>942.0</ele><time>2026-04-25T10:34:55.073Z</time></trkpt><trkpt lat="45.3826246" lon="14.1865613"><ele>942.0</ele><time>2026-04-25T10:34:56.077Z</time></trkpt><trkpt lat="45.3826917" lon="14.1865125"><ele>942.0</ele><time>2026-04-25T10:34:57.083Z</time></trkpt><trkpt lat="45.3827544" lon="14.1864942"><ele>942.0</ele><time>2026-04-25T10:34:58.07Z</time></trkpt><trkpt lat="45.3828595" lon="14.1864165"><ele>942.0</ele><time>2026-04-25T10:35:00.074Z</time></trkpt><trkpt lat="45.3829012" lon="14.1863457"><ele>942.0</ele><time>2026-04-25T10:35:01.081Z</time></trkpt><trkpt lat="45.3829736" lon="14.1861953"><ele>940.0</ele><time>2026-04-25T10:35:03.075Z</time></trkpt><trkpt lat="45.3830179" lon="14.1861059"><ele>938.0</ele><time>2026-04-25T10:35:04.087Z</time></trkpt><trkpt lat="45.3830715" lon="14.1860065"><ele>936.0</ele><time>2026-04-25T10:35:05.086Z</time></trkpt><trkpt lat="45.3831227" lon="14.185912"><ele>934.0</ele><time>2026-04-25T10:35:06.092Z</time></trkpt><trkpt lat="45.3831692" lon="14.1858207"><ele>932.0</ele><time>2026-04-25T10:35:07.078Z</time></trkpt><trkpt lat="45.383222" lon="14.1857406"><ele>930.0</ele><time>2026-04-25T10:35:08.09Z</time></trkpt><trkpt lat="45.3832684" lon="14.18568"><ele>932.3333333333334</ele><time>2026-04-25T10:35:09.081Z</time></trkpt><trkpt lat="45.3833234" lon="14.1856187"><ele>934.6666666666667</ele><time>2026-04-25T10:35:10.088Z</time></trkpt><trkpt lat="45.3833823" lon="14.1855581"><ele>937.0</ele><time>2026-04-25T10:35:11.083Z</time></trkpt><trkpt lat="45.3834444" lon="14.1854753"><ele>939.3333333333334</ele><time>2026-04-25T10:35:12.089Z</time></trkpt><trkpt lat="45.3835064" lon="14.1853857"><ele>941.6666666666667</ele><time>2026-04-25T10:35:13.087Z</time></trkpt><trkpt lat="45.3835639" lon="14.1852876"><ele>944.0</ele><time>2026-04-25T10:35:14.085Z</time></trkpt><trkpt lat="45.3836195" lon="14.1851868"><ele>944.0000000000001</ele><time>2026-04-25T10:35:15.091Z</time></trkpt><trkpt lat="45.3836666" lon="14.1851024"><ele>944.0</ele><time>2026-04-25T10:35:16.087Z</time></trkpt><trkpt lat="45.3837002" lon="14.1850148"><ele>944.0</ele><time>2026-04-25T10:35:17.098Z</time></trkpt><trkpt lat="45.3837082" lon="14.1848606"><ele>944.0</ele><time>2026-04-25T10:35:19.068Z</time></trkpt><trkpt lat="45.3836894" lon="14.1847543"><ele>944.0000000000001</ele><time>2026-04-25T10:35:23.085Z</time></trkpt><trkpt lat="45.3836757" lon="14.1846362"><ele>944.0</ele><time>2026-04-25T10:35:25.085Z</time></trkpt><trkpt lat="45.3837072" lon="14.1844674"><ele>944.1666666666667</ele><time>2026-04-25T10:35:27.08Z</time></trkpt><trkpt lat="45.3837502" lon="14.1843833"><ele>944.3333333333334</ele><time>2026-04-25T10:35:28.063Z</time></trkpt><trkpt lat="45.3838036" lon="14.1843216"><ele>944.5</ele><time>2026-04-25T10:35:29.081Z</time></trkpt><trkpt lat="45.383865" lon="14.1842673"><ele>944.6666666666667</ele><time>2026-04-25T10:35:30.071Z</time></trkpt><trkpt lat="45.3839249" lon="14.1842187"><ele>944.8333333333334</ele><time>2026-04-25T10:35:31.066Z</time></trkpt><trkpt lat="45.3839836" lon="14.1841762"><ele>945.0</ele><time>2026-04-25T10:35:32.075Z</time></trkpt><trkpt lat="45.3840677" lon="14.184072"><ele>945.8</ele><time>2026-04-25T10:35:34.084Z</time></trkpt><trkpt lat="45.3841422" lon="14.1839363"><ele>946.6</ele><time>2026-04-25T10:35:36.078Z</time></trkpt><trkpt lat="45.3841857" lon="14.1838691"><ele>947.4000000000001</ele><time>2026-04-25T10:35:37.08Z</time></trkpt><trkpt lat="45.3842671" lon="14.1837695"><ele>948.2</ele><time>2026-04-25T10:35:39.077Z</time></trkpt><trkpt lat="45.3843483" lon="14.1836981"><ele>949.0</ele><time>2026-04-25T10:35:41.08Z</time></trkpt><trkpt lat="45.3844162" lon="14.1836389"><ele>949.0000000000001</ele><time>2026-04-25T10:35:43.086Z</time></trkpt><trkpt lat="45.3844615" lon="14.1835736"><ele>949.0</ele><time>2026-04-25T10:35:45.074Z</time></trkpt><trkpt lat="45.3845008" lon="14.1835031"><ele>949.0000000000001</ele><time>2026-04-25T10:36:01.069Z</time></trkpt><trkpt lat="45.3844444" lon="14.1835533"><ele>949.0000000000001</ele><time>2026-04-25T10:38:44.065Z</time></trkpt><trkpt lat="45.3844003" lon="14.1836181"><ele>949.0</ele><time>2026-04-25T10:38:46.074Z</time></trkpt><trkpt lat="45.3843454" lon="14.1836768"><ele>949.0000000000001</ele><time>2026-04-25T10:38:48.072Z</time></trkpt><trkpt lat="45.3842629" lon="14.1837638"><ele>949.0000000000001</ele><time>2026-04-25T10:38:51.078Z</time></trkpt><trkpt lat="45.3841672" lon="14.1838577"><ele>949.0</ele><time>2026-04-25T10:38:53.082Z</time></trkpt><trkpt lat="45.3840891" lon="14.1839596"><ele>949.0</ele><time>2026-04-25T10:38:55.085Z</time></trkpt><trkpt lat="45.3840131" lon="14.1840796"><ele>949.0</ele><time>2026-04-25T10:38:57.088Z</time></trkpt><trkpt lat="45.3839204" lon="14.1841799"><ele>949.0</ele><time>2026-04-25T10:38:59.096Z</time></trkpt><trkpt lat="45.3838163" lon="14.1842636"><ele>948.2</ele><time>2026-04-25T10:39:01.096Z</time></trkpt><trkpt lat="45.3837343" lon="14.1843902"><ele>947.4000000000001</ele><time>2026-04-25T10:39:03.087Z</time></trkpt><trkpt lat="45.3837083" lon="14.1844785"><ele>946.6</ele><time>2026-04-25T10:39:04.07Z</time></trkpt><trkpt lat="45.3836897" lon="14.1846441"><ele>945.8</ele><time>2026-04-25T10:39:06.083Z</time></trkpt><trkpt lat="45.3837133" lon="14.1848081"><ele>945.0</ele><time>2026-04-25T10:39:08.085Z</time></trkpt><trkpt lat="45.3837132" lon="14.1849751"><ele>944.8</ele><time>2026-04-25T10:39:10.085Z</time></trkpt><trkpt lat="45.3836913" lon="14.1851159"><ele>944.6</ele><time>2026-04-25T10:39:12.086Z</time></trkpt><trkpt lat="45.3836216" lon="14.1852611"><ele>944.4000000000001</ele><time>2026-04-25T10:39:14.091Z</time></trkpt><trkpt lat="45.3835745" lon="14.1853567"><ele>944.2</ele><time>2026-04-25T10:39:15.09Z</time></trkpt><trkpt lat="45.3835148" lon="14.1854435"><ele>944.0</ele><time>2026-04-25T10:39:16.101Z</time></trkpt><trkpt lat="45.3834609" lon="14.185521"><ele>944.0</ele><time>2026-04-25T10:39:17.085Z</time></trkpt><trkpt lat="45.3834052" lon="14.1855952"><ele>944.0</ele><time>2026-04-25T10:39:18.089Z</time></trkpt><trkpt lat="45.3833482" lon="14.1856652"><ele>944.0</ele><time>2026-04-25T10:39:19.09Z</time></trkpt><trkpt lat="45.3832894" lon="14.1857149"><ele>944.0</ele><time>2026-04-25T10:39:20.091Z</time></trkpt><trkpt lat="45.3832285" lon="14.1857623"><ele>944.0</ele><time>2026-04-25T10:39:21.089Z</time></trkpt><trkpt lat="45.3831651" lon="14.1858194"><ele>944.0</ele><time>2026-04-25T10:39:22.088Z</time></trkpt><trkpt lat="45.3831109" lon="14.1858944"><ele>944.0</ele><time>2026-04-25T10:39:23.089Z</time></trkpt><trkpt lat="45.3830666" lon="14.1859797"><ele>945.3333333333334</ele><time>2026-04-25T10:39:24.09Z</time></trkpt><trkpt lat="45.3830144" lon="14.1860698"><ele>946.6666666666667</ele><time>2026-04-25T10:39:25.089Z</time></trkpt><trkpt lat="45.3829618" lon="14.1861652"><ele>948.0</ele><time>2026-04-25T10:39:26.082Z</time></trkpt><trkpt lat="45.3829229" lon="14.1862473"><ele>949.3333333333333</ele><time>2026-04-25T10:39:27.085Z</time></trkpt><trkpt lat="45.3828805" lon="14.1863264"><ele>950.6666666666666</ele><time>2026-04-25T10:39:28.077Z</time></trkpt><trkpt lat="45.3828352" lon="14.1863941"><ele>952.0</ele><time>2026-04-25T10:39:29.068Z</time></trkpt><trkpt lat="45.3827466" lon="14.1864901"><ele>950.0</ele><time>2026-04-25T10:39:31.076Z</time></trkpt><trkpt lat="45.382635" lon="14.1865506"><ele>948.0</ele><time>2026-04-25T10:39:33.059Z</time></trkpt><trkpt lat="45.3825253" lon="14.1866091"><ele>946.0</ele><time>2026-04-25T10:39:35.086Z</time></trkpt><trkpt lat="45.3824509" lon="14.1866563"><ele>944.0</ele><time>2026-04-25T10:39:36.081Z</time></trkpt><trkpt lat="45.3823763" lon="14.186714"><ele>942.0</ele><time>2026-04-25T10:39:37.081Z</time></trkpt><trkpt lat="45.3823045" lon="14.1867726"><ele>942.0</ele><time>2026-04-25T10:39:38.076Z</time></trkpt><trkpt lat="45.3822323" lon="14.1868334"><ele>942.0</ele><time>2026-04-25T10:39:39.073Z</time></trkpt><trkpt lat="45.3821657" lon="14.1869035"><ele>942.0</ele><time>2026-04-25T10:39:40.067Z</time></trkpt><trkpt lat="45.3821006" lon="14.1869841"><ele>942.0</ele><time>2026-04-25T10:39:41.069Z</time></trkpt><trkpt lat="45.3820463" lon="14.1870512"><ele>942.0</ele><time>2026-04-25T10:39:42.072Z</time></trkpt><trkpt lat="45.3819729" lon="14.1871931"><ele>942.0</ele><time>2026-04-25T10:39:44.09Z</time></trkpt><trkpt lat="45.381966" lon="14.1873593"><ele>939.8333333333334</ele><time>2026-04-25T10:39:46.075Z</time></trkpt><trkpt lat="45.3819677" lon="14.1874657"><ele>937.6666666666667</ele><time>2026-04-25T10:39:47.063Z</time></trkpt><trkpt lat="45.3819549" lon="14.1875873"><ele>935.5</ele><time>2026-04-25T10:39:48.073Z</time></trkpt><trkpt lat="45.3819458" lon="14.1877162"><ele>933.3333333333334</ele><time>2026-04-25T10:39:49.082Z</time></trkpt><trkpt lat="45.3819441" lon="14.187837"><ele>931.1666666666667</ele><time>2026-04-25T10:39:50.075Z</time></trkpt><trkpt lat="45.3819502" lon="14.187955"><ele>929.0</ele><time>2026-04-25T10:39:51.087Z</time></trkpt><trkpt lat="45.3819564" lon="14.1880804"><ele>928.5000000000001</ele><time>2026-04-25T10:39:52.095Z</time></trkpt><trkpt lat="45.381961" lon="14.1882123"><ele>928.0</ele><time>2026-04-25T10:39:53.082Z</time></trkpt><trkpt lat="45.3819642" lon="14.1883523"><ele>927.5</ele><time>2026-04-25T10:39:54.092Z</time></trkpt><trkpt lat="45.3819602" lon="14.1884768"><ele>927.0</ele><time>2026-04-25T10:39:55.088Z</time></trkpt><trkpt lat="45.3819527" lon="14.1885917"><ele>926.5000000000001</ele><time>2026-04-25T10:39:56.087Z</time></trkpt><trkpt lat="45.3819377" lon="14.1887019"><ele>926.0</ele><time>2026-04-25T10:39:57.089Z</time></trkpt><trkpt lat="45.3819249" lon="14.1888194"><ele>926.0</ele><time>2026-04-25T10:39:58.084Z</time></trkpt><trkpt lat="45.381905" lon="14.1889429"><ele>925.9999999999999</ele><time>2026-04-25T10:39:59.086Z</time></trkpt><trkpt lat="45.3819066" lon="14.1890809"><ele>925.9999999999999</ele><time>2026-04-25T10:40:00.093Z</time></trkpt><trkpt lat="45.3819173" lon="14.1892098"><ele>926.0</ele><time>2026-04-25T10:40:01.089Z</time></trkpt><trkpt lat="45.3819365" lon="14.1893379"><ele>926.0</ele><time>2026-04-25T10:40:02.084Z</time></trkpt><trkpt lat="45.3819551" lon="14.189465"><ele>926.8</ele><time>2026-04-25T10:40:03.08Z</time></trkpt><trkpt lat="45.3819676" lon="14.1895887"><ele>927.5999999999999</ele><time>2026-04-25T10:40:04.083Z</time></trkpt><trkpt lat="45.3819677" lon="14.1896828"><ele>928.4</ele><time>2026-04-25T10:40:05.092Z</time></trkpt><trkpt lat="45.3819221" lon="14.1898194"><ele>929.2</ele><time>2026-04-25T10:40:07.067Z</time></trkpt><trkpt lat="45.3818737" lon="14.1899647"><ele>930.0</ele><time>2026-04-25T10:40:09.079Z</time></trkpt><trkpt lat="45.381822" lon="14.1901296"><ele>929.5</ele><time>2026-04-25T10:40:11.074Z</time></trkpt><trkpt lat="45.3818047" lon="14.190242"><ele>929.0</ele><time>2026-04-25T10:40:12.108Z</time></trkpt><trkpt lat="45.3817854" lon="14.1903602"><ele>928.5</ele><time>2026-04-25T10:40:13.076Z</time></trkpt><trkpt lat="45.3817595" lon="14.1904842"><ele>928.0</ele><time>2026-04-25T10:40:14.077Z</time></trkpt><trkpt lat="45.3817475" lon="14.1906103"><ele>927.5</ele><time>2026-04-25T10:40:15.088Z</time></trkpt><trkpt lat="45.3817364" lon="14.19072"><ele>927.0</ele><time>2026-04-25T10:40:16.085Z</time></trkpt><trkpt lat="45.3817366" lon="14.1908209"><ele>927.0</ele><time>2026-04-25T10:40:17.09Z</time></trkpt><trkpt lat="45.3817313" lon="14.190924"><ele>927.0</ele><time>2026-04-25T10:40:18.09Z</time></trkpt><trkpt lat="45.3817204" lon="14.1910304"><ele>927.0</ele><time>2026-04-25T10:40:19.09Z</time></trkpt><trkpt lat="45.3817105" lon="14.1911354"><ele>927.0</ele><time>2026-04-25T10:40:20.095Z</time></trkpt><trkpt lat="45.381696" lon="14.1912492"><ele>927.0</ele><time>2026-04-25T10:40:22.093Z</time></trkpt><trkpt lat="45.3817326" lon="14.1910605"><ele>927.0</ele><time>2026-04-25T10:40:56.101Z</time></trkpt><trkpt lat="45.3817383" lon="14.1909522"><ele>927.0</ele><time>2026-04-25T10:40:57.103Z</time></trkpt><trkpt lat="45.3817355" lon="14.1908352"><ele>927.0</ele><time>2026-04-25T10:40:58.114Z</time></trkpt><trkpt lat="45.381735" lon="14.1907093"><ele>927.0</ele><time>2026-04-25T10:40:59.107Z</time></trkpt><trkpt lat="45.3817321" lon="14.1905565"><ele>927.0</ele><time>2026-04-25T10:41:00.106Z</time></trkpt><trkpt lat="45.3817426" lon="14.1904102"><ele>927.0</ele><time>2026-04-25T10:41:01.114Z</time></trkpt><trkpt lat="45.3817702" lon="14.1902818"><ele>927.6</ele><time>2026-04-25T10:41:02.119Z</time></trkpt><trkpt lat="45.381814" lon="14.190158"><ele>928.2</ele><time>2026-04-25T10:41:03.094Z</time></trkpt><trkpt lat="45.3818634" lon="14.1900105"><ele>928.8</ele><time>2026-04-25T10:41:04.091Z</time></trkpt><trkpt lat="45.3819132" lon="14.1898616"><ele>929.4</ele><time>2026-04-25T10:41:05.084Z</time></trkpt><trkpt lat="45.3819505" lon="14.1897356"><ele>930.0</ele><time>2026-04-25T10:41:06.082Z</time></trkpt><trkpt lat="45.3819692" lon="14.1896365"><ele>930.0</ele><time>2026-04-25T10:41:07.094Z</time></trkpt><trkpt lat="45.3819697" lon="14.1895168"><ele>930.0</ele><time>2026-04-25T10:41:08.093Z</time></trkpt><trkpt lat="45.3819595" lon="14.1893905"><ele>930.0</ele><time>2026-04-25T10:41:09.086Z</time></trkpt><trkpt lat="45.381944" lon="14.1892632"><ele>930.0</ele><time>2026-04-25T10:41:10.085Z</time></trkpt><trkpt lat="45.381928" lon="14.1891465"><ele>930.0</ele><time>2026-04-25T10:41:11.088Z</time></trkpt><trkpt lat="45.3819163" lon="14.1890303"><ele>930.0</ele><time>2026-04-25T10:41:12.088Z</time></trkpt><trkpt lat="45.3819171" lon="14.1889287"><ele>929.0</ele><time>2026-04-25T10:41:13.086Z</time></trkpt><trkpt lat="45.381933" lon="14.1887406"><ele>928.0</ele><time>2026-04-25T10:41:15.086Z</time></trkpt><trkpt lat="45.3819492" lon="14.1886526"><ele>927.0</ele><time>2026-04-25T10:41:16.089Z</time></trkpt><trkpt lat="45.3819802" lon="14.1884857"><ele>926.0</ele><time>2026-04-25T10:41:18.08Z</time></trkpt><trkpt lat="45.3820065" lon="14.1883"><ele>926.0</ele><time>2026-04-25T10:41:20.079Z</time></trkpt><trkpt lat="45.3820054" lon="14.188198"><ele>925.9999999999999</ele><time>2026-04-25T10:41:21.087Z</time></trkpt><trkpt lat="45.3820033" lon="14.1880892"><ele>926.0</ele><time>2026-04-25T10:41:22.102Z</time></trkpt><trkpt lat="45.3820022" lon="14.1879797"><ele>926.0</ele><time>2026-04-25T10:41:23.095Z</time></trkpt><trkpt lat="45.3820019" lon="14.1878694"><ele>925.9999999999999</ele><time>2026-04-25T10:41:24.098Z</time></trkpt><trkpt lat="45.3819989" lon="14.1877672"><ele>926.0</ele><time>2026-04-25T10:41:25.09Z</time></trkpt><trkpt lat="45.3819998" lon="14.1876706"><ele>926.0</ele><time>2026-04-25T10:41:26.089Z</time></trkpt><trkpt lat="45.3819968" lon="14.1875644"><ele>926.5000000000001</ele><time>2026-04-25T10:41:27.083Z</time></trkpt><trkpt lat="45.3820081" lon="14.1874502"><ele>927.0</ele><time>2026-04-25T10:41:28.094Z</time></trkpt><trkpt lat="45.3820062" lon="14.1873453"><ele>927.5</ele><time>2026-04-25T10:41:29.085Z</time></trkpt><trkpt lat="45.3819973" lon="14.1872433"><ele>928.0</ele><time>2026-04-25T10:41:30.087Z</time></trkpt><trkpt lat="45.3820096" lon="14.1871376"><ele>928.5000000000001</ele><time>2026-04-25T10:41:31.076Z</time></trkpt><trkpt lat="45.3820772" lon="14.1870153"><ele>929.0</ele><time>2026-04-25T10:41:33.067Z</time></trkpt><trkpt lat="45.3821309" lon="14.1869548"><ele>931.1666666666667</ele><time>2026-04-25T10:41:34.069Z</time></trkpt><trkpt lat="45.3821974" lon="14.1868831"><ele>933.3333333333334</ele><time>2026-04-25T10:41:35.094Z</time></trkpt><trkpt lat="45.3822618" lon="14.1868227"><ele>935.5</ele><time>2026-04-25T10:41:36.092Z</time></trkpt><trkpt lat="45.3823323" lon="14.1867797"><ele>937.6666666666667</ele><time>2026-04-25T10:41:37.083Z</time></trkpt><trkpt lat="45.3824077" lon="14.1867211"><ele>939.8333333333334</ele><time>2026-04-25T10:41:38.075Z</time></trkpt><trkpt lat="45.3824785" lon="14.1866572"><ele>942.0</ele><time>2026-04-25T10:41:39.082Z</time></trkpt><trkpt lat="45.3825486" lon="14.1866103"><ele>942.0</ele><time>2026-04-25T10:41:40.087Z</time></trkpt><trkpt lat="45.3826095" lon="14.1865679"><ele>942.0</ele><time>2026-04-25T10:41:41.073Z</time></trkpt><trkpt lat="45.382671" lon="14.1865188"><ele>942.0</ele><time>2026-04-25T10:41:42.091Z</time></trkpt><trkpt lat="45.3827316" lon="14.1864856"><ele>942.0</ele><time>2026-04-25T10:41:43.074Z</time></trkpt><trkpt lat="45.3828294" lon="14.186426"><ele>942.0</ele><time>2026-04-25T10:41:45.07Z</time></trkpt><trkpt lat="45.3829105" lon="14.1863019"><ele>942.0</ele><time>2026-04-25T10:41:47.067Z</time></trkpt><trkpt lat="45.3829504" lon="14.1862324"><ele>943.6666666666666</ele><time>2026-04-25T10:41:48.074Z</time></trkpt><trkpt lat="45.3829976" lon="14.1861441"><ele>945.3333333333333</ele><time>2026-04-25T10:41:49.07Z</time></trkpt><trkpt lat="45.3830526" lon="14.1860474"><ele>947.0</ele><time>2026-04-25T10:41:50.078Z</time></trkpt><trkpt lat="45.3831091" lon="14.1859571"><ele>948.6666666666666</ele><time>2026-04-25T10:41:51.07Z</time></trkpt><trkpt lat="45.3831583" lon="14.1858697"><ele>950.3333333333333</ele><time>2026-04-25T10:41:52.084Z</time></trkpt><trkpt lat="45.3832108" lon="14.1857905"><ele>952.0</ele><time>2026-04-25T10:41:53.087Z</time></trkpt><trkpt lat="45.3832624" lon="14.1857353"><ele>950.6666666666666</ele><time>2026-04-25T10:41:54.08Z</time></trkpt><trkpt lat="45.3833622" lon="14.1856301"><ele>949.3333333333333</ele><time>2026-04-25T10:41:56.08Z</time></trkpt><trkpt lat="45.3834119" lon="14.1855649"><ele>948.0</ele><time>2026-04-25T10:41:57.081Z</time></trkpt><trkpt lat="45.3834553" lon="14.1854906"><ele>946.6666666666667</ele><time>2026-04-25T10:41:58.085Z</time></trkpt><trkpt lat="45.3835123" lon="14.1853955"><ele>945.3333333333334</ele><time>2026-04-25T10:41:59.079Z</time></trkpt><trkpt lat="45.3835771" lon="14.1852884"><ele>944.0</ele><time>2026-04-25T10:42:00.087Z</time></trkpt><trkpt lat="45.3836366" lon="14.185195"><ele>944.0</ele><time>2026-04-25T10:42:01.078Z</time></trkpt><trkpt lat="45.3836793" lon="14.1851126"><ele>944.0000000000001</ele><time>2026-04-25T10:42:02.073Z</time></trkpt><trkpt lat="45.3837069" lon="14.1850309"><ele>944.0000000000001</ele><time>2026-04-25T10:42:03.071Z</time></trkpt><trkpt lat="45.383726" lon="14.1848656"><ele>944.0</ele><time>2026-04-25T10:42:05.078Z</time></trkpt><trkpt lat="45.3837077" lon="14.1847132"><ele>944.0</ele><time>2026-04-25T10:42:07.09Z</time></trkpt><trkpt lat="45.3837022" lon="14.1845436"><ele>944.1666666666667</ele><time>2026-04-25T10:42:09.071Z</time></trkpt><trkpt lat="45.3837191" lon="14.1844024"><ele>944.3333333333334</ele><time>2026-04-25T10:42:11.073Z</time></trkpt><trkpt lat="45.3837378" lon="14.1843101"><ele>944.5</ele><time>2026-04-25T10:42:13.075Z</time></trkpt><trkpt lat="45.3837255" lon="14.1841888"><ele>944.6666666666667</ele><time>2026-04-25T10:42:16.061Z</time></trkpt><trkpt lat="45.3837628" lon="14.1840562"><ele>944.8333333333334</ele><time>2026-04-25T10:42:19.073Z</time></trkpt><trkpt lat="45.3837767" lon="14.1839327"><ele>945.0</ele><time>2026-04-25T10:42:21.072Z</time></trkpt><trkpt lat="45.383778" lon="14.1838012"><ele>946.0</ele><time>2026-04-25T10:42:23.079Z</time></trkpt><trkpt lat="45.3837555" lon="14.1836891"><ele>947.0</ele><time>2026-04-25T10:42:25.084Z</time></trkpt><trkpt lat="45.3837582" lon="14.1835822"><ele>948.0</ele><time>2026-04-25T10:42:27.07Z</time></trkpt><trkpt lat="45.3837705" lon="14.1834917"><ele>949.0</ele><time>2026-04-25T10:42:29.08Z</time></trkpt><trkpt lat="45.383782" lon="14.1833512"><ele>950.0</ele><time>2026-04-25T10:42:32.083Z</time></trkpt><trkpt lat="45.3837548" lon="14.1832399"><ele>951.0</ele><time>2026-04-25T10:42:34.07Z</time></trkpt><trkpt lat="45.3837089" lon="14.1831098"><ele>952.3333333333334</ele><time>2026-04-25T10:42:36.085Z</time></trkpt><trkpt lat="45.3836787" lon="14.1830148"><ele>953.6666666666667</ele><time>2026-04-25T10:42:38.079Z</time></trkpt><trkpt lat="45.3836696" lon="14.1829226"><ele>955.0</ele><time>2026-04-25T10:42:41.072Z</time></trkpt><trkpt lat="45.3837171" lon="14.1828329"><ele>956.3333333333334</ele><time>2026-04-25T10:42:47.072Z</time></trkpt><trkpt lat="45.3837593" lon="14.1827386"><ele>957.6666666666667</ele><time>2026-04-25T10:42:50.074Z</time></trkpt><trkpt lat="45.3837944" lon="14.1826318"><ele>959.0</ele><time>2026-04-25T10:42:53.064Z</time></trkpt><trkpt lat="45.3838556" lon="14.1825461"><ele>959.0</ele><time>2026-04-25T10:42:56.073Z</time></trkpt><trkpt lat="45.3839044" lon="14.1824854"><ele>959.0</ele><time>2026-04-25T10:42:58.081Z</time></trkpt><trkpt lat="45.383953" lon="14.1823998"><ele>959.0</ele><time>2026-04-25T10:44:11.063Z</time></trkpt><trkpt lat="45.3839598" lon="14.1823009"><ele>959.0</ele><time>2026-04-25T10:44:16.061Z</time></trkpt><trkpt lat="45.3839987" lon="14.1822237"><ele>959.0</ele><time>2026-04-25T10:44:26.056Z</time></trkpt><trkpt lat="45.3840728" lon="14.1821832"><ele>959.0</ele><time>2026-04-25T10:44:31.07Z</time></trkpt><trkpt lat="45.3841475" lon="14.1821457"><ele>959.0</ele><time>2026-04-25T10:44:34.074Z</time></trkpt><trkpt lat="45.3842193" lon="14.1821119"><ele>962.8000000000001</ele><time>2026-04-25T10:44:36.079Z</time></trkpt><trkpt lat="45.3843057" lon="14.1820614"><ele>966.6000000000001</ele><time>2026-04-25T10:44:38.07Z</time></trkpt><trkpt lat="45.3843958" lon="14.1820067"><ele>970.4</ele><time>2026-04-25T10:44:40.063Z</time></trkpt><trkpt lat="45.3844883" lon="14.1819714"><ele>974.2</ele><time>2026-04-25T10:44:42.074Z</time></trkpt><trkpt lat="45.3845738" lon="14.1819501"><ele>978.0</ele><time>2026-04-25T10:44:44.073Z</time></trkpt><trkpt lat="45.3846733" lon="14.1819516"><ele>977.0</ele><time>2026-04-25T10:44:46.07Z</time></trkpt><trkpt lat="45.3847633" lon="14.181967"><ele>976.0</ele><time>2026-04-25T10:44:48.072Z</time></trkpt><trkpt lat="45.3848379" lon="14.1819682"><ele>975.0</ele><time>2026-04-25T10:44:50.078Z</time></trkpt><trkpt lat="45.3849262" lon="14.1819451"><ele>974.0</ele><time>2026-04-25T10:44:52.093Z</time></trkpt><trkpt lat="45.3849905" lon="14.1818745"><ele>973.0</ele><time>2026-04-25T10:44:54.062Z</time></trkpt><trkpt lat="45.3850451" lon="14.1817953"><ele>972.0</ele><time>2026-04-25T10:44:57.079Z</time></trkpt><trkpt lat="45.3850612" lon="14.1816671"><ele>972.0</ele><time>2026-04-25T10:45:00.065Z</time></trkpt><trkpt lat="45.3850533" lon="14.1815542"><ele>972.0</ele><time>2026-04-25T10:45:02.078Z</time></trkpt><trkpt lat="45.3850456" lon="14.1814234"><ele>972.0</ele><time>2026-04-25T10:45:04.084Z</time></trkpt><trkpt lat="45.3850262" lon="14.1812825"><ele>972.0</ele><time>2026-04-25T10:45:06.114Z</time></trkpt><trkpt lat="45.3850073" lon="14.1811186"><ele>972.0</ele><time>2026-04-25T10:45:08.086Z</time></trkpt><trkpt lat="45.3850118" lon="14.1810233"><ele>972.8</ele><time>2026-04-25T10:45:09.081Z</time></trkpt><trkpt lat="45.38501" lon="14.1808403"><ele>973.6</ele><time>2026-04-25T10:45:11.081Z</time></trkpt><trkpt lat="45.3850173" lon="14.1807264"><ele>974.3999999999999</ele><time>2026-04-25T10:45:13.081Z</time></trkpt><trkpt lat="45.3850472" lon="14.1806143"><ele>975.1999999999999</ele><time>2026-04-25T10:45:15.075Z</time></trkpt><trkpt lat="45.3851064" lon="14.1804717"><ele>976.0</ele><time>2026-04-25T10:45:17.069Z</time></trkpt><trkpt lat="45.3851498" lon="14.1803853"><ele>977.0</ele><time>2026-04-25T10:45:18.079Z</time></trkpt><trkpt lat="45.3851837" lon="14.1802978"><ele>977.9999999999999</ele><time>2026-04-25T10:45:19.072Z</time></trkpt><trkpt lat="45.3852136" lon="14.1801489"><ele>978.9999999999999</ele><time>2026-04-25T10:45:21.07Z</time></trkpt><trkpt lat="45.385225" lon="14.1799795"><ele>980.0</ele><time>2026-04-25T10:45:23.072Z</time></trkpt><trkpt lat="45.3852521" lon="14.1798182"><ele>981.0</ele><time>2026-04-25T10:45:25.08Z</time></trkpt><trkpt lat="45.3852607" lon="14.1796581"><ele>983.0</ele><time>2026-04-25T10:45:27.073Z</time></trkpt><trkpt lat="45.3852628" lon="14.1795638"><ele>985.0</ele><time>2026-04-25T10:45:28.069Z</time></trkpt><trkpt lat="45.3852712" lon="14.1794748"><ele>987.0</ele><time>2026-04-25T10:45:29.064Z</time></trkpt><trkpt lat="45.3853134" lon="14.1793095"><ele>989.0</ele><time>2026-04-25T10:45:31.089Z</time></trkpt><trkpt lat="45.3853474" lon="14.17922"><ele>991.0</ele><time>2026-04-25T10:45:32.077Z</time></trkpt><trkpt lat="45.3853695" lon="14.1791358"><ele>993.0</ele><time>2026-04-25T10:45:33.065Z</time></trkpt><trkpt lat="45.3853979" lon="14.1790456"><ele>995.3333333333334</ele><time>2026-04-25T10:45:34.069Z</time></trkpt><trkpt lat="45.3854189" lon="14.1789586"><ele>997.6666666666667</ele><time>2026-04-25T10:45:35.072Z</time></trkpt><trkpt lat="45.3854494" lon="14.1788775"><ele>1000.0</ele><time>2026-04-25T10:45:36.07Z</time></trkpt><trkpt lat="45.3854761" lon="14.1787926"><ele>1002.3333333333334</ele><time>2026-04-25T10:45:37.075Z</time></trkpt><trkpt lat="45.3855211" lon="14.1786334"><ele>1004.6666666666667</ele><time>2026-04-25T10:45:39.074Z</time></trkpt><trkpt lat="45.3855501" lon="14.1785537"><ele>1007.0</ele><time>2026-04-25T10:45:40.073Z</time></trkpt><trkpt lat="45.3856007" lon="14.1784148"><ele>1005.2</ele><time>2026-04-25T10:45:42.072Z</time></trkpt><trkpt lat="45.3856634" lon="14.1782796"><ele>1003.4000000000001</ele><time>2026-04-25T10:45:44.076Z</time></trkpt><trkpt lat="45.3857537" lon="14.1781536"><ele>1001.5999999999999</ele><time>2026-04-25T10:45:46.057Z</time></trkpt><trkpt lat="45.3857993" lon="14.1780859"><ele>999.8</ele><time>2026-04-25T10:45:47.065Z</time></trkpt><trkpt lat="45.3858447" lon="14.1780199"><ele>998.0</ele><time>2026-04-25T10:45:48.066Z</time></trkpt><trkpt lat="45.3859297" lon="14.1778896"><ele>998.0000000000001</ele><time>2026-04-25T10:45:50.064Z</time></trkpt><trkpt lat="45.3859754" lon="14.1778075"><ele>998.0</ele><time>2026-04-25T10:45:51.064Z</time></trkpt><trkpt lat="45.3860211" lon="14.1777374"><ele>998.0</ele><time>2026-04-25T10:45:52.069Z</time></trkpt><trkpt lat="45.3860838" lon="14.177628"><ele>998.0</ele><time>2026-04-25T10:45:54.056Z</time></trkpt><trkpt lat="45.3861278" lon="14.1775291"><ele>998.0000000000001</ele><time>2026-04-25T10:45:56.061Z</time></trkpt><trkpt lat="45.3861739" lon="14.1774213"><ele>998.0</ele><time>2026-04-25T10:45:58.062Z</time></trkpt><trkpt lat="45.3862152" lon="14.1773265"><ele>998.8</ele><time>2026-04-25T10:46:00.059Z</time></trkpt><trkpt lat="45.3862783" lon="14.1772337"><ele>999.5999999999999</ele><time>2026-04-25T10:46:02.062Z</time></trkpt><trkpt lat="45.3863388" lon="14.1771415"><ele>1000.4000000000001</ele><time>2026-04-25T10:46:04.065Z</time></trkpt><trkpt lat="45.3864245" lon="14.177038"><ele>1001.2</ele><time>2026-04-25T10:46:06.064Z</time></trkpt><trkpt lat="45.3865294" lon="14.1769526"><ele>1002.0</ele><time>2026-04-25T10:46:08.066Z</time></trkpt><trkpt lat="45.386624" lon="14.1768451"><ele>1002.0</ele><time>2026-04-25T10:46:10.074Z</time></trkpt><trkpt lat="45.3867041" lon="14.1767251"><ele>1002.0</ele><time>2026-04-25T10:46:12.058Z</time></trkpt><trkpt lat="45.386753" lon="14.1766286"><ele>1002.0</ele><time>2026-04-25T10:46:14.061Z</time></trkpt><trkpt lat="45.3868467" lon="14.176546"><ele>1002.0</ele><time>2026-04-25T10:46:16.068Z</time></trkpt><trkpt lat="45.3869509" lon="14.1764789"><ele>1002.0</ele><time>2026-04-25T10:46:18.067Z</time></trkpt><trkpt lat="45.3870687" lon="14.1763976"><ele>1003.3333333333334</ele><time>2026-04-25T10:46:20.085Z</time></trkpt><trkpt lat="45.3871263" lon="14.1763457"><ele>1004.6666666666667</ele><time>2026-04-25T10:46:21.061Z</time></trkpt><trkpt lat="45.3871768" lon="14.1762773"><ele>1006.0</ele><time>2026-04-25T10:46:22.061Z</time></trkpt><trkpt lat="45.3872531" lon="14.1761612"><ele>1007.3333333333334</ele><time>2026-04-25T10:46:24.062Z</time></trkpt><trkpt lat="45.3873446" lon="14.1760501"><ele>1008.6666666666667</ele><time>2026-04-25T10:46:26.073Z</time></trkpt><trkpt lat="45.3873952" lon="14.175977"><ele>1010.0</ele><time>2026-04-25T10:46:28.067Z</time></trkpt><trkpt lat="45.3874101" lon="14.1758767"><ele>1010.0000000000001</ele><time>2026-04-25T10:46:30.07Z</time></trkpt><trkpt lat="45.3874044" lon="14.1757641"><ele>1010.0</ele><time>2026-04-25T10:46:32.058Z</time></trkpt><trkpt lat="45.3873784" lon="14.1755979"><ele>1010.0</ele><time>2026-04-25T10:46:34.074Z</time></trkpt><trkpt lat="45.3873445" lon="14.1754534"><ele>1010.0</ele><time>2026-04-25T10:46:36.078Z</time></trkpt><trkpt lat="45.3873243" lon="14.1753668"><ele>1010.0000000000001</ele><time>2026-04-25T10:46:37.078Z</time></trkpt><trkpt lat="45.3873047" lon="14.175278"><ele>1010.0</ele><time>2026-04-25T10:46:38.071Z</time></trkpt><trkpt lat="45.3872902" lon="14.1751742"><ele>1011.6</ele><time>2026-04-25T10:46:39.073Z</time></trkpt><trkpt lat="45.3872723" lon="14.1750464"><ele>1013.2</ele><time>2026-04-25T10:46:40.101Z</time></trkpt><trkpt lat="45.3872548" lon="14.1749025"><ele>1014.8</ele><time>2026-04-25T10:46:41.071Z</time></trkpt><trkpt lat="45.3872444" lon="14.1747626"><ele>1016.4</ele><time>2026-04-25T10:46:42.073Z</time></trkpt><trkpt lat="45.3872411" lon="14.1746311"><ele>1018.0</ele><time>2026-04-25T10:46:43.073Z</time></trkpt><trkpt lat="45.3872401" lon="14.1745085"><ele>1017.8333333333333</ele><time>2026-04-25T10:46:44.071Z</time></trkpt><trkpt lat="45.3872423" lon="14.1743883"><ele>1017.6666666666666</ele><time>2026-04-25T10:46:45.069Z</time></trkpt><trkpt lat="45.3872456" lon="14.1742835"><ele>1017.5</ele><time>2026-04-25T10:46:46.063Z</time></trkpt><trkpt lat="45.3872331" lon="14.1741121"><ele>1017.3333333333333</ele><time>2026-04-25T10:46:48.071Z</time></trkpt><trkpt lat="45.3872007" lon="14.1740289"><ele>1017.1666666666666</ele><time>2026-04-25T10:46:49.058Z</time></trkpt><trkpt lat="45.3871593" lon="14.1739501"><ele>1017.0</ele><time>2026-04-25T10:46:50.069Z</time></trkpt><trkpt lat="45.3871108" lon="14.1738804"><ele>1017.0</ele><time>2026-04-25T10:46:51.053Z</time></trkpt><trkpt lat="45.3870602" lon="14.1737972"><ele>1017.0</ele><time>2026-04-25T10:46:52.073Z</time></trkpt><trkpt lat="45.3870126" lon="14.1737147"><ele>1017.0</ele><time>2026-04-25T10:46:53.065Z</time></trkpt><trkpt lat="45.3869573" lon="14.1736155"><ele>1017.0</ele><time>2026-04-25T10:46:54.079Z</time></trkpt><trkpt lat="45.3869114" lon="14.1735266"><ele>1017.0</ele><time>2026-04-25T10:46:55.073Z</time></trkpt><trkpt lat="45.3868566" lon="14.1734329"><ele>1017.0</ele><time>2026-04-25T10:46:56.083Z</time></trkpt><trkpt lat="45.3868126" lon="14.1733406"><ele>1017.0</ele><time>2026-04-25T10:46:57.071Z</time></trkpt><trkpt lat="45.3867794" lon="14.1732407"><ele>1017.0</ele><time>2026-04-25T10:46:58.064Z</time></trkpt><trkpt lat="45.3867416" lon="14.1731326"><ele>1017.0</ele><time>2026-04-25T10:46:59.068Z</time></trkpt><trkpt lat="45.386709" lon="14.1730252"><ele>1017.0</ele><time>2026-04-25T10:47:00.07Z</time></trkpt><trkpt lat="45.3866595" lon="14.1729213"><ele>1017.0</ele><time>2026-04-25T10:47:01.084Z</time></trkpt><trkpt lat="45.3866022" lon="14.1728183"><ele>1017.0</ele><time>2026-04-25T10:47:02.068Z</time></trkpt><trkpt lat="45.3865372" lon="14.1727198"><ele>1016.2</ele><time>2026-04-25T10:47:03.068Z</time></trkpt><trkpt lat="45.3864594" lon="14.1726287"><ele>1015.4000000000001</ele><time>2026-04-25T10:47:04.068Z</time></trkpt><trkpt lat="45.3863855" lon="14.1725382"><ele>1014.5999999999999</ele><time>2026-04-25T10:47:05.076Z</time></trkpt><trkpt lat="45.3863227" lon="14.1724616"><ele>1013.8</ele><time>2026-04-25T10:47:06.065Z</time></trkpt><trkpt lat="45.3862447" lon="14.1723899"><ele>1013.0</ele><time>2026-04-25T10:47:07.072Z</time></trkpt><trkpt lat="45.386172" lon="14.1723256"><ele>1014.5000000000001</ele><time>2026-04-25T10:47:08.08Z</time></trkpt><trkpt lat="45.386094" lon="14.172275"><ele>1016.0</ele><time>2026-04-25T10:47:09.062Z</time></trkpt><trkpt lat="45.3860115" lon="14.1722227"><ele>1017.5</ele><time>2026-04-25T10:47:10.067Z</time></trkpt><trkpt lat="45.3859366" lon="14.1721799"><ele>1019.0</ele><time>2026-04-25T10:47:11.067Z</time></trkpt><trkpt lat="45.3858598" lon="14.1721368"><ele>1020.5000000000001</ele><time>2026-04-25T10:47:12.076Z</time></trkpt><trkpt lat="45.3857797" lon="14.1721024"><ele>1022.0</ele><time>2026-04-25T10:47:13.065Z</time></trkpt><trkpt lat="45.3857084" lon="14.1720749"><ele>1022.0000000000001</ele><time>2026-04-25T10:47:14.071Z</time></trkpt><trkpt lat="45.3856276" lon="14.1720409"><ele>1022.0</ele><time>2026-04-25T10:47:15.073Z</time></trkpt><trkpt lat="45.3855634" lon="14.1720042"><ele>1022.0</ele><time>2026-04-25T10:47:16.068Z</time></trkpt><trkpt lat="45.3855046" lon="14.1719591"><ele>1022.0</ele><time>2026-04-25T10:47:17.069Z</time></trkpt><trkpt lat="45.3854302" lon="14.1719081"><ele>1022.0000000000001</ele><time>2026-04-25T10:47:18.075Z</time></trkpt><trkpt lat="45.3853575" lon="14.1718663"><ele>1022.0</ele><time>2026-04-25T10:47:19.072Z</time></trkpt><trkpt lat="45.3852895" lon="14.1718161"><ele>1021.8333333333334</ele><time>2026-04-25T10:47:20.063Z</time></trkpt><trkpt lat="45.3852223" lon="14.1717513"><ele>1021.6666666666667</ele><time>2026-04-25T10:47:21.072Z</time></trkpt><trkpt lat="45.3851548" lon="14.1716768"><ele>1021.5</ele><time>2026-04-25T10:47:22.07Z</time></trkpt><trkpt lat="45.3850896" lon="14.1715983"><ele>1021.3333333333333</ele><time>2026-04-25T10:47:23.068Z</time></trkpt><trkpt lat="45.3850295" lon="14.1715138"><ele>1021.1666666666666</ele><time>2026-04-25T10:47:24.077Z</time></trkpt><trkpt lat="45.3849732" lon="14.1714331"><ele>1021.0</ele><time>2026-04-25T10:47:25.075Z</time></trkpt><trkpt lat="45.3849167" lon="14.1713556"><ele>1021.0</ele><time>2026-04-25T10:47:26.068Z</time></trkpt><trkpt lat="45.3848625" lon="14.1712807"><ele>1021.0</ele><time>2026-04-25T10:47:27.075Z</time></trkpt><trkpt lat="45.3848094" lon="14.1711996"><ele>1021.0</ele><time>2026-04-25T10:47:28.072Z</time></trkpt><trkpt lat="45.3847653" lon="14.1711192"><ele>1021.0</ele><time>2026-04-25T10:47:29.063Z</time></trkpt><trkpt lat="45.3847222" lon="14.1710329"><ele>1021.0</ele><time>2026-04-25T10:47:30.065Z</time></trkpt><trkpt lat="45.3846893" lon="14.1709442"><ele>1021.0</ele><time>2026-04-25T10:47:31.07Z</time></trkpt><trkpt lat="45.3846568" lon="14.1708509"><ele>1021.0</ele><time>2026-04-25T10:47:32.066Z</time></trkpt><trkpt lat="45.3846235" lon="14.1707457"><ele>1018.9999999999999</ele><time>2026-04-25T10:47:33.073Z</time></trkpt><trkpt lat="45.3845894" lon="14.1706363"><ele>1017.0</ele><time>2026-04-25T10:47:34.07Z</time></trkpt><trkpt lat="45.3845493" lon="14.1705184"><ele>1015.0</ele><time>2026-04-25T10:47:35.064Z</time></trkpt><trkpt lat="45.3845093" lon="14.1704078"><ele>1013.0</ele><time>2026-04-25T10:47:36.065Z</time></trkpt><trkpt lat="45.384474" lon="14.1702992"><ele>1010.9999999999999</ele><time>2026-04-25T10:47:37.068Z</time></trkpt><trkpt lat="45.3844478" lon="14.1701921"><ele>1009.0</ele><time>2026-04-25T10:47:38.072Z</time></trkpt><trkpt lat="45.3844303" lon="14.1700937"><ele>1008.9999999999999</ele><time>2026-04-25T10:47:39.085Z</time></trkpt><trkpt lat="45.3843958" lon="14.1699473"><ele>1009.0</ele><time>2026-04-25T10:47:41.071Z</time></trkpt><trkpt lat="45.3843682" lon="14.1698003"><ele>1009.0</ele><time>2026-04-25T10:47:43.077Z</time></trkpt><trkpt lat="45.3843441" lon="14.1697118"><ele>1009.0</ele><time>2026-04-25T10:47:44.094Z</time></trkpt><trkpt lat="45.3842953" lon="14.1696515"><ele>1008.9999999999999</ele><time>2026-04-25T10:47:45.079Z</time></trkpt><trkpt lat="45.3842357" lon="14.1696085"><ele>1009.0</ele><time>2026-04-25T10:47:46.064Z</time></trkpt><trkpt lat="45.3841682" lon="14.169565"><ele>1009.3333333333333</ele><time>2026-04-25T10:47:47.065Z</time></trkpt><trkpt lat="45.384094" lon="14.1695251"><ele>1009.6666666666666</ele><time>2026-04-25T10:47:48.068Z</time></trkpt><trkpt lat="45.3840248" lon="14.1694795"><ele>1010.0</ele><time>2026-04-25T10:47:49.067Z</time></trkpt><trkpt lat="45.3839561" lon="14.169429"><ele>1010.3333333333333</ele><time>2026-04-25T10:47:50.116Z</time></trkpt><trkpt lat="45.3838833" lon="14.1693818"><ele>1010.6666666666666</ele><time>2026-04-25T10:47:51.067Z</time></trkpt><trkpt lat="45.3838112" lon="14.1693341"><ele>1011.0</ele><time>2026-04-25T10:47:52.068Z</time></trkpt><trkpt lat="45.3837368" lon="14.1692737"><ele>1009.8</ele><time>2026-04-25T10:47:53.079Z</time></trkpt><trkpt lat="45.3836632" lon="14.1692033"><ele>1008.5999999999999</ele><time>2026-04-25T10:47:54.071Z</time></trkpt><trkpt lat="45.3835933" lon="14.1691187"><ele>1007.4</ele><time>2026-04-25T10:47:55.078Z</time></trkpt><trkpt lat="45.3835206" lon="14.1690343"><ele>1006.2</ele><time>2026-04-25T10:47:56.076Z</time></trkpt><trkpt lat="45.3834366" lon="14.1689484"><ele>1005.0</ele><time>2026-04-25T10:47:57.072Z</time></trkpt><trkpt lat="45.3833414" lon="14.1688706"><ele>1005.0</ele><time>2026-04-25T10:47:58.077Z</time></trkpt><trkpt lat="45.3832448" lon="14.1687977"><ele>1005.0</ele><time>2026-04-25T10:47:59.072Z</time></trkpt><trkpt lat="45.383162" lon="14.1687252"><ele>1005.0</ele><time>2026-04-25T10:48:00.071Z</time></trkpt><trkpt lat="45.383111" lon="14.1686664"><ele>1005.0</ele><time>2026-04-25T10:48:01.079Z</time></trkpt><trkpt lat="45.3830715" lon="14.1685129"><ele>1005.0</ele><time>2026-04-25T10:48:03.054Z</time></trkpt><trkpt lat="45.3830781" lon="14.1683937"><ele>1005.0</ele><time>2026-04-25T10:48:04.068Z</time></trkpt><trkpt lat="45.3830826" lon="14.1682651"><ele>1005.0</ele><time>2026-04-25T10:48:05.053Z</time></trkpt><trkpt lat="45.3830767" lon="14.1681721"><ele>1005.0</ele><time>2026-04-25T10:48:06.073Z</time></trkpt><trkpt lat="45.3830693" lon="14.1680413"><ele>1005.0</ele><time>2026-04-25T10:48:08.079Z</time></trkpt><trkpt lat="45.3830725" lon="14.167949"><ele>1005.0</ele><time>2026-04-25T10:48:09.073Z</time></trkpt><trkpt lat="45.3830787" lon="14.1678428"><ele>1005.0</ele><time>2026-04-25T10:48:10.072Z</time></trkpt><trkpt lat="45.3830789" lon="14.1677488"><ele>1005.0</ele><time>2026-04-25T10:48:11.071Z</time></trkpt><trkpt lat="45.383077" lon="14.1675818"><ele>1005.0</ele><time>2026-04-25T10:48:13.086Z</time></trkpt><trkpt lat="45.3830718" lon="14.1674802"><ele>1005.0</ele><time>2026-04-25T10:48:14.1Z</time></trkpt><trkpt lat="45.3830683" lon="14.167375"><ele>1005.0</ele><time>2026-04-25T10:48:15.082Z</time></trkpt><trkpt lat="45.3830711" lon="14.1672604"><ele>1005.0</ele><time>2026-04-25T10:48:16.083Z</time></trkpt><trkpt lat="45.3830821" lon="14.1671512"><ele>1005.0</ele><time>2026-04-25T10:48:17.083Z</time></trkpt><trkpt lat="45.3830949" lon="14.1670354"><ele>1005.5</ele><time>2026-04-25T10:48:18.086Z</time></trkpt><trkpt lat="45.3831031" lon="14.1669252"><ele>1006.0</ele><time>2026-04-25T10:48:19.086Z</time></trkpt><trkpt lat="45.3831" lon="14.166813"><ele>1006.5</ele><time>2026-04-25T10:48:20.094Z</time></trkpt><trkpt lat="45.3830757" lon="14.1666893"><ele>1007.0</ele><time>2026-04-25T10:48:21.069Z</time></trkpt><trkpt lat="45.3830458" lon="14.1665725"><ele>1007.5</ele><time>2026-04-25T10:48:22.084Z</time></trkpt><trkpt lat="45.3830193" lon="14.1664694"><ele>1008.0</ele><time>2026-04-25T10:48:23.079Z</time></trkpt><trkpt lat="45.3830026" lon="14.1663616"><ele>1007.8571428571429</ele><time>2026-04-25T10:48:24.083Z</time></trkpt><trkpt lat="45.382999" lon="14.1662648"><ele>1007.7142857142858</ele><time>2026-04-25T10:48:25.085Z</time></trkpt><trkpt lat="45.3829885" lon="14.166163"><ele>1007.5714285714286</ele><time>2026-04-25T10:48:26.073Z</time></trkpt><trkpt lat="45.3829709" lon="14.1660624"><ele>1007.4285714285714</ele><time>2026-04-25T10:48:27.085Z</time></trkpt><trkpt lat="45.3829461" lon="14.1659534"><ele>1007.2857142857143</ele><time>2026-04-25T10:48:28.08Z</time></trkpt><trkpt lat="45.3829185" lon="14.16585"><ele>1007.1428571428571</ele><time>2026-04-25T10:48:29.071Z</time></trkpt><trkpt lat="45.3828746" lon="14.165762"><ele>1007.0</ele><time>2026-04-25T10:48:30.07Z</time></trkpt><trkpt lat="45.3828026" lon="14.1656903"><ele>1007.0000000000001</ele><time>2026-04-25T10:48:31.064Z</time></trkpt><trkpt lat="45.3827316" lon="14.165629"><ele>1007.0</ele><time>2026-04-25T10:48:32.071Z</time></trkpt><trkpt lat="45.3826533" lon="14.1655584"><ele>1007.0</ele><time>2026-04-25T10:48:33.07Z</time></trkpt><trkpt lat="45.3825871" lon="14.1654977"><ele>1007.0</ele><time>2026-04-25T10:48:34.074Z</time></trkpt><trkpt lat="45.3825198" lon="14.1654406"><ele>1007.0000000000001</ele><time>2026-04-25T10:48:35.071Z</time></trkpt><trkpt lat="45.3824596" lon="14.1653886"><ele>1007.0</ele><time>2026-04-25T10:48:36.071Z</time></trkpt><trkpt lat="45.3823983" lon="14.1653392"><ele>1007.0000000000001</ele><time>2026-04-25T10:48:37.071Z</time></trkpt><trkpt lat="45.3823322" lon="14.1652805"><ele>1007.0</ele><time>2026-04-25T10:48:38.085Z</time></trkpt><trkpt lat="45.3822774" lon="14.1652164"><ele>1007.0</ele><time>2026-04-25T10:48:39.082Z</time></trkpt><trkpt lat="45.3822197" lon="14.1651473"><ele>1007.0</ele><time>2026-04-25T10:48:40.084Z</time></trkpt><trkpt lat="45.3821634" lon="14.1650761"><ele>1007.0000000000001</ele><time>2026-04-25T10:48:41.078Z</time></trkpt><trkpt lat="45.3821059" lon="14.165009"><ele>1007.0</ele><time>2026-04-25T10:48:42.078Z</time></trkpt><trkpt lat="45.3820378" lon="14.1649189"><ele>1006.3333333333334</ele><time>2026-04-25T10:48:43.09Z</time></trkpt><trkpt lat="45.3819898" lon="14.1648031"><ele>1005.6666666666667</ele><time>2026-04-25T10:48:44.082Z</time></trkpt><trkpt lat="45.3819503" lon="14.1646944"><ele>1005.0</ele><time>2026-04-25T10:48:45.075Z</time></trkpt><trkpt lat="45.3819156" lon="14.1645913"><ele>1004.3333333333333</ele><time>2026-04-25T10:48:46.093Z</time></trkpt><trkpt lat="45.3818862" lon="14.1644826"><ele>1003.6666666666666</ele><time>2026-04-25T10:48:47.072Z</time></trkpt><trkpt lat="45.3818508" lon="14.1643696"><ele>1003.0</ele><time>2026-04-25T10:48:48.069Z</time></trkpt><trkpt lat="45.3818135" lon="14.1642603"><ele>1002.9999999999999</ele><time>2026-04-25T10:48:49.073Z</time></trkpt><trkpt lat="45.3817703" lon="14.164139"><ele>1003.0</ele><time>2026-04-25T10:48:50.071Z</time></trkpt><trkpt lat="45.3817265" lon="14.1640144"><ele>1003.0</ele><time>2026-04-25T10:48:51.078Z</time></trkpt><trkpt lat="45.3816856" lon="14.1639077"><ele>1003.0</ele><time>2026-04-25T10:48:52.071Z</time></trkpt><trkpt lat="45.3816583" lon="14.163806"><ele>1002.9999999999999</ele><time>2026-04-25T10:48:53.068Z</time></trkpt><trkpt lat="45.3816393" lon="14.1637013"><ele>1003.0</ele><time>2026-04-25T10:48:54.069Z</time></trkpt><trkpt lat="45.3816065" lon="14.1636107"><ele>1003.9999999999999</ele><time>2026-04-25T10:48:55.07Z</time></trkpt><trkpt lat="45.3815595" lon="14.1635423"><ele>1005.0</ele><time>2026-04-25T10:48:56.069Z</time></trkpt><trkpt lat="45.3814398" lon="14.1634547"><ele>1006.0</ele><time>2026-04-25T10:48:58.056Z</time></trkpt><trkpt lat="45.3813646" lon="14.1634376"><ele>1007.0</ele><time>2026-04-25T10:48:59.063Z</time></trkpt><trkpt lat="45.3812862" lon="14.1634526"><ele>1007.9999999999999</ele><time>2026-04-25T10:49:00.06Z</time></trkpt><trkpt lat="45.3812056" lon="14.1634732"><ele>1009.0</ele><time>2026-04-25T10:49:01.065Z</time></trkpt><trkpt lat="45.3811259" lon="14.1634916"><ele>1009.1666666666666</ele><time>2026-04-25T10:49:02.096Z</time></trkpt><trkpt lat="45.3810482" lon="14.1635114"><ele>1009.3333333333333</ele><time>2026-04-25T10:49:03.07Z</time></trkpt><trkpt lat="45.3809757" lon="14.1635349"><ele>1009.5</ele><time>2026-04-25T10:49:04.075Z</time></trkpt><trkpt lat="45.3809113" lon="14.1635501"><ele>1009.6666666666667</ele><time>2026-04-25T10:49:05.068Z</time></trkpt><trkpt lat="45.380808" lon="14.1635863"><ele>1009.8333333333334</ele><time>2026-04-25T10:49:07.064Z</time></trkpt><trkpt lat="45.3807237" lon="14.1636428"><ele>1010.0</ele><time>2026-04-25T10:49:09.086Z</time></trkpt><trkpt lat="45.3806507" lon="14.163732"><ele>1010.0000000000001</ele><time>2026-04-25T10:49:11.081Z</time></trkpt><trkpt lat="45.3806126" lon="14.1638104"><ele>1010.0</ele><time>2026-04-25T10:49:12.078Z</time></trkpt><trkpt lat="45.3805777" lon="14.1638858"><ele>1010.0</ele><time>2026-04-25T10:49:13.081Z</time></trkpt><trkpt lat="45.3805117" lon="14.1639937"><ele>1010.0</ele><time>2026-04-25T10:49:15.083Z</time></trkpt><trkpt lat="45.3804594" lon="14.164062"><ele>1010.0000000000001</ele><time>2026-04-25T10:49:17.076Z</time></trkpt><trkpt lat="45.3803881" lon="14.1641525"><ele>1010.0</ele><time>2026-04-25T10:49:19.079Z</time></trkpt><trkpt lat="45.3803113" lon="14.1642606"><ele>1009.8333333333334</ele><time>2026-04-25T10:49:21.082Z</time></trkpt><trkpt lat="45.3802426" lon="14.1643312"><ele>1009.6666666666667</ele><time>2026-04-25T10:49:22.1Z</time></trkpt><trkpt lat="45.3801801" lon="14.1644151"><ele>1009.5</ele><time>2026-04-25T10:49:23.065Z</time></trkpt><trkpt lat="45.3801189" lon="14.1644781"><ele>1009.3333333333333</ele><time>2026-04-25T10:49:24.084Z</time></trkpt><trkpt lat="45.3800372" lon="14.1645415"><ele>1009.1666666666666</ele><time>2026-04-25T10:49:25.071Z</time></trkpt><trkpt lat="45.3799597" lon="14.1645927"><ele>1009.0</ele><time>2026-04-25T10:49:26.081Z</time></trkpt><trkpt lat="45.3798789" lon="14.1646403"><ele>1009.0</ele><time>2026-04-25T10:49:27.073Z</time></trkpt><trkpt lat="45.3797947" lon="14.1646829"><ele>1009.0000000000001</ele><time>2026-04-25T10:49:28.08Z</time></trkpt><trkpt lat="45.3796938" lon="14.164722"><ele>1009.0000000000001</ele><time>2026-04-25T10:49:29.085Z</time></trkpt><trkpt lat="45.3796058" lon="14.1647487"><ele>1009.0</ele><time>2026-04-25T10:49:30.086Z</time></trkpt><trkpt lat="45.3795244" lon="14.1647764"><ele>1009.0</ele><time>2026-04-25T10:49:31.079Z</time></trkpt><trkpt lat="45.3794353" lon="14.1647958"><ele>1008.8333333333333</ele><time>2026-04-25T10:49:32.103Z</time></trkpt><trkpt lat="45.3793552" lon="14.164811"><ele>1008.6666666666666</ele><time>2026-04-25T10:49:33.073Z</time></trkpt><trkpt lat="45.3792731" lon="14.164808"><ele>1008.5</ele><time>2026-04-25T10:49:34.089Z</time></trkpt><trkpt lat="45.3791858" lon="14.1647887"><ele>1008.3333333333333</ele><time>2026-04-25T10:49:35.08Z</time></trkpt><trkpt lat="45.3790991" lon="14.1647499"><ele>1008.1666666666666</ele><time>2026-04-25T10:49:36.082Z</time></trkpt><trkpt lat="45.3790086" lon="14.1646853"><ele>1008.0</ele><time>2026-04-25T10:49:37.072Z</time></trkpt><trkpt lat="45.3789274" lon="14.1646306"><ele>1006.5999999999999</ele><time>2026-04-25T10:49:38.071Z</time></trkpt><trkpt lat="45.3788432" lon="14.1645746"><ele>1005.1999999999999</ele><time>2026-04-25T10:49:39.079Z</time></trkpt><trkpt lat="45.3787554" lon="14.1645191"><ele>1003.8</ele><time>2026-04-25T10:49:40.082Z</time></trkpt><trkpt lat="45.3786626" lon="14.164475"><ele>1002.4</ele><time>2026-04-25T10:49:41.082Z</time></trkpt><trkpt lat="45.3785805" lon="14.1644265"><ele>1001.0</ele><time>2026-04-25T10:49:42.086Z</time></trkpt><trkpt lat="45.378488" lon="14.1643737"><ele>1001.0000000000001</ele><time>2026-04-25T10:49:43.071Z</time></trkpt><trkpt lat="45.3784107" lon="14.1643381"><ele>1001.0</ele><time>2026-04-25T10:49:44.074Z</time></trkpt><trkpt lat="45.3783374" lon="14.1643083"><ele>1001.0</ele><time>2026-04-25T10:49:46.082Z</time></trkpt><trkpt lat="45.3782582" lon="14.1642431"><ele>1001.0</ele><time>2026-04-25T10:49:49.086Z</time></trkpt><trkpt lat="45.3782469" lon="14.1641365"><ele>1001.0000000000001</ele><time>2026-04-25T10:49:51.074Z</time></trkpt><trkpt lat="45.3782539" lon="14.1640391"><ele>1001.0</ele><time>2026-04-25T10:49:52.068Z</time></trkpt><trkpt lat="45.378251" lon="14.1639093"><ele>1001.5000000000001</ele><time>2026-04-25T10:49:53.071Z</time></trkpt><trkpt lat="45.3782333" lon="14.1637667"><ele>1002.0</ele><time>2026-04-25T10:49:54.106Z</time></trkpt><trkpt lat="45.3781931" lon="14.1636347"><ele>1002.5</ele><time>2026-04-25T10:49:55.079Z</time></trkpt><trkpt lat="45.3781509" lon="14.1635156"><ele>1003.0</ele><time>2026-04-25T10:49:56.087Z</time></trkpt><trkpt lat="45.3781199" lon="14.1634174"><ele>1003.5000000000001</ele><time>2026-04-25T10:49:57.079Z</time></trkpt><trkpt lat="45.378102" lon="14.1633202"><ele>1004.0</ele><time>2026-04-25T10:49:58.076Z</time></trkpt><trkpt lat="45.3780881" lon="14.1632164"><ele>1004.1666666666667</ele><time>2026-04-25T10:49:59.084Z</time></trkpt><trkpt lat="45.3780875" lon="14.1631025"><ele>1004.3333333333334</ele><time>2026-04-25T10:50:00.087Z</time></trkpt><trkpt lat="45.3781103" lon="14.1629883"><ele>1004.5</ele><time>2026-04-25T10:50:01.082Z</time></trkpt><trkpt lat="45.3781694" lon="14.1628845"><ele>1004.6666666666667</ele><time>2026-04-25T10:50:02.08Z</time></trkpt><trkpt lat="45.3782286" lon="14.1627948"><ele>1004.8333333333334</ele><time>2026-04-25T10:50:03.072Z</time></trkpt><trkpt lat="45.3782832" lon="14.1626894"><ele>1005.0</ele><time>2026-04-25T10:50:04.095Z</time></trkpt><trkpt lat="45.3783253" lon="14.162564"><ele>1005.0</ele><time>2026-04-25T10:50:05.073Z</time></trkpt><trkpt lat="45.3783617" lon="14.1624373"><ele>1005.0</ele><time>2026-04-25T10:50:06.083Z</time></trkpt><trkpt lat="45.3783921" lon="14.1622887"><ele>1005.0</ele><time>2026-04-25T10:50:07.085Z</time></trkpt><trkpt lat="45.378406" lon="14.1621707"><ele>1005.0</ele><time>2026-04-25T10:50:08.078Z</time></trkpt><trkpt lat="45.3784094" lon="14.1620546"><ele>1005.0</ele><time>2026-04-25T10:50:09.083Z</time></trkpt><trkpt lat="45.3783931" lon="14.161936"><ele>1004.3333333333334</ele><time>2026-04-25T10:50:10.083Z</time></trkpt><trkpt lat="45.3783538" lon="14.1618187"><ele>1003.6666666666667</ele><time>2026-04-25T10:50:11.066Z</time></trkpt><trkpt lat="45.3783227" lon="14.1617091"><ele>1003.0</ele><time>2026-04-25T10:50:12.071Z</time></trkpt><trkpt lat="45.3783002" lon="14.1616249"><ele>1002.3333333333334</ele><time>2026-04-25T10:50:13.081Z</time></trkpt><trkpt lat="45.3782944" lon="14.1614954"><ele>1001.6666666666667</ele><time>2026-04-25T10:50:15.088Z</time></trkpt><trkpt lat="45.3783194" lon="14.1613951"><ele>1001.0</ele><time>2026-04-25T10:50:17.082Z</time></trkpt><trkpt lat="45.378387" lon="14.1613578"><ele>1001.0000000000001</ele><time>2026-04-25T10:50:38.066Z</time></trkpt><trkpt lat="45.3783175" lon="14.1613663"><ele>1001.0</ele><time>2026-04-25T10:51:05.071Z</time></trkpt><trkpt lat="45.3782912" lon="14.1614831"><ele>1001.0</ele><time>2026-04-25T10:51:07.066Z</time></trkpt><trkpt lat="45.3782773" lon="14.1616334"><ele>1001.0</ele><time>2026-04-25T10:51:09.079Z</time></trkpt><trkpt lat="45.3783014" lon="14.1617231"><ele>1001.0000000000001</ele><time>2026-04-25T10:51:10.073Z</time></trkpt><trkpt lat="45.3783388" lon="14.1618129"><ele>1001.0</ele><time>2026-04-25T10:51:11.067Z</time></trkpt><trkpt lat="45.3783682" lon="14.1619094"><ele>1001.0</ele><time>2026-04-25T10:51:12.073Z</time></trkpt><trkpt lat="45.378387" lon="14.162009"><ele>1000.9999999999999</ele><time>2026-04-25T10:51:13.08Z</time></trkpt><trkpt lat="45.3783975" lon="14.1621879"><ele>1000.9999999999999</ele><time>2026-04-25T10:51:15.086Z</time></trkpt><trkpt lat="45.378375" lon="14.1623653"><ele>1001.0</ele><time>2026-04-25T10:51:17.093Z</time></trkpt><trkpt lat="45.3783516" lon="14.1624561"><ele>1001.0</ele><time>2026-04-25T10:51:18.094Z</time></trkpt><trkpt lat="45.3783243" lon="14.1625564"><ele>1001.6666666666667</ele><time>2026-04-25T10:51:19.091Z</time></trkpt><trkpt lat="45.3782931" lon="14.162664"><ele>1002.3333333333334</ele><time>2026-04-25T10:51:20.088Z</time></trkpt><trkpt lat="45.3782497" lon="14.1627707"><ele>1003.0</ele><time>2026-04-25T10:51:21.097Z</time></trkpt><trkpt lat="45.3781977" lon="14.1628673"><ele>1003.6666666666667</ele><time>2026-04-25T10:51:22.09Z</time></trkpt><trkpt lat="45.3781515" lon="14.1629549"><ele>1004.3333333333334</ele><time>2026-04-25T10:51:23.093Z</time></trkpt><trkpt lat="45.3781184" lon="14.163042"><ele>1005.0</ele><time>2026-04-25T10:51:24.092Z</time></trkpt><trkpt lat="45.3780961" lon="14.1631296"><ele>1004.8333333333334</ele><time>2026-04-25T10:51:25.085Z</time></trkpt><trkpt lat="45.3781009" lon="14.1632542"><ele>1004.6666666666667</ele><time>2026-04-25T10:51:26.093Z</time></trkpt><trkpt lat="45.3781236" lon="14.1633822"><ele>1004.5</ele><time>2026-04-25T10:51:27.064Z</time></trkpt><trkpt lat="45.3781478" lon="14.1634962"><ele>1004.3333333333334</ele><time>2026-04-25T10:51:28.075Z</time></trkpt><trkpt lat="45.3781777" lon="14.163606"><ele>1004.1666666666667</ele><time>2026-04-25T10:51:29.089Z</time></trkpt><trkpt lat="45.3782129" lon="14.163713"><ele>1004.0</ele><time>2026-04-25T10:51:30.085Z</time></trkpt><trkpt lat="45.3782395" lon="14.1638179"><ele>1003.9999999999999</ele><time>2026-04-25T10:51:31.088Z</time></trkpt><trkpt lat="45.3782561" lon="14.163928"><ele>1004.0</ele><time>2026-04-25T10:51:32.089Z</time></trkpt><trkpt lat="45.378257" lon="14.1640411"><ele>1003.9999999999999</ele><time>2026-04-25T10:51:33.083Z</time></trkpt><trkpt lat="45.3782478" lon="14.1641455"><ele>1003.9999999999999</ele><time>2026-04-25T10:51:34.087Z</time></trkpt><trkpt lat="45.3782237" lon="14.1642418"><ele>1004.0</ele><time>2026-04-25T10:51:35.081Z</time></trkpt><trkpt lat="45.3781802" lon="14.1643139"><ele>1003.9999999999999</ele><time>2026-04-25T10:51:36.067Z</time></trkpt><trkpt lat="45.3781292" lon="14.1643835"><ele>1003.9999999999999</ele><time>2026-04-25T10:51:37.063Z</time></trkpt><trkpt lat="45.3780786" lon="14.1644555"><ele>1003.5714285714284</ele><time>2026-04-25T10:51:38.095Z</time></trkpt><trkpt lat="45.3780343" lon="14.1645327"><ele>1003.1428571428571</ele><time>2026-04-25T10:51:39.084Z</time></trkpt><trkpt lat="45.3779925" lon="14.1646152"><ele>1002.7142857142857</ele><time>2026-04-25T10:51:40.095Z</time></trkpt><trkpt lat="45.3779626" lon="14.1647096"><ele>1002.2857142857142</ele><time>2026-04-25T10:51:41.088Z</time></trkpt><trkpt lat="45.3779402" lon="14.1648"><ele>1001.8571428571429</ele><time>2026-04-25T10:51:42.1Z</time></trkpt><trkpt lat="45.3779201" lon="14.1648955"><ele>1001.4285714285714</ele><time>2026-04-25T10:51:43.083Z</time></trkpt><trkpt lat="45.3778981" lon="14.1649958"><ele>1001.0</ele><time>2026-04-25T10:51:44.083Z</time></trkpt><trkpt lat="45.3778776" lon="14.1650968"><ele>997.4</ele><time>2026-04-25T10:51:45.087Z</time></trkpt><trkpt lat="45.3778479" lon="14.1651974"><ele>993.8</ele><time>2026-04-25T10:51:46.087Z</time></trkpt><trkpt lat="45.3778077" lon="14.1653043"><ele>990.1999999999999</ele><time>2026-04-25T10:51:47.086Z</time></trkpt><trkpt lat="45.3777534" lon="14.1654107"><ele>986.5999999999999</ele><time>2026-04-25T10:51:48.081Z</time></trkpt><trkpt lat="45.3776826" lon="14.1655104"><ele>983.0</ele><time>2026-04-25T10:51:49.076Z</time></trkpt><trkpt lat="45.3776084" lon="14.1656186"><ele>985.5999999999999</ele><time>2026-04-25T10:51:50.075Z</time></trkpt><trkpt lat="45.3775393" lon="14.1657241"><ele>988.1999999999999</ele><time>2026-04-25T10:51:51.073Z</time></trkpt><trkpt lat="45.3774702" lon="14.1658187"><ele>990.8</ele><time>2026-04-25T10:51:52.089Z</time></trkpt><trkpt lat="45.3774004" lon="14.1658983"><ele>993.4</ele><time>2026-04-25T10:51:53.08Z</time></trkpt><trkpt lat="45.3773257" lon="14.1659659"><ele>996.0</ele><time>2026-04-25T10:51:54.081Z</time></trkpt><trkpt lat="45.3772625" lon="14.1660297"><ele>996.0</ele><time>2026-04-25T10:51:55.076Z</time></trkpt><trkpt lat="45.377205" lon="14.1660901"><ele>996.0</ele><time>2026-04-25T10:51:56.09Z</time></trkpt><trkpt lat="45.3771546" lon="14.1661473"><ele>996.0</ele><time>2026-04-25T10:51:57.081Z</time></trkpt><trkpt lat="45.3770852" lon="14.1662644"><ele>996.0</ele><time>2026-04-25T10:51:59.081Z</time></trkpt><trkpt lat="45.3770298" lon="14.1663597"><ele>996.0</ele><time>2026-04-25T10:52:01.085Z</time></trkpt><trkpt lat="45.3769423" lon="14.1664255"><ele>996.0</ele><time>2026-04-25T10:52:03.098Z</time></trkpt><trkpt lat="45.3768572" lon="14.1664652"><ele>996.6666666666666</ele><time>2026-04-25T10:52:05.079Z</time></trkpt><trkpt lat="45.3767898" lon="14.1664407"><ele>997.3333333333333</ele><time>2026-04-25T10:52:08.092Z</time></trkpt><trkpt lat="45.3768677" lon="14.1664747"><ele>998.0</ele><time>2026-04-25T10:52:40.063Z</time></trkpt><trkpt lat="45.3769857" lon="14.1663994"><ele>998.6666666666666</ele><time>2026-04-25T10:52:42.065Z</time></trkpt><trkpt lat="45.377055" lon="14.1663273"><ele>999.3333333333333</ele><time>2026-04-25T10:52:43.072Z</time></trkpt><trkpt lat="45.37712" lon="14.1662532"><ele>1000.0</ele><time>2026-04-25T10:52:44.082Z</time></trkpt><trkpt lat="45.3771784" lon="14.1661725"><ele>999.3333333333333</ele><time>2026-04-25T10:52:45.093Z</time></trkpt><trkpt lat="45.377236" lon="14.1660964"><ele>998.6666666666666</ele><time>2026-04-25T10:52:46.098Z</time></trkpt><trkpt lat="45.3772961" lon="14.1660189"><ele>998.0</ele><time>2026-04-25T10:52:47.096Z</time></trkpt><trkpt lat="45.3773694" lon="14.1659478"><ele>997.3333333333333</ele><time>2026-04-25T10:52:48.086Z</time></trkpt><trkpt lat="45.3774428" lon="14.165872"><ele>996.6666666666666</ele><time>2026-04-25T10:52:49.093Z</time></trkpt><trkpt lat="45.3775084" lon="14.1657884"><ele>996.0</ele><time>2026-04-25T10:52:51.09Z</time></trkpt><trkpt lat="45.3775755" lon="14.1657025"><ele>993.8333333333334</ele><time>2026-04-25T10:52:54.115Z</time></trkpt><trkpt lat="45.377649" lon="14.165577"><ele>991.6666666666667</ele><time>2026-04-25T10:52:56.086Z</time></trkpt><trkpt lat="45.3777016" lon="14.1654964"><ele>989.5</ele><time>2026-04-25T10:52:57.096Z</time></trkpt><trkpt lat="45.3777567" lon="14.1654084"><ele>987.3333333333334</ele><time>2026-04-25T10:52:58.088Z</time></trkpt><trkpt lat="45.377814" lon="14.1653323"><ele>985.1666666666667</ele><time>2026-04-25T10:52:59.1Z</time></trkpt><trkpt lat="45.3778647" lon="14.1652621"><ele>983.0</ele><time>2026-04-25T10:53:00.09Z</time></trkpt><trkpt lat="45.377903" lon="14.1651834"><ele>983.0000000000001</ele><time>2026-04-25T10:53:01.093Z</time></trkpt><trkpt lat="45.3779391" lon="14.165102"><ele>983.0</ele><time>2026-04-25T10:53:02.092Z</time></trkpt><trkpt lat="45.3779624" lon="14.1649345"><ele>983.0</ele><time>2026-04-25T10:53:04.093Z</time></trkpt><trkpt lat="45.3779875" lon="14.1647752"><ele>983.0</ele><time>2026-04-25T10:53:06.1Z</time></trkpt><trkpt lat="45.3780088" lon="14.1646859"><ele>983.0000000000001</ele><time>2026-04-25T10:53:07.087Z</time></trkpt><trkpt lat="45.3780341" lon="14.1645954"><ele>983.0</ele><time>2026-04-25T10:53:08.094Z</time></trkpt><trkpt lat="45.3780659" lon="14.1645138"><ele>986.5999999999999</ele><time>2026-04-25T10:53:09.088Z</time></trkpt><trkpt lat="45.3781389" lon="14.1643841"><ele>990.1999999999999</ele><time>2026-04-25T10:53:11.093Z</time></trkpt><trkpt lat="45.3782027" lon="14.1642999"><ele>993.8</ele><time>2026-04-25T10:53:13.089Z</time></trkpt><trkpt lat="45.378274" lon="14.1642767"><ele>997.4</ele><time>2026-04-25T10:53:15.079Z</time></trkpt><trkpt lat="45.3783778" lon="14.164326"><ele>1001.0</ele><time>2026-04-25T10:53:17.067Z</time></trkpt><trkpt lat="45.3784847" lon="14.1643707"><ele>1001.0000000000001</ele><time>2026-04-25T10:53:19.083Z</time></trkpt><trkpt lat="45.3785785" lon="14.1644037"><ele>1001.0</ele><time>2026-04-25T10:53:21.096Z</time></trkpt><trkpt lat="45.3786955" lon="14.1644413"><ele>1001.0</ele><time>2026-04-25T10:53:23.09Z</time></trkpt><trkpt lat="45.3787602" lon="14.1644689"><ele>1001.0</ele><time>2026-04-25T10:53:24.092Z</time></trkpt><trkpt lat="45.3788269" lon="14.1645036"><ele>1001.0000000000001</ele><time>2026-04-25T10:53:25.096Z</time></trkpt><trkpt lat="45.3788929" lon="14.1645508"><ele>1001.0</ele><time>2026-04-25T10:53:26.094Z</time></trkpt><trkpt lat="45.3789571" lon="14.1646058"><ele>1002.1666666666667</ele><time>2026-04-25T10:53:27.096Z</time></trkpt><trkpt lat="45.3790287" lon="14.1646483"><ele>1003.3333333333334</ele><time>2026-04-25T10:53:28.097Z</time></trkpt><trkpt lat="45.3791012" lon="14.1646963"><ele>1004.5</ele><time>2026-04-25T10:53:29.087Z</time></trkpt><trkpt lat="45.3791785" lon="14.1647349"><ele>1005.6666666666667</ele><time>2026-04-25T10:53:30.099Z</time></trkpt><trkpt lat="45.379256" lon="14.1647786"><ele>1006.8333333333334</ele><time>2026-04-25T10:53:31.1Z</time></trkpt><trkpt lat="45.3793384" lon="14.1648103"><ele>1008.0</ele><time>2026-04-25T10:53:32.109Z</time></trkpt><trkpt lat="45.3794104" lon="14.1648225"><ele>1008.0</ele><time>2026-04-25T10:53:33.091Z</time></trkpt><trkpt lat="45.3794793" lon="14.1648193"><ele>1008.0</ele><time>2026-04-25T10:53:34.111Z</time></trkpt><trkpt lat="45.3795459" lon="14.1648055"><ele>1008.0</ele><time>2026-04-25T10:53:35.093Z</time></trkpt><trkpt lat="45.3796129" lon="14.1647902"><ele>1008.0</ele><time>2026-04-25T10:53:36.107Z</time></trkpt><trkpt lat="45.3796758" lon="14.1647663"><ele>1008.0</ele><time>2026-04-25T10:53:37.098Z</time></trkpt><trkpt lat="45.3797997" lon="14.1647139"><ele>1008.0</ele><time>2026-04-25T10:53:39.091Z</time></trkpt><trkpt lat="45.3798632" lon="14.1646819"><ele>1008.1666666666666</ele><time>2026-04-25T10:53:40.111Z</time></trkpt><trkpt lat="45.379922" lon="14.1646465"><ele>1008.3333333333333</ele><time>2026-04-25T10:53:41.096Z</time></trkpt><trkpt lat="45.3799839" lon="14.1646099"><ele>1008.5</ele><time>2026-04-25T10:53:42.108Z</time></trkpt><trkpt lat="45.3800466" lon="14.164561"><ele>1008.6666666666666</ele><time>2026-04-25T10:53:43.109Z</time></trkpt><trkpt lat="45.3801092" lon="14.164492"><ele>1008.8333333333333</ele><time>2026-04-25T10:53:44.096Z</time></trkpt><trkpt lat="45.3801757" lon="14.1644213"><ele>1009.0</ele><time>2026-04-25T10:53:45.085Z</time></trkpt><trkpt lat="45.3802396" lon="14.1643156"><ele>1008.9999999999999</ele><time>2026-04-25T10:53:46.092Z</time></trkpt><trkpt lat="45.3803036" lon="14.164232"><ele>1009.0</ele><time>2026-04-25T10:53:47.091Z</time></trkpt><trkpt lat="45.3803662" lon="14.1641652"><ele>1009.0</ele><time>2026-04-25T10:53:48.096Z</time></trkpt><trkpt lat="45.3804262" lon="14.1640917"><ele>1009.0</ele><time>2026-04-25T10:53:49.089Z</time></trkpt><trkpt lat="45.3804892" lon="14.1640208"><ele>1008.9999999999999</ele><time>2026-04-25T10:53:50.097Z</time></trkpt><trkpt lat="45.3805523" lon="14.1639358"><ele>1009.0</ele><time>2026-04-25T10:53:51.092Z</time></trkpt><trkpt lat="45.3806003" lon="14.16386"><ele>1009.1666666666666</ele><time>2026-04-25T10:53:52.092Z</time></trkpt><trkpt lat="45.3806493" lon="14.1637833"><ele>1009.3333333333333</ele><time>2026-04-25T10:53:53.083Z</time></trkpt><trkpt lat="45.3807002" lon="14.1637158"><ele>1009.5</ele><time>2026-04-25T10:53:54.089Z</time></trkpt><trkpt lat="45.3807606" lon="14.1636627"><ele>1009.6666666666667</ele><time>2026-04-25T10:53:55.087Z</time></trkpt><trkpt lat="45.3808317" lon="14.1636277"><ele>1009.8333333333334</ele><time>2026-04-25T10:53:56.082Z</time></trkpt><trkpt lat="45.3809134" lon="14.1636056"><ele>1010.0</ele><time>2026-04-25T10:53:57.066Z</time></trkpt><trkpt lat="45.3810107" lon="14.1635805"><ele>1010.0000000000001</ele><time>2026-04-25T10:53:58.083Z</time></trkpt><trkpt lat="45.3810993" lon="14.1635524"><ele>1010.0</ele><time>2026-04-25T10:53:59.081Z</time></trkpt><trkpt lat="45.3811771" lon="14.16354"><ele>1010.0</ele><time>2026-04-25T10:54:00.084Z</time></trkpt><trkpt lat="45.3812444" lon="14.1635257"><ele>1010.0</ele><time>2026-04-25T10:54:01.095Z</time></trkpt><trkpt lat="45.3813452" lon="14.1634876"><ele>1010.0000000000001</ele><time>2026-04-25T10:54:03.073Z</time></trkpt><trkpt lat="45.3814194" lon="14.1634868"><ele>1010.0</ele><time>2026-04-25T10:54:12.094Z</time></trkpt><trkpt lat="45.3815188" lon="14.1635485"><ele>1009.8333333333334</ele><time>2026-04-25T10:54:14.099Z</time></trkpt><trkpt lat="45.3815892" lon="14.1636143"><ele>1009.6666666666667</ele><time>2026-04-25T10:54:15.079Z</time></trkpt><trkpt lat="45.3816354" lon="14.1637017"><ele>1009.5</ele><time>2026-04-25T10:54:16.087Z</time></trkpt><trkpt lat="45.3816659" lon="14.1637862"><ele>1009.3333333333333</ele><time>2026-04-25T10:54:17.073Z</time></trkpt><trkpt lat="45.3816962" lon="14.1638744"><ele>1009.1666666666666</ele><time>2026-04-25T10:54:18.065Z</time></trkpt><trkpt lat="45.3817283" lon="14.1639569"><ele>1009.0</ele><time>2026-04-25T10:54:19.096Z</time></trkpt><trkpt lat="45.3817933" lon="14.1641095"><ele>1007.9999999999999</ele><time>2026-04-25T10:54:21.104Z</time></trkpt><trkpt lat="45.3818241" lon="14.1641895"><ele>1007.0</ele><time>2026-04-25T10:54:22.09Z</time></trkpt><trkpt lat="45.3818641" lon="14.164288"><ele>1006.0</ele><time>2026-04-25T10:54:23.094Z</time></trkpt><trkpt lat="45.3819025" lon="14.1643939"><ele>1005.0</ele><time>2026-04-25T10:54:24.09Z</time></trkpt><trkpt lat="45.3819369" lon="14.1644995"><ele>1003.9999999999999</ele><time>2026-04-25T10:54:25.093Z</time></trkpt><trkpt lat="45.3819671" lon="14.1646167"><ele>1003.0</ele><time>2026-04-25T10:54:26.091Z</time></trkpt><trkpt lat="45.3819912" lon="14.1647346"><ele>1002.9999999999999</ele><time>2026-04-25T10:54:27.091Z</time></trkpt><trkpt lat="45.3820148" lon="14.1648539"><ele>1003.0</ele><time>2026-04-25T10:54:28.09Z</time></trkpt><trkpt lat="45.3820492" lon="14.1649518"><ele>1003.0</ele><time>2026-04-25T10:54:29.087Z</time></trkpt><trkpt lat="45.3820984" lon="14.1650356"><ele>1003.0</ele><time>2026-04-25T10:54:30.098Z</time></trkpt><trkpt lat="45.3821616" lon="14.1651018"><ele>1002.9999999999999</ele><time>2026-04-25T10:54:31.082Z</time></trkpt><trkpt lat="45.3822251" lon="14.1651708"><ele>1003.0</ele><time>2026-04-25T10:54:32.096Z</time></trkpt><trkpt lat="45.3822848" lon="14.1652464"><ele>1003.6666666666666</ele><time>2026-04-25T10:54:33.096Z</time></trkpt><trkpt lat="45.382339" lon="14.1653144"><ele>1004.3333333333333</ele><time>2026-04-25T10:54:34.098Z</time></trkpt><trkpt lat="45.3824012" lon="14.1653773"><ele>1005.0</ele><time>2026-04-25T10:54:35.088Z</time></trkpt><trkpt lat="45.3824646" lon="14.1654299"><ele>1005.6666666666667</ele><time>2026-04-25T10:54:36.094Z</time></trkpt><trkpt lat="45.3825271" lon="14.1654791"><ele>1006.3333333333334</ele><time>2026-04-25T10:54:37.097Z</time></trkpt><trkpt lat="45.3825951" lon="14.1655356"><ele>1007.0</ele><time>2026-04-25T10:54:38.097Z</time></trkpt><trkpt lat="45.3826663" lon="14.1655902"><ele>1007.0000000000001</ele><time>2026-04-25T10:54:39.095Z</time></trkpt><trkpt lat="45.38274" lon="14.1656538"><ele>1007.0</ele><time>2026-04-25T10:54:40.097Z</time></trkpt><trkpt lat="45.3828161" lon="14.1657319"><ele>1007.0</ele><time>2026-04-25T10:54:41.083Z</time></trkpt><trkpt lat="45.3828792" lon="14.1658026"><ele>1007.0</ele><time>2026-04-25T10:54:42.083Z</time></trkpt><trkpt lat="45.3829342" lon="14.1658873"><ele>1007.0000000000001</ele><time>2026-04-25T10:54:43.098Z</time></trkpt><trkpt lat="45.3829771" lon="14.1659821"><ele>1007.0</ele><time>2026-04-25T10:54:44.094Z</time></trkpt><trkpt lat="45.3830139" lon="14.1660917"><ele>1007.1666666666667</ele><time>2026-04-25T10:54:45.084Z</time></trkpt><trkpt lat="45.383037" lon="14.1662016"><ele>1007.3333333333334</ele><time>2026-04-25T10:54:46.103Z</time></trkpt><trkpt lat="45.3830291" lon="14.1663181"><ele>1007.5</ele><time>2026-04-25T10:54:47.065Z</time></trkpt><trkpt lat="45.3830257" lon="14.1664235"><ele>1007.6666666666667</ele><time>2026-04-25T10:54:48.066Z</time></trkpt><trkpt lat="45.3830319" lon="14.1665482"><ele>1007.8333333333334</ele><time>2026-04-25T10:54:49.087Z</time></trkpt><trkpt lat="45.3830524" lon="14.16666"><ele>1008.0</ele><time>2026-04-25T10:54:50.092Z</time></trkpt><trkpt lat="45.3830846" lon="14.1667807"><ele>1008.0</ele><time>2026-04-25T10:54:51.08Z</time></trkpt><trkpt lat="45.383108" lon="14.1669072"><ele>1008.0</ele><time>2026-04-25T10:54:52.081Z</time></trkpt><trkpt lat="45.3831153" lon="14.1670253"><ele>1008.0</ele><time>2026-04-25T10:54:53.091Z</time></trkpt><trkpt lat="45.3831057" lon="14.1671354"><ele>1008.0</ele><time>2026-04-25T10:54:54.095Z</time></trkpt><trkpt lat="45.3830897" lon="14.1672417"><ele>1008.0</ele><time>2026-04-25T10:54:55.094Z</time></trkpt><trkpt lat="45.3830881" lon="14.1673518"><ele>1008.0</ele><time>2026-04-25T10:54:56.1Z</time></trkpt><trkpt lat="45.3830993" lon="14.1674626"><ele>1007.5</ele><time>2026-04-25T10:54:57.097Z</time></trkpt><trkpt lat="45.3831112" lon="14.1675765"><ele>1007.0</ele><time>2026-04-25T10:54:58.105Z</time></trkpt><trkpt lat="45.3831159" lon="14.1676893"><ele>1006.5</ele><time>2026-04-25T10:54:59.094Z</time></trkpt><trkpt lat="45.3831177" lon="14.1677876"><ele>1006.0</ele><time>2026-04-25T10:55:00.091Z</time></trkpt><trkpt lat="45.3831125" lon="14.1678892"><ele>1005.5</ele><time>2026-04-25T10:55:01.089Z</time></trkpt><trkpt lat="45.38308" lon="14.1680333"><ele>1005.0</ele><time>2026-04-25T10:55:03.078Z</time></trkpt><trkpt lat="45.3830668" lon="14.1681589"><ele>1005.0</ele><time>2026-04-25T10:55:05.081Z</time></trkpt><trkpt lat="45.383073" lon="14.1683097"><ele>1005.0</ele><time>2026-04-25T10:55:07.08Z</time></trkpt><trkpt lat="45.3830837" lon="14.1684654"><ele>1005.0</ele><time>2026-04-25T10:55:09.088Z</time></trkpt><trkpt lat="45.3830778" lon="14.1686122"><ele>1005.0</ele><time>2026-04-25T10:55:11.086Z</time></trkpt><trkpt lat="45.3831111" lon="14.1687109"><ele>1005.0</ele><time>2026-04-25T10:55:13.081Z</time></trkpt><trkpt lat="45.3832285" lon="14.1687915"><ele>1005.0</ele><time>2026-04-25T10:55:15.078Z</time></trkpt><trkpt lat="45.3833072" lon="14.168841"><ele>1005.0</ele><time>2026-04-25T10:55:16.069Z</time></trkpt><trkpt lat="45.3833835" lon="14.1689067"><ele>1005.0</ele><time>2026-04-25T10:55:17.094Z</time></trkpt><trkpt lat="45.3834553" lon="14.1689684"><ele>1005.0</ele><time>2026-04-25T10:55:18.079Z</time></trkpt><trkpt lat="45.3835253" lon="14.1690429"><ele>1005.0</ele><time>2026-04-25T10:55:19.08Z</time></trkpt><trkpt lat="45.3835911" lon="14.169126"><ele>1005.0</ele><time>2026-04-25T10:55:20.081Z</time></trkpt><trkpt lat="45.38366" lon="14.1692127"><ele>1004.2</ele><time>2026-04-25T10:55:21.077Z</time></trkpt><trkpt lat="45.3837379" lon="14.1692917"><ele>1003.4</ele><time>2026-04-25T10:55:22.082Z</time></trkpt><trkpt lat="45.3838235" lon="14.1693622"><ele>1002.5999999999999</ele><time>2026-04-25T10:55:23.078Z</time></trkpt><trkpt lat="45.383912" lon="14.1694178"><ele>1001.8</ele><time>2026-04-25T10:55:24.088Z</time></trkpt><trkpt lat="45.3840028" lon="14.1694717"><ele>1001.0</ele><time>2026-04-25T10:55:25.084Z</time></trkpt><trkpt lat="45.3840842" lon="14.169529"><ele>1002.1428571428571</ele><time>2026-04-25T10:55:26.085Z</time></trkpt><trkpt lat="45.38416" lon="14.1695852"><ele>1003.2857142857142</ele><time>2026-04-25T10:55:27.084Z</time></trkpt><trkpt lat="45.3842358" lon="14.1696311"><ele>1004.4285714285714</ele><time>2026-04-25T10:55:28.088Z</time></trkpt><trkpt lat="45.3843069" lon="14.169678"><ele>1005.5714285714286</ele><time>2026-04-25T10:55:29.085Z</time></trkpt><trkpt lat="45.3843639" lon="14.1697287"><ele>1006.7142857142857</ele><time>2026-04-25T10:55:30.092Z</time></trkpt><trkpt lat="45.3844071" lon="14.169798"><ele>1007.8571428571429</ele><time>2026-04-25T10:55:31.083Z</time></trkpt><trkpt lat="45.3844295" lon="14.1698868"><ele>1009.0</ele><time>2026-04-25T10:55:32.093Z</time></trkpt><trkpt lat="45.384444" lon="14.1699856"><ele>1008.9999999999999</ele><time>2026-04-25T10:55:33.071Z</time></trkpt><trkpt lat="45.3844629" lon="14.1700829"><ele>1009.0</ele><time>2026-04-25T10:55:34.08Z</time></trkpt><trkpt lat="45.3844803" lon="14.1701873"><ele>1009.0</ele><time>2026-04-25T10:55:35.091Z</time></trkpt><trkpt lat="45.3845099" lon="14.1703064"><ele>1009.0</ele><time>2026-04-25T10:55:36.088Z</time></trkpt><trkpt lat="45.3845496" lon="14.1704323"><ele>1008.9999999999999</ele><time>2026-04-25T10:55:37.095Z</time></trkpt><trkpt lat="45.384592" lon="14.1705625"><ele>1009.0</ele><time>2026-04-25T10:55:38.083Z</time></trkpt><trkpt lat="45.3846276" lon="14.1706866"><ele>1009.6</ele><time>2026-04-25T10:55:39.089Z</time></trkpt><trkpt lat="45.3846644" lon="14.1708038"><ele>1010.2</ele><time>2026-04-25T10:55:40.092Z</time></trkpt><trkpt lat="45.3847027" lon="14.1709218"><ele>1010.8000000000001</ele><time>2026-04-25T10:55:41.085Z</time></trkpt><trkpt lat="45.3847457" lon="14.171046"><ele>1011.4000000000001</ele><time>2026-04-25T10:55:42.082Z</time></trkpt><trkpt lat="45.3847911" lon="14.1711632"><ele>1012.0</ele><time>2026-04-25T10:55:43.093Z</time></trkpt><trkpt lat="45.3848468" lon="14.1712814"><ele>1012.8</ele><time>2026-04-25T10:55:44.081Z</time></trkpt><trkpt lat="45.3849124" lon="14.1713915"><ele>1013.6</ele><time>2026-04-25T10:55:45.097Z</time></trkpt><trkpt lat="45.3849794" lon="14.1714935"><ele>1014.3999999999999</ele><time>2026-04-25T10:55:46.081Z</time></trkpt><trkpt lat="45.3850508" lon="14.1715864"><ele>1015.1999999999999</ele><time>2026-04-25T10:55:47.075Z</time></trkpt><trkpt lat="45.3851171" lon="14.1716595"><ele>1016.0</ele><time>2026-04-25T10:55:48.083Z</time></trkpt><trkpt lat="45.3851807" lon="14.1717294"><ele>1016.0000000000001</ele><time>2026-04-25T10:55:49.09Z</time></trkpt><trkpt lat="45.3852422" lon="14.1717911"><ele>1016.0</ele><time>2026-04-25T10:55:50.084Z</time></trkpt><trkpt lat="45.3853082" lon="14.1718475"><ele>1016.0</ele><time>2026-04-25T10:55:51.096Z</time></trkpt><trkpt lat="45.3853747" lon="14.1718889"><ele>1016.0</ele><time>2026-04-25T10:55:52.081Z</time></trkpt><trkpt lat="45.3854408" lon="14.1719376"><ele>1016.0000000000001</ele><time>2026-04-25T10:55:53.092Z</time></trkpt><trkpt lat="45.3855089" lon="14.1719893"><ele>1016.0</ele><time>2026-04-25T10:55:54.088Z</time></trkpt><trkpt lat="45.3855773" lon="14.1720265"><ele>1017.0000000000001</ele><time>2026-04-25T10:55:55.081Z</time></trkpt><trkpt lat="45.3856481" lon="14.1720676"><ele>1018.0</ele><time>2026-04-25T10:55:56.085Z</time></trkpt><trkpt lat="45.3857198" lon="14.172105"><ele>1019.0</ele><time>2026-04-25T10:55:57.09Z</time></trkpt><trkpt lat="45.3858001" lon="14.1721393"><ele>1020.0</ele><time>2026-04-25T10:55:58.122Z</time></trkpt><trkpt lat="45.3858734" lon="14.1721716"><ele>1021.0000000000001</ele><time>2026-04-25T10:55:59.087Z</time></trkpt><trkpt lat="45.3859507" lon="14.1722033"><ele>1022.0</ele><time>2026-04-25T10:56:00.081Z</time></trkpt><trkpt lat="45.3860319" lon="14.1722455"><ele>1022.0</ele><time>2026-04-25T10:56:01.085Z</time></trkpt><trkpt lat="45.38611" lon="14.1722982"><ele>1022.0</ele><time>2026-04-25T10:56:02.091Z</time></trkpt><trkpt lat="45.3861901" lon="14.1723544"><ele>1022.0</ele><time>2026-04-25T10:56:03.085Z</time></trkpt><trkpt lat="45.3862703" lon="14.1724199"><ele>1022.0</ele><time>2026-04-25T10:56:04.089Z</time></trkpt><trkpt lat="45.3863563" lon="14.1724976"><ele>1022.0</ele><time>2026-04-25T10:56:05.082Z</time></trkpt><trkpt lat="45.3864405" lon="14.1725757"><ele>1022.1666666666667</ele><time>2026-04-25T10:56:06.08Z</time></trkpt><trkpt lat="45.3865069" lon="14.1726631"><ele>1022.3333333333334</ele><time>2026-04-25T10:56:07.084Z</time></trkpt><trkpt lat="45.3865646" lon="14.1727597"><ele>1022.5</ele><time>2026-04-25T10:56:08.098Z</time></trkpt><trkpt lat="45.3866157" lon="14.1728644"><ele>1022.6666666666667</ele><time>2026-04-25T10:56:09.088Z</time></trkpt><trkpt lat="45.3866524" lon="14.1729695"><ele>1022.8333333333334</ele><time>2026-04-25T10:56:10.097Z</time></trkpt><trkpt lat="45.3866844" lon="14.1730612"><ele>1023.0</ele><time>2026-04-25T10:56:11.09Z</time></trkpt><trkpt lat="45.386715" lon="14.1731596"><ele>1022.0</ele><time>2026-04-25T10:56:12.093Z</time></trkpt><trkpt lat="45.386744" lon="14.1732578"><ele>1021.0</ele><time>2026-04-25T10:56:13.09Z</time></trkpt><trkpt lat="45.3867722" lon="14.1733606"><ele>1020.0</ele><time>2026-04-25T10:56:14.086Z</time></trkpt><trkpt lat="45.3868118" lon="14.173479"><ele>1019.0</ele><time>2026-04-25T10:56:15.087Z</time></trkpt><trkpt lat="45.3868675" lon="14.1735776"><ele>1018.0</ele><time>2026-04-25T10:56:16.088Z</time></trkpt><trkpt lat="45.3869305" lon="14.1736715"><ele>1017.0</ele><time>2026-04-25T10:56:17.085Z</time></trkpt><trkpt lat="45.3870052" lon="14.1737735"><ele>1017.0</ele><time>2026-04-25T10:56:18.095Z</time></trkpt><trkpt lat="45.3870807" lon="14.1738847"><ele>1017.0</ele><time>2026-04-25T10:56:19.087Z</time></trkpt><trkpt lat="45.3871492" lon="14.1739864"><ele>1017.0</ele><time>2026-04-25T10:56:20.082Z</time></trkpt><trkpt lat="45.3872075" lon="14.1740765"><ele>1017.0</ele><time>2026-04-25T10:56:21.085Z</time></trkpt><trkpt lat="45.3872519" lon="14.1741848"><ele>1017.0</ele><time>2026-04-25T10:56:22.094Z</time></trkpt><trkpt lat="45.3872671" lon="14.1743051"><ele>1017.2</ele><time>2026-04-25T10:56:23.083Z</time></trkpt><trkpt lat="45.3872573" lon="14.1744187"><ele>1017.4000000000001</ele><time>2026-04-25T10:56:24.094Z</time></trkpt><trkpt lat="45.3872441" lon="14.1745504"><ele>1017.5999999999999</ele><time>2026-04-25T10:56:25.065Z</time></trkpt><trkpt lat="45.3872404" lon="14.1746883"><ele>1017.8</ele><time>2026-04-25T10:56:26.073Z</time></trkpt><trkpt lat="45.3872322" lon="14.1748203"><ele>1018.0</ele><time>2026-04-25T10:56:27.082Z</time></trkpt><trkpt lat="45.3872386" lon="14.1749618"><ele>1018.0</ele><time>2026-04-25T10:56:28.081Z</time></trkpt><trkpt lat="45.3872555" lon="14.1750971"><ele>1018.0</ele><time>2026-04-25T10:56:29.094Z</time></trkpt><trkpt lat="45.3872751" lon="14.1752233"><ele>1018.0</ele><time>2026-04-25T10:56:30.088Z</time></trkpt><trkpt lat="45.3872893" lon="14.1753774"><ele>1018.0</ele><time>2026-04-25T10:56:32.072Z</time></trkpt><trkpt lat="45.3873279" lon="14.1754901"><ele>1018.0</ele><time>2026-04-25T10:56:41.087Z</time></trkpt><trkpt lat="45.3873613" lon="14.1755892"><ele>1017.9999999999999</ele><time>2026-04-25T10:56:43.086Z</time></trkpt><trkpt lat="45.3873912" lon="14.1756855"><ele>1018.0</ele><time>2026-04-25T10:56:46.09Z</time></trkpt><trkpt lat="45.3873854" lon="14.1757929"><ele>1018.0</ele><time>2026-04-25T10:56:52.081Z</time></trkpt><trkpt lat="45.3874001" lon="14.1758874"><ele>1018.0</ele><time>2026-04-25T10:56:56.071Z</time></trkpt><trkpt lat="45.387441" lon="14.1759682"><ele>1017.9999999999999</ele><time>2026-04-25T10:57:22.087Z</time></trkpt><trkpt lat="45.3875293" lon="14.1760408"><ele>1018.0</ele><time>2026-04-25T10:57:24.069Z</time></trkpt><trkpt lat="45.387615" lon="14.1760433"><ele>1016.6666666666666</ele><time>2026-04-25T10:57:26.07Z</time></trkpt><trkpt lat="45.387691" lon="14.1760507"><ele>1015.3333333333333</ele><time>2026-04-25T10:57:29.065Z</time></trkpt><trkpt lat="45.3877662" lon="14.1760836"><ele>1014.0</ele><time>2026-04-25T10:57:33.07Z</time></trkpt><trkpt lat="45.3878118" lon="14.1761483"><ele>1012.6666666666667</ele><time>2026-04-25T10:57:36.059Z</time></trkpt><trkpt lat="45.3878732" lon="14.1762023"><ele>1011.3333333333334</ele><time>2026-04-25T10:57:39.065Z</time></trkpt><trkpt lat="45.3879146" lon="14.1763067"><ele>1010.0</ele><time>2026-04-25T10:57:42.06Z</time></trkpt><trkpt lat="45.3879594" lon="14.1764008"><ele>1009.5000000000001</ele><time>2026-04-25T10:57:45.08Z</time></trkpt><trkpt lat="45.388011" lon="14.1765055"><ele>1009.0</ele><time>2026-04-25T10:57:48.074Z</time></trkpt><trkpt lat="45.3880413" lon="14.176587"><ele>1008.5</ele><time>2026-04-25T10:57:50.079Z</time></trkpt><trkpt lat="45.3880773" lon="14.1766789"><ele>1008.0</ele><time>2026-04-25T10:57:52.069Z</time></trkpt><trkpt lat="45.3881189" lon="14.1767858"><ele>1007.5000000000001</ele><time>2026-04-25T10:57:55.079Z</time></trkpt><trkpt lat="45.3881747" lon="14.1768639"><ele>1007.0</ele><time>2026-04-25T10:57:58.076Z</time></trkpt><trkpt lat="45.3882302" lon="14.17691"><ele>1004.8333333333334</ele><time>2026-04-25T10:58:01.067Z</time></trkpt><trkpt lat="45.3883211" lon="14.1769873"><ele>1002.6666666666667</ele><time>2026-04-25T10:58:04.069Z</time></trkpt><trkpt lat="45.3883807" lon="14.1770478"><ele>1000.5</ele><time>2026-04-25T10:58:06.065Z</time></trkpt><trkpt lat="45.3884272" lon="14.1771192"><ele>998.3333333333333</ele><time>2026-04-25T10:58:08.071Z</time></trkpt><trkpt lat="45.388462" lon="14.1772164"><ele>996.1666666666666</ele><time>2026-04-25T10:58:10.063Z</time></trkpt><trkpt lat="45.3884917" lon="14.1773068"><ele>994.0</ele><time>2026-04-25T10:58:12.064Z</time></trkpt><trkpt lat="45.3884766" lon="14.1774116"><ele>993.9999999999999</ele><time>2026-04-25T10:58:15.056Z</time></trkpt><trkpt lat="45.3884485" lon="14.1775031"><ele>994.0</ele><time>2026-04-25T10:58:19.062Z</time></trkpt><trkpt lat="45.3883961" lon="14.1775611"><ele>994.0</ele><time>2026-04-25T10:58:22.058Z</time></trkpt><trkpt lat="45.3883925" lon="14.1776606"><ele>994.0</ele><time>2026-04-25T10:58:45.067Z</time></trkpt><trkpt lat="45.3884287" lon="14.1775513"><ele>993.9999999999999</ele><time>2026-04-25T10:59:01.069Z</time></trkpt><trkpt lat="45.3884647" lon="14.177442"><ele>994.0</ele><time>2026-04-25T10:59:03.077Z</time></trkpt><trkpt lat="45.3884884" lon="14.1773024"><ele>994.0</ele><time>2026-04-25T10:59:05.069Z</time></trkpt><trkpt lat="45.3884891" lon="14.1772042"><ele>994.0</ele><time>2026-04-25T10:59:08.067Z</time></trkpt><trkpt lat="45.3885533" lon="14.1771799"><ele>994.0</ele><time>2026-04-25T10:59:45.075Z</time></trkpt><trkpt lat="45.3885777" lon="14.1772737"><ele>994.0</ele><time>2026-04-25T10:59:51.076Z</time></trkpt><trkpt lat="45.3886342" lon="14.1773374"><ele>994.0</ele><time>2026-04-25T10:59:56.083Z</time></trkpt><trkpt lat="45.388687" lon="14.1773919"><ele>994.0</ele><time>2026-04-25T11:00:01.084Z</time></trkpt><trkpt lat="45.3887364" lon="14.1774623"><ele>994.0</ele><time>2026-04-25T11:00:05.077Z</time></trkpt><trkpt lat="45.3887941" lon="14.1775338"><ele>990.8333333333333</ele><time>2026-04-25T11:00:09.1Z</time></trkpt><trkpt lat="45.3888712" lon="14.1775648"><ele>987.6666666666666</ele><time>2026-04-25T11:00:12.066Z</time></trkpt><trkpt lat="45.3889503" lon="14.1775898"><ele>984.5</ele><time>2026-04-25T11:00:15.073Z</time></trkpt><trkpt lat="45.389008" lon="14.1776447"><ele>981.3333333333333</ele><time>2026-04-25T11:00:17.064Z</time></trkpt><trkpt lat="45.3890709" lon="14.1777378"><ele>978.1666666666666</ele><time>2026-04-25T11:00:19.061Z</time></trkpt><trkpt lat="45.3891057" lon="14.1778709"><ele>975.0</ele><time>2026-04-25T11:00:21.077Z</time></trkpt><trkpt lat="45.3891314" lon="14.1779989"><ele>975.0</ele><time>2026-04-25T11:00:23.069Z</time></trkpt><trkpt lat="45.3891756" lon="14.1780835"><ele>975.0</ele><time>2026-04-25T11:00:25.079Z</time></trkpt><trkpt lat="45.3892163" lon="14.1781595"><ele>975.0</ele><time>2026-04-25T11:00:27.083Z</time></trkpt><trkpt lat="45.389263" lon="14.1782413"><ele>975.0</ele><time>2026-04-25T11:00:29.073Z</time></trkpt><trkpt lat="45.3893063" lon="14.1783384"><ele>975.0</ele><time>2026-04-25T11:00:32.082Z</time></trkpt><trkpt lat="45.3893562" lon="14.17841"><ele>975.0</ele><time>2026-04-25T11:00:38.077Z</time></trkpt><trkpt lat="45.3894233" lon="14.178519"><ele>974.0</ele><time>2026-04-25T11:01:38.078Z</time></trkpt><trkpt lat="45.38948" lon="14.1785595"><ele>972.9999999999999</ele><time>2026-04-25T11:01:44.063Z</time></trkpt><trkpt lat="45.3895489" lon="14.1786018"><ele>972.0</ele><time>2026-04-25T11:01:50.07Z</time></trkpt><trkpt lat="45.3896143" lon="14.178618"><ele>971.0</ele><time>2026-04-25T11:01:55.067Z</time></trkpt><trkpt lat="45.38968" lon="14.1786455"><ele>969.9999999999999</ele><time>2026-04-25T11:02:07.077Z</time></trkpt><trkpt lat="45.3897459" lon="14.1786316"><ele>969.0</ele><time>2026-04-25T11:02:11.076Z</time></trkpt><trkpt lat="45.3898123" lon="14.1786256"><ele>968.0</ele><time>2026-04-25T11:02:56.072Z</time></trkpt><trkpt lat="45.3898816" lon="14.1787108"><ele>967.1428571428571</ele><time>2026-04-25T11:04:04.071Z</time></trkpt><trkpt lat="45.3898508" lon="14.1787938"><ele>966.2857142857142</ele><time>2026-04-25T11:04:24.069Z</time></trkpt><trkpt lat="45.389888" lon="14.1789436"><ele>965.4285714285713</ele><time>2026-04-25T11:04:55.075Z</time></trkpt><trkpt lat="45.3899452" lon="14.1789991"><ele>964.5714285714284</ele><time>2026-04-25T11:05:04.067Z</time></trkpt><trkpt lat="45.3900038" lon="14.1790607"><ele>963.7142857142857</ele><time>2026-04-25T11:05:35.079Z</time></trkpt><trkpt lat="45.3899908" lon="14.1791514"><ele>962.8571428571427</ele><time>2026-04-25T11:05:52.083Z</time></trkpt><trkpt lat="45.3899657" lon="14.1792343"><ele>961.9999999999999</ele><time>2026-04-25T11:06:12.087Z</time></trkpt><trkpt lat="45.3899742" lon="14.1793514"><ele>958.3333333333334</ele><time>2026-04-25T11:07:00.079Z</time></trkpt><trkpt lat="45.3900294" lon="14.1794091"><ele>954.6666666666667</ele><time>2026-04-25T11:07:39.079Z</time></trkpt><trkpt lat="45.3901206" lon="14.1795268"><ele>951.0</ele><time>2026-04-25T11:09:16.092Z</time></trkpt><trkpt lat="45.3901905" lon="14.1796192"><ele>947.3333333333333</ele><time>2026-04-25T11:10:00.075Z</time></trkpt><trkpt lat="45.3901759" lon="14.179716"><ele>943.6666666666666</ele><time>2026-04-25T11:10:39.075Z</time></trkpt><trkpt lat="45.3901783" lon="14.1798207"><ele>940.0</ele><time>2026-04-25T11:11:40.084Z</time></trkpt><trkpt lat="45.3901944" lon="14.1799218"><ele>937.7142857142857</ele><time>2026-04-25T11:11:46.095Z</time></trkpt><trkpt lat="45.3902257" lon="14.1800127"><ele>935.4285714285713</ele><time>2026-04-25T11:11:53.089Z</time></trkpt><trkpt lat="45.3902522" lon="14.1801141"><ele>933.1428571428571</ele><time>2026-04-25T11:11:57.086Z</time></trkpt><trkpt lat="45.3903015" lon="14.1801928"><ele>930.8571428571429</ele><time>2026-04-25T11:12:01.078Z</time></trkpt><trkpt lat="45.3903283" lon="14.1802826"><ele>928.5714285714286</ele><time>2026-04-25T11:12:09.078Z</time></trkpt><trkpt lat="45.3903647" lon="14.1803635"><ele>926.2857142857142</ele><time>2026-04-25T11:12:15.074Z</time></trkpt><trkpt lat="45.3904125" lon="14.1804341"><ele>924.0</ele><time>2026-04-25T11:12:18.078Z</time></trkpt><trkpt lat="45.3904764" lon="14.1804734"><ele>923.1428571428571</ele><time>2026-04-25T11:12:22.087Z</time></trkpt><trkpt lat="45.3905403" lon="14.1804513"><ele>922.2857142857142</ele><time>2026-04-25T11:12:25.078Z</time></trkpt><trkpt lat="45.3906245" lon="14.1804046"><ele>921.4285714285714</ele><time>2026-04-25T11:12:28.082Z</time></trkpt><trkpt lat="45.3906906" lon="14.1803518"><ele>920.5714285714286</ele><time>2026-04-25T11:12:30.082Z</time></trkpt><trkpt lat="45.390752" lon="14.1803103"><ele>919.7142857142857</ele><time>2026-04-25T11:12:32.079Z</time></trkpt><trkpt lat="45.3908308" lon="14.1802954"><ele>918.8571428571429</ele><time>2026-04-25T11:12:34.086Z</time></trkpt><trkpt lat="45.3908939" lon="14.180298"><ele>918.0</ele><time>2026-04-25T11:12:36.078Z</time></trkpt><trkpt lat="45.3909774" lon="14.1803108"><ele>918.0</ele><time>2026-04-25T11:12:39.075Z</time></trkpt><trkpt lat="45.3910807" lon="14.1803193"><ele>918.0</ele><time>2026-04-25T11:12:42.11Z</time></trkpt><trkpt lat="45.3911455" lon="14.1803347"><ele>918.0</ele><time>2026-04-25T11:12:44.078Z</time></trkpt><trkpt lat="45.3912138" lon="14.180347"><ele>918.0</ele><time>2026-04-25T11:12:47.075Z</time></trkpt><trkpt lat="45.3912801" lon="14.1803828"><ele>918.0</ele><time>2026-04-25T11:12:51.077Z</time></trkpt><trkpt lat="45.3913496" lon="14.1804393"><ele>918.0</ele><time>2026-04-25T11:12:55.068Z</time></trkpt><trkpt lat="45.3914143" lon="14.1805095"><ele>915.2857142857143</ele><time>2026-04-25T11:12:59.072Z</time></trkpt><trkpt lat="45.391473" lon="14.1805574"><ele>912.5714285714284</ele><time>2026-04-25T11:13:02.076Z</time></trkpt><trkpt lat="45.3915219" lon="14.1806161"><ele>909.8571428571428</ele><time>2026-04-25T11:13:05.068Z</time></trkpt><trkpt lat="45.3915646" lon="14.1806889"><ele>907.1428571428571</ele><time>2026-04-25T11:13:09.068Z</time></trkpt><trkpt lat="45.3916134" lon="14.1807497"><ele>904.4285714285713</ele><time>2026-04-25T11:13:13.067Z</time></trkpt><trkpt lat="45.3916728" lon="14.1808039"><ele>901.7142857142856</ele><time>2026-04-25T11:13:26.058Z</time></trkpt><trkpt lat="45.3917221" lon="14.180863"><ele>898.9999999999999</ele><time>2026-04-25T11:13:31.057Z</time></trkpt><trkpt lat="45.3917636" lon="14.1807871"><ele>898.9999999999999</ele><time>2026-04-25T11:13:46.055Z</time></trkpt><trkpt lat="45.3917748" lon="14.1806893"><ele>899.0</ele><time>2026-04-25T11:13:49.054Z</time></trkpt><trkpt lat="45.3918027" lon="14.1806038"><ele>898.9999999999999</ele><time>2026-04-25T11:13:57.054Z</time></trkpt><trkpt lat="45.3918544" lon="14.1805358"><ele>898.9999999999999</ele><time>2026-04-25T11:14:04.057Z</time></trkpt><trkpt lat="45.3919097" lon="14.1804814"><ele>899.0</ele><time>2026-04-25T11:14:22.064Z</time></trkpt><trkpt lat="45.3919604" lon="14.1804239"><ele>898.9999999999999</ele><time>2026-04-25T11:14:27.052Z</time></trkpt><trkpt lat="45.3920174" lon="14.1803382"><ele>898.9999999999999</ele><time>2026-04-25T11:14:37.051Z</time></trkpt><trkpt lat="45.3920317" lon="14.1802486"><ele>898.5000000000001</ele><time>2026-04-25T11:14:50.052Z</time></trkpt><trkpt lat="45.3920999" lon="14.1802148"><ele>898.0</ele><time>2026-04-25T11:15:03.053Z</time></trkpt><trkpt lat="45.3921646" lon="14.1802231"><ele>897.5</ele><time>2026-04-25T11:15:12.053Z</time></trkpt><trkpt lat="45.3922303" lon="14.180223"><ele>897.0</ele><time>2026-04-25T11:15:17.049Z</time></trkpt><trkpt lat="45.3923255" lon="14.1802367"><ele>896.5000000000001</ele><time>2026-04-25T11:15:21.051Z</time></trkpt><trkpt lat="45.39239" lon="14.1801679"><ele>896.0</ele><time>2026-04-25T11:15:25.054Z</time></trkpt><trkpt lat="45.3924686" lon="14.1801735"><ele>890.8333333333334</ele><time>2026-04-25T11:15:29.046Z</time></trkpt><trkpt lat="45.3925501" lon="14.1801823"><ele>885.6666666666667</ele><time>2026-04-25T11:16:55.053Z</time></trkpt><trkpt lat="45.3926128" lon="14.1801996"><ele>880.5</ele><time>2026-04-25T11:16:57.053Z</time></trkpt><trkpt lat="45.3926992" lon="14.1802295"><ele>875.3333333333333</ele><time>2026-04-25T11:17:00.053Z</time></trkpt><trkpt lat="45.3927635" lon="14.1803026"><ele>870.1666666666666</ele><time>2026-04-25T11:17:03.062Z</time></trkpt><trkpt lat="45.3928246" lon="14.1803999"><ele>865.0</ele><time>2026-04-25T11:17:06.049Z</time></trkpt><trkpt lat="45.3928727" lon="14.180506"><ele>864.9999999999999</ele><time>2026-04-25T11:17:09.064Z</time></trkpt><trkpt lat="45.3929206" lon="14.1805743"><ele>865.0</ele><time>2026-04-25T11:17:11.056Z</time></trkpt><trkpt lat="45.3929975" lon="14.1806089"><ele>865.0</ele><time>2026-04-25T11:17:14.052Z</time></trkpt><trkpt lat="45.393076" lon="14.1806414"><ele>865.0</ele><time>2026-04-25T11:17:16.057Z</time></trkpt><trkpt lat="45.3931529" lon="14.1806687"><ele>864.9999999999999</ele><time>2026-04-25T11:17:18.061Z</time></trkpt><trkpt lat="45.3932331" lon="14.1807129"><ele>865.0</ele><time>2026-04-25T11:17:20.061Z</time></trkpt><trkpt lat="45.3933056" lon="14.1807491"><ele>862.1428571428571</ele><time>2026-04-25T11:17:22.084Z</time></trkpt><trkpt lat="45.3933759" lon="14.1807924"><ele>859.2857142857143</ele><time>2026-04-25T11:17:24.062Z</time></trkpt><trkpt lat="45.393443" lon="14.1808293"><ele>856.4285714285713</ele><time>2026-04-25T11:17:26.065Z</time></trkpt><trkpt lat="45.3935066" lon="14.1808629"><ele>853.5714285714286</ele><time>2026-04-25T11:17:28.066Z</time></trkpt><trkpt lat="45.3935802" lon="14.1809241"><ele>850.7142857142857</ele><time>2026-04-25T11:17:43.05Z</time></trkpt><trkpt lat="45.3936455" lon="14.1809728"><ele>847.8571428571428</ele><time>2026-04-25T11:17:46.065Z</time></trkpt><trkpt lat="45.3937129" lon="14.1809967"><ele>845.0</ele><time>2026-04-25T11:17:49.055Z</time></trkpt><trkpt lat="45.3937696" lon="14.1810424"><ele>845.0000000000001</ele><time>2026-04-25T11:17:52.06Z</time></trkpt><trkpt lat="45.3938229" lon="14.181091"><ele>845.0</ele><time>2026-04-25T11:17:54.061Z</time></trkpt><trkpt lat="45.3938912" lon="14.18116"><ele>845.0</ele><time>2026-04-25T11:17:57.061Z</time></trkpt><trkpt lat="45.3939599" lon="14.1812467"><ele>845.0</ele><time>2026-04-25T11:18:00.057Z</time></trkpt><trkpt lat="45.3940107" lon="14.1813134"><ele>845.0000000000001</ele><time>2026-04-25T11:18:03.055Z</time></trkpt><trkpt lat="45.3940684" lon="14.181391"><ele>845.0</ele><time>2026-04-25T11:18:06.062Z</time></trkpt><trkpt lat="45.3941362" lon="14.1814046"><ele>846.7142857142857</ele><time>2026-04-25T11:18:09.058Z</time></trkpt><trkpt lat="45.3942147" lon="14.1814506"><ele>848.4285714285714</ele><time>2026-04-25T11:18:12.066Z</time></trkpt><trkpt lat="45.3942634" lon="14.1815244"><ele>850.1428571428571</ele><time>2026-04-25T11:18:14.053Z</time></trkpt><trkpt lat="45.3943056" lon="14.181593"><ele>851.8571428571429</ele><time>2026-04-25T11:18:16.061Z</time></trkpt><trkpt lat="45.3943337" lon="14.181685"><ele>853.5714285714286</ele><time>2026-04-25T11:18:18.067Z</time></trkpt><trkpt lat="45.3943649" lon="14.1817845"><ele>855.2857142857142</ele><time>2026-04-25T11:18:20.062Z</time></trkpt><trkpt lat="45.3943914" lon="14.1818832"><ele>857.0</ele><time>2026-04-25T11:18:22.062Z</time></trkpt><trkpt lat="45.3943938" lon="14.181989"><ele>857.0000000000001</ele><time>2026-04-25T11:18:25.069Z</time></trkpt><trkpt lat="45.3943774" lon="14.1820924"><ele>857.0</ele><time>2026-04-25T11:18:28.062Z</time></trkpt><trkpt lat="45.3943595" lon="14.1822033"><ele>857.0</ele><time>2026-04-25T11:18:31.067Z</time></trkpt><trkpt lat="45.3943657" lon="14.1823284"><ele>857.0</ele><time>2026-04-25T11:18:34.064Z</time></trkpt><trkpt lat="45.3943864" lon="14.1824548"><ele>857.0000000000001</ele><time>2026-04-25T11:18:37.068Z</time></trkpt><trkpt lat="45.394399" lon="14.1825566"><ele>857.0</ele><time>2026-04-25T11:18:39.053Z</time></trkpt><trkpt lat="45.3944107" lon="14.1826544"><ele>858.0000000000001</ele><time>2026-04-25T11:18:41.055Z</time></trkpt><trkpt lat="45.3944342" lon="14.1827768"><ele>859.0</ele><time>2026-04-25T11:18:44.06Z</time></trkpt><trkpt lat="45.3944575" lon="14.1828642"><ele>860.0</ele><time>2026-04-25T11:18:46.057Z</time></trkpt><trkpt lat="45.3944777" lon="14.1829534"><ele>861.0</ele><time>2026-04-25T11:18:48.055Z</time></trkpt><trkpt lat="45.3945028" lon="14.1830743"><ele>862.0000000000001</ele><time>2026-04-25T11:18:51.05Z</time></trkpt><trkpt lat="45.394518" lon="14.1831773"><ele>863.0</ele><time>2026-04-25T11:18:53.049Z</time></trkpt><trkpt lat="45.3945469" lon="14.1832721"><ele>863.8333333333334</ele><time>2026-04-25T11:18:55.053Z</time></trkpt><trkpt lat="45.3945845" lon="14.1833573"><ele>864.6666666666667</ele><time>2026-04-25T11:18:57.042Z</time></trkpt><trkpt lat="45.3946312" lon="14.1834331"><ele>865.5</ele><time>2026-04-25T11:18:59.051Z</time></trkpt><trkpt lat="45.3946895" lon="14.1834865"><ele>866.3333333333333</ele><time>2026-04-25T11:19:01.056Z</time></trkpt><trkpt lat="45.3947821" lon="14.1835066"><ele>867.1666666666666</ele><time>2026-04-25T11:19:03.041Z</time></trkpt><trkpt lat="45.3948398" lon="14.1835492"><ele>868.0</ele><time>2026-04-25T11:19:05.049Z</time></trkpt><trkpt lat="45.3949199" lon="14.1836219"><ele>864.6666666666666</ele><time>2026-04-25T11:19:08.051Z</time></trkpt><trkpt lat="45.3949911" lon="14.1836991"><ele>861.3333333333333</ele><time>2026-04-25T11:19:11.058Z</time></trkpt><trkpt lat="45.3950431" lon="14.183755"><ele>858.0</ele><time>2026-04-25T11:19:13.055Z</time></trkpt><trkpt lat="45.3950972" lon="14.183823"><ele>854.6666666666667</ele><time>2026-04-25T11:19:15.05Z</time></trkpt><trkpt lat="45.3951497" lon="14.1839037"><ele>851.3333333333334</ele><time>2026-04-25T11:19:17.053Z</time></trkpt><trkpt lat="45.3951927" lon="14.1840015"><ele>848.0</ele><time>2026-04-25T11:19:19.053Z</time></trkpt><trkpt lat="45.3952426" lon="14.184098"><ele>848.0000000000001</ele><time>2026-04-25T11:19:21.054Z</time></trkpt><trkpt lat="45.3953061" lon="14.1841701"><ele>848.0</ele><time>2026-04-25T11:19:23.061Z</time></trkpt><trkpt lat="45.3953841" lon="14.184236"><ele>848.0</ele><time>2026-04-25T11:19:26.062Z</time></trkpt><trkpt lat="45.3954383" lon="14.1843023"><ele>848.0</ele><time>2026-04-25T11:19:33.068Z</time></trkpt><trkpt lat="45.3955162" lon="14.1843924"><ele>848.0000000000001</ele><time>2026-04-25T11:19:35.065Z</time></trkpt><trkpt lat="45.3955711" lon="14.1844503"><ele>848.0</ele><time>2026-04-25T11:19:36.06Z</time></trkpt><trkpt lat="45.3956252" lon="14.184518"><ele>845.2</ele><time>2026-04-25T11:19:37.06Z</time></trkpt><trkpt lat="45.3956703" lon="14.184591"><ele>842.4</ele><time>2026-04-25T11:19:38.069Z</time></trkpt><trkpt lat="45.3957373" lon="14.1847378"><ele>839.6</ele><time>2026-04-25T11:19:40.06Z</time></trkpt><trkpt lat="45.3957902" lon="14.1848818"><ele>836.8000000000001</ele><time>2026-04-25T11:19:42.065Z</time></trkpt><trkpt lat="45.3958093" lon="14.1850446"><ele>834.0</ele><time>2026-04-25T11:19:44.055Z</time></trkpt><trkpt lat="45.3958542" lon="14.1852013"><ele>834.1666666666666</ele><time>2026-04-25T11:19:46.074Z</time></trkpt><trkpt lat="45.3959195" lon="14.1853568"><ele>834.3333333333333</ele><time>2026-04-25T11:19:48.06Z</time></trkpt><trkpt lat="45.395949" lon="14.185436"><ele>834.5</ele><time>2026-04-25T11:19:49.062Z</time></trkpt><trkpt lat="45.3959775" lon="14.1855178"><ele>834.6666666666666</ele><time>2026-04-25T11:19:50.066Z</time></trkpt><trkpt lat="45.3960037" lon="14.1856006"><ele>834.8333333333333</ele><time>2026-04-25T11:19:51.064Z</time></trkpt><trkpt lat="45.3960564" lon="14.185734"><ele>835.0</ele><time>2026-04-25T11:19:53.06Z</time></trkpt><trkpt lat="45.3961463" lon="14.1858244"><ele>834.9999999999999</ele><time>2026-04-25T11:19:55.06Z</time></trkpt><trkpt lat="45.3962204" lon="14.1859422"><ele>835.0</ele><time>2026-04-25T11:19:57.063Z</time></trkpt><trkpt lat="45.3962281" lon="14.1860766"><ele>835.0</ele><time>2026-04-25T11:19:59.062Z</time></trkpt><trkpt lat="45.3961751" lon="14.1861501"><ele>835.0</ele><time>2026-04-25T11:20:08.068Z</time></trkpt><trkpt lat="45.3961913" lon="14.1862621"><ele>834.9999999999999</ele><time>2026-04-25T11:20:11.063Z</time></trkpt><trkpt lat="45.3962318" lon="14.1863379"><ele>835.0</ele><time>2026-04-25T11:20:13.067Z</time></trkpt><trkpt lat="45.3963058" lon="14.1863832"><ele>837.3333333333333</ele><time>2026-04-25T11:20:15.056Z</time></trkpt><trkpt lat="45.3963757" lon="14.1864566"><ele>839.6666666666666</ele><time>2026-04-25T11:20:17.07Z</time></trkpt><trkpt lat="45.3964172" lon="14.1865741"><ele>842.0</ele><time>2026-04-25T11:20:19.061Z</time></trkpt><trkpt lat="45.3964577" lon="14.1866704"><ele>844.3333333333333</ele><time>2026-04-25T11:20:21.065Z</time></trkpt><trkpt lat="45.3965153" lon="14.186749"><ele>846.6666666666666</ele><time>2026-04-25T11:20:23.065Z</time></trkpt><trkpt lat="45.396566" lon="14.1868376"><ele>849.0</ele><time>2026-04-25T11:20:25.066Z</time></trkpt><trkpt lat="45.3966259" lon="14.1868982"><ele>849.2857142857143</ele><time>2026-04-25T11:20:27.066Z</time></trkpt><trkpt lat="45.3966932" lon="14.1868683"><ele>849.5714285714286</ele><time>2026-04-25T11:20:29.067Z</time></trkpt><trkpt lat="45.3967627" lon="14.1868004"><ele>849.8571428571429</ele><time>2026-04-25T11:20:31.075Z</time></trkpt><trkpt lat="45.3968197" lon="14.186732"><ele>850.1428571428571</ele><time>2026-04-25T11:20:33.075Z</time></trkpt><trkpt lat="45.3968716" lon="14.1866771"><ele>850.4285714285714</ele><time>2026-04-25T11:20:35.061Z</time></trkpt><trkpt lat="45.3969419" lon="14.1866968"><ele>850.7142857142858</ele><time>2026-04-25T11:20:44.067Z</time></trkpt><trkpt lat="45.3970187" lon="14.1866613"><ele>851.0</ele><time>2026-04-25T11:20:47.062Z</time></trkpt><trkpt lat="45.3970841" lon="14.1865959"><ele>850.6666666666667</ele><time>2026-04-25T11:20:51.062Z</time></trkpt><trkpt lat="45.3971076" lon="14.1864826"><ele>850.3333333333334</ele><time>2026-04-25T11:20:53.07Z</time></trkpt><trkpt lat="45.3971305" lon="14.1863505"><ele>850.0</ele><time>2026-04-25T11:20:55.062Z</time></trkpt><trkpt lat="45.3971576" lon="14.186233"><ele>849.6666666666667</ele><time>2026-04-25T11:20:57.062Z</time></trkpt><trkpt lat="45.3971941" lon="14.1861313"><ele>849.3333333333334</ele><time>2026-04-25T11:20:59.064Z</time></trkpt><trkpt lat="45.397223" lon="14.186022"><ele>849.0</ele><time>2026-04-25T11:21:01.083Z</time></trkpt><trkpt lat="45.3972437" lon="14.1859077"><ele>852.6666666666666</ele><time>2026-04-25T11:21:03.067Z</time></trkpt><trkpt lat="45.3973226" lon="14.1858408"><ele>856.3333333333333</ele><time>2026-04-25T11:21:06.065Z</time></trkpt><trkpt lat="45.3974003" lon="14.1858037"><ele>860.0</ele><time>2026-04-25T11:21:09.079Z</time></trkpt><trkpt lat="45.3974459" lon="14.1857225"><ele>863.6666666666666</ele><time>2026-04-25T11:21:12.08Z</time></trkpt><trkpt lat="45.3974922" lon="14.1856424"><ele>867.3333333333333</ele><time>2026-04-25T11:21:20.074Z</time></trkpt><trkpt lat="45.3975385" lon="14.1855371"><ele>871.0</ele><time>2026-04-25T11:21:23.061Z</time></trkpt><trkpt lat="45.3975694" lon="14.1854179"><ele>871.3333333333333</ele><time>2026-04-25T11:21:26.071Z</time></trkpt><trkpt lat="45.3975823" lon="14.1853059"><ele>871.6666666666666</ele><time>2026-04-25T11:21:29.079Z</time></trkpt><trkpt lat="45.3976122" lon="14.1852042"><ele>872.0</ele><time>2026-04-25T11:22:07.071Z</time></trkpt><trkpt lat="45.3976473" lon="14.1850547"><ele>872.3333333333333</ele><time>2026-04-25T11:22:09.072Z</time></trkpt><trkpt lat="45.3976666" lon="14.1849652"><ele>872.6666666666666</ele><time>2026-04-25T11:22:10.065Z</time></trkpt><trkpt lat="45.3976837" lon="14.1848668"><ele>873.0</ele><time>2026-04-25T11:22:11.08Z</time></trkpt><trkpt lat="45.3976996" lon="14.1847587"><ele>873.5999999999999</ele><time>2026-04-25T11:22:12.088Z</time></trkpt><trkpt lat="45.3977112" lon="14.1846358"><ele>874.1999999999999</ele><time>2026-04-25T11:22:13.075Z</time></trkpt><trkpt lat="45.3977131" lon="14.184499"><ele>874.8</ele><time>2026-04-25T11:22:14.089Z</time></trkpt><trkpt lat="45.3977104" lon="14.1843642"><ele>875.4</ele><time>2026-04-25T11:22:15.069Z</time></trkpt><trkpt lat="45.3977086" lon="14.1842294"><ele>876.0</ele><time>2026-04-25T11:22:16.067Z</time></trkpt><trkpt lat="45.3977046" lon="14.1840879"><ele>878.0</ele><time>2026-04-25T11:22:17.068Z</time></trkpt><trkpt lat="45.3976934" lon="14.1839442"><ele>879.9999999999999</ele><time>2026-04-25T11:22:18.065Z</time></trkpt><trkpt lat="45.3976859" lon="14.1838018"><ele>881.9999999999999</ele><time>2026-04-25T11:22:19.067Z</time></trkpt><trkpt lat="45.3976739" lon="14.1836543"><ele>884.0</ele><time>2026-04-25T11:22:20.069Z</time></trkpt><trkpt lat="45.3976553" lon="14.1835008"><ele>886.0</ele><time>2026-04-25T11:22:21.072Z</time></trkpt><trkpt lat="45.3976305" lon="14.1833421"><ele>886.0</ele><time>2026-04-25T11:22:22.075Z</time></trkpt><trkpt lat="45.3975997" lon="14.1831859"><ele>886.0</ele><time>2026-04-25T11:22:23.076Z</time></trkpt><trkpt lat="45.3975636" lon="14.18303"><ele>886.0</ele><time>2026-04-25T11:22:24.068Z</time></trkpt><trkpt lat="45.3975149" lon="14.1828823"><ele>886.0</ele><time>2026-04-25T11:22:25.079Z</time></trkpt><trkpt lat="45.3974629" lon="14.18273"><ele>891.0</ele><time>2026-04-25T11:22:26.066Z</time></trkpt><trkpt lat="45.3974083" lon="14.1825735"><ele>896.0</ele><time>2026-04-25T11:22:27.057Z</time></trkpt><trkpt lat="45.3973575" lon="14.1824066"><ele>901.0</ele><time>2026-04-25T11:22:28.072Z</time></trkpt><trkpt lat="45.3973053" lon="14.1822289"><ele>906.0</ele><time>2026-04-25T11:22:29.069Z</time></trkpt><trkpt lat="45.3972503" lon="14.1820487"><ele>904.75</ele><time>2026-04-25T11:22:30.071Z</time></trkpt><trkpt lat="45.3971916" lon="14.1818712"><ele>903.5</ele><time>2026-04-25T11:22:31.066Z</time></trkpt><trkpt lat="45.3971363" lon="14.1816988"><ele>902.25</ele><time>2026-04-25T11:22:32.07Z</time></trkpt><trkpt lat="45.3970837" lon="14.181525"><ele>901.0</ele><time>2026-04-25T11:22:33.072Z</time></trkpt><trkpt lat="45.3970364" lon="14.1813682"><ele>901.0</ele><time>2026-04-25T11:22:34.069Z</time></trkpt><trkpt lat="45.396993" lon="14.1812183"><ele>900.9999999999999</ele><time>2026-04-25T11:22:35.081Z</time></trkpt><trkpt lat="45.396962" lon="14.1810665"><ele>900.9999999999999</ele><time>2026-04-25T11:22:36.079Z</time></trkpt><trkpt lat="45.3969596" lon="14.1809109"><ele>901.0</ele><time>2026-04-25T11:22:37.075Z</time></trkpt><trkpt lat="45.3969772" lon="14.1807642"><ele>901.0</ele><time>2026-04-25T11:22:38.079Z</time></trkpt><trkpt lat="45.3970065" lon="14.1806085"><ele>901.5</ele><time>2026-04-25T11:22:39.067Z</time></trkpt><trkpt lat="45.3970427" lon="14.1804532"><ele>902.0</ele><time>2026-04-25T11:22:40.074Z</time></trkpt><trkpt lat="45.3970867" lon="14.1802996"><ele>902.5</ele><time>2026-04-25T11:22:41.078Z</time></trkpt><trkpt lat="45.3971282" lon="14.1801421"><ele>903.0</ele><time>2026-04-25T11:22:42.085Z</time></trkpt><trkpt lat="45.3971699" lon="14.1799942"><ele>906.5</ele><time>2026-04-25T11:22:43.101Z</time></trkpt><trkpt lat="45.397225" lon="14.1798593"><ele>910.0</ele><time>2026-04-25T11:22:44.084Z</time></trkpt><trkpt lat="45.3972928" lon="14.1797337"><ele>913.5</ele><time>2026-04-25T11:22:45.075Z</time></trkpt><trkpt lat="45.3973723" lon="14.1796112"><ele>917.0</ele><time>2026-04-25T11:22:46.081Z</time></trkpt><trkpt lat="45.3974662" lon="14.1794955"><ele>917.0</ele><time>2026-04-25T11:22:47.068Z</time></trkpt><trkpt lat="45.3975661" lon="14.1793835"><ele>917.0</ele><time>2026-04-25T11:22:48.087Z</time></trkpt><trkpt lat="45.3976646" lon="14.1792764"><ele>917.0</ele><time>2026-04-25T11:22:49.068Z</time></trkpt><trkpt lat="45.3977568" lon="14.1791604"><ele>917.0</ele><time>2026-04-25T11:22:50.066Z</time></trkpt><trkpt lat="45.3978379" lon="14.1790302"><ele>917.0</ele><time>2026-04-25T11:22:51.062Z</time></trkpt><trkpt lat="45.397892" lon="14.1788841"><ele>917.0</ele><time>2026-04-25T11:22:52.074Z</time></trkpt><trkpt lat="45.3979169" lon="14.1787071"><ele>917.0</ele><time>2026-04-25T11:22:53.064Z</time></trkpt><trkpt lat="45.397937" lon="14.17853"><ele>917.0</ele><time>2026-04-25T11:22:54.06Z</time></trkpt><trkpt lat="45.3979495" lon="14.178359"><ele>917.0</ele><time>2026-04-25T11:22:55.083Z</time></trkpt><trkpt lat="45.3979651" lon="14.1781983"><ele>917.0</ele><time>2026-04-25T11:22:56.087Z</time></trkpt><trkpt lat="45.3979793" lon="14.1780551"><ele>917.0</ele><time>2026-04-25T11:22:57.084Z</time></trkpt><trkpt lat="45.3980005" lon="14.177928"><ele>917.0</ele><time>2026-04-25T11:22:58.089Z</time></trkpt><trkpt lat="45.3980322" lon="14.1778067"><ele>917.0</ele><time>2026-04-25T11:22:59.086Z</time></trkpt><trkpt lat="45.3980863" lon="14.1776973"><ele>917.2</ele><time>2026-04-25T11:23:00.087Z</time></trkpt><trkpt lat="45.3981537" lon="14.1775952"><ele>917.4000000000001</ele><time>2026-04-25T11:23:01.068Z</time></trkpt><trkpt lat="45.3982232" lon="14.1774974"><ele>917.5999999999999</ele><time>2026-04-25T11:23:02.076Z</time></trkpt><trkpt lat="45.398298" lon="14.1774062"><ele>917.8</ele><time>2026-04-25T11:23:03.078Z</time></trkpt><trkpt lat="45.3983691" lon="14.1773303"><ele>918.0</ele><time>2026-04-25T11:23:04.082Z</time></trkpt><trkpt lat="45.3984395" lon="14.1772562"><ele>918.0</ele><time>2026-04-25T11:23:05.081Z</time></trkpt><trkpt lat="45.3985086" lon="14.1771791"><ele>918.0</ele><time>2026-04-25T11:23:06.084Z</time></trkpt><trkpt lat="45.3985689" lon="14.1770819"><ele>918.0</ele><time>2026-04-25T11:23:07.085Z</time></trkpt><trkpt lat="45.3986103" lon="14.1769651"><ele>918.0</ele><time>2026-04-25T11:23:08.063Z</time></trkpt><trkpt lat="45.3986413" lon="14.1768362"><ele>918.0</ele><time>2026-04-25T11:23:09.062Z</time></trkpt><trkpt lat="45.398652" lon="14.1766827"><ele>918.0</ele><time>2026-04-25T11:23:10.058Z</time></trkpt><trkpt lat="45.3986429" lon="14.1765277"><ele>918.0</ele><time>2026-04-25T11:23:11.06Z</time></trkpt><trkpt lat="45.3986208" lon="14.1763569"><ele>918.0</ele><time>2026-04-25T11:23:12.094Z</time></trkpt><trkpt lat="45.3985917" lon="14.176177"><ele>918.0</ele><time>2026-04-25T11:23:13.076Z</time></trkpt><trkpt lat="45.3985691" lon="14.1760021"><ele>917.4</ele><time>2026-04-25T11:23:14.074Z</time></trkpt><trkpt lat="45.3985496" lon="14.1758369"><ele>916.8</ele><time>2026-04-25T11:23:15.082Z</time></trkpt><trkpt lat="45.3985312" lon="14.1756824"><ele>916.2</ele><time>2026-04-25T11:23:16.088Z</time></trkpt><trkpt lat="45.3985178" lon="14.1755342"><ele>915.6</ele><time>2026-04-25T11:23:17.077Z</time></trkpt><trkpt lat="45.3985101" lon="14.1753971"><ele>915.0</ele><time>2026-04-25T11:23:18.093Z</time></trkpt><trkpt lat="45.3985232" lon="14.1752578"><ele>915.0</ele><time>2026-04-25T11:23:19.087Z</time></trkpt><trkpt lat="45.3985539" lon="14.1751371"><ele>915.0</ele><time>2026-04-25T11:23:20.089Z</time></trkpt><trkpt lat="45.3986066" lon="14.1750107"><ele>915.0</ele><time>2026-04-25T11:23:21.082Z</time></trkpt><trkpt lat="45.3986745" lon="14.1748837"><ele>915.0</ele><time>2026-04-25T11:23:22.067Z</time></trkpt><trkpt lat="45.3987335" lon="14.1747586"><ele>915.0</ele><time>2026-04-25T11:23:23.074Z</time></trkpt><trkpt lat="45.3987882" lon="14.1746442"><ele>915.0</ele><time>2026-04-25T11:23:24.102Z</time></trkpt><trkpt lat="45.3988231" lon="14.1745068"><ele>915.0</ele><time>2026-04-25T11:23:25.082Z</time></trkpt><trkpt lat="45.3988325" lon="14.1743455"><ele>915.0</ele><time>2026-04-25T11:23:26.09Z</time></trkpt><trkpt lat="45.3988382" lon="14.1741749"><ele>915.0</ele><time>2026-04-25T11:23:27.09Z</time></trkpt><trkpt lat="45.3988347" lon="14.1740075"><ele>913.25</ele><time>2026-04-25T11:23:28.08Z</time></trkpt><trkpt lat="45.3988224" lon="14.1738403"><ele>911.5</ele><time>2026-04-25T11:23:29.081Z</time></trkpt><trkpt lat="45.398805" lon="14.1736486"><ele>909.75</ele><time>2026-04-25T11:23:30.085Z</time></trkpt><trkpt lat="45.3987863" lon="14.173452"><ele>908.0</ele><time>2026-04-25T11:23:31.065Z</time></trkpt><trkpt lat="45.3987625" lon="14.1732681"><ele>905.75</ele><time>2026-04-25T11:23:32.067Z</time></trkpt><trkpt lat="45.3987429" lon="14.1730989"><ele>903.5</ele><time>2026-04-25T11:23:33.078Z</time></trkpt><trkpt lat="45.3987282" lon="14.1729339"><ele>901.25</ele><time>2026-04-25T11:23:34.079Z</time></trkpt><trkpt lat="45.3987157" lon="14.1727825"><ele>899.0</ele><time>2026-04-25T11:23:35.085Z</time></trkpt><trkpt lat="45.3987027" lon="14.1726326"><ele>899.0</ele><time>2026-04-25T11:23:36.081Z</time></trkpt><trkpt lat="45.3986918" lon="14.1724846"><ele>899.0000000000001</ele><time>2026-04-25T11:23:37.082Z</time></trkpt><trkpt lat="45.3986812" lon="14.172332"><ele>899.0000000000001</ele><time>2026-04-25T11:23:38.079Z</time></trkpt><trkpt lat="45.3986749" lon="14.1721801"><ele>899.0</ele><time>2026-04-25T11:23:39.074Z</time></trkpt><trkpt lat="45.3986695" lon="14.1720252"><ele>899.0</ele><time>2026-04-25T11:23:40.102Z</time></trkpt><trkpt lat="45.3986551" lon="14.1718733"><ele>898.2</ele><time>2026-04-25T11:23:41.096Z</time></trkpt><trkpt lat="45.3986408" lon="14.1717131"><ele>897.4000000000001</ele><time>2026-04-25T11:23:42.088Z</time></trkpt><trkpt lat="45.3986213" lon="14.171556"><ele>896.6</ele><time>2026-04-25T11:23:43.085Z</time></trkpt><trkpt lat="45.3986073" lon="14.1714041"><ele>895.8</ele><time>2026-04-25T11:23:44.092Z</time></trkpt><trkpt lat="45.398594" lon="14.1712527"><ele>895.0</ele><time>2026-04-25T11:23:45.086Z</time></trkpt><trkpt lat="45.3985842" lon="14.1710985"><ele>893.4</ele><time>2026-04-25T11:23:46.1Z</time></trkpt><trkpt lat="45.3985806" lon="14.1709488"><ele>891.8</ele><time>2026-04-25T11:23:47.095Z</time></trkpt><trkpt lat="45.3985824" lon="14.1708038"><ele>890.2</ele><time>2026-04-25T11:23:48.091Z</time></trkpt><trkpt lat="45.3986015" lon="14.1706722"><ele>888.6</ele><time>2026-04-25T11:23:49.091Z</time></trkpt><trkpt lat="45.3986415" lon="14.1705253"><ele>887.0</ele><time>2026-04-25T11:23:50.091Z</time></trkpt><trkpt lat="45.3986987" lon="14.1703864"><ele>888.2</ele><time>2026-04-25T11:23:51.08Z</time></trkpt><trkpt lat="45.398763" lon="14.1702544"><ele>889.4000000000001</ele><time>2026-04-25T11:23:52.087Z</time></trkpt><trkpt lat="45.3988201" lon="14.1701237"><ele>890.5999999999999</ele><time>2026-04-25T11:23:53.092Z</time></trkpt><trkpt lat="45.3988773" lon="14.1699986"><ele>891.8</ele><time>2026-04-25T11:23:54.09Z</time></trkpt><trkpt lat="45.3989289" lon="14.169876"><ele>893.0</ele><time>2026-04-25T11:23:55.092Z</time></trkpt><trkpt lat="45.3989834" lon="14.1697519"><ele>893.0</ele><time>2026-04-25T11:23:56.087Z</time></trkpt><trkpt lat="45.3990246" lon="14.169625"><ele>893.0</ele><time>2026-04-25T11:23:57.084Z</time></trkpt><trkpt lat="45.3990465" lon="14.1694882"><ele>893.0</ele><time>2026-04-25T11:23:58.086Z</time></trkpt><trkpt lat="45.3990547" lon="14.1693459"><ele>893.0</ele><time>2026-04-25T11:23:59.089Z</time></trkpt><trkpt lat="45.3990348" lon="14.1691799"><ele>893.0</ele><time>2026-04-25T11:24:00.08Z</time></trkpt><trkpt lat="45.3989997" lon="14.1689857"><ele>892.25</ele><time>2026-04-25T11:24:01.066Z</time></trkpt><trkpt lat="45.39896" lon="14.168787"><ele>891.5</ele><time>2026-04-25T11:24:02.091Z</time></trkpt><trkpt lat="45.3989182" lon="14.1686073"><ele>890.75</ele><time>2026-04-25T11:24:03.091Z</time></trkpt><trkpt lat="45.3988896" lon="14.1684475"><ele>890.0</ele><time>2026-04-25T11:24:04.093Z</time></trkpt><trkpt lat="45.3988839" lon="14.1682805"><ele>891.5</ele><time>2026-04-25T11:24:05.101Z</time></trkpt><trkpt lat="45.398889" lon="14.1681123"><ele>893.0</ele><time>2026-04-25T11:24:06.079Z</time></trkpt><trkpt lat="45.3989163" lon="14.1679545"><ele>894.5</ele><time>2026-04-25T11:24:07.082Z</time></trkpt><trkpt lat="45.3989636" lon="14.167789"><ele>896.0</ele><time>2026-04-25T11:24:08.067Z</time></trkpt><trkpt lat="45.399016" lon="14.1676273"><ele>896.0</ele><time>2026-04-25T11:24:09.084Z</time></trkpt><trkpt lat="45.3990631" lon="14.1674679"><ele>896.0</ele><time>2026-04-25T11:24:10.098Z</time></trkpt><trkpt lat="45.399099" lon="14.1673033"><ele>896.0</ele><time>2026-04-25T11:24:11.067Z</time></trkpt><trkpt lat="45.3991174" lon="14.1671375"><ele>896.0</ele><time>2026-04-25T11:24:12.082Z</time></trkpt><trkpt lat="45.3991283" lon="14.1669792"><ele>896.0</ele><time>2026-04-25T11:24:13.082Z</time></trkpt><trkpt lat="45.3991375" lon="14.166821"><ele>895.9999999999999</ele><time>2026-04-25T11:24:14.098Z</time></trkpt><trkpt lat="45.3991414" lon="14.1666555"><ele>895.9999999999999</ele><time>2026-04-25T11:24:15.086Z</time></trkpt><trkpt lat="45.3991353" lon="14.1665006"><ele>896.0</ele><time>2026-04-25T11:24:16.072Z</time></trkpt><trkpt lat="45.399132" lon="14.1663501"><ele>896.0</ele><time>2026-04-25T11:24:17.08Z</time></trkpt><trkpt lat="45.3991418" lon="14.1662057"><ele>896.0</ele><time>2026-04-25T11:24:18.091Z</time></trkpt><trkpt lat="45.3991692" lon="14.166049"><ele>896.0</ele><time>2026-04-25T11:24:19.088Z</time></trkpt><trkpt lat="45.3992178" lon="14.1658912"><ele>896.0</ele><time>2026-04-25T11:24:20.096Z</time></trkpt><trkpt lat="45.3992819" lon="14.1657334"><ele>896.0</ele><time>2026-04-25T11:24:21.089Z</time></trkpt><trkpt lat="45.3993551" lon="14.165583"><ele>894.5</ele><time>2026-04-25T11:24:22.088Z</time></trkpt><trkpt lat="45.3994312" lon="14.1654309"><ele>893.0</ele><time>2026-04-25T11:24:23.083Z</time></trkpt><trkpt lat="45.3995096" lon="14.1652808"><ele>891.5</ele><time>2026-04-25T11:24:24.099Z</time></trkpt><trkpt lat="45.3995908" lon="14.1651218"><ele>890.0</ele><time>2026-04-25T11:24:25.082Z</time></trkpt><trkpt lat="45.3996667" lon="14.1649608"><ele>892.25</ele><time>2026-04-25T11:24:26.09Z</time></trkpt><trkpt lat="45.3997417" lon="14.1648105"><ele>894.5</ele><time>2026-04-25T11:24:27.071Z</time></trkpt><trkpt lat="45.3998113" lon="14.1646762"><ele>896.75</ele><time>2026-04-25T11:24:28.086Z</time></trkpt><trkpt lat="45.3998778" lon="14.1645566"><ele>899.0</ele><time>2026-04-25T11:24:29.066Z</time></trkpt><trkpt lat="45.3999365" lon="14.1644343"><ele>899.0</ele><time>2026-04-25T11:24:30.077Z</time></trkpt><trkpt lat="45.3999938" lon="14.1643162"><ele>899.0000000000001</ele><time>2026-04-25T11:24:31.069Z</time></trkpt><trkpt lat="45.4000482" lon="14.1641883"><ele>899.0000000000001</ele><time>2026-04-25T11:24:32.076Z</time></trkpt><trkpt lat="45.400098" lon="14.1640542"><ele>899.0</ele><time>2026-04-25T11:24:33.071Z</time></trkpt><trkpt lat="45.4001438" lon="14.1639049"><ele>899.0</ele><time>2026-04-25T11:24:34.08Z</time></trkpt><trkpt lat="45.4001856" lon="14.1637503"><ele>895.5</ele><time>2026-04-25T11:24:35.067Z</time></trkpt><trkpt lat="45.4002235" lon="14.1635887"><ele>892.0</ele><time>2026-04-25T11:24:36.069Z</time></trkpt><trkpt lat="45.4002577" lon="14.1634249"><ele>888.5</ele><time>2026-04-25T11:24:37.068Z</time></trkpt><trkpt lat="45.4002911" lon="14.1632641"><ele>885.0</ele><time>2026-04-25T11:24:38.067Z</time></trkpt><trkpt lat="45.4003281" lon="14.163118"><ele>886.2</ele><time>2026-04-25T11:24:39.06Z</time></trkpt><trkpt lat="45.4003656" lon="14.1629793"><ele>887.4</ele><time>2026-04-25T11:24:40.065Z</time></trkpt><trkpt lat="45.4003999" lon="14.1628441"><ele>888.5999999999999</ele><time>2026-04-25T11:24:41.071Z</time></trkpt><trkpt lat="45.400436" lon="14.1627174"><ele>889.8</ele><time>2026-04-25T11:24:42.067Z</time></trkpt><trkpt lat="45.4004785" lon="14.1626002"><ele>891.0</ele><time>2026-04-25T11:24:43.074Z</time></trkpt><trkpt lat="45.4005306" lon="14.1624949"><ele>891.0</ele><time>2026-04-25T11:24:44.069Z</time></trkpt><trkpt lat="45.4005919" lon="14.1623942"><ele>890.9999999999999</ele><time>2026-04-25T11:24:45.072Z</time></trkpt><trkpt lat="45.4006566" lon="14.1622973"><ele>890.9999999999999</ele><time>2026-04-25T11:24:46.077Z</time></trkpt><trkpt lat="45.4007113" lon="14.1621861"><ele>891.0</ele><time>2026-04-25T11:24:47.072Z</time></trkpt><trkpt lat="45.4007602" lon="14.1620614"><ele>891.0</ele><time>2026-04-25T11:24:48.087Z</time></trkpt><trkpt lat="45.4008032" lon="14.1619219"><ele>887.75</ele><time>2026-04-25T11:24:49.085Z</time></trkpt><trkpt lat="45.4008352" lon="14.1617573"><ele>884.5</ele><time>2026-04-25T11:24:50.084Z</time></trkpt><trkpt lat="45.4008594" lon="14.1615841"><ele>881.25</ele><time>2026-04-25T11:24:51.078Z</time></trkpt><trkpt lat="45.4008844" lon="14.1613994"><ele>878.0</ele><time>2026-04-25T11:24:52.083Z</time></trkpt><trkpt lat="45.4009112" lon="14.161213"><ele>877.75</ele><time>2026-04-25T11:24:53.086Z</time></trkpt><trkpt lat="45.4009411" lon="14.1610157"><ele>877.5</ele><time>2026-04-25T11:24:54.084Z</time></trkpt><trkpt lat="45.4009707" lon="14.1608111"><ele>877.25</ele><time>2026-04-25T11:24:55.086Z</time></trkpt><trkpt lat="45.4010013" lon="14.160605"><ele>877.0</ele><time>2026-04-25T11:24:56.085Z</time></trkpt><trkpt lat="45.4010294" lon="14.1604056"><ele>877.0</ele><time>2026-04-25T11:24:57.086Z</time></trkpt><trkpt lat="45.401051" lon="14.1602194"><ele>877.0</ele><time>2026-04-25T11:24:58.078Z</time></trkpt><trkpt lat="45.4010648" lon="14.1600478"><ele>877.0</ele><time>2026-04-25T11:24:59.094Z</time></trkpt><trkpt lat="45.4010843" lon="14.1598986"><ele>877.0</ele><time>2026-04-25T11:25:00.085Z</time></trkpt><trkpt lat="45.4011166" lon="14.1597592"><ele>878.2</ele><time>2026-04-25T11:25:01.087Z</time></trkpt><trkpt lat="45.4011647" lon="14.1596305"><ele>879.4000000000001</ele><time>2026-04-25T11:25:02.09Z</time></trkpt><trkpt lat="45.4012218" lon="14.1595097"><ele>880.5999999999999</ele><time>2026-04-25T11:25:03.093Z</time></trkpt><trkpt lat="45.4013036" lon="14.1593983"><ele>881.8</ele><time>2026-04-25T11:25:04.094Z</time></trkpt><trkpt lat="45.4013837" lon="14.1592826"><ele>883.0</ele><time>2026-04-25T11:25:05.076Z</time></trkpt><trkpt lat="45.4014572" lon="14.1591654"><ele>883.0</ele><time>2026-04-25T11:25:06.101Z</time></trkpt><trkpt lat="45.4015153" lon="14.1590444"><ele>883.0</ele><time>2026-04-25T11:25:07.093Z</time></trkpt><trkpt lat="45.4015531" lon="14.1589048"><ele>883.0</ele><time>2026-04-25T11:25:08.09Z</time></trkpt><trkpt lat="45.4015727" lon="14.1587539"><ele>883.0</ele><time>2026-04-25T11:25:09.094Z</time></trkpt><trkpt lat="45.4015597" lon="14.1585852"><ele>883.0</ele><time>2026-04-25T11:25:10.071Z</time></trkpt><trkpt lat="45.4015275" lon="14.1584061"><ele>880.3333333333333</ele><time>2026-04-25T11:25:11.08Z</time></trkpt><trkpt lat="45.4014835" lon="14.1581922"><ele>877.6666666666667</ele><time>2026-04-25T11:25:12.09Z</time></trkpt><trkpt lat="45.4014279" lon="14.1579712"><ele>875.0</ele><time>2026-04-25T11:25:13.074Z</time></trkpt><trkpt lat="45.4013714" lon="14.1577416"><ele>880.3333333333334</ele><time>2026-04-25T11:25:14.081Z</time></trkpt><trkpt lat="45.4013155" lon="14.1575005"><ele>885.6666666666667</ele><time>2026-04-25T11:25:15.078Z</time></trkpt><trkpt lat="45.4012655" lon="14.1572697"><ele>891.0</ele><time>2026-04-25T11:25:16.078Z</time></trkpt><trkpt lat="45.4012327" lon="14.1570645"><ele>891.0</ele><time>2026-04-25T11:25:17.074Z</time></trkpt><trkpt lat="45.4011974" lon="14.1568779"><ele>891.0</ele><time>2026-04-25T11:25:18.095Z</time></trkpt><trkpt lat="45.4011823" lon="14.156701"><ele>891.0</ele><time>2026-04-25T11:25:19.072Z</time></trkpt><trkpt lat="45.401193" lon="14.1565372"><ele>891.0</ele><time>2026-04-25T11:25:20.084Z</time></trkpt><trkpt lat="45.4012329" lon="14.1563936"><ele>891.25</ele><time>2026-04-25T11:25:21.066Z</time></trkpt><trkpt lat="45.4012952" lon="14.1562737"><ele>891.5</ele><time>2026-04-25T11:25:22.075Z</time></trkpt><trkpt lat="45.401376" lon="14.1561607"><ele>891.75</ele><time>2026-04-25T11:25:23.065Z</time></trkpt><trkpt lat="45.4014659" lon="14.1560388"><ele>892.0</ele><time>2026-04-25T11:25:24.083Z</time></trkpt><trkpt lat="45.4015663" lon="14.1559036"><ele>892.3333333333333</ele><time>2026-04-25T11:25:25.087Z</time></trkpt><trkpt lat="45.4016744" lon="14.1557618"><ele>892.6666666666667</ele><time>2026-04-25T11:25:26.087Z</time></trkpt><trkpt lat="45.4017872" lon="14.1556099"><ele>893.0</ele><time>2026-04-25T11:25:27.08Z</time></trkpt><trkpt lat="45.4019009" lon="14.15546"><ele>893.0</ele><time>2026-04-25T11:25:28.1Z</time></trkpt><trkpt lat="45.4019939" lon="14.1553321"><ele>893.0</ele><time>2026-04-25T11:25:29.077Z</time></trkpt><trkpt lat="45.4020753" lon="14.1552211"><ele>893.0</ele><time>2026-04-25T11:25:30.089Z</time></trkpt><trkpt lat="45.4021554" lon="14.1551155"><ele>893.0</ele><time>2026-04-25T11:25:31.085Z</time></trkpt><trkpt lat="45.4022352" lon="14.1550072"><ele>892.5999999999999</ele><time>2026-04-25T11:25:32.088Z</time></trkpt><trkpt lat="45.4023139" lon="14.1548966"><ele>892.1999999999999</ele><time>2026-04-25T11:25:33.085Z</time></trkpt><trkpt lat="45.4023911" lon="14.1547879"><ele>891.8</ele><time>2026-04-25T11:25:34.095Z</time></trkpt><trkpt lat="45.4024723" lon="14.15469"><ele>891.4</ele><time>2026-04-25T11:25:35.089Z</time></trkpt><trkpt lat="45.4025592" lon="14.1546096"><ele>891.0</ele><time>2026-04-25T11:25:36.096Z</time></trkpt><trkpt lat="45.40266" lon="14.1545403"><ele>894.25</ele><time>2026-04-25T11:25:37.089Z</time></trkpt><trkpt lat="45.4027632" lon="14.1544874"><ele>897.5</ele><time>2026-04-25T11:25:38.087Z</time></trkpt><trkpt lat="45.4028798" lon="14.1544558"><ele>900.75</ele><time>2026-04-25T11:25:39.089Z</time></trkpt><trkpt lat="45.4030021" lon="14.1544362"><ele>904.0</ele><time>2026-04-25T11:25:40.084Z</time></trkpt><trkpt lat="45.403109" lon="14.1544083"><ele>904.4000000000001</ele><time>2026-04-25T11:25:41.09Z</time></trkpt><trkpt lat="45.4032025" lon="14.1543583"><ele>904.8000000000001</ele><time>2026-04-25T11:25:42.094Z</time></trkpt><trkpt lat="45.4032828" lon="14.1542869"><ele>905.1999999999999</ele><time>2026-04-25T11:25:43.089Z</time></trkpt><trkpt lat="45.4033498" lon="14.15419"><ele>905.5999999999999</ele><time>2026-04-25T11:25:44.092Z</time></trkpt><trkpt lat="45.4034022" lon="14.1540425"><ele>906.0</ele><time>2026-04-25T11:25:45.06Z</time></trkpt><trkpt lat="45.4034569" lon="14.1538772"><ele>907.25</ele><time>2026-04-25T11:25:46.076Z</time></trkpt><trkpt lat="45.4035089" lon="14.1537233"><ele>908.5</ele><time>2026-04-25T11:25:47.086Z</time></trkpt><trkpt lat="45.4035656" lon="14.1535627"><ele>909.75</ele><time>2026-04-25T11:25:48.072Z</time></trkpt><trkpt lat="45.4036124" lon="14.1534121"><ele>911.0</ele><time>2026-04-25T11:25:49.091Z</time></trkpt><trkpt lat="45.4036414" lon="14.1532563"><ele>911.0</ele><time>2026-04-25T11:25:50.063Z</time></trkpt><trkpt lat="45.4036614" lon="14.1530955"><ele>910.9999999999999</ele><time>2026-04-25T11:25:51.071Z</time></trkpt><trkpt lat="45.4036553" lon="14.1529457"><ele>910.9999999999999</ele><time>2026-04-25T11:25:52.069Z</time></trkpt><trkpt lat="45.4036294" lon="14.1527991"><ele>911.0</ele><time>2026-04-25T11:25:53.075Z</time></trkpt><trkpt lat="45.4035912" lon="14.1526441"><ele>911.0</ele><time>2026-04-25T11:25:54.061Z</time></trkpt><trkpt lat="45.4035554" lon="14.1524839"><ele>911.4</ele><time>2026-04-25T11:25:55.071Z</time></trkpt><trkpt lat="45.4035229" lon="14.1523258"><ele>911.8</ele><time>2026-04-25T11:25:56.081Z</time></trkpt><trkpt lat="45.4035102" lon="14.1521795"><ele>912.1999999999999</ele><time>2026-04-25T11:25:57.083Z</time></trkpt><trkpt lat="45.4035184" lon="14.1520459"><ele>912.5999999999999</ele><time>2026-04-25T11:25:58.086Z</time></trkpt><trkpt lat="45.403544" lon="14.1518983"><ele>913.0</ele><time>2026-04-25T11:25:59.08Z</time></trkpt><trkpt lat="45.4035976" lon="14.1517594"><ele>913.0</ele><time>2026-04-25T11:26:00.087Z</time></trkpt><trkpt lat="45.4036664" lon="14.1516199"><ele>913.0</ele><time>2026-04-25T11:26:01.07Z</time></trkpt><trkpt lat="45.4037224" lon="14.1514763"><ele>913.0</ele><time>2026-04-25T11:26:02.087Z</time></trkpt><trkpt lat="45.4037503" lon="14.1513195"><ele>913.0</ele><time>2026-04-25T11:26:03.072Z</time></trkpt><trkpt lat="45.4037531" lon="14.1511503"><ele>913.75</ele><time>2026-04-25T11:26:04.074Z</time></trkpt><trkpt lat="45.4037318" lon="14.1509794"><ele>914.5</ele><time>2026-04-25T11:26:05.065Z</time></trkpt><trkpt lat="45.4036932" lon="14.1508093"><ele>915.25</ele><time>2026-04-25T11:26:06.061Z</time></trkpt><trkpt lat="45.4036401" lon="14.1506454"><ele>916.0</ele><time>2026-04-25T11:26:07.077Z</time></trkpt><trkpt lat="45.403582" lon="14.1505186"><ele>917.1999999999999</ele><time>2026-04-25T11:26:08.089Z</time></trkpt><trkpt lat="45.4035084" lon="14.1504082"><ele>918.3999999999999</ele><time>2026-04-25T11:26:09.077Z</time></trkpt><trkpt lat="45.4034231" lon="14.150334"><ele>919.6</ele><time>2026-04-25T11:26:10.09Z</time></trkpt><trkpt lat="45.4033189" lon="14.1502849"><ele>920.8</ele><time>2026-04-25T11:26:11.067Z</time></trkpt><trkpt lat="45.4032119" lon="14.1502543"><ele>922.0</ele><time>2026-04-25T11:26:12.08Z</time></trkpt><trkpt lat="45.4031061" lon="14.1502242"><ele>922.0</ele><time>2026-04-25T11:26:13.088Z</time></trkpt><trkpt lat="45.4030013" lon="14.1501893"><ele>922.0</ele><time>2026-04-25T11:26:14.099Z</time></trkpt><trkpt lat="45.4029146" lon="14.1501288"><ele>922.0</ele><time>2026-04-25T11:26:15.088Z</time></trkpt><trkpt lat="45.4028352" lon="14.1500341"><ele>922.0</ele><time>2026-04-25T11:26:16.103Z</time></trkpt><trkpt lat="45.4027577" lon="14.1499152"><ele>922.0</ele><time>2026-04-25T11:26:17.095Z</time></trkpt><trkpt lat="45.4026951" lon="14.1497745"><ele>923.5</ele><time>2026-04-25T11:26:18.071Z</time></trkpt><trkpt lat="45.4026227" lon="14.1496365"><ele>925.0</ele><time>2026-04-25T11:26:19.093Z</time></trkpt><trkpt lat="45.4025475" lon="14.1494912"><ele>926.5</ele><time>2026-04-25T11:26:20.099Z</time></trkpt><trkpt lat="45.4024606" lon="14.1493298"><ele>928.0</ele><time>2026-04-25T11:26:21.096Z</time></trkpt><trkpt lat="45.4023715" lon="14.1491589"><ele>929.25</ele><time>2026-04-25T11:26:22.086Z</time></trkpt><trkpt lat="45.4022835" lon="14.1489926"><ele>930.5</ele><time>2026-04-25T11:26:23.088Z</time></trkpt><trkpt lat="45.4021996" lon="14.1488371"><ele>931.75</ele><time>2026-04-25T11:26:24.086Z</time></trkpt><trkpt lat="45.4021255" lon="14.1486925"><ele>933.0</ele><time>2026-04-25T11:26:25.082Z</time></trkpt><trkpt lat="45.4020623" lon="14.1485557"><ele>930.0</ele><time>2026-04-25T11:26:26.089Z</time></trkpt><trkpt lat="45.402011" lon="14.1484153"><ele>927.0</ele><time>2026-04-25T11:26:27.088Z</time></trkpt><trkpt lat="45.40198" lon="14.1482653"><ele>924.0</ele><time>2026-04-25T11:26:28.092Z</time></trkpt><trkpt lat="45.40198" lon="14.1480959"><ele>921.0</ele><time>2026-04-25T11:26:29.078Z</time></trkpt><trkpt lat="45.4019826" lon="14.1479196"><ele>921.0</ele><time>2026-04-25T11:26:30.058Z</time></trkpt><trkpt lat="45.4019834" lon="14.1477464"><ele>921.0</ele><time>2026-04-25T11:26:31.092Z</time></trkpt><trkpt lat="45.4019831" lon="14.1475772"><ele>921.0</ele><time>2026-04-25T11:26:32.073Z</time></trkpt><trkpt lat="45.4019727" lon="14.1474126"><ele>921.0</ele><time>2026-04-25T11:26:33.08Z</time></trkpt><trkpt lat="45.4019464" lon="14.1472441"><ele>924.5</ele><time>2026-04-25T11:26:34.073Z</time></trkpt><trkpt lat="45.4018949" lon="14.1470861"><ele>928.0</ele><time>2026-04-25T11:26:35.072Z</time></trkpt><trkpt lat="45.4018187" lon="14.1469416"><ele>931.5</ele><time>2026-04-25T11:26:36.076Z</time></trkpt><trkpt lat="45.4017294" lon="14.1467972"><ele>935.0</ele><time>2026-04-25T11:26:37.102Z</time></trkpt><trkpt lat="45.4016453" lon="14.1466708"><ele>935.0</ele><time>2026-04-25T11:26:38.067Z</time></trkpt><trkpt lat="45.4015643" lon="14.1465596"><ele>935.0</ele><time>2026-04-25T11:26:39.094Z</time></trkpt><trkpt lat="45.4014853" lon="14.1464583"><ele>935.0</ele><time>2026-04-25T11:26:40.079Z</time></trkpt><trkpt lat="45.4014101" lon="14.1463597"><ele>935.0</ele><time>2026-04-25T11:26:41.088Z</time></trkpt><trkpt lat="45.4013381" lon="14.1462405"><ele>935.0</ele><time>2026-04-25T11:26:42.092Z</time></trkpt><trkpt lat="45.4012663" lon="14.1461229"><ele>935.0</ele><time>2026-04-25T11:26:43.082Z</time></trkpt><trkpt lat="45.4011918" lon="14.145995"><ele>935.0</ele><time>2026-04-25T11:26:44.076Z</time></trkpt><trkpt lat="45.4011243" lon="14.1458699"><ele>935.0</ele><time>2026-04-25T11:26:45.076Z</time></trkpt><trkpt lat="45.4010622" lon="14.1457486"><ele>935.0</ele><time>2026-04-25T11:26:46.09Z</time></trkpt><trkpt lat="45.4010127" lon="14.1456297"><ele>935.0</ele><time>2026-04-25T11:26:47.094Z</time></trkpt><trkpt lat="45.4009768" lon="14.1455076"><ele>935.0</ele><time>2026-04-25T11:26:48.085Z</time></trkpt><trkpt lat="45.4009466" lon="14.1453907"><ele>935.0</ele><time>2026-04-25T11:26:49.092Z</time></trkpt><trkpt lat="45.4009348" lon="14.1452711"><ele>935.0</ele><time>2026-04-25T11:26:50.086Z</time></trkpt><trkpt lat="45.4009431" lon="14.1451441"><ele>935.0</ele><time>2026-04-25T11:26:51.07Z</time></trkpt><trkpt lat="45.4009649" lon="14.1450075"><ele>935.0</ele><time>2026-04-25T11:26:52.079Z</time></trkpt><trkpt lat="45.4009869" lon="14.1448764"><ele>934.6666666666667</ele><time>2026-04-25T11:26:53.094Z</time></trkpt><trkpt lat="45.4010369" lon="14.1447701"><ele>934.3333333333334</ele><time>2026-04-25T11:26:54.096Z</time></trkpt><trkpt lat="45.401099" lon="14.1446905"><ele>934.0</ele><time>2026-04-25T11:26:55.067Z</time></trkpt><trkpt lat="45.40117" lon="14.1446476"><ele>933.6666666666667</ele><time>2026-04-25T11:26:56.078Z</time></trkpt><trkpt lat="45.4012503" lon="14.1446204"><ele>933.3333333333334</ele><time>2026-04-25T11:26:57.061Z</time></trkpt><trkpt lat="45.4013301" lon="14.1445954"><ele>933.0</ele><time>2026-04-25T11:26:58.071Z</time></trkpt><trkpt lat="45.4014051" lon="14.1445733"><ele>934.2</ele><time>2026-04-25T11:26:59.089Z</time></trkpt><trkpt lat="45.4014825" lon="14.1445453"><ele>935.4</ele><time>2026-04-25T11:27:00.088Z</time></trkpt><trkpt lat="45.401557" lon="14.1444989"><ele>936.6000000000001</ele><time>2026-04-25T11:27:01.082Z</time></trkpt><trkpt lat="45.4016301" lon="14.1444177"><ele>937.8000000000001</ele><time>2026-04-25T11:27:02.085Z</time></trkpt><trkpt lat="45.4016912" lon="14.144301"><ele>939.0</ele><time>2026-04-25T11:27:03.08Z</time></trkpt><trkpt lat="45.4017332" lon="14.1441756"><ele>939.0</ele><time>2026-04-25T11:27:04.071Z</time></trkpt><trkpt lat="45.4017586" lon="14.1440511"><ele>939.0</ele><time>2026-04-25T11:27:05.059Z</time></trkpt><trkpt lat="45.401768" lon="14.1439317"><ele>939.0</ele><time>2026-04-25T11:27:06.079Z</time></trkpt><trkpt lat="45.4017564" lon="14.1438127"><ele>939.0</ele><time>2026-04-25T11:27:07.06Z</time></trkpt><trkpt lat="45.4017356" lon="14.1436862"><ele>939.0</ele><time>2026-04-25T11:27:08.071Z</time></trkpt><trkpt lat="45.4017184" lon="14.1435528"><ele>939.0</ele><time>2026-04-25T11:27:09.078Z</time></trkpt><trkpt lat="45.4017274" lon="14.1434314"><ele>936.8000000000001</ele><time>2026-04-25T11:27:10.087Z</time></trkpt><trkpt lat="45.4017584" lon="14.1433156"><ele>934.6000000000001</ele><time>2026-04-25T11:27:11.086Z</time></trkpt><trkpt lat="45.4018157" lon="14.1432235"><ele>932.4</ele><time>2026-04-25T11:27:12.069Z</time></trkpt><trkpt lat="45.4018855" lon="14.1431421"><ele>930.2</ele><time>2026-04-25T11:27:13.067Z</time></trkpt><trkpt lat="45.4019645" lon="14.1430684"><ele>928.0</ele><time>2026-04-25T11:27:14.077Z</time></trkpt><trkpt lat="45.4020535" lon="14.1430016"><ele>926.75</ele><time>2026-04-25T11:27:15.076Z</time></trkpt><trkpt lat="45.4021372" lon="14.1429153"><ele>925.5</ele><time>2026-04-25T11:27:16.088Z</time></trkpt><trkpt lat="45.4022048" lon="14.1427943"><ele>924.25</ele><time>2026-04-25T11:27:17.079Z</time></trkpt><trkpt lat="45.4022703" lon="14.1426502"><ele>923.0</ele><time>2026-04-25T11:27:18.083Z</time></trkpt><trkpt lat="45.4023364" lon="14.1424919"><ele>920.0</ele><time>2026-04-25T11:27:19.064Z</time></trkpt><trkpt lat="45.4023979" lon="14.1423359"><ele>917.0</ele><time>2026-04-25T11:27:20.076Z</time></trkpt><trkpt lat="45.4024596" lon="14.1421812"><ele>914.0</ele><time>2026-04-25T11:27:21.071Z</time></trkpt><trkpt lat="45.4025219" lon="14.1420311"><ele>911.0</ele><time>2026-04-25T11:27:22.081Z</time></trkpt><trkpt lat="45.4025793" lon="14.1418903"><ele>911.0</ele><time>2026-04-25T11:27:23.072Z</time></trkpt><trkpt lat="45.4026314" lon="14.1417522"><ele>910.9999999999999</ele><time>2026-04-25T11:27:24.075Z</time></trkpt><trkpt lat="45.4026813" lon="14.1416201"><ele>910.9999999999999</ele><time>2026-04-25T11:27:25.079Z</time></trkpt><trkpt lat="45.4027178" lon="14.1414805"><ele>911.0</ele><time>2026-04-25T11:27:26.078Z</time></trkpt><trkpt lat="45.4027353" lon="14.1413326"><ele>911.0</ele><time>2026-04-25T11:27:27.081Z</time></trkpt><trkpt lat="45.4027303" lon="14.1411732"><ele>909.8</ele><time>2026-04-25T11:27:28.078Z</time></trkpt><trkpt lat="45.4027221" lon="14.1410124"><ele>908.5999999999999</ele><time>2026-04-25T11:27:29.052Z</time></trkpt><trkpt lat="45.4027163" lon="14.1408601"><ele>907.4</ele><time>2026-04-25T11:27:30.073Z</time></trkpt><trkpt lat="45.4027246" lon="14.1407037"><ele>906.2</ele><time>2026-04-25T11:27:31.071Z</time></trkpt><trkpt lat="45.4027525" lon="14.1405395"><ele>905.0</ele><time>2026-04-25T11:27:32.084Z</time></trkpt><trkpt lat="45.4027952" lon="14.1403747"><ele>904.25</ele><time>2026-04-25T11:27:33.07Z</time></trkpt><trkpt lat="45.4028499" lon="14.1402066"><ele>903.5</ele><time>2026-04-25T11:27:34.078Z</time></trkpt><trkpt lat="45.4029059" lon="14.1400629"><ele>902.75</ele><time>2026-04-25T11:27:35.078Z</time></trkpt><trkpt lat="45.4029779" lon="14.1399424"><ele>902.0</ele><time>2026-04-25T11:27:36.086Z</time></trkpt><trkpt lat="45.4030623" lon="14.1398312"><ele>902.0</ele><time>2026-04-25T11:27:37.087Z</time></trkpt><trkpt lat="45.4031635" lon="14.1397288"><ele>902.0</ele><time>2026-04-25T11:27:38.088Z</time></trkpt><trkpt lat="45.4032728" lon="14.1396345"><ele>902.0</ele><time>2026-04-25T11:27:39.088Z</time></trkpt><trkpt lat="45.4033698" lon="14.1395456"><ele>902.0</ele><time>2026-04-25T11:27:40.082Z</time></trkpt><trkpt lat="45.4034567" lon="14.1394385"><ele>902.0</ele><time>2026-04-25T11:27:41.083Z</time></trkpt><trkpt lat="45.4035417" lon="14.1393136"><ele>902.0</ele><time>2026-04-25T11:27:42.082Z</time></trkpt><trkpt lat="45.4036208" lon="14.1391912"><ele>902.0</ele><time>2026-04-25T11:27:43.089Z</time></trkpt><trkpt lat="45.4037081" lon="14.1390908"><ele>902.0</ele><time>2026-04-25T11:27:44.083Z</time></trkpt><trkpt lat="45.4038114" lon="14.1390003"><ele>904.5</ele><time>2026-04-25T11:27:45.086Z</time></trkpt><trkpt lat="45.4039268" lon="14.1389201"><ele>907.0</ele><time>2026-04-25T11:27:46.09Z</time></trkpt><trkpt lat="45.4040443" lon="14.13885"><ele>909.5</ele><time>2026-04-25T11:27:47.082Z</time></trkpt><trkpt lat="45.4041471" lon="14.1387852"><ele>912.0</ele><time>2026-04-25T11:27:48.085Z</time></trkpt><trkpt lat="45.4042335" lon="14.1386977"><ele>912.0</ele><time>2026-04-25T11:27:49.095Z</time></trkpt><trkpt lat="45.4043022" lon="14.1385878"><ele>912.0</ele><time>2026-04-25T11:27:50.088Z</time></trkpt><trkpt lat="45.4043654" lon="14.1384556"><ele>912.0</ele><time>2026-04-25T11:27:51.064Z</time></trkpt><trkpt lat="45.4044311" lon="14.1383156"><ele>912.0</ele><time>2026-04-25T11:27:52.087Z</time></trkpt><trkpt lat="45.404496" lon="14.1381632"><ele>911.5</ele><time>2026-04-25T11:27:53.084Z</time></trkpt><trkpt lat="45.4045643" lon="14.1380102"><ele>911.0</ele><time>2026-04-25T11:27:54.092Z</time></trkpt><trkpt lat="45.4046414" lon="14.1378561"><ele>910.5</ele><time>2026-04-25T11:27:55.09Z</time></trkpt><trkpt lat="45.4047175" lon="14.1376956"><ele>910.0</ele><time>2026-04-25T11:27:56.078Z</time></trkpt><trkpt lat="45.4047887" lon="14.1375588"><ele>910.0</ele><time>2026-04-25T11:27:57.077Z</time></trkpt><trkpt lat="45.4048396" lon="14.1374722"><ele>910.0</ele><time>2026-04-25T11:27:58.075Z</time></trkpt><trkpt lat="45.4048854" lon="14.1373941"><ele>910.0</ele><time>2026-04-25T11:28:00.094Z</time></trkpt><trkpt lat="45.4049328" lon="14.1373309"><ele>910.0</ele><time>2026-04-25T11:28:04.088Z</time></trkpt><trkpt lat="45.4048691" lon="14.1373931"><ele>910.0</ele><time>2026-04-25T11:29:20.074Z</time></trkpt><trkpt lat="45.4048223" lon="14.1374539"><ele>910.0</ele><time>2026-04-25T11:29:22.099Z</time></trkpt><trkpt lat="45.4047598" lon="14.1374317"><ele>910.0</ele><time>2026-04-25T11:29:24.07Z</time></trkpt><trkpt lat="45.4047053" lon="14.1373357"><ele>908.2</ele><time>2026-04-25T11:29:26.066Z</time></trkpt><trkpt lat="45.4046546" lon="14.1371725"><ele>906.4</ele><time>2026-04-25T11:29:28.089Z</time></trkpt><trkpt lat="45.4046014" lon="14.137004"><ele>904.5999999999999</ele><time>2026-04-25T11:29:30.087Z</time></trkpt><trkpt lat="45.4045692" lon="14.1369024"><ele>902.8</ele><time>2026-04-25T11:29:31.085Z</time></trkpt><trkpt lat="45.404543" lon="14.1368001"><ele>901.0</ele><time>2026-04-25T11:29:32.104Z</time></trkpt><trkpt lat="45.4045179" lon="14.1366893"><ele>900.9999999999999</ele><time>2026-04-25T11:29:33.08Z</time></trkpt><trkpt lat="45.4044952" lon="14.1365752"><ele>901.0</ele><time>2026-04-25T11:29:34.079Z</time></trkpt><trkpt lat="45.4044728" lon="14.136455"><ele>901.0</ele><time>2026-04-25T11:29:35.08Z</time></trkpt><trkpt lat="45.4044511" lon="14.1363365"><ele>901.0</ele><time>2026-04-25T11:29:36.082Z</time></trkpt><trkpt lat="45.4044311" lon="14.136219"><ele>900.9999999999999</ele><time>2026-04-25T11:29:37.087Z</time></trkpt><trkpt lat="45.4044028" lon="14.136122"><ele>901.0</ele><time>2026-04-25T11:29:38.093Z</time></trkpt><trkpt lat="45.4043622" lon="14.1360464"><ele>900.9999999999999</ele><time>2026-04-25T11:29:39.081Z</time></trkpt><trkpt lat="45.4043022" lon="14.1359888"><ele>901.0</ele><time>2026-04-25T11:29:40.077Z</time></trkpt><trkpt lat="45.4042198" lon="14.1359468"><ele>901.0</ele><time>2026-04-25T11:29:41.061Z</time></trkpt><trkpt lat="45.4041356" lon="14.1359311"><ele>901.0</ele><time>2026-04-25T11:29:42.068Z</time></trkpt><trkpt lat="45.4040464" lon="14.135922"><ele>900.9999999999999</ele><time>2026-04-25T11:29:43.075Z</time></trkpt><trkpt lat="45.4039622" lon="14.1359337"><ele>901.0</ele><time>2026-04-25T11:29:44.086Z</time></trkpt><trkpt lat="45.4038653" lon="14.1359308"><ele>899.5999999999999</ele><time>2026-04-25T11:29:45.093Z</time></trkpt><trkpt lat="45.4037625" lon="14.1359156"><ele>898.1999999999999</ele><time>2026-04-25T11:29:46.092Z</time></trkpt><trkpt lat="45.4036592" lon="14.1358842"><ele>896.8000000000001</ele><time>2026-04-25T11:29:47.096Z</time></trkpt><trkpt lat="45.4035626" lon="14.1358525"><ele>895.4000000000001</ele><time>2026-04-25T11:29:48.088Z</time></trkpt><trkpt lat="45.403456" lon="14.1358078"><ele>894.0</ele><time>2026-04-25T11:29:49.099Z</time></trkpt><trkpt lat="45.4033489" lon="14.1357665"><ele>894.0</ele><time>2026-04-25T11:29:50.097Z</time></trkpt><trkpt lat="45.4032482" lon="14.1357277"><ele>894.0</ele><time>2026-04-25T11:29:51.129Z</time></trkpt><trkpt lat="45.4031594" lon="14.1356832"><ele>894.0</ele><time>2026-04-25T11:29:52.1Z</time></trkpt><trkpt lat="45.4030974" lon="14.1356037"><ele>894.0</ele><time>2026-04-25T11:29:53.091Z</time></trkpt><trkpt lat="45.4030513" lon="14.1355257"><ele>894.0</ele><time>2026-04-25T11:29:54.078Z</time></trkpt><trkpt lat="45.403009" lon="14.1354333"><ele>894.0</ele><time>2026-04-25T11:29:55.074Z</time></trkpt><trkpt lat="45.402972" lon="14.1353393"><ele>892.3333333333334</ele><time>2026-04-25T11:29:56.09Z</time></trkpt><trkpt lat="45.4029291" lon="14.1352536"><ele>890.6666666666667</ele><time>2026-04-25T11:29:57.09Z</time></trkpt><trkpt lat="45.4028844" lon="14.1351727"><ele>889.0</ele><time>2026-04-25T11:29:58.113Z</time></trkpt><trkpt lat="45.402842" lon="14.1350968"><ele>887.3333333333334</ele><time>2026-04-25T11:29:59.092Z</time></trkpt><trkpt lat="45.4027989" lon="14.1349712"><ele>885.6666666666667</ele><time>2026-04-25T11:30:01.102Z</time></trkpt><trkpt lat="45.4028061" lon="14.1348287"><ele>884.0</ele><time>2026-04-25T11:30:03.087Z</time></trkpt><trkpt lat="45.4028237" lon="14.1347426"><ele>883.5714285714287</ele><time>2026-04-25T11:30:04.099Z</time></trkpt><trkpt lat="45.4028432" lon="14.1346371"><ele>883.1428571428571</ele><time>2026-04-25T11:30:05.08Z</time></trkpt><trkpt lat="45.4028711" lon="14.1345499"><ele>882.7142857142858</ele><time>2026-04-25T11:30:06.065Z</time></trkpt><trkpt lat="45.4029111" lon="14.1344691"><ele>882.2857142857143</ele><time>2026-04-25T11:30:07.095Z</time></trkpt><trkpt lat="45.4029572" lon="14.1343971"><ele>881.8571428571429</ele><time>2026-04-25T11:30:08.073Z</time></trkpt><trkpt lat="45.4030086" lon="14.1343277"><ele>881.4285714285714</ele><time>2026-04-25T11:30:09.081Z</time></trkpt><trkpt lat="45.4030617" lon="14.1342608"><ele>881.0</ele><time>2026-04-25T11:30:10.076Z</time></trkpt><trkpt lat="45.4031147" lon="14.1341856"><ele>881.0000000000001</ele><time>2026-04-25T11:30:11.062Z</time></trkpt><trkpt lat="45.4031703" lon="14.1341203"><ele>881.0</ele><time>2026-04-25T11:30:12.067Z</time></trkpt><trkpt lat="45.4032237" lon="14.1340597"><ele>881.0</ele><time>2026-04-25T11:30:13.067Z</time></trkpt><trkpt lat="45.4032786" lon="14.1339924"><ele>881.0</ele><time>2026-04-25T11:30:14.068Z</time></trkpt><trkpt lat="45.4033411" lon="14.1339303"><ele>881.0000000000001</ele><time>2026-04-25T11:30:15.072Z</time></trkpt><trkpt lat="45.4034022" lon="14.1338855"><ele>881.0</ele><time>2026-04-25T11:30:16.066Z</time></trkpt><trkpt lat="45.4035267" lon="14.1338036"><ele>879.8333333333334</ele><time>2026-04-25T11:30:18.069Z</time></trkpt><trkpt lat="45.4035928" lon="14.1337521"><ele>878.6666666666667</ele><time>2026-04-25T11:30:19.062Z</time></trkpt><trkpt lat="45.4036691" lon="14.1336912"><ele>877.5</ele><time>2026-04-25T11:30:20.084Z</time></trkpt><trkpt lat="45.4037456" lon="14.1336344"><ele>876.3333333333333</ele><time>2026-04-25T11:30:21.059Z</time></trkpt><trkpt lat="45.4038312" lon="14.1335615"><ele>875.1666666666666</ele><time>2026-04-25T11:30:22.058Z</time></trkpt><trkpt lat="45.4039146" lon="14.1334941"><ele>874.0</ele><time>2026-04-25T11:30:23.053Z</time></trkpt><trkpt lat="45.4039884" lon="14.1334265"><ele>873.9999999999999</ele><time>2026-04-25T11:30:24.05Z</time></trkpt><trkpt lat="45.4040549" lon="14.133355"><ele>874.0</ele><time>2026-04-25T11:30:25.052Z</time></trkpt><trkpt lat="45.4041118" lon="14.1332795"><ele>874.0</ele><time>2026-04-25T11:30:26.052Z</time></trkpt><trkpt lat="45.4041524" lon="14.1331887"><ele>874.0</ele><time>2026-04-25T11:30:27.057Z</time></trkpt><trkpt lat="45.4041633" lon="14.1330864"><ele>873.9999999999999</ele><time>2026-04-25T11:30:28.059Z</time></trkpt><trkpt lat="45.4041521" lon="14.1329961"><ele>874.0</ele><time>2026-04-25T11:30:29.049Z</time></trkpt><trkpt lat="45.4041265" lon="14.1328926"><ele>873.3333333333333</ele><time>2026-04-25T11:30:30.051Z</time></trkpt><trkpt lat="45.4040854" lon="14.1327958"><ele>872.6666666666666</ele><time>2026-04-25T11:30:31.051Z</time></trkpt><trkpt lat="45.4040307" lon="14.1327061"><ele>872.0</ele><time>2026-04-25T11:30:32.048Z</time></trkpt><trkpt lat="45.4039725" lon="14.1326244"><ele>871.3333333333333</ele><time>2026-04-25T11:30:33.062Z</time></trkpt><trkpt lat="45.40392" lon="14.1325514"><ele>870.6666666666666</ele><time>2026-04-25T11:30:34.059Z</time></trkpt><trkpt lat="45.4038635" lon="14.132466"><ele>870.0</ele><time>2026-04-25T11:30:35.069Z</time></trkpt><trkpt lat="45.403804" lon="14.1323755"><ele>868.4</ele><time>2026-04-25T11:30:36.072Z</time></trkpt><trkpt lat="45.4037381" lon="14.1322898"><ele>866.8</ele><time>2026-04-25T11:30:37.075Z</time></trkpt><trkpt lat="45.4036644" lon="14.132206"><ele>865.2</ele><time>2026-04-25T11:30:38.063Z</time></trkpt><trkpt lat="45.4035882" lon="14.132118"><ele>863.6</ele><time>2026-04-25T11:30:39.058Z</time></trkpt><trkpt lat="45.4035089" lon="14.132039"><ele>862.0</ele><time>2026-04-25T11:30:40.062Z</time></trkpt><trkpt lat="45.4034234" lon="14.131964"><ele>861.9999999999999</ele><time>2026-04-25T11:30:41.062Z</time></trkpt><trkpt lat="45.4033337" lon="14.1318932"><ele>862.0</ele><time>2026-04-25T11:30:42.067Z</time></trkpt><trkpt lat="45.4032589" lon="14.1318246"><ele>862.0</ele><time>2026-04-25T11:30:43.073Z</time></trkpt><trkpt lat="45.4031889" lon="14.1317546"><ele>862.0</ele><time>2026-04-25T11:30:44.08Z</time></trkpt><trkpt lat="45.4031221" lon="14.1316936"><ele>861.9999999999999</ele><time>2026-04-25T11:30:45.078Z</time></trkpt><trkpt lat="45.4030651" lon="14.1316261"><ele>862.0</ele><time>2026-04-25T11:30:46.075Z</time></trkpt><trkpt lat="45.4030042" lon="14.1314679"><ele>863.25</ele><time>2026-04-25T11:30:48.071Z</time></trkpt><trkpt lat="45.4029758" lon="14.1313072"><ele>864.5</ele><time>2026-04-25T11:30:50.072Z</time></trkpt><trkpt lat="45.402951" lon="14.1311429"><ele>865.75</ele><time>2026-04-25T11:30:52.07Z</time></trkpt><trkpt lat="45.4029421" lon="14.1309953"><ele>867.0</ele><time>2026-04-25T11:30:54.08Z</time></trkpt><trkpt lat="45.4029226" lon="14.1308379"><ele>863.3333333333334</ele><time>2026-04-25T11:30:56.074Z</time></trkpt><trkpt lat="45.4028963" lon="14.1306814"><ele>859.6666666666667</ele><time>2026-04-25T11:30:58.063Z</time></trkpt><trkpt lat="45.402877" lon="14.1305077"><ele>856.0</ele><time>2026-04-25T11:31:00.072Z</time></trkpt><trkpt lat="45.4028679" lon="14.1304181"><ele>852.3333333333334</ele><time>2026-04-25T11:31:01.088Z</time></trkpt><trkpt lat="45.4028539" lon="14.1303218"><ele>848.6666666666667</ele><time>2026-04-25T11:31:02.075Z</time></trkpt><trkpt lat="45.4028432" lon="14.1302278"><ele>845.0</ele><time>2026-04-25T11:31:03.068Z</time></trkpt><trkpt lat="45.4028243" lon="14.1301345"><ele>844.9999999999999</ele><time>2026-04-25T11:31:04.073Z</time></trkpt><trkpt lat="45.4027946" lon="14.1300504"><ele>845.0</ele><time>2026-04-25T11:31:05.071Z</time></trkpt><trkpt lat="45.4027548" lon="14.1299708"><ele>845.0</ele><time>2026-04-25T11:31:06.072Z</time></trkpt><trkpt lat="45.4026993" lon="14.1299007"><ele>845.0</ele><time>2026-04-25T11:31:07.064Z</time></trkpt><trkpt lat="45.4026432" lon="14.1298351"><ele>845.0</ele><time>2026-04-25T11:31:08.09Z</time></trkpt><trkpt lat="45.402579" lon="14.129784"><ele>844.9999999999999</ele><time>2026-04-25T11:31:09.068Z</time></trkpt><trkpt lat="45.4025146" lon="14.129747"><ele>845.0</ele><time>2026-04-25T11:31:10.075Z</time></trkpt><trkpt lat="45.4024383" lon="14.129725"><ele>837.5000000000001</ele><time>2026-04-25T11:31:11.07Z</time></trkpt><trkpt lat="45.4023559" lon="14.1297139"><ele>830.0</ele><time>2026-04-25T11:31:12.06Z</time></trkpt><trkpt lat="45.4022761" lon="14.1297198"><ele>822.5</ele><time>2026-04-25T11:31:13.062Z</time></trkpt><trkpt lat="45.4022004" lon="14.1297371"><ele>815.0</ele><time>2026-04-25T11:31:14.062Z</time></trkpt><trkpt lat="45.4021299" lon="14.1297603"><ele>807.5000000000001</ele><time>2026-04-25T11:31:15.058Z</time></trkpt><trkpt lat="45.4020396" lon="14.1297999"><ele>800.0</ele><time>2026-04-25T11:31:17.05Z</time></trkpt><trkpt lat="45.4019589" lon="14.1298069"><ele>796.0000000000001</ele><time>2026-04-25T11:31:59.05Z</time></trkpt><trkpt lat="45.4018812" lon="14.1298675"><ele>792.0</ele><time>2026-04-25T11:37:01.059Z</time></trkpt><trkpt lat="45.4018005" lon="14.129893"><ele>788.0</ele><time>2026-04-25T11:37:03.065Z</time></trkpt><trkpt lat="45.4016968" lon="14.1299329"><ele>784.0</ele><time>2026-04-25T11:37:05.047Z</time></trkpt><trkpt lat="45.4016095" lon="14.1299715"><ele>780.0000000000001</ele><time>2026-04-25T11:37:07.064Z</time></trkpt><trkpt lat="45.4015378" lon="14.1299911"><ele>776.0</ele><time>2026-04-25T11:37:09.064Z</time></trkpt><trkpt lat="45.4014603" lon="14.1300332"><ele>779.8333333333334</ele><time>2026-04-25T11:37:11.077Z</time></trkpt><trkpt lat="45.4013721" lon="14.1301145"><ele>783.6666666666667</ele><time>2026-04-25T11:37:13.06Z</time></trkpt><trkpt lat="45.4012679" lon="14.1302234"><ele>787.5</ele><time>2026-04-25T11:37:15.051Z</time></trkpt><trkpt lat="45.401215" lon="14.1302808"><ele>791.3333333333333</ele><time>2026-04-25T11:37:16.054Z</time></trkpt><trkpt lat="45.4011566" lon="14.1303373"><ele>795.1666666666666</ele><time>2026-04-25T11:37:17.046Z</time></trkpt><trkpt lat="45.401096" lon="14.1303779"><ele>799.0</ele><time>2026-04-25T11:37:18.052Z</time></trkpt><trkpt lat="45.4010291" lon="14.1304092"><ele>798.9999999999999</ele><time>2026-04-25T11:37:19.045Z</time></trkpt><trkpt lat="45.4009559" lon="14.1304384"><ele>799.0</ele><time>2026-04-25T11:37:20.043Z</time></trkpt><trkpt lat="45.400878" lon="14.1304592"><ele>799.0</ele><time>2026-04-25T11:37:21.052Z</time></trkpt><trkpt lat="45.4008017" lon="14.1304829"><ele>799.0</ele><time>2026-04-25T11:37:22.05Z</time></trkpt><trkpt lat="45.4007336" lon="14.1304945"><ele>798.9999999999999</ele><time>2026-04-25T11:37:23.079Z</time></trkpt><trkpt lat="45.4006569" lon="14.1305075"><ele>799.0</ele><time>2026-04-25T11:37:24.052Z</time></trkpt><trkpt lat="45.4005778" lon="14.1305127"><ele>795.8333333333333</ele><time>2026-04-25T11:37:25.048Z</time></trkpt><trkpt lat="45.4004982" lon="14.1305145"><ele>792.6666666666666</ele><time>2026-04-25T11:37:26.053Z</time></trkpt><trkpt lat="45.4004149" lon="14.130521"><ele>789.5</ele><time>2026-04-25T11:37:27.054Z</time></trkpt><trkpt lat="45.40033" lon="14.130526"><ele>786.3333333333333</ele><time>2026-04-25T11:37:28.053Z</time></trkpt><trkpt lat="45.4002518" lon="14.1305278"><ele>783.1666666666666</ele><time>2026-04-25T11:37:29.057Z</time></trkpt><trkpt lat="45.4001705" lon="14.1305223"><ele>780.0</ele><time>2026-04-25T11:37:30.051Z</time></trkpt><trkpt lat="45.4000886" lon="14.1305184"><ele>780.0</ele><time>2026-04-25T11:37:31.055Z</time></trkpt><trkpt lat="45.4000055" lon="14.130511"><ele>780.0</ele><time>2026-04-25T11:37:32.046Z</time></trkpt><trkpt lat="45.3999232" lon="14.1305006"><ele>780.0</ele><time>2026-04-25T11:37:33.051Z</time></trkpt><trkpt lat="45.3998408" lon="14.1304951"><ele>780.0</ele><time>2026-04-25T11:37:34.052Z</time></trkpt><trkpt lat="45.3997521" lon="14.1304781"><ele>780.0</ele><time>2026-04-25T11:37:35.049Z</time></trkpt><trkpt lat="45.3996727" lon="14.1304646"><ele>780.0</ele><time>2026-04-25T11:37:36.043Z</time></trkpt><trkpt lat="45.3995874" lon="14.1304533"><ele>778.6666666666666</ele><time>2026-04-25T11:37:37.048Z</time></trkpt><trkpt lat="45.3995127" lon="14.1304457"><ele>777.3333333333333</ele><time>2026-04-25T11:37:38.041Z</time></trkpt><trkpt lat="45.3994361" lon="14.1304325"><ele>776.0</ele><time>2026-04-25T11:37:39.05Z</time></trkpt><trkpt lat="45.3993559" lon="14.1304207"><ele>774.6666666666666</ele><time>2026-04-25T11:37:40.034Z</time></trkpt><trkpt lat="45.3992753" lon="14.1304065"><ele>773.3333333333333</ele><time>2026-04-25T11:37:41.05Z</time></trkpt><trkpt lat="45.3991958" lon="14.1303961"><ele>772.0</ele><time>2026-04-25T11:37:42.041Z</time></trkpt><trkpt lat="45.3991164" lon="14.1303871"><ele>772.0000000000001</ele><time>2026-04-25T11:37:43.042Z</time></trkpt><trkpt lat="45.3990414" lon="14.1303761"><ele>772.0</ele><time>2026-04-25T11:37:44.036Z</time></trkpt><trkpt lat="45.3989698" lon="14.1303672"><ele>772.0</ele><time>2026-04-25T11:37:45.041Z</time></trkpt><trkpt lat="45.3988997" lon="14.1303515"><ele>772.0</ele><time>2026-04-25T11:37:46.051Z</time></trkpt><trkpt lat="45.398834" lon="14.1303342"><ele>772.0</ele><time>2026-04-25T11:37:47.041Z</time></trkpt><trkpt lat="45.3987646" lon="14.1303246"><ele>772.0000000000001</ele><time>2026-04-25T11:37:48.046Z</time></trkpt><trkpt lat="45.3986961" lon="14.1303115"><ele>772.0</ele><time>2026-04-25T11:37:49.057Z</time></trkpt><trkpt lat="45.3986275" lon="14.1303035"><ele>772.6666666666666</ele><time>2026-04-25T11:37:50.049Z</time></trkpt><trkpt lat="45.3985585" lon="14.1302964"><ele>773.3333333333333</ele><time>2026-04-25T11:37:51.05Z</time></trkpt><trkpt lat="45.3984914" lon="14.1302858"><ele>774.0</ele><time>2026-04-25T11:37:52.047Z</time></trkpt><trkpt lat="45.3983786" lon="14.1302384"><ele>774.6666666666667</ele><time>2026-04-25T11:37:54.052Z</time></trkpt><trkpt lat="45.3983164" lon="14.1301925"><ele>775.3333333333334</ele><time>2026-04-25T11:37:55.045Z</time></trkpt><trkpt lat="45.3982606" lon="14.130143"><ele>776.0</ele><time>2026-04-25T11:37:56.051Z</time></trkpt><trkpt lat="45.3981717" lon="14.1300397"><ele>773.5000000000001</ele><time>2026-04-25T11:37:58.044Z</time></trkpt><trkpt lat="45.3981245" lon="14.129869"><ele>771.0</ele><time>2026-04-25T11:38:00.042Z</time></trkpt><trkpt lat="45.3981088" lon="14.1297743"><ele>768.5</ele><time>2026-04-25T11:38:01.041Z</time></trkpt><trkpt lat="45.398106" lon="14.1296706"><ele>766.0</ele><time>2026-04-25T11:38:02.039Z</time></trkpt><trkpt lat="45.3981102" lon="14.1295588"><ele>763.5</ele><time>2026-04-25T11:38:03.037Z</time></trkpt><trkpt lat="45.3981148" lon="14.1294528"><ele>761.0</ele><time>2026-04-25T11:38:04.04Z</time></trkpt><trkpt lat="45.3981182" lon="14.1293521"><ele>761.0</ele><time>2026-04-25T11:38:05.045Z</time></trkpt><trkpt lat="45.3981205" lon="14.1292587"><ele>761.0</ele><time>2026-04-25T11:38:06.046Z</time></trkpt><trkpt lat="45.39811" lon="14.1290977"><ele>761.0</ele><time>2026-04-25T11:38:08.047Z</time></trkpt><trkpt lat="45.3980972" lon="14.1289551"><ele>761.0</ele><time>2026-04-25T11:38:10.043Z</time></trkpt><trkpt lat="45.3981415" lon="14.128875"><ele>761.0</ele><time>2026-04-25T11:38:12.042Z</time></trkpt><trkpt lat="45.3982103" lon="14.128906"><ele>761.0</ele><time>2026-04-25T11:38:14.042Z</time></trkpt><trkpt lat="45.3982893" lon="14.1290029"><ele>761.0</ele><time>2026-04-25T11:38:16.042Z</time></trkpt><trkpt lat="45.3983404" lon="14.1290665"><ele>761.0</ele><time>2026-04-25T11:38:17.044Z</time></trkpt><trkpt lat="45.3984351" lon="14.129178"><ele>761.0</ele><time>2026-04-25T11:38:19.042Z</time></trkpt><trkpt lat="45.3984893" lon="14.1292272"><ele>761.0</ele><time>2026-04-25T11:38:20.047Z</time></trkpt><trkpt lat="45.3985426" lon="14.1292839"><ele>761.0</ele><time>2026-04-25T11:38:21.042Z</time></trkpt><trkpt lat="45.3985994" lon="14.1293481"><ele>761.0</ele><time>2026-04-25T11:38:22.045Z</time></trkpt><trkpt lat="45.3986558" lon="14.1294096"><ele>761.0</ele><time>2026-04-25T11:38:23.043Z</time></trkpt><trkpt lat="45.3987229" lon="14.1294591"><ele>761.0</ele><time>2026-04-25T11:38:24.045Z</time></trkpt><trkpt lat="45.3987919" lon="14.1294882"><ele>761.0</ele><time>2026-04-25T11:38:25.042Z</time></trkpt><trkpt lat="45.3988552" lon="14.1294962"><ele>761.0</ele><time>2026-04-25T11:38:26.042Z</time></trkpt><trkpt lat="45.3989853" lon="14.1294998"><ele>761.0</ele><time>2026-04-25T11:38:28.047Z</time></trkpt><trkpt lat="45.399056" lon="14.1294959"><ele>761.0</ele><time>2026-04-25T11:38:29.039Z</time></trkpt><trkpt lat="45.3991386" lon="14.1294708"><ele>758.6666666666666</ele><time>2026-04-25T11:38:30.048Z</time></trkpt><trkpt lat="45.3992238" lon="14.1294372"><ele>756.3333333333333</ele><time>2026-04-25T11:38:31.04Z</time></trkpt><trkpt lat="45.3992988" lon="14.1293981"><ele>754.0</ele><time>2026-04-25T11:38:32.043Z</time></trkpt><trkpt lat="45.3993781" lon="14.12935"><ele>751.6666666666666</ele><time>2026-04-25T11:38:33.048Z</time></trkpt><trkpt lat="45.3994543" lon="14.1293028"><ele>749.3333333333334</ele><time>2026-04-25T11:38:34.039Z</time></trkpt><trkpt lat="45.3995268" lon="14.1292558"><ele>747.0</ele><time>2026-04-25T11:38:35.04Z</time></trkpt><trkpt lat="45.3996047" lon="14.1292102"><ele>746.6666666666666</ele><time>2026-04-25T11:38:36.054Z</time></trkpt><trkpt lat="45.3996803" lon="14.1291627"><ele>746.3333333333334</ele><time>2026-04-25T11:38:37.039Z</time></trkpt><trkpt lat="45.3997541" lon="14.1291205"><ele>746.0</ele><time>2026-04-25T11:38:38.046Z</time></trkpt><trkpt lat="45.3998233" lon="14.1290783"><ele>745.6666666666667</ele><time>2026-04-25T11:38:39.05Z</time></trkpt><trkpt lat="45.399894" lon="14.1290385"><ele>745.3333333333334</ele><time>2026-04-25T11:38:40.042Z</time></trkpt><trkpt lat="45.3999687" lon="14.1289875"><ele>745.0</ele><time>2026-04-25T11:38:41.042Z</time></trkpt><trkpt lat="45.4000452" lon="14.1289439"><ele>740.3333333333334</ele><time>2026-04-25T11:38:42.033Z</time></trkpt><trkpt lat="45.4001202" lon="14.1288979"><ele>735.6666666666667</ele><time>2026-04-25T11:38:43.049Z</time></trkpt><trkpt lat="45.4001986" lon="14.1288486"><ele>731.0</ele><time>2026-04-25T11:38:44.039Z</time></trkpt><trkpt lat="45.4002733" lon="14.1288011"><ele>726.3333333333334</ele><time>2026-04-25T11:38:45.04Z</time></trkpt><trkpt lat="45.4003388" lon="14.1287463"><ele>721.6666666666666</ele><time>2026-04-25T11:38:46.046Z</time></trkpt><trkpt lat="45.4004013" lon="14.1286955"><ele>717.0</ele><time>2026-04-25T11:38:47.043Z</time></trkpt><trkpt lat="45.400468" lon="14.128652"><ele>717.3333333333334</ele><time>2026-04-25T11:38:48.044Z</time></trkpt><trkpt lat="45.4005369" lon="14.1286106"><ele>717.6666666666666</ele><time>2026-04-25T11:38:49.037Z</time></trkpt><trkpt lat="45.4006019" lon="14.1285712"><ele>718.0</ele><time>2026-04-25T11:38:50.049Z</time></trkpt><trkpt lat="45.4006684" lon="14.1285267"><ele>718.3333333333333</ele><time>2026-04-25T11:38:51.042Z</time></trkpt><trkpt lat="45.4007315" lon="14.1284849"><ele>718.6666666666666</ele><time>2026-04-25T11:38:52.041Z</time></trkpt><trkpt lat="45.4007928" lon="14.128448"><ele>719.0</ele><time>2026-04-25T11:38:53.053Z</time></trkpt><trkpt lat="45.4008975" lon="14.1283913"><ele>719.0</ele><time>2026-04-25T11:38:55.047Z</time></trkpt><trkpt lat="45.4009967" lon="14.1283553"><ele>719.0</ele><time>2026-04-25T11:38:57.049Z</time></trkpt><trkpt lat="45.4011022" lon="14.1283175"><ele>719.0</ele><time>2026-04-25T11:38:59.042Z</time></trkpt><trkpt lat="45.4012151" lon="14.1282612"><ele>719.0</ele><time>2026-04-25T11:39:01.051Z</time></trkpt><trkpt lat="45.4013306" lon="14.1281893"><ele>716.1428571428571</ele><time>2026-04-25T11:39:03.044Z</time></trkpt><trkpt lat="45.4013943" lon="14.1281471"><ele>713.2857142857142</ele><time>2026-04-25T11:39:04.046Z</time></trkpt><trkpt lat="45.4014561" lon="14.128103"><ele>710.4285714285713</ele><time>2026-04-25T11:39:05.04Z</time></trkpt><trkpt lat="45.401517" lon="14.1280583"><ele>707.5714285714286</ele><time>2026-04-25T11:39:06.047Z</time></trkpt><trkpt lat="45.4015764" lon="14.1280224"><ele>704.7142857142858</ele><time>2026-04-25T11:39:07.049Z</time></trkpt><trkpt lat="45.4016396" lon="14.127985"><ele>701.8571428571428</ele><time>2026-04-25T11:39:08.045Z</time></trkpt><trkpt lat="45.4017179" lon="14.1279376"><ele>699.0</ele><time>2026-04-25T11:39:09.045Z</time></trkpt><trkpt lat="45.4017864" lon="14.1278978"><ele>699.0</ele><time>2026-04-25T11:39:10.042Z</time></trkpt><trkpt lat="45.4018521" lon="14.1278592"><ele>699.0</ele><time>2026-04-25T11:39:11.048Z</time></trkpt><trkpt lat="45.401917" lon="14.1278247"><ele>699.0</ele><time>2026-04-25T11:39:12.044Z</time></trkpt><trkpt lat="45.4019845" lon="14.1277802"><ele>699.0</ele><time>2026-04-25T11:39:13.037Z</time></trkpt><trkpt lat="45.4020521" lon="14.1277427"><ele>699.0</ele><time>2026-04-25T11:39:14.043Z</time></trkpt><trkpt lat="45.4021231" lon="14.1277171"><ele>699.0</ele><time>2026-04-25T11:39:15.037Z</time></trkpt><trkpt lat="45.4022016" lon="14.1276873"><ele>699.0</ele><time>2026-04-25T11:39:16.04Z</time></trkpt><trkpt lat="45.4022805" lon="14.1276587"><ele>699.5</ele><time>2026-04-25T11:39:17.038Z</time></trkpt><trkpt lat="45.4023637" lon="14.1276239"><ele>700.0</ele><time>2026-04-25T11:39:18.041Z</time></trkpt><trkpt lat="45.40244" lon="14.1275999"><ele>700.5</ele><time>2026-04-25T11:39:19.044Z</time></trkpt><trkpt lat="45.4025196" lon="14.1275732"><ele>701.0</ele><time>2026-04-25T11:39:20.041Z</time></trkpt><trkpt lat="45.4025964" lon="14.1275503"><ele>701.5</ele><time>2026-04-25T11:39:21.049Z</time></trkpt><trkpt lat="45.4026721" lon="14.1275361"><ele>702.0</ele><time>2026-04-25T11:39:22.046Z</time></trkpt><trkpt lat="45.4027424" lon="14.1275204"><ele>702.0</ele><time>2026-04-25T11:39:23.031Z</time></trkpt><trkpt lat="45.4028136" lon="14.1274822"><ele>702.0</ele><time>2026-04-25T11:39:24.057Z</time></trkpt><trkpt lat="45.4028772" lon="14.1274317"><ele>702.0</ele><time>2026-04-25T11:39:25.05Z</time></trkpt><trkpt lat="45.4029462" lon="14.1273721"><ele>702.0</ele><time>2026-04-25T11:39:26.042Z</time></trkpt><trkpt lat="45.4030156" lon="14.1273225"><ele>702.0</ele><time>2026-04-25T11:39:27.044Z</time></trkpt><trkpt lat="45.4030844" lon="14.1272746"><ele>702.0</ele><time>2026-04-25T11:39:28.051Z</time></trkpt><trkpt lat="45.4031536" lon="14.1272186"><ele>699.3333333333334</ele><time>2026-04-25T11:39:29.043Z</time></trkpt><trkpt lat="45.4032179" lon="14.1271593"><ele>696.6666666666666</ele><time>2026-04-25T11:39:30.044Z</time></trkpt><trkpt lat="45.4032862" lon="14.1270995"><ele>694.0</ele><time>2026-04-25T11:39:31.043Z</time></trkpt><trkpt lat="45.4033586" lon="14.1270426"><ele>691.3333333333333</ele><time>2026-04-25T11:39:32.045Z</time></trkpt><trkpt lat="45.4034308" lon="14.1269868"><ele>688.6666666666666</ele><time>2026-04-25T11:39:33.041Z</time></trkpt><trkpt lat="45.4035021" lon="14.1269272"><ele>686.0</ele><time>2026-04-25T11:39:34.047Z</time></trkpt><trkpt lat="45.4035732" lon="14.1268642"><ele>686.0</ele><time>2026-04-25T11:39:35.044Z</time></trkpt><trkpt lat="45.4036408" lon="14.1268053"><ele>686.0</ele><time>2026-04-25T11:39:36.042Z</time></trkpt><trkpt lat="45.4037051" lon="14.1267493"><ele>686.0</ele><time>2026-04-25T11:39:37.048Z</time></trkpt><trkpt lat="45.4037666" lon="14.1266931"><ele>686.0</ele><time>2026-04-25T11:39:38.049Z</time></trkpt><trkpt lat="45.4038212" lon="14.1266453"><ele>686.0</ele><time>2026-04-25T11:39:39.05Z</time></trkpt><trkpt lat="45.4038766" lon="14.1265937"><ele>686.0</ele><time>2026-04-25T11:39:40.045Z</time></trkpt><trkpt lat="45.4039372" lon="14.1265481"><ele>686.0</ele><time>2026-04-25T11:39:41.045Z</time></trkpt><trkpt lat="45.4040046" lon="14.1265096"><ele>683.8571428571429</ele><time>2026-04-25T11:39:42.049Z</time></trkpt><trkpt lat="45.4040699" lon="14.1264736"><ele>681.7142857142858</ele><time>2026-04-25T11:39:43.043Z</time></trkpt><trkpt lat="45.4041355" lon="14.1264341"><ele>679.5714285714286</ele><time>2026-04-25T11:39:44.044Z</time></trkpt><trkpt lat="45.4041972" lon="14.1263756"><ele>677.4285714285714</ele><time>2026-04-25T11:39:45.039Z</time></trkpt><trkpt lat="45.4042498" lon="14.1263141"><ele>675.2857142857143</ele><time>2026-04-25T11:39:46.047Z</time></trkpt><trkpt lat="45.4042997" lon="14.1262561"><ele>673.1428571428571</ele><time>2026-04-25T11:39:47.042Z</time></trkpt><trkpt lat="45.4043548" lon="14.1261992"><ele>671.0</ele><time>2026-04-25T11:39:48.046Z</time></trkpt><trkpt lat="45.4044122" lon="14.1261388"><ele>671.0</ele><time>2026-04-25T11:39:49.04Z</time></trkpt><trkpt lat="45.4044713" lon="14.1260779"><ele>671.0</ele><time>2026-04-25T11:39:50.047Z</time></trkpt><trkpt lat="45.4045286" lon="14.1260109"><ele>671.0</ele><time>2026-04-25T11:39:51.044Z</time></trkpt><trkpt lat="45.4045758" lon="14.1259454"><ele>671.0</ele><time>2026-04-25T11:39:52.042Z</time></trkpt><trkpt lat="45.404647" lon="14.1258183"><ele>671.0</ele><time>2026-04-25T11:39:54.042Z</time></trkpt><trkpt lat="45.4047175" lon="14.1257019"><ele>671.0</ele><time>2026-04-25T11:39:56.045Z</time></trkpt><trkpt lat="45.4048084" lon="14.1256226"><ele>667.8</ele><time>2026-04-25T11:39:58.066Z</time></trkpt><trkpt lat="45.404905" lon="14.1255535"><ele>664.5999999999999</ele><time>2026-04-25T11:40:00.043Z</time></trkpt><trkpt lat="45.4050073" lon="14.1254781"><ele>661.4</ele><time>2026-04-25T11:40:02.048Z</time></trkpt><trkpt lat="45.4051232" lon="14.125417"><ele>658.2</ele><time>2026-04-25T11:40:04.049Z</time></trkpt><trkpt lat="45.4051902" lon="14.1253907"><ele>655.0</ele><time>2026-04-25T11:40:05.052Z</time></trkpt><trkpt lat="45.4052657" lon="14.125351"><ele>655.0</ele><time>2026-04-25T11:40:06.044Z</time></trkpt><trkpt lat="45.4053368" lon="14.1253119"><ele>655.0</ele><time>2026-04-25T11:40:07.049Z</time></trkpt><trkpt lat="45.4054083" lon="14.1252738"><ele>655.0</ele><time>2026-04-25T11:40:08.048Z</time></trkpt><trkpt lat="45.4054743" lon="14.1252451"><ele>655.0</ele><time>2026-04-25T11:40:09.045Z</time></trkpt><trkpt lat="45.4055383" lon="14.1252138"><ele>655.0</ele><time>2026-04-25T11:40:10.062Z</time></trkpt><trkpt lat="45.4056024" lon="14.1251811"><ele>655.0</ele><time>2026-04-25T11:40:11.052Z</time></trkpt><trkpt lat="45.4056614" lon="14.1251468"><ele>655.0</ele><time>2026-04-25T11:40:12.039Z</time></trkpt><trkpt lat="45.405719" lon="14.1251065"><ele>657.2</ele><time>2026-04-25T11:40:13.044Z</time></trkpt><trkpt lat="45.4058261" lon="14.1249946"><ele>659.4</ele><time>2026-04-25T11:40:15.041Z</time></trkpt><trkpt lat="45.40588" lon="14.1249308"><ele>661.5999999999999</ele><time>2026-04-25T11:40:16.042Z</time></trkpt><trkpt lat="45.4059731" lon="14.1248156"><ele>663.8</ele><time>2026-04-25T11:40:18.038Z</time></trkpt><trkpt lat="45.4060633" lon="14.1247125"><ele>666.0</ele><time>2026-04-25T11:40:20.051Z</time></trkpt><trkpt lat="45.4061581" lon="14.1246339"><ele>662.1999999999999</ele><time>2026-04-25T11:40:22.05Z</time></trkpt><trkpt lat="45.4062563" lon="14.1245848"><ele>658.4</ele><time>2026-04-25T11:40:24.053Z</time></trkpt><trkpt lat="45.4063604" lon="14.1245383"><ele>654.6</ele><time>2026-04-25T11:40:26.049Z</time></trkpt><trkpt lat="45.4064673" lon="14.1245093"><ele>650.8</ele><time>2026-04-25T11:40:28.048Z</time></trkpt><trkpt lat="45.4065759" lon="14.1244916"><ele>647.0</ele><time>2026-04-25T11:40:30.043Z</time></trkpt><trkpt lat="45.4066803" lon="14.1244589"><ele>647.0</ele><time>2026-04-25T11:40:32.05Z</time></trkpt><trkpt lat="45.4067964" lon="14.1244155"><ele>647.0</ele><time>2026-04-25T11:40:34.048Z</time></trkpt><trkpt lat="45.4068595" lon="14.1243881"><ele>647.0</ele><time>2026-04-25T11:40:35.052Z</time></trkpt><trkpt lat="45.4069302" lon="14.1243525"><ele>647.0</ele><time>2026-04-25T11:40:36.04Z</time></trkpt><trkpt lat="45.4069972" lon="14.1243181"><ele>647.0</ele><time>2026-04-25T11:40:37.043Z</time></trkpt><trkpt lat="45.4070584" lon="14.1242778"><ele>647.0</ele><time>2026-04-25T11:40:38.045Z</time></trkpt><trkpt lat="45.4071149" lon="14.1242352"><ele>648.0</ele><time>2026-04-25T11:40:39.041Z</time></trkpt><trkpt lat="45.4071695" lon="14.1241905"><ele>649.0</ele><time>2026-04-25T11:40:40.04Z</time></trkpt><trkpt lat="45.4072299" lon="14.124137"><ele>650.0</ele><time>2026-04-25T11:40:41.04Z</time></trkpt><trkpt lat="45.4073217" lon="14.1240289"><ele>651.0</ele><time>2026-04-25T11:40:43.045Z</time></trkpt><trkpt lat="45.4073712" lon="14.123958"><ele>652.0</ele><time>2026-04-25T11:40:44.042Z</time></trkpt><trkpt lat="45.4074197" lon="14.1238988"><ele>653.0</ele><time>2026-04-25T11:40:45.044Z</time></trkpt><trkpt lat="45.4075166" lon="14.1238173"><ele>649.1999999999999</ele><time>2026-04-25T11:40:47.041Z</time></trkpt><trkpt lat="45.4076149" lon="14.1237512"><ele>645.4</ele><time>2026-04-25T11:40:49.039Z</time></trkpt><trkpt lat="45.4077071" lon="14.1236627"><ele>641.5999999999999</ele><time>2026-04-25T11:40:51.047Z</time></trkpt><trkpt lat="45.4077754" lon="14.1235344"><ele>637.8</ele><time>2026-04-25T11:40:53.041Z</time></trkpt><trkpt lat="45.4077531" lon="14.1234211"><ele>634.0</ele><time>2026-04-25T11:40:55.039Z</time></trkpt><trkpt lat="45.4076843" lon="14.1233944"><ele>634.0</ele><time>2026-04-25T11:40:57.035Z</time></trkpt><trkpt lat="45.4075689" lon="14.1233987"><ele>634.0</ele><time>2026-04-25T11:40:59.033Z</time></trkpt><trkpt lat="45.4075027" lon="14.1233966"><ele>634.0</ele><time>2026-04-25T11:41:00.047Z</time></trkpt><trkpt lat="45.4073924" lon="14.1233795"><ele>634.0</ele><time>2026-04-25T11:41:02.038Z</time></trkpt><trkpt lat="45.4073315" lon="14.1233403"><ele>634.0</ele><time>2026-04-25T11:41:04.045Z</time></trkpt><trkpt lat="45.4072664" lon="14.1232802"><ele>634.0</ele><time>2026-04-25T11:41:12.046Z</time></trkpt><trkpt lat="45.4073138" lon="14.1231865"><ele>629.6</ele><time>2026-04-25T11:41:16.036Z</time></trkpt><trkpt lat="45.4073855" lon="14.1231331"><ele>625.2</ele><time>2026-04-25T11:41:18.04Z</time></trkpt><trkpt lat="45.4074904" lon="14.1230416"><ele>620.8000000000001</ele><time>2026-04-25T11:41:20.044Z</time></trkpt><trkpt lat="45.4075526" lon="14.1229956"><ele>616.4</ele><time>2026-04-25T11:41:21.045Z</time></trkpt><trkpt lat="45.407615" lon="14.1229492"><ele>612.0</ele><time>2026-04-25T11:41:22.048Z</time></trkpt><trkpt lat="45.4077367" lon="14.1228874"><ele>612.0</ele><time>2026-04-25T11:41:24.038Z</time></trkpt><trkpt lat="45.407807" lon="14.1228518"><ele>612.0</ele><time>2026-04-25T11:41:25.039Z</time></trkpt><trkpt lat="45.4079214" lon="14.1227904"><ele>612.0</ele><time>2026-04-25T11:41:27.044Z</time></trkpt><trkpt lat="45.4079669" lon="14.1227055"><ele>612.0</ele><time>2026-04-25T11:41:28.044Z</time></trkpt><trkpt lat="45.4080096" lon="14.1225956"><ele>612.0</ele><time>2026-04-25T11:41:29.036Z</time></trkpt><trkpt lat="45.4080436" lon="14.122492"><ele>612.0</ele><time>2026-04-25T11:41:30.045Z</time></trkpt><trkpt lat="45.4080794" lon="14.1223815"><ele>611.8571428571429</ele><time>2026-04-25T11:41:31.05Z</time></trkpt><trkpt lat="45.4081067" lon="14.1222757"><ele>611.7142857142858</ele><time>2026-04-25T11:41:32.038Z</time></trkpt><trkpt lat="45.4081305" lon="14.12217"><ele>611.5714285714287</ele><time>2026-04-25T11:41:33.043Z</time></trkpt><trkpt lat="45.4081534" lon="14.1220766"><ele>611.4285714285714</ele><time>2026-04-25T11:41:34.045Z</time></trkpt><trkpt lat="45.4081808" lon="14.1219868"><ele>611.2857142857143</ele><time>2026-04-25T11:41:35.044Z</time></trkpt><trkpt lat="45.4082134" lon="14.1219017"><ele>611.1428571428572</ele><time>2026-04-25T11:41:36.053Z</time></trkpt><trkpt lat="45.4082414" lon="14.1218194"><ele>611.0</ele><time>2026-04-25T11:41:37.049Z</time></trkpt><trkpt lat="45.4082717" lon="14.1217352"><ele>611.0</ele><time>2026-04-25T11:41:38.046Z</time></trkpt><trkpt lat="45.4083" lon="14.1216508"><ele>611.0</ele><time>2026-04-25T11:41:39.043Z</time></trkpt><trkpt lat="45.408331" lon="14.1215625"><ele>611.0</ele><time>2026-04-25T11:41:40.048Z</time></trkpt><trkpt lat="45.4083641" lon="14.1214753"><ele>611.0</ele><time>2026-04-25T11:41:41.045Z</time></trkpt><trkpt lat="45.4083945" lon="14.1213899"><ele>611.0</ele><time>2026-04-25T11:41:42.048Z</time></trkpt><trkpt lat="45.4084455" lon="14.1212235"><ele>611.0</ele><time>2026-04-25T11:41:44.046Z</time></trkpt><trkpt lat="45.4084672" lon="14.1211373"><ele>609.1428571428572</ele><time>2026-04-25T11:41:45.052Z</time></trkpt><trkpt lat="45.4084921" lon="14.1210483"><ele>607.2857142857143</ele><time>2026-04-25T11:41:46.048Z</time></trkpt><trkpt lat="45.4085171" lon="14.1209582"><ele>605.4285714285714</ele><time>2026-04-25T11:41:47.048Z</time></trkpt><trkpt lat="45.4085286" lon="14.1208654"><ele>603.5714285714287</ele><time>2026-04-25T11:41:48.043Z</time></trkpt><trkpt lat="45.4085373" lon="14.1207665"><ele>601.7142857142858</ele><time>2026-04-25T11:41:49.044Z</time></trkpt><trkpt lat="45.4085438" lon="14.1206733"><ele>599.8571428571429</ele><time>2026-04-25T11:41:50.045Z</time></trkpt><trkpt lat="45.4085493" lon="14.1205811"><ele>598.0</ele><time>2026-04-25T11:41:51.044Z</time></trkpt><trkpt lat="45.4085695" lon="14.1204831"><ele>596.8333333333334</ele><time>2026-04-25T11:41:52.051Z</time></trkpt><trkpt lat="45.4085966" lon="14.1203744"><ele>595.6666666666667</ele><time>2026-04-25T11:41:53.042Z</time></trkpt><trkpt lat="45.408621" lon="14.1202873"><ele>594.5</ele><time>2026-04-25T11:41:54.045Z</time></trkpt><trkpt lat="45.408663" lon="14.1201703"><ele>593.3333333333334</ele><time>2026-04-25T11:41:56.04Z</time></trkpt><trkpt lat="45.4086958" lon="14.1200534"><ele>592.1666666666666</ele><time>2026-04-25T11:41:58.043Z</time></trkpt><trkpt lat="45.4087269" lon="14.119927"><ele>591.0</ele><time>2026-04-25T11:42:00.046Z</time></trkpt><trkpt lat="45.4087474" lon="14.1197986"><ele>591.2</ele><time>2026-04-25T11:42:02.052Z</time></trkpt><trkpt lat="45.4087622" lon="14.119657"><ele>591.4000000000001</ele><time>2026-04-25T11:42:04.046Z</time></trkpt><trkpt lat="45.4087904" lon="14.1195436"><ele>591.6</ele><time>2026-04-25T11:42:06.049Z</time></trkpt><trkpt lat="45.4088213" lon="14.1194401"><ele>591.8000000000001</ele><time>2026-04-25T11:42:08.04Z</time></trkpt><trkpt lat="45.4088692" lon="14.1193067"><ele>592.0</ele><time>2026-04-25T11:42:10.046Z</time></trkpt><trkpt lat="45.4089104" lon="14.1191622"><ele>590.0</ele><time>2026-04-25T11:42:12.045Z</time></trkpt><trkpt lat="45.4089135" lon="14.1190126"><ele>588.0</ele><time>2026-04-25T11:42:14.048Z</time></trkpt><trkpt lat="45.4089135" lon="14.1189115"><ele>586.0</ele><time>2026-04-25T11:42:16.049Z</time></trkpt><trkpt lat="45.4089259" lon="14.1188105"><ele>584.0</ele><time>2026-04-25T11:42:27.041Z</time></trkpt><trkpt lat="45.4089622" lon="14.118714"><ele>582.0</ele><time>2026-04-25T11:42:30.046Z</time></trkpt><trkpt lat="45.408994" lon="14.1186019"><ele>580.0</ele><time>2026-04-25T11:42:34.04Z</time></trkpt><trkpt lat="45.4089557" lon="14.1185225"><ele>580.0</ele><time>2026-04-25T11:42:37.04Z</time></trkpt><trkpt lat="45.408893" lon="14.1185008"><ele>580.0</ele><time>2026-04-25T11:42:40.04Z</time></trkpt><trkpt lat="45.4088302" lon="14.1184889"><ele>580.0</ele><time>2026-04-25T11:42:43.043Z</time></trkpt><trkpt lat="45.4087445" lon="14.1185039"><ele>580.0</ele><time>2026-04-25T11:42:48.038Z</time></trkpt><trkpt lat="45.4086669" lon="14.1185155"><ele>580.0</ele><time>2026-04-25T11:42:51.043Z</time></trkpt><trkpt lat="45.408602" lon="14.1184319"><ele>580.0</ele><time>2026-04-25T11:42:55.038Z</time></trkpt><trkpt lat="45.4085213" lon="14.1184219"><ele>577.6</ele><time>2026-04-25T11:42:57.037Z</time></trkpt><trkpt lat="45.4083905" lon="14.1184629"><ele>575.2</ele><time>2026-04-25T11:42:59.041Z</time></trkpt><trkpt lat="45.4083088" lon="14.1184826"><ele>572.8</ele><time>2026-04-25T11:43:00.048Z</time></trkpt><trkpt lat="45.4082219" lon="14.1184897"><ele>570.4</ele><time>2026-04-25T11:43:01.038Z</time></trkpt><trkpt lat="45.4081329" lon="14.1184744"><ele>568.0</ele><time>2026-04-25T11:43:02.043Z</time></trkpt><trkpt lat="45.4080448" lon="14.1184444"><ele>567.3333333333334</ele><time>2026-04-25T11:43:03.044Z</time></trkpt><trkpt lat="45.4079531" lon="14.1184174"><ele>566.6666666666667</ele><time>2026-04-25T11:43:04.043Z</time></trkpt><trkpt lat="45.4078691" lon="14.1183953"><ele>566.0</ele><time>2026-04-25T11:43:05.05Z</time></trkpt><trkpt lat="45.4077871" lon="14.1183727"><ele>565.3333333333334</ele><time>2026-04-25T11:43:06.045Z</time></trkpt><trkpt lat="45.4077115" lon="14.1183505"><ele>564.6666666666666</ele><time>2026-04-25T11:43:07.045Z</time></trkpt><trkpt lat="45.4076429" lon="14.1183344"><ele>564.0</ele><time>2026-04-25T11:43:08.039Z</time></trkpt><trkpt lat="45.4075723" lon="14.118334"><ele>564.0</ele><time>2026-04-25T11:43:09.046Z</time></trkpt><trkpt lat="45.4075016" lon="14.1183565"><ele>564.0</ele><time>2026-04-25T11:43:10.037Z</time></trkpt><trkpt lat="45.4074294" lon="14.1183946"><ele>564.0</ele><time>2026-04-25T11:43:11.05Z</time></trkpt><trkpt lat="45.4073662" lon="14.118474"><ele>564.0</ele><time>2026-04-25T11:43:12.045Z</time></trkpt><trkpt lat="45.4073159" lon="14.1185838"><ele>564.0</ele><time>2026-04-25T11:43:13.049Z</time></trkpt><trkpt lat="45.4072875" lon="14.118733"><ele>564.0</ele><time>2026-04-25T11:43:14.043Z</time></trkpt><trkpt lat="45.4072741" lon="14.1188911"><ele>564.0</ele><time>2026-04-25T11:43:15.044Z</time></trkpt><trkpt lat="45.4072623" lon="14.1190494"><ele>564.0</ele><time>2026-04-25T11:43:16.052Z</time></trkpt><trkpt lat="45.407227" lon="14.1191961"><ele>564.0</ele><time>2026-04-25T11:43:17.044Z</time></trkpt><trkpt lat="45.4071712" lon="14.1193365"><ele>564.0</ele><time>2026-04-25T11:43:18.052Z</time></trkpt><trkpt lat="45.4070921" lon="14.1194437"><ele>564.0</ele><time>2026-04-25T11:43:19.045Z</time></trkpt><trkpt lat="45.4070042" lon="14.1195079"><ele>562.4</ele><time>2026-04-25T11:43:20.043Z</time></trkpt><trkpt lat="45.4069145" lon="14.1195498"><ele>560.8</ele><time>2026-04-25T11:43:21.04Z</time></trkpt><trkpt lat="45.4068221" lon="14.1195547"><ele>559.2</ele><time>2026-04-25T11:43:22.047Z</time></trkpt><trkpt lat="45.4067237" lon="14.1195249"><ele>557.6</ele><time>2026-04-25T11:43:23.045Z</time></trkpt><trkpt lat="45.4066246" lon="14.1194492"><ele>556.0</ele><time>2026-04-25T11:43:24.038Z</time></trkpt><trkpt lat="45.406535" lon="14.1193666"><ele>556.0</ele><time>2026-04-25T11:43:25.039Z</time></trkpt><trkpt lat="45.4064741" lon="14.1193073"><ele>556.0</ele><time>2026-04-25T11:43:26.041Z</time></trkpt><trkpt lat="45.4064137" lon="14.1192297"><ele>556.0</ele><time>2026-04-25T11:43:29.053Z</time></trkpt><trkpt lat="45.4063573" lon="14.1191511"><ele>556.0</ele><time>2026-04-25T11:43:34.049Z</time></trkpt><trkpt lat="45.4063082" lon="14.1190882"><ele>556.0</ele><time>2026-04-25T11:43:37.055Z</time></trkpt><trkpt lat="45.4062421" lon="14.1189929"><ele>556.0</ele><time>2026-04-25T11:43:39.048Z</time></trkpt><trkpt lat="45.4061929" lon="14.1189288"><ele>553.6</ele><time>2026-04-25T11:43:40.056Z</time></trkpt><trkpt lat="45.4061255" lon="14.1188609"><ele>551.2</ele><time>2026-04-25T11:43:41.053Z</time></trkpt><trkpt lat="45.4060425" lon="14.1187909"><ele>548.8</ele><time>2026-04-25T11:43:42.047Z</time></trkpt><trkpt lat="45.4059534" lon="14.1187321"><ele>546.4</ele><time>2026-04-25T11:43:43.045Z</time></trkpt><trkpt lat="45.4058607" lon="14.1186799"><ele>544.0</ele><time>2026-04-25T11:43:44.047Z</time></trkpt><trkpt lat="45.4057609" lon="14.1186481"><ele>544.0</ele><time>2026-04-25T11:43:45.047Z</time></trkpt><trkpt lat="45.4056553" lon="14.1186514"><ele>544.0</ele><time>2026-04-25T11:43:46.05Z</time></trkpt><trkpt lat="45.4055463" lon="14.1186734"><ele>544.0</ele><time>2026-04-25T11:43:47.044Z</time></trkpt><trkpt lat="45.4054353" lon="14.1187085"><ele>544.0</ele><time>2026-04-25T11:43:48.053Z</time></trkpt><trkpt lat="45.4053344" lon="14.1187605"><ele>544.0</ele><time>2026-04-25T11:43:49.047Z</time></trkpt><trkpt lat="45.4052531" lon="14.118823"><ele>544.6666666666667</ele><time>2026-04-25T11:43:50.059Z</time></trkpt><trkpt lat="45.4051813" lon="14.1188989"><ele>545.3333333333334</ele><time>2026-04-25T11:43:51.048Z</time></trkpt><trkpt lat="45.4051303" lon="14.1189732"><ele>546.0</ele><time>2026-04-25T11:43:52.047Z</time></trkpt><trkpt lat="45.4050763" lon="14.1190457"><ele>546.6666666666666</ele><time>2026-04-25T11:43:54.051Z</time></trkpt><trkpt lat="45.4050033" lon="14.1191196"><ele>547.3333333333333</ele><time>2026-04-25T11:43:56.045Z</time></trkpt><trkpt lat="45.4049467" lon="14.1192031"><ele>548.0</ele><time>2026-04-25T11:43:57.041Z</time></trkpt><trkpt lat="45.4048889" lon="14.1192939"><ele>548.0</ele><time>2026-04-25T11:43:58.049Z</time></trkpt><trkpt lat="45.4048318" lon="14.1193734"><ele>548.0</ele><time>2026-04-25T11:43:59.043Z</time></trkpt><trkpt lat="45.404776" lon="14.1194679"><ele>548.0</ele><time>2026-04-25T11:44:00.059Z</time></trkpt><trkpt lat="45.4047229" lon="14.1195862"><ele>548.0</ele><time>2026-04-25T11:44:01.05Z</time></trkpt><trkpt lat="45.4046704" lon="14.1197254"><ele>548.0</ele><time>2026-04-25T11:44:02.041Z</time></trkpt><trkpt lat="45.404633" lon="14.1198705"><ele>545.4</ele><time>2026-04-25T11:44:03.05Z</time></trkpt><trkpt lat="45.4046175" lon="14.1200185"><ele>542.8</ele><time>2026-04-25T11:44:04.044Z</time></trkpt><trkpt lat="45.4046032" lon="14.1201672"><ele>540.2</ele><time>2026-04-25T11:44:05.057Z</time></trkpt><trkpt lat="45.4045857" lon="14.1203252"><ele>537.6</ele><time>2026-04-25T11:44:06.048Z</time></trkpt><trkpt lat="45.4045616" lon="14.1204868"><ele>535.0</ele><time>2026-04-25T11:44:07.045Z</time></trkpt><trkpt lat="45.4045122" lon="14.1206427"><ele>537.5</ele><time>2026-04-25T11:44:08.049Z</time></trkpt><trkpt lat="45.4044441" lon="14.1207956"><ele>540.0</ele><time>2026-04-25T11:44:09.04Z</time></trkpt><trkpt lat="45.4043642" lon="14.1209419"><ele>542.5</ele><time>2026-04-25T11:44:10.05Z</time></trkpt><trkpt lat="45.40429" lon="14.12108"><ele>545.0</ele><time>2026-04-25T11:44:11.04Z</time></trkpt><trkpt lat="45.4042347" lon="14.1212257"><ele>545.0</ele><time>2026-04-25T11:44:12.047Z</time></trkpt><trkpt lat="45.4041982" lon="14.1213819"><ele>545.0</ele><time>2026-04-25T11:44:13.053Z</time></trkpt><trkpt lat="45.4041821" lon="14.121556"><ele>545.0</ele><time>2026-04-25T11:44:14.037Z</time></trkpt><trkpt lat="45.4041806" lon="14.1217463"><ele>545.0</ele><time>2026-04-25T11:44:15.036Z</time></trkpt><trkpt lat="45.4041747" lon="14.1219352"><ele>547.0</ele><time>2026-04-25T11:44:16.041Z</time></trkpt><trkpt lat="45.4041731" lon="14.1221081"><ele>549.0</ele><time>2026-04-25T11:44:17.036Z</time></trkpt><trkpt lat="45.4041607" lon="14.122266"><ele>551.0</ele><time>2026-04-25T11:44:18.043Z</time></trkpt><trkpt lat="45.4041339" lon="14.1224212"><ele>553.0</ele><time>2026-04-25T11:44:19.041Z</time></trkpt><trkpt lat="45.4040789" lon="14.1225621"><ele>554.75</ele><time>2026-04-25T11:44:20.038Z</time></trkpt><trkpt lat="45.4040001" lon="14.122698"><ele>556.5</ele><time>2026-04-25T11:44:21.037Z</time></trkpt><trkpt lat="45.4038904" lon="14.1228113"><ele>558.25</ele><time>2026-04-25T11:44:22.044Z</time></trkpt><trkpt lat="45.4037572" lon="14.1228929"><ele>560.0</ele><time>2026-04-25T11:44:23.036Z</time></trkpt><trkpt lat="45.403623" lon="14.1229722"><ele>561.0</ele><time>2026-04-25T11:44:24.044Z</time></trkpt><trkpt lat="45.4034856" lon="14.123053"><ele>562.0</ele><time>2026-04-25T11:44:25.048Z</time></trkpt><trkpt lat="45.40335" lon="14.1231301"><ele>563.0</ele><time>2026-04-25T11:44:26.045Z</time></trkpt><trkpt lat="45.403225" lon="14.1232031"><ele>564.0</ele><time>2026-04-25T11:44:27.049Z</time></trkpt><trkpt lat="45.4031031" lon="14.1232698"><ele>561.25</ele><time>2026-04-25T11:44:28.056Z</time></trkpt><trkpt lat="45.4029917" lon="14.1233343"><ele>558.5</ele><time>2026-04-25T11:44:29.044Z</time></trkpt><trkpt lat="45.4028839" lon="14.1234042"><ele>555.75</ele><time>2026-04-25T11:44:30.052Z</time></trkpt><trkpt lat="45.4027739" lon="14.1234692"><ele>553.0</ele><time>2026-04-25T11:44:31.045Z</time></trkpt><trkpt lat="45.4026598" lon="14.1235374"><ele>553.0</ele><time>2026-04-25T11:44:32.048Z</time></trkpt><trkpt lat="45.4025448" lon="14.1235937"><ele>553.0</ele><time>2026-04-25T11:44:33.041Z</time></trkpt><trkpt lat="45.4024254" lon="14.1236498"><ele>553.0</ele><time>2026-04-25T11:44:34.045Z</time></trkpt><trkpt lat="45.4023095" lon="14.1237094"><ele>553.0</ele><time>2026-04-25T11:44:35.048Z</time></trkpt><trkpt lat="45.4022146" lon="14.1237705"><ele>552.75</ele><time>2026-04-25T11:44:36.047Z</time></trkpt><trkpt lat="45.4021125" lon="14.1237834"><ele>552.5</ele><time>2026-04-25T11:44:37.045Z</time></trkpt><trkpt lat="45.402007" lon="14.1237658"><ele>552.25</ele><time>2026-04-25T11:44:38.044Z</time></trkpt><trkpt lat="45.4018848" lon="14.1237273"><ele>552.0</ele><time>2026-04-25T11:44:39.043Z</time></trkpt><trkpt lat="45.4017661" lon="14.1236987"><ele>552.0</ele><time>2026-04-25T11:44:40.038Z</time></trkpt><trkpt lat="45.4016536" lon="14.1236985"><ele>552.0</ele><time>2026-04-25T11:44:41.06Z</time></trkpt><trkpt lat="45.401538" lon="14.1237127"><ele>552.0</ele><time>2026-04-25T11:44:42.036Z</time></trkpt><trkpt lat="45.4014214" lon="14.1237327"><ele>552.0</ele><time>2026-04-25T11:44:43.043Z</time></trkpt><trkpt lat="45.4013069" lon="14.1237002"><ele>553.5</ele><time>2026-04-25T11:44:44.04Z</time></trkpt><trkpt lat="45.4012056" lon="14.123616"><ele>555.0</ele><time>2026-04-25T11:44:45.038Z</time></trkpt><trkpt lat="45.4011297" lon="14.1234982"><ele>556.5</ele><time>2026-04-25T11:44:46.036Z</time></trkpt><trkpt lat="45.4010648" lon="14.1233421"><ele>558.0</ele><time>2026-04-25T11:44:47.035Z</time></trkpt><trkpt lat="45.4010217" lon="14.1231783"><ele>558.0</ele><time>2026-04-25T11:44:48.032Z</time></trkpt><trkpt lat="45.4009849" lon="14.1230097"><ele>558.0</ele><time>2026-04-25T11:44:49.029Z</time></trkpt><trkpt lat="45.4009483" lon="14.1228557"><ele>558.0</ele><time>2026-04-25T11:44:50.046Z</time></trkpt><trkpt lat="45.4008899" lon="14.1227263"><ele>558.0</ele><time>2026-04-25T11:44:51.033Z</time></trkpt><trkpt lat="45.4008108" lon="14.1226166"><ele>558.0</ele><time>2026-04-25T11:44:52.035Z</time></trkpt><trkpt lat="45.4007079" lon="14.1225345"><ele>558.0</ele><time>2026-04-25T11:44:53.037Z</time></trkpt><trkpt lat="45.4005969" lon="14.1224557"><ele>558.0</ele><time>2026-04-25T11:44:54.04Z</time></trkpt><trkpt lat="45.4004835" lon="14.1223714"><ele>558.0</ele><time>2026-04-25T11:44:55.041Z</time></trkpt><trkpt lat="45.4003721" lon="14.122284"><ele>558.75</ele><time>2026-04-25T11:44:56.044Z</time></trkpt><trkpt lat="45.400258" lon="14.1221932"><ele>559.5</ele><time>2026-04-25T11:44:57.042Z</time></trkpt><trkpt lat="45.4001389" lon="14.1221033"><ele>560.25</ele><time>2026-04-25T11:44:58.035Z</time></trkpt><trkpt lat="45.4000166" lon="14.1220082"><ele>561.0</ele><time>2026-04-25T11:44:59.039Z</time></trkpt><trkpt lat="45.3998992" lon="14.1218957"><ele>561.0</ele><time>2026-04-25T11:45:00.047Z</time></trkpt><trkpt lat="45.3997979" lon="14.1217624"><ele>561.0</ele><time>2026-04-25T11:45:01.044Z</time></trkpt><trkpt lat="45.3997097" lon="14.1216111"><ele>561.0</ele><time>2026-04-25T11:45:02.043Z</time></trkpt><trkpt lat="45.3996325" lon="14.1214457"><ele>561.0</ele><time>2026-04-25T11:45:03.044Z</time></trkpt><trkpt lat="45.3995621" lon="14.1212895"><ele>561.75</ele><time>2026-04-25T11:45:04.049Z</time></trkpt><trkpt lat="45.3994828" lon="14.1211706"><ele>562.5</ele><time>2026-04-25T11:45:05.045Z</time></trkpt><trkpt lat="45.3993696" lon="14.1211118"><ele>563.25</ele><time>2026-04-25T11:45:06.044Z</time></trkpt><trkpt lat="45.3992428" lon="14.1210841"><ele>564.0</ele><time>2026-04-25T11:45:07.04Z</time></trkpt><trkpt lat="45.3991135" lon="14.1210922"><ele>564.0</ele><time>2026-04-25T11:45:08.04Z</time></trkpt><trkpt lat="45.3989881" lon="14.1211613"><ele>564.0</ele><time>2026-04-25T11:45:09.045Z</time></trkpt><trkpt lat="45.3988619" lon="14.1212417"><ele>564.0</ele><time>2026-04-25T11:45:10.033Z</time></trkpt><trkpt lat="45.3987477" lon="14.1213016"><ele>564.0</ele><time>2026-04-25T11:45:11.048Z</time></trkpt><trkpt lat="45.3986136" lon="14.1213225"><ele>564.0</ele><time>2026-04-25T11:45:12.051Z</time></trkpt><trkpt lat="45.3984864" lon="14.121297"><ele>564.0</ele><time>2026-04-25T11:45:13.039Z</time></trkpt><trkpt lat="45.3983533" lon="14.1212618"><ele>564.0</ele><time>2026-04-25T11:45:14.052Z</time></trkpt><trkpt lat="45.3982139" lon="14.1212257"><ele>564.0</ele><time>2026-04-25T11:45:15.052Z</time></trkpt><trkpt lat="45.3980686" lon="14.1211914"><ele>564.5</ele><time>2026-04-25T11:45:16.047Z</time></trkpt><trkpt lat="45.397922" lon="14.1211795"><ele>565.0</ele><time>2026-04-25T11:45:17.046Z</time></trkpt><trkpt lat="45.3977711" lon="14.1212013"><ele>565.5</ele><time>2026-04-25T11:45:18.055Z</time></trkpt><trkpt lat="45.3976381" lon="14.1212376"><ele>566.0</ele><time>2026-04-25T11:45:19.037Z</time></trkpt><trkpt lat="45.397502" lon="14.121279"><ele>566.0</ele><time>2026-04-25T11:45:20.045Z</time></trkpt><trkpt lat="45.3973616" lon="14.1213114"><ele>566.0</ele><time>2026-04-25T11:45:21.042Z</time></trkpt><trkpt lat="45.3972165" lon="14.1213512"><ele>566.0</ele><time>2026-04-25T11:45:22.046Z</time></trkpt><trkpt lat="45.3970714" lon="14.1213917"><ele>566.0</ele><time>2026-04-25T11:45:23.041Z</time></trkpt><trkpt lat="45.3969261" lon="14.1214322"><ele>565.5</ele><time>2026-04-25T11:45:24.052Z</time></trkpt><trkpt lat="45.3967803" lon="14.1214759"><ele>565.0</ele><time>2026-04-25T11:45:25.054Z</time></trkpt><trkpt lat="45.3966334" lon="14.1215241"><ele>564.5</ele><time>2026-04-25T11:45:26.049Z</time></trkpt><trkpt lat="45.3964895" lon="14.1215807"><ele>564.0</ele><time>2026-04-25T11:45:27.061Z</time></trkpt><trkpt lat="45.3963521" lon="14.1216491"><ele>566.75</ele><time>2026-04-25T11:45:28.047Z</time></trkpt><trkpt lat="45.3962167" lon="14.1217124"><ele>569.5</ele><time>2026-04-25T11:45:29.045Z</time></trkpt><trkpt lat="45.3960768" lon="14.1217767"><ele>572.25</ele><time>2026-04-25T11:45:30.044Z</time></trkpt><trkpt lat="45.3959452" lon="14.1218307"><ele>575.0</ele><time>2026-04-25T11:45:31.047Z</time></trkpt><trkpt lat="45.3958174" lon="14.121883"><ele>575.0</ele><time>2026-04-25T11:45:32.053Z</time></trkpt><trkpt lat="45.3956921" lon="14.1219345"><ele>575.0</ele><time>2026-04-25T11:45:33.045Z</time></trkpt><trkpt lat="45.3955682" lon="14.1219623"><ele>575.0</ele><time>2026-04-25T11:45:34.051Z</time></trkpt><trkpt lat="45.3954387" lon="14.1219635"><ele>575.0</ele><time>2026-04-25T11:45:35.05Z</time></trkpt><trkpt lat="45.3953144" lon="14.1219113"><ele>576.5</ele><time>2026-04-25T11:45:36.052Z</time></trkpt><trkpt lat="45.3951947" lon="14.1218418"><ele>578.0</ele><time>2026-04-25T11:45:37.053Z</time></trkpt><trkpt lat="45.3950719" lon="14.1218167"><ele>579.5</ele><time>2026-04-25T11:45:38.049Z</time></trkpt><trkpt lat="45.3949593" lon="14.1218331"><ele>581.0</ele><time>2026-04-25T11:45:39.044Z</time></trkpt><trkpt lat="45.394849" lon="14.1218461"><ele>581.0</ele><time>2026-04-25T11:45:40.035Z</time></trkpt><trkpt lat="45.3947348" lon="14.1218176"><ele>581.0</ele><time>2026-04-25T11:45:41.042Z</time></trkpt><trkpt lat="45.394618" lon="14.1217425"><ele>581.0</ele><time>2026-04-25T11:45:42.043Z</time></trkpt><trkpt lat="45.3945026" lon="14.1216203"><ele>581.0</ele><time>2026-04-25T11:45:43.039Z</time></trkpt><trkpt lat="45.3943989" lon="14.1214726"><ele>582.75</ele><time>2026-04-25T11:45:44.036Z</time></trkpt><trkpt lat="45.3942995" lon="14.1213255"><ele>584.5</ele><time>2026-04-25T11:45:45.037Z</time></trkpt><trkpt lat="45.3942006" lon="14.1211791"><ele>586.25</ele><time>2026-04-25T11:45:46.038Z</time></trkpt><trkpt lat="45.3940992" lon="14.1210298"><ele>588.0</ele><time>2026-04-25T11:45:47.037Z</time></trkpt><trkpt lat="45.3940031" lon="14.1208919"><ele>588.0</ele><time>2026-04-25T11:45:48.045Z</time></trkpt><trkpt lat="45.3939137" lon="14.1207585"><ele>588.0</ele><time>2026-04-25T11:45:49.042Z</time></trkpt><trkpt lat="45.3938305" lon="14.1206322"><ele>588.0</ele><time>2026-04-25T11:45:50.046Z</time></trkpt><trkpt lat="45.3937534" lon="14.1204899"><ele>588.0</ele><time>2026-04-25T11:45:51.043Z</time></trkpt><trkpt lat="45.3937179" lon="14.1203187"><ele>591.75</ele><time>2026-04-25T11:45:52.043Z</time></trkpt><trkpt lat="45.3937257" lon="14.1201403"><ele>595.5</ele><time>2026-04-25T11:45:53.047Z</time></trkpt><trkpt lat="45.3937716" lon="14.119961"><ele>599.25</ele><time>2026-04-25T11:45:54.04Z</time></trkpt><trkpt lat="45.393862" lon="14.1198156"><ele>603.0</ele><time>2026-04-25T11:45:55.047Z</time></trkpt><trkpt lat="45.3939686" lon="14.1196925"><ele>603.0</ele><time>2026-04-25T11:45:56.044Z</time></trkpt><trkpt lat="45.3940862" lon="14.1195665"><ele>603.0</ele><time>2026-04-25T11:45:57.043Z</time></trkpt><trkpt lat="45.3942009" lon="14.1194441"><ele>603.0</ele><time>2026-04-25T11:45:58.051Z</time></trkpt><trkpt lat="45.3943068" lon="14.1193224"><ele>603.0</ele><time>2026-04-25T11:45:59.045Z</time></trkpt><trkpt lat="45.3944072" lon="14.1192022"><ele>603.0</ele><time>2026-04-25T11:46:00.052Z</time></trkpt><trkpt lat="45.394503" lon="14.1190726"><ele>603.0</ele><time>2026-04-25T11:46:01.045Z</time></trkpt><trkpt lat="45.3945886" lon="14.1189371"><ele>603.0</ele><time>2026-04-25T11:46:02.043Z</time></trkpt><trkpt lat="45.3946549" lon="14.1187857"><ele>603.0</ele><time>2026-04-25T11:46:03.048Z</time></trkpt><trkpt lat="45.394704" lon="14.1186381"><ele>602.0</ele><time>2026-04-25T11:46:04.05Z</time></trkpt><trkpt lat="45.3947448" lon="14.1184872"><ele>601.0</ele><time>2026-04-25T11:46:05.054Z</time></trkpt><trkpt lat="45.3947767" lon="14.1183221"><ele>600.0</ele><time>2026-04-25T11:46:06.047Z</time></trkpt><trkpt lat="45.394795" lon="14.1181456"><ele>599.0</ele><time>2026-04-25T11:46:07.053Z</time></trkpt><trkpt lat="45.3947989" lon="14.1179666"><ele>599.0</ele><time>2026-04-25T11:46:08.047Z</time></trkpt><trkpt lat="45.3947903" lon="14.1177854"><ele>599.0</ele><time>2026-04-25T11:46:09.049Z</time></trkpt><trkpt lat="45.394764" lon="14.117607"><ele>599.0</ele><time>2026-04-25T11:46:10.063Z</time></trkpt><trkpt lat="45.3947294" lon="14.1174285"><ele>599.0</ele><time>2026-04-25T11:46:11.058Z</time></trkpt><trkpt lat="45.3946919" lon="14.1172443"><ele>603.0</ele><time>2026-04-25T11:46:12.049Z</time></trkpt><trkpt lat="45.3946471" lon="14.1170555"><ele>607.0</ele><time>2026-04-25T11:46:13.058Z</time></trkpt><trkpt lat="45.3946025" lon="14.1168661"><ele>611.0</ele><time>2026-04-25T11:46:14.052Z</time></trkpt><trkpt lat="45.3945555" lon="14.1166771"><ele>615.0</ele><time>2026-04-25T11:46:15.052Z</time></trkpt><trkpt lat="45.3945147" lon="14.1164941"><ele>616.75</ele><time>2026-04-25T11:46:16.051Z</time></trkpt><trkpt lat="45.3944878" lon="14.1163148"><ele>618.5</ele><time>2026-04-25T11:46:17.044Z</time></trkpt><trkpt lat="45.3944741" lon="14.1161304"><ele>620.25</ele><time>2026-04-25T11:46:18.052Z</time></trkpt><trkpt lat="45.3944794" lon="14.1159459"><ele>622.0</ele><time>2026-04-25T11:46:19.052Z</time></trkpt><trkpt lat="45.3945006" lon="14.115761"><ele>624.0</ele><time>2026-04-25T11:46:20.064Z</time></trkpt><trkpt lat="45.3945404" lon="14.1155825"><ele>626.0</ele><time>2026-04-25T11:46:21.065Z</time></trkpt><trkpt lat="45.3945972" lon="14.1154034"><ele>628.0</ele><time>2026-04-25T11:46:22.052Z</time></trkpt><trkpt lat="45.3946693" lon="14.115231"><ele>630.0</ele><time>2026-04-25T11:46:23.053Z</time></trkpt><trkpt lat="45.39475" lon="14.1150736"><ele>629.75</ele><time>2026-04-25T11:46:24.055Z</time></trkpt><trkpt lat="45.3948481" lon="14.1149296"><ele>629.5</ele><time>2026-04-25T11:46:25.054Z</time></trkpt><trkpt lat="45.3949509" lon="14.1147945"><ele>629.25</ele><time>2026-04-25T11:46:26.062Z</time></trkpt><trkpt lat="45.3950539" lon="14.1146602"><ele>629.0</ele><time>2026-04-25T11:46:27.048Z</time></trkpt><trkpt lat="45.395157" lon="14.1145242"><ele>629.0</ele><time>2026-04-25T11:46:28.06Z</time></trkpt><trkpt lat="45.3952633" lon="14.1143866"><ele>629.0</ele><time>2026-04-25T11:46:29.057Z</time></trkpt><trkpt lat="45.3953722" lon="14.114242"><ele>629.0</ele><time>2026-04-25T11:46:30.057Z</time></trkpt><trkpt lat="45.3954776" lon="14.1140904"><ele>629.0</ele><time>2026-04-25T11:46:31.046Z</time></trkpt><trkpt lat="45.3955874" lon="14.1139465"><ele>628.75</ele><time>2026-04-25T11:46:32.057Z</time></trkpt><trkpt lat="45.3956959" lon="14.1138039"><ele>628.5</ele><time>2026-04-25T11:46:33.052Z</time></trkpt><trkpt lat="45.3958015" lon="14.1136698"><ele>628.25</ele><time>2026-04-25T11:46:34.052Z</time></trkpt><trkpt lat="45.3958945" lon="14.1135422"><ele>628.0</ele><time>2026-04-25T11:46:35.056Z</time></trkpt><trkpt lat="45.3959935" lon="14.1134064"><ele>628.0</ele><time>2026-04-25T11:46:36.052Z</time></trkpt><trkpt lat="45.3960988" lon="14.1132691"><ele>628.0</ele><time>2026-04-25T11:46:37.062Z</time></trkpt><trkpt lat="45.3962049" lon="14.1131298"><ele>628.0</ele><time>2026-04-25T11:46:38.049Z</time></trkpt><trkpt lat="45.3963044" lon="14.1129983"><ele>628.0</ele><time>2026-04-25T11:46:39.056Z</time></trkpt><trkpt lat="45.3963989" lon="14.112871"><ele>627.25</ele><time>2026-04-25T11:46:40.053Z</time></trkpt><trkpt lat="45.3964829" lon="14.112736"><ele>626.5</ele><time>2026-04-25T11:46:41.053Z</time></trkpt><trkpt lat="45.396562" lon="14.1125815"><ele>625.75</ele><time>2026-04-25T11:46:42.06Z</time></trkpt><trkpt lat="45.3966358" lon="14.1124093"><ele>625.0</ele><time>2026-04-25T11:46:43.051Z</time></trkpt><trkpt lat="45.3967086" lon="14.1122308"><ele>629.5</ele><time>2026-04-25T11:46:44.056Z</time></trkpt><trkpt lat="45.3967785" lon="14.1120508"><ele>634.0</ele><time>2026-04-25T11:46:45.052Z</time></trkpt><trkpt lat="45.3968438" lon="14.1118774"><ele>638.5</ele><time>2026-04-25T11:46:46.053Z</time></trkpt><trkpt lat="45.3969037" lon="14.1117084"><ele>643.0</ele><time>2026-04-25T11:46:47.057Z</time></trkpt><trkpt lat="45.3969638" lon="14.1115447"><ele>644.75</ele><time>2026-04-25T11:46:48.058Z</time></trkpt><trkpt lat="45.3970354" lon="14.1113826"><ele>646.5</ele><time>2026-04-25T11:46:49.064Z</time></trkpt><trkpt lat="45.3971097" lon="14.1112131"><ele>648.25</ele><time>2026-04-25T11:46:50.066Z</time></trkpt><trkpt lat="45.3971918" lon="14.111044"><ele>650.0</ele><time>2026-04-25T11:46:51.047Z</time></trkpt><trkpt lat="45.3972739" lon="14.110869"><ele>648.0</ele><time>2026-04-25T11:46:52.057Z</time></trkpt><trkpt lat="45.3973587" lon="14.1107006"><ele>646.0</ele><time>2026-04-25T11:46:53.049Z</time></trkpt><trkpt lat="45.3974434" lon="14.1105391"><ele>644.0</ele><time>2026-04-25T11:46:54.057Z</time></trkpt><trkpt lat="45.3975309" lon="14.1103781"><ele>642.0</ele><time>2026-04-25T11:46:55.056Z</time></trkpt><trkpt lat="45.3976111" lon="14.1102098"><ele>642.0</ele><time>2026-04-25T11:46:56.058Z</time></trkpt><trkpt lat="45.3976728" lon="14.1100334"><ele>642.0</ele><time>2026-04-25T11:46:57.06Z</time></trkpt><trkpt lat="45.39771" lon="14.1098513"><ele>642.0</ele><time>2026-04-25T11:46:58.051Z</time></trkpt><trkpt lat="45.3977287" lon="14.1096776"><ele>642.0</ele><time>2026-04-25T11:46:59.062Z</time></trkpt><trkpt lat="45.3977388" lon="14.1095096"><ele>642.5</ele><time>2026-04-25T11:47:00.053Z</time></trkpt><trkpt lat="45.3977657" lon="14.1093418"><ele>643.0</ele><time>2026-04-25T11:47:01.046Z</time></trkpt><trkpt lat="45.3978152" lon="14.1091812"><ele>643.5</ele><time>2026-04-25T11:47:02.059Z</time></trkpt><trkpt lat="45.3978779" lon="14.1090181"><ele>644.0</ele><time>2026-04-25T11:47:03.058Z</time></trkpt><trkpt lat="45.3979518" lon="14.1088622"><ele>643.25</ele><time>2026-04-25T11:47:04.071Z</time></trkpt><trkpt lat="45.398031" lon="14.1087087"><ele>642.5</ele><time>2026-04-25T11:47:05.054Z</time></trkpt><trkpt lat="45.3981131" lon="14.1085586"><ele>641.75</ele><time>2026-04-25T11:47:06.052Z</time></trkpt><trkpt lat="45.3981963" lon="14.1083914"><ele>641.0</ele><time>2026-04-25T11:47:07.056Z</time></trkpt><trkpt lat="45.3982753" lon="14.1082236"><ele>643.0</ele><time>2026-04-25T11:47:08.054Z</time></trkpt><trkpt lat="45.3983489" lon="14.1080593"><ele>645.0</ele><time>2026-04-25T11:47:09.058Z</time></trkpt><trkpt lat="45.3984083" lon="14.1078973"><ele>647.0</ele><time>2026-04-25T11:47:10.059Z</time></trkpt><trkpt lat="45.3984418" lon="14.1077241"><ele>649.0</ele><time>2026-04-25T11:47:11.068Z</time></trkpt><trkpt lat="45.3984433" lon="14.1075212"><ele>650.0</ele><time>2026-04-25T11:47:12.058Z</time></trkpt><trkpt lat="45.3984295" lon="14.1073298"><ele>651.0</ele><time>2026-04-25T11:47:13.053Z</time></trkpt><trkpt lat="45.3984188" lon="14.1071425"><ele>652.0</ele><time>2026-04-25T11:47:14.075Z</time></trkpt><trkpt lat="45.3984302" lon="14.1069514"><ele>653.0</ele><time>2026-04-25T11:47:15.059Z</time></trkpt><trkpt lat="45.3984784" lon="14.1067528"><ele>654.25</ele><time>2026-04-25T11:47:16.061Z</time></trkpt><trkpt lat="45.3985396" lon="14.1065454"><ele>655.5</ele><time>2026-04-25T11:47:17.056Z</time></trkpt><trkpt lat="45.3985929" lon="14.1063602"><ele>656.75</ele><time>2026-04-25T11:47:18.055Z</time></trkpt><trkpt lat="45.398633" lon="14.1061718"><ele>658.0</ele><time>2026-04-25T11:47:19.063Z</time></trkpt><trkpt lat="45.3986481" lon="14.1059748"><ele>658.0</ele><time>2026-04-25T11:47:20.053Z</time></trkpt><trkpt lat="45.3986463" lon="14.105768"><ele>658.0</ele><time>2026-04-25T11:47:21.057Z</time></trkpt><trkpt lat="45.3986332" lon="14.1055591"><ele>658.0</ele><time>2026-04-25T11:47:22.049Z</time></trkpt><trkpt lat="45.3986069" lon="14.1053552"><ele>658.0</ele><time>2026-04-25T11:47:23.05Z</time></trkpt><trkpt lat="45.3985772" lon="14.1051459"><ele>658.25</ele><time>2026-04-25T11:47:24.051Z</time></trkpt><trkpt lat="45.398559" lon="14.1049366"><ele>658.5</ele><time>2026-04-25T11:47:25.048Z</time></trkpt><trkpt lat="45.3985326" lon="14.1047486"><ele>658.75</ele><time>2026-04-25T11:47:26.053Z</time></trkpt><trkpt lat="45.3984828" lon="14.1045839"><ele>659.0</ele><time>2026-04-25T11:47:27.046Z</time></trkpt><trkpt lat="45.3984111" lon="14.1044371"><ele>660.25</ele><time>2026-04-25T11:47:28.046Z</time></trkpt><trkpt lat="45.3983207" lon="14.1043088"><ele>661.5</ele><time>2026-04-25T11:47:29.051Z</time></trkpt><trkpt lat="45.3982106" lon="14.1041968"><ele>662.75</ele><time>2026-04-25T11:47:30.044Z</time></trkpt><trkpt lat="45.3980855" lon="14.1041066"><ele>664.0</ele><time>2026-04-25T11:47:31.052Z</time></trkpt><trkpt lat="45.3979531" lon="14.1040373"><ele>664.0</ele><time>2026-04-25T11:47:32.045Z</time></trkpt><trkpt lat="45.397825" lon="14.1039805"><ele>664.0</ele><time>2026-04-25T11:47:33.04Z</time></trkpt><trkpt lat="45.3977105" lon="14.1039283"><ele>664.0</ele><time>2026-04-25T11:47:34.044Z</time></trkpt><trkpt lat="45.3976133" lon="14.1038777"><ele>664.0</ele><time>2026-04-25T11:47:35.049Z</time></trkpt><trkpt lat="45.3975342" lon="14.1038383"><ele>664.0</ele><time>2026-04-25T11:47:36.055Z</time></trkpt><trkpt lat="45.3974686" lon="14.1038019"><ele>664.0</ele><time>2026-04-25T11:47:37.059Z</time></trkpt><trkpt lat="45.3974082" lon="14.1037665"><ele>664.0</ele><time>2026-04-25T11:47:38.054Z</time></trkpt><trkpt lat="45.397306" lon="14.1037228"><ele>664.0</ele><time>2026-04-25T11:47:40.064Z</time></trkpt><trkpt lat="45.3972297" lon="14.1037054"><ele>664.0</ele><time>2026-04-25T11:47:43.059Z</time></trkpt><trkpt lat="45.3971289" lon="14.1037498"><ele>664.0</ele><time>2026-04-25T11:47:59.057Z</time></trkpt><trkpt lat="45.3970585" lon="14.1037826"><ele>664.0</ele><time>2026-04-25T11:48:00.076Z</time></trkpt><trkpt lat="45.396986" lon="14.1038258"><ele>665.2</ele><time>2026-04-25T11:48:01.069Z</time></trkpt><trkpt lat="45.3969078" lon="14.1038635"><ele>666.4000000000001</ele><time>2026-04-25T11:48:02.076Z</time></trkpt><trkpt lat="45.3968233" lon="14.1038923"><ele>667.6</ele><time>2026-04-25T11:48:03.059Z</time></trkpt><trkpt lat="45.3967213" lon="14.1039222"><ele>668.8</ele><time>2026-04-25T11:48:04.069Z</time></trkpt><trkpt lat="45.396605" lon="14.1039576"><ele>670.0</ele><time>2026-04-25T11:48:05.054Z</time></trkpt><trkpt lat="45.3964857" lon="14.1039991"><ele>670.0</ele><time>2026-04-25T11:48:06.063Z</time></trkpt><trkpt lat="45.3963649" lon="14.1040542"><ele>670.0</ele><time>2026-04-25T11:48:07.061Z</time></trkpt><trkpt lat="45.3962352" lon="14.1041249"><ele>670.0</ele><time>2026-04-25T11:48:08.071Z</time></trkpt><trkpt lat="45.3961014" lon="14.1042134"><ele>670.0</ele><time>2026-04-25T11:48:09.063Z</time></trkpt><trkpt lat="45.3959716" lon="14.104302"><ele>671.0</ele><time>2026-04-25T11:48:10.059Z</time></trkpt><trkpt lat="45.3958502" lon="14.1044156"><ele>672.0</ele><time>2026-04-25T11:48:11.064Z</time></trkpt><trkpt lat="45.3957371" lon="14.1045716"><ele>673.0</ele><time>2026-04-25T11:48:12.067Z</time></trkpt><trkpt lat="45.3956237" lon="14.1047403"><ele>672.6666666666667</ele><time>2026-04-25T11:48:13.074Z</time></trkpt><trkpt lat="45.3955191" lon="14.1049202"><ele>672.3333333333334</ele><time>2026-04-25T11:48:14.058Z</time></trkpt><trkpt lat="45.3954107" lon="14.1050889"><ele>672.0</ele><time>2026-04-25T11:48:15.064Z</time></trkpt><trkpt lat="45.395308" lon="14.1052496"><ele>673.5</ele><time>2026-04-25T11:48:16.07Z</time></trkpt><trkpt lat="45.39521" lon="14.1054089"><ele>675.0</ele><time>2026-04-25T11:48:17.055Z</time></trkpt><trkpt lat="45.3951124" lon="14.1055699"><ele>676.5</ele><time>2026-04-25T11:48:18.061Z</time></trkpt><trkpt lat="45.3950215" lon="14.1057158"><ele>678.0</ele><time>2026-04-25T11:48:19.063Z</time></trkpt><trkpt lat="45.3949383" lon="14.1058509"><ele>678.0</ele><time>2026-04-25T11:48:20.059Z</time></trkpt><trkpt lat="45.3948531" lon="14.1059776"><ele>678.0</ele><time>2026-04-25T11:48:21.056Z</time></trkpt><trkpt lat="45.3947701" lon="14.1061099"><ele>678.0</ele><time>2026-04-25T11:48:22.062Z</time></trkpt><trkpt lat="45.394688" lon="14.1062244"><ele>678.0</ele><time>2026-04-25T11:48:23.061Z</time></trkpt><trkpt lat="45.3946046" lon="14.1063169"><ele>679.0</ele><time>2026-04-25T11:48:24.065Z</time></trkpt><trkpt lat="45.3944935" lon="14.1063888"><ele>680.0</ele><time>2026-04-25T11:48:25.064Z</time></trkpt><trkpt lat="45.394372" lon="14.106425"><ele>681.0</ele><time>2026-04-25T11:48:26.055Z</time></trkpt><trkpt lat="45.394244" lon="14.1064437"><ele>682.0</ele><time>2026-04-25T11:48:27.078Z</time></trkpt><trkpt lat="45.3941168" lon="14.1064553"><ele>682.0</ele><time>2026-04-25T11:48:28.052Z</time></trkpt><trkpt lat="45.3939943" lon="14.1064715"><ele>682.0</ele><time>2026-04-25T11:48:29.059Z</time></trkpt><trkpt lat="45.3938722" lon="14.1064874"><ele>682.0</ele><time>2026-04-25T11:48:30.063Z</time></trkpt><trkpt lat="45.3937482" lon="14.106504"><ele>682.0</ele><time>2026-04-25T11:48:31.065Z</time></trkpt><trkpt lat="45.3936267" lon="14.1065221"><ele>681.75</ele><time>2026-04-25T11:48:32.052Z</time></trkpt><trkpt lat="45.3935008" lon="14.1065435"><ele>681.5</ele><time>2026-04-25T11:48:33.064Z</time></trkpt><trkpt lat="45.3933724" lon="14.1065657"><ele>681.25</ele><time>2026-04-25T11:48:34.063Z</time></trkpt><trkpt lat="45.3932429" lon="14.106589"><ele>681.0</ele><time>2026-04-25T11:48:35.055Z</time></trkpt><trkpt lat="45.3931134" lon="14.1066165"><ele>680.5</ele><time>2026-04-25T11:48:36.061Z</time></trkpt><trkpt lat="45.3929804" lon="14.1066406"><ele>680.0</ele><time>2026-04-25T11:48:37.073Z</time></trkpt><trkpt lat="45.3928527" lon="14.1066586"><ele>679.5</ele><time>2026-04-25T11:48:38.064Z</time></trkpt><trkpt lat="45.3927232" lon="14.1066462"><ele>679.0</ele><time>2026-04-25T11:48:39.057Z</time></trkpt><trkpt lat="45.3925954" lon="14.1066088"><ele>679.4000000000001</ele><time>2026-04-25T11:48:40.058Z</time></trkpt><trkpt lat="45.3924822" lon="14.106558"><ele>679.8</ele><time>2026-04-25T11:48:41.063Z</time></trkpt><trkpt lat="45.3923772" lon="14.1064758"><ele>680.2</ele><time>2026-04-25T11:48:42.056Z</time></trkpt><trkpt lat="45.3922881" lon="14.10639"><ele>680.5999999999999</ele><time>2026-04-25T11:48:43.075Z</time></trkpt><trkpt lat="45.3922079" lon="14.1062984"><ele>681.0</ele><time>2026-04-25T11:48:44.066Z</time></trkpt><trkpt lat="45.3921536" lon="14.1062022"><ele>679.4</ele><time>2026-04-25T11:48:45.068Z</time></trkpt><trkpt lat="45.3921175" lon="14.106083"><ele>677.8</ele><time>2026-04-25T11:48:46.069Z</time></trkpt><trkpt lat="45.3920783" lon="14.1059658"><ele>676.1999999999999</ele><time>2026-04-25T11:48:47.053Z</time></trkpt><trkpt lat="45.3920308" lon="14.1058445"><ele>674.5999999999999</ele><time>2026-04-25T11:48:48.069Z</time></trkpt><trkpt lat="45.3919691" lon="14.1057341"><ele>673.0</ele><time>2026-04-25T11:48:49.061Z</time></trkpt><trkpt lat="45.3918964" lon="14.1056411"><ele>673.0</ele><time>2026-04-25T11:48:50.074Z</time></trkpt><trkpt lat="45.3918153" lon="14.1055675"><ele>673.0</ele><time>2026-04-25T11:48:51.069Z</time></trkpt><trkpt lat="45.3917569" lon="14.105529"><ele>673.0</ele><time>2026-04-25T11:48:52.056Z</time></trkpt><trkpt lat="45.3916761" lon="14.1054808"><ele>673.0</ele><time>2026-04-25T11:48:54.062Z</time></trkpt><trkpt lat="45.3916035" lon="14.1055012"><ele>673.0</ele><time>2026-04-25T11:48:56.073Z</time></trkpt><trkpt lat="45.3915301" lon="14.1056139"><ele>673.0</ele><time>2026-04-25T11:48:58.053Z</time></trkpt><trkpt lat="45.3914805" lon="14.1056887"><ele>672.8</ele><time>2026-04-25T11:48:59.053Z</time></trkpt><trkpt lat="45.3914308" lon="14.1057828"><ele>672.5999999999999</ele><time>2026-04-25T11:49:00.067Z</time></trkpt><trkpt lat="45.3913894" lon="14.105893"><ele>672.4000000000001</ele><time>2026-04-25T11:49:01.065Z</time></trkpt><trkpt lat="45.3913488" lon="14.1060305"><ele>672.2</ele><time>2026-04-25T11:49:02.07Z</time></trkpt><trkpt lat="45.3913006" lon="14.1062028"><ele>672.0</ele><time>2026-04-25T11:49:03.067Z</time></trkpt><trkpt lat="45.3912463" lon="14.1063974"><ele>670.25</ele><time>2026-04-25T11:49:04.062Z</time></trkpt><trkpt lat="45.3911946" lon="14.1065879"><ele>668.5</ele><time>2026-04-25T11:49:05.064Z</time></trkpt><trkpt lat="45.3911221" lon="14.1067746"><ele>666.75</ele><time>2026-04-25T11:49:06.058Z</time></trkpt><trkpt lat="45.3910406" lon="14.1069564"><ele>665.0</ele><time>2026-04-25T11:49:07.058Z</time></trkpt><trkpt lat="45.3909524" lon="14.1071435"><ele>665.0</ele><time>2026-04-25T11:49:08.062Z</time></trkpt><trkpt lat="45.3908754" lon="14.1073288"><ele>665.0</ele><time>2026-04-25T11:49:09.071Z</time></trkpt><trkpt lat="45.390801" lon="14.1074998"><ele>665.0</ele><time>2026-04-25T11:49:10.059Z</time></trkpt><trkpt lat="45.390732" lon="14.1076656"><ele>665.0</ele><time>2026-04-25T11:49:11.062Z</time></trkpt><trkpt lat="45.3906617" lon="14.1078354"><ele>665.0</ele><time>2026-04-25T11:49:12.06Z</time></trkpt><trkpt lat="45.3905834" lon="14.1080068"><ele>665.0</ele><time>2026-04-25T11:49:13.06Z</time></trkpt><trkpt lat="45.390501" lon="14.1081797"><ele>665.0</ele><time>2026-04-25T11:49:14.071Z</time></trkpt><trkpt lat="45.3904204" lon="14.1083573"><ele>665.0</ele><time>2026-04-25T11:49:15.06Z</time></trkpt><trkpt lat="45.3903459" lon="14.1085194"><ele>665.0</ele><time>2026-04-25T11:49:16.077Z</time></trkpt><trkpt lat="45.3902732" lon="14.108682"><ele>665.0</ele><time>2026-04-25T11:49:17.066Z</time></trkpt><trkpt lat="45.3902067" lon="14.1088342"><ele>665.0</ele><time>2026-04-25T11:49:18.074Z</time></trkpt><trkpt lat="45.3901294" lon="14.1089704"><ele>665.0</ele><time>2026-04-25T11:49:19.066Z</time></trkpt><trkpt lat="45.3900455" lon="14.1090823"><ele>666.5</ele><time>2026-04-25T11:49:20.075Z</time></trkpt><trkpt lat="45.389953" lon="14.1091875"><ele>668.0</ele><time>2026-04-25T11:49:21.061Z</time></trkpt><trkpt lat="45.3898411" lon="14.1092762"><ele>669.5</ele><time>2026-04-25T11:49:22.061Z</time></trkpt><trkpt lat="45.3897163" lon="14.1093671"><ele>671.0</ele><time>2026-04-25T11:49:23.053Z</time></trkpt><trkpt lat="45.3895914" lon="14.1094609"><ele>671.5</ele><time>2026-04-25T11:49:24.071Z</time></trkpt><trkpt lat="45.3894789" lon="14.1095605"><ele>672.0</ele><time>2026-04-25T11:49:25.072Z</time></trkpt><trkpt lat="45.3893688" lon="14.1096598"><ele>672.5</ele><time>2026-04-25T11:49:26.078Z</time></trkpt><trkpt lat="45.3892694" lon="14.1097333"><ele>673.0</ele><time>2026-04-25T11:49:27.078Z</time></trkpt><trkpt lat="45.3891572" lon="14.1097972"><ele>673.0</ele><time>2026-04-25T11:49:28.083Z</time></trkpt><trkpt lat="45.3890424" lon="14.1098524"><ele>673.0</ele><time>2026-04-25T11:49:29.081Z</time></trkpt><trkpt lat="45.3889362" lon="14.1099111"><ele>673.0</ele><time>2026-04-25T11:49:30.081Z</time></trkpt><trkpt lat="45.3888263" lon="14.1099917"><ele>673.0</ele><time>2026-04-25T11:49:31.067Z</time></trkpt><trkpt lat="45.388732" lon="14.1101204"><ele>674.0</ele><time>2026-04-25T11:49:32.077Z</time></trkpt><trkpt lat="45.3886532" lon="14.110251"><ele>675.0</ele><time>2026-04-25T11:49:33.057Z</time></trkpt><trkpt lat="45.3885691" lon="14.1103673"><ele>676.0</ele><time>2026-04-25T11:49:34.064Z</time></trkpt><trkpt lat="45.388489" lon="14.1104613"><ele>677.0</ele><time>2026-04-25T11:49:35.059Z</time></trkpt><trkpt lat="45.3884179" lon="14.1105717"><ele>678.0</ele><time>2026-04-25T11:49:36.076Z</time></trkpt><trkpt lat="45.388342" lon="14.110725"><ele>678.5</ele><time>2026-04-25T11:49:37.062Z</time></trkpt><trkpt lat="45.3882731" lon="14.1108796"><ele>679.0</ele><time>2026-04-25T11:49:38.076Z</time></trkpt><trkpt lat="45.3881968" lon="14.111018"><ele>679.5</ele><time>2026-04-25T11:49:39.063Z</time></trkpt><trkpt lat="45.3881152" lon="14.1111445"><ele>680.0</ele><time>2026-04-25T11:49:40.068Z</time></trkpt><trkpt lat="45.3880272" lon="14.1112627"><ele>679.8</ele><time>2026-04-25T11:49:41.069Z</time></trkpt><trkpt lat="45.3879444" lon="14.1113721"><ele>679.6</ele><time>2026-04-25T11:49:42.076Z</time></trkpt><trkpt lat="45.3878682" lon="14.1114743"><ele>679.4000000000001</ele><time>2026-04-25T11:49:43.073Z</time></trkpt><trkpt lat="45.3878043" lon="14.1115808"><ele>679.2</ele><time>2026-04-25T11:49:44.078Z</time></trkpt><trkpt lat="45.3877503" lon="14.1117006"><ele>679.0</ele><time>2026-04-25T11:49:45.075Z</time></trkpt><trkpt lat="45.3877148" lon="14.1118402"><ele>679.0</ele><time>2026-04-25T11:49:46.063Z</time></trkpt><trkpt lat="45.387691" lon="14.1119774"><ele>679.0</ele><time>2026-04-25T11:49:47.06Z</time></trkpt><trkpt lat="45.3876553" lon="14.1121061"><ele>679.0</ele><time>2026-04-25T11:49:48.068Z</time></trkpt><trkpt lat="45.3876098" lon="14.1122155"><ele>679.0</ele><time>2026-04-25T11:49:49.064Z</time></trkpt><trkpt lat="45.3875577" lon="14.1122946"><ele>679.0</ele><time>2026-04-25T11:49:50.057Z</time></trkpt><trkpt lat="45.3874953" lon="14.1123611"><ele>679.0</ele><time>2026-04-25T11:49:51.069Z</time></trkpt><trkpt lat="45.3874273" lon="14.1124167"><ele>678.8000000000001</ele><time>2026-04-25T11:49:52.063Z</time></trkpt><trkpt lat="45.3873389" lon="14.1124835"><ele>678.6</ele><time>2026-04-25T11:49:53.059Z</time></trkpt><trkpt lat="45.3872459" lon="14.1125789"><ele>678.4</ele><time>2026-04-25T11:49:54.056Z</time></trkpt><trkpt lat="45.3871501" lon="14.112677"><ele>678.2</ele><time>2026-04-25T11:49:55.052Z</time></trkpt><trkpt lat="45.3870571" lon="14.1127718"><ele>678.0</ele><time>2026-04-25T11:49:56.057Z</time></trkpt><trkpt lat="45.3869599" lon="14.1128645"><ele>678.3333333333334</ele><time>2026-04-25T11:49:57.058Z</time></trkpt><trkpt lat="45.386862" lon="14.1129336"><ele>678.6666666666666</ele><time>2026-04-25T11:49:58.066Z</time></trkpt><trkpt lat="45.3867718" lon="14.1129653"><ele>679.0</ele><time>2026-04-25T11:49:59.063Z</time></trkpt><trkpt lat="45.3866935" lon="14.1129396"><ele>679.3333333333333</ele><time>2026-04-25T11:50:00.067Z</time></trkpt><trkpt lat="45.3866386" lon="14.1128793"><ele>679.6666666666666</ele><time>2026-04-25T11:50:01.05Z</time></trkpt><trkpt lat="45.3865904" lon="14.1128086"><ele>680.0</ele><time>2026-04-25T11:50:02.053Z</time></trkpt><trkpt lat="45.3865328" lon="14.1127092"><ele>680.0</ele><time>2026-04-25T11:50:03.046Z</time></trkpt><trkpt lat="45.3864529" lon="14.1125966"><ele>680.0</ele><time>2026-04-25T11:50:04.054Z</time></trkpt><trkpt lat="45.3863624" lon="14.1125095"><ele>680.0</ele><time>2026-04-25T11:50:05.055Z</time></trkpt><trkpt lat="45.3862606" lon="14.1124193"><ele>680.0</ele><time>2026-04-25T11:50:06.059Z</time></trkpt><trkpt lat="45.3861376" lon="14.1123207"><ele>680.75</ele><time>2026-04-25T11:50:07.06Z</time></trkpt><trkpt lat="45.3860162" lon="14.1122153"><ele>681.5</ele><time>2026-04-25T11:50:08.056Z</time></trkpt><trkpt lat="45.3858998" lon="14.1121028"><ele>682.25</ele><time>2026-04-25T11:50:09.058Z</time></trkpt><trkpt lat="45.3858048" lon="14.1119752"><ele>683.0</ele><time>2026-04-25T11:50:10.065Z</time></trkpt><trkpt lat="45.3857247" lon="14.1118374"><ele>683.0</ele><time>2026-04-25T11:50:11.063Z</time></trkpt><trkpt lat="45.3856419" lon="14.1117234"><ele>683.0</ele><time>2026-04-25T11:50:12.067Z</time></trkpt><trkpt lat="45.385557" lon="14.111613"><ele>683.0</ele><time>2026-04-25T11:50:13.065Z</time></trkpt><trkpt lat="45.3854652" lon="14.1115082"><ele>683.0</ele><time>2026-04-25T11:50:14.074Z</time></trkpt><trkpt lat="45.3853642" lon="14.1114019"><ele>684.0</ele><time>2026-04-25T11:50:15.059Z</time></trkpt><trkpt lat="45.3852681" lon="14.1112987"><ele>685.0</ele><time>2026-04-25T11:50:16.069Z</time></trkpt><trkpt lat="45.3851736" lon="14.1112196"><ele>686.0</ele><time>2026-04-25T11:50:17.057Z</time></trkpt><trkpt lat="45.3850861" lon="14.1111714"><ele>687.0</ele><time>2026-04-25T11:50:18.064Z</time></trkpt><trkpt lat="45.3850029" lon="14.1111582"><ele>688.0</ele><time>2026-04-25T11:50:19.061Z</time></trkpt><trkpt lat="45.3849192" lon="14.1111687"><ele>688.0</ele><time>2026-04-25T11:50:20.054Z</time></trkpt><trkpt lat="45.3848387" lon="14.1111529"><ele>688.0</ele><time>2026-04-25T11:50:21.068Z</time></trkpt><trkpt lat="45.3847527" lon="14.1110829"><ele>688.0</ele><time>2026-04-25T11:50:22.068Z</time></trkpt><trkpt lat="45.3846688" lon="14.1109922"><ele>688.0</ele><time>2026-04-25T11:50:23.062Z</time></trkpt><trkpt lat="45.3845876" lon="14.1109123"><ele>688.0</ele><time>2026-04-25T11:50:24.068Z</time></trkpt><trkpt lat="45.3844952" lon="14.1108664"><ele>689.5999999999999</ele><time>2026-04-25T11:50:25.068Z</time></trkpt><trkpt lat="45.3843968" lon="14.110841"><ele>691.1999999999999</ele><time>2026-04-25T11:50:26.055Z</time></trkpt><trkpt lat="45.3842855" lon="14.1108258"><ele>692.8</ele><time>2026-04-25T11:50:27.067Z</time></trkpt><trkpt lat="45.3841684" lon="14.1108095"><ele>694.4</ele><time>2026-04-25T11:50:28.07Z</time></trkpt><trkpt lat="45.3840564" lon="14.1107815"><ele>696.0</ele><time>2026-04-25T11:50:29.06Z</time></trkpt><trkpt lat="45.3839566" lon="14.1107425"><ele>696.8</ele><time>2026-04-25T11:50:30.082Z</time></trkpt><trkpt lat="45.3838534" lon="14.1107175"><ele>697.5999999999999</ele><time>2026-04-25T11:50:31.066Z</time></trkpt><trkpt lat="45.3837486" lon="14.1107163"><ele>698.4</ele><time>2026-04-25T11:50:32.071Z</time></trkpt><trkpt lat="45.3836475" lon="14.1107463"><ele>699.2</ele><time>2026-04-25T11:50:33.071Z</time></trkpt><trkpt lat="45.3835521" lon="14.1107503"><ele>700.0</ele><time>2026-04-25T11:50:34.074Z</time></trkpt><trkpt lat="45.3834679" lon="14.11073"><ele>700.2</ele><time>2026-04-25T11:50:35.073Z</time></trkpt><trkpt lat="45.3833818" lon="14.1106906"><ele>700.4</ele><time>2026-04-25T11:50:36.06Z</time></trkpt><trkpt lat="45.3832906" lon="14.1106515"><ele>700.5999999999999</ele><time>2026-04-25T11:50:37.068Z</time></trkpt><trkpt lat="45.383196" lon="14.1106129"><ele>700.8</ele><time>2026-04-25T11:50:38.064Z</time></trkpt><trkpt lat="45.3830951" lon="14.1105787"><ele>701.0</ele><time>2026-04-25T11:50:39.063Z</time></trkpt><trkpt lat="45.3829979" lon="14.1105566"><ele>701.1666666666666</ele><time>2026-04-25T11:50:40.062Z</time></trkpt><trkpt lat="45.3829011" lon="14.1105444"><ele>701.3333333333333</ele><time>2026-04-25T11:50:41.065Z</time></trkpt><trkpt lat="45.3828083" lon="14.1105459"><ele>701.5</ele><time>2026-04-25T11:50:42.068Z</time></trkpt><trkpt lat="45.382724" lon="14.1105642"><ele>701.6666666666666</ele><time>2026-04-25T11:50:43.058Z</time></trkpt><trkpt lat="45.3826533" lon="14.11062"><ele>701.8333333333334</ele><time>2026-04-25T11:50:44.06Z</time></trkpt><trkpt lat="45.3825949" lon="14.1107092"><ele>702.0</ele><time>2026-04-25T11:50:45.057Z</time></trkpt><trkpt lat="45.3825382" lon="14.1108065"><ele>704.5</ele><time>2026-04-25T11:50:46.064Z</time></trkpt><trkpt lat="45.3824805" lon="14.1109203"><ele>707.0</ele><time>2026-04-25T11:50:47.077Z</time></trkpt><trkpt lat="45.382401" lon="14.1110247"><ele>709.5</ele><time>2026-04-25T11:50:48.073Z</time></trkpt><trkpt lat="45.3823048" lon="14.1111346"><ele>712.0</ele><time>2026-04-25T11:50:49.074Z</time></trkpt><trkpt lat="45.3822048" lon="14.1112315"><ele>712.75</ele><time>2026-04-25T11:50:50.068Z</time></trkpt><trkpt lat="45.3820948" lon="14.1113208"><ele>713.5</ele><time>2026-04-25T11:50:51.062Z</time></trkpt><trkpt lat="45.3819779" lon="14.1113963"><ele>714.25</ele><time>2026-04-25T11:50:52.061Z</time></trkpt><trkpt lat="45.3818759" lon="14.1114736"><ele>715.0</ele><time>2026-04-25T11:50:53.063Z</time></trkpt><trkpt lat="45.3817936" lon="14.1115649"><ele>714.8</ele><time>2026-04-25T11:50:54.081Z</time></trkpt><trkpt lat="45.3817203" lon="14.1116858"><ele>714.6</ele><time>2026-04-25T11:50:55.074Z</time></trkpt><trkpt lat="45.3816638" lon="14.1118164"><ele>714.4000000000001</ele><time>2026-04-25T11:50:56.085Z</time></trkpt><trkpt lat="45.3816048" lon="14.1119413"><ele>714.2</ele><time>2026-04-25T11:50:57.054Z</time></trkpt><trkpt lat="45.3815377" lon="14.1120323"><ele>714.0</ele><time>2026-04-25T11:50:58.074Z</time></trkpt><trkpt lat="45.3814437" lon="14.112107"><ele>714.5</ele><time>2026-04-25T11:50:59.072Z</time></trkpt><trkpt lat="45.381338" lon="14.1121474"><ele>715.0</ele><time>2026-04-25T11:51:00.057Z</time></trkpt><trkpt lat="45.3812084" lon="14.1121825"><ele>715.5</ele><time>2026-04-25T11:51:01.067Z</time></trkpt><trkpt lat="45.3810908" lon="14.1122057"><ele>716.0</ele><time>2026-04-25T11:51:02.063Z</time></trkpt><trkpt lat="45.3809848" lon="14.112214"><ele>716.0</ele><time>2026-04-25T11:51:03.077Z</time></trkpt><trkpt lat="45.3808858" lon="14.1121798"><ele>716.0</ele><time>2026-04-25T11:51:04.066Z</time></trkpt><trkpt lat="45.3807936" lon="14.1121229"><ele>716.0</ele><time>2026-04-25T11:51:05.055Z</time></trkpt><trkpt lat="45.3807047" lon="14.1120468"><ele>716.0</ele><time>2026-04-25T11:51:06.057Z</time></trkpt><trkpt lat="45.3806032" lon="14.1119671"><ele>716.0</ele><time>2026-04-25T11:51:07.068Z</time></trkpt><trkpt lat="45.3804902" lon="14.1118929"><ele>717.75</ele><time>2026-04-25T11:51:08.07Z</time></trkpt><trkpt lat="45.3803652" lon="14.1118355"><ele>719.5</ele><time>2026-04-25T11:51:09.064Z</time></trkpt><trkpt lat="45.3802302" lon="14.1118305"><ele>721.25</ele><time>2026-04-25T11:51:10.066Z</time></trkpt><trkpt lat="45.3800923" lon="14.1118515"><ele>723.0</ele><time>2026-04-25T11:51:11.047Z</time></trkpt><trkpt lat="45.3799785" lon="14.1118816"><ele>723.0</ele><time>2026-04-25T11:51:12.071Z</time></trkpt><trkpt lat="45.3798804" lon="14.1119103"><ele>723.0</ele><time>2026-04-25T11:51:13.054Z</time></trkpt><trkpt lat="45.3798001" lon="14.1119639"><ele>723.0</ele><time>2026-04-25T11:51:14.049Z</time></trkpt><trkpt lat="45.3797375" lon="14.1120437"><ele>723.0</ele><time>2026-04-25T11:51:15.053Z</time></trkpt><trkpt lat="45.3796857" lon="14.1121479"><ele>723.0</ele><time>2026-04-25T11:51:16.057Z</time></trkpt><trkpt lat="45.3796386" lon="14.1122556"><ele>723.4</ele><time>2026-04-25T11:51:17.06Z</time></trkpt><trkpt lat="45.3795998" lon="14.1123617"><ele>723.8</ele><time>2026-04-25T11:51:18.067Z</time></trkpt><trkpt lat="45.3795463" lon="14.1124629"><ele>724.2</ele><time>2026-04-25T11:51:19.064Z</time></trkpt><trkpt lat="45.3794682" lon="14.112559"><ele>724.6</ele><time>2026-04-25T11:51:20.081Z</time></trkpt><trkpt lat="45.3793779" lon="14.112654"><ele>725.0</ele><time>2026-04-25T11:51:21.064Z</time></trkpt><trkpt lat="45.3792864" lon="14.1127461"><ele>725.0</ele><time>2026-04-25T11:51:22.074Z</time></trkpt><trkpt lat="45.3792005" lon="14.1128428"><ele>725.0</ele><time>2026-04-25T11:51:23.073Z</time></trkpt><trkpt lat="45.3791265" lon="14.112941"><ele>725.0</ele><time>2026-04-25T11:51:24.082Z</time></trkpt><trkpt lat="45.379061" lon="14.1130324"><ele>725.0</ele><time>2026-04-25T11:51:25.073Z</time></trkpt><trkpt lat="45.3790054" lon="14.1131178"><ele>725.0</ele><time>2026-04-25T11:51:26.086Z</time></trkpt><trkpt lat="45.3789411" lon="14.1131963"><ele>723.8</ele><time>2026-04-25T11:51:27.066Z</time></trkpt><trkpt lat="45.3788704" lon="14.1132808"><ele>722.6</ele><time>2026-04-25T11:51:28.063Z</time></trkpt><trkpt lat="45.3788115" lon="14.1133854"><ele>721.4000000000001</ele><time>2026-04-25T11:51:29.064Z</time></trkpt><trkpt lat="45.3787623" lon="14.1134966"><ele>720.2</ele><time>2026-04-25T11:51:30.071Z</time></trkpt><trkpt lat="45.3787155" lon="14.1136045"><ele>719.0</ele><time>2026-04-25T11:51:31.072Z</time></trkpt><trkpt lat="45.3786548" lon="14.1136992"><ele>719.0</ele><time>2026-04-25T11:51:32.065Z</time></trkpt><trkpt lat="45.3785785" lon="14.1137719"><ele>719.0</ele><time>2026-04-25T11:51:33.077Z</time></trkpt><trkpt lat="45.3784839" lon="14.1138342"><ele>719.0</ele><time>2026-04-25T11:51:34.067Z</time></trkpt><trkpt lat="45.3783749" lon="14.1138933"><ele>719.0</ele><time>2026-04-25T11:51:35.069Z</time></trkpt><trkpt lat="45.3782683" lon="14.1139707"><ele>719.0</ele><time>2026-04-25T11:51:36.074Z</time></trkpt><trkpt lat="45.3781632" lon="14.1140715"><ele>717.5</ele><time>2026-04-25T11:51:37.07Z</time></trkpt><trkpt lat="45.378057" lon="14.1141849"><ele>716.0</ele><time>2026-04-25T11:51:38.07Z</time></trkpt><trkpt lat="45.3779432" lon="14.1142942"><ele>714.5</ele><time>2026-04-25T11:51:39.071Z</time></trkpt><trkpt lat="45.3778354" lon="14.1144147"><ele>713.0</ele><time>2026-04-25T11:51:40.085Z</time></trkpt><trkpt lat="45.3777325" lon="14.114541"><ele>712.5</ele><time>2026-04-25T11:51:41.081Z</time></trkpt><trkpt lat="45.3776358" lon="14.1146644"><ele>712.0</ele><time>2026-04-25T11:51:42.064Z</time></trkpt><trkpt lat="45.3775518" lon="14.1147747"><ele>711.5</ele><time>2026-04-25T11:51:43.078Z</time></trkpt><trkpt lat="45.3774676" lon="14.1148797"><ele>711.0</ele><time>2026-04-25T11:51:44.068Z</time></trkpt><trkpt lat="45.3773784" lon="14.1149923"><ele>710.0</ele><time>2026-04-25T11:51:45.077Z</time></trkpt><trkpt lat="45.3772728" lon="14.1151125"><ele>709.0</ele><time>2026-04-25T11:51:46.07Z</time></trkpt><trkpt lat="45.3771582" lon="14.1152179"><ele>708.0</ele><time>2026-04-25T11:51:47.077Z</time></trkpt><trkpt lat="45.3770449" lon="14.1153049"><ele>707.0</ele><time>2026-04-25T11:51:48.069Z</time></trkpt><trkpt lat="45.3769349" lon="14.1153743"><ele>706.5</ele><time>2026-04-25T11:51:49.065Z</time></trkpt><trkpt lat="45.3768301" lon="14.1154409"><ele>706.0</ele><time>2026-04-25T11:51:50.072Z</time></trkpt><trkpt lat="45.3767216" lon="14.115512"><ele>705.5</ele><time>2026-04-25T11:51:51.073Z</time></trkpt><trkpt lat="45.3766159" lon="14.1155788"><ele>705.0</ele><time>2026-04-25T11:51:52.069Z</time></trkpt><trkpt lat="45.3765182" lon="14.115628"><ele>705.0</ele><time>2026-04-25T11:51:53.058Z</time></trkpt><trkpt lat="45.376434" lon="14.1156689"><ele>705.0</ele><time>2026-04-25T11:51:54.068Z</time></trkpt><trkpt lat="45.3763545" lon="14.1157086"><ele>705.0</ele><time>2026-04-25T11:51:55.065Z</time></trkpt><trkpt lat="45.3762747" lon="14.1157516"><ele>705.0</ele><time>2026-04-25T11:51:56.077Z</time></trkpt><trkpt lat="45.3762021" lon="14.1157797"><ele>705.0</ele><time>2026-04-25T11:51:57.078Z</time></trkpt><trkpt lat="45.3761291" lon="14.1157702"><ele>705.0</ele><time>2026-04-25T11:51:58.078Z</time></trkpt><trkpt lat="45.3760504" lon="14.1157234"><ele>706.0</ele><time>2026-04-25T11:51:59.067Z</time></trkpt><trkpt lat="45.3759771" lon="14.1156431"><ele>707.0</ele><time>2026-04-25T11:52:00.066Z</time></trkpt><trkpt lat="45.3759043" lon="14.1155419"><ele>708.0</ele><time>2026-04-25T11:52:01.063Z</time></trkpt><trkpt lat="45.3758339" lon="14.115431"><ele>709.0</ele><time>2026-04-25T11:52:02.065Z</time></trkpt><trkpt lat="45.375772" lon="14.1152924"><ele>710.0</ele><time>2026-04-25T11:52:03.068Z</time></trkpt><trkpt lat="45.3757189" lon="14.1151426"><ele>710.0</ele><time>2026-04-25T11:52:04.06Z</time></trkpt><trkpt lat="45.3756725" lon="14.1149897"><ele>710.0</ele><time>2026-04-25T11:52:05.084Z</time></trkpt><trkpt lat="45.3756232" lon="14.114839"><ele>710.0</ele><time>2026-04-25T11:52:06.075Z</time></trkpt><trkpt lat="45.3755715" lon="14.114697"><ele>710.0</ele><time>2026-04-25T11:52:07.065Z</time></trkpt><trkpt lat="45.3755309" lon="14.11456"><ele>710.0</ele><time>2026-04-25T11:52:08.074Z</time></trkpt><trkpt lat="45.37548" lon="14.1144328"><ele>710.0</ele><time>2026-04-25T11:52:09.062Z</time></trkpt><trkpt lat="45.3754307" lon="14.1143546"><ele>710.0</ele><time>2026-04-25T11:52:10.056Z</time></trkpt><trkpt lat="45.3753931" lon="14.1142817"><ele>710.0</ele><time>2026-04-25T11:52:12.057Z</time></trkpt><trkpt lat="45.3753268" lon="14.1142526"><ele>710.0</ele><time>2026-04-25T11:52:14.076Z</time></trkpt><trkpt lat="45.3752268" lon="14.1142738"><ele>710.0</ele><time>2026-04-25T11:52:16.059Z</time></trkpt><trkpt lat="45.3751296" lon="14.1143175"><ele>710.0</ele><time>2026-04-25T11:52:18.054Z</time></trkpt><trkpt lat="45.3750652" lon="14.1143179"><ele>710.0</ele><time>2026-04-25T11:52:19.056Z</time></trkpt><trkpt lat="45.3749895" lon="14.1143095"><ele>710.0</ele><time>2026-04-25T11:52:20.055Z</time></trkpt><trkpt lat="45.3749154" lon="14.1142966"><ele>710.0</ele><time>2026-04-25T11:52:21.054Z</time></trkpt><trkpt lat="45.3748452" lon="14.1142834"><ele>710.0</ele><time>2026-04-25T11:52:22.055Z</time></trkpt><trkpt lat="45.3747221" lon="14.1142282"><ele>710.0</ele><time>2026-04-25T11:52:24.053Z</time></trkpt><trkpt lat="45.3746547" lon="14.1141736"><ele>709.0</ele><time>2026-04-25T11:52:25.055Z</time></trkpt><trkpt lat="45.3745919" lon="14.1141415"><ele>708.0</ele><time>2026-04-25T11:52:26.062Z</time></trkpt><trkpt lat="45.3744683" lon="14.1140921"><ele>707.0</ele><time>2026-04-25T11:52:28.069Z</time></trkpt><trkpt lat="45.3744043" lon="14.1140724"><ele>706.0</ele><time>2026-04-25T11:52:29.056Z</time></trkpt><trkpt lat="45.3743387" lon="14.1140524"><ele>705.0</ele><time>2026-04-25T11:52:30.056Z</time></trkpt><trkpt lat="45.374279" lon="14.114099"><ele>704.0</ele><time>2026-04-25T11:52:32.056Z</time></trkpt><trkpt lat="45.3742174" lon="14.1141551"><ele>704.0</ele><time>2026-04-25T11:52:35.058Z</time></trkpt><trkpt lat="45.3741532" lon="14.1140894"><ele>704.0</ele><time>2026-04-25T11:52:39.049Z</time></trkpt><trkpt lat="45.3741341" lon="14.1139844"><ele>704.0</ele><time>2026-04-25T11:52:41.045Z</time></trkpt><trkpt lat="45.3741031" lon="14.1138709"><ele>704.0</ele><time>2026-04-25T11:52:43.044Z</time></trkpt><trkpt lat="45.3740541" lon="14.113729"><ele>704.0</ele><time>2026-04-25T11:52:45.043Z</time></trkpt><trkpt lat="45.374022" lon="14.1136207"><ele>704.0</ele><time>2026-04-25T11:52:47.044Z</time></trkpt><trkpt lat="45.3739791" lon="14.1135326"><ele>703.6666666666666</ele><time>2026-04-25T11:52:49.045Z</time></trkpt><trkpt lat="45.3739387" lon="14.1134437"><ele>703.3333333333333</ele><time>2026-04-25T11:52:51.043Z</time></trkpt><trkpt lat="45.373918" lon="14.1133398"><ele>703.0</ele><time>2026-04-25T11:52:53.048Z</time></trkpt><trkpt lat="45.3739148" lon="14.1132347"><ele>702.6666666666666</ele><time>2026-04-25T11:52:55.046Z</time></trkpt><trkpt lat="45.3739013" lon="14.1131243"><ele>702.3333333333334</ele><time>2026-04-25T11:52:57.049Z</time></trkpt><trkpt lat="45.3738997" lon="14.1130218"><ele>702.0</ele><time>2026-04-25T11:52:59.045Z</time></trkpt><trkpt lat="45.3739204" lon="14.1129175"><ele>700.0000000000001</ele><time>2026-04-25T11:53:01.057Z</time></trkpt><trkpt lat="45.3739284" lon="14.1128264"><ele>698.0</ele><time>2026-04-25T11:53:03.056Z</time></trkpt><trkpt lat="45.3738859" lon="14.112755"><ele>696.0</ele><time>2026-04-25T11:53:06.044Z</time></trkpt><trkpt lat="45.3738053" lon="14.1127757"><ele>694.0</ele><time>2026-04-25T11:53:10.047Z</time></trkpt><trkpt lat="45.3737403" lon="14.1127814"><ele>692.0</ele><time>2026-04-25T11:53:12.047Z</time></trkpt><trkpt lat="45.373673" lon="14.1127729"><ele>690.0000000000001</ele><time>2026-04-25T11:53:14.04Z</time></trkpt><trkpt lat="45.3735824" lon="14.112777"><ele>688.0</ele><time>2026-04-25T11:53:17.042Z</time></trkpt><trkpt lat="45.3735127" lon="14.1128643"><ele>684.3333333333334</ele><time>2026-04-25T11:53:20.042Z</time></trkpt><trkpt lat="45.3734678" lon="14.1129383"><ele>680.6666666666667</ele><time>2026-04-25T11:53:22.047Z</time></trkpt><trkpt lat="45.3734245" lon="14.113005"><ele>677.0</ele><time>2026-04-25T11:53:24.075Z</time></trkpt><trkpt lat="45.3733565" lon="14.1130166"><ele>673.3333333333334</ele><time>2026-04-25T11:53:27.049Z</time></trkpt><trkpt lat="45.3732883" lon="14.1129432"><ele>669.6666666666666</ele><time>2026-04-25T11:53:30.055Z</time></trkpt><trkpt lat="45.3732126" lon="14.1128548"><ele>666.0</ele><time>2026-04-25T11:53:33.05Z</time></trkpt><trkpt lat="45.3731405" lon="14.1127672"><ele>666.0</ele><time>2026-04-25T11:53:36.055Z</time></trkpt><trkpt lat="45.3730947" lon="14.1126889"><ele>666.0</ele><time>2026-04-25T11:53:38.057Z</time></trkpt><trkpt lat="45.3730508" lon="14.1126066"><ele>666.0</ele><time>2026-04-25T11:53:40.058Z</time></trkpt><trkpt lat="45.3729921" lon="14.112502"><ele>666.0</ele><time>2026-04-25T11:53:43.054Z</time></trkpt><trkpt lat="45.3729496" lon="14.1124158"><ele>666.0</ele><time>2026-04-25T11:53:45.049Z</time></trkpt><trkpt lat="45.3729139" lon="14.1123211"><ele>666.0</ele><time>2026-04-25T11:53:47.049Z</time></trkpt><trkpt lat="45.372884" lon="14.1122095"><ele>661.0</ele><time>2026-04-25T11:53:49.052Z</time></trkpt><trkpt lat="45.3728804" lon="14.1120878"><ele>656.0</ele><time>2026-04-25T11:53:51.042Z</time></trkpt><trkpt lat="45.3728879" lon="14.1119911"><ele>651.0</ele><time>2026-04-25T11:53:53.051Z</time></trkpt><trkpt lat="45.3729041" lon="14.1118694"><ele>646.0</ele><time>2026-04-25T11:53:55.045Z</time></trkpt><trkpt lat="45.3729076" lon="14.1117759"><ele>641.0</ele><time>2026-04-25T11:53:57.053Z</time></trkpt><trkpt lat="45.3729276" lon="14.1116402"><ele>636.0</ele><time>2026-04-25T11:54:00.045Z</time></trkpt><trkpt lat="45.3729701" lon="14.1115234"><ele>636.0</ele><time>2026-04-25T11:54:02.047Z</time></trkpt><trkpt lat="45.3730307" lon="14.1114129"><ele>636.0</ele><time>2026-04-25T11:54:04.057Z</time></trkpt><trkpt lat="45.373061" lon="14.1113305"><ele>636.0</ele><time>2026-04-25T11:54:06.05Z</time></trkpt><trkpt lat="45.373105" lon="14.1112286"><ele>636.0</ele><time>2026-04-25T11:54:08.046Z</time></trkpt><trkpt lat="45.3731417" lon="14.1110972"><ele>636.0</ele><time>2026-04-25T11:54:10.047Z</time></trkpt><trkpt lat="45.3731622" lon="14.110999"><ele>636.0</ele><time>2026-04-25T11:54:12.043Z</time></trkpt><trkpt lat="45.3731505" lon="14.1108996"><ele>636.0</ele><time>2026-04-25T11:54:15.048Z</time></trkpt><trkpt lat="45.3730724" lon="14.1108404"><ele>636.0</ele><time>2026-04-25T11:54:18.043Z</time></trkpt><trkpt lat="45.3729917" lon="14.1108628"><ele>636.0</ele><time>2026-04-25T11:54:21.058Z</time></trkpt><trkpt lat="45.372932" lon="14.1109181"><ele>636.0</ele><time>2026-04-25T11:54:23.045Z</time></trkpt><trkpt lat="45.372862" lon="14.1109559"><ele>636.0</ele><time>2026-04-25T11:54:25.042Z</time></trkpt><trkpt lat="45.3727873" lon="14.1109487"><ele>636.0</ele><time>2026-04-25T11:54:27.043Z</time></trkpt><trkpt lat="45.372776" lon="14.1108384"><ele>633.8</ele><time>2026-04-25T11:54:30.05Z</time></trkpt><trkpt lat="45.37281" lon="14.1107425"><ele>631.6</ele><time>2026-04-25T11:54:32.049Z</time></trkpt><trkpt lat="45.3728535" lon="14.1106341"><ele>629.4</ele><time>2026-04-25T11:54:34.045Z</time></trkpt><trkpt lat="45.3729079" lon="14.1105138"><ele>627.2</ele><time>2026-04-25T11:54:36.041Z</time></trkpt><trkpt lat="45.3729467" lon="14.1103926"><ele>625.0</ele><time>2026-04-25T11:54:38.053Z</time></trkpt><trkpt lat="45.3729998" lon="14.110249"><ele>624.4</ele><time>2026-04-25T11:54:40.05Z</time></trkpt><trkpt lat="45.3730499" lon="14.1101298"><ele>623.8</ele><time>2026-04-25T11:54:42.048Z</time></trkpt><trkpt lat="45.3730827" lon="14.1100111"><ele>623.2</ele><time>2026-04-25T11:54:44.048Z</time></trkpt><trkpt lat="45.3731021" lon="14.1098827"><ele>622.6</ele><time>2026-04-25T11:54:46.041Z</time></trkpt><trkpt lat="45.3731157" lon="14.1097561"><ele>622.0</ele><time>2026-04-25T11:54:48.039Z</time></trkpt><trkpt lat="45.3731033" lon="14.1096117"><ele>619.0</ele><time>2026-04-25T11:54:50.044Z</time></trkpt><trkpt lat="45.3730733" lon="14.109468"><ele>616.0</ele><time>2026-04-25T11:54:52.035Z</time></trkpt><trkpt lat="45.3729859" lon="14.1093375"><ele>613.0</ele><time>2026-04-25T11:54:54.048Z</time></trkpt><trkpt lat="45.3728731" lon="14.1092677"><ele>610.0</ele><time>2026-04-25T11:54:56.05Z</time></trkpt><trkpt lat="45.3727994" lon="14.1092616"><ele>607.0</ele><time>2026-04-25T11:54:57.038Z</time></trkpt><trkpt lat="45.3726776" lon="14.1092661"><ele>606.0</ele><time>2026-04-25T11:54:59.049Z</time></trkpt><trkpt lat="45.3726141" lon="14.1092703"><ele>605.0</ele><time>2026-04-25T11:55:00.053Z</time></trkpt><trkpt lat="45.3724956" lon="14.1093162"><ele>604.0</ele><time>2026-04-25T11:55:02.052Z</time></trkpt><trkpt lat="45.3723888" lon="14.1093872"><ele>603.0</ele><time>2026-04-25T11:55:04.054Z</time></trkpt><trkpt lat="45.3723309" lon="14.109441"><ele>602.0</ele><time>2026-04-25T11:55:05.045Z</time></trkpt><trkpt lat="45.3722788" lon="14.1094977"><ele>601.0</ele><time>2026-04-25T11:55:06.052Z</time></trkpt><trkpt lat="45.3722222" lon="14.1095472"><ele>599.0</ele><time>2026-04-25T11:55:07.046Z</time></trkpt><trkpt lat="45.37217" lon="14.109599"><ele>597.0</ele><time>2026-04-25T11:55:08.048Z</time></trkpt><trkpt lat="45.3721207" lon="14.1096569"><ele>595.0</ele><time>2026-04-25T11:55:09.046Z</time></trkpt><trkpt lat="45.3720714" lon="14.109721"><ele>593.0</ele><time>2026-04-25T11:55:10.044Z</time></trkpt><trkpt lat="45.3719847" lon="14.1098569"><ele>591.0</ele><time>2026-04-25T11:55:12.05Z</time></trkpt><trkpt lat="45.3719404" lon="14.1099217"><ele>589.0</ele><time>2026-04-25T11:55:13.049Z</time></trkpt><trkpt lat="45.3718581" lon="14.1100592"><ele>589.0</ele><time>2026-04-25T11:55:15.048Z</time></trkpt><trkpt lat="45.3717706" lon="14.1101955"><ele>589.0</ele><time>2026-04-25T11:55:17.045Z</time></trkpt><trkpt lat="45.3716761" lon="14.1103023"><ele>589.0</ele><time>2026-04-25T11:55:19.044Z</time></trkpt><trkpt lat="45.3716158" lon="14.110361"><ele>589.0</ele><time>2026-04-25T11:55:20.041Z</time></trkpt><trkpt lat="45.3715453" lon="14.110424"><ele>589.0</ele><time>2026-04-25T11:55:21.037Z</time></trkpt><trkpt lat="45.3714792" lon="14.1104765"><ele>589.0</ele><time>2026-04-25T11:55:22.038Z</time></trkpt><trkpt lat="45.3714119" lon="14.1105527"><ele>589.0</ele><time>2026-04-25T11:55:23.047Z</time></trkpt><trkpt lat="45.3713431" lon="14.110627"><ele>589.0</ele><time>2026-04-25T11:55:24.053Z</time></trkpt><trkpt lat="45.3712974" lon="14.1107226"><ele>589.0</ele><time>2026-04-25T11:55:25.04Z</time></trkpt><trkpt lat="45.3712737" lon="14.110842"><ele>589.0</ele><time>2026-04-25T11:55:26.071Z</time></trkpt><trkpt lat="45.3712559" lon="14.1109642"><ele>589.0</ele><time>2026-04-25T11:55:27.04Z</time></trkpt><trkpt lat="45.3712377" lon="14.1110815"><ele>584.0</ele><time>2026-04-25T11:55:28.047Z</time></trkpt><trkpt lat="45.3712169" lon="14.1111966"><ele>579.0</ele><time>2026-04-25T11:55:29.047Z</time></trkpt><trkpt lat="45.3711893" lon="14.1113021"><ele>574.0</ele><time>2026-04-25T11:55:30.047Z</time></trkpt><trkpt lat="45.3711552" lon="14.1114066"><ele>569.0</ele><time>2026-04-25T11:55:31.051Z</time></trkpt><trkpt lat="45.371128" lon="14.1115096"><ele>564.0</ele><time>2026-04-25T11:55:32.054Z</time></trkpt><trkpt lat="45.371101" lon="14.1116105"><ele>559.0</ele><time>2026-04-25T11:55:33.047Z</time></trkpt><trkpt lat="45.3710763" lon="14.1117102"><ele>559.0</ele><time>2026-04-25T11:55:34.056Z</time></trkpt><trkpt lat="45.3710486" lon="14.1118137"><ele>559.0</ele><time>2026-04-25T11:55:35.055Z</time></trkpt><trkpt lat="45.3710235" lon="14.1119019"><ele>559.0</ele><time>2026-04-25T11:55:36.047Z</time></trkpt><trkpt lat="45.3710329" lon="14.1120881"><ele>559.0</ele><time>2026-04-25T11:55:38.05Z</time></trkpt><trkpt lat="45.3710585" lon="14.1121888"><ele>559.0</ele><time>2026-04-25T11:55:39.043Z</time></trkpt><trkpt lat="45.3710887" lon="14.1123042"><ele>559.0</ele><time>2026-04-25T11:55:40.04Z</time></trkpt><trkpt lat="45.3711103" lon="14.1124114"><ele>559.5</ele><time>2026-04-25T11:55:41.044Z</time></trkpt><trkpt lat="45.3711236" lon="14.1125147"><ele>560.0</ele><time>2026-04-25T11:55:42.043Z</time></trkpt><trkpt lat="45.3711245" lon="14.1126053"><ele>560.5</ele><time>2026-04-25T11:55:43.041Z</time></trkpt><trkpt lat="45.3711145" lon="14.112712"><ele>561.0</ele><time>2026-04-25T11:55:45.032Z</time></trkpt><trkpt lat="45.3710475" lon="14.1127319"><ele>561.5</ele><time>2026-04-25T11:55:48.038Z</time></trkpt><trkpt lat="45.3709767" lon="14.1126286"><ele>562.0</ele><time>2026-04-25T11:55:50.032Z</time></trkpt><trkpt lat="45.3708779" lon="14.1125279"><ele>562.0</ele><time>2026-04-25T11:55:52.042Z</time></trkpt><trkpt lat="45.3708237" lon="14.1124716"><ele>562.0</ele><time>2026-04-25T11:55:53.042Z</time></trkpt><trkpt lat="45.3707602" lon="14.1123935"><ele>562.0</ele><time>2026-04-25T11:55:55.042Z</time></trkpt><trkpt lat="45.3707173" lon="14.1122725"><ele>562.0</ele><time>2026-04-25T11:55:57.037Z</time></trkpt><trkpt lat="45.3706753" lon="14.112136"><ele>562.0</ele><time>2026-04-25T11:55:59.038Z</time></trkpt><trkpt lat="45.3706399" lon="14.1120241"><ele>562.0</ele><time>2026-04-25T11:56:01.04Z</time></trkpt><trkpt lat="45.3706188" lon="14.1119272"><ele>561.4</ele><time>2026-04-25T11:56:03.048Z</time></trkpt><trkpt lat="45.3705895" lon="14.1117892"><ele>560.8000000000001</ele><time>2026-04-25T11:56:05.039Z</time></trkpt><trkpt lat="45.3705416" lon="14.1116271"><ele>560.2</ele><time>2026-04-25T11:56:07.047Z</time></trkpt><trkpt lat="45.3705237" lon="14.1115309"><ele>559.6</ele><time>2026-04-25T11:56:08.043Z</time></trkpt><trkpt lat="45.3705164" lon="14.1113497"><ele>559.0</ele><time>2026-04-25T11:56:10.038Z</time></trkpt><trkpt lat="45.3705239" lon="14.1112575"><ele>558.0</ele><time>2026-04-25T11:56:11.042Z</time></trkpt><trkpt lat="45.3705274" lon="14.1111652"><ele>557.0</ele><time>2026-04-25T11:56:12.041Z</time></trkpt><trkpt lat="45.370465" lon="14.1110824"><ele>556.0</ele><time>2026-04-25T11:56:14.046Z</time></trkpt><trkpt lat="45.3703798" lon="14.1111595"><ele>555.0</ele><time>2026-04-25T11:56:16.044Z</time></trkpt><trkpt lat="45.3703431" lon="14.1112324"><ele>554.0</ele><time>2026-04-25T11:56:17.034Z</time></trkpt><trkpt lat="45.3703062" lon="14.1113311"><ele>553.0</ele><time>2026-04-25T11:56:18.037Z</time></trkpt><trkpt lat="45.3702665" lon="14.1114254"><ele>550.1428571428571</ele><time>2026-04-25T11:56:19.038Z</time></trkpt><trkpt lat="45.3702257" lon="14.111514"><ele>547.2857142857142</ele><time>2026-04-25T11:56:20.041Z</time></trkpt><trkpt lat="45.3701763" lon="14.1115858"><ele>544.4285714285714</ele><time>2026-04-25T11:56:21.067Z</time></trkpt><trkpt lat="45.3701295" lon="14.1116559"><ele>541.5714285714286</ele><time>2026-04-25T11:56:22.043Z</time></trkpt><trkpt lat="45.370082" lon="14.1117262"><ele>538.7142857142857</ele><time>2026-04-25T11:56:23.041Z</time></trkpt><trkpt lat="45.3700296" lon="14.1118329"><ele>535.8571428571429</ele><time>2026-04-25T11:56:25.038Z</time></trkpt><trkpt lat="45.3699684" lon="14.1118949"><ele>533.0</ele><time>2026-04-25T11:56:27.034Z</time></trkpt><trkpt lat="45.3698923" lon="14.1118261"><ele>533.0</ele><time>2026-04-25T11:56:30.037Z</time></trkpt><trkpt lat="45.3698196" lon="14.1118486"><ele>533.0</ele><time>2026-04-25T11:56:33.043Z</time></trkpt><trkpt lat="45.3697382" lon="14.1118497"><ele>533.0</ele><time>2026-04-25T11:56:36.039Z</time></trkpt><trkpt lat="45.3698289" lon="14.1118209"><ele>533.0</ele><time>2026-04-25T11:56:43.049Z</time></trkpt><trkpt lat="45.369892" lon="14.111854"><ele>533.0</ele><time>2026-04-25T11:56:44.055Z</time></trkpt><trkpt lat="45.3699765" lon="14.1118964"><ele>533.0</ele><time>2026-04-25T11:56:46.046Z</time></trkpt><trkpt lat="45.36999" lon="14.111782"><ele>533.0</ele><time>2026-04-25T11:56:48.039Z</time></trkpt><trkpt lat="45.369943" lon="14.1116592"><ele>533.0</ele><time>2026-04-25T11:56:50.033Z</time></trkpt><trkpt lat="45.3698778" lon="14.1115247"><ele>533.0</ele><time>2026-04-25T11:56:52.04Z</time></trkpt><trkpt lat="45.3697744" lon="14.1114407"><ele>533.0</ele><time>2026-04-25T11:56:54.041Z</time></trkpt><trkpt lat="45.3697318" lon="14.1113732"><ele>533.0</ele><time>2026-04-25T11:56:55.041Z</time></trkpt><trkpt lat="45.3696965" lon="14.1112961"><ele>529.5</ele><time>2026-04-25T11:56:56.04Z</time></trkpt><trkpt lat="45.3696651" lon="14.1112135"><ele>526.0</ele><time>2026-04-25T11:56:57.056Z</time></trkpt><trkpt lat="45.36962" lon="14.1111334"><ele>522.5</ele><time>2026-04-25T11:56:58.047Z</time></trkpt><trkpt lat="45.3695659" lon="14.1110696"><ele>519.0</ele><time>2026-04-25T11:56:59.057Z</time></trkpt><trkpt lat="45.3694692" lon="14.1109818"><ele>515.5</ele><time>2026-04-25T11:57:01.047Z</time></trkpt><trkpt lat="45.3694144" lon="14.1109363"><ele>512.0</ele><time>2026-04-25T11:57:02.046Z</time></trkpt><trkpt lat="45.3693152" lon="14.1108186"><ele>512.0</ele><time>2026-04-25T11:57:04.044Z</time></trkpt><trkpt lat="45.3692589" lon="14.1107746"><ele>511.99999999999994</ele><time>2026-04-25T11:57:05.05Z</time></trkpt><trkpt lat="45.3691984" lon="14.1107435"><ele>512.0</ele><time>2026-04-25T11:57:06.042Z</time></trkpt><trkpt lat="45.3691358" lon="14.1107158"><ele>512.0</ele><time>2026-04-25T11:57:07.078Z</time></trkpt><trkpt lat="45.3690668" lon="14.1106906"><ele>511.99999999999994</ele><time>2026-04-25T11:57:08.045Z</time></trkpt><trkpt lat="45.3689964" lon="14.1106617"><ele>512.0</ele><time>2026-04-25T11:57:09.044Z</time></trkpt><trkpt lat="45.3689304" lon="14.1106287"><ele>512.0</ele><time>2026-04-25T11:57:10.043Z</time></trkpt><trkpt lat="45.3688677" lon="14.1105908"><ele>509.3333333333333</ele><time>2026-04-25T11:57:11.048Z</time></trkpt><trkpt lat="45.368805" lon="14.1105409"><ele>506.66666666666663</ele><time>2026-04-25T11:57:12.047Z</time></trkpt><trkpt lat="45.36874" lon="14.110488"><ele>504.0</ele><time>2026-04-25T11:57:13.054Z</time></trkpt><trkpt lat="45.3686705" lon="14.110426"><ele>501.33333333333337</ele><time>2026-04-25T11:57:14.051Z</time></trkpt><trkpt lat="45.3686033" lon="14.1103535"><ele>498.6666666666667</ele><time>2026-04-25T11:57:15.049Z</time></trkpt><trkpt lat="45.3685366" lon="14.110283"><ele>496.0</ele><time>2026-04-25T11:57:16.041Z</time></trkpt><trkpt lat="45.3684605" lon="14.1102178"><ele>496.0</ele><time>2026-04-25T11:57:17.043Z</time></trkpt><trkpt lat="45.3683822" lon="14.1101545"><ele>496.0</ele><time>2026-04-25T11:57:18.047Z</time></trkpt><trkpt lat="45.3683032" lon="14.1100855"><ele>496.0</ele><time>2026-04-25T11:57:19.05Z</time></trkpt><trkpt lat="45.368229" lon="14.1100091"><ele>496.0</ele><time>2026-04-25T11:57:20.046Z</time></trkpt><trkpt lat="45.3681527" lon="14.1099255"><ele>496.0</ele><time>2026-04-25T11:57:21.052Z</time></trkpt><trkpt lat="45.3680717" lon="14.1098261"><ele>492.4</ele><time>2026-04-25T11:57:22.055Z</time></trkpt><trkpt lat="45.3679892" lon="14.1097091"><ele>488.8</ele><time>2026-04-25T11:57:23.047Z</time></trkpt><trkpt lat="45.3679171" lon="14.1095963"><ele>485.19999999999993</ele><time>2026-04-25T11:57:24.049Z</time></trkpt><trkpt lat="45.3678704" lon="14.1094877"><ele>481.59999999999997</ele><time>2026-04-25T11:57:25.052Z</time></trkpt><trkpt lat="45.3678451" lon="14.1093776"><ele>478.0</ele><time>2026-04-25T11:57:26.043Z</time></trkpt><trkpt lat="45.3678494" lon="14.109249"><ele>478.0</ele><time>2026-04-25T11:57:27.047Z</time></trkpt><trkpt lat="45.3678714" lon="14.1091087"><ele>477.99999999999994</ele><time>2026-04-25T11:57:28.042Z</time></trkpt><trkpt lat="45.3679137" lon="14.1089698"><ele>477.99999999999994</ele><time>2026-04-25T11:57:29.05Z</time></trkpt><trkpt lat="45.3679466" lon="14.1088386"><ele>478.0</ele><time>2026-04-25T11:57:30.05Z</time></trkpt><trkpt lat="45.3679531" lon="14.1087107"><ele>478.0</ele><time>2026-04-25T11:57:31.051Z</time></trkpt><trkpt lat="45.3679283" lon="14.1085742"><ele>477.25</ele><time>2026-04-25T11:57:32.052Z</time></trkpt><trkpt lat="45.3678844" lon="14.1084332"><ele>476.5</ele><time>2026-04-25T11:57:33.05Z</time></trkpt><trkpt lat="45.3678316" lon="14.1082906"><ele>475.75</ele><time>2026-04-25T11:57:34.053Z</time></trkpt><trkpt lat="45.3677583" lon="14.1081351"><ele>475.0</ele><time>2026-04-25T11:57:35.049Z</time></trkpt><trkpt lat="45.3676736" lon="14.1079782"><ele>474.0</ele><time>2026-04-25T11:57:36.053Z</time></trkpt><trkpt lat="45.3675894" lon="14.1078184"><ele>473.0</ele><time>2026-04-25T11:57:37.048Z</time></trkpt><trkpt lat="45.3675123" lon="14.1076459"><ele>472.0</ele><time>2026-04-25T11:57:38.051Z</time></trkpt><trkpt lat="45.3674293" lon="14.1074536"><ele>471.0</ele><time>2026-04-25T11:57:39.052Z</time></trkpt><trkpt lat="45.3673455" lon="14.1072594"><ele>469.33333333333337</ele><time>2026-04-25T11:57:40.061Z</time></trkpt><trkpt lat="45.3672742" lon="14.1070655"><ele>467.6666666666667</ele><time>2026-04-25T11:57:41.053Z</time></trkpt><trkpt lat="45.3672028" lon="14.1068761"><ele>466.0</ele><time>2026-04-25T11:57:42.056Z</time></trkpt><trkpt lat="45.3671291" lon="14.1066935"><ele>463.25</ele><time>2026-04-25T11:57:43.052Z</time></trkpt><trkpt lat="45.3670553" lon="14.1065117"><ele>460.5</ele><time>2026-04-25T11:57:44.059Z</time></trkpt><trkpt lat="45.3669783" lon="14.1063327"><ele>457.75</ele><time>2026-04-25T11:57:45.051Z</time></trkpt><trkpt lat="45.3668992" lon="14.1061545"><ele>455.0</ele><time>2026-04-25T11:57:46.054Z</time></trkpt><trkpt lat="45.3668204" lon="14.1059813"><ele>455.0</ele><time>2026-04-25T11:57:47.062Z</time></trkpt><trkpt lat="45.3667435" lon="14.1058161"><ele>455.0</ele><time>2026-04-25T11:57:48.054Z</time></trkpt><trkpt lat="45.3666737" lon="14.1056558"><ele>455.0</ele><time>2026-04-25T11:57:49.058Z</time></trkpt><trkpt lat="45.3666091" lon="14.1054915"><ele>455.0</ele><time>2026-04-25T11:57:50.063Z</time></trkpt><trkpt lat="45.3665341" lon="14.1053395"><ele>455.25</ele><time>2026-04-25T11:57:51.063Z</time></trkpt><trkpt lat="45.3664457" lon="14.1052"><ele>455.5</ele><time>2026-04-25T11:57:52.061Z</time></trkpt><trkpt lat="45.3663579" lon="14.1050553"><ele>455.75</ele><time>2026-04-25T11:57:53.055Z</time></trkpt><trkpt lat="45.366287" lon="14.1049113"><ele>456.0</ele><time>2026-04-25T11:57:54.062Z</time></trkpt><trkpt lat="45.3662224" lon="14.1047724"><ele>454.75</ele><time>2026-04-25T11:57:55.058Z</time></trkpt><trkpt lat="45.3661574" lon="14.1046182"><ele>453.5</ele><time>2026-04-25T11:57:56.072Z</time></trkpt><trkpt lat="45.3661104" lon="14.1044495"><ele>452.25</ele><time>2026-04-25T11:57:57.057Z</time></trkpt><trkpt lat="45.3660752" lon="14.1042784"><ele>451.0</ele><time>2026-04-25T11:57:58.059Z</time></trkpt><trkpt lat="45.3660339" lon="14.1041141"><ele>450.5</ele><time>2026-04-25T11:57:59.062Z</time></trkpt><trkpt lat="45.3659889" lon="14.1039423"><ele>450.0</ele><time>2026-04-25T11:58:00.057Z</time></trkpt><trkpt lat="45.3659414" lon="14.1037702"><ele>449.5</ele><time>2026-04-25T11:58:01.072Z</time></trkpt><trkpt lat="45.3658896" lon="14.1036033"><ele>449.0</ele><time>2026-04-25T11:58:02.067Z</time></trkpt><trkpt lat="45.3658313" lon="14.1034385"><ele>449.0</ele><time>2026-04-25T11:58:03.09Z</time></trkpt><trkpt lat="45.3657645" lon="14.1032888"><ele>449.0</ele><time>2026-04-25T11:58:04.062Z</time></trkpt><trkpt lat="45.3656907" lon="14.1031575"><ele>449.0</ele><time>2026-04-25T11:58:05.058Z</time></trkpt><trkpt lat="45.3656127" lon="14.1030455"><ele>449.0</ele><time>2026-04-25T11:58:06.065Z</time></trkpt><trkpt lat="45.3655358" lon="14.1029391"><ele>445.4</ele><time>2026-04-25T11:58:07.066Z</time></trkpt><trkpt lat="45.3654675" lon="14.1028322"><ele>441.79999999999995</ele><time>2026-04-25T11:58:08.075Z</time></trkpt><trkpt lat="45.3654143" lon="14.1027365"><ele>438.20000000000005</ele><time>2026-04-25T11:58:09.068Z</time></trkpt><trkpt lat="45.3654085" lon="14.1025939"><ele>434.6</ele><time>2026-04-25T11:58:10.08Z</time></trkpt><trkpt lat="45.3654367" lon="14.1024248"><ele>431.0</ele><time>2026-04-25T11:58:11.057Z</time></trkpt><trkpt lat="45.3654511" lon="14.102268"><ele>431.0</ele><time>2026-04-25T11:58:12.052Z</time></trkpt><trkpt lat="45.3654415" lon="14.1021399"><ele>431.0</ele><time>2026-04-25T11:58:13.062Z</time></trkpt><trkpt lat="45.365403" lon="14.1020113"><ele>431.0</ele><time>2026-04-25T11:58:14.051Z</time></trkpt><trkpt lat="45.3653334" lon="14.1019107"><ele>431.0</ele><time>2026-04-25T11:58:15.05Z</time></trkpt><trkpt lat="45.3652422" lon="14.1018364"><ele>431.0</ele><time>2026-04-25T11:58:16.056Z</time></trkpt><trkpt lat="45.3651362" lon="14.1017522"><ele>431.0</ele><time>2026-04-25T11:58:17.053Z</time></trkpt><trkpt lat="45.3650279" lon="14.1016699"><ele>431.0</ele><time>2026-04-25T11:58:18.052Z</time></trkpt><trkpt lat="45.3649432" lon="14.1015991"><ele>431.0</ele><time>2026-04-25T11:58:19.06Z</time></trkpt><trkpt lat="45.3648944" lon="14.1015271"><ele>431.0</ele><time>2026-04-25T11:58:20.085Z</time></trkpt><trkpt lat="45.3648845" lon="14.1014277"><ele>431.0</ele><time>2026-04-25T11:58:21.066Z</time></trkpt><trkpt lat="45.3649025" lon="14.1012972"><ele>430.5</ele><time>2026-04-25T11:58:22.056Z</time></trkpt><trkpt lat="45.3649251" lon="14.1011305"><ele>430.0</ele><time>2026-04-25T11:58:23.055Z</time></trkpt><trkpt lat="45.364938" lon="14.1009581"><ele>429.5</ele><time>2026-04-25T11:58:24.065Z</time></trkpt><trkpt lat="45.3649465" lon="14.1007883"><ele>429.0</ele><time>2026-04-25T11:58:25.064Z</time></trkpt><trkpt lat="45.3649545" lon="14.1006472"><ele>429.0</ele><time>2026-04-25T11:58:26.053Z</time></trkpt><trkpt lat="45.3649437" lon="14.1005191"><ele>429.0</ele><time>2026-04-25T11:58:28.052Z</time></trkpt><trkpt lat="45.3648707" lon="14.1005339"><ele>429.0</ele><time>2026-04-25T11:58:30.04Z</time></trkpt><trkpt lat="45.3648292" lon="14.1006076"><ele>429.0</ele><time>2026-04-25T11:58:31.04Z</time></trkpt><trkpt lat="45.3647917" lon="14.1007074"><ele>429.0</ele><time>2026-04-25T11:58:32.043Z</time></trkpt><trkpt lat="45.3647481" lon="14.1008078"><ele>429.0</ele><time>2026-04-25T11:58:33.042Z</time></trkpt><trkpt lat="45.3646932" lon="14.100907"><ele>424.1666666666667</ele><time>2026-04-25T11:58:34.047Z</time></trkpt><trkpt lat="45.3646472" lon="14.1009751"><ele>419.33333333333337</ele><time>2026-04-25T11:58:35.053Z</time></trkpt><trkpt lat="45.364557" lon="14.1009791"><ele>414.5</ele><time>2026-04-25T11:58:37.044Z</time></trkpt><trkpt lat="45.3645372" lon="14.1008392"><ele>409.6666666666667</ele><time>2026-04-25T11:58:39.045Z</time></trkpt><trkpt lat="45.3645475" lon="14.1007211"><ele>404.83333333333337</ele><time>2026-04-25T11:58:40.046Z</time></trkpt><trkpt lat="45.3645404" lon="14.1005922"><ele>400.0</ele><time>2026-04-25T11:58:41.048Z</time></trkpt><trkpt lat="45.364506" lon="14.100465"><ele>399.4</ele><time>2026-04-25T11:58:42.048Z</time></trkpt><trkpt lat="45.3644566" lon="14.1003382"><ele>398.8</ele><time>2026-04-25T11:58:43.053Z</time></trkpt><trkpt lat="45.364413" lon="14.1002161"><ele>398.20000000000005</ele><time>2026-04-25T11:58:44.052Z</time></trkpt><trkpt lat="45.3643736" lon="14.1001039"><ele>397.6</ele><time>2026-04-25T11:58:45.048Z</time></trkpt><trkpt lat="45.3643316" lon="14.1000036"><ele>397.0</ele><time>2026-04-25T11:58:46.058Z</time></trkpt><trkpt lat="45.3642544" lon="14.0999284"><ele>396.6666666666667</ele><time>2026-04-25T11:58:47.048Z</time></trkpt><trkpt lat="45.3641612" lon="14.0998718"><ele>396.33333333333337</ele><time>2026-04-25T11:58:48.047Z</time></trkpt><trkpt lat="45.3640883" lon="14.0998211"><ele>396.0</ele><time>2026-04-25T11:58:49.059Z</time></trkpt><trkpt lat="45.3639806" lon="14.0997692"><ele>395.66666666666663</ele><time>2026-04-25T11:58:51.067Z</time></trkpt><trkpt lat="45.3639332" lon="14.0997101"><ele>395.3333333333333</ele><time>2026-04-25T11:58:52.053Z</time></trkpt><trkpt lat="45.363903" lon="14.0996285"><ele>395.0</ele><time>2026-04-25T11:58:53.044Z</time></trkpt><trkpt lat="45.363892" lon="14.0995381"><ele>395.0</ele><time>2026-04-25T11:58:54.05Z</time></trkpt><trkpt lat="45.3638963" lon="14.0994205"><ele>395.0</ele><time>2026-04-25T11:58:55.044Z</time></trkpt><trkpt lat="45.3639186" lon="14.0992773"><ele>395.0</ele><time>2026-04-25T11:58:56.052Z</time></trkpt><trkpt lat="45.3639514" lon="14.0991348"><ele>395.0</ele><time>2026-04-25T11:58:57.051Z</time></trkpt><trkpt lat="45.3639915" lon="14.0989958"><ele>395.0</ele><time>2026-04-25T11:58:58.054Z</time></trkpt><trkpt lat="45.3640315" lon="14.0988551"><ele>393.75</ele><time>2026-04-25T11:58:59.05Z</time></trkpt><trkpt lat="45.3640786" lon="14.0987154"><ele>392.5</ele><time>2026-04-25T11:59:00.062Z</time></trkpt><trkpt lat="45.3641347" lon="14.098582"><ele>391.25</ele><time>2026-04-25T11:59:01.05Z</time></trkpt><trkpt lat="45.364195" lon="14.098438"><ele>390.0</ele><time>2026-04-25T11:59:02.052Z</time></trkpt><trkpt lat="45.3642606" lon="14.0982863"><ele>389.25</ele><time>2026-04-25T11:59:03.051Z</time></trkpt><trkpt lat="45.3643435" lon="14.0981515"><ele>388.5</ele><time>2026-04-25T11:59:04.059Z</time></trkpt><trkpt lat="45.3644375" lon="14.0980218"><ele>387.75</ele><time>2026-04-25T11:59:05.06Z</time></trkpt><trkpt lat="45.3645357" lon="14.0978959"><ele>387.0</ele><time>2026-04-25T11:59:06.075Z</time></trkpt><trkpt lat="45.3646381" lon="14.0977753"><ele>387.75</ele><time>2026-04-25T11:59:07.061Z</time></trkpt><trkpt lat="45.3647413" lon="14.0976745"><ele>388.5</ele><time>2026-04-25T11:59:08.064Z</time></trkpt><trkpt lat="45.3648496" lon="14.0975891"><ele>389.25</ele><time>2026-04-25T11:59:09.07Z</time></trkpt><trkpt lat="45.3649571" lon="14.09751"><ele>390.0</ele><time>2026-04-25T11:59:10.057Z</time></trkpt><trkpt lat="45.365058" lon="14.0974381"><ele>389.5</ele><time>2026-04-25T11:59:11.057Z</time></trkpt><trkpt lat="45.3651473" lon="14.0973333"><ele>389.0</ele><time>2026-04-25T11:59:12.056Z</time></trkpt><trkpt lat="45.3652281" lon="14.0972098"><ele>388.5</ele><time>2026-04-25T11:59:13.051Z</time></trkpt><trkpt lat="45.3653087" lon="14.0970888"><ele>388.0</ele><time>2026-04-25T11:59:14.053Z</time></trkpt><trkpt lat="45.3654002" lon="14.0969687"><ele>388.0</ele><time>2026-04-25T11:59:15.053Z</time></trkpt><trkpt lat="45.3654929" lon="14.0968434"><ele>388.0</ele><time>2026-04-25T11:59:16.058Z</time></trkpt><trkpt lat="45.365575" lon="14.0967146"><ele>388.0</ele><time>2026-04-25T11:59:17.053Z</time></trkpt><trkpt lat="45.3656412" lon="14.096576"><ele>388.0</ele><time>2026-04-25T11:59:18.059Z</time></trkpt><trkpt lat="45.3656985" lon="14.0964351"><ele>388.0</ele><time>2026-04-25T11:59:19.063Z</time></trkpt><trkpt lat="45.3657562" lon="14.0963149"><ele>388.0</ele><time>2026-04-25T11:59:20.059Z</time></trkpt><trkpt lat="45.3658239" lon="14.0962082"><ele>388.0</ele><time>2026-04-25T11:59:21.06Z</time></trkpt><trkpt lat="45.3659011" lon="14.0961044"><ele>388.0</ele><time>2026-04-25T11:59:22.054Z</time></trkpt><trkpt lat="45.3659745" lon="14.0959952"><ele>388.0</ele><time>2026-04-25T11:59:23.061Z</time></trkpt><trkpt lat="45.3660437" lon="14.0958824"><ele>388.0</ele><time>2026-04-25T11:59:24.061Z</time></trkpt><trkpt lat="45.366117" lon="14.095799"><ele>388.0</ele><time>2026-04-25T11:59:25.072Z</time></trkpt><trkpt lat="45.3661934" lon="14.0957166"><ele>388.0</ele><time>2026-04-25T11:59:26.057Z</time></trkpt><trkpt lat="45.3662633" lon="14.0956254"><ele>388.0</ele><time>2026-04-25T11:59:27.054Z</time></trkpt><trkpt lat="45.3663277" lon="14.0955079"><ele>388.0</ele><time>2026-04-25T11:59:28.063Z</time></trkpt><trkpt lat="45.3663808" lon="14.0953806"><ele>387.59999999999997</ele><time>2026-04-25T11:59:29.049Z</time></trkpt><trkpt lat="45.3664119" lon="14.0952229"><ele>387.2</ele><time>2026-04-25T11:59:30.064Z</time></trkpt><trkpt lat="45.3664339" lon="14.0950727"><ele>386.8</ele><time>2026-04-25T11:59:31.058Z</time></trkpt><trkpt lat="45.3664622" lon="14.0949376"><ele>386.4</ele><time>2026-04-25T11:59:32.062Z</time></trkpt><trkpt lat="45.3664994" lon="14.094815"><ele>386.0</ele><time>2026-04-25T11:59:33.057Z</time></trkpt><trkpt lat="45.3665519" lon="14.0947208"><ele>386.0</ele><time>2026-04-25T11:59:34.059Z</time></trkpt><trkpt lat="45.3666116" lon="14.0946349"><ele>386.0</ele><time>2026-04-25T11:59:35.061Z</time></trkpt><trkpt lat="45.366682" lon="14.0945518"><ele>386.0</ele><time>2026-04-25T11:59:36.063Z</time></trkpt><trkpt lat="45.3667628" lon="14.0944596"><ele>386.0</ele><time>2026-04-25T11:59:37.063Z</time></trkpt><trkpt lat="45.3668491" lon="14.0943645"><ele>386.0</ele><time>2026-04-25T11:59:38.061Z</time></trkpt><trkpt lat="45.3669309" lon="14.0942598"><ele>386.0</ele><time>2026-04-25T11:59:39.055Z</time></trkpt><trkpt lat="45.3670126" lon="14.0941514"><ele>386.0</ele><time>2026-04-25T11:59:40.053Z</time></trkpt><trkpt lat="45.3670929" lon="14.0940377"><ele>386.0</ele><time>2026-04-25T11:59:41.059Z</time></trkpt><trkpt lat="45.3671767" lon="14.0939316"><ele>386.0</ele><time>2026-04-25T11:59:42.057Z</time></trkpt><trkpt lat="45.3672598" lon="14.0938244"><ele>386.0</ele><time>2026-04-25T11:59:43.053Z</time></trkpt><trkpt lat="45.3673515" lon="14.0937237"><ele>386.25</ele><time>2026-04-25T11:59:44.064Z</time></trkpt><trkpt lat="45.3674508" lon="14.0936416"><ele>386.5</ele><time>2026-04-25T11:59:45.066Z</time></trkpt><trkpt lat="45.3675519" lon="14.0935623"><ele>386.75</ele><time>2026-04-25T11:59:46.051Z</time></trkpt><trkpt lat="45.3676442" lon="14.0934763"><ele>387.0</ele><time>2026-04-25T11:59:47.055Z</time></trkpt><trkpt lat="45.3677301" lon="14.0933719"><ele>387.0</ele><time>2026-04-25T11:59:48.056Z</time></trkpt><trkpt lat="45.3678115" lon="14.0932648"><ele>387.0</ele><time>2026-04-25T11:59:49.066Z</time></trkpt><trkpt lat="45.3678949" lon="14.0931571"><ele>387.0</ele><time>2026-04-25T11:59:50.058Z</time></trkpt><trkpt lat="45.3679703" lon="14.0930402"><ele>387.0</ele><time>2026-04-25T11:59:51.057Z</time></trkpt><trkpt lat="45.3680352" lon="14.0929118"><ele>387.0</ele><time>2026-04-25T11:59:52.051Z</time></trkpt><trkpt lat="45.3680912" lon="14.092782"><ele>387.40000000000003</ele><time>2026-04-25T11:59:53.058Z</time></trkpt><trkpt lat="45.3681497" lon="14.0926518"><ele>387.8</ele><time>2026-04-25T11:59:54.063Z</time></trkpt><trkpt lat="45.3682116" lon="14.092523"><ele>388.2</ele><time>2026-04-25T11:59:55.067Z</time></trkpt><trkpt lat="45.3682821" lon="14.0923949"><ele>388.6</ele><time>2026-04-25T11:59:56.062Z</time></trkpt><trkpt lat="45.3683548" lon="14.0922833"><ele>389.0</ele><time>2026-04-25T11:59:57.07Z</time></trkpt><trkpt lat="45.3684229" lon="14.0921738"><ele>389.0</ele><time>2026-04-25T11:59:58.062Z</time></trkpt><trkpt lat="45.3684908" lon="14.0920761"><ele>389.0</ele><time>2026-04-25T11:59:59.071Z</time></trkpt><trkpt lat="45.3685505" lon="14.0919754"><ele>389.0</ele><time>2026-04-25T12:00:00.068Z</time></trkpt><trkpt lat="45.3686061" lon="14.0918805"><ele>389.0</ele><time>2026-04-25T12:00:01.059Z</time></trkpt><trkpt lat="45.3686676" lon="14.0917896"><ele>389.0</ele><time>2026-04-25T12:00:02.067Z</time></trkpt><trkpt lat="45.3687412" lon="14.0917118"><ele>389.0</ele><time>2026-04-25T12:00:03.068Z</time></trkpt><trkpt lat="45.3688281" lon="14.0916381"><ele>389.0</ele><time>2026-04-25T12:00:04.071Z</time></trkpt><trkpt lat="45.3689171" lon="14.0915605"><ele>389.0</ele><time>2026-04-25T12:00:05.076Z</time></trkpt><trkpt lat="45.3689971" lon="14.091486"><ele>389.0</ele><time>2026-04-25T12:00:06.069Z</time></trkpt><trkpt lat="45.3690637" lon="14.0913889"><ele>389.0</ele><time>2026-04-25T12:00:07.061Z</time></trkpt><trkpt lat="45.3691276" lon="14.0912847"><ele>389.2</ele><time>2026-04-25T12:00:08.065Z</time></trkpt><trkpt lat="45.3691948" lon="14.0911757"><ele>389.4</ele><time>2026-04-25T12:00:09.057Z</time></trkpt><trkpt lat="45.3692554" lon="14.0910701"><ele>389.6</ele><time>2026-04-25T12:00:10.06Z</time></trkpt><trkpt lat="45.3693113" lon="14.0909716"><ele>389.8</ele><time>2026-04-25T12:00:11.053Z</time></trkpt><trkpt lat="45.3693543" lon="14.0908823"><ele>390.0</ele><time>2026-04-25T12:00:12.059Z</time></trkpt><trkpt lat="45.3693528" lon="14.0907259"><ele>390.0</ele><time>2026-04-25T12:00:14.047Z</time></trkpt><trkpt lat="45.3693131" lon="14.0906198"><ele>390.0</ele><time>2026-04-25T12:00:15.052Z</time></trkpt><trkpt lat="45.3692569" lon="14.0905283"><ele>390.0</ele><time>2026-04-25T12:00:16.044Z</time></trkpt><trkpt lat="45.369191" lon="14.0904373"><ele>390.0</ele><time>2026-04-25T12:00:17.051Z</time></trkpt><trkpt lat="45.3691146" lon="14.0903395"><ele>390.0</ele><time>2026-04-25T12:00:18.052Z</time></trkpt><trkpt lat="45.3690436" lon="14.0902488"><ele>390.0</ele><time>2026-04-25T12:00:19.048Z</time></trkpt><trkpt lat="45.3689843" lon="14.0901596"><ele>390.0</ele><time>2026-04-25T12:00:20.049Z</time></trkpt><trkpt lat="45.3689384" lon="14.0900555"><ele>390.0</ele><time>2026-04-25T12:00:21.058Z</time></trkpt><trkpt lat="45.3689138" lon="14.0899356"><ele>390.0</ele><time>2026-04-25T12:00:22.056Z</time></trkpt><trkpt lat="45.3689003" lon="14.0898066"><ele>390.0</ele><time>2026-04-25T12:00:23.061Z</time></trkpt><trkpt lat="45.3688906" lon="14.0896844"><ele>390.0</ele><time>2026-04-25T12:00:24.063Z</time></trkpt><trkpt lat="45.3688866" lon="14.0895797"><ele>390.0</ele><time>2026-04-25T12:00:25.065Z</time></trkpt><trkpt lat="45.3688865" lon="14.0894896"><ele>390.0</ele><time>2026-04-25T12:00:26.063Z</time></trkpt><trkpt lat="45.3688981" lon="14.0893025"><ele>390.0</ele><time>2026-04-25T12:00:28.057Z</time></trkpt><trkpt lat="45.3689086" lon="14.0891828"><ele>390.0</ele><time>2026-04-25T12:00:29.083Z</time></trkpt><trkpt lat="45.3689166" lon="14.0890656"><ele>390.0</ele><time>2026-04-25T12:00:30.069Z</time></trkpt><trkpt lat="45.3689226" lon="14.0889543"><ele>390.0</ele><time>2026-04-25T12:00:31.07Z</time></trkpt><trkpt lat="45.3689288" lon="14.0888389"><ele>390.0</ele><time>2026-04-25T12:00:32.084Z</time></trkpt><trkpt lat="45.3689461" lon="14.0887199"><ele>390.0</ele><time>2026-04-25T12:00:33.073Z</time></trkpt><trkpt lat="45.3689769" lon="14.0885931"><ele>390.0</ele><time>2026-04-25T12:00:34.085Z</time></trkpt><trkpt lat="45.3690086" lon="14.0884656"><ele>390.0</ele><time>2026-04-25T12:00:35.076Z</time></trkpt><trkpt lat="45.3690397" lon="14.0883401"><ele>390.0</ele><time>2026-04-25T12:00:36.068Z</time></trkpt><trkpt lat="45.3690714" lon="14.0882081"><ele>390.2</ele><time>2026-04-25T12:00:37.076Z</time></trkpt><trkpt lat="45.369114" lon="14.0880745"><ele>390.4</ele><time>2026-04-25T12:00:38.063Z</time></trkpt><trkpt lat="45.3691567" lon="14.087948"><ele>390.6</ele><time>2026-04-25T12:00:39.075Z</time></trkpt><trkpt lat="45.3691951" lon="14.0878309"><ele>390.8</ele><time>2026-04-25T12:00:40.059Z</time></trkpt><trkpt lat="45.3692319" lon="14.0877112"><ele>391.0</ele><time>2026-04-25T12:00:41.054Z</time></trkpt><trkpt lat="45.3692704" lon="14.087587"><ele>391.0</ele><time>2026-04-25T12:00:42.057Z</time></trkpt><trkpt lat="45.3693084" lon="14.0874623"><ele>391.0</ele><time>2026-04-25T12:00:43.061Z</time></trkpt><trkpt lat="45.369353" lon="14.087339"><ele>391.0</ele><time>2026-04-25T12:00:44.058Z</time></trkpt><trkpt lat="45.3694007" lon="14.0872151"><ele>391.0</ele><time>2026-04-25T12:00:45.061Z</time></trkpt><trkpt lat="45.3694559" lon="14.0870913"><ele>391.0</ele><time>2026-04-25T12:00:46.065Z</time></trkpt><trkpt lat="45.3695172" lon="14.0869657"><ele>391.25</ele><time>2026-04-25T12:00:47.056Z</time></trkpt><trkpt lat="45.3695779" lon="14.0868367"><ele>391.5</ele><time>2026-04-25T12:00:48.069Z</time></trkpt><trkpt lat="45.3696453" lon="14.0866977"><ele>391.75</ele><time>2026-04-25T12:00:49.057Z</time></trkpt><trkpt lat="45.3697197" lon="14.0865723"><ele>392.0</ele><time>2026-04-25T12:00:50.054Z</time></trkpt><trkpt lat="45.3697956" lon="14.0864529"><ele>392.0</ele><time>2026-04-25T12:00:51.062Z</time></trkpt><trkpt lat="45.3698653" lon="14.0863382"><ele>392.0</ele><time>2026-04-25T12:00:52.057Z</time></trkpt><trkpt lat="45.3699239" lon="14.086228"><ele>392.0</ele><time>2026-04-25T12:00:53.064Z</time></trkpt><trkpt lat="45.3699892" lon="14.0861117"><ele>392.0</ele><time>2026-04-25T12:00:54.075Z</time></trkpt><trkpt lat="45.3700593" lon="14.0859971"><ele>392.0</ele><time>2026-04-25T12:00:55.061Z</time></trkpt><trkpt lat="45.370138" lon="14.0858842"><ele>392.0</ele><time>2026-04-25T12:00:56.078Z</time></trkpt><trkpt lat="45.3702144" lon="14.0857679"><ele>392.0</ele><time>2026-04-25T12:00:57.073Z</time></trkpt><trkpt lat="45.3702953" lon="14.0856448"><ele>392.0</ele><time>2026-04-25T12:00:58.076Z</time></trkpt><trkpt lat="45.3703751" lon="14.0855165"><ele>392.0</ele><time>2026-04-25T12:00:59.068Z</time></trkpt><trkpt lat="45.3704528" lon="14.0853849"><ele>392.20000000000005</ele><time>2026-04-25T12:01:00.08Z</time></trkpt><trkpt lat="45.3705233" lon="14.0852583"><ele>392.4</ele><time>2026-04-25T12:01:01.062Z</time></trkpt><trkpt lat="45.3705877" lon="14.0851466"><ele>392.6</ele><time>2026-04-25T12:01:02.065Z</time></trkpt><trkpt lat="45.3706488" lon="14.0850387"><ele>392.79999999999995</ele><time>2026-04-25T12:01:03.065Z</time></trkpt><trkpt lat="45.3707156" lon="14.0849296"><ele>393.0</ele><time>2026-04-25T12:01:04.067Z</time></trkpt><trkpt lat="45.3707892" lon="14.0848212"><ele>393.0</ele><time>2026-04-25T12:01:05.085Z</time></trkpt><trkpt lat="45.3708713" lon="14.0846955"><ele>393.0</ele><time>2026-04-25T12:01:06.075Z</time></trkpt><trkpt lat="45.3709534" lon="14.0845634"><ele>393.0</ele><time>2026-04-25T12:01:07.071Z</time></trkpt><trkpt lat="45.3710402" lon="14.0844553"><ele>393.0</ele><time>2026-04-25T12:01:08.066Z</time></trkpt><trkpt lat="45.3711174" lon="14.0843609"><ele>393.0</ele><time>2026-04-25T12:01:09.066Z</time></trkpt><trkpt lat="45.3711797" lon="14.0842752"><ele>393.0</ele><time>2026-04-25T12:01:10.079Z</time></trkpt><trkpt lat="45.3712326" lon="14.0841745"><ele>393.0</ele><time>2026-04-25T12:01:11.065Z</time></trkpt><trkpt lat="45.3712705" lon="14.0840473"><ele>393.0</ele><time>2026-04-25T12:01:12.071Z</time></trkpt><trkpt lat="45.3713071" lon="14.0839005"><ele>393.0</ele><time>2026-04-25T12:01:13.057Z</time></trkpt><trkpt lat="45.3713617" lon="14.0837783"><ele>393.59999999999997</ele><time>2026-04-25T12:01:14.061Z</time></trkpt><trkpt lat="45.3714345" lon="14.0836693"><ele>394.2</ele><time>2026-04-25T12:01:15.055Z</time></trkpt><trkpt lat="45.3715184" lon="14.0835664"><ele>394.8</ele><time>2026-04-25T12:01:16.058Z</time></trkpt><trkpt lat="45.3716099" lon="14.0834718"><ele>395.4</ele><time>2026-04-25T12:01:17.061Z</time></trkpt><trkpt lat="45.371697" lon="14.0833652"><ele>396.0</ele><time>2026-04-25T12:01:18.068Z</time></trkpt><trkpt lat="45.3717859" lon="14.0832378"><ele>396.25</ele><time>2026-04-25T12:01:19.074Z</time></trkpt><trkpt lat="45.3718756" lon="14.0831075"><ele>396.5</ele><time>2026-04-25T12:01:20.063Z</time></trkpt><trkpt lat="45.3719582" lon="14.0829808"><ele>396.75</ele><time>2026-04-25T12:01:21.076Z</time></trkpt><trkpt lat="45.3720373" lon="14.0828441"><ele>397.0</ele><time>2026-04-25T12:01:22.088Z</time></trkpt><trkpt lat="45.3721129" lon="14.0827017"><ele>396.5</ele><time>2026-04-25T12:01:23.069Z</time></trkpt><trkpt lat="45.372194" lon="14.08255"><ele>396.0</ele><time>2026-04-25T12:01:24.085Z</time></trkpt><trkpt lat="45.3722777" lon="14.0823888"><ele>395.5</ele><time>2026-04-25T12:01:25.076Z</time></trkpt><trkpt lat="45.3723564" lon="14.0822314"><ele>395.0</ele><time>2026-04-25T12:01:26.073Z</time></trkpt><trkpt lat="45.3724228" lon="14.082079"><ele>395.0</ele><time>2026-04-25T12:01:27.073Z</time></trkpt><trkpt lat="45.3724811" lon="14.0819451"><ele>395.0</ele><time>2026-04-25T12:01:28.079Z</time></trkpt><trkpt lat="45.3725365" lon="14.0818207"><ele>395.0</ele><time>2026-04-25T12:01:29.071Z</time></trkpt><trkpt lat="45.3726032" lon="14.0816998"><ele>395.0</ele><time>2026-04-25T12:01:30.076Z</time></trkpt><trkpt lat="45.3726784" lon="14.0815693"><ele>395.0</ele><time>2026-04-25T12:01:31.089Z</time></trkpt><trkpt lat="45.3727604" lon="14.081438"><ele>395.25</ele><time>2026-04-25T12:01:32.073Z</time></trkpt><trkpt lat="45.3728464" lon="14.0812916"><ele>395.5</ele><time>2026-04-25T12:01:33.069Z</time></trkpt><trkpt lat="45.3729327" lon="14.0811377"><ele>395.75</ele><time>2026-04-25T12:01:34.069Z</time></trkpt><trkpt lat="45.3730293" lon="14.0809763"><ele>396.0</ele><time>2026-04-25T12:01:35.068Z</time></trkpt><trkpt lat="45.3731312" lon="14.0808223"><ele>395.6</ele><time>2026-04-25T12:01:36.08Z</time></trkpt><trkpt lat="45.3732323" lon="14.0806803"><ele>395.20000000000005</ele><time>2026-04-25T12:01:37.072Z</time></trkpt><trkpt lat="45.3733223" lon="14.0805628"><ele>394.79999999999995</ele><time>2026-04-25T12:01:38.072Z</time></trkpt><trkpt lat="45.3733979" lon="14.0804769"><ele>394.4</ele><time>2026-04-25T12:01:39.061Z</time></trkpt><trkpt lat="45.3734661" lon="14.0804084"><ele>394.0</ele><time>2026-04-25T12:01:40.061Z</time></trkpt><trkpt lat="45.3735315" lon="14.0803542"><ele>394.0</ele><time>2026-04-25T12:01:41.075Z</time></trkpt><trkpt lat="45.3735953" lon="14.0803317"><ele>394.0</ele><time>2026-04-25T12:01:42.062Z</time></trkpt><trkpt lat="45.3736662" lon="14.0803394"><ele>394.0</ele><time>2026-04-25T12:01:43.059Z</time></trkpt><trkpt lat="45.3737403" lon="14.0803679"><ele>394.0</ele><time>2026-04-25T12:01:44.056Z</time></trkpt><trkpt lat="45.3738059" lon="14.0803736"><ele>394.0</ele><time>2026-04-25T12:01:45.063Z</time></trkpt><trkpt lat="45.3738595" lon="14.0803065"><ele>394.0</ele><time>2026-04-25T12:01:47.061Z</time></trkpt><trkpt lat="45.3738341" lon="14.0802011"><ele>394.0</ele><time>2026-04-25T12:01:49.064Z</time></trkpt><trkpt lat="45.373745" lon="14.0800992"><ele>394.0</ele><time>2026-04-25T12:01:51.056Z</time></trkpt><trkpt lat="45.3736758" lon="14.0799992"><ele>394.0</ele><time>2026-04-25T12:01:53.058Z</time></trkpt><trkpt lat="45.3736431" lon="14.079878"><ele>394.0</ele><time>2026-04-25T12:01:55.059Z</time></trkpt><trkpt lat="45.3737246" lon="14.0797605"><ele>394.0</ele><time>2026-04-25T12:01:57.064Z</time></trkpt><trkpt lat="45.3737979" lon="14.0796975"><ele>394.0</ele><time>2026-04-25T12:01:58.059Z</time></trkpt><trkpt lat="45.3738815" lon="14.0795993"><ele>393.5</ele><time>2026-04-25T12:01:59.061Z</time></trkpt><trkpt lat="45.3739711" lon="14.07949"><ele>393.0</ele><time>2026-04-25T12:02:00.064Z</time></trkpt><trkpt lat="45.3740652" lon="14.0793758"><ele>392.5</ele><time>2026-04-25T12:02:01.059Z</time></trkpt><trkpt lat="45.3741659" lon="14.0792486"><ele>392.0</ele><time>2026-04-25T12:02:02.063Z</time></trkpt><trkpt lat="45.3742688" lon="14.0791144"><ele>391.5</ele><time>2026-04-25T12:02:03.071Z</time></trkpt><trkpt lat="45.3743713" lon="14.0789826"><ele>391.0</ele><time>2026-04-25T12:02:04.062Z</time></trkpt><trkpt lat="45.3744652" lon="14.0788641"><ele>390.5</ele><time>2026-04-25T12:02:05.059Z</time></trkpt><trkpt lat="45.3745508" lon="14.0787488"><ele>390.0</ele><time>2026-04-25T12:02:06.061Z</time></trkpt><trkpt lat="45.3746319" lon="14.0786376"><ele>390.0</ele><time>2026-04-25T12:02:07.061Z</time></trkpt><trkpt lat="45.3746935" lon="14.0785447"><ele>390.0</ele><time>2026-04-25T12:02:08.069Z</time></trkpt><trkpt lat="45.3747455" lon="14.0784606"><ele>390.0</ele><time>2026-04-25T12:02:09.055Z</time></trkpt><trkpt lat="45.3747813" lon="14.0783036"><ele>390.0</ele><time>2026-04-25T12:02:11.067Z</time></trkpt><trkpt lat="45.3747717" lon="14.0781318"><ele>390.0</ele><time>2026-04-25T12:02:13.055Z</time></trkpt><trkpt lat="45.3748559" lon="14.0780112"><ele>391.0</ele><time>2026-04-25T12:02:15.059Z</time></trkpt><trkpt lat="45.3749334" lon="14.0778967"><ele>391.0</ele><time>2026-04-25T12:02:17.062Z</time></trkpt><trkpt lat="45.3749839" lon="14.0777875"><ele>391.0</ele><time>2026-04-25T12:02:19.087Z</time></trkpt><trkpt lat="45.3749831" lon="14.0776614"><ele>391.0</ele><time>2026-04-25T12:02:21.064Z</time></trkpt><trkpt lat="45.3749177" lon="14.0775885"><ele>391.0</ele><time>2026-04-25T12:02:24.069Z</time></trkpt></trkseg><trkseg><trkpt lat="45.3749608" lon="14.0776122"><ele>391.00000000000006</ele><time>2026-04-25T13:15:50.052Z</time></trkpt><trkpt lat="45.3750083" lon="14.0776871"><ele>391.0</ele><time>2026-04-25T13:15:51.05Z</time></trkpt><trkpt lat="45.375076" lon="14.0777919"><ele>391.0</ele><time>2026-04-25T13:15:53.054Z</time></trkpt><trkpt lat="45.3751456" lon="14.0778339"><ele>391.0</ele><time>2026-04-25T13:15:55.055Z</time></trkpt><trkpt lat="45.3752089" lon="14.0778137"><ele>391.00000000000006</ele><time>2026-04-25T13:15:56.057Z</time></trkpt><trkpt lat="45.375286" lon="14.0777553"><ele>391.0</ele><time>2026-04-25T13:15:57.053Z</time></trkpt><trkpt lat="45.3753664" lon="14.0776626"><ele>391.0</ele><time>2026-04-25T13:15:58.049Z</time></trkpt><trkpt lat="45.3754614" lon="14.0775526"><ele>391.0</ele><time>2026-04-25T13:15:59.071Z</time></trkpt><trkpt lat="45.3755683" lon="14.0774491"><ele>391.0</ele><time>2026-04-25T13:16:00.064Z</time></trkpt><trkpt lat="45.3756907" lon="14.0773297"><ele>391.0</ele><time>2026-04-25T13:16:01.049Z</time></trkpt><trkpt lat="45.3758117" lon="14.0772055"><ele>390.25</ele><time>2026-04-25T13:16:02.045Z</time></trkpt><trkpt lat="45.3759322" lon="14.0770879"><ele>389.5</ele><time>2026-04-25T13:16:03.04Z</time></trkpt><trkpt lat="45.3760519" lon="14.0769823"><ele>388.75</ele><time>2026-04-25T13:16:04.044Z</time></trkpt><trkpt lat="45.3761635" lon="14.0768959"><ele>388.0</ele><time>2026-04-25T13:16:05.036Z</time></trkpt><trkpt lat="45.3762677" lon="14.0768228"><ele>388.5</ele><time>2026-04-25T13:16:06.038Z</time></trkpt><trkpt lat="45.3763765" lon="14.0767408"><ele>389.0</ele><time>2026-04-25T13:16:07.038Z</time></trkpt><trkpt lat="45.376489" lon="14.0766564"><ele>389.5</ele><time>2026-04-25T13:16:08.041Z</time></trkpt><trkpt lat="45.3766047" lon="14.076574"><ele>390.0</ele><time>2026-04-25T13:16:09.04Z</time></trkpt><trkpt lat="45.3767268" lon="14.0764935"><ele>390.0</ele><time>2026-04-25T13:16:10.038Z</time></trkpt><trkpt lat="45.3768548" lon="14.0764226"><ele>390.0</ele><time>2026-04-25T13:16:11.049Z</time></trkpt><trkpt lat="45.3769863" lon="14.0763586"><ele>390.0</ele><time>2026-04-25T13:16:12.039Z</time></trkpt><trkpt lat="45.3771221" lon="14.0762952"><ele>390.0</ele><time>2026-04-25T13:16:13.049Z</time></trkpt><trkpt lat="45.3772607" lon="14.0762293"><ele>390.5</ele><time>2026-04-25T13:16:14.041Z</time></trkpt><trkpt lat="45.377403" lon="14.0761658"><ele>391.0</ele><time>2026-04-25T13:16:15.033Z</time></trkpt><trkpt lat="45.3775426" lon="14.0761094"><ele>391.5</ele><time>2026-04-25T13:16:16.054Z</time></trkpt><trkpt lat="45.377682" lon="14.0760543"><ele>392.0</ele><time>2026-04-25T13:16:17.048Z</time></trkpt><trkpt lat="45.3778232" lon="14.0760061"><ele>392.0</ele><time>2026-04-25T13:16:18.049Z</time></trkpt><trkpt lat="45.3779677" lon="14.0759562"><ele>392.0</ele><time>2026-04-25T13:16:19.038Z</time></trkpt><trkpt lat="45.378111" lon="14.0759136"><ele>392.0</ele><time>2026-04-25T13:16:20.049Z</time></trkpt><trkpt lat="45.3782509" lon="14.0758708"><ele>392.0</ele><time>2026-04-25T13:16:21.041Z</time></trkpt><trkpt lat="45.37839" lon="14.0758219"><ele>391.25</ele><time>2026-04-25T13:16:22.049Z</time></trkpt><trkpt lat="45.3785282" lon="14.0757679"><ele>390.5</ele><time>2026-04-25T13:16:23.039Z</time></trkpt><trkpt lat="45.3786659" lon="14.0757078"><ele>389.75</ele><time>2026-04-25T13:16:24.042Z</time></trkpt><trkpt lat="45.3788008" lon="14.075636"><ele>389.0</ele><time>2026-04-25T13:16:25.037Z</time></trkpt><trkpt lat="45.378935" lon="14.0755453"><ele>387.0</ele><time>2026-04-25T13:16:26.034Z</time></trkpt><trkpt lat="45.3790719" lon="14.0754367"><ele>385.0</ele><time>2026-04-25T13:16:27.042Z</time></trkpt><trkpt lat="45.3792076" lon="14.0753146"><ele>383.0</ele><time>2026-04-25T13:16:28.041Z</time></trkpt><trkpt lat="45.3793429" lon="14.0751823"><ele>383.0</ele><time>2026-04-25T13:16:29.038Z</time></trkpt><trkpt lat="45.3794747" lon="14.0750397"><ele>383.0</ele><time>2026-04-25T13:16:30.041Z</time></trkpt><trkpt lat="45.3796063" lon="14.0748896"><ele>383.0</ele><time>2026-04-25T13:16:31.034Z</time></trkpt><trkpt lat="45.3797378" lon="14.074737"><ele>380.6666666666667</ele><time>2026-04-25T13:16:32.04Z</time></trkpt><trkpt lat="45.3798695" lon="14.0745855"><ele>378.3333333333333</ele><time>2026-04-25T13:16:33.035Z</time></trkpt><trkpt lat="45.3799967" lon="14.0744324"><ele>376.0</ele><time>2026-04-25T13:16:34.047Z</time></trkpt><trkpt lat="45.3801235" lon="14.0742788"><ele>376.0</ele><time>2026-04-25T13:16:35.04Z</time></trkpt><trkpt lat="45.3802535" lon="14.0741286"><ele>376.0</ele><time>2026-04-25T13:16:36.045Z</time></trkpt><trkpt lat="45.3803885" lon="14.0739782"><ele>376.0</ele><time>2026-04-25T13:16:37.04Z</time></trkpt><trkpt lat="45.3805292" lon="14.0738421"><ele>371.3333333333333</ele><time>2026-04-25T13:16:38.039Z</time></trkpt><trkpt lat="45.3806859" lon="14.0737346"><ele>366.6666666666667</ele><time>2026-04-25T13:16:39.045Z</time></trkpt><trkpt lat="45.3808511" lon="14.0736558"><ele>362.0</ele><time>2026-04-25T13:16:40.033Z</time></trkpt><trkpt lat="45.3810246" lon="14.0735924"><ele>362.0</ele><time>2026-04-25T13:16:41.051Z</time></trkpt><trkpt lat="45.381195" lon="14.0735343"><ele>362.0</ele><time>2026-04-25T13:16:42.037Z</time></trkpt><trkpt lat="45.381357" lon="14.0734831"><ele>362.0</ele><time>2026-04-25T13:16:43.037Z</time></trkpt><trkpt lat="45.3815149" lon="14.0734197"><ele>363.33333333333337</ele><time>2026-04-25T13:16:44.033Z</time></trkpt><trkpt lat="45.3816679" lon="14.0733259"><ele>364.6666666666667</ele><time>2026-04-25T13:16:45.05Z</time></trkpt><trkpt lat="45.3818108" lon="14.0732064"><ele>366.0</ele><time>2026-04-25T13:16:46.051Z</time></trkpt><trkpt lat="45.3819505" lon="14.0730569"><ele>364.3333333333333</ele><time>2026-04-25T13:16:47.052Z</time></trkpt><trkpt lat="45.3820779" lon="14.0728974"><ele>362.66666666666663</ele><time>2026-04-25T13:16:48.05Z</time></trkpt><trkpt lat="45.3822037" lon="14.0727366"><ele>361.0</ele><time>2026-04-25T13:16:49.04Z</time></trkpt><trkpt lat="45.3823344" lon="14.072583"><ele>361.0</ele><time>2026-04-25T13:16:50.057Z</time></trkpt><trkpt lat="45.3824697" lon="14.0724455"><ele>361.0</ele><time>2026-04-25T13:16:51.042Z</time></trkpt><trkpt lat="45.3826164" lon="14.0723275"><ele>361.0</ele><time>2026-04-25T13:16:52.047Z</time></trkpt><trkpt lat="45.382771" lon="14.0722206"><ele>359.3333333333333</ele><time>2026-04-25T13:16:53.057Z</time></trkpt><trkpt lat="45.3829306" lon="14.0721192"><ele>357.6666666666667</ele><time>2026-04-25T13:16:54.051Z</time></trkpt><trkpt lat="45.3830922" lon="14.0720235"><ele>356.0</ele><time>2026-04-25T13:16:55.048Z</time></trkpt><trkpt lat="45.3832499" lon="14.0719245"><ele>356.0</ele><time>2026-04-25T13:16:56.044Z</time></trkpt><trkpt lat="45.3833941" lon="14.0718128"><ele>356.0</ele><time>2026-04-25T13:16:57.058Z</time></trkpt><trkpt lat="45.3835381" lon="14.0716926"><ele>356.0</ele><time>2026-04-25T13:16:58.05Z</time></trkpt><trkpt lat="45.3836725" lon="14.0715465"><ele>355.6666666666667</ele><time>2026-04-25T13:16:59.043Z</time></trkpt><trkpt lat="45.3837999" lon="14.0713712"><ele>355.3333333333333</ele><time>2026-04-25T13:17:00.041Z</time></trkpt><trkpt lat="45.3839162" lon="14.0711751"><ele>355.0</ele><time>2026-04-25T13:17:01.029Z</time></trkpt><trkpt lat="45.3840217" lon="14.0709761"><ele>352.0</ele><time>2026-04-25T13:17:02.048Z</time></trkpt><trkpt lat="45.384118" lon="14.0707617"><ele>349.0</ele><time>2026-04-25T13:17:03.043Z</time></trkpt><trkpt lat="45.3842041" lon="14.070533"><ele>346.0</ele><time>2026-04-25T13:17:04.043Z</time></trkpt><trkpt lat="45.3842876" lon="14.0702999"><ele>346.0</ele><time>2026-04-25T13:17:05.045Z</time></trkpt><trkpt lat="45.3843736" lon="14.0700671"><ele>346.0</ele><time>2026-04-25T13:17:06.037Z</time></trkpt><trkpt lat="45.38446" lon="14.069841"><ele>346.0</ele><time>2026-04-25T13:17:07.042Z</time></trkpt><trkpt lat="45.3845473" lon="14.0696175"><ele>345.66666666666663</ele><time>2026-04-25T13:17:08.045Z</time></trkpt><trkpt lat="45.3846312" lon="14.0693963"><ele>345.3333333333333</ele><time>2026-04-25T13:17:09.039Z</time></trkpt><trkpt lat="45.3847138" lon="14.0691823"><ele>345.0</ele><time>2026-04-25T13:17:10.036Z</time></trkpt><trkpt lat="45.3847953" lon="14.0689749"><ele>343.25</ele><time>2026-04-25T13:17:11.038Z</time></trkpt><trkpt lat="45.3848743" lon="14.0687826"><ele>341.5</ele><time>2026-04-25T13:17:12.037Z</time></trkpt><trkpt lat="45.3849528" lon="14.0686039"><ele>339.75</ele><time>2026-04-25T13:17:13.04Z</time></trkpt><trkpt lat="45.3850288" lon="14.0684332"><ele>338.0</ele><time>2026-04-25T13:17:14.042Z</time></trkpt><trkpt lat="45.3851041" lon="14.0682659"><ele>336.25</ele><time>2026-04-25T13:17:15.042Z</time></trkpt><trkpt lat="45.3851842" lon="14.0681027"><ele>334.5</ele><time>2026-04-25T13:17:16.035Z</time></trkpt><trkpt lat="45.3852694" lon="14.0679364"><ele>332.75</ele><time>2026-04-25T13:17:17.036Z</time></trkpt><trkpt lat="45.3853592" lon="14.0677657"><ele>331.0</ele><time>2026-04-25T13:17:18.046Z</time></trkpt><trkpt lat="45.3854521" lon="14.0675835"><ele>333.66666666666663</ele><time>2026-04-25T13:17:19.036Z</time></trkpt><trkpt lat="45.3855407" lon="14.0674"><ele>336.3333333333333</ele><time>2026-04-25T13:17:20.038Z</time></trkpt><trkpt lat="45.3856247" lon="14.0672058"><ele>339.0</ele><time>2026-04-25T13:17:21.051Z</time></trkpt><trkpt lat="45.3857001" lon="14.0669983"><ele>339.0</ele><time>2026-04-25T13:17:22.055Z</time></trkpt><trkpt lat="45.3857692" lon="14.0667836"><ele>339.0</ele><time>2026-04-25T13:17:23.053Z</time></trkpt><trkpt lat="45.3858304" lon="14.0665592"><ele>339.0</ele><time>2026-04-25T13:17:24.055Z</time></trkpt><trkpt lat="45.3858816" lon="14.0663408"><ele>337.75</ele><time>2026-04-25T13:17:25.034Z</time></trkpt><trkpt lat="45.3859216" lon="14.0661311"><ele>336.5</ele><time>2026-04-25T13:17:26.042Z</time></trkpt><trkpt lat="45.3859573" lon="14.0659325"><ele>335.25</ele><time>2026-04-25T13:17:27.038Z</time></trkpt><trkpt lat="45.3859888" lon="14.0657461"><ele>334.0</ele><time>2026-04-25T13:17:28.038Z</time></trkpt><trkpt lat="45.386025" lon="14.06556"><ele>333.5</ele><time>2026-04-25T13:17:29.039Z</time></trkpt><trkpt lat="45.3860667" lon="14.0653708"><ele>333.0</ele><time>2026-04-25T13:17:30.039Z</time></trkpt><trkpt lat="45.3861204" lon="14.065179"><ele>332.5</ele><time>2026-04-25T13:17:31.04Z</time></trkpt><trkpt lat="45.3861914" lon="14.0649869"><ele>332.0</ele><time>2026-04-25T13:17:32.041Z</time></trkpt><trkpt lat="45.3862793" lon="14.0647999"><ele>330.33333333333337</ele><time>2026-04-25T13:17:33.04Z</time></trkpt><trkpt lat="45.3863833" lon="14.064622"><ele>328.6666666666667</ele><time>2026-04-25T13:17:34.038Z</time></trkpt><trkpt lat="45.386501" lon="14.0644591"><ele>327.0</ele><time>2026-04-25T13:17:35.04Z</time></trkpt><trkpt lat="45.3866345" lon="14.0643024"><ele>327.0</ele><time>2026-04-25T13:17:36.045Z</time></trkpt><trkpt lat="45.3867869" lon="14.0641574"><ele>327.0</ele><time>2026-04-25T13:17:37.044Z</time></trkpt><trkpt lat="45.3869504" lon="14.0640332"><ele>327.0</ele><time>2026-04-25T13:17:38.043Z</time></trkpt><trkpt lat="45.3871169" lon="14.0639189"><ele>325.0</ele><time>2026-04-25T13:17:39.039Z</time></trkpt><trkpt lat="45.3872871" lon="14.0638035"><ele>323.0</ele><time>2026-04-25T13:17:40.045Z</time></trkpt><trkpt lat="45.3874559" lon="14.063688"><ele>321.0</ele><time>2026-04-25T13:17:41.045Z</time></trkpt><trkpt lat="45.387628" lon="14.0635709"><ele>321.0</ele><time>2026-04-25T13:17:42.044Z</time></trkpt><trkpt lat="45.3877959" lon="14.063453"><ele>321.0</ele><time>2026-04-25T13:17:43.042Z</time></trkpt><trkpt lat="45.38796" lon="14.0633369"><ele>321.0</ele><time>2026-04-25T13:17:44.045Z</time></trkpt><trkpt lat="45.3881223" lon="14.0632181"><ele>318.0</ele><time>2026-04-25T13:17:45.067Z</time></trkpt><trkpt lat="45.388284" lon="14.063105"><ele>315.0</ele><time>2026-04-25T13:17:46.044Z</time></trkpt><trkpt lat="45.3884456" lon="14.0629929"><ele>312.0</ele><time>2026-04-25T13:17:47.045Z</time></trkpt><trkpt lat="45.3886051" lon="14.0628813"><ele>312.0</ele><time>2026-04-25T13:17:48.05Z</time></trkpt><trkpt lat="45.3887618" lon="14.0627634"><ele>312.0</ele><time>2026-04-25T13:17:49.046Z</time></trkpt><trkpt lat="45.38891" lon="14.0626252"><ele>312.0</ele><time>2026-04-25T13:17:50.041Z</time></trkpt><trkpt lat="45.3890411" lon="14.0624634"><ele>311.6666666666667</ele><time>2026-04-25T13:17:51.038Z</time></trkpt><trkpt lat="45.3891504" lon="14.062277"><ele>311.33333333333337</ele><time>2026-04-25T13:17:52.042Z</time></trkpt><trkpt lat="45.3892443" lon="14.0620722"><ele>311.0</ele><time>2026-04-25T13:17:53.041Z</time></trkpt><trkpt lat="45.3893252" lon="14.0618503"><ele>310.0</ele><time>2026-04-25T13:17:54.05Z</time></trkpt><trkpt lat="45.3893892" lon="14.0616135"><ele>309.0</ele><time>2026-04-25T13:17:55.053Z</time></trkpt><trkpt lat="45.3894357" lon="14.0613715"><ele>308.0</ele><time>2026-04-25T13:17:56.048Z</time></trkpt><trkpt lat="45.3894664" lon="14.0611174"><ele>308.0</ele><time>2026-04-25T13:17:57.041Z</time></trkpt><trkpt lat="45.3894849" lon="14.0608463"><ele>308.0</ele><time>2026-04-25T13:17:58.042Z</time></trkpt><trkpt lat="45.3894977" lon="14.0605842"><ele>308.0</ele><time>2026-04-25T13:17:59.039Z</time></trkpt><trkpt lat="45.3895036" lon="14.0603339"><ele>307.33333333333337</ele><time>2026-04-25T13:18:00.052Z</time></trkpt><trkpt lat="45.3895116" lon="14.0600964"><ele>306.6666666666667</ele><time>2026-04-25T13:18:01.053Z</time></trkpt><trkpt lat="45.3895227" lon="14.0598623"><ele>306.0</ele><time>2026-04-25T13:18:02.043Z</time></trkpt><trkpt lat="45.3895312" lon="14.0596295"><ele>305.6666666666667</ele><time>2026-04-25T13:18:03.05Z</time></trkpt><trkpt lat="45.3895398" lon="14.059401"><ele>305.33333333333337</ele><time>2026-04-25T13:18:04.051Z</time></trkpt><trkpt lat="45.389548" lon="14.0591748"><ele>305.0</ele><time>2026-04-25T13:18:05.042Z</time></trkpt><trkpt lat="45.3895613" lon="14.058945"><ele>305.0</ele><time>2026-04-25T13:18:06.053Z</time></trkpt><trkpt lat="45.3895849" lon="14.0587131"><ele>305.0</ele><time>2026-04-25T13:18:07.056Z</time></trkpt><trkpt lat="45.3896341" lon="14.0584842"><ele>305.0</ele><time>2026-04-25T13:18:08.041Z</time></trkpt><trkpt lat="45.3897129" lon="14.0582656"><ele>306.0</ele><time>2026-04-25T13:18:09.05Z</time></trkpt><trkpt lat="45.3898078" lon="14.0580555"><ele>307.0</ele><time>2026-04-25T13:18:10.051Z</time></trkpt><trkpt lat="45.389911" lon="14.0578523"><ele>308.0</ele><time>2026-04-25T13:18:11.038Z</time></trkpt><trkpt lat="45.3900092" lon="14.0576591"><ele>308.0</ele><time>2026-04-25T13:18:12.045Z</time></trkpt><trkpt lat="45.390099" lon="14.0574601"><ele>308.0</ele><time>2026-04-25T13:18:13.043Z</time></trkpt><trkpt lat="45.3901707" lon="14.0572434"><ele>308.0</ele><time>2026-04-25T13:18:14.048Z</time></trkpt><trkpt lat="45.3902127" lon="14.0570106"><ele>307.6666666666667</ele><time>2026-04-25T13:18:15.047Z</time></trkpt><trkpt lat="45.3902345" lon="14.0567633"><ele>307.3333333333333</ele><time>2026-04-25T13:18:16.039Z</time></trkpt><trkpt lat="45.3902347" lon="14.056515"><ele>307.0</ele><time>2026-04-25T13:18:17.039Z</time></trkpt><trkpt lat="45.3902229" lon="14.0562636"><ele>307.0</ele><time>2026-04-25T13:18:18.037Z</time></trkpt><trkpt lat="45.3902054" lon="14.0560082"><ele>307.0</ele><time>2026-04-25T13:18:19.041Z</time></trkpt><trkpt lat="45.3901914" lon="14.0557485"><ele>307.0</ele><time>2026-04-25T13:18:20.034Z</time></trkpt><trkpt lat="45.390184" lon="14.0555017"><ele>306.66666666666663</ele><time>2026-04-25T13:18:21.037Z</time></trkpt><trkpt lat="45.3901894" lon="14.0552588"><ele>306.3333333333333</ele><time>2026-04-25T13:18:22.036Z</time></trkpt><trkpt lat="45.3902108" lon="14.0550196"><ele>306.0</ele><time>2026-04-25T13:18:23.036Z</time></trkpt><trkpt lat="45.3902448" lon="14.0547797"><ele>304.3333333333333</ele><time>2026-04-25T13:18:24.041Z</time></trkpt><trkpt lat="45.390293" lon="14.0545575"><ele>302.66666666666663</ele><time>2026-04-25T13:18:25.033Z</time></trkpt><trkpt lat="45.3903481" lon="14.05436"><ele>301.0</ele><time>2026-04-25T13:18:26.037Z</time></trkpt><trkpt lat="45.3904005" lon="14.0541721"><ele>301.0</ele><time>2026-04-25T13:18:27.035Z</time></trkpt><trkpt lat="45.3904608" lon="14.0539857"><ele>301.0</ele><time>2026-04-25T13:18:28.038Z</time></trkpt><trkpt lat="45.3905306" lon="14.0537953"><ele>301.0</ele><time>2026-04-25T13:18:29.035Z</time></trkpt><trkpt lat="45.390593" lon="14.0536055"><ele>301.0</ele><time>2026-04-25T13:18:30.036Z</time></trkpt><trkpt lat="45.3906401" lon="14.0534113"><ele>299.75</ele><time>2026-04-25T13:18:31.037Z</time></trkpt><trkpt lat="45.3906651" lon="14.0532206"><ele>298.5</ele><time>2026-04-25T13:18:32.043Z</time></trkpt><trkpt lat="45.3906753" lon="14.0530308"><ele>297.25</ele><time>2026-04-25T13:18:33.039Z</time></trkpt><trkpt lat="45.39068" lon="14.0528386"><ele>296.0</ele><time>2026-04-25T13:18:34.046Z</time></trkpt><trkpt lat="45.3906928" lon="14.0526383"><ele>295.6666666666667</ele><time>2026-04-25T13:18:35.044Z</time></trkpt><trkpt lat="45.3907264" lon="14.0524359"><ele>295.3333333333333</ele><time>2026-04-25T13:18:36.042Z</time></trkpt><trkpt lat="45.3907847" lon="14.0522445"><ele>295.0</ele><time>2026-04-25T13:18:37.04Z</time></trkpt><trkpt lat="45.3908452" lon="14.0520341"><ele>295.0</ele><time>2026-04-25T13:18:38.041Z</time></trkpt><trkpt lat="45.3908917" lon="14.0518184"><ele>295.0</ele><time>2026-04-25T13:18:39.041Z</time></trkpt><trkpt lat="45.3909313" lon="14.0515917"><ele>295.0</ele><time>2026-04-25T13:18:40.043Z</time></trkpt><trkpt lat="45.3909729" lon="14.0513616"><ele>297.3333333333333</ele><time>2026-04-25T13:18:41.044Z</time></trkpt><trkpt lat="45.3910231" lon="14.0511386"><ele>299.6666666666667</ele><time>2026-04-25T13:18:42.046Z</time></trkpt><trkpt lat="45.3910937" lon="14.0509383"><ele>302.0</ele><time>2026-04-25T13:18:43.05Z</time></trkpt><trkpt lat="45.3911859" lon="14.0507642"><ele>303.0</ele><time>2026-04-25T13:18:44.04Z</time></trkpt><trkpt lat="45.3912905" lon="14.0505928"><ele>304.0</ele><time>2026-04-25T13:18:45.042Z</time></trkpt><trkpt lat="45.391394" lon="14.0504192"><ele>305.0</ele><time>2026-04-25T13:18:46.039Z</time></trkpt><trkpt lat="45.3914974" lon="14.0502485"><ele>306.25</ele><time>2026-04-25T13:18:47.039Z</time></trkpt><trkpt lat="45.3915874" lon="14.0500776"><ele>307.5</ele><time>2026-04-25T13:18:48.04Z</time></trkpt><trkpt lat="45.3916621" lon="14.0498955"><ele>308.75</ele><time>2026-04-25T13:18:49.044Z</time></trkpt><trkpt lat="45.3916899" lon="14.0496947"><ele>310.0</ele><time>2026-04-25T13:18:50.045Z</time></trkpt><trkpt lat="45.3916928" lon="14.0494802"><ele>311.66666666666663</ele><time>2026-04-25T13:18:51.033Z</time></trkpt><trkpt lat="45.3916935" lon="14.0492547"><ele>313.3333333333333</ele><time>2026-04-25T13:18:52.038Z</time></trkpt><trkpt lat="45.391693" lon="14.0490256"><ele>315.0</ele><time>2026-04-25T13:18:53.034Z</time></trkpt><trkpt lat="45.391693" lon="14.0487953"><ele>314.75</ele><time>2026-04-25T13:18:54.044Z</time></trkpt><trkpt lat="45.3916897" lon="14.0485872"><ele>314.5</ele><time>2026-04-25T13:18:55.041Z</time></trkpt><trkpt lat="45.3916936" lon="14.0484055"><ele>314.25</ele><time>2026-04-25T13:18:56.048Z</time></trkpt><trkpt lat="45.3917084" lon="14.0482545"><ele>314.0</ele><time>2026-04-25T13:18:57.037Z</time></trkpt><trkpt lat="45.3917489" lon="14.0481359"><ele>314.0</ele><time>2026-04-25T13:18:58.054Z</time></trkpt><trkpt lat="45.3918175" lon="14.0480717"><ele>314.0</ele><time>2026-04-25T13:18:59.038Z</time></trkpt><trkpt lat="45.3918989" lon="14.0480431"><ele>314.0</ele><time>2026-04-25T13:19:00.038Z</time></trkpt><trkpt lat="45.3920029" lon="14.0480504"><ele>314.0</ele><time>2026-04-25T13:19:01.03Z</time></trkpt><trkpt lat="45.3921145" lon="14.048069"><ele>314.0</ele><time>2026-04-25T13:19:02.035Z</time></trkpt><trkpt lat="45.392237" lon="14.0480888"><ele>318.25</ele><time>2026-04-25T13:19:03.036Z</time></trkpt><trkpt lat="45.3923705" lon="14.0481108"><ele>322.5</ele><time>2026-04-25T13:19:04.041Z</time></trkpt><trkpt lat="45.3925065" lon="14.0481167"><ele>326.75</ele><time>2026-04-25T13:19:05.042Z</time></trkpt><trkpt lat="45.3926408" lon="14.0481053"><ele>331.0</ele><time>2026-04-25T13:19:06.035Z</time></trkpt><trkpt lat="45.3927744" lon="14.0480669"><ele>331.0</ele><time>2026-04-25T13:19:07.039Z</time></trkpt><trkpt lat="45.3929064" lon="14.0480135"><ele>331.0</ele><time>2026-04-25T13:19:08.04Z</time></trkpt><trkpt lat="45.3930322" lon="14.0479484"><ele>331.0</ele><time>2026-04-25T13:19:09.039Z</time></trkpt><trkpt lat="45.3931527" lon="14.0478603"><ele>331.0</ele><time>2026-04-25T13:19:10.044Z</time></trkpt><trkpt lat="45.3932604" lon="14.047708"><ele>330.66666666666663</ele><time>2026-04-25T13:19:11.039Z</time></trkpt><trkpt lat="45.3933623" lon="14.0475241"><ele>330.3333333333333</ele><time>2026-04-25T13:19:12.036Z</time></trkpt><trkpt lat="45.3934662" lon="14.0473412"><ele>330.0</ele><time>2026-04-25T13:19:13.034Z</time></trkpt><trkpt lat="45.3935642" lon="14.0471697"><ele>329.5</ele><time>2026-04-25T13:19:14.033Z</time></trkpt><trkpt lat="45.3936538" lon="14.047008"><ele>329.0</ele><time>2026-04-25T13:19:15.035Z</time></trkpt><trkpt lat="45.3937482" lon="14.0468566"><ele>328.5</ele><time>2026-04-25T13:19:16.042Z</time></trkpt><trkpt lat="45.3938479" lon="14.0467044"><ele>328.0</ele><time>2026-04-25T13:19:17.037Z</time></trkpt><trkpt lat="45.3939472" lon="14.0465518"><ele>328.0</ele><time>2026-04-25T13:19:18.033Z</time></trkpt><trkpt lat="45.3940463" lon="14.0463988"><ele>328.0</ele><time>2026-04-25T13:19:19.036Z</time></trkpt><trkpt lat="45.3941445" lon="14.0462395"><ele>328.0</ele><time>2026-04-25T13:19:20.032Z</time></trkpt><trkpt lat="45.3942429" lon="14.0460738"><ele>328.0</ele><time>2026-04-25T13:19:21.033Z</time></trkpt><trkpt lat="45.3943367" lon="14.0459148"><ele>327.25</ele><time>2026-04-25T13:19:22.037Z</time></trkpt><trkpt lat="45.3944263" lon="14.0457619"><ele>326.5</ele><time>2026-04-25T13:19:23.041Z</time></trkpt><trkpt lat="45.394512" lon="14.0456098"><ele>325.75</ele><time>2026-04-25T13:19:24.038Z</time></trkpt><trkpt lat="45.3945895" lon="14.0454418"><ele>325.0</ele><time>2026-04-25T13:19:25.046Z</time></trkpt><trkpt lat="45.3946568" lon="14.0452542"><ele>325.25</ele><time>2026-04-25T13:19:26.04Z</time></trkpt><trkpt lat="45.3947137" lon="14.0450588"><ele>325.5</ele><time>2026-04-25T13:19:27.035Z</time></trkpt><trkpt lat="45.3947698" lon="14.0448612"><ele>325.75</ele><time>2026-04-25T13:19:28.046Z</time></trkpt><trkpt lat="45.3948328" lon="14.0446739"><ele>326.0</ele><time>2026-04-25T13:19:29.036Z</time></trkpt><trkpt lat="45.3949062" lon="14.0444943"><ele>326.5</ele><time>2026-04-25T13:19:30.043Z</time></trkpt><trkpt lat="45.3949881" lon="14.0443226"><ele>327.0</ele><time>2026-04-25T13:19:31.033Z</time></trkpt><trkpt lat="45.3950754" lon="14.0441544"><ele>327.5</ele><time>2026-04-25T13:19:32.039Z</time></trkpt><trkpt lat="45.3951598" lon="14.043985"><ele>328.0</ele><time>2026-04-25T13:19:33.04Z</time></trkpt><trkpt lat="45.3952399" lon="14.0438157"><ele>328.0</ele><time>2026-04-25T13:19:34.047Z</time></trkpt><trkpt lat="45.3953175" lon="14.0436385"><ele>328.0</ele><time>2026-04-25T13:19:35.042Z</time></trkpt><trkpt lat="45.3953894" lon="14.0434629"><ele>328.0</ele><time>2026-04-25T13:19:36.038Z</time></trkpt><trkpt lat="45.3954572" lon="14.043284"><ele>328.0</ele><time>2026-04-25T13:19:37.032Z</time></trkpt><trkpt lat="45.395525" lon="14.0430934"><ele>332.0</ele><time>2026-04-25T13:19:38.042Z</time></trkpt><trkpt lat="45.3955931" lon="14.0429042"><ele>336.0</ele><time>2026-04-25T13:19:39.03Z</time></trkpt><trkpt lat="45.3956608" lon="14.0427118"><ele>340.0</ele><time>2026-04-25T13:19:40.039Z</time></trkpt><trkpt lat="45.3957266" lon="14.0425172"><ele>341.0</ele><time>2026-04-25T13:19:41.042Z</time></trkpt><trkpt lat="45.3957805" lon="14.0423222"><ele>342.0</ele><time>2026-04-25T13:19:42.039Z</time></trkpt><trkpt lat="45.395816" lon="14.0421118"><ele>343.0</ele><time>2026-04-25T13:19:43.039Z</time></trkpt><trkpt lat="45.3958251" lon="14.041895"><ele>343.0</ele><time>2026-04-25T13:19:44.039Z</time></trkpt><trkpt lat="45.3958171" lon="14.0416732"><ele>343.0</ele><time>2026-04-25T13:19:45.04Z</time></trkpt><trkpt lat="45.3958013" lon="14.0414405"><ele>343.0</ele><time>2026-04-25T13:19:46.033Z</time></trkpt><trkpt lat="45.3957843" lon="14.0412229"><ele>343.75</ele><time>2026-04-25T13:19:47.033Z</time></trkpt><trkpt lat="45.3957706" lon="14.0410292"><ele>344.5</ele><time>2026-04-25T13:19:48.037Z</time></trkpt><trkpt lat="45.3957768" lon="14.0408387"><ele>345.25</ele><time>2026-04-25T13:19:49.038Z</time></trkpt><trkpt lat="45.3958055" lon="14.0406397"><ele>346.0</ele><time>2026-04-25T13:19:50.048Z</time></trkpt><trkpt lat="45.3958574" lon="14.0404448"><ele>343.66666666666663</ele><time>2026-04-25T13:19:51.035Z</time></trkpt><trkpt lat="45.3959244" lon="14.0402512"><ele>341.3333333333333</ele><time>2026-04-25T13:19:52.04Z</time></trkpt><trkpt lat="45.3959923" lon="14.0400546"><ele>339.0</ele><time>2026-04-25T13:19:53.038Z</time></trkpt><trkpt lat="45.3960619" lon="14.0398624"><ele>334.6666666666667</ele><time>2026-04-25T13:19:54.036Z</time></trkpt><trkpt lat="45.3961457" lon="14.0396749"><ele>330.33333333333337</ele><time>2026-04-25T13:19:55.044Z</time></trkpt><trkpt lat="45.3962493" lon="14.0394992"><ele>326.0</ele><time>2026-04-25T13:19:56.045Z</time></trkpt><trkpt lat="45.396353" lon="14.0393288"><ele>334.33333333333337</ele><time>2026-04-25T13:19:57.048Z</time></trkpt><trkpt lat="45.3964464" lon="14.0391434"><ele>342.6666666666667</ele><time>2026-04-25T13:19:58.054Z</time></trkpt><trkpt lat="45.3965272" lon="14.0389452"><ele>351.0</ele><time>2026-04-25T13:19:59.043Z</time></trkpt><trkpt lat="45.3966025" lon="14.0387436"><ele>351.0</ele><time>2026-04-25T13:20:00.045Z</time></trkpt><trkpt lat="45.3966788" lon="14.0385516"><ele>351.0</ele><time>2026-04-25T13:20:01.052Z</time></trkpt><trkpt lat="45.3967615" lon="14.0383927"><ele>351.0</ele><time>2026-04-25T13:20:02.054Z</time></trkpt><trkpt lat="45.3968498" lon="14.0382693"><ele>351.0</ele><time>2026-04-25T13:20:03.05Z</time></trkpt><trkpt lat="45.3969468" lon="14.0381653"><ele>353.4</ele><time>2026-04-25T13:20:04.042Z</time></trkpt><trkpt lat="45.3970473" lon="14.0380719"><ele>355.8</ele><time>2026-04-25T13:20:05.055Z</time></trkpt><trkpt lat="45.3971419" lon="14.0379834"><ele>358.2</ele><time>2026-04-25T13:20:06.058Z</time></trkpt><trkpt lat="45.3972149" lon="14.0378894"><ele>360.59999999999997</ele><time>2026-04-25T13:20:07.042Z</time></trkpt><trkpt lat="45.3972817" lon="14.0377613"><ele>363.0</ele><time>2026-04-25T13:20:08.045Z</time></trkpt><trkpt lat="45.3973469" lon="14.0376165"><ele>359.75</ele><time>2026-04-25T13:20:09.042Z</time></trkpt><trkpt lat="45.3974186" lon="14.037461"><ele>356.5</ele><time>2026-04-25T13:20:10.041Z</time></trkpt><trkpt lat="45.3975091" lon="14.0373125"><ele>353.25</ele><time>2026-04-25T13:20:11.053Z</time></trkpt><trkpt lat="45.3976147" lon="14.0371861"><ele>350.0</ele><time>2026-04-25T13:20:12.048Z</time></trkpt><trkpt lat="45.3977299" lon="14.0370716"><ele>350.0</ele><time>2026-04-25T13:20:13.053Z</time></trkpt><trkpt lat="45.3978453" lon="14.0369604"><ele>350.0</ele><time>2026-04-25T13:20:14.046Z</time></trkpt><trkpt lat="45.3979588" lon="14.0368419"><ele>350.0</ele><time>2026-04-25T13:20:15.044Z</time></trkpt><trkpt lat="45.3980637" lon="14.0367069"><ele>350.0</ele><time>2026-04-25T13:20:16.047Z</time></trkpt><trkpt lat="45.3981505" lon="14.0365572"><ele>352.0</ele><time>2026-04-25T13:20:17.033Z</time></trkpt><trkpt lat="45.39823" lon="14.0364002"><ele>354.0</ele><time>2026-04-25T13:20:18.037Z</time></trkpt><trkpt lat="45.3983067" lon="14.0362379"><ele>356.0</ele><time>2026-04-25T13:20:19.049Z</time></trkpt><trkpt lat="45.3983798" lon="14.0360667"><ele>358.0</ele><time>2026-04-25T13:20:20.038Z</time></trkpt><trkpt lat="45.3984496" lon="14.035899"><ele>354.5</ele><time>2026-04-25T13:20:21.033Z</time></trkpt><trkpt lat="45.398516" lon="14.0357365"><ele>351.0</ele><time>2026-04-25T13:20:22.043Z</time></trkpt><trkpt lat="45.398585" lon="14.0355808"><ele>347.5</ele><time>2026-04-25T13:20:23.036Z</time></trkpt><trkpt lat="45.3986639" lon="14.035425"><ele>344.0</ele><time>2026-04-25T13:20:24.055Z</time></trkpt><trkpt lat="45.3987586" lon="14.0352893"><ele>346.75</ele><time>2026-04-25T13:20:25.035Z</time></trkpt><trkpt lat="45.3988713" lon="14.0351695"><ele>349.5</ele><time>2026-04-25T13:20:26.047Z</time></trkpt><trkpt lat="45.3989958" lon="14.035067"><ele>352.25</ele><time>2026-04-25T13:20:27.044Z</time></trkpt><trkpt lat="45.3991303" lon="14.0350067"><ele>355.0</ele><time>2026-04-25T13:20:28.041Z</time></trkpt><trkpt lat="45.3992761" lon="14.0349698"><ele>355.0</ele><time>2026-04-25T13:20:29.035Z</time></trkpt><trkpt lat="45.3994272" lon="14.0349411"><ele>355.0</ele><time>2026-04-25T13:20:30.045Z</time></trkpt><trkpt lat="45.3995748" lon="14.034911"><ele>355.0</ele><time>2026-04-25T13:20:31.049Z</time></trkpt><trkpt lat="45.3997167" lon="14.0348857"><ele>355.0</ele><time>2026-04-25T13:20:32.059Z</time></trkpt><trkpt lat="45.3998387" lon="14.0348655"><ele>358.2</ele><time>2026-04-25T13:20:33.053Z</time></trkpt><trkpt lat="45.3999534" lon="14.0348459"><ele>361.4</ele><time>2026-04-25T13:20:34.047Z</time></trkpt><trkpt lat="45.4000655" lon="14.0348316"><ele>364.6</ele><time>2026-04-25T13:20:35.043Z</time></trkpt><trkpt lat="45.4001663" lon="14.0348131"><ele>367.8</ele><time>2026-04-25T13:20:36.045Z</time></trkpt><trkpt lat="45.4002582" lon="14.0347804"><ele>371.0</ele><time>2026-04-25T13:20:37.052Z</time></trkpt><trkpt lat="45.4003557" lon="14.0347056"><ele>371.0</ele><time>2026-04-25T13:20:38.053Z</time></trkpt><trkpt lat="45.4004528" lon="14.0346031"><ele>371.0</ele><time>2026-04-25T13:20:39.037Z</time></trkpt><trkpt lat="45.4005517" lon="14.0344923"><ele>371.0</ele><time>2026-04-25T13:20:40.036Z</time></trkpt><trkpt lat="45.4006575" lon="14.0343794"><ele>371.0</ele><time>2026-04-25T13:20:41.041Z</time></trkpt><trkpt lat="45.4007675" lon="14.0342533"><ele>373.0</ele><time>2026-04-25T13:20:42.039Z</time></trkpt><trkpt lat="45.4008773" lon="14.0341175"><ele>375.0</ele><time>2026-04-25T13:20:43.042Z</time></trkpt><trkpt lat="45.4009883" lon="14.0339743"><ele>377.0</ele><time>2026-04-25T13:20:44.049Z</time></trkpt><trkpt lat="45.4010969" lon="14.0338232"><ele>379.0</ele><time>2026-04-25T13:20:45.039Z</time></trkpt><trkpt lat="45.4012035" lon="14.0336639"><ele>379.0</ele><time>2026-04-25T13:20:46.048Z</time></trkpt><trkpt lat="45.4013052" lon="14.0334926"><ele>379.0</ele><time>2026-04-25T13:20:47.034Z</time></trkpt><trkpt lat="45.4014058" lon="14.0333201"><ele>379.0</ele><time>2026-04-25T13:20:48.033Z</time></trkpt><trkpt lat="45.4015084" lon="14.0331608"><ele>381.0</ele><time>2026-04-25T13:20:49.044Z</time></trkpt><trkpt lat="45.401602" lon="14.0330086"><ele>383.0</ele><time>2026-04-25T13:20:50.044Z</time></trkpt><trkpt lat="45.4016836" lon="14.0328683"><ele>385.0</ele><time>2026-04-25T13:20:51.03Z</time></trkpt><trkpt lat="45.4017644" lon="14.0327409"><ele>387.0</ele><time>2026-04-25T13:20:52.037Z</time></trkpt><trkpt lat="45.4018503" lon="14.032621"><ele>387.0</ele><time>2026-04-25T13:20:53.041Z</time></trkpt><trkpt lat="45.4019478" lon="14.0325118"><ele>387.0</ele><time>2026-04-25T13:20:54.038Z</time></trkpt><trkpt lat="45.4020545" lon="14.0324075"><ele>387.0</ele><time>2026-04-25T13:20:55.038Z</time></trkpt><trkpt lat="45.4021643" lon="14.032298"><ele>387.0</ele><time>2026-04-25T13:20:56.038Z</time></trkpt><trkpt lat="45.4022737" lon="14.0321538"><ele>387.66666666666663</ele><time>2026-04-25T13:20:57.034Z</time></trkpt><trkpt lat="45.4023811" lon="14.03199"><ele>388.3333333333333</ele><time>2026-04-25T13:20:58.032Z</time></trkpt><trkpt lat="45.4024875" lon="14.0318122"><ele>389.0</ele><time>2026-04-25T13:20:59.048Z</time></trkpt><trkpt lat="45.4025934" lon="14.0316291"><ele>387.66666666666663</ele><time>2026-04-25T13:21:00.055Z</time></trkpt><trkpt lat="45.4026998" lon="14.0314503"><ele>386.33333333333337</ele><time>2026-04-25T13:21:01.035Z</time></trkpt><trkpt lat="45.4028082" lon="14.0312904"><ele>385.0</ele><time>2026-04-25T13:21:02.049Z</time></trkpt><trkpt lat="45.4029201" lon="14.0311449"><ele>384.33333333333337</ele><time>2026-04-25T13:21:03.042Z</time></trkpt><trkpt lat="45.403043" lon="14.0310042"><ele>383.6666666666667</ele><time>2026-04-25T13:21:04.046Z</time></trkpt><trkpt lat="45.4031757" lon="14.0308796"><ele>383.0</ele><time>2026-04-25T13:21:05.043Z</time></trkpt><trkpt lat="45.4033167" lon="14.0307766"><ele>382.5</ele><time>2026-04-25T13:21:06.039Z</time></trkpt><trkpt lat="45.4034531" lon="14.0306898"><ele>382.0</ele><time>2026-04-25T13:21:07.035Z</time></trkpt><trkpt lat="45.4035834" lon="14.0305938"><ele>381.5</ele><time>2026-04-25T13:21:08.041Z</time></trkpt><trkpt lat="45.4037064" lon="14.0304704"><ele>381.0</ele><time>2026-04-25T13:21:09.035Z</time></trkpt><trkpt lat="45.4038246" lon="14.0303445"><ele>381.75</ele><time>2026-04-25T13:21:10.043Z</time></trkpt><trkpt lat="45.4039405" lon="14.0302278"><ele>382.5</ele><time>2026-04-25T13:21:11.039Z</time></trkpt><trkpt lat="45.4040587" lon="14.0301425"><ele>383.25</ele><time>2026-04-25T13:21:12.042Z</time></trkpt><trkpt lat="45.4041754" lon="14.0300823"><ele>384.0</ele><time>2026-04-25T13:21:13.037Z</time></trkpt><trkpt lat="45.4042995" lon="14.0300518"><ele>384.0</ele><time>2026-04-25T13:21:14.04Z</time></trkpt><trkpt lat="45.4044207" lon="14.0300702"><ele>384.0</ele><time>2026-04-25T13:21:15.043Z</time></trkpt><trkpt lat="45.4045405" lon="14.0300994"><ele>384.0</ele><time>2026-04-25T13:21:16.042Z</time></trkpt><trkpt lat="45.4046563" lon="14.0300759"><ele>384.0</ele><time>2026-04-25T13:21:17.055Z</time></trkpt><trkpt lat="45.404754" lon="14.0300105"><ele>383.75</ele><time>2026-04-25T13:21:18.041Z</time></trkpt><trkpt lat="45.4048428" lon="14.0298915"><ele>383.5</ele><time>2026-04-25T13:21:19.032Z</time></trkpt><trkpt lat="45.4049399" lon="14.0297594"><ele>383.25</ele><time>2026-04-25T13:21:20.031Z</time></trkpt><trkpt lat="45.4050508" lon="14.0296346"><ele>383.0</ele><time>2026-04-25T13:21:21.032Z</time></trkpt><trkpt lat="45.4051751" lon="14.0295172"><ele>383.0</ele><time>2026-04-25T13:21:22.04Z</time></trkpt><trkpt lat="45.4053057" lon="14.0294139"><ele>383.0</ele><time>2026-04-25T13:21:23.041Z</time></trkpt><trkpt lat="45.4054472" lon="14.0293284"><ele>383.0</ele><time>2026-04-25T13:21:24.047Z</time></trkpt><trkpt lat="45.4055907" lon="14.0292485"><ele>384.0</ele><time>2026-04-25T13:21:25.045Z</time></trkpt><trkpt lat="45.4057381" lon="14.0291558"><ele>385.0</ele><time>2026-04-25T13:21:26.04Z</time></trkpt><trkpt lat="45.4058884" lon="14.0290741"><ele>386.0</ele><time>2026-04-25T13:21:27.038Z</time></trkpt><trkpt lat="45.4060297" lon="14.0290057"><ele>386.0</ele><time>2026-04-25T13:21:28.034Z</time></trkpt><trkpt lat="45.406154" lon="14.0289241"><ele>386.0</ele><time>2026-04-25T13:21:29.034Z</time></trkpt><trkpt lat="45.4062729" lon="14.0287881"><ele>386.0</ele><time>2026-04-25T13:21:30.042Z</time></trkpt><trkpt lat="45.4063732" lon="14.0286317"><ele>386.0</ele><time>2026-04-25T13:21:31.036Z</time></trkpt><trkpt lat="45.4064759" lon="14.0285012"><ele>386.25</ele><time>2026-04-25T13:21:32.036Z</time></trkpt><trkpt lat="45.4065956" lon="14.0283995"><ele>386.5</ele><time>2026-04-25T13:21:33.04Z</time></trkpt><trkpt lat="45.4067165" lon="14.028315"><ele>386.75</ele><time>2026-04-25T13:21:34.044Z</time></trkpt><trkpt lat="45.4068386" lon="14.0282448"><ele>387.0</ele><time>2026-04-25T13:21:35.045Z</time></trkpt><trkpt lat="45.406974" lon="14.0282093"><ele>387.0</ele><time>2026-04-25T13:21:36.038Z</time></trkpt><trkpt lat="45.4071242" lon="14.0282021"><ele>387.0</ele><time>2026-04-25T13:21:37.041Z</time></trkpt><trkpt lat="45.4072802" lon="14.0282021"><ele>387.0</ele><time>2026-04-25T13:21:38.042Z</time></trkpt><trkpt lat="45.4074453" lon="14.0281816"><ele>388.0</ele><time>2026-04-25T13:21:39.046Z</time></trkpt><trkpt lat="45.4076133" lon="14.0281515"><ele>389.0</ele><time>2026-04-25T13:21:40.047Z</time></trkpt><trkpt lat="45.4077769" lon="14.0281049"><ele>390.0</ele><time>2026-04-25T13:21:41.04Z</time></trkpt><trkpt lat="45.40793" lon="14.0280755"><ele>391.25</ele><time>2026-04-25T13:21:42.042Z</time></trkpt><trkpt lat="45.4080758" lon="14.0280686"><ele>392.5</ele><time>2026-04-25T13:21:43.049Z</time></trkpt><trkpt lat="45.4082196" lon="14.0280786"><ele>393.75</ele><time>2026-04-25T13:21:44.042Z</time></trkpt><trkpt lat="45.4083631" lon="14.0280837"><ele>395.0</ele><time>2026-04-25T13:21:45.042Z</time></trkpt><trkpt lat="45.4084956" lon="14.0280633"><ele>395.0</ele><time>2026-04-25T13:21:46.04Z</time></trkpt><trkpt lat="45.4086226" lon="14.0280209"><ele>395.0</ele><time>2026-04-25T13:21:47.041Z</time></trkpt><trkpt lat="45.4087582" lon="14.027979"><ele>395.0</ele><time>2026-04-25T13:21:48.058Z</time></trkpt><trkpt lat="45.4089033" lon="14.0279495"><ele>395.0</ele><time>2026-04-25T13:21:49.052Z</time></trkpt><trkpt lat="45.4090535" lon="14.0278982"><ele>394.66666666666663</ele><time>2026-04-25T13:21:50.038Z</time></trkpt><trkpt lat="45.4092056" lon="14.0278199"><ele>394.33333333333337</ele><time>2026-04-25T13:21:51.041Z</time></trkpt><trkpt lat="45.4093525" lon="14.0277138"><ele>394.0</ele><time>2026-04-25T13:21:52.05Z</time></trkpt><trkpt lat="45.4094894" lon="14.0275775"><ele>394.33333333333337</ele><time>2026-04-25T13:21:53.04Z</time></trkpt><trkpt lat="45.4096177" lon="14.0274191"><ele>394.66666666666663</ele><time>2026-04-25T13:21:54.051Z</time></trkpt><trkpt lat="45.4097329" lon="14.0272636"><ele>395.0</ele><time>2026-04-25T13:21:55.041Z</time></trkpt><trkpt lat="45.4098409" lon="14.0271211"><ele>395.0</ele><time>2026-04-25T13:21:56.052Z</time></trkpt><trkpt lat="45.4099522" lon="14.0270119"><ele>395.0</ele><time>2026-04-25T13:21:57.046Z</time></trkpt><trkpt lat="45.4100728" lon="14.0269171"><ele>395.0</ele><time>2026-04-25T13:21:58.048Z</time></trkpt><trkpt lat="45.4102078" lon="14.0268196"><ele>395.0</ele><time>2026-04-25T13:21:59.043Z</time></trkpt><trkpt lat="45.4103538" lon="14.0267179"><ele>392.66666666666663</ele><time>2026-04-25T13:22:00.048Z</time></trkpt><trkpt lat="45.4105038" lon="14.0266144"><ele>390.33333333333337</ele><time>2026-04-25T13:22:01.037Z</time></trkpt><trkpt lat="45.410649" lon="14.026506"><ele>388.0</ele><time>2026-04-25T13:22:02.046Z</time></trkpt><trkpt lat="45.4107806" lon="14.0264043"><ele>388.0</ele><time>2026-04-25T13:22:03.036Z</time></trkpt><trkpt lat="45.4108923" lon="14.0263229"><ele>388.0</ele><time>2026-04-25T13:22:04.051Z</time></trkpt><trkpt lat="45.4109912" lon="14.0262898"><ele>388.0</ele><time>2026-04-25T13:22:05.041Z</time></trkpt><trkpt lat="45.4110888" lon="14.0263106"><ele>388.0</ele><time>2026-04-25T13:22:06.037Z</time></trkpt><trkpt lat="45.41119" lon="14.0263648"><ele>388.0</ele><time>2026-04-25T13:22:07.037Z</time></trkpt><trkpt lat="45.4112979" lon="14.0264431"><ele>388.75</ele><time>2026-04-25T13:22:08.041Z</time></trkpt><trkpt lat="45.4114205" lon="14.026496"><ele>389.5</ele><time>2026-04-25T13:22:09.045Z</time></trkpt><trkpt lat="45.4115546" lon="14.0265186"><ele>390.25</ele><time>2026-04-25T13:22:10.065Z</time></trkpt><trkpt lat="45.4117016" lon="14.0265433"><ele>391.0</ele><time>2026-04-25T13:22:11.051Z</time></trkpt><trkpt lat="45.4118503" lon="14.0265673"><ele>391.0</ele><time>2026-04-25T13:22:12.056Z</time></trkpt><trkpt lat="45.4119882" lon="14.0265763"><ele>391.0</ele><time>2026-04-25T13:22:13.05Z</time></trkpt><trkpt lat="45.4121132" lon="14.0265602"><ele>391.0</ele><time>2026-04-25T13:22:14.051Z</time></trkpt><trkpt lat="45.4122316" lon="14.0265281"><ele>391.0</ele><time>2026-04-25T13:22:15.04Z</time></trkpt><trkpt lat="45.4123404" lon="14.0264787"><ele>391.8</ele><time>2026-04-25T13:22:16.046Z</time></trkpt><trkpt lat="45.4124367" lon="14.0264152"><ele>392.6</ele><time>2026-04-25T13:22:17.042Z</time></trkpt><trkpt lat="45.4125074" lon="14.0263287"><ele>393.4</ele><time>2026-04-25T13:22:18.041Z</time></trkpt><trkpt lat="45.4125385" lon="14.0262206"><ele>394.2</ele><time>2026-04-25T13:22:19.045Z</time></trkpt><trkpt lat="45.4125455" lon="14.0260849"><ele>395.0</ele><time>2026-04-25T13:22:20.046Z</time></trkpt><trkpt lat="45.4125466" lon="14.0259482"><ele>394.99999999999994</ele><time>2026-04-25T13:22:21.034Z</time></trkpt><trkpt lat="45.4125522" lon="14.0258215"><ele>395.0</ele><time>2026-04-25T13:22:22.039Z</time></trkpt><trkpt lat="45.4125832" lon="14.0257171"><ele>395.0</ele><time>2026-04-25T13:22:23.051Z</time></trkpt><trkpt lat="45.4126379" lon="14.0256464"><ele>395.0</ele><time>2026-04-25T13:22:24.048Z</time></trkpt><trkpt lat="45.4126985" lon="14.0255804"><ele>394.99999999999994</ele><time>2026-04-25T13:22:25.037Z</time></trkpt><trkpt lat="45.4127512" lon="14.0255133"><ele>395.0</ele><time>2026-04-25T13:22:26.036Z</time></trkpt><trkpt lat="45.4128099" lon="14.0254715"><ele>395.16666666666663</ele><time>2026-04-25T13:22:27.038Z</time></trkpt><trkpt lat="45.4128772" lon="14.025473"><ele>395.3333333333333</ele><time>2026-04-25T13:22:28.038Z</time></trkpt><trkpt lat="45.4129485" lon="14.0255024"><ele>395.5</ele><time>2026-04-25T13:22:29.043Z</time></trkpt><trkpt lat="45.4130238" lon="14.0255457"><ele>395.66666666666663</ele><time>2026-04-25T13:22:30.044Z</time></trkpt><trkpt lat="45.4130854" lon="14.0255665"><ele>395.8333333333333</ele><time>2026-04-25T13:22:31.041Z</time></trkpt><trkpt lat="45.4131944" lon="14.0255654"><ele>396.0</ele><time>2026-04-25T13:22:33.056Z</time></trkpt><trkpt lat="45.4132814" lon="14.0256595"><ele>396.0</ele><time>2026-04-25T13:22:35.042Z</time></trkpt><trkpt lat="45.4133699" lon="14.025745"><ele>396.0</ele><time>2026-04-25T13:22:37.041Z</time></trkpt><trkpt lat="45.4134843" lon="14.0257691"><ele>396.0</ele><time>2026-04-25T13:22:39.039Z</time></trkpt><trkpt lat="45.4136062" lon="14.0257885"><ele>396.0</ele><time>2026-04-25T13:22:41.035Z</time></trkpt><trkpt lat="45.413677" lon="14.0257958"><ele>396.0</ele><time>2026-04-25T13:22:42.041Z</time></trkpt><trkpt lat="45.4137403" lon="14.0258348"><ele>396.7142857142857</ele><time>2026-04-25T13:22:43.048Z</time></trkpt><trkpt lat="45.4137988" lon="14.0258918"><ele>397.4285714285714</ele><time>2026-04-25T13:22:44.029Z</time></trkpt><trkpt lat="45.4138535" lon="14.0259576"><ele>398.1428571428571</ele><time>2026-04-25T13:22:45.035Z</time></trkpt><trkpt lat="45.4139029" lon="14.0260198"><ele>398.8571428571429</ele><time>2026-04-25T13:22:46.04Z</time></trkpt><trkpt lat="45.4139561" lon="14.0260723"><ele>399.57142857142856</ele><time>2026-04-25T13:22:47.032Z</time></trkpt><trkpt lat="45.414022" lon="14.0261077"><ele>400.2857142857143</ele><time>2026-04-25T13:22:48.043Z</time></trkpt><trkpt lat="45.4140952" lon="14.0261312"><ele>401.0</ele><time>2026-04-25T13:22:49.043Z</time></trkpt><trkpt lat="45.4141716" lon="14.0261618"><ele>404.16666666666663</ele><time>2026-04-25T13:22:50.042Z</time></trkpt><trkpt lat="45.4142486" lon="14.026194"><ele>407.3333333333333</ele><time>2026-04-25T13:22:51.029Z</time></trkpt><trkpt lat="45.4143228" lon="14.0262344"><ele>410.5</ele><time>2026-04-25T13:22:52.037Z</time></trkpt><trkpt lat="45.4143969" lon="14.026271"><ele>413.66666666666663</ele><time>2026-04-25T13:22:53.047Z</time></trkpt><trkpt lat="45.4144698" lon="14.0263089"><ele>416.8333333333333</ele><time>2026-04-25T13:22:54.044Z</time></trkpt><trkpt lat="45.4145501" lon="14.0263508"><ele>420.0</ele><time>2026-04-25T13:22:55.034Z</time></trkpt><trkpt lat="45.4146248" lon="14.0263938"><ele>422.6666666666667</ele><time>2026-04-25T13:22:56.047Z</time></trkpt><trkpt lat="45.4146968" lon="14.0264497"><ele>425.33333333333337</ele><time>2026-04-25T13:22:57.044Z</time></trkpt><trkpt lat="45.414768" lon="14.0265168"><ele>428.0</ele><time>2026-04-25T13:22:58.049Z</time></trkpt><trkpt lat="45.4148355" lon="14.026587"><ele>430.6666666666667</ele><time>2026-04-25T13:22:59.05Z</time></trkpt><trkpt lat="45.4149003" lon="14.0266556"><ele>433.33333333333337</ele><time>2026-04-25T13:23:00.032Z</time></trkpt><trkpt lat="45.414962" lon="14.0267298"><ele>436.0</ele><time>2026-04-25T13:23:01.038Z</time></trkpt><trkpt lat="45.4150173" lon="14.0268104"><ele>436.83333333333337</ele><time>2026-04-25T13:23:02.045Z</time></trkpt><trkpt lat="45.4150633" lon="14.026895"><ele>437.6666666666667</ele><time>2026-04-25T13:23:03.035Z</time></trkpt><trkpt lat="45.4150991" lon="14.0269749"><ele>438.5</ele><time>2026-04-25T13:23:04.039Z</time></trkpt><trkpt lat="45.415174" lon="14.0270784"><ele>439.33333333333337</ele><time>2026-04-25T13:23:06.037Z</time></trkpt><trkpt lat="45.4152371" lon="14.0271095"><ele>440.1666666666667</ele><time>2026-04-25T13:23:07.03Z</time></trkpt><trkpt lat="45.4153006" lon="14.0271517"><ele>441.0</ele><time>2026-04-25T13:23:08.041Z</time></trkpt><trkpt lat="45.4153668" lon="14.0271847"><ele>441.0</ele><time>2026-04-25T13:23:09.038Z</time></trkpt><trkpt lat="45.4154321" lon="14.0272134"><ele>441.0</ele><time>2026-04-25T13:23:10.039Z</time></trkpt><trkpt lat="45.4155036" lon="14.0272562"><ele>441.0</ele><time>2026-04-25T13:23:11.048Z</time></trkpt><trkpt lat="45.4155796" lon="14.0272947"><ele>441.0</ele><time>2026-04-25T13:23:12.037Z</time></trkpt><trkpt lat="45.41566" lon="14.0273398"><ele>441.0</ele><time>2026-04-25T13:23:13.041Z</time></trkpt><trkpt lat="45.4157334" lon="14.0273883"><ele>441.0</ele><time>2026-04-25T13:23:14.036Z</time></trkpt><trkpt lat="45.4158085" lon="14.0274388"><ele>445.1666666666667</ele><time>2026-04-25T13:23:15.034Z</time></trkpt><trkpt lat="45.41588" lon="14.0274916"><ele>449.33333333333337</ele><time>2026-04-25T13:23:16.053Z</time></trkpt><trkpt lat="45.415942" lon="14.0275466"><ele>453.5</ele><time>2026-04-25T13:23:17.039Z</time></trkpt><trkpt lat="45.4160034" lon="14.0276179"><ele>457.6666666666667</ele><time>2026-04-25T13:23:18.046Z</time></trkpt><trkpt lat="45.4160707" lon="14.0277003"><ele>461.83333333333337</ele><time>2026-04-25T13:23:19.035Z</time></trkpt><trkpt lat="45.4161432" lon="14.0277858"><ele>466.0</ele><time>2026-04-25T13:23:20.043Z</time></trkpt><trkpt lat="45.4162168" lon="14.0278634"><ele>466.00000000000006</ele><time>2026-04-25T13:23:21.039Z</time></trkpt><trkpt lat="45.4162917" lon="14.0279147"><ele>466.0</ele><time>2026-04-25T13:23:22.042Z</time></trkpt><trkpt lat="45.4163654" lon="14.0279457"><ele>466.0</ele><time>2026-04-25T13:23:23.036Z</time></trkpt><trkpt lat="45.4164387" lon="14.0279542"><ele>466.0</ele><time>2026-04-25T13:23:24.036Z</time></trkpt><trkpt lat="45.416511" lon="14.0279658"><ele>466.00000000000006</ele><time>2026-04-25T13:23:25.041Z</time></trkpt><trkpt lat="45.4165789" lon="14.0279828"><ele>466.0</ele><time>2026-04-25T13:23:26.04Z</time></trkpt><trkpt lat="45.4166902" lon="14.0280186"><ele>468.33333333333337</ele><time>2026-04-25T13:23:28.035Z</time></trkpt><trkpt lat="45.4167901" lon="14.0280622"><ele>470.6666666666667</ele><time>2026-04-25T13:23:30.054Z</time></trkpt><trkpt lat="45.4168853" lon="14.0281551"><ele>473.0</ele><time>2026-04-25T13:23:32.046Z</time></trkpt><trkpt lat="45.4169413" lon="14.0281963"><ele>475.33333333333337</ele><time>2026-04-25T13:23:33.031Z</time></trkpt><trkpt lat="45.4170055" lon="14.0282362"><ele>477.6666666666667</ele><time>2026-04-25T13:23:34.04Z</time></trkpt><trkpt lat="45.4170747" lon="14.0282645"><ele>480.0</ele><time>2026-04-25T13:23:35.036Z</time></trkpt><trkpt lat="45.4171511" lon="14.028293"><ele>485.8</ele><time>2026-04-25T13:23:36.044Z</time></trkpt><trkpt lat="45.4172315" lon="14.0283211"><ele>491.6</ele><time>2026-04-25T13:23:37.037Z</time></trkpt><trkpt lat="45.417307" lon="14.0283466"><ele>497.4</ele><time>2026-04-25T13:23:38.036Z</time></trkpt><trkpt lat="45.4173775" lon="14.0283631"><ele>503.2</ele><time>2026-04-25T13:23:39.028Z</time></trkpt><trkpt lat="45.4174769" lon="14.028339"><ele>509.0</ele><time>2026-04-25T13:23:41.027Z</time></trkpt><trkpt lat="45.4176065" lon="14.028316"><ele>508.99999999999994</ele><time>2026-04-25T13:23:43.031Z</time></trkpt><trkpt lat="45.4176724" lon="14.0283245"><ele>509.0</ele><time>2026-04-25T13:23:44.032Z</time></trkpt><trkpt lat="45.4177411" lon="14.0283191"><ele>509.0</ele><time>2026-04-25T13:23:45.029Z</time></trkpt><trkpt lat="45.4178083" lon="14.0283094"><ele>509.0</ele><time>2026-04-25T13:23:46.032Z</time></trkpt><trkpt lat="45.4179241" lon="14.0283033"><ele>508.99999999999994</ele><time>2026-04-25T13:23:48.043Z</time></trkpt><trkpt lat="45.4180362" lon="14.0283198"><ele>509.0</ele><time>2026-04-25T13:23:50.04Z</time></trkpt><trkpt lat="45.4181638" lon="14.0283273"><ele>509.71428571428567</ele><time>2026-04-25T13:23:52.04Z</time></trkpt><trkpt lat="45.4182286" lon="14.0283244"><ele>510.42857142857144</ele><time>2026-04-25T13:23:53.032Z</time></trkpt><trkpt lat="45.4183009" lon="14.0283099"><ele>511.1428571428571</ele><time>2026-04-25T13:23:54.029Z</time></trkpt><trkpt lat="45.4183666" lon="14.0282801"><ele>511.85714285714283</ele><time>2026-04-25T13:23:55.035Z</time></trkpt><trkpt lat="45.418435" lon="14.0282287"><ele>512.5714285714286</ele><time>2026-04-25T13:23:56.037Z</time></trkpt><trkpt lat="45.4185036" lon="14.028174"><ele>513.2857142857142</ele><time>2026-04-25T13:23:57.042Z</time></trkpt><trkpt lat="45.4185712" lon="14.0281113"><ele>514.0</ele><time>2026-04-25T13:23:58.038Z</time></trkpt><trkpt lat="45.4186378" lon="14.0280401"><ele>514.0</ele><time>2026-04-25T13:23:59.044Z</time></trkpt><trkpt lat="45.4186967" lon="14.0279459"><ele>514.0</ele><time>2026-04-25T13:24:00.037Z</time></trkpt><trkpt lat="45.4187471" lon="14.0278443"><ele>514.0</ele><time>2026-04-25T13:24:01.037Z</time></trkpt><trkpt lat="45.4187937" lon="14.0277427"><ele>514.0</ele><time>2026-04-25T13:24:02.034Z</time></trkpt><trkpt lat="45.4188379" lon="14.0276558"><ele>514.0</ele><time>2026-04-25T13:24:03.031Z</time></trkpt><trkpt lat="45.418874" lon="14.0275737"><ele>514.0</ele><time>2026-04-25T13:24:04.036Z</time></trkpt><trkpt lat="45.4189064" lon="14.0274963"><ele>521.1666666666667</ele><time>2026-04-25T13:24:05.036Z</time></trkpt><trkpt lat="45.4189375" lon="14.0274131"><ele>528.3333333333334</ele><time>2026-04-25T13:24:07.033Z</time></trkpt><trkpt lat="45.4189732" lon="14.0273236"><ele>535.5</ele><time>2026-04-25T13:24:09.039Z</time></trkpt><trkpt lat="45.4190133" lon="14.0272374"><ele>542.6666666666666</ele><time>2026-04-25T13:24:11.038Z</time></trkpt><trkpt lat="45.4190506" lon="14.0271176"><ele>549.8333333333333</ele><time>2026-04-25T13:24:13.036Z</time></trkpt><trkpt lat="45.4190785" lon="14.0269609"><ele>557.0</ele><time>2026-04-25T13:24:15.036Z</time></trkpt><trkpt lat="45.4191172" lon="14.0267876"><ele>557.0</ele><time>2026-04-25T13:24:17.036Z</time></trkpt><trkpt lat="45.4191331" lon="14.0266998"><ele>557.0</ele><time>2026-04-25T13:24:18.054Z</time></trkpt><trkpt lat="45.4191567" lon="14.0265225"><ele>557.0</ele><time>2026-04-25T13:24:20.048Z</time></trkpt><trkpt lat="45.4191694" lon="14.026431"><ele>557.0</ele><time>2026-04-25T13:24:21.051Z</time></trkpt><trkpt lat="45.4191803" lon="14.0263284"><ele>557.0</ele><time>2026-04-25T13:24:22.039Z</time></trkpt><trkpt lat="45.419194" lon="14.0262224"><ele>557.0</ele><time>2026-04-25T13:24:23.038Z</time></trkpt><trkpt lat="45.4192037" lon="14.026123"><ele>558.3333333333333</ele><time>2026-04-25T13:24:24.045Z</time></trkpt><trkpt lat="45.419209" lon="14.0260235"><ele>559.6666666666666</ele><time>2026-04-25T13:24:25.038Z</time></trkpt><trkpt lat="45.4192155" lon="14.0259217"><ele>561.0</ele><time>2026-04-25T13:24:26.035Z</time></trkpt><trkpt lat="45.4192136" lon="14.0258169"><ele>562.3333333333334</ele><time>2026-04-25T13:24:27.039Z</time></trkpt><trkpt lat="45.4191953" lon="14.0256933"><ele>563.6666666666667</ele><time>2026-04-25T13:24:28.03Z</time></trkpt><trkpt lat="45.4191783" lon="14.0255635"><ele>565.0</ele><time>2026-04-25T13:24:29.03Z</time></trkpt><trkpt lat="45.419169" lon="14.0254442"><ele>567.0</ele><time>2026-04-25T13:24:30.034Z</time></trkpt><trkpt lat="45.4191583" lon="14.0253259"><ele>569.0</ele><time>2026-04-25T13:24:31.032Z</time></trkpt><trkpt lat="45.4191486" lon="14.0252042"><ele>571.0</ele><time>2026-04-25T13:24:32.032Z</time></trkpt><trkpt lat="45.4191426" lon="14.0250933"><ele>573.0</ele><time>2026-04-25T13:24:33.028Z</time></trkpt><trkpt lat="45.419141" lon="14.0249924"><ele>575.0</ele><time>2026-04-25T13:24:34.041Z</time></trkpt><trkpt lat="45.4191385" lon="14.0248955"><ele>577.0</ele><time>2026-04-25T13:24:35.029Z</time></trkpt><trkpt lat="45.4191423" lon="14.0247985"><ele>578.8571428571429</ele><time>2026-04-25T13:24:36.042Z</time></trkpt><trkpt lat="45.4191476" lon="14.0247021"><ele>580.7142857142858</ele><time>2026-04-25T13:24:37.033Z</time></trkpt><trkpt lat="45.4191537" lon="14.0245968"><ele>582.5714285714287</ele><time>2026-04-25T13:24:38.042Z</time></trkpt><trkpt lat="45.4191592" lon="14.0244918"><ele>584.4285714285714</ele><time>2026-04-25T13:24:39.03Z</time></trkpt><trkpt lat="45.4191577" lon="14.0243835"><ele>586.2857142857143</ele><time>2026-04-25T13:24:40.033Z</time></trkpt><trkpt lat="45.4191429" lon="14.0242778"><ele>588.1428571428572</ele><time>2026-04-25T13:24:41.032Z</time></trkpt><trkpt lat="45.4191258" lon="14.0241743"><ele>590.0</ele><time>2026-04-25T13:24:42.031Z</time></trkpt><trkpt lat="45.4191075" lon="14.024082"><ele>590.5</ele><time>2026-04-25T13:24:43.035Z</time></trkpt><trkpt lat="45.4190783" lon="14.0239992"><ele>591.0</ele><time>2026-04-25T13:24:44.028Z</time></trkpt><trkpt lat="45.4190401" lon="14.0239179"><ele>591.5</ele><time>2026-04-25T13:24:45.039Z</time></trkpt><trkpt lat="45.4189971" lon="14.0238335"><ele>592.0</ele><time>2026-04-25T13:24:46.033Z</time></trkpt><trkpt lat="45.418957" lon="14.0237506"><ele>592.5</ele><time>2026-04-25T13:24:47.038Z</time></trkpt><trkpt lat="45.4189131" lon="14.0236656"><ele>593.0</ele><time>2026-04-25T13:24:48.042Z</time></trkpt><trkpt lat="45.4188825" lon="14.0235295"><ele>593.0</ele><time>2026-04-25T13:24:50.043Z</time></trkpt><trkpt lat="45.4189449" lon="14.0234628"><ele>593.0</ele><time>2026-04-25T13:24:53.038Z</time></trkpt><trkpt lat="45.419008" lon="14.023473"><ele>593.0</ele><time>2026-04-25T13:24:55.034Z</time></trkpt><trkpt lat="45.4190911" lon="14.0234361"><ele>593.0</ele><time>2026-04-25T13:26:28.053Z</time></trkpt><trkpt lat="45.4192066" lon="14.0233636"><ele>593.0</ele><time>2026-04-25T13:26:30.058Z</time></trkpt><trkpt lat="45.4192822" lon="14.0233116"><ele>593.0</ele><time>2026-04-25T13:26:31.043Z</time></trkpt><trkpt lat="45.4193648" lon="14.0232512"><ele>593.5</ele><time>2026-04-25T13:26:32.054Z</time></trkpt><trkpt lat="45.4194376" lon="14.023184"><ele>594.0</ele><time>2026-04-25T13:26:33.044Z</time></trkpt><trkpt lat="45.4195018" lon="14.0230899"><ele>594.5</ele><time>2026-04-25T13:26:34.051Z</time></trkpt><trkpt lat="45.4195557" lon="14.0229881"><ele>595.0</ele><time>2026-04-25T13:26:35.035Z</time></trkpt><trkpt lat="45.4196111" lon="14.022881"><ele>595.5</ele><time>2026-04-25T13:26:36.043Z</time></trkpt><trkpt lat="45.419661" lon="14.0227797"><ele>596.0</ele><time>2026-04-25T13:26:37.049Z</time></trkpt><trkpt lat="45.4197105" lon="14.0226907"><ele>596.0</ele><time>2026-04-25T13:26:38.059Z</time></trkpt><trkpt lat="45.4197711" lon="14.0226136"><ele>596.0</ele><time>2026-04-25T13:26:39.051Z</time></trkpt><trkpt lat="45.4198482" lon="14.0225562"><ele>596.0</ele><time>2026-04-25T13:26:40.064Z</time></trkpt><trkpt lat="45.4199332" lon="14.0225165"><ele>596.0</ele><time>2026-04-25T13:26:41.039Z</time></trkpt><trkpt lat="45.4200194" lon="14.0224798"><ele>596.0</ele><time>2026-04-25T13:26:42.054Z</time></trkpt><trkpt lat="45.4201049" lon="14.0224351"><ele>596.0</ele><time>2026-04-25T13:26:43.049Z</time></trkpt><trkpt lat="45.4201905" lon="14.02238"><ele>595.6</ele><time>2026-04-25T13:26:44.049Z</time></trkpt><trkpt lat="45.4202751" lon="14.0223168"><ele>595.2</ele><time>2026-04-25T13:26:45.047Z</time></trkpt><trkpt lat="45.420364" lon="14.0222498"><ele>594.8</ele><time>2026-04-25T13:26:46.046Z</time></trkpt><trkpt lat="45.4204478" lon="14.0221746"><ele>594.4</ele><time>2026-04-25T13:26:47.045Z</time></trkpt><trkpt lat="45.4205352" lon="14.0220986"><ele>594.0</ele><time>2026-04-25T13:26:48.042Z</time></trkpt><trkpt lat="45.4206229" lon="14.022029"><ele>594.0</ele><time>2026-04-25T13:26:49.03Z</time></trkpt><trkpt lat="45.4207122" lon="14.0219679"><ele>594.0</ele><time>2026-04-25T13:26:50.032Z</time></trkpt><trkpt lat="45.4207942" lon="14.0219092"><ele>594.0</ele><time>2026-04-25T13:26:51.038Z</time></trkpt><trkpt lat="45.4208725" lon="14.0218466"><ele>594.0</ele><time>2026-04-25T13:26:52.05Z</time></trkpt><trkpt lat="45.4209496" lon="14.0217926"><ele>594.0</ele><time>2026-04-25T13:26:53.055Z</time></trkpt><trkpt lat="45.4210264" lon="14.0217436"><ele>594.0</ele><time>2026-04-25T13:26:54.052Z</time></trkpt><trkpt lat="45.4211069" lon="14.0216998"><ele>594.0</ele><time>2026-04-25T13:26:55.036Z</time></trkpt><trkpt lat="45.4211891" lon="14.0216635"><ele>594.0</ele><time>2026-04-25T13:26:56.043Z</time></trkpt><trkpt lat="45.4212762" lon="14.0216365"><ele>594.0</ele><time>2026-04-25T13:26:57.043Z</time></trkpt><trkpt lat="45.4213664" lon="14.0216153"><ele>594.0</ele><time>2026-04-25T13:26:58.041Z</time></trkpt><trkpt lat="45.421458" lon="14.0215997"><ele>594.0</ele><time>2026-04-25T13:26:59.059Z</time></trkpt><trkpt lat="45.4215456" lon="14.0215801"><ele>593.1666666666666</ele><time>2026-04-25T13:27:00.044Z</time></trkpt><trkpt lat="45.4216331" lon="14.0215644"><ele>592.3333333333334</ele><time>2026-04-25T13:27:01.053Z</time></trkpt><trkpt lat="45.4217227" lon="14.0215561"><ele>591.5</ele><time>2026-04-25T13:27:02.043Z</time></trkpt><trkpt lat="45.4218119" lon="14.0215483"><ele>590.6666666666667</ele><time>2026-04-25T13:27:03.041Z</time></trkpt><trkpt lat="45.4218994" lon="14.021538"><ele>589.8333333333334</ele><time>2026-04-25T13:27:04.037Z</time></trkpt><trkpt lat="45.4219809" lon="14.021518"><ele>589.0</ele><time>2026-04-25T13:27:05.04Z</time></trkpt><trkpt lat="45.4220623" lon="14.0214751"><ele>589.0</ele><time>2026-04-25T13:27:06.048Z</time></trkpt><trkpt lat="45.4221381" lon="14.0214306"><ele>589.0</ele><time>2026-04-25T13:27:07.038Z</time></trkpt><trkpt lat="45.4222114" lon="14.0213922"><ele>589.0</ele><time>2026-04-25T13:27:08.057Z</time></trkpt><trkpt lat="45.4222864" lon="14.0213621"><ele>589.0</ele><time>2026-04-25T13:27:09.041Z</time></trkpt><trkpt lat="45.4223611" lon="14.0213391"><ele>589.0</ele><time>2026-04-25T13:27:10.044Z</time></trkpt><trkpt lat="45.4224311" lon="14.0213114"><ele>589.0</ele><time>2026-04-25T13:27:11.044Z</time></trkpt><trkpt lat="45.4224996" lon="14.0212744"><ele>588.3333333333334</ele><time>2026-04-25T13:27:12.045Z</time></trkpt><trkpt lat="45.4225636" lon="14.0212327"><ele>587.6666666666667</ele><time>2026-04-25T13:27:13.057Z</time></trkpt><trkpt lat="45.4226308" lon="14.0211919"><ele>587.0</ele><time>2026-04-25T13:27:14.046Z</time></trkpt><trkpt lat="45.4227026" lon="14.0211556"><ele>586.3333333333334</ele><time>2026-04-25T13:27:15.04Z</time></trkpt><trkpt lat="45.4227772" lon="14.0211188"><ele>585.6666666666666</ele><time>2026-04-25T13:27:16.041Z</time></trkpt><trkpt lat="45.4228514" lon="14.0210836"><ele>585.0</ele><time>2026-04-25T13:27:17.04Z</time></trkpt><trkpt lat="45.4229293" lon="14.0210483"><ele>584.7142857142858</ele><time>2026-04-25T13:27:18.037Z</time></trkpt><trkpt lat="45.4230025" lon="14.0210194"><ele>584.4285714285714</ele><time>2026-04-25T13:27:19.039Z</time></trkpt><trkpt lat="45.4230722" lon="14.0209964"><ele>584.1428571428571</ele><time>2026-04-25T13:27:20.042Z</time></trkpt><trkpt lat="45.4231408" lon="14.0209808"><ele>583.8571428571429</ele><time>2026-04-25T13:27:21.041Z</time></trkpt><trkpt lat="45.4232089" lon="14.0209665"><ele>583.5714285714286</ele><time>2026-04-25T13:27:22.052Z</time></trkpt><trkpt lat="45.4232749" lon="14.0209596"><ele>583.2857142857143</ele><time>2026-04-25T13:27:23.037Z</time></trkpt><trkpt lat="45.4233494" lon="14.0209638"><ele>583.0</ele><time>2026-04-25T13:27:24.04Z</time></trkpt><trkpt lat="45.4234345" lon="14.0209752"><ele>583.0</ele><time>2026-04-25T13:27:25.045Z</time></trkpt><trkpt lat="45.42352" lon="14.0209915"><ele>583.0</ele><time>2026-04-25T13:27:26.041Z</time></trkpt><trkpt lat="45.4236063" lon="14.0210158"><ele>583.0</ele><time>2026-04-25T13:27:27.038Z</time></trkpt><trkpt lat="45.423698" lon="14.0210423"><ele>583.0</ele><time>2026-04-25T13:27:28.029Z</time></trkpt><trkpt lat="45.4237927" lon="14.0210631"><ele>583.0</ele><time>2026-04-25T13:27:29.033Z</time></trkpt><trkpt lat="45.4238952" lon="14.0210897"><ele>582.1999999999999</ele><time>2026-04-25T13:27:30.046Z</time></trkpt><trkpt lat="45.4240006" lon="14.0211159"><ele>581.4</ele><time>2026-04-25T13:27:31.056Z</time></trkpt><trkpt lat="45.4241131" lon="14.0211342"><ele>580.5999999999999</ele><time>2026-04-25T13:27:32.054Z</time></trkpt><trkpt lat="45.4242238" lon="14.0211611"><ele>579.8</ele><time>2026-04-25T13:27:33.048Z</time></trkpt><trkpt lat="45.424333" lon="14.0211936"><ele>579.0</ele><time>2026-04-25T13:27:34.052Z</time></trkpt><trkpt lat="45.4244444" lon="14.0212325"><ele>579.0</ele><time>2026-04-25T13:27:35.046Z</time></trkpt><trkpt lat="45.4245556" lon="14.0212667"><ele>579.0</ele><time>2026-04-25T13:27:36.061Z</time></trkpt><trkpt lat="45.4246721" lon="14.0212912"><ele>579.0</ele><time>2026-04-25T13:27:37.048Z</time></trkpt><trkpt lat="45.4247881" lon="14.0213145"><ele>579.0</ele><time>2026-04-25T13:27:38.05Z</time></trkpt><trkpt lat="45.4249035" lon="14.0213392"><ele>579.8</ele><time>2026-04-25T13:27:39.047Z</time></trkpt><trkpt lat="45.4250157" lon="14.0213662"><ele>580.5999999999999</ele><time>2026-04-25T13:27:40.063Z</time></trkpt><trkpt lat="45.4251243" lon="14.0213956"><ele>581.4</ele><time>2026-04-25T13:27:41.049Z</time></trkpt><trkpt lat="45.4252273" lon="14.021419"><ele>582.1999999999999</ele><time>2026-04-25T13:27:42.057Z</time></trkpt><trkpt lat="45.4253287" lon="14.0214303"><ele>583.0</ele><time>2026-04-25T13:27:43.051Z</time></trkpt><trkpt lat="45.4254242" lon="14.0214361"><ele>583.6</ele><time>2026-04-25T13:27:44.054Z</time></trkpt><trkpt lat="45.4255269" lon="14.0214474"><ele>584.1999999999999</ele><time>2026-04-25T13:27:45.046Z</time></trkpt><trkpt lat="45.4256309" lon="14.0214619"><ele>584.8</ele><time>2026-04-25T13:27:46.043Z</time></trkpt><trkpt lat="45.4257262" lon="14.0214599"><ele>585.4</ele><time>2026-04-25T13:27:47.05Z</time></trkpt><trkpt lat="45.4258177" lon="14.0214574"><ele>586.0</ele><time>2026-04-25T13:27:48.048Z</time></trkpt><trkpt lat="45.4259099" lon="14.0214626"><ele>586.0</ele><time>2026-04-25T13:27:49.052Z</time></trkpt><trkpt lat="45.4259936" lon="14.0214847"><ele>586.0</ele><time>2026-04-25T13:27:50.04Z</time></trkpt><trkpt lat="45.4260703" lon="14.0215128"><ele>586.0</ele><time>2026-04-25T13:27:51.038Z</time></trkpt><trkpt lat="45.4261486" lon="14.0215401"><ele>586.0</ele><time>2026-04-25T13:27:52.048Z</time></trkpt><trkpt lat="45.4262261" lon="14.0215683"><ele>586.0</ele><time>2026-04-25T13:27:53.043Z</time></trkpt><trkpt lat="45.4263005" lon="14.0215972"><ele>586.0</ele><time>2026-04-25T13:27:54.059Z</time></trkpt><trkpt lat="45.4263767" lon="14.0216272"><ele>585.8</ele><time>2026-04-25T13:27:55.044Z</time></trkpt><trkpt lat="45.4264586" lon="14.0216522"><ele>585.6</ele><time>2026-04-25T13:27:56.043Z</time></trkpt><trkpt lat="45.4265561" lon="14.021666"><ele>585.4</ele><time>2026-04-25T13:27:57.043Z</time></trkpt><trkpt lat="45.4266579" lon="14.0216491"><ele>585.2</ele><time>2026-04-25T13:27:58.043Z</time></trkpt><trkpt lat="45.4267648" lon="14.0216403"><ele>585.0</ele><time>2026-04-25T13:27:59.051Z</time></trkpt><trkpt lat="45.4268732" lon="14.0216563"><ele>583.5</ele><time>2026-04-25T13:28:00.039Z</time></trkpt><trkpt lat="45.426986" lon="14.0216788"><ele>582.0</ele><time>2026-04-25T13:28:01.04Z</time></trkpt><trkpt lat="45.4271024" lon="14.0216916"><ele>580.5</ele><time>2026-04-25T13:28:02.046Z</time></trkpt><trkpt lat="45.4272227" lon="14.0217036"><ele>579.0</ele><time>2026-04-25T13:28:03.048Z</time></trkpt><trkpt lat="45.4273484" lon="14.021725"><ele>578.5</ele><time>2026-04-25T13:28:04.055Z</time></trkpt><trkpt lat="45.4274668" lon="14.0217573"><ele>578.0</ele><time>2026-04-25T13:28:05.045Z</time></trkpt><trkpt lat="45.4275771" lon="14.0217894"><ele>577.5</ele><time>2026-04-25T13:28:06.039Z</time></trkpt><trkpt lat="45.4276898" lon="14.0218155"><ele>577.0</ele><time>2026-04-25T13:28:07.05Z</time></trkpt><trkpt lat="45.4278038" lon="14.0218324"><ele>577.0</ele><time>2026-04-25T13:28:08.054Z</time></trkpt><trkpt lat="45.4279236" lon="14.0218434"><ele>577.0</ele><time>2026-04-25T13:28:09.05Z</time></trkpt><trkpt lat="45.4280506" lon="14.0218663"><ele>577.0</ele><time>2026-04-25T13:28:10.052Z</time></trkpt><trkpt lat="45.4281755" lon="14.0218932"><ele>577.0</ele><time>2026-04-25T13:28:11.047Z</time></trkpt><trkpt lat="45.4283015" lon="14.0219178"><ele>577.75</ele><time>2026-04-25T13:28:12.044Z</time></trkpt><trkpt lat="45.428424" lon="14.0219367"><ele>578.5</ele><time>2026-04-25T13:28:13.06Z</time></trkpt><trkpt lat="45.4285397" lon="14.0219501"><ele>579.25</ele><time>2026-04-25T13:28:14.045Z</time></trkpt><trkpt lat="45.4286508" lon="14.0219611"><ele>580.0</ele><time>2026-04-25T13:28:15.052Z</time></trkpt><trkpt lat="45.4287542" lon="14.0219827"><ele>581.0</ele><time>2026-04-25T13:28:16.056Z</time></trkpt><trkpt lat="45.4288543" lon="14.022014"><ele>582.0</ele><time>2026-04-25T13:28:17.045Z</time></trkpt><trkpt lat="45.4289518" lon="14.0220497"><ele>583.0</ele><time>2026-04-25T13:28:18.037Z</time></trkpt><trkpt lat="45.4290574" lon="14.0220748"><ele>584.0</ele><time>2026-04-25T13:28:19.049Z</time></trkpt><trkpt lat="45.4291578" lon="14.0220838"><ele>585.0</ele><time>2026-04-25T13:28:20.047Z</time></trkpt><trkpt lat="45.429264" lon="14.0220707"><ele>585.0</ele><time>2026-04-25T13:28:21.04Z</time></trkpt><trkpt lat="45.4293715" lon="14.022037"><ele>585.0</ele><time>2026-04-25T13:28:22.043Z</time></trkpt><trkpt lat="45.4294798" lon="14.0219925"><ele>585.0</ele><time>2026-04-25T13:28:23.053Z</time></trkpt><trkpt lat="45.4295951" lon="14.021951"><ele>585.0</ele><time>2026-04-25T13:28:24.045Z</time></trkpt><trkpt lat="45.4297002" lon="14.0219174"><ele>585.0</ele><time>2026-04-25T13:28:25.037Z</time></trkpt><trkpt lat="45.4298013" lon="14.0218795"><ele>585.8</ele><time>2026-04-25T13:28:26.052Z</time></trkpt><trkpt lat="45.4298951" lon="14.0218374"><ele>586.6</ele><time>2026-04-25T13:28:27.034Z</time></trkpt><trkpt lat="45.4299951" lon="14.0217945"><ele>587.4</ele><time>2026-04-25T13:28:28.037Z</time></trkpt><trkpt lat="45.4300948" lon="14.0217503"><ele>588.2</ele><time>2026-04-25T13:28:29.045Z</time></trkpt><trkpt lat="45.4302064" lon="14.0217099"><ele>589.0</ele><time>2026-04-25T13:28:30.044Z</time></trkpt><trkpt lat="45.4303266" lon="14.0216797"><ele>589.0</ele><time>2026-04-25T13:28:31.042Z</time></trkpt><trkpt lat="45.4304431" lon="14.0216521"><ele>589.0</ele><time>2026-04-25T13:28:32.041Z</time></trkpt><trkpt lat="45.4305536" lon="14.0216251"><ele>589.0</ele><time>2026-04-25T13:28:33.039Z</time></trkpt><trkpt lat="45.4306659" lon="14.0215961"><ele>589.0</ele><time>2026-04-25T13:28:34.045Z</time></trkpt><trkpt lat="45.4307753" lon="14.0215736"><ele>589.2</ele><time>2026-04-25T13:28:35.051Z</time></trkpt><trkpt lat="45.4308798" lon="14.0215529"><ele>589.4</ele><time>2026-04-25T13:28:36.048Z</time></trkpt><trkpt lat="45.4309839" lon="14.0215303"><ele>589.6</ele><time>2026-04-25T13:28:37.059Z</time></trkpt><trkpt lat="45.4310937" lon="14.0215031"><ele>589.8</ele><time>2026-04-25T13:28:38.056Z</time></trkpt><trkpt lat="45.4312035" lon="14.0214708"><ele>590.0</ele><time>2026-04-25T13:28:39.052Z</time></trkpt><trkpt lat="45.4313108" lon="14.0214391"><ele>590.0</ele><time>2026-04-25T13:28:40.053Z</time></trkpt><trkpt lat="45.4314172" lon="14.0214185"><ele>590.0</ele><time>2026-04-25T13:28:41.048Z</time></trkpt><trkpt lat="45.4315168" lon="14.0213904"><ele>590.0</ele><time>2026-04-25T13:28:42.054Z</time></trkpt><trkpt lat="45.4316147" lon="14.021364"><ele>590.0</ele><time>2026-04-25T13:28:43.04Z</time></trkpt><trkpt lat="45.4317218" lon="14.02133"><ele>590.0</ele><time>2026-04-25T13:28:44.036Z</time></trkpt><trkpt lat="45.4318389" lon="14.0212982"><ele>590.0</ele><time>2026-04-25T13:28:45.041Z</time></trkpt><trkpt lat="45.4319574" lon="14.0212621"><ele>590.0</ele><time>2026-04-25T13:28:46.038Z</time></trkpt><trkpt lat="45.4320694" lon="14.021226"><ele>590.0</ele><time>2026-04-25T13:28:47.037Z</time></trkpt><trkpt lat="45.4321729" lon="14.0212035"><ele>590.0</ele><time>2026-04-25T13:28:48.045Z</time></trkpt><trkpt lat="45.4322604" lon="14.0211658"><ele>590.0</ele><time>2026-04-25T13:28:49.036Z</time></trkpt><trkpt lat="45.4323393" lon="14.0211388"><ele>588.5</ele><time>2026-04-25T13:28:50.039Z</time></trkpt><trkpt lat="45.43242" lon="14.0211446"><ele>587.0</ele><time>2026-04-25T13:28:51.034Z</time></trkpt><trkpt lat="45.4325021" lon="14.0211758"><ele>585.5</ele><time>2026-04-25T13:28:52.031Z</time></trkpt><trkpt lat="45.4325834" lon="14.021219"><ele>584.0</ele><time>2026-04-25T13:28:53.042Z</time></trkpt><trkpt lat="45.4326629" lon="14.0212623"><ele>582.5</ele><time>2026-04-25T13:28:54.045Z</time></trkpt><trkpt lat="45.4327425" lon="14.021291"><ele>581.0</ele><time>2026-04-25T13:28:55.057Z</time></trkpt><trkpt lat="45.4328225" lon="14.0213209"><ele>581.0</ele><time>2026-04-25T13:28:56.053Z</time></trkpt><trkpt lat="45.4329031" lon="14.021352"><ele>581.0</ele><time>2026-04-25T13:28:57.071Z</time></trkpt><trkpt lat="45.4329867" lon="14.0213833"><ele>581.0</ele><time>2026-04-25T13:28:58.056Z</time></trkpt><trkpt lat="45.4330656" lon="14.0214145"><ele>581.0</ele><time>2026-04-25T13:28:59.04Z</time></trkpt><trkpt lat="45.4331478" lon="14.0214444"><ele>581.0</ele><time>2026-04-25T13:29:00.051Z</time></trkpt><trkpt lat="45.4332309" lon="14.0214742"><ele>581.0</ele><time>2026-04-25T13:29:01.048Z</time></trkpt><trkpt lat="45.4333122" lon="14.0214982"><ele>579.2</ele><time>2026-04-25T13:29:02.046Z</time></trkpt><trkpt lat="45.4333975" lon="14.0215043"><ele>577.4000000000001</ele><time>2026-04-25T13:29:03.051Z</time></trkpt><trkpt lat="45.4334867" lon="14.0214786"><ele>575.6</ele><time>2026-04-25T13:29:04.052Z</time></trkpt><trkpt lat="45.433581" lon="14.0214227"><ele>573.8000000000001</ele><time>2026-04-25T13:29:05.044Z</time></trkpt><trkpt lat="45.4336771" lon="14.0213656"><ele>572.0</ele><time>2026-04-25T13:29:06.045Z</time></trkpt><trkpt lat="45.4337834" lon="14.0213079"><ele>572.4</ele><time>2026-04-25T13:29:07.045Z</time></trkpt><trkpt lat="45.4338885" lon="14.0212657"><ele>572.8000000000001</ele><time>2026-04-25T13:29:08.049Z</time></trkpt><trkpt lat="45.4339911" lon="14.02122"><ele>573.2</ele><time>2026-04-25T13:29:09.049Z</time></trkpt><trkpt lat="45.4340837" lon="14.0211544"><ele>573.6</ele><time>2026-04-25T13:29:10.045Z</time></trkpt><trkpt lat="45.4341755" lon="14.0210709"><ele>574.0</ele><time>2026-04-25T13:29:11.048Z</time></trkpt><trkpt lat="45.4342753" lon="14.0210048"><ele>574.0</ele><time>2026-04-25T13:29:12.053Z</time></trkpt><trkpt lat="45.4343841" lon="14.0209459"><ele>574.0</ele><time>2026-04-25T13:29:13.039Z</time></trkpt><trkpt lat="45.43449" lon="14.0208914"><ele>574.0</ele><time>2026-04-25T13:29:14.036Z</time></trkpt><trkpt lat="45.4345916" lon="14.0208453"><ele>574.0</ele><time>2026-04-25T13:29:15.043Z</time></trkpt><trkpt lat="45.4346881" lon="14.0208155"><ele>574.0</ele><time>2026-04-25T13:29:16.039Z</time></trkpt><trkpt lat="45.4347811" lon="14.0208155"><ele>575.6</ele><time>2026-04-25T13:29:17.048Z</time></trkpt><trkpt lat="45.4348742" lon="14.0208398"><ele>577.2</ele><time>2026-04-25T13:29:18.048Z</time></trkpt><trkpt lat="45.4349619" lon="14.0208688"><ele>578.8000000000001</ele><time>2026-04-25T13:29:19.04Z</time></trkpt><trkpt lat="45.4350565" lon="14.020886"><ele>580.4</ele><time>2026-04-25T13:29:20.04Z</time></trkpt><trkpt lat="45.4351429" lon="14.0209059"><ele>582.0</ele><time>2026-04-25T13:29:21.034Z</time></trkpt><trkpt lat="45.4352241" lon="14.0209262"><ele>582.0</ele><time>2026-04-25T13:29:22.038Z</time></trkpt><trkpt lat="45.4353148" lon="14.0209482"><ele>582.0</ele><time>2026-04-25T13:29:23.032Z</time></trkpt><trkpt lat="45.4354082" lon="14.0209714"><ele>582.0</ele><time>2026-04-25T13:29:24.046Z</time></trkpt><trkpt lat="45.4355071" lon="14.0209962"><ele>582.0</ele><time>2026-04-25T13:29:25.037Z</time></trkpt><trkpt lat="45.4356107" lon="14.0210108"><ele>582.0</ele><time>2026-04-25T13:29:26.04Z</time></trkpt><trkpt lat="45.4357208" lon="14.0210272"><ele>583.6</ele><time>2026-04-25T13:29:27.041Z</time></trkpt><trkpt lat="45.4358329" lon="14.0210487"><ele>585.2</ele><time>2026-04-25T13:29:28.041Z</time></trkpt><trkpt lat="45.4359443" lon="14.0210779"><ele>586.8</ele><time>2026-04-25T13:29:29.037Z</time></trkpt><trkpt lat="45.4360484" lon="14.0211023"><ele>588.4</ele><time>2026-04-25T13:29:30.035Z</time></trkpt><trkpt lat="45.4361468" lon="14.0211263"><ele>590.0</ele><time>2026-04-25T13:29:31.032Z</time></trkpt><trkpt lat="45.4362459" lon="14.0211365"><ele>591.6666666666666</ele><time>2026-04-25T13:29:32.041Z</time></trkpt><trkpt lat="45.4363375" lon="14.0211579"><ele>593.3333333333333</ele><time>2026-04-25T13:29:33.046Z</time></trkpt><trkpt lat="45.4364283" lon="14.0211925"><ele>595.0</ele><time>2026-04-25T13:29:34.039Z</time></trkpt><trkpt lat="45.4365086" lon="14.0212449"><ele>596.6666666666666</ele><time>2026-04-25T13:29:35.047Z</time></trkpt><trkpt lat="45.4365788" lon="14.0213036"><ele>598.3333333333334</ele><time>2026-04-25T13:29:36.043Z</time></trkpt><trkpt lat="45.4366377" lon="14.0213604"><ele>600.0</ele><time>2026-04-25T13:29:37.041Z</time></trkpt><trkpt lat="45.4367211" lon="14.021436"><ele>600.0</ele><time>2026-04-25T13:29:39.048Z</time></trkpt><trkpt lat="45.4367841" lon="14.0214796"><ele>600.0</ele><time>2026-04-25T13:29:41.034Z</time></trkpt><trkpt lat="45.4368615" lon="14.0215252"><ele>600.0</ele><time>2026-04-25T13:29:43.047Z</time></trkpt><trkpt lat="45.4369474" lon="14.0215962"><ele>600.0</ele><time>2026-04-25T13:29:45.041Z</time></trkpt><trkpt lat="45.4370422" lon="14.0216195"><ele>600.0</ele><time>2026-04-25T13:29:47.033Z</time></trkpt><trkpt lat="45.4371218" lon="14.0215241"><ele>601.5</ele><time>2026-04-25T13:29:49.038Z</time></trkpt><trkpt lat="45.4371894" lon="14.0213882"><ele>603.0</ele><time>2026-04-25T13:29:51.04Z</time></trkpt><trkpt lat="45.4372329" lon="14.0213217"><ele>604.5</ele><time>2026-04-25T13:29:52.034Z</time></trkpt><trkpt lat="45.4372765" lon="14.0212382"><ele>606.0</ele><time>2026-04-25T13:29:53.037Z</time></trkpt><trkpt lat="45.4373229" lon="14.0211525"><ele>607.5</ele><time>2026-04-25T13:29:54.052Z</time></trkpt><trkpt lat="45.4373722" lon="14.0210672"><ele>609.0</ele><time>2026-04-25T13:29:55.033Z</time></trkpt><trkpt lat="45.4374101" lon="14.0209741"><ele>609.0</ele><time>2026-04-25T13:29:56.039Z</time></trkpt><trkpt lat="45.4374194" lon="14.0208663"><ele>609.0</ele><time>2026-04-25T13:29:57.047Z</time></trkpt><trkpt lat="45.4374221" lon="14.0207529"><ele>609.0</ele><time>2026-04-25T13:29:58.044Z</time></trkpt><trkpt lat="45.4374302" lon="14.0206376"><ele>609.0</ele><time>2026-04-25T13:29:59.039Z</time></trkpt><trkpt lat="45.4374447" lon="14.0205438"><ele>609.0</ele><time>2026-04-25T13:30:00.048Z</time></trkpt><trkpt lat="45.4375431" lon="14.0204478"><ele>609.0</ele><time>2026-04-25T13:30:02.032Z</time></trkpt><trkpt lat="45.4375871" lon="14.0203809"><ele>608.8333333333334</ele><time>2026-04-25T13:30:03.041Z</time></trkpt><trkpt lat="45.4376284" lon="14.0203032"><ele>608.6666666666666</ele><time>2026-04-25T13:30:04.047Z</time></trkpt><trkpt lat="45.4376821" lon="14.0202257"><ele>608.5</ele><time>2026-04-25T13:30:05.044Z</time></trkpt><trkpt lat="45.4377448" lon="14.0201542"><ele>608.3333333333333</ele><time>2026-04-25T13:30:06.054Z</time></trkpt><trkpt lat="45.4378004" lon="14.0200787"><ele>608.1666666666666</ele><time>2026-04-25T13:30:07.054Z</time></trkpt><trkpt lat="45.4378513" lon="14.0199843"><ele>608.0</ele><time>2026-04-25T13:30:08.052Z</time></trkpt><trkpt lat="45.4379137" lon="14.0199036"><ele>609.5</ele><time>2026-04-25T13:30:09.046Z</time></trkpt><trkpt lat="45.4379849" lon="14.0198302"><ele>611.0</ele><time>2026-04-25T13:30:10.052Z</time></trkpt><trkpt lat="45.438046" lon="14.019746"><ele>612.5</ele><time>2026-04-25T13:30:11.053Z</time></trkpt><trkpt lat="45.438095" lon="14.0196361"><ele>614.0</ele><time>2026-04-25T13:30:12.037Z</time></trkpt><trkpt lat="45.4381359" lon="14.0195203"><ele>615.5</ele><time>2026-04-25T13:30:13.037Z</time></trkpt><trkpt lat="45.4381797" lon="14.0194027"><ele>617.0</ele><time>2026-04-25T13:30:14.042Z</time></trkpt><trkpt lat="45.4382306" lon="14.0192968"><ele>617.0</ele><time>2026-04-25T13:30:15.046Z</time></trkpt><trkpt lat="45.4382852" lon="14.01919"><ele>617.0</ele><time>2026-04-25T13:30:16.053Z</time></trkpt><trkpt lat="45.4383318" lon="14.0190823"><ele>617.0</ele><time>2026-04-25T13:30:17.047Z</time></trkpt><trkpt lat="45.4383729" lon="14.0189696"><ele>617.0</ele><time>2026-04-25T13:30:18.05Z</time></trkpt><trkpt lat="45.4384255" lon="14.0188689"><ele>617.0</ele><time>2026-04-25T13:30:19.041Z</time></trkpt><trkpt lat="45.4384847" lon="14.0187789"><ele>617.0</ele><time>2026-04-25T13:30:20.05Z</time></trkpt><trkpt lat="45.4385451" lon="14.0186836"><ele>616.6</ele><time>2026-04-25T13:30:21.05Z</time></trkpt><trkpt lat="45.438608" lon="14.01859"><ele>616.2</ele><time>2026-04-25T13:30:22.051Z</time></trkpt><trkpt lat="45.4386627" lon="14.0184809"><ele>615.8</ele><time>2026-04-25T13:30:23.048Z</time></trkpt><trkpt lat="45.4387065" lon="14.0183636"><ele>615.4</ele><time>2026-04-25T13:30:24.048Z</time></trkpt><trkpt lat="45.4387536" lon="14.0182482"><ele>615.0</ele><time>2026-04-25T13:30:25.044Z</time></trkpt><trkpt lat="45.4388037" lon="14.0181405"><ele>616.6666666666666</ele><time>2026-04-25T13:30:26.05Z</time></trkpt><trkpt lat="45.4388521" lon="14.0180433"><ele>618.3333333333334</ele><time>2026-04-25T13:30:27.043Z</time></trkpt><trkpt lat="45.4388974" lon="14.0179527"><ele>620.0</ele><time>2026-04-25T13:30:28.057Z</time></trkpt><trkpt lat="45.4389491" lon="14.0178601"><ele>621.6666666666667</ele><time>2026-04-25T13:30:29.052Z</time></trkpt><trkpt lat="45.4390128" lon="14.0177846"><ele>623.3333333333334</ele><time>2026-04-25T13:30:30.041Z</time></trkpt><trkpt lat="45.4390842" lon="14.017747"><ele>625.0</ele><time>2026-04-25T13:30:31.043Z</time></trkpt><trkpt lat="45.4391603" lon="14.0177239"><ele>625.0</ele><time>2026-04-25T13:30:32.039Z</time></trkpt><trkpt lat="45.4392378" lon="14.0176941"><ele>625.0</ele><time>2026-04-25T13:30:33.043Z</time></trkpt><trkpt lat="45.4393116" lon="14.0176647"><ele>625.0</ele><time>2026-04-25T13:30:34.05Z</time></trkpt><trkpt lat="45.439378" lon="14.0176111"><ele>625.0</ele><time>2026-04-25T13:30:35.042Z</time></trkpt><trkpt lat="45.4394363" lon="14.0175392"><ele>625.0</ele><time>2026-04-25T13:30:36.056Z</time></trkpt><trkpt lat="45.4394906" lon="14.0174603"><ele>625.0</ele><time>2026-04-25T13:30:37.045Z</time></trkpt><trkpt lat="45.4395542" lon="14.0173759"><ele>624.8333333333334</ele><time>2026-04-25T13:30:38.041Z</time></trkpt><trkpt lat="45.4396226" lon="14.0173114"><ele>624.6666666666667</ele><time>2026-04-25T13:30:39.041Z</time></trkpt><trkpt lat="45.4396956" lon="14.0172643"><ele>624.5</ele><time>2026-04-25T13:30:40.055Z</time></trkpt><trkpt lat="45.4397718" lon="14.0172189"><ele>624.3333333333334</ele><time>2026-04-25T13:30:41.048Z</time></trkpt><trkpt lat="45.4398516" lon="14.0171617"><ele>624.1666666666666</ele><time>2026-04-25T13:30:42.049Z</time></trkpt><trkpt lat="45.4399301" lon="14.0171095"><ele>624.0</ele><time>2026-04-25T13:30:43.051Z</time></trkpt><trkpt lat="45.4400089" lon="14.0170546"><ele>625.6</ele><time>2026-04-25T13:30:44.043Z</time></trkpt><trkpt lat="45.4400974" lon="14.0170159"><ele>627.2</ele><time>2026-04-25T13:30:45.042Z</time></trkpt><trkpt lat="45.4401924" lon="14.0169874"><ele>628.8000000000001</ele><time>2026-04-25T13:30:46.055Z</time></trkpt><trkpt lat="45.4402868" lon="14.0169651"><ele>630.4</ele><time>2026-04-25T13:30:47.041Z</time></trkpt><trkpt lat="45.4403805" lon="14.0169639"><ele>632.0</ele><time>2026-04-25T13:30:48.054Z</time></trkpt><trkpt lat="45.4404753" lon="14.0169677"><ele>632.6666666666666</ele><time>2026-04-25T13:30:49.045Z</time></trkpt><trkpt lat="45.4405688" lon="14.016967"><ele>633.3333333333333</ele><time>2026-04-25T13:30:50.05Z</time></trkpt><trkpt lat="45.4406598" lon="14.0169656"><ele>634.0</ele><time>2026-04-25T13:30:51.05Z</time></trkpt><trkpt lat="45.4407494" lon="14.0169563"><ele>634.6666666666666</ele><time>2026-04-25T13:30:52.045Z</time></trkpt><trkpt lat="45.4408309" lon="14.0169268"><ele>635.3333333333334</ele><time>2026-04-25T13:30:53.039Z</time></trkpt><trkpt lat="45.4408998" lon="14.016885"><ele>636.0</ele><time>2026-04-25T13:30:54.044Z</time></trkpt><trkpt lat="45.4409669" lon="14.0168287"><ele>636.0</ele><time>2026-04-25T13:30:55.049Z</time></trkpt><trkpt lat="45.4410411" lon="14.0167608"><ele>636.0</ele><time>2026-04-25T13:30:56.043Z</time></trkpt><trkpt lat="45.4411164" lon="14.0166809"><ele>636.0</ele><time>2026-04-25T13:30:57.039Z</time></trkpt><trkpt lat="45.4411949" lon="14.0165906"><ele>636.0</ele><time>2026-04-25T13:30:58.04Z</time></trkpt><trkpt lat="45.4412687" lon="14.0165097"><ele>636.0</ele><time>2026-04-25T13:30:59.043Z</time></trkpt><trkpt lat="45.4413447" lon="14.0164225"><ele>638.0</ele><time>2026-04-25T13:31:00.055Z</time></trkpt><trkpt lat="45.4414254" lon="14.0163333"><ele>640.0</ele><time>2026-04-25T13:31:01.046Z</time></trkpt><trkpt lat="45.4415053" lon="14.0162402"><ele>642.0</ele><time>2026-04-25T13:31:02.042Z</time></trkpt><trkpt lat="45.4415847" lon="14.0161461"><ele>644.0</ele><time>2026-04-25T13:31:03.043Z</time></trkpt><trkpt lat="45.4416608" lon="14.0160456"><ele>646.0</ele><time>2026-04-25T13:31:04.048Z</time></trkpt><trkpt lat="45.4417278" lon="14.0159749"><ele>646.0</ele><time>2026-04-25T13:31:05.045Z</time></trkpt><trkpt lat="45.4417988" lon="14.0159869"><ele>646.0</ele><time>2026-04-25T13:31:07.034Z</time></trkpt><trkpt lat="45.4418661" lon="14.0160741"><ele>646.0</ele><time>2026-04-25T13:31:09.042Z</time></trkpt><trkpt lat="45.4419433" lon="14.016164"><ele>646.0</ele><time>2026-04-25T13:31:10.047Z</time></trkpt><trkpt lat="45.4420343" lon="14.0162596"><ele>646.0</ele><time>2026-04-25T13:31:11.048Z</time></trkpt><trkpt lat="45.4421068" lon="14.0163494"><ele>648.1999999999999</ele><time>2026-04-25T13:31:12.049Z</time></trkpt><trkpt lat="45.4421757" lon="14.0164259"><ele>650.4</ele><time>2026-04-25T13:31:13.049Z</time></trkpt><trkpt lat="45.4422654" lon="14.0164748"><ele>652.6</ele><time>2026-04-25T13:31:14.047Z</time></trkpt><trkpt lat="45.4423837" lon="14.0164953"><ele>654.8</ele><time>2026-04-25T13:31:15.033Z</time></trkpt><trkpt lat="45.4425152" lon="14.0165141"><ele>657.0</ele><time>2026-04-25T13:31:16.038Z</time></trkpt><trkpt lat="45.4426201" lon="14.0165364"><ele>657.0</ele><time>2026-04-25T13:31:17.05Z</time></trkpt><trkpt lat="45.4427152" lon="14.016586"><ele>657.0</ele><time>2026-04-25T13:31:18.049Z</time></trkpt><trkpt lat="45.4427958" lon="14.0166579"><ele>657.0</ele><time>2026-04-25T13:31:19.039Z</time></trkpt><trkpt lat="45.4428672" lon="14.0167298"><ele>657.0</ele><time>2026-04-25T13:31:20.049Z</time></trkpt><trkpt lat="45.4429253" lon="14.0168227"><ele>657.0</ele><time>2026-04-25T13:31:21.053Z</time></trkpt><trkpt lat="45.442977" lon="14.0169228"><ele>656.8</ele><time>2026-04-25T13:31:22.042Z</time></trkpt><trkpt lat="45.4430549" lon="14.0169986"><ele>656.6</ele><time>2026-04-25T13:31:23.051Z</time></trkpt><trkpt lat="45.443138" lon="14.0170528"><ele>656.4</ele><time>2026-04-25T13:31:24.044Z</time></trkpt><trkpt lat="45.4432254" lon="14.0171116"><ele>656.1999999999999</ele><time>2026-04-25T13:31:25.053Z</time></trkpt><trkpt lat="45.4432985" lon="14.0171927"><ele>656.0</ele><time>2026-04-25T13:31:26.048Z</time></trkpt><trkpt lat="45.4433629" lon="14.0172911"><ele>656.0</ele><time>2026-04-25T13:31:27.039Z</time></trkpt><trkpt lat="45.4434347" lon="14.0173793"><ele>656.0</ele><time>2026-04-25T13:31:28.037Z</time></trkpt><trkpt lat="45.4435139" lon="14.0174583"><ele>656.0</ele><time>2026-04-25T13:31:29.041Z</time></trkpt><trkpt lat="45.4435986" lon="14.0175323"><ele>656.0</ele><time>2026-04-25T13:31:30.04Z</time></trkpt><trkpt lat="45.443677" lon="14.0175788"><ele>656.0</ele><time>2026-04-25T13:31:31.05Z</time></trkpt><trkpt lat="45.443749" lon="14.0175955"><ele>656.0</ele><time>2026-04-25T13:31:32.045Z</time></trkpt><trkpt lat="45.4438175" lon="14.0175867"><ele>656.6666666666666</ele><time>2026-04-25T13:31:33.029Z</time></trkpt><trkpt lat="45.4438782" lon="14.0175518"><ele>657.3333333333333</ele><time>2026-04-25T13:31:34.036Z</time></trkpt><trkpt lat="45.4439399" lon="14.0174893"><ele>658.0</ele><time>2026-04-25T13:31:35.039Z</time></trkpt><trkpt lat="45.4440038" lon="14.0174379"><ele>658.6666666666666</ele><time>2026-04-25T13:31:36.041Z</time></trkpt><trkpt lat="45.4440668" lon="14.0174002"><ele>659.3333333333334</ele><time>2026-04-25T13:31:37.047Z</time></trkpt><trkpt lat="45.4441538" lon="14.0173864"><ele>660.0</ele><time>2026-04-25T13:31:39.038Z</time></trkpt><trkpt lat="45.4442185" lon="14.0174802"><ele>660.0</ele><time>2026-04-25T13:31:41.032Z</time></trkpt><trkpt lat="45.4442798" lon="14.0176114"><ele>660.0</ele><time>2026-04-25T13:31:43.052Z</time></trkpt><trkpt lat="45.4443459" lon="14.0176331"><ele>660.0</ele><time>2026-04-25T13:31:45.048Z</time></trkpt><trkpt lat="45.4443997" lon="14.0175642"><ele>660.0</ele><time>2026-04-25T13:31:47.044Z</time></trkpt><trkpt lat="45.4444323" lon="14.0174367"><ele>660.0</ele><time>2026-04-25T13:31:48.05Z</time></trkpt><trkpt lat="45.4444603" lon="14.0173331"><ele>660.0</ele><time>2026-04-25T13:31:49.043Z</time></trkpt><trkpt lat="45.4444932" lon="14.0172429"><ele>660.0</ele><time>2026-04-25T13:31:50.045Z</time></trkpt><trkpt lat="45.4445591" lon="14.0171022"><ele>660.0</ele><time>2026-04-25T13:31:52.058Z</time></trkpt><trkpt lat="45.4445976" lon="14.0170312"><ele>660.0</ele><time>2026-04-25T13:31:53.062Z</time></trkpt><trkpt lat="45.4446429" lon="14.0169424"><ele>660.0</ele><time>2026-04-25T13:31:54.048Z</time></trkpt><trkpt lat="45.4446954" lon="14.0168382"><ele>660.0</ele><time>2026-04-25T13:31:55.036Z</time></trkpt><trkpt lat="45.4447538" lon="14.016721"><ele>660.8</ele><time>2026-04-25T13:31:56.042Z</time></trkpt><trkpt lat="45.4448151" lon="14.0166049"><ele>661.6</ele><time>2026-04-25T13:31:57.04Z</time></trkpt><trkpt lat="45.4448766" lon="14.0164916"><ele>662.4000000000001</ele><time>2026-04-25T13:31:58.035Z</time></trkpt><trkpt lat="45.4449329" lon="14.0163802"><ele>663.2</ele><time>2026-04-25T13:31:59.041Z</time></trkpt><trkpt lat="45.4449869" lon="14.0162657"><ele>664.0</ele><time>2026-04-25T13:32:00.043Z</time></trkpt><trkpt lat="45.4450389" lon="14.0161598"><ele>664.0</ele><time>2026-04-25T13:32:01.039Z</time></trkpt><trkpt lat="45.4450926" lon="14.0160588"><ele>664.0</ele><time>2026-04-25T13:32:02.045Z</time></trkpt><trkpt lat="45.4451575" lon="14.0159757"><ele>664.0</ele><time>2026-04-25T13:32:03.049Z</time></trkpt><trkpt lat="45.4452252" lon="14.0159339"><ele>664.0</ele><time>2026-04-25T13:32:04.048Z</time></trkpt><trkpt lat="45.4452987" lon="14.0159394"><ele>664.0</ele><time>2026-04-25T13:32:05.045Z</time></trkpt><trkpt lat="45.4453796" lon="14.0159876"><ele>664.0</ele><time>2026-04-25T13:32:06.032Z</time></trkpt><trkpt lat="45.4454664" lon="14.0160446"><ele>664.8333333333334</ele><time>2026-04-25T13:32:07.035Z</time></trkpt><trkpt lat="45.4455528" lon="14.01608"><ele>665.6666666666667</ele><time>2026-04-25T13:32:08.042Z</time></trkpt><trkpt lat="45.4456474" lon="14.0161072"><ele>666.5</ele><time>2026-04-25T13:32:09.046Z</time></trkpt><trkpt lat="45.4457312" lon="14.0161197"><ele>667.3333333333334</ele><time>2026-04-25T13:32:10.049Z</time></trkpt><trkpt lat="45.4457989" lon="14.016105"><ele>668.1666666666666</ele><time>2026-04-25T13:32:11.042Z</time></trkpt><trkpt lat="45.4458514" lon="14.0160412"><ele>669.0</ele><time>2026-04-25T13:32:12.032Z</time></trkpt><trkpt lat="45.4458894" lon="14.0159405"><ele>669.0</ele><time>2026-04-25T13:32:13.036Z</time></trkpt><trkpt lat="45.4459216" lon="14.0158308"><ele>669.0</ele><time>2026-04-25T13:32:14.038Z</time></trkpt><trkpt lat="45.445947" lon="14.0157379"><ele>669.0</ele><time>2026-04-25T13:32:15.047Z</time></trkpt><trkpt lat="45.4459724" lon="14.0156522"><ele>669.0</ele><time>2026-04-25T13:32:16.045Z</time></trkpt><trkpt lat="45.4459936" lon="14.0155602"><ele>669.0</ele><time>2026-04-25T13:32:17.039Z</time></trkpt><trkpt lat="45.4460115" lon="14.0154678"><ele>669.0</ele><time>2026-04-25T13:32:18.037Z</time></trkpt><trkpt lat="45.4460686" lon="14.01532"><ele>668.8333333333334</ele><time>2026-04-25T13:32:20.046Z</time></trkpt><trkpt lat="45.4461834" lon="14.0152938"><ele>668.6666666666666</ele><time>2026-04-25T13:32:22.044Z</time></trkpt><trkpt lat="45.4462536" lon="14.0153012"><ele>668.5</ele><time>2026-04-25T13:32:23.035Z</time></trkpt><trkpt lat="45.4463209" lon="14.0153162"><ele>668.3333333333333</ele><time>2026-04-25T13:32:24.046Z</time></trkpt><trkpt lat="45.4464" lon="14.0153417"><ele>668.1666666666666</ele><time>2026-04-25T13:32:25.041Z</time></trkpt><trkpt lat="45.4464839" lon="14.0153791"><ele>668.0</ele><time>2026-04-25T13:32:26.053Z</time></trkpt><trkpt lat="45.4465644" lon="14.0154413"><ele>669.5</ele><time>2026-04-25T13:32:27.048Z</time></trkpt><trkpt lat="45.4466373" lon="14.0155173"><ele>671.0</ele><time>2026-04-25T13:32:28.057Z</time></trkpt><trkpt lat="45.446716" lon="14.0155649"><ele>672.5</ele><time>2026-04-25T13:32:29.048Z</time></trkpt><trkpt lat="45.4468022" lon="14.0155581"><ele>674.0</ele><time>2026-04-25T13:32:30.045Z</time></trkpt><trkpt lat="45.446893" lon="14.0155333"><ele>675.5</ele><time>2026-04-25T13:32:31.037Z</time></trkpt><trkpt lat="45.4469804" lon="14.0155038"><ele>677.0</ele><time>2026-04-25T13:32:32.052Z</time></trkpt><trkpt lat="45.44706" lon="14.015459"><ele>677.75</ele><time>2026-04-25T13:32:33.051Z</time></trkpt><trkpt lat="45.4471326" lon="14.0153633"><ele>678.5</ele><time>2026-04-25T13:32:34.039Z</time></trkpt><trkpt lat="45.4472042" lon="14.0152354"><ele>679.25</ele><time>2026-04-25T13:32:35.033Z</time></trkpt><trkpt lat="45.4472753" lon="14.0150967"><ele>680.0</ele><time>2026-04-25T13:32:36.045Z</time></trkpt><trkpt lat="45.4473476" lon="14.0149501"><ele>680.0</ele><time>2026-04-25T13:32:37.031Z</time></trkpt><trkpt lat="45.447409" lon="14.0148044"><ele>680.0</ele><time>2026-04-25T13:32:38.044Z</time></trkpt><trkpt lat="45.4474634" lon="14.0146631"><ele>680.0</ele><time>2026-04-25T13:32:39.046Z</time></trkpt><trkpt lat="45.4475255" lon="14.0145289"><ele>680.0</ele><time>2026-04-25T13:32:40.055Z</time></trkpt><trkpt lat="45.4475953" lon="14.0143922"><ele>680.0</ele><time>2026-04-25T13:32:41.047Z</time></trkpt><trkpt lat="45.4476717" lon="14.0142515"><ele>680.0</ele><time>2026-04-25T13:32:42.053Z</time></trkpt><trkpt lat="45.4477431" lon="14.0141143"><ele>680.0</ele><time>2026-04-25T13:32:43.049Z</time></trkpt><trkpt lat="45.4478135" lon="14.0139732"><ele>680.0</ele><time>2026-04-25T13:32:44.069Z</time></trkpt><trkpt lat="45.4478687" lon="14.0138021"><ele>681.0</ele><time>2026-04-25T13:32:45.052Z</time></trkpt><trkpt lat="45.4479181" lon="14.0136276"><ele>682.0</ele><time>2026-04-25T13:32:46.046Z</time></trkpt><trkpt lat="45.4479665" lon="14.0134572"><ele>683.0</ele><time>2026-04-25T13:32:47.043Z</time></trkpt><trkpt lat="45.4480198" lon="14.0132728"><ele>684.0</ele><time>2026-04-25T13:32:48.059Z</time></trkpt><trkpt lat="45.4480747" lon="14.0130886"><ele>684.0</ele><time>2026-04-25T13:32:49.061Z</time></trkpt><trkpt lat="45.4481306" lon="14.0129049"><ele>684.0</ele><time>2026-04-25T13:32:50.047Z</time></trkpt><trkpt lat="45.4481969" lon="14.0127217"><ele>684.0</ele><time>2026-04-25T13:32:51.055Z</time></trkpt><trkpt lat="45.4482697" lon="14.0125384"><ele>684.0</ele><time>2026-04-25T13:32:52.053Z</time></trkpt><trkpt lat="45.4483446" lon="14.0123575"><ele>682.5</ele><time>2026-04-25T13:32:53.047Z</time></trkpt><trkpt lat="45.4484195" lon="14.0121756"><ele>681.0</ele><time>2026-04-25T13:32:54.052Z</time></trkpt><trkpt lat="45.4484964" lon="14.0119966"><ele>679.5</ele><time>2026-04-25T13:32:55.036Z</time></trkpt><trkpt lat="45.4485741" lon="14.0118143"><ele>678.0</ele><time>2026-04-25T13:32:56.042Z</time></trkpt><trkpt lat="45.4486461" lon="14.0116358"><ele>676.5</ele><time>2026-04-25T13:32:57.032Z</time></trkpt><trkpt lat="45.4487184" lon="14.0114577"><ele>675.0</ele><time>2026-04-25T13:32:58.038Z</time></trkpt><trkpt lat="45.4487913" lon="14.0112779"><ele>673.5</ele><time>2026-04-25T13:32:59.044Z</time></trkpt><trkpt lat="45.4488637" lon="14.0110973"><ele>672.0</ele><time>2026-04-25T13:33:00.047Z</time></trkpt><trkpt lat="45.448937" lon="14.0109137"><ele>673.5</ele><time>2026-04-25T13:33:01.05Z</time></trkpt><trkpt lat="45.4490043" lon="14.0107448"><ele>675.0</ele><time>2026-04-25T13:33:02.043Z</time></trkpt><trkpt lat="45.4490697" lon="14.0105838"><ele>676.5</ele><time>2026-04-25T13:33:03.048Z</time></trkpt><trkpt lat="45.4491355" lon="14.0104354"><ele>678.0</ele><time>2026-04-25T13:33:04.045Z</time></trkpt><trkpt lat="45.4492141" lon="14.0102909"><ele>678.0</ele><time>2026-04-25T13:33:05.052Z</time></trkpt><trkpt lat="45.4492918" lon="14.0101507"><ele>678.0</ele><time>2026-04-25T13:33:06.052Z</time></trkpt><trkpt lat="45.4493878" lon="14.01001"><ele>678.0</ele><time>2026-04-25T13:33:07.041Z</time></trkpt><trkpt lat="45.4495062" lon="14.0098502"><ele>678.0</ele><time>2026-04-25T13:33:08.046Z</time></trkpt><trkpt lat="45.449614" lon="14.0096721"><ele>678.0</ele><time>2026-04-25T13:33:09.041Z</time></trkpt><trkpt lat="45.4497186" lon="14.0094716"><ele>678.0</ele><time>2026-04-25T13:33:10.047Z</time></trkpt><trkpt lat="45.4498172" lon="14.0092616"><ele>678.0</ele><time>2026-04-25T13:33:11.043Z</time></trkpt><trkpt lat="45.4499066" lon="14.0090557"><ele>678.0</ele><time>2026-04-25T13:33:12.032Z</time></trkpt><trkpt lat="45.4499906" lon="14.0088652"><ele>678.0</ele><time>2026-04-25T13:33:13.033Z</time></trkpt><trkpt lat="45.4500751" lon="14.0086804"><ele>678.0</ele><time>2026-04-25T13:33:14.038Z</time></trkpt><trkpt lat="45.4501592" lon="14.0084944"><ele>676.75</ele><time>2026-04-25T13:33:15.047Z</time></trkpt><trkpt lat="45.4502442" lon="14.0083181"><ele>675.5</ele><time>2026-04-25T13:33:16.033Z</time></trkpt><trkpt lat="45.4503285" lon="14.0081541"><ele>674.25</ele><time>2026-04-25T13:33:17.041Z</time></trkpt><trkpt lat="45.450411" lon="14.0079898"><ele>673.0</ele><time>2026-04-25T13:33:18.048Z</time></trkpt><trkpt lat="45.4504922" lon="14.0078354"><ele>673.25</ele><time>2026-04-25T13:33:19.044Z</time></trkpt><trkpt lat="45.4505692" lon="14.0076805"><ele>673.5</ele><time>2026-04-25T13:33:20.067Z</time></trkpt><trkpt lat="45.450636" lon="14.0075338"><ele>673.75</ele><time>2026-04-25T13:33:21.049Z</time></trkpt><trkpt lat="45.450703" lon="14.0074082"><ele>674.0</ele><time>2026-04-25T13:33:22.048Z</time></trkpt><trkpt lat="45.4507645" lon="14.0072923"><ele>674.0</ele><time>2026-04-25T13:33:23.047Z</time></trkpt><trkpt lat="45.4508178" lon="14.00717"><ele>674.0</ele><time>2026-04-25T13:33:24.052Z</time></trkpt><trkpt lat="45.4508656" lon="14.007021"><ele>674.0</ele><time>2026-04-25T13:33:25.063Z</time></trkpt><trkpt lat="45.4509116" lon="14.0068561"><ele>674.0</ele><time>2026-04-25T13:33:26.044Z</time></trkpt><trkpt lat="45.4509764" lon="14.0067017"><ele>671.25</ele><time>2026-04-25T13:33:27.044Z</time></trkpt><trkpt lat="45.4510448" lon="14.006555"><ele>668.5</ele><time>2026-04-25T13:33:28.052Z</time></trkpt><trkpt lat="45.4511132" lon="14.0064205"><ele>665.75</ele><time>2026-04-25T13:33:29.044Z</time></trkpt><trkpt lat="45.4511818" lon="14.0062936"><ele>663.0</ele><time>2026-04-25T13:33:30.051Z</time></trkpt><trkpt lat="45.4512474" lon="14.0061869"><ele>662.2</ele><time>2026-04-25T13:33:31.051Z</time></trkpt><trkpt lat="45.4513092" lon="14.006082"><ele>661.4</ele><time>2026-04-25T13:33:32.049Z</time></trkpt><trkpt lat="45.4513706" lon="14.0059786"><ele>660.6</ele><time>2026-04-25T13:33:33.045Z</time></trkpt><trkpt lat="45.4514595" lon="14.0058901"><ele>659.8000000000001</ele><time>2026-04-25T13:33:34.055Z</time></trkpt><trkpt lat="45.4515661" lon="14.005797"><ele>659.0</ele><time>2026-04-25T13:33:35.039Z</time></trkpt><trkpt lat="45.4516851" lon="14.0056824"><ele>659.0</ele><time>2026-04-25T13:33:36.039Z</time></trkpt><trkpt lat="45.4518125" lon="14.005562"><ele>659.0</ele><time>2026-04-25T13:33:37.037Z</time></trkpt><trkpt lat="45.451946" lon="14.0054313"><ele>659.0</ele><time>2026-04-25T13:33:38.042Z</time></trkpt><trkpt lat="45.4520692" lon="14.0053176"><ele>659.25</ele><time>2026-04-25T13:33:39.039Z</time></trkpt><trkpt lat="45.452179" lon="14.0052006"><ele>659.5</ele><time>2026-04-25T13:33:40.037Z</time></trkpt><trkpt lat="45.4522895" lon="14.0050773"><ele>659.75</ele><time>2026-04-25T13:33:41.048Z</time></trkpt><trkpt lat="45.4523939" lon="14.0049655"><ele>660.0</ele><time>2026-04-25T13:33:42.043Z</time></trkpt><trkpt lat="45.4524833" lon="14.0048955"><ele>660.0</ele><time>2026-04-25T13:33:43.035Z</time></trkpt><trkpt lat="45.4525544" lon="14.0048824"><ele>660.0</ele><time>2026-04-25T13:33:44.05Z</time></trkpt><trkpt lat="45.4526425" lon="14.0049685"><ele>660.0</ele><time>2026-04-25T13:33:46.046Z</time></trkpt><trkpt lat="45.4526888" lon="14.0050607"><ele>660.0</ele><time>2026-04-25T13:33:47.037Z</time></trkpt><trkpt lat="45.4527342" lon="14.005165"><ele>660.0</ele><time>2026-04-25T13:33:48.041Z</time></trkpt><trkpt lat="45.4527829" lon="14.0052506"><ele>660.0</ele><time>2026-04-25T13:33:49.04Z</time></trkpt><trkpt lat="45.4528376" lon="14.0053228"><ele>661.1428571428572</ele><time>2026-04-25T13:33:50.038Z</time></trkpt><trkpt lat="45.4529039" lon="14.0053622"><ele>662.2857142857143</ele><time>2026-04-25T13:33:51.036Z</time></trkpt><trkpt lat="45.4529704" lon="14.0053742"><ele>663.4285714285714</ele><time>2026-04-25T13:33:52.037Z</time></trkpt><trkpt lat="45.4530414" lon="14.0053529"><ele>664.5714285714287</ele><time>2026-04-25T13:33:53.041Z</time></trkpt><trkpt lat="45.4531127" lon="14.0053187"><ele>665.7142857142858</ele><time>2026-04-25T13:33:54.036Z</time></trkpt><trkpt lat="45.4531838" lon="14.0052757"><ele>666.8571428571429</ele><time>2026-04-25T13:33:55.035Z</time></trkpt><trkpt lat="45.453258" lon="14.0052311"><ele>668.0</ele><time>2026-04-25T13:33:56.041Z</time></trkpt><trkpt lat="45.4533274" lon="14.0051941"><ele>668.8333333333333</ele><time>2026-04-25T13:33:57.046Z</time></trkpt><trkpt lat="45.4533948" lon="14.0051877"><ele>669.6666666666666</ele><time>2026-04-25T13:33:58.046Z</time></trkpt><trkpt lat="45.4534549" lon="14.0052171"><ele>670.5</ele><time>2026-04-25T13:33:59.04Z</time></trkpt><trkpt lat="45.4535361" lon="14.0053537"><ele>671.3333333333334</ele><time>2026-04-25T13:34:01.039Z</time></trkpt><trkpt lat="45.4535528" lon="14.0054553"><ele>672.1666666666667</ele><time>2026-04-25T13:34:02.034Z</time></trkpt><trkpt lat="45.4535528" lon="14.0055544"><ele>673.0</ele><time>2026-04-25T13:34:03.038Z</time></trkpt><trkpt lat="45.4535333" lon="14.0056532"><ele>673.0</ele><time>2026-04-25T13:34:04.041Z</time></trkpt><trkpt lat="45.4535092" lon="14.0057458"><ele>673.0</ele><time>2026-04-25T13:34:05.046Z</time></trkpt><trkpt lat="45.453474" lon="14.0058361"><ele>673.0</ele><time>2026-04-25T13:34:06.052Z</time></trkpt><trkpt lat="45.4534312" lon="14.0059249"><ele>673.0</ele><time>2026-04-25T13:34:07.046Z</time></trkpt><trkpt lat="45.4533876" lon="14.0060203"><ele>673.0</ele><time>2026-04-25T13:34:08.051Z</time></trkpt><trkpt lat="45.4533461" lon="14.0061217"><ele>673.0</ele><time>2026-04-25T13:34:09.047Z</time></trkpt><trkpt lat="45.4533143" lon="14.0062272"><ele>674.1666666666667</ele><time>2026-04-25T13:34:10.051Z</time></trkpt><trkpt lat="45.4532911" lon="14.0063337"><ele>675.3333333333334</ele><time>2026-04-25T13:34:11.048Z</time></trkpt><trkpt lat="45.4532741" lon="14.0064477"><ele>676.5</ele><time>2026-04-25T13:34:12.055Z</time></trkpt><trkpt lat="45.4532662" lon="14.0065623"><ele>677.6666666666666</ele><time>2026-04-25T13:34:13.052Z</time></trkpt><trkpt lat="45.4532896" lon="14.0066754"><ele>678.8333333333333</ele><time>2026-04-25T13:34:14.057Z</time></trkpt><trkpt lat="45.4533491" lon="14.0067515"><ele>680.0</ele><time>2026-04-25T13:34:15.034Z</time></trkpt><trkpt lat="45.4534274" lon="14.0067691"><ele>680.0</ele><time>2026-04-25T13:34:16.044Z</time></trkpt><trkpt lat="45.4535109" lon="14.0067415"><ele>680.0</ele><time>2026-04-25T13:34:17.04Z</time></trkpt><trkpt lat="45.4536104" lon="14.006687"><ele>680.0</ele><time>2026-04-25T13:34:18.039Z</time></trkpt><trkpt lat="45.4537184" lon="14.0066225"><ele>680.0</ele><time>2026-04-25T13:34:19.047Z</time></trkpt><trkpt lat="45.4538288" lon="14.0065556"><ele>680.0</ele><time>2026-04-25T13:34:20.055Z</time></trkpt><trkpt lat="45.4539474" lon="14.0064805"><ele>679.0</ele><time>2026-04-25T13:34:21.052Z</time></trkpt><trkpt lat="45.4540752" lon="14.006406"><ele>678.0</ele><time>2026-04-25T13:34:22.054Z</time></trkpt><trkpt lat="45.4542092" lon="14.0063502"><ele>677.0</ele><time>2026-04-25T13:34:23.049Z</time></trkpt><trkpt lat="45.4543407" lon="14.0063164"><ele>676.0</ele><time>2026-04-25T13:34:24.049Z</time></trkpt><trkpt lat="45.4544665" lon="14.0062779"><ele>676.0</ele><time>2026-04-25T13:34:25.045Z</time></trkpt><trkpt lat="45.454576" lon="14.0062338"><ele>676.0</ele><time>2026-04-25T13:34:26.053Z</time></trkpt><trkpt lat="45.4546783" lon="14.006147"><ele>676.0</ele><time>2026-04-25T13:34:27.049Z</time></trkpt><trkpt lat="45.454769" lon="14.0060254"><ele>676.0</ele><time>2026-04-25T13:34:28.047Z</time></trkpt><trkpt lat="45.4548522" lon="14.0058894"><ele>676.0</ele><time>2026-04-25T13:34:29.04Z</time></trkpt><trkpt lat="45.4549363" lon="14.0057441"><ele>676.0</ele><time>2026-04-25T13:34:30.051Z</time></trkpt><trkpt lat="45.4550163" lon="14.0056071"><ele>676.0</ele><time>2026-04-25T13:34:31.035Z</time></trkpt><trkpt lat="45.4550868" lon="14.0054809"><ele>676.0</ele><time>2026-04-25T13:34:32.049Z</time></trkpt><trkpt lat="45.4551548" lon="14.0053756"><ele>676.0</ele><time>2026-04-25T13:34:33.038Z</time></trkpt><trkpt lat="45.4552244" lon="14.0053011"><ele>676.0</ele><time>2026-04-25T13:34:34.052Z</time></trkpt><trkpt lat="45.4553379" lon="14.0052998"><ele>676.0</ele><time>2026-04-25T13:34:36.04Z</time></trkpt><trkpt lat="45.4553829" lon="14.0054647"><ele>676.0</ele><time>2026-04-25T13:34:38.04Z</time></trkpt><trkpt lat="45.4553722" lon="14.005571"><ele>676.0</ele><time>2026-04-25T13:34:39.036Z</time></trkpt><trkpt lat="45.4553425" lon="14.0056855"><ele>676.0</ele><time>2026-04-25T13:34:40.048Z</time></trkpt><trkpt lat="45.4552958" lon="14.0057995"><ele>676.0</ele><time>2026-04-25T13:34:41.035Z</time></trkpt><trkpt lat="45.4552489" lon="14.0059259"><ele>676.0</ele><time>2026-04-25T13:34:42.043Z</time></trkpt><trkpt lat="45.4551979" lon="14.006054"><ele>676.0</ele><time>2026-04-25T13:34:43.045Z</time></trkpt><trkpt lat="45.4551419" lon="14.0061714"><ele>676.0</ele><time>2026-04-25T13:34:44.052Z</time></trkpt><trkpt lat="45.4550811" lon="14.0062742"><ele>678.4</ele><time>2026-04-25T13:34:45.052Z</time></trkpt><trkpt lat="45.4550163" lon="14.0063671"><ele>680.8</ele><time>2026-04-25T13:34:46.058Z</time></trkpt><trkpt lat="45.4549403" lon="14.0064615"><ele>683.1999999999999</ele><time>2026-04-25T13:34:47.036Z</time></trkpt><trkpt lat="45.4548602" lon="14.0065603"><ele>685.5999999999999</ele><time>2026-04-25T13:34:48.052Z</time></trkpt><trkpt lat="45.454779" lon="14.0066694"><ele>688.0</ele><time>2026-04-25T13:34:49.044Z</time></trkpt><trkpt lat="45.4547107" lon="14.0067894"><ele>688.3333333333334</ele><time>2026-04-25T13:34:50.049Z</time></trkpt><trkpt lat="45.4546448" lon="14.0068962"><ele>688.6666666666667</ele><time>2026-04-25T13:34:51.04Z</time></trkpt><trkpt lat="45.4545771" lon="14.0069943"><ele>689.0</ele><time>2026-04-25T13:34:52.049Z</time></trkpt><trkpt lat="45.4545142" lon="14.0070848"><ele>689.3333333333334</ele><time>2026-04-25T13:34:53.034Z</time></trkpt><trkpt lat="45.4544693" lon="14.0071766"><ele>689.6666666666666</ele><time>2026-04-25T13:34:54.05Z</time></trkpt><trkpt lat="45.454438" lon="14.0072632"><ele>690.0</ele><time>2026-04-25T13:34:55.047Z</time></trkpt><trkpt lat="45.4543892" lon="14.0074228"><ele>691.6666666666666</ele><time>2026-04-25T13:34:57.042Z</time></trkpt><trkpt lat="45.4543637" lon="14.0075088"><ele>693.3333333333334</ele><time>2026-04-25T13:34:58.04Z</time></trkpt><trkpt lat="45.4543375" lon="14.0075938"><ele>695.0</ele><time>2026-04-25T13:34:59.054Z</time></trkpt><trkpt lat="45.4542963" lon="14.0077427"><ele>696.6666666666667</ele><time>2026-04-25T13:35:01.039Z</time></trkpt><trkpt lat="45.4542709" lon="14.0078524"><ele>698.3333333333334</ele><time>2026-04-25T13:35:03.033Z</time></trkpt><trkpt lat="45.454323" lon="14.0077064"><ele>700.0</ele><time>2026-04-25T13:35:08.035Z</time></trkpt><trkpt lat="45.4543546" lon="14.0075902"><ele>698.0</ele><time>2026-04-25T13:35:09.034Z</time></trkpt><trkpt lat="45.4543894" lon="14.0074655"><ele>696.0</ele><time>2026-04-25T13:35:10.038Z</time></trkpt><trkpt lat="45.4544332" lon="14.0073308"><ele>694.0</ele><time>2026-04-25T13:35:11.037Z</time></trkpt><trkpt lat="45.4544738" lon="14.0072042"><ele>692.0</ele><time>2026-04-25T13:35:12.049Z</time></trkpt><trkpt lat="45.4545296" lon="14.0070844"><ele>690.0</ele><time>2026-04-25T13:35:13.047Z</time></trkpt><trkpt lat="45.4545979" lon="14.0069655"><ele>689.5</ele><time>2026-04-25T13:35:14.06Z</time></trkpt><trkpt lat="45.4546781" lon="14.0068433"><ele>689.0</ele><time>2026-04-25T13:35:15.037Z</time></trkpt><trkpt lat="45.4547716" lon="14.0067072"><ele>688.5</ele><time>2026-04-25T13:35:16.049Z</time></trkpt><trkpt lat="45.4548661" lon="14.0065708"><ele>688.0</ele><time>2026-04-25T13:35:17.048Z</time></trkpt><trkpt lat="45.454949" lon="14.0064458"><ele>688.0</ele><time>2026-04-25T13:35:18.043Z</time></trkpt><trkpt lat="45.4550302" lon="14.0063304"><ele>688.0</ele><time>2026-04-25T13:35:19.046Z</time></trkpt><trkpt lat="45.4551048" lon="14.0062188"><ele>688.0</ele><time>2026-04-25T13:35:20.04Z</time></trkpt><trkpt lat="45.4551701" lon="14.0061094"><ele>688.0</ele><time>2026-04-25T13:35:21.049Z</time></trkpt><trkpt lat="45.4552285" lon="14.005993"><ele>688.0</ele><time>2026-04-25T13:35:22.047Z</time></trkpt><trkpt lat="45.4552779" lon="14.0058652"><ele>686.0</ele><time>2026-04-25T13:35:23.056Z</time></trkpt><trkpt lat="45.4553165" lon="14.0057408"><ele>684.0</ele><time>2026-04-25T13:35:24.039Z</time></trkpt><trkpt lat="45.4553501" lon="14.0056116"><ele>682.0</ele><time>2026-04-25T13:35:25.055Z</time></trkpt><trkpt lat="45.455371" lon="14.0054914"><ele>680.0</ele><time>2026-04-25T13:35:26.049Z</time></trkpt><trkpt lat="45.4553737" lon="14.0053981"><ele>678.0</ele><time>2026-04-25T13:35:27.048Z</time></trkpt><trkpt lat="45.4553531" lon="14.0052893"><ele>676.0</ele><time>2026-04-25T13:35:29.039Z</time></trkpt><trkpt lat="45.455413" lon="14.0052068"><ele>677.6666666666667</ele><time>2026-04-25T13:35:32.048Z</time></trkpt><trkpt lat="45.4555134" lon="14.0051892"><ele>679.3333333333334</ele><time>2026-04-25T13:35:34.037Z</time></trkpt><trkpt lat="45.4556231" lon="14.0051785"><ele>681.0</ele><time>2026-04-25T13:35:36.04Z</time></trkpt><trkpt lat="45.4556962" lon="14.0051762"><ele>682.6666666666666</ele><time>2026-04-25T13:35:37.053Z</time></trkpt><trkpt lat="45.4557676" lon="14.0051928"><ele>684.3333333333333</ele><time>2026-04-25T13:35:38.038Z</time></trkpt><trkpt lat="45.4558371" lon="14.005206"><ele>686.0</ele><time>2026-04-25T13:35:39.046Z</time></trkpt><trkpt lat="45.4559548" lon="14.0051392"><ele>686.0</ele><time>2026-04-25T13:35:41.036Z</time></trkpt><trkpt lat="45.4560482" lon="14.0050144"><ele>686.0</ele><time>2026-04-25T13:35:43.037Z</time></trkpt><trkpt lat="45.4560982" lon="14.0049447"><ele>686.0</ele><time>2026-04-25T13:35:44.057Z</time></trkpt><trkpt lat="45.4561451" lon="14.004819"><ele>686.0</ele><time>2026-04-25T13:35:46.055Z</time></trkpt><trkpt lat="45.4561386" lon="14.0046781"><ele>686.0</ele><time>2026-04-25T13:35:48.039Z</time></trkpt><trkpt lat="45.4560893" lon="14.0045353"><ele>684.5</ele><time>2026-04-25T13:35:50.043Z</time></trkpt><trkpt lat="45.4560386" lon="14.0044705"><ele>683.0</ele><time>2026-04-25T13:35:51.042Z</time></trkpt><trkpt lat="45.4559846" lon="14.0044133"><ele>681.5</ele><time>2026-04-25T13:35:52.047Z</time></trkpt><trkpt lat="45.4559464" lon="14.0042563"><ele>680.0</ele><time>2026-04-25T13:35:54.046Z</time></trkpt><trkpt lat="45.4559252" lon="14.004083"><ele>678.5</ele><time>2026-04-25T13:35:56.052Z</time></trkpt><trkpt lat="45.4559097" lon="14.0039913"><ele>677.0</ele><time>2026-04-25T13:35:57.054Z</time></trkpt><trkpt lat="45.4558921" lon="14.0038972"><ele>675.8571428571428</ele><time>2026-04-25T13:35:58.061Z</time></trkpt><trkpt lat="45.455876" lon="14.0037942"><ele>674.7142857142857</ele><time>2026-04-25T13:35:59.048Z</time></trkpt><trkpt lat="45.4558721" lon="14.0036772"><ele>673.5714285714286</ele><time>2026-04-25T13:36:00.059Z</time></trkpt><trkpt lat="45.45588" lon="14.0035741"><ele>672.4285714285713</ele><time>2026-04-25T13:36:01.049Z</time></trkpt><trkpt lat="45.4558898" lon="14.003473"><ele>671.2857142857142</ele><time>2026-04-25T13:36:02.048Z</time></trkpt><trkpt lat="45.4558998" lon="14.0033695"><ele>670.1428571428571</ele><time>2026-04-25T13:36:03.044Z</time></trkpt><trkpt lat="45.4559045" lon="14.0032641"><ele>669.0</ele><time>2026-04-25T13:36:04.037Z</time></trkpt><trkpt lat="45.4559055" lon="14.0031519"><ele>668.8333333333334</ele><time>2026-04-25T13:36:05.037Z</time></trkpt><trkpt lat="45.4559085" lon="14.0030444"><ele>668.6666666666666</ele><time>2026-04-25T13:36:06.053Z</time></trkpt><trkpt lat="45.4559107" lon="14.0029382"><ele>668.5</ele><time>2026-04-25T13:36:07.039Z</time></trkpt><trkpt lat="45.4559155" lon="14.0028285"><ele>668.3333333333333</ele><time>2026-04-25T13:36:08.05Z</time></trkpt><trkpt lat="45.4559213" lon="14.0027162"><ele>668.1666666666666</ele><time>2026-04-25T13:36:09.05Z</time></trkpt><trkpt lat="45.45592" lon="14.002594"><ele>668.0</ele><time>2026-04-25T13:36:10.05Z</time></trkpt><trkpt lat="45.4559065" lon="14.002479"><ele>667.5</ele><time>2026-04-25T13:36:11.044Z</time></trkpt><trkpt lat="45.4558926" lon="14.0023779"><ele>667.0</ele><time>2026-04-25T13:36:12.046Z</time></trkpt><trkpt lat="45.4558976" lon="14.0022857"><ele>666.5</ele><time>2026-04-25T13:36:13.045Z</time></trkpt><trkpt lat="45.4559128" lon="14.0021972"><ele>666.0</ele><time>2026-04-25T13:36:14.05Z</time></trkpt><trkpt lat="45.4559463" lon="14.0021009"><ele>665.5</ele><time>2026-04-25T13:36:15.049Z</time></trkpt><trkpt lat="45.4559919" lon="14.0019936"><ele>665.0</ele><time>2026-04-25T13:36:16.042Z</time></trkpt><trkpt lat="45.4560427" lon="14.001873"><ele>665.0</ele><time>2026-04-25T13:36:17.057Z</time></trkpt><trkpt lat="45.4560943" lon="14.0017512"><ele>665.0</ele><time>2026-04-25T13:36:18.054Z</time></trkpt><trkpt lat="45.4561547" lon="14.0016194"><ele>665.0</ele><time>2026-04-25T13:36:19.052Z</time></trkpt><trkpt lat="45.4562198" lon="14.0015067"><ele>665.0</ele><time>2026-04-25T13:36:20.048Z</time></trkpt><trkpt lat="45.4562803" lon="14.0013965"><ele>665.0</ele><time>2026-04-25T13:36:21.044Z</time></trkpt><trkpt lat="45.4563184" lon="14.0012752"><ele>664.3333333333333</ele><time>2026-04-25T13:36:22.049Z</time></trkpt><trkpt lat="45.4563324" lon="14.0011543"><ele>663.6666666666666</ele><time>2026-04-25T13:36:23.047Z</time></trkpt><trkpt lat="45.4563261" lon="14.0010303"><ele>663.0</ele><time>2026-04-25T13:36:24.039Z</time></trkpt><trkpt lat="45.4563071" lon="14.0009069"><ele>662.3333333333334</ele><time>2026-04-25T13:36:25.034Z</time></trkpt><trkpt lat="45.4562754" lon="14.0007903"><ele>661.6666666666667</ele><time>2026-04-25T13:36:26.04Z</time></trkpt><trkpt lat="45.4562591" lon="14.000668"><ele>661.0</ele><time>2026-04-25T13:36:27.038Z</time></trkpt><trkpt lat="45.456271" lon="14.0005509"><ele>660.0</ele><time>2026-04-25T13:36:28.037Z</time></trkpt><trkpt lat="45.4563042" lon="14.0004469"><ele>659.0</ele><time>2026-04-25T13:36:29.03Z</time></trkpt><trkpt lat="45.4563583" lon="14.0003659"><ele>658.0</ele><time>2026-04-25T13:36:30.035Z</time></trkpt><trkpt lat="45.4564302" lon="14.0003135"><ele>657.0</ele><time>2026-04-25T13:36:31.037Z</time></trkpt><trkpt lat="45.4565061" lon="14.0002607"><ele>656.0</ele><time>2026-04-25T13:36:32.029Z</time></trkpt><trkpt lat="45.456581" lon="14.0001734"><ele>655.0</ele><time>2026-04-25T13:36:33.036Z</time></trkpt><trkpt lat="45.4566549" lon="14.000058"><ele>655.0</ele><time>2026-04-25T13:36:34.035Z</time></trkpt><trkpt lat="45.4567345" lon="13.9999542"><ele>655.0</ele><time>2026-04-25T13:36:35.034Z</time></trkpt><trkpt lat="45.4568173" lon="13.9998689"><ele>655.0</ele><time>2026-04-25T13:36:36.039Z</time></trkpt><trkpt lat="45.4568947" lon="13.9997927"><ele>655.0</ele><time>2026-04-25T13:36:37.041Z</time></trkpt><trkpt lat="45.4569758" lon="13.9996957"><ele>655.0</ele><time>2026-04-25T13:36:38.038Z</time></trkpt><trkpt lat="45.4570554" lon="13.9995834"><ele>655.6</ele><time>2026-04-25T13:36:39.04Z</time></trkpt><trkpt lat="45.4571392" lon="13.999486"><ele>656.2</ele><time>2026-04-25T13:36:40.049Z</time></trkpt><trkpt lat="45.4572197" lon="13.9994035"><ele>656.8</ele><time>2026-04-25T13:36:41.038Z</time></trkpt><trkpt lat="45.457282" lon="13.9992963"><ele>657.4</ele><time>2026-04-25T13:36:42.034Z</time></trkpt><trkpt lat="45.4573402" lon="13.9991917"><ele>658.0</ele><time>2026-04-25T13:36:43.039Z</time></trkpt><trkpt lat="45.4573997" lon="13.9990863"><ele>655.5999999999999</ele><time>2026-04-25T13:36:44.034Z</time></trkpt><trkpt lat="45.4574543" lon="13.9989809"><ele>653.1999999999999</ele><time>2026-04-25T13:36:45.049Z</time></trkpt><trkpt lat="45.457517" lon="13.9988781"><ele>650.8</ele><time>2026-04-25T13:36:46.048Z</time></trkpt><trkpt lat="45.4575828" lon="13.9987839"><ele>648.4</ele><time>2026-04-25T13:36:47.035Z</time></trkpt><trkpt lat="45.4576489" lon="13.9986939"><ele>646.0</ele><time>2026-04-25T13:36:48.048Z</time></trkpt><trkpt lat="45.4577005" lon="13.9986014"><ele>646.0</ele><time>2026-04-25T13:36:49.045Z</time></trkpt><trkpt lat="45.4577298" lon="13.9984985"><ele>646.0</ele><time>2026-04-25T13:36:50.052Z</time></trkpt><trkpt lat="45.4577447" lon="13.9983875"><ele>646.0</ele><time>2026-04-25T13:36:51.052Z</time></trkpt><trkpt lat="45.457752" lon="13.9982716"><ele>646.0</ele><time>2026-04-25T13:36:52.054Z</time></trkpt><trkpt lat="45.4577646" lon="13.9981417"><ele>646.0</ele><time>2026-04-25T13:36:53.052Z</time></trkpt><trkpt lat="45.4577931" lon="13.9980015"><ele>646.0</ele><time>2026-04-25T13:36:54.06Z</time></trkpt><trkpt lat="45.4578363" lon="13.9978547"><ele>645.25</ele><time>2026-04-25T13:36:55.047Z</time></trkpt><trkpt lat="45.4578915" lon="13.9977002"><ele>644.5</ele><time>2026-04-25T13:36:56.036Z</time></trkpt><trkpt lat="45.457962" lon="13.9975484"><ele>643.75</ele><time>2026-04-25T13:36:57.047Z</time></trkpt><trkpt lat="45.4580432" lon="13.9974119"><ele>643.0</ele><time>2026-04-25T13:36:58.047Z</time></trkpt><trkpt lat="45.4581292" lon="13.9972679"><ele>642.5</ele><time>2026-04-25T13:36:59.066Z</time></trkpt><trkpt lat="45.4582097" lon="13.9971191"><ele>642.0</ele><time>2026-04-25T13:37:00.047Z</time></trkpt><trkpt lat="45.4582797" lon="13.9969681"><ele>641.5</ele><time>2026-04-25T13:37:01.05Z</time></trkpt><trkpt lat="45.4583405" lon="13.9968049"><ele>641.0</ele><time>2026-04-25T13:37:02.038Z</time></trkpt><trkpt lat="45.4584006" lon="13.9966477"><ele>640.5</ele><time>2026-04-25T13:37:03.03Z</time></trkpt><trkpt lat="45.458473" lon="13.9965057"><ele>640.0</ele><time>2026-04-25T13:37:04.036Z</time></trkpt><trkpt lat="45.4585582" lon="13.9963815"><ele>639.5</ele><time>2026-04-25T13:37:05.036Z</time></trkpt><trkpt lat="45.4586489" lon="13.9962565"><ele>639.0</ele><time>2026-04-25T13:37:06.066Z</time></trkpt><trkpt lat="45.4587377" lon="13.9961156"><ele>639.25</ele><time>2026-04-25T13:37:07.038Z</time></trkpt><trkpt lat="45.458817" lon="13.9959594"><ele>639.5</ele><time>2026-04-25T13:37:08.036Z</time></trkpt><trkpt lat="45.4588905" lon="13.995802"><ele>639.75</ele><time>2026-04-25T13:37:09.052Z</time></trkpt><trkpt lat="45.4589517" lon="13.9956402"><ele>640.0</ele><time>2026-04-25T13:37:10.052Z</time></trkpt><trkpt lat="45.4590041" lon="13.9954744"><ele>640.0</ele><time>2026-04-25T13:37:11.035Z</time></trkpt><trkpt lat="45.4590571" lon="13.9953142"><ele>640.0</ele><time>2026-04-25T13:37:12.053Z</time></trkpt><trkpt lat="45.4591171" lon="13.9951594"><ele>640.0</ele><time>2026-04-25T13:37:13.046Z</time></trkpt><trkpt lat="45.4591784" lon="13.9950077"><ele>640.0</ele><time>2026-04-25T13:37:14.039Z</time></trkpt><trkpt lat="45.4592322" lon="13.9948463"><ele>640.0</ele><time>2026-04-25T13:37:15.039Z</time></trkpt><trkpt lat="45.4592887" lon="13.9946804"><ele>640.0</ele><time>2026-04-25T13:37:16.033Z</time></trkpt><trkpt lat="45.4593437" lon="13.9945187"><ele>640.0</ele><time>2026-04-25T13:37:17.036Z</time></trkpt><trkpt lat="45.4593974" lon="13.9943566"><ele>640.0</ele><time>2026-04-25T13:37:18.043Z</time></trkpt><trkpt lat="45.4594674" lon="13.9942078"><ele>639.5</ele><time>2026-04-25T13:37:19.033Z</time></trkpt><trkpt lat="45.4595463" lon="13.9940721"><ele>639.0</ele><time>2026-04-25T13:37:20.034Z</time></trkpt><trkpt lat="45.4596303" lon="13.9939341"><ele>638.5</ele><time>2026-04-25T13:37:21.046Z</time></trkpt><trkpt lat="45.4597173" lon="13.993794"><ele>638.0</ele><time>2026-04-25T13:37:22.034Z</time></trkpt><trkpt lat="45.4598064" lon="13.9936578"><ele>639.0</ele><time>2026-04-25T13:37:23.029Z</time></trkpt><trkpt lat="45.4598976" lon="13.9935212"><ele>640.0</ele><time>2026-04-25T13:37:24.031Z</time></trkpt><trkpt lat="45.4599873" lon="13.993384"><ele>641.0</ele><time>2026-04-25T13:37:25.024Z</time></trkpt><trkpt lat="45.4600736" lon="13.9932457"><ele>642.0</ele><time>2026-04-25T13:37:26.036Z</time></trkpt><trkpt lat="45.4601569" lon="13.9931085"><ele>642.0</ele><time>2026-04-25T13:37:27.029Z</time></trkpt><trkpt lat="45.4602359" lon="13.9929705"><ele>642.0</ele><time>2026-04-25T13:37:28.03Z</time></trkpt><trkpt lat="45.4603191" lon="13.9928314"><ele>642.0</ele><time>2026-04-25T13:37:29.031Z</time></trkpt><trkpt lat="45.460405" lon="13.9926893"><ele>642.0</ele><time>2026-04-25T13:37:30.031Z</time></trkpt><trkpt lat="45.4604729" lon="13.9925409"><ele>642.8</ele><time>2026-04-25T13:37:31.031Z</time></trkpt><trkpt lat="45.4605299" lon="13.9924139"><ele>643.6</ele><time>2026-04-25T13:37:32.041Z</time></trkpt><trkpt lat="45.4605905" lon="13.9923058"><ele>644.4</ele><time>2026-04-25T13:37:33.034Z</time></trkpt><trkpt lat="45.4606614" lon="13.9921944"><ele>645.1999999999999</ele><time>2026-04-25T13:37:34.033Z</time></trkpt><trkpt lat="45.4607322" lon="13.9920796"><ele>646.0</ele><time>2026-04-25T13:37:35.029Z</time></trkpt><trkpt lat="45.4608059" lon="13.9919747"><ele>646.0</ele><time>2026-04-25T13:37:36.032Z</time></trkpt><trkpt lat="45.4608774" lon="13.9918744"><ele>646.0</ele><time>2026-04-25T13:37:37.041Z</time></trkpt><trkpt lat="45.46095" lon="13.9917759"><ele>646.0</ele><time>2026-04-25T13:37:38.036Z</time></trkpt><trkpt lat="45.4610037" lon="13.9916711"><ele>646.0</ele><time>2026-04-25T13:37:39.028Z</time></trkpt><trkpt lat="45.4610433" lon="13.9915526"><ele>646.0</ele><time>2026-04-25T13:37:40.038Z</time></trkpt><trkpt lat="45.4610955" lon="13.9914386"><ele>646.1999999999999</ele><time>2026-04-25T13:37:41.032Z</time></trkpt><trkpt lat="45.4611606" lon="13.9913353"><ele>646.4</ele><time>2026-04-25T13:37:42.026Z</time></trkpt><trkpt lat="45.4612263" lon="13.9912467"><ele>646.6</ele><time>2026-04-25T13:37:43.039Z</time></trkpt><trkpt lat="45.4612965" lon="13.9911533"><ele>646.8</ele><time>2026-04-25T13:37:44.036Z</time></trkpt><trkpt lat="45.4613701" lon="13.9910522"><ele>647.0</ele><time>2026-04-25T13:37:45.039Z</time></trkpt><trkpt lat="45.4614467" lon="13.9909557"><ele>648.5</ele><time>2026-04-25T13:37:46.029Z</time></trkpt><trkpt lat="45.4615167" lon="13.9908727"><ele>650.0</ele><time>2026-04-25T13:37:47.03Z</time></trkpt><trkpt lat="45.4615753" lon="13.9908154"><ele>651.5</ele><time>2026-04-25T13:37:48.035Z</time></trkpt><trkpt lat="45.4616396" lon="13.9907431"><ele>653.0</ele><time>2026-04-25T13:37:50.035Z</time></trkpt><trkpt lat="45.4616733" lon="13.9906105"><ele>654.5</ele><time>2026-04-25T13:37:53.043Z</time></trkpt><trkpt lat="45.4617289" lon="13.9905351"><ele>656.0</ele><time>2026-04-25T13:37:54.038Z</time></trkpt><trkpt lat="45.4617951" lon="13.9904508"><ele>656.0</ele><time>2026-04-25T13:37:55.032Z</time></trkpt><trkpt lat="45.4618704" lon="13.9903805"><ele>656.0</ele><time>2026-04-25T13:37:56.034Z</time></trkpt><trkpt lat="45.4619393" lon="13.9903024"><ele>656.0</ele><time>2026-04-25T13:37:57.043Z</time></trkpt><trkpt lat="45.4619965" lon="13.9902185"><ele>656.0</ele><time>2026-04-25T13:37:58.045Z</time></trkpt><trkpt lat="45.4620514" lon="13.9901281"><ele>656.0</ele><time>2026-04-25T13:37:59.037Z</time></trkpt><trkpt lat="45.4621126" lon="13.9900327"><ele>656.0</ele><time>2026-04-25T13:38:00.039Z</time></trkpt><trkpt lat="45.4621574" lon="13.9899289"><ele>658.3333333333333</ele><time>2026-04-25T13:38:01.039Z</time></trkpt><trkpt lat="45.4622037" lon="13.9898316"><ele>660.6666666666666</ele><time>2026-04-25T13:38:02.038Z</time></trkpt><trkpt lat="45.4622617" lon="13.9897411"><ele>663.0</ele><time>2026-04-25T13:38:03.037Z</time></trkpt><trkpt lat="45.4623208" lon="13.989665"><ele>665.3333333333334</ele><time>2026-04-25T13:38:04.039Z</time></trkpt><trkpt lat="45.4623861" lon="13.9895995"><ele>667.6666666666667</ele><time>2026-04-25T13:38:05.033Z</time></trkpt><trkpt lat="45.4624472" lon="13.9895292"><ele>670.0</ele><time>2026-04-25T13:38:06.036Z</time></trkpt><trkpt lat="45.4625026" lon="13.9894426"><ele>670.0</ele><time>2026-04-25T13:38:07.04Z</time></trkpt><trkpt lat="45.4625516" lon="13.9893436"><ele>670.0</ele><time>2026-04-25T13:38:08.033Z</time></trkpt><trkpt lat="45.4625983" lon="13.989269"><ele>670.0</ele><time>2026-04-25T13:38:09.044Z</time></trkpt><trkpt lat="45.4626563" lon="13.9892173"><ele>670.0</ele><time>2026-04-25T13:38:10.038Z</time></trkpt><trkpt lat="45.4627508" lon="13.9891125"><ele>670.0</ele><time>2026-04-25T13:38:12.04Z</time></trkpt><trkpt lat="45.4627732" lon="13.9889494"><ele>670.0</ele><time>2026-04-25T13:38:14.031Z</time></trkpt><trkpt lat="45.4627888" lon="13.988855"><ele>670.0</ele><time>2026-04-25T13:38:15.039Z</time></trkpt><trkpt lat="45.4628244" lon="13.9887307"><ele>670.0</ele><time>2026-04-25T13:38:16.036Z</time></trkpt><trkpt lat="45.4628704" lon="13.9886103"><ele>670.0</ele><time>2026-04-25T13:38:17.046Z</time></trkpt><trkpt lat="45.4629235" lon="13.9884879"><ele>670.0</ele><time>2026-04-25T13:38:18.044Z</time></trkpt><trkpt lat="45.4629847" lon="13.9883729"><ele>670.8</ele><time>2026-04-25T13:38:19.04Z</time></trkpt><trkpt lat="45.4630447" lon="13.9882717"><ele>671.6</ele><time>2026-04-25T13:38:20.028Z</time></trkpt><trkpt lat="45.4631128" lon="13.9881823"><ele>672.4000000000001</ele><time>2026-04-25T13:38:21.031Z</time></trkpt><trkpt lat="45.4631899" lon="13.9880882"><ele>673.2</ele><time>2026-04-25T13:38:22.034Z</time></trkpt><trkpt lat="45.4632691" lon="13.9879984"><ele>674.0</ele><time>2026-04-25T13:38:23.036Z</time></trkpt><trkpt lat="45.4633488" lon="13.9879057"><ele>674.0</ele><time>2026-04-25T13:38:24.039Z</time></trkpt><trkpt lat="45.4634186" lon="13.9878138"><ele>674.0</ele><time>2026-04-25T13:38:25.042Z</time></trkpt><trkpt lat="45.4634731" lon="13.9877237"><ele>674.0</ele><time>2026-04-25T13:38:26.049Z</time></trkpt><trkpt lat="45.4635019" lon="13.9876334"><ele>674.0</ele><time>2026-04-25T13:38:27.034Z</time></trkpt><trkpt lat="45.4635085" lon="13.9875296"><ele>674.0</ele><time>2026-04-25T13:38:28.043Z</time></trkpt><trkpt lat="45.4635057" lon="13.98742"><ele>674.0</ele><time>2026-04-25T13:38:29.037Z</time></trkpt><trkpt lat="45.4635008" lon="13.9873146"><ele>673.8571428571429</ele><time>2026-04-25T13:38:30.047Z</time></trkpt><trkpt lat="45.4634964" lon="13.9872152"><ele>673.7142857142858</ele><time>2026-04-25T13:38:31.054Z</time></trkpt><trkpt lat="45.4634825" lon="13.9871218"><ele>673.5714285714287</ele><time>2026-04-25T13:38:32.053Z</time></trkpt><trkpt lat="45.4634671" lon="13.9870278"><ele>673.4285714285714</ele><time>2026-04-25T13:38:33.043Z</time></trkpt><trkpt lat="45.4634657" lon="13.9869326"><ele>673.2857142857142</ele><time>2026-04-25T13:38:34.049Z</time></trkpt><trkpt lat="45.4634745" lon="13.986837"><ele>673.1428571428572</ele><time>2026-04-25T13:38:35.032Z</time></trkpt><trkpt lat="45.4634879" lon="13.9867376"><ele>673.0</ele><time>2026-04-25T13:38:36.047Z</time></trkpt><trkpt lat="45.4635081" lon="13.9866341"><ele>673.0</ele><time>2026-04-25T13:38:37.048Z</time></trkpt><trkpt lat="45.4635318" lon="13.9865206"><ele>673.0</ele><time>2026-04-25T13:38:38.035Z</time></trkpt><trkpt lat="45.4635555" lon="13.9864019"><ele>673.0</ele><time>2026-04-25T13:38:39.038Z</time></trkpt><trkpt lat="45.4635764" lon="13.9862901"><ele>673.0</ele><time>2026-04-25T13:38:40.03Z</time></trkpt><trkpt lat="45.4636001" lon="13.986195"><ele>673.0</ele><time>2026-04-25T13:38:41.038Z</time></trkpt><trkpt lat="45.463678" lon="13.98611"><ele>673.0</ele><time>2026-04-25T13:38:43.045Z</time></trkpt><trkpt lat="45.4637449" lon="13.9861757"><ele>673.6666666666667</ele><time>2026-04-25T13:38:45.033Z</time></trkpt><trkpt lat="45.4637948" lon="13.9862515"><ele>674.3333333333334</ele><time>2026-04-25T13:38:46.035Z</time></trkpt><trkpt lat="45.4638526" lon="13.9863334"><ele>675.0</ele><time>2026-04-25T13:38:47.027Z</time></trkpt><trkpt lat="45.463918" lon="13.9863927"><ele>675.6666666666666</ele><time>2026-04-25T13:38:48.052Z</time></trkpt><trkpt lat="45.4639928" lon="13.9864359"><ele>676.3333333333333</ele><time>2026-04-25T13:38:49.039Z</time></trkpt><trkpt lat="45.4640771" lon="13.9864717"><ele>677.0</ele><time>2026-04-25T13:38:50.043Z</time></trkpt><trkpt lat="45.4641585" lon="13.9864921"><ele>677.0</ele><time>2026-04-25T13:38:51.038Z</time></trkpt><trkpt lat="45.4642299" lon="13.9864871"><ele>677.0</ele><time>2026-04-25T13:38:52.03Z</time></trkpt><trkpt lat="45.4643039" lon="13.9864404"><ele>677.0</ele><time>2026-04-25T13:38:53.041Z</time></trkpt><trkpt lat="45.46439" lon="13.9863725"><ele>677.0</ele><time>2026-04-25T13:38:54.032Z</time></trkpt><trkpt lat="45.46447" lon="13.9862933"><ele>677.0</ele><time>2026-04-25T13:38:55.032Z</time></trkpt><trkpt lat="45.4645459" lon="13.986212"><ele>677.0</ele><time>2026-04-25T13:38:56.035Z</time></trkpt><trkpt lat="45.464626" lon="13.9861357"><ele>679.6</ele><time>2026-04-25T13:38:57.032Z</time></trkpt><trkpt lat="45.464715" lon="13.9860637"><ele>682.2</ele><time>2026-04-25T13:38:58.036Z</time></trkpt><trkpt lat="45.4647997" lon="13.9859929"><ele>684.8</ele><time>2026-04-25T13:38:59.043Z</time></trkpt><trkpt lat="45.4648742" lon="13.9859016"><ele>687.4</ele><time>2026-04-25T13:39:00.042Z</time></trkpt><trkpt lat="45.4649233" lon="13.9858062"><ele>690.0</ele><time>2026-04-25T13:39:01.048Z</time></trkpt><trkpt lat="45.4649917" lon="13.9857022"><ele>690.0</ele><time>2026-04-25T13:39:03.033Z</time></trkpt><trkpt lat="45.4650776" lon="13.9857466"><ele>690.0</ele><time>2026-04-25T13:39:05.031Z</time></trkpt><trkpt lat="45.4651341" lon="13.9858581"><ele>690.0</ele><time>2026-04-25T13:39:07.037Z</time></trkpt><trkpt lat="45.465095" lon="13.9860409"><ele>690.0</ele><time>2026-04-25T13:39:09.03Z</time></trkpt><trkpt lat="45.465059" lon="13.9861693"><ele>690.0</ele><time>2026-04-25T13:39:10.032Z</time></trkpt><trkpt lat="45.4650404" lon="13.9862908"><ele>690.0</ele><time>2026-04-25T13:39:11.06Z</time></trkpt><trkpt lat="45.4650501" lon="13.9864039"><ele>690.0</ele><time>2026-04-25T13:39:12.049Z</time></trkpt><trkpt lat="45.4650781" lon="13.9864999"><ele>690.0</ele><time>2026-04-25T13:39:13.035Z</time></trkpt><trkpt lat="45.4651631" lon="13.9866056"><ele>690.0</ele><time>2026-04-25T13:39:15.035Z</time></trkpt><trkpt lat="45.4652289" lon="13.9866221"><ele>690.0</ele><time>2026-04-25T13:39:16.04Z</time></trkpt><trkpt lat="45.4653128" lon="13.9866291"><ele>690.0</ele><time>2026-04-25T13:39:17.028Z</time></trkpt><trkpt lat="45.465398" lon="13.9866152"><ele>692.8</ele><time>2026-04-25T13:39:18.049Z</time></trkpt><trkpt lat="45.4654838" lon="13.9865808"><ele>695.6</ele><time>2026-04-25T13:39:19.04Z</time></trkpt><trkpt lat="45.465576" lon="13.9865305"><ele>698.4000000000001</ele><time>2026-04-25T13:39:20.036Z</time></trkpt><trkpt lat="45.4656741" lon="13.9864659"><ele>701.2</ele><time>2026-04-25T13:39:21.034Z</time></trkpt><trkpt lat="45.4657771" lon="13.9863877"><ele>704.0</ele><time>2026-04-25T13:39:22.039Z</time></trkpt><trkpt lat="45.4658653" lon="13.9862994"><ele>704.0</ele><time>2026-04-25T13:39:23.053Z</time></trkpt><trkpt lat="45.4659473" lon="13.9861741"><ele>704.0</ele><time>2026-04-25T13:39:24.037Z</time></trkpt><trkpt lat="45.4660127" lon="13.9860439"><ele>704.0</ele><time>2026-04-25T13:39:25.039Z</time></trkpt><trkpt lat="45.4660635" lon="13.9859129"><ele>704.0</ele><time>2026-04-25T13:39:26.034Z</time></trkpt><trkpt lat="45.4661151" lon="13.9857799"><ele>704.0</ele><time>2026-04-25T13:39:27.03Z</time></trkpt><trkpt lat="45.4661685" lon="13.9856403"><ele>703.6</ele><time>2026-04-25T13:39:28.033Z</time></trkpt><trkpt lat="45.4662256" lon="13.9855063"><ele>703.2</ele><time>2026-04-25T13:39:29.031Z</time></trkpt><trkpt lat="45.4662981" lon="13.9854038"><ele>702.8000000000001</ele><time>2026-04-25T13:39:30.043Z</time></trkpt><trkpt lat="45.4663845" lon="13.9853294"><ele>702.4000000000001</ele><time>2026-04-25T13:39:31.029Z</time></trkpt><trkpt lat="45.4664784" lon="13.9852587"><ele>702.0</ele><time>2026-04-25T13:39:32.041Z</time></trkpt><trkpt lat="45.4665742" lon="13.98518"><ele>703.75</ele><time>2026-04-25T13:39:33.045Z</time></trkpt><trkpt lat="45.4666643" lon="13.9850793"><ele>705.5</ele><time>2026-04-25T13:39:34.045Z</time></trkpt><trkpt lat="45.4667476" lon="13.9849733"><ele>707.25</ele><time>2026-04-25T13:39:35.044Z</time></trkpt><trkpt lat="45.4668353" lon="13.9848654"><ele>709.0</ele><time>2026-04-25T13:39:36.042Z</time></trkpt><trkpt lat="45.4669247" lon="13.9847764"><ele>709.1666666666667</ele><time>2026-04-25T13:39:37.034Z</time></trkpt><trkpt lat="45.467017" lon="13.9846997"><ele>709.3333333333334</ele><time>2026-04-25T13:39:38.048Z</time></trkpt><trkpt lat="45.4670976" lon="13.9846287"><ele>709.5</ele><time>2026-04-25T13:39:39.041Z</time></trkpt><trkpt lat="45.4671729" lon="13.9845837"><ele>709.6666666666666</ele><time>2026-04-25T13:39:40.045Z</time></trkpt><trkpt lat="45.4672541" lon="13.9845884"><ele>709.8333333333333</ele><time>2026-04-25T13:39:41.043Z</time></trkpt><trkpt lat="45.4673374" lon="13.9846106"><ele>710.0</ele><time>2026-04-25T13:39:42.033Z</time></trkpt><trkpt lat="45.4674327" lon="13.9846421"><ele>711.8</ele><time>2026-04-25T13:39:43.025Z</time></trkpt><trkpt lat="45.4675329" lon="13.9846288"><ele>713.6</ele><time>2026-04-25T13:39:44.042Z</time></trkpt><trkpt lat="45.4676286" lon="13.9845957"><ele>715.4000000000001</ele><time>2026-04-25T13:39:45.034Z</time></trkpt><trkpt lat="45.467717" lon="13.9845172"><ele>717.2</ele><time>2026-04-25T13:39:46.029Z</time></trkpt><trkpt lat="45.4677864" lon="13.9843987"><ele>719.0</ele><time>2026-04-25T13:39:47.023Z</time></trkpt><trkpt lat="45.4678392" lon="13.9842761"><ele>720.5</ele><time>2026-04-25T13:39:48.036Z</time></trkpt><trkpt lat="45.4678934" lon="13.9841356"><ele>722.0</ele><time>2026-04-25T13:39:49.03Z</time></trkpt><trkpt lat="45.467944" lon="13.9839914"><ele>723.5</ele><time>2026-04-25T13:39:50.032Z</time></trkpt><trkpt lat="45.4679957" lon="13.9838424"><ele>725.0</ele><time>2026-04-25T13:39:51.027Z</time></trkpt><trkpt lat="45.4680461" lon="13.9836876"><ele>725.6</ele><time>2026-04-25T13:39:52.045Z</time></trkpt><trkpt lat="45.468094" lon="13.983537"><ele>726.2</ele><time>2026-04-25T13:39:53.037Z</time></trkpt><trkpt lat="45.4681463" lon="13.9833912"><ele>726.8</ele><time>2026-04-25T13:39:54.037Z</time></trkpt><trkpt lat="45.4681971" lon="13.9832656"><ele>727.4</ele><time>2026-04-25T13:39:55.041Z</time></trkpt><trkpt lat="45.468242" lon="13.9831781"><ele>728.0</ele><time>2026-04-25T13:39:56.033Z</time></trkpt><trkpt lat="45.4683353" lon="13.9831403"><ele>728.0</ele><time>2026-04-25T13:39:58.037Z</time></trkpt><trkpt lat="45.4684501" lon="13.9831743"><ele>728.0</ele><time>2026-04-25T13:40:00.031Z</time></trkpt><trkpt lat="45.4685285" lon="13.9832426"><ele>728.0</ele><time>2026-04-25T13:40:01.034Z</time></trkpt><trkpt lat="45.4685874" lon="13.9833103"><ele>728.0</ele><time>2026-04-25T13:40:02.033Z</time></trkpt><trkpt lat="45.4686466" lon="13.9833973"><ele>728.0</ele><time>2026-04-25T13:40:03.027Z</time></trkpt><trkpt lat="45.4687116" lon="13.9834989"><ele>732.0</ele><time>2026-04-25T13:40:04.031Z</time></trkpt><trkpt lat="45.4687795" lon="13.9836015"><ele>736.0</ele><time>2026-04-25T13:40:05.036Z</time></trkpt><trkpt lat="45.4688499" lon="13.9837069"><ele>740.0</ele><time>2026-04-25T13:40:06.031Z</time></trkpt><trkpt lat="45.4689222" lon="13.9838132"><ele>744.0</ele><time>2026-04-25T13:40:07.042Z</time></trkpt><trkpt lat="45.4689866" lon="13.9839209"><ele>748.0</ele><time>2026-04-25T13:40:08.029Z</time></trkpt><trkpt lat="45.4690387" lon="13.9840342"><ele>748.0</ele><time>2026-04-25T13:40:09.021Z</time></trkpt><trkpt lat="45.4690744" lon="13.9841619"><ele>748.0</ele><time>2026-04-25T13:40:10.026Z</time></trkpt><trkpt lat="45.4691106" lon="13.9842934"><ele>748.0</ele><time>2026-04-25T13:40:11.026Z</time></trkpt><trkpt lat="45.4691562" lon="13.984402"><ele>748.0</ele><time>2026-04-25T13:40:12.035Z</time></trkpt><trkpt lat="45.469206" lon="13.9844983"><ele>748.0</ele><time>2026-04-25T13:40:13.027Z</time></trkpt><trkpt lat="45.4692502" lon="13.9845878"><ele>748.0</ele><time>2026-04-25T13:40:14.037Z</time></trkpt><trkpt lat="45.4692887" lon="13.984684"><ele>748.2</ele><time>2026-04-25T13:40:15.026Z</time></trkpt><trkpt lat="45.4693292" lon="13.9847857"><ele>748.4</ele><time>2026-04-25T13:40:16.03Z</time></trkpt><trkpt lat="45.4693797" lon="13.9848879"><ele>748.6</ele><time>2026-04-25T13:40:17.028Z</time></trkpt><trkpt lat="45.4694385" lon="13.9849932"><ele>748.8000000000001</ele><time>2026-04-25T13:40:18.03Z</time></trkpt><trkpt lat="45.4694963" lon="13.985109"><ele>749.0</ele><time>2026-04-25T13:40:19.031Z</time></trkpt><trkpt lat="45.4695437" lon="13.9852354"><ele>747.4000000000001</ele><time>2026-04-25T13:40:20.029Z</time></trkpt><trkpt lat="45.4695809" lon="13.9853733"><ele>745.8</ele><time>2026-04-25T13:40:21.025Z</time></trkpt><trkpt lat="45.4696146" lon="13.9855175"><ele>744.2</ele><time>2026-04-25T13:40:22.04Z</time></trkpt><trkpt lat="45.4696559" lon="13.9856556"><ele>742.5999999999999</ele><time>2026-04-25T13:40:23.038Z</time></trkpt><trkpt lat="45.4697028" lon="13.9857926"><ele>741.0</ele><time>2026-04-25T13:40:24.038Z</time></trkpt><trkpt lat="45.4697638" lon="13.9859062"><ele>748.0</ele><time>2026-04-25T13:40:25.026Z</time></trkpt><trkpt lat="45.4698324" lon="13.9860194"><ele>755.0</ele><time>2026-04-25T13:40:26.035Z</time></trkpt><trkpt lat="45.46989" lon="13.9861357"><ele>762.0</ele><time>2026-04-25T13:40:27.038Z</time></trkpt><trkpt lat="45.4699273" lon="13.9862654"><ele>769.0</ele><time>2026-04-25T13:40:28.036Z</time></trkpt><trkpt lat="45.4699488" lon="13.9864091"><ele>776.0</ele><time>2026-04-25T13:40:29.023Z</time></trkpt><trkpt lat="45.4699776" lon="13.9865421"><ele>776.0</ele><time>2026-04-25T13:40:30.032Z</time></trkpt><trkpt lat="45.4700207" lon="13.986668"><ele>776.0</ele><time>2026-04-25T13:40:31.037Z</time></trkpt><trkpt lat="45.4700674" lon="13.9868011"><ele>776.0</ele><time>2026-04-25T13:40:32.031Z</time></trkpt><trkpt lat="45.470118" lon="13.9869474"><ele>776.0</ele><time>2026-04-25T13:40:33.036Z</time></trkpt><trkpt lat="45.4701667" lon="13.9870949"><ele>776.0</ele><time>2026-04-25T13:40:34.035Z</time></trkpt><trkpt lat="45.4702212" lon="13.9872359"><ele>775.8</ele><time>2026-04-25T13:40:35.029Z</time></trkpt><trkpt lat="45.4702786" lon="13.9873644"><ele>775.5999999999999</ele><time>2026-04-25T13:40:36.032Z</time></trkpt><trkpt lat="45.4703263" lon="13.9874976"><ele>775.4</ele><time>2026-04-25T13:40:37.033Z</time></trkpt><trkpt lat="45.4703668" lon="13.987613"><ele>775.2</ele><time>2026-04-25T13:40:38.038Z</time></trkpt><trkpt lat="45.4704101" lon="13.9877123"><ele>775.0</ele><time>2026-04-25T13:40:39.012Z</time></trkpt><trkpt lat="45.4704484" lon="13.9878041"><ele>778.9999999999999</ele><time>2026-04-25T13:40:40.016Z</time></trkpt><trkpt lat="45.4704871" lon="13.9878952"><ele>783.0</ele><time>2026-04-25T13:40:41.016Z</time></trkpt><trkpt lat="45.4705033" lon="13.9879839"><ele>787.0</ele><time>2026-04-25T13:40:42.011Z</time></trkpt><trkpt lat="45.470495" lon="13.9880788"><ele>791.0</ele><time>2026-04-25T13:40:43.028Z</time></trkpt><trkpt lat="45.4704882" lon="13.9881917"><ele>794.9999999999999</ele><time>2026-04-25T13:40:44.012Z</time></trkpt><trkpt lat="45.4704691" lon="13.9883155"><ele>799.0</ele><time>2026-04-25T13:40:45.015Z</time></trkpt><trkpt lat="45.4704476" lon="13.9884283"><ele>799.2</ele><time>2026-04-25T13:40:46.021Z</time></trkpt><trkpt lat="45.4704315" lon="13.9885231"><ele>799.4000000000001</ele><time>2026-04-25T13:40:47.025Z</time></trkpt><trkpt lat="45.4704527" lon="13.9886435"><ele>799.6</ele><time>2026-04-25T13:40:49.024Z</time></trkpt><trkpt lat="45.4705561" lon="13.9886864"><ele>799.8</ele><time>2026-04-25T13:40:51.021Z</time></trkpt><trkpt lat="45.4706776" lon="13.9887336"><ele>800.0</ele><time>2026-04-25T13:40:53.03Z</time></trkpt><trkpt lat="45.4707424" lon="13.9887508"><ele>800.0</ele><time>2026-04-25T13:40:54.036Z</time></trkpt><trkpt lat="45.4708501" lon="13.9887723"><ele>800.0</ele><time>2026-04-25T13:40:56.036Z</time></trkpt><trkpt lat="45.4709784" lon="13.9887466"><ele>800.0</ele><time>2026-04-25T13:40:58.034Z</time></trkpt><trkpt lat="45.4710565" lon="13.9887176"><ele>800.0</ele><time>2026-04-25T13:40:59.04Z</time></trkpt><trkpt lat="45.4711409" lon="13.9886893"><ele>800.0</ele><time>2026-04-25T13:41:00.027Z</time></trkpt><trkpt lat="45.4712289" lon="13.9886652"><ele>800.6</ele><time>2026-04-25T13:41:01.034Z</time></trkpt><trkpt lat="45.4713225" lon="13.9886429"><ele>801.2</ele><time>2026-04-25T13:41:02.031Z</time></trkpt><trkpt lat="45.4714263" lon="13.9886267"><ele>801.8</ele><time>2026-04-25T13:41:03.03Z</time></trkpt><trkpt lat="45.4715408" lon="13.9886364"><ele>802.4</ele><time>2026-04-25T13:41:04.039Z</time></trkpt><trkpt lat="45.4716564" lon="13.9886471"><ele>803.0</ele><time>2026-04-25T13:41:05.032Z</time></trkpt><trkpt lat="45.471768" lon="13.9886552"><ele>803.0</ele><time>2026-04-25T13:41:06.04Z</time></trkpt><trkpt lat="45.4718784" lon="13.9886583"><ele>803.0</ele><time>2026-04-25T13:41:07.036Z</time></trkpt><trkpt lat="45.4719859" lon="13.9886664"><ele>803.0</ele><time>2026-04-25T13:41:08.035Z</time></trkpt><trkpt lat="45.4720899" lon="13.9886802"><ele>803.0</ele><time>2026-04-25T13:41:09.034Z</time></trkpt><trkpt lat="45.4721868" lon="13.9886977"><ele>803.0</ele><time>2026-04-25T13:41:10.032Z</time></trkpt><trkpt lat="45.4722859" lon="13.9887097"><ele>805.8</ele><time>2026-04-25T13:41:11.034Z</time></trkpt><trkpt lat="45.472387" lon="13.9887258"><ele>808.5999999999999</ele><time>2026-04-25T13:41:12.034Z</time></trkpt><trkpt lat="45.4724906" lon="13.9887483"><ele>811.4000000000001</ele><time>2026-04-25T13:41:13.034Z</time></trkpt><trkpt lat="45.4725914" lon="13.9887784"><ele>814.2</ele><time>2026-04-25T13:41:14.03Z</time></trkpt><trkpt lat="45.4726964" lon="13.9888154"><ele>817.0</ele><time>2026-04-25T13:41:15.043Z</time></trkpt><trkpt lat="45.4728013" lon="13.9888496"><ele>817.0</ele><time>2026-04-25T13:41:16.032Z</time></trkpt><trkpt lat="45.4729025" lon="13.9888788"><ele>817.0</ele><time>2026-04-25T13:41:17.04Z</time></trkpt><trkpt lat="45.4729977" lon="13.98888"><ele>817.0</ele><time>2026-04-25T13:41:18.039Z</time></trkpt><trkpt lat="45.4730816" lon="13.9888569"><ele>817.0</ele><time>2026-04-25T13:41:19.028Z</time></trkpt><trkpt lat="45.473162" lon="13.9888097"><ele>817.0</ele><time>2026-04-25T13:41:20.034Z</time></trkpt><trkpt lat="45.4732515" lon="13.9887492"><ele>819.0</ele><time>2026-04-25T13:41:21.034Z</time></trkpt><trkpt lat="45.473347" lon="13.9886769"><ele>821.0</ele><time>2026-04-25T13:41:22.036Z</time></trkpt><trkpt lat="45.4734533" lon="13.9886093"><ele>823.0</ele><time>2026-04-25T13:41:23.038Z</time></trkpt><trkpt lat="45.4735658" lon="13.9885572"><ele>825.0</ele><time>2026-04-25T13:41:24.033Z</time></trkpt><trkpt lat="45.4736752" lon="13.9885119"><ele>824.8</ele><time>2026-04-25T13:41:25.038Z</time></trkpt><trkpt lat="45.4737776" lon="13.9884706"><ele>824.6</ele><time>2026-04-25T13:41:26.039Z</time></trkpt><trkpt lat="45.4738706" lon="13.9884167"><ele>824.4000000000001</ele><time>2026-04-25T13:41:27.033Z</time></trkpt><trkpt lat="45.473947" lon="13.988329"><ele>824.2</ele><time>2026-04-25T13:41:28.041Z</time></trkpt><trkpt lat="45.4740277" lon="13.9882249"><ele>824.0</ele><time>2026-04-25T13:41:29.039Z</time></trkpt><trkpt lat="45.4741067" lon="13.988119"><ele>823.6</ele><time>2026-04-25T13:41:30.034Z</time></trkpt><trkpt lat="45.4741922" lon="13.9880197"><ele>823.2</ele><time>2026-04-25T13:41:31.032Z</time></trkpt><trkpt lat="45.4742757" lon="13.9879285"><ele>822.8000000000001</ele><time>2026-04-25T13:41:32.035Z</time></trkpt><trkpt lat="45.4743463" lon="13.9878475"><ele>822.4000000000001</ele><time>2026-04-25T13:41:33.033Z</time></trkpt><trkpt lat="45.4743951" lon="13.987737"><ele>822.0</ele><time>2026-04-25T13:41:34.039Z</time></trkpt><trkpt lat="45.4744297" lon="13.9876089"><ele>822.8</ele><time>2026-04-25T13:41:35.038Z</time></trkpt><trkpt lat="45.4744671" lon="13.9874584"><ele>823.6</ele><time>2026-04-25T13:41:36.036Z</time></trkpt><trkpt lat="45.4744958" lon="13.987307"><ele>824.4</ele><time>2026-04-25T13:41:37.034Z</time></trkpt><trkpt lat="45.4745189" lon="13.9871609"><ele>825.1999999999999</ele><time>2026-04-25T13:41:38.036Z</time></trkpt><trkpt lat="45.474543" lon="13.9870157"><ele>826.0</ele><time>2026-04-25T13:41:39.034Z</time></trkpt><trkpt lat="45.4745948" lon="13.9868966"><ele>824.8</ele><time>2026-04-25T13:41:40.033Z</time></trkpt><trkpt lat="45.4746685" lon="13.9868076"><ele>823.5999999999999</ele><time>2026-04-25T13:41:41.046Z</time></trkpt><trkpt lat="45.4747595" lon="13.9867203"><ele>822.4</ele><time>2026-04-25T13:41:42.025Z</time></trkpt><trkpt lat="45.4748545" lon="13.9866413"><ele>821.2</ele><time>2026-04-25T13:41:43.031Z</time></trkpt><trkpt lat="45.4749569" lon="13.9865583"><ele>820.0</ele><time>2026-04-25T13:41:44.034Z</time></trkpt><trkpt lat="45.4750657" lon="13.9864976"><ele>820.0</ele><time>2026-04-25T13:41:45.035Z</time></trkpt><trkpt lat="45.4751738" lon="13.9864583"><ele>820.0</ele><time>2026-04-25T13:41:46.059Z</time></trkpt><trkpt lat="45.4752841" lon="13.98644"><ele>820.0</ele><time>2026-04-25T13:41:47.029Z</time></trkpt><trkpt lat="45.4753871" lon="13.9864342"><ele>820.0</ele><time>2026-04-25T13:41:48.036Z</time></trkpt><trkpt lat="45.4754763" lon="13.9864141"><ele>820.0</ele><time>2026-04-25T13:41:49.031Z</time></trkpt><trkpt lat="45.4755535" lon="13.9863687"><ele>819.8333333333333</ele><time>2026-04-25T13:41:50.024Z</time></trkpt><trkpt lat="45.4756264" lon="13.9862987"><ele>819.6666666666666</ele><time>2026-04-25T13:41:51.033Z</time></trkpt><trkpt lat="45.4756875" lon="13.9862193"><ele>819.5</ele><time>2026-04-25T13:41:52.027Z</time></trkpt><trkpt lat="45.47574" lon="13.9861296"><ele>819.3333333333333</ele><time>2026-04-25T13:41:53.036Z</time></trkpt><trkpt lat="45.475788" lon="13.9860368"><ele>819.1666666666666</ele><time>2026-04-25T13:41:54.041Z</time></trkpt><trkpt lat="45.4758262" lon="13.9859542"><ele>819.0</ele><time>2026-04-25T13:41:55.043Z</time></trkpt><trkpt lat="45.4758623" lon="13.985877"><ele>818.4285714285714</ele><time>2026-04-25T13:41:56.043Z</time></trkpt><trkpt lat="45.4758977" lon="13.9857991"><ele>817.8571428571429</ele><time>2026-04-25T13:41:57.047Z</time></trkpt><trkpt lat="45.4759369" lon="13.9857179"><ele>817.2857142857142</ele><time>2026-04-25T13:41:58.038Z</time></trkpt><trkpt lat="45.475981" lon="13.9856388"><ele>816.7142857142858</ele><time>2026-04-25T13:41:59.038Z</time></trkpt><trkpt lat="45.4760236" lon="13.9855628"><ele>816.1428571428571</ele><time>2026-04-25T13:42:00.033Z</time></trkpt><trkpt lat="45.4760625" lon="13.9854788"><ele>815.5714285714286</ele><time>2026-04-25T13:42:01.032Z</time></trkpt><trkpt lat="45.4760936" lon="13.9853919"><ele>815.0</ele><time>2026-04-25T13:42:02.038Z</time></trkpt><trkpt lat="45.47613" lon="13.9853054"><ele>815.0</ele><time>2026-04-25T13:42:03.039Z</time></trkpt><trkpt lat="45.476164" lon="13.9852064"><ele>815.0</ele><time>2026-04-25T13:42:04.029Z</time></trkpt><trkpt lat="45.4762013" lon="13.9851161"><ele>815.0</ele><time>2026-04-25T13:42:05.043Z</time></trkpt><trkpt lat="45.4762381" lon="13.985035"><ele>815.0</ele><time>2026-04-25T13:42:06.037Z</time></trkpt><trkpt lat="45.4763075" lon="13.9848856"><ele>815.0</ele><time>2026-04-25T13:42:08.038Z</time></trkpt><trkpt lat="45.4763665" lon="13.9847397"><ele>815.6</ele><time>2026-04-25T13:42:10.043Z</time></trkpt><trkpt lat="45.4764438" lon="13.9846098"><ele>816.2</ele><time>2026-04-25T13:42:12.032Z</time></trkpt><trkpt lat="45.4765538" lon="13.9845199"><ele>816.8</ele><time>2026-04-25T13:42:14.029Z</time></trkpt><trkpt lat="45.4766172" lon="13.9844812"><ele>817.4</ele><time>2026-04-25T13:42:15.037Z</time></trkpt><trkpt lat="45.4766697" lon="13.9844289"><ele>818.0</ele><time>2026-04-25T13:42:16.038Z</time></trkpt><trkpt lat="45.4767626" lon="13.9843157"><ele>818.0</ele><time>2026-04-25T13:42:18.031Z</time></trkpt><trkpt lat="45.4768096" lon="13.9842497"><ele>818.0</ele><time>2026-04-25T13:42:19.029Z</time></trkpt><trkpt lat="45.4768554" lon="13.9841835"><ele>818.0</ele><time>2026-04-25T13:42:20.039Z</time></trkpt><trkpt lat="45.4769032" lon="13.9841196"><ele>818.0</ele><time>2026-04-25T13:42:21.04Z</time></trkpt><trkpt lat="45.4769553" lon="13.9840585"><ele>818.0</ele><time>2026-04-25T13:42:22.033Z</time></trkpt><trkpt lat="45.4770132" lon="13.9840049"><ele>818.0</ele><time>2026-04-25T13:42:23.04Z</time></trkpt><trkpt lat="45.4770691" lon="13.9839457"><ele>818.0</ele><time>2026-04-25T13:42:24.035Z</time></trkpt><trkpt lat="45.4771238" lon="13.9838883"><ele>819.5714285714286</ele><time>2026-04-25T13:42:25.035Z</time></trkpt><trkpt lat="45.4771791" lon="13.9838395"><ele>821.1428571428572</ele><time>2026-04-25T13:42:26.034Z</time></trkpt><trkpt lat="45.477238" lon="13.9837951"><ele>822.7142857142858</ele><time>2026-04-25T13:42:27.024Z</time></trkpt><trkpt lat="45.4772974" lon="13.98375"><ele>824.2857142857142</ele><time>2026-04-25T13:42:28.034Z</time></trkpt><trkpt lat="45.4773608" lon="13.983699"><ele>825.8571428571429</ele><time>2026-04-25T13:42:29.034Z</time></trkpt><trkpt lat="45.4774231" lon="13.9836464"><ele>827.4285714285714</ele><time>2026-04-25T13:42:30.041Z</time></trkpt><trkpt lat="45.4774806" lon="13.9835941"><ele>829.0</ele><time>2026-04-25T13:42:31.028Z</time></trkpt><trkpt lat="45.4775378" lon="13.9835443"><ele>828.9999999999999</ele><time>2026-04-25T13:42:32.035Z</time></trkpt><trkpt lat="45.4776238" lon="13.9834282"><ele>829.0</ele><time>2026-04-25T13:42:34.034Z</time></trkpt><trkpt lat="45.4776731" lon="13.9833212"><ele>829.0</ele><time>2026-04-25T13:42:36.035Z</time></trkpt><trkpt lat="45.4776986" lon="13.9832285"><ele>829.0</ele><time>2026-04-25T13:42:38.049Z</time></trkpt><trkpt lat="45.4777117" lon="13.9831368"><ele>828.9999999999999</ele><time>2026-04-25T13:42:40.031Z</time></trkpt><trkpt lat="45.4777657" lon="13.9830443"><ele>829.0</ele><time>2026-04-25T13:42:43.035Z</time></trkpt><trkpt lat="45.4778621" lon="13.983022"><ele>828.1666666666666</ele><time>2026-04-25T13:42:46.025Z</time></trkpt><trkpt lat="45.4779316" lon="13.9830501"><ele>827.3333333333333</ele><time>2026-04-25T13:42:48.03Z</time></trkpt><trkpt lat="45.478004" lon="13.9830971"><ele>826.5</ele><time>2026-04-25T13:42:50.034Z</time></trkpt><trkpt lat="45.4780792" lon="13.9831203"><ele>825.6666666666667</ele><time>2026-04-25T13:42:52.04Z</time></trkpt><trkpt lat="45.4781702" lon="13.983113"><ele>824.8333333333334</ele><time>2026-04-25T13:42:54.037Z</time></trkpt><trkpt lat="45.4782623" lon="13.9830926"><ele>824.0</ele><time>2026-04-25T13:42:56.033Z</time></trkpt><trkpt lat="45.4783561" lon="13.9830624"><ele>827.2</ele><time>2026-04-25T13:42:58.038Z</time></trkpt><trkpt lat="45.4784555" lon="13.9830185"><ele>830.4000000000001</ele><time>2026-04-25T13:43:00.035Z</time></trkpt><trkpt lat="45.4785591" lon="13.9829571"><ele>833.6</ele><time>2026-04-25T13:43:02.031Z</time></trkpt><trkpt lat="45.478672" lon="13.9828967"><ele>836.8</ele><time>2026-04-25T13:43:04.027Z</time></trkpt><trkpt lat="45.4787796" lon="13.9828685"><ele>840.0</ele><time>2026-04-25T13:43:06.036Z</time></trkpt><trkpt lat="45.4788951" lon="13.9828199"><ele>843.0</ele><time>2026-04-25T13:43:08.038Z</time></trkpt><trkpt lat="45.4790061" lon="13.9827839"><ele>846.0</ele><time>2026-04-25T13:43:10.042Z</time></trkpt><trkpt lat="45.4791059" lon="13.982767"><ele>849.0</ele><time>2026-04-25T13:43:12.037Z</time></trkpt><trkpt lat="45.4792177" lon="13.9827603"><ele>852.0</ele><time>2026-04-25T13:43:14.033Z</time></trkpt><trkpt lat="45.4793311" lon="13.9827622"><ele>855.0</ele><time>2026-04-25T13:43:16.029Z</time></trkpt><trkpt lat="45.479448" lon="13.9827831"><ele>855.0</ele><time>2026-04-25T13:43:18.039Z</time></trkpt><trkpt lat="45.479563" lon="13.9828019"><ele>855.0</ele><time>2026-04-25T13:43:20.03Z</time></trkpt><trkpt lat="45.4796775" lon="13.98281"><ele>855.0</ele><time>2026-04-25T13:43:22.036Z</time></trkpt><trkpt lat="45.4797409" lon="13.9827971"><ele>855.0</ele><time>2026-04-25T13:43:23.033Z</time></trkpt><trkpt lat="45.4798052" lon="13.9827745"><ele>855.0</ele><time>2026-04-25T13:43:24.047Z</time></trkpt><trkpt lat="45.4799264" lon="13.9827539"><ele>857.0</ele><time>2026-04-25T13:43:26.033Z</time></trkpt><trkpt lat="45.4800387" lon="13.9827663"><ele>859.0</ele><time>2026-04-25T13:43:28.033Z</time></trkpt><trkpt lat="45.4801015" lon="13.9827736"><ele>861.0</ele><time>2026-04-25T13:43:29.041Z</time></trkpt><trkpt lat="45.4801652" lon="13.9827899"><ele>863.0</ele><time>2026-04-25T13:43:30.042Z</time></trkpt><trkpt lat="45.4802298" lon="13.9828094"><ele>865.0</ele><time>2026-04-25T13:43:31.034Z</time></trkpt><trkpt lat="45.4802946" lon="13.982834"><ele>867.0</ele><time>2026-04-25T13:43:32.03Z</time></trkpt><trkpt lat="45.480363" lon="13.9828492"><ele>869.0</ele><time>2026-04-25T13:43:33.039Z</time></trkpt><trkpt lat="45.480434" lon="13.9828519"><ele>871.0000000000001</ele><time>2026-04-25T13:43:34.039Z</time></trkpt><trkpt lat="45.4805058" lon="13.9828611"><ele>873.0</ele><time>2026-04-25T13:43:35.031Z</time></trkpt><trkpt lat="45.4805416" lon="13.9827786"><ele>875.0</ele><time>2026-04-25T13:44:36.035Z</time></trkpt><trkpt lat="45.4806128" lon="13.9827212"><ele>877.0</ele><time>2026-04-25T13:44:38.04Z</time></trkpt><trkpt lat="45.4806957" lon="13.9826863"><ele>879.0000000000001</ele><time>2026-04-25T13:44:40.057Z</time></trkpt><trkpt lat="45.4807869" lon="13.9827109"><ele>881.0</ele><time>2026-04-25T13:44:42.051Z</time></trkpt><trkpt lat="45.4808645" lon="13.9827463"><ele>881.0</ele><time>2026-04-25T13:44:45.036Z</time></trkpt><trkpt lat="45.4809617" lon="13.982735"><ele>880.9999999999999</ele><time>2026-04-25T13:47:07.039Z</time></trkpt><trkpt lat="45.4810395" lon="13.9826216"><ele>880.9999999999999</ele><time>2026-04-25T13:47:09.033Z</time></trkpt><trkpt lat="45.4811305" lon="13.9825146"><ele>881.0</ele><time>2026-04-25T13:47:11.047Z</time></trkpt><trkpt lat="45.4811941" lon="13.9824871"><ele>881.0</ele><time>2026-04-25T13:47:12.049Z</time></trkpt><trkpt lat="45.4812586" lon="13.9824698"><ele>881.5000000000001</ele><time>2026-04-25T13:47:13.04Z</time></trkpt><trkpt lat="45.4813322" lon="13.982432"><ele>882.0</ele><time>2026-04-25T13:47:14.043Z</time></trkpt><trkpt lat="45.481414" lon="13.9823856"><ele>882.5</ele><time>2026-04-25T13:47:15.036Z</time></trkpt><trkpt lat="45.4815004" lon="13.9823384"><ele>883.0</ele><time>2026-04-25T13:47:16.046Z</time></trkpt><trkpt lat="45.4815752" lon="13.9823042"><ele>883.5000000000001</ele><time>2026-04-25T13:47:17.043Z</time></trkpt><trkpt lat="45.4816455" lon="13.9822758"><ele>884.0</ele><time>2026-04-25T13:47:18.036Z</time></trkpt><trkpt lat="45.4817301" lon="13.9822396"><ele>884.0000000000001</ele><time>2026-04-25T13:47:19.037Z</time></trkpt><trkpt lat="45.4818184" lon="13.9822158"><ele>884.0</ele><time>2026-04-25T13:47:20.041Z</time></trkpt><trkpt lat="45.4818913" lon="13.9822045"><ele>884.0</ele><time>2026-04-25T13:47:21.032Z</time></trkpt><trkpt lat="45.4819622" lon="13.9821901"><ele>884.0</ele><time>2026-04-25T13:47:22.046Z</time></trkpt><trkpt lat="45.4820306" lon="13.9821966"><ele>884.0000000000001</ele><time>2026-04-25T13:47:23.035Z</time></trkpt><trkpt lat="45.4821026" lon="13.9822217"><ele>884.0</ele><time>2026-04-25T13:47:24.036Z</time></trkpt><trkpt lat="45.4821862" lon="13.9822289"><ele>882.4000000000001</ele><time>2026-04-25T13:47:25.028Z</time></trkpt><trkpt lat="45.4822789" lon="13.9822061"><ele>880.8000000000001</ele><time>2026-04-25T13:47:26.04Z</time></trkpt><trkpt lat="45.4823753" lon="13.9821683"><ele>879.1999999999999</ele><time>2026-04-25T13:47:27.038Z</time></trkpt><trkpt lat="45.4824767" lon="13.9821199"><ele>877.5999999999999</ele><time>2026-04-25T13:47:28.035Z</time></trkpt><trkpt lat="45.4825753" lon="13.9820977"><ele>876.0</ele><time>2026-04-25T13:47:29.043Z</time></trkpt><trkpt lat="45.4826635" lon="13.9821157"><ele>876.0</ele><time>2026-04-25T13:47:30.045Z</time></trkpt><trkpt lat="45.4827483" lon="13.9821341"><ele>875.9999999999999</ele><time>2026-04-25T13:47:31.031Z</time></trkpt><trkpt lat="45.4828277" lon="13.9821033"><ele>875.9999999999999</ele><time>2026-04-25T13:47:32.036Z</time></trkpt><trkpt lat="45.4829105" lon="13.9820612"><ele>876.0</ele><time>2026-04-25T13:47:33.033Z</time></trkpt><trkpt lat="45.4830115" lon="13.9820266"><ele>876.0</ele><time>2026-04-25T13:47:34.039Z</time></trkpt><trkpt lat="45.4831176" lon="13.9819951"><ele>875.1999999999999</ele><time>2026-04-25T13:47:35.034Z</time></trkpt><trkpt lat="45.4832243" lon="13.9819526"><ele>874.3999999999999</ele><time>2026-04-25T13:47:36.033Z</time></trkpt><trkpt lat="45.4833254" lon="13.9818985"><ele>873.6</ele><time>2026-04-25T13:47:37.035Z</time></trkpt><trkpt lat="45.4834231" lon="13.9818439"><ele>872.8</ele><time>2026-04-25T13:47:38.042Z</time></trkpt><trkpt lat="45.4835069" lon="13.9817765"><ele>872.0</ele><time>2026-04-25T13:47:39.037Z</time></trkpt><trkpt lat="45.4835799" lon="13.9816887"><ele>872.6</ele><time>2026-04-25T13:47:40.038Z</time></trkpt><trkpt lat="45.4836484" lon="13.9815926"><ele>873.2</ele><time>2026-04-25T13:47:41.027Z</time></trkpt><trkpt lat="45.4837124" lon="13.9814922"><ele>873.8</ele><time>2026-04-25T13:47:42.038Z</time></trkpt><trkpt lat="45.4837796" lon="13.9813958"><ele>874.4</ele><time>2026-04-25T13:47:43.039Z</time></trkpt><trkpt lat="45.4838513" lon="13.981295"><ele>875.0</ele><time>2026-04-25T13:47:44.037Z</time></trkpt><trkpt lat="45.4839266" lon="13.9811867"><ele>875.4</ele><time>2026-04-25T13:47:45.044Z</time></trkpt><trkpt lat="45.484004" lon="13.9810652"><ele>875.8</ele><time>2026-04-25T13:47:46.038Z</time></trkpt><trkpt lat="45.4840744" lon="13.9809425"><ele>876.2</ele><time>2026-04-25T13:47:47.038Z</time></trkpt><trkpt lat="45.4841416" lon="13.9808364"><ele>876.6</ele><time>2026-04-25T13:47:48.03Z</time></trkpt><trkpt lat="45.4842155" lon="13.9807629"><ele>877.0</ele><time>2026-04-25T13:47:49.043Z</time></trkpt><trkpt lat="45.4842969" lon="13.9806816"><ele>877.0</ele><time>2026-04-25T13:47:50.04Z</time></trkpt><trkpt lat="45.484373" lon="13.9805632"><ele>877.0</ele><time>2026-04-25T13:47:51.048Z</time></trkpt><trkpt lat="45.4844572" lon="13.9804454"><ele>877.0</ele><time>2026-04-25T13:47:52.05Z</time></trkpt><trkpt lat="45.4845362" lon="13.980334"><ele>877.0</ele><time>2026-04-25T13:47:53.038Z</time></trkpt><trkpt lat="45.4845988" lon="13.9802227"><ele>877.0</ele><time>2026-04-25T13:47:54.035Z</time></trkpt><trkpt lat="45.4846721" lon="13.9800994"><ele>877.4000000000001</ele><time>2026-04-25T13:47:55.043Z</time></trkpt><trkpt lat="45.4847461" lon="13.9799751"><ele>877.8000000000001</ele><time>2026-04-25T13:47:56.04Z</time></trkpt><trkpt lat="45.4848161" lon="13.9798487"><ele>878.2</ele><time>2026-04-25T13:47:57.037Z</time></trkpt><trkpt lat="45.4848821" lon="13.9797221"><ele>878.6</ele><time>2026-04-25T13:47:58.035Z</time></trkpt><trkpt lat="45.4849435" lon="13.9795987"><ele>879.0</ele><time>2026-04-25T13:47:59.034Z</time></trkpt><trkpt lat="45.4850109" lon="13.9794951"><ele>879.0</ele><time>2026-04-25T13:48:00.042Z</time></trkpt><trkpt lat="45.4850813" lon="13.9794167"><ele>879.0000000000001</ele><time>2026-04-25T13:48:01.037Z</time></trkpt><trkpt lat="45.4851529" lon="13.9793475"><ele>879.0000000000001</ele><time>2026-04-25T13:48:02.043Z</time></trkpt><trkpt lat="45.4852273" lon="13.9792791"><ele>879.0</ele><time>2026-04-25T13:48:03.031Z</time></trkpt><trkpt lat="45.4853015" lon="13.9791963"><ele>879.0</ele><time>2026-04-25T13:48:04.036Z</time></trkpt><trkpt lat="45.4853779" lon="13.9791063"><ele>878.8000000000001</ele><time>2026-04-25T13:48:05.038Z</time></trkpt><trkpt lat="45.4854568" lon="13.9790245"><ele>878.6000000000001</ele><time>2026-04-25T13:48:06.037Z</time></trkpt><trkpt lat="45.4855429" lon="13.9789515"><ele>878.4</ele><time>2026-04-25T13:48:07.031Z</time></trkpt><trkpt lat="45.4856252" lon="13.9788799"><ele>878.2</ele><time>2026-04-25T13:48:08.035Z</time></trkpt><trkpt lat="45.4857091" lon="13.9788079"><ele>878.0</ele><time>2026-04-25T13:48:09.041Z</time></trkpt><trkpt lat="45.4857966" lon="13.9787372"><ele>878.0</ele><time>2026-04-25T13:48:10.036Z</time></trkpt><trkpt lat="45.4858746" lon="13.9786615"><ele>878.0</ele><time>2026-04-25T13:48:11.034Z</time></trkpt><trkpt lat="45.4859436" lon="13.9785659"><ele>878.0</ele><time>2026-04-25T13:48:12.039Z</time></trkpt><trkpt lat="45.486006" lon="13.9784619"><ele>878.0</ele><time>2026-04-25T13:48:13.043Z</time></trkpt><trkpt lat="45.4860662" lon="13.9783555"><ele>878.0</ele><time>2026-04-25T13:48:14.033Z</time></trkpt><trkpt lat="45.4861265" lon="13.9782431"><ele>878.2</ele><time>2026-04-25T13:48:15.031Z</time></trkpt><trkpt lat="45.4861884" lon="13.9781329"><ele>878.4</ele><time>2026-04-25T13:48:16.048Z</time></trkpt><trkpt lat="45.4862586" lon="13.9780501"><ele>878.6000000000001</ele><time>2026-04-25T13:48:17.031Z</time></trkpt><trkpt lat="45.4863321" lon="13.9779845"><ele>878.8000000000001</ele><time>2026-04-25T13:48:18.038Z</time></trkpt><trkpt lat="45.4864136" lon="13.9779108"><ele>879.0</ele><time>2026-04-25T13:48:19.037Z</time></trkpt><trkpt lat="45.4864807" lon="13.9778189"><ele>878.1666666666666</ele><time>2026-04-25T13:48:20.035Z</time></trkpt><trkpt lat="45.4865396" lon="13.9777248"><ele>877.3333333333333</ele><time>2026-04-25T13:48:21.033Z</time></trkpt><trkpt lat="45.4865997" lon="13.9776349"><ele>876.5</ele><time>2026-04-25T13:48:22.04Z</time></trkpt><trkpt lat="45.486665" lon="13.9775551"><ele>875.6666666666666</ele><time>2026-04-25T13:48:23.051Z</time></trkpt><trkpt lat="45.4867307" lon="13.9774789"><ele>874.8333333333333</ele><time>2026-04-25T13:48:24.029Z</time></trkpt><trkpt lat="45.4867952" lon="13.9774045"><ele>874.0</ele><time>2026-04-25T13:48:25.031Z</time></trkpt><trkpt lat="45.4868654" lon="13.9773274"><ele>873.9999999999999</ele><time>2026-04-25T13:48:26.031Z</time></trkpt><trkpt lat="45.4869385" lon="13.9772617"><ele>874.0</ele><time>2026-04-25T13:48:27.035Z</time></trkpt><trkpt lat="45.4870099" lon="13.9771949"><ele>874.0</ele><time>2026-04-25T13:48:28.029Z</time></trkpt><trkpt lat="45.4870754" lon="13.977119"><ele>874.0</ele><time>2026-04-25T13:48:29.032Z</time></trkpt><trkpt lat="45.487141" lon="13.9770542"><ele>873.9999999999999</ele><time>2026-04-25T13:48:30.036Z</time></trkpt><trkpt lat="45.4872033" lon="13.9770087"><ele>874.0</ele><time>2026-04-25T13:48:31.033Z</time></trkpt><trkpt lat="45.4872623" lon="13.9769732"><ele>873.4000000000001</ele><time>2026-04-25T13:48:32.031Z</time></trkpt><trkpt lat="45.4873648" lon="13.9768892"><ele>872.8000000000001</ele><time>2026-04-25T13:48:34.035Z</time></trkpt><trkpt lat="45.4874531" lon="13.9767437"><ele>872.1999999999999</ele><time>2026-04-25T13:48:36.029Z</time></trkpt><trkpt lat="45.4875038" lon="13.976643"><ele>871.5999999999999</ele><time>2026-04-25T13:48:37.032Z</time></trkpt><trkpt lat="45.4875609" lon="13.9765606"><ele>871.0</ele><time>2026-04-25T13:48:38.049Z</time></trkpt><trkpt lat="45.4876344" lon="13.9764802"><ele>870.9999999999999</ele><time>2026-04-25T13:48:39.031Z</time></trkpt><trkpt lat="45.4877081" lon="13.9764004"><ele>871.0</ele><time>2026-04-25T13:48:40.032Z</time></trkpt><trkpt lat="45.487786" lon="13.9763275"><ele>871.0</ele><time>2026-04-25T13:48:41.038Z</time></trkpt><trkpt lat="45.4878655" lon="13.9762774"><ele>871.0</ele><time>2026-04-25T13:48:42.04Z</time></trkpt><trkpt lat="45.487946" lon="13.9762476"><ele>870.9999999999999</ele><time>2026-04-25T13:48:43.038Z</time></trkpt><trkpt lat="45.4880286" lon="13.9762193"><ele>871.0</ele><time>2026-04-25T13:48:44.043Z</time></trkpt><trkpt lat="45.4881012" lon="13.9761829"><ele>869.6666666666666</ele><time>2026-04-25T13:48:45.035Z</time></trkpt><trkpt lat="45.4881664" lon="13.9761314"><ele>868.3333333333333</ele><time>2026-04-25T13:48:46.021Z</time></trkpt><trkpt lat="45.4882283" lon="13.9760739"><ele>867.0</ele><time>2026-04-25T13:48:47.059Z</time></trkpt><trkpt lat="45.4882718" lon="13.9760067"><ele>865.6666666666667</ele><time>2026-04-25T13:48:48.029Z</time></trkpt><trkpt lat="45.4883362" lon="13.9758433"><ele>864.3333333333334</ele><time>2026-04-25T13:48:50.021Z</time></trkpt><trkpt lat="45.4883818" lon="13.9757426"><ele>863.0</ele><time>2026-04-25T13:48:51.029Z</time></trkpt><trkpt lat="45.4884301" lon="13.9756269"><ele>863.0</ele><time>2026-04-25T13:48:52.033Z</time></trkpt><trkpt lat="45.4884707" lon="13.9755075"><ele>863.0</ele><time>2026-04-25T13:48:53.029Z</time></trkpt><trkpt lat="45.4885032" lon="13.9753835"><ele>863.0</ele><time>2026-04-25T13:48:54.035Z</time></trkpt><trkpt lat="45.4885301" lon="13.9752587"><ele>863.0</ele><time>2026-04-25T13:48:55.023Z</time></trkpt><trkpt lat="45.4885548" lon="13.9751408"><ele>863.0</ele><time>2026-04-25T13:48:56.023Z</time></trkpt><trkpt lat="45.4885783" lon="13.9750229"><ele>863.5999999999999</ele><time>2026-04-25T13:48:57.027Z</time></trkpt><trkpt lat="45.4886081" lon="13.9749035"><ele>864.1999999999999</ele><time>2026-04-25T13:48:58.037Z</time></trkpt><trkpt lat="45.4886419" lon="13.9747786"><ele>864.8</ele><time>2026-04-25T13:48:59.017Z</time></trkpt><trkpt lat="45.4886774" lon="13.9746507"><ele>865.4</ele><time>2026-04-25T13:49:00.016Z</time></trkpt><trkpt lat="45.4887151" lon="13.9745204"><ele>866.0</ele><time>2026-04-25T13:49:01.043Z</time></trkpt><trkpt lat="45.4887526" lon="13.9743926"><ele>865.6666666666667</ele><time>2026-04-25T13:49:02.028Z</time></trkpt><trkpt lat="45.4887903" lon="13.9742801"><ele>865.3333333333334</ele><time>2026-04-25T13:49:03.036Z</time></trkpt><trkpt lat="45.48883" lon="13.9741862"><ele>865.0</ele><time>2026-04-25T13:49:04.035Z</time></trkpt><trkpt lat="45.4888784" lon="13.9741099"><ele>864.6666666666667</ele><time>2026-04-25T13:49:05.031Z</time></trkpt><trkpt lat="45.4889636" lon="13.9740078"><ele>864.3333333333334</ele><time>2026-04-25T13:49:07.033Z</time></trkpt><trkpt lat="45.4890053" lon="13.973911"><ele>864.0</ele><time>2026-04-25T13:49:09.032Z</time></trkpt><trkpt lat="45.4890483" lon="13.9738357"><ele>864.0</ele><time>2026-04-25T13:49:12.036Z</time></trkpt><trkpt lat="45.4891128" lon="13.9737662"><ele>864.0000000000001</ele><time>2026-04-25T13:49:15.037Z</time></trkpt><trkpt lat="45.4891731" lon="13.9736785"><ele>864.0000000000001</ele><time>2026-04-25T13:49:17.039Z</time></trkpt><trkpt lat="45.4892529" lon="13.9735807"><ele>864.0</ele><time>2026-04-25T13:49:19.042Z</time></trkpt><trkpt lat="45.4893286" lon="13.9734813"><ele>864.0</ele><time>2026-04-25T13:49:21.038Z</time></trkpt><trkpt lat="45.4894354" lon="13.9733751"><ele>863.1428571428571</ele><time>2026-04-25T13:49:23.041Z</time></trkpt><trkpt lat="45.4895018" lon="13.9733311"><ele>862.2857142857142</ele><time>2026-04-25T13:49:24.032Z</time></trkpt><trkpt lat="45.4895705" lon="13.9732929"><ele>861.4285714285714</ele><time>2026-04-25T13:49:25.034Z</time></trkpt><trkpt lat="45.4896363" lon="13.9732534"><ele>860.5714285714286</ele><time>2026-04-25T13:49:26.039Z</time></trkpt><trkpt lat="45.4897023" lon="13.9732178"><ele>859.7142857142858</ele><time>2026-04-25T13:49:27.032Z</time></trkpt><trkpt lat="45.4897702" lon="13.9731819"><ele>858.8571428571429</ele><time>2026-04-25T13:49:28.039Z</time></trkpt><trkpt lat="45.4898367" lon="13.9731501"><ele>858.0</ele><time>2026-04-25T13:49:29.027Z</time></trkpt><trkpt lat="45.4899021" lon="13.9731089"><ele>857.1666666666666</ele><time>2026-04-25T13:49:30.037Z</time></trkpt><trkpt lat="45.4899653" lon="13.9730601"><ele>856.3333333333333</ele><time>2026-04-25T13:49:31.027Z</time></trkpt><trkpt lat="45.4900277" lon="13.9729959"><ele>855.5</ele><time>2026-04-25T13:49:32.035Z</time></trkpt><trkpt lat="45.4900895" lon="13.972929"><ele>854.6666666666666</ele><time>2026-04-25T13:49:33.034Z</time></trkpt><trkpt lat="45.4901601" lon="13.9728686"><ele>853.8333333333333</ele><time>2026-04-25T13:49:34.032Z</time></trkpt><trkpt lat="45.4902388" lon="13.9728097"><ele>853.0</ele><time>2026-04-25T13:49:35.033Z</time></trkpt><trkpt lat="45.4903143" lon="13.9727606"><ele>852.9999999999999</ele><time>2026-04-25T13:49:36.031Z</time></trkpt><trkpt lat="45.4903932" lon="13.9727156"><ele>853.0</ele><time>2026-04-25T13:49:37.061Z</time></trkpt><trkpt lat="45.4904637" lon="13.9726804"><ele>853.0</ele><time>2026-04-25T13:49:38.026Z</time></trkpt><trkpt lat="45.4905198" lon="13.9726379"><ele>853.0</ele><time>2026-04-25T13:49:39.037Z</time></trkpt><trkpt lat="45.4905739" lon="13.9725895"><ele>852.9999999999999</ele><time>2026-04-25T13:49:40.038Z</time></trkpt><trkpt lat="45.4906905" lon="13.9724981"><ele>853.0</ele><time>2026-04-25T13:49:42.035Z</time></trkpt><trkpt lat="45.490751" lon="13.9724351"><ele>852.3333333333333</ele><time>2026-04-25T13:49:43.033Z</time></trkpt><trkpt lat="45.490808" lon="13.9723702"><ele>851.6666666666666</ele><time>2026-04-25T13:49:44.036Z</time></trkpt><trkpt lat="45.4908623" lon="13.9722981"><ele>851.0</ele><time>2026-04-25T13:49:45.03Z</time></trkpt><trkpt lat="45.4909175" lon="13.9722227"><ele>850.3333333333333</ele><time>2026-04-25T13:49:46.037Z</time></trkpt><trkpt lat="45.490976" lon="13.9721465"><ele>849.6666666666666</ele><time>2026-04-25T13:49:47.033Z</time></trkpt><trkpt lat="45.4910325" lon="13.9720752"><ele>849.0</ele><time>2026-04-25T13:49:48.031Z</time></trkpt><trkpt lat="45.4910872" lon="13.9719963"><ele>849.0</ele><time>2026-04-25T13:49:49.04Z</time></trkpt><trkpt lat="45.4911409" lon="13.9719175"><ele>849.0</ele><time>2026-04-25T13:49:50.032Z</time></trkpt><trkpt lat="45.4911823" lon="13.971847"><ele>849.0</ele><time>2026-04-25T13:49:51.031Z</time></trkpt><trkpt lat="45.4912598" lon="13.9717518"><ele>849.0</ele><time>2026-04-25T13:49:53.035Z</time></trkpt><trkpt lat="45.4913466" lon="13.9716838"><ele>849.0</ele><time>2026-04-25T13:49:55.031Z</time></trkpt><trkpt lat="45.4914403" lon="13.9715892"><ele>849.5</ele><time>2026-04-25T13:49:57.03Z</time></trkpt><trkpt lat="45.4915328" lon="13.971492"><ele>850.0</ele><time>2026-04-25T13:49:59.03Z</time></trkpt><trkpt lat="45.4916088" lon="13.9714374"><ele>850.5</ele><time>2026-04-25T13:50:01.03Z</time></trkpt><trkpt lat="45.4916658" lon="13.9713916"><ele>851.0</ele><time>2026-04-25T13:50:03.032Z</time></trkpt><trkpt lat="45.4917258" lon="13.9713376"><ele>851.5</ele><time>2026-04-25T13:50:05.031Z</time></trkpt><trkpt lat="45.4917982" lon="13.9712312"><ele>852.0</ele><time>2026-04-25T13:50:07.034Z</time></trkpt><trkpt lat="45.4918784" lon="13.971143"><ele>852.0</ele><time>2026-04-25T13:50:09.036Z</time></trkpt><trkpt lat="45.4919494" lon="13.971073"><ele>852.0</ele><time>2026-04-25T13:50:11.032Z</time></trkpt><trkpt lat="45.4920217" lon="13.9710271"><ele>852.0</ele><time>2026-04-25T13:50:13.031Z</time></trkpt><trkpt lat="45.4920936" lon="13.9709841"><ele>852.0</ele><time>2026-04-25T13:50:15.034Z</time></trkpt><trkpt lat="45.4921627" lon="13.9709292"><ele>852.0</ele><time>2026-04-25T13:50:17.03Z</time></trkpt><trkpt lat="45.4922333" lon="13.9708653"><ele>852.0</ele><time>2026-04-25T13:50:19.03Z</time></trkpt><trkpt lat="45.492318" lon="13.9707959"><ele>848.4000000000001</ele><time>2026-04-25T13:50:21.034Z</time></trkpt><trkpt lat="45.4924135" lon="13.9707026"><ele>844.8000000000001</ele><time>2026-04-25T13:50:23.034Z</time></trkpt><trkpt lat="45.4925053" lon="13.970628"><ele>841.2</ele><time>2026-04-25T13:50:25.027Z</time></trkpt><trkpt lat="45.4925863" lon="13.9705521"><ele>837.6</ele><time>2026-04-25T13:50:27.031Z</time></trkpt><trkpt lat="45.492672" lon="13.9704639"><ele>834.0</ele><time>2026-04-25T13:50:29.034Z</time></trkpt><trkpt lat="45.4927536" lon="13.970382"><ele>834.0</ele><time>2026-04-25T13:50:31.041Z</time></trkpt><trkpt lat="45.4928339" lon="13.9702934"><ele>834.0</ele><time>2026-04-25T13:50:33.04Z</time></trkpt><trkpt lat="45.4929243" lon="13.9702072"><ele>834.0</ele><time>2026-04-25T13:50:35.025Z</time></trkpt><trkpt lat="45.492998" lon="13.9701422"><ele>834.0</ele><time>2026-04-25T13:50:37.038Z</time></trkpt><trkpt lat="45.4930656" lon="13.9700619"><ele>834.0</ele><time>2026-04-25T13:50:39.041Z</time></trkpt><trkpt lat="45.4931607" lon="13.969947"><ele>829.8000000000001</ele><time>2026-04-25T13:50:41.024Z</time></trkpt><trkpt lat="45.4932106" lon="13.9698916"><ele>825.6</ele><time>2026-04-25T13:50:42.03Z</time></trkpt><trkpt lat="45.4932994" lon="13.9698011"><ele>821.4</ele><time>2026-04-25T13:50:44.035Z</time></trkpt><trkpt lat="45.493388" lon="13.9697056"><ele>817.2</ele><time>2026-04-25T13:50:46.033Z</time></trkpt><trkpt lat="45.4934947" lon="13.96961"><ele>813.0</ele><time>2026-04-25T13:50:48.035Z</time></trkpt><trkpt lat="45.4935499" lon="13.9695642"><ele>813.0</ele><time>2026-04-25T13:50:49.031Z</time></trkpt><trkpt lat="45.4936081" lon="13.9695115"><ele>813.0</ele><time>2026-04-25T13:50:50.028Z</time></trkpt><trkpt lat="45.4936626" lon="13.9694554"><ele>813.0</ele><time>2026-04-25T13:50:51.028Z</time></trkpt><trkpt lat="45.4937162" lon="13.9694045"><ele>813.0</ele><time>2026-04-25T13:50:52.039Z</time></trkpt><trkpt lat="45.4937692" lon="13.9693492"><ele>813.0</ele><time>2026-04-25T13:50:53.032Z</time></trkpt><trkpt lat="45.4938273" lon="13.9692915"><ele>813.0</ele><time>2026-04-25T13:50:54.04Z</time></trkpt><trkpt lat="45.4938826" lon="13.9692238"><ele>813.0</ele><time>2026-04-25T13:50:55.028Z</time></trkpt><trkpt lat="45.4939312" lon="13.9691523"><ele>810.2857142857143</ele><time>2026-04-25T13:50:56.039Z</time></trkpt><trkpt lat="45.4939767" lon="13.9690782"><ele>807.5714285714286</ele><time>2026-04-25T13:50:57.03Z</time></trkpt><trkpt lat="45.49402" lon="13.9690046"><ele>804.8571428571429</ele><time>2026-04-25T13:50:58.03Z</time></trkpt><trkpt lat="45.494074" lon="13.9689322"><ele>802.1428571428571</ele><time>2026-04-25T13:50:59.037Z</time></trkpt><trkpt lat="45.4941339" lon="13.9688605"><ele>799.4285714285713</ele><time>2026-04-25T13:51:00.029Z</time></trkpt><trkpt lat="45.4941953" lon="13.9687952"><ele>796.7142857142857</ele><time>2026-04-25T13:51:01.035Z</time></trkpt><trkpt lat="45.4942585" lon="13.9687297"><ele>794.0</ele><time>2026-04-25T13:51:02.036Z</time></trkpt><trkpt lat="45.4943193" lon="13.9686607"><ele>794.0000000000001</ele><time>2026-04-25T13:51:03.04Z</time></trkpt><trkpt lat="45.4943794" lon="13.9685865"><ele>794.0</ele><time>2026-04-25T13:51:04.03Z</time></trkpt><trkpt lat="45.4944395" lon="13.9685074"><ele>794.0</ele><time>2026-04-25T13:51:05.033Z</time></trkpt><trkpt lat="45.4945" lon="13.9684279"><ele>794.0</ele><time>2026-04-25T13:51:06.037Z</time></trkpt><trkpt lat="45.4945567" lon="13.9683533"><ele>794.0000000000001</ele><time>2026-04-25T13:51:07.037Z</time></trkpt><trkpt lat="45.4946143" lon="13.9682798"><ele>794.0</ele><time>2026-04-25T13:51:08.036Z</time></trkpt><trkpt lat="45.4946755" lon="13.968215"><ele>791.1666666666667</ele><time>2026-04-25T13:51:09.035Z</time></trkpt><trkpt lat="45.4947377" lon="13.9681463"><ele>788.3333333333334</ele><time>2026-04-25T13:51:10.042Z</time></trkpt><trkpt lat="45.4947929" lon="13.9680481"><ele>785.5</ele><time>2026-04-25T13:51:11.033Z</time></trkpt><trkpt lat="45.494833" lon="13.9679453"><ele>782.6666666666667</ele><time>2026-04-25T13:51:12.033Z</time></trkpt><trkpt lat="45.4948669" lon="13.9678388"><ele>779.8333333333334</ele><time>2026-04-25T13:51:13.026Z</time></trkpt><trkpt lat="45.4949106" lon="13.9677266"><ele>777.0</ele><time>2026-04-25T13:51:14.04Z</time></trkpt><trkpt lat="45.4949557" lon="13.9676071"><ele>777.2</ele><time>2026-04-25T13:51:15.032Z</time></trkpt><trkpt lat="45.494994" lon="13.9674935"><ele>777.4000000000001</ele><time>2026-04-25T13:51:16.028Z</time></trkpt><trkpt lat="45.4950502" lon="13.9673978"><ele>777.5999999999999</ele><time>2026-04-25T13:51:17.026Z</time></trkpt><trkpt lat="45.4951209" lon="13.9673215"><ele>777.8</ele><time>2026-04-25T13:51:18.027Z</time></trkpt><trkpt lat="45.4951985" lon="13.9672384"><ele>778.0</ele><time>2026-04-25T13:51:19.019Z</time></trkpt><trkpt lat="45.4952686" lon="13.9671362"><ele>778.0</ele><time>2026-04-25T13:51:20.025Z</time></trkpt><trkpt lat="45.4953361" lon="13.967015"><ele>778.0</ele><time>2026-04-25T13:51:21.023Z</time></trkpt><trkpt lat="45.4954068" lon="13.9668969"><ele>778.0</ele><time>2026-04-25T13:51:22.037Z</time></trkpt><trkpt lat="45.4954862" lon="13.9667988"><ele>778.0</ele><time>2026-04-25T13:51:23.033Z</time></trkpt><trkpt lat="45.4955729" lon="13.9667102"><ele>778.0</ele><time>2026-04-25T13:51:24.051Z</time></trkpt><trkpt lat="45.4956617" lon="13.9666275"><ele>778.0</ele><time>2026-04-25T13:51:25.032Z</time></trkpt><trkpt lat="45.4957528" lon="13.9665459"><ele>778.0</ele><time>2026-04-25T13:51:26.029Z</time></trkpt><trkpt lat="45.4958398" lon="13.9664652"><ele>778.0</ele><time>2026-04-25T13:51:27.029Z</time></trkpt><trkpt lat="45.4959339" lon="13.9663959"><ele>778.0</ele><time>2026-04-25T13:51:28.032Z</time></trkpt><trkpt lat="45.4960325" lon="13.9663358"><ele>778.0</ele><time>2026-04-25T13:51:29.038Z</time></trkpt><trkpt lat="45.4961328" lon="13.9662805"><ele>778.0</ele><time>2026-04-25T13:51:30.029Z</time></trkpt><trkpt lat="45.4962382" lon="13.9662193"><ele>778.0</ele><time>2026-04-25T13:51:31.03Z</time></trkpt><trkpt lat="45.4963459" lon="13.9661685"><ele>778.0</ele><time>2026-04-25T13:51:32.027Z</time></trkpt><trkpt lat="45.4964576" lon="13.9661293"><ele>778.0</ele><time>2026-04-25T13:51:33.026Z</time></trkpt><trkpt lat="45.4965709" lon="13.9661083"><ele>776.4</ele><time>2026-04-25T13:51:34.032Z</time></trkpt><trkpt lat="45.4966779" lon="13.9660945"><ele>774.8</ele><time>2026-04-25T13:51:35.036Z</time></trkpt><trkpt lat="45.4967842" lon="13.9660692"><ele>773.2</ele><time>2026-04-25T13:51:36.036Z</time></trkpt><trkpt lat="45.496891" lon="13.9660256"><ele>771.6</ele><time>2026-04-25T13:51:37.031Z</time></trkpt><trkpt lat="45.4969819" lon="13.9659833"><ele>770.0</ele><time>2026-04-25T13:51:38.034Z</time></trkpt><trkpt lat="45.4970573" lon="13.9659398"><ele>770.5000000000001</ele><time>2026-04-25T13:51:39.027Z</time></trkpt><trkpt lat="45.497122" lon="13.9658774"><ele>771.0</ele><time>2026-04-25T13:51:40.035Z</time></trkpt><trkpt lat="45.4971757" lon="13.9657992"><ele>771.5</ele><time>2026-04-25T13:51:41.032Z</time></trkpt><trkpt lat="45.4972282" lon="13.9657111"><ele>772.0</ele><time>2026-04-25T13:51:42.025Z</time></trkpt><trkpt lat="45.4972843" lon="13.96562"><ele>772.5000000000001</ele><time>2026-04-25T13:51:43.03Z</time></trkpt><trkpt lat="45.4973407" lon="13.9655216"><ele>773.0</ele><time>2026-04-25T13:51:44.03Z</time></trkpt><trkpt lat="45.497402" lon="13.9654138"><ele>773.0</ele><time>2026-04-25T13:51:45.036Z</time></trkpt><trkpt lat="45.4974661" lon="13.965297"><ele>773.0</ele><time>2026-04-25T13:51:46.031Z</time></trkpt><trkpt lat="45.4975332" lon="13.9651703"><ele>773.0</ele><time>2026-04-25T13:51:47.029Z</time></trkpt><trkpt lat="45.4975998" lon="13.9650449"><ele>773.0</ele><time>2026-04-25T13:51:48.04Z</time></trkpt><trkpt lat="45.4976653" lon="13.964912"><ele>773.0</ele><time>2026-04-25T13:51:49.034Z</time></trkpt><trkpt lat="45.4977338" lon="13.964776"><ele>773.2</ele><time>2026-04-25T13:51:50.032Z</time></trkpt><trkpt lat="45.4977945" lon="13.9646388"><ele>773.4</ele><time>2026-04-25T13:51:51.026Z</time></trkpt><trkpt lat="45.4978559" lon="13.964506"><ele>773.6</ele><time>2026-04-25T13:51:52.035Z</time></trkpt><trkpt lat="45.4979192" lon="13.9643807"><ele>773.8000000000001</ele><time>2026-04-25T13:51:53.027Z</time></trkpt><trkpt lat="45.4979806" lon="13.9642593"><ele>774.0</ele><time>2026-04-25T13:51:54.032Z</time></trkpt><trkpt lat="45.4980541" lon="13.964149"><ele>774.0</ele><time>2026-04-25T13:51:55.03Z</time></trkpt><trkpt lat="45.498136" lon="13.9640455"><ele>774.0</ele><time>2026-04-25T13:51:56.03Z</time></trkpt><trkpt lat="45.4982208" lon="13.963949"><ele>774.0</ele><time>2026-04-25T13:51:57.041Z</time></trkpt><trkpt lat="45.4983033" lon="13.9638533"><ele>774.0</ele><time>2026-04-25T13:51:58.028Z</time></trkpt><trkpt lat="45.4983849" lon="13.9637599"><ele>774.0</ele><time>2026-04-25T13:51:59.027Z</time></trkpt><trkpt lat="45.4984718" lon="13.963668"><ele>774.0</ele><time>2026-04-25T13:52:00.039Z</time></trkpt><trkpt lat="45.4985599" lon="13.9635743"><ele>774.0</ele><time>2026-04-25T13:52:01.027Z</time></trkpt><trkpt lat="45.4986429" lon="13.9634733"><ele>774.0</ele><time>2026-04-25T13:52:02.034Z</time></trkpt><trkpt lat="45.4987148" lon="13.9633588"><ele>774.0</ele><time>2026-04-25T13:52:03.033Z</time></trkpt><trkpt lat="45.4987835" lon="13.9632364"><ele>774.0</ele><time>2026-04-25T13:52:04.034Z</time></trkpt><trkpt lat="45.4988607" lon="13.9631309"><ele>774.25</ele><time>2026-04-25T13:52:05.03Z</time></trkpt><trkpt lat="45.4989573" lon="13.9630385"><ele>774.5</ele><time>2026-04-25T13:52:06.032Z</time></trkpt><trkpt lat="45.4990535" lon="13.962946"><ele>774.75</ele><time>2026-04-25T13:52:07.029Z</time></trkpt><trkpt lat="45.4991448" lon="13.9628425"><ele>775.0</ele><time>2026-04-25T13:52:08.032Z</time></trkpt><trkpt lat="45.4992236" lon="13.9627271"><ele>775.0</ele><time>2026-04-25T13:52:09.03Z</time></trkpt><trkpt lat="45.4993015" lon="13.9626088"><ele>775.0</ele><time>2026-04-25T13:52:10.04Z</time></trkpt><trkpt lat="45.499382" lon="13.9624938"><ele>775.0</ele><time>2026-04-25T13:52:11.033Z</time></trkpt><trkpt lat="45.499454" lon="13.9623708"><ele>775.0</ele><time>2026-04-25T13:52:12.031Z</time></trkpt><trkpt lat="45.4995159" lon="13.9622394"><ele>774.6</ele><time>2026-04-25T13:52:13.034Z</time></trkpt><trkpt lat="45.4995769" lon="13.9621042"><ele>774.2</ele><time>2026-04-25T13:52:14.029Z</time></trkpt><trkpt lat="45.4996335" lon="13.9619682"><ele>773.8</ele><time>2026-04-25T13:52:15.027Z</time></trkpt><trkpt lat="45.4996917" lon="13.9618434"><ele>773.4</ele><time>2026-04-25T13:52:16.033Z</time></trkpt><trkpt lat="45.4997586" lon="13.961741"><ele>773.0</ele><time>2026-04-25T13:52:17.031Z</time></trkpt><trkpt lat="45.4998398" lon="13.961656"><ele>775.0</ele><time>2026-04-25T13:52:18.034Z</time></trkpt><trkpt lat="45.4999248" lon="13.9615704"><ele>777.0</ele><time>2026-04-25T13:52:19.033Z</time></trkpt><trkpt lat="45.5000107" lon="13.9614643"><ele>779.0</ele><time>2026-04-25T13:52:20.027Z</time></trkpt><trkpt lat="45.5000943" lon="13.961343"><ele>781.0</ele><time>2026-04-25T13:52:21.028Z</time></trkpt><trkpt lat="45.5001728" lon="13.9612206"><ele>781.0</ele><time>2026-04-25T13:52:22.033Z</time></trkpt><trkpt lat="45.5002568" lon="13.9610984"><ele>781.0</ele><time>2026-04-25T13:52:23.03Z</time></trkpt><trkpt lat="45.5003385" lon="13.9609702"><ele>781.0</ele><time>2026-04-25T13:52:24.034Z</time></trkpt><trkpt lat="45.5004219" lon="13.9608444"><ele>781.0</ele><time>2026-04-25T13:52:25.041Z</time></trkpt><trkpt lat="45.5005091" lon="13.9607253"><ele>780.0</ele><time>2026-04-25T13:52:26.035Z</time></trkpt><trkpt lat="45.5005962" lon="13.9606082"><ele>779.0</ele><time>2026-04-25T13:52:27.037Z</time></trkpt><trkpt lat="45.5006809" lon="13.9605014"><ele>778.0</ele><time>2026-04-25T13:52:28.041Z</time></trkpt><trkpt lat="45.5007681" lon="13.9604062"><ele>777.0</ele><time>2026-04-25T13:52:29.038Z</time></trkpt><trkpt lat="45.5008536" lon="13.9603186"><ele>776.0</ele><time>2026-04-25T13:52:30.032Z</time></trkpt><trkpt lat="45.5009377" lon="13.9602398"><ele>776.0</ele><time>2026-04-25T13:52:31.031Z</time></trkpt><trkpt lat="45.5010162" lon="13.9601525"><ele>776.0</ele><time>2026-04-25T13:52:32.042Z</time></trkpt><trkpt lat="45.501098" lon="13.9600494"><ele>776.0</ele><time>2026-04-25T13:52:33.036Z</time></trkpt><trkpt lat="45.5011876" lon="13.9599556"><ele>776.0</ele><time>2026-04-25T13:52:34.03Z</time></trkpt><trkpt lat="45.5012712" lon="13.959873"><ele>776.0</ele><time>2026-04-25T13:52:35.027Z</time></trkpt><trkpt lat="45.5013569" lon="13.9597932"><ele>774.5999999999999</ele><time>2026-04-25T13:52:36.036Z</time></trkpt><trkpt lat="45.5014346" lon="13.9597065"><ele>773.2</ele><time>2026-04-25T13:52:37.034Z</time></trkpt><trkpt lat="45.5014987" lon="13.9596105"><ele>771.8</ele><time>2026-04-25T13:52:38.027Z</time></trkpt><trkpt lat="45.5015473" lon="13.9594894"><ele>770.4000000000001</ele><time>2026-04-25T13:52:39.032Z</time></trkpt><trkpt lat="45.5015873" lon="13.9593619"><ele>769.0</ele><time>2026-04-25T13:52:40.031Z</time></trkpt><trkpt lat="45.5016178" lon="13.9592303"><ele>768.8333333333333</ele><time>2026-04-25T13:52:41.035Z</time></trkpt><trkpt lat="45.5016325" lon="13.9590915"><ele>768.6666666666666</ele><time>2026-04-25T13:52:42.032Z</time></trkpt><trkpt lat="45.5016336" lon="13.9589604"><ele>768.5</ele><time>2026-04-25T13:52:43.033Z</time></trkpt><trkpt lat="45.5016196" lon="13.9588445"><ele>768.3333333333333</ele><time>2026-04-25T13:52:44.034Z</time></trkpt><trkpt lat="45.5015967" lon="13.9587376"><ele>768.1666666666666</ele><time>2026-04-25T13:52:45.054Z</time></trkpt><trkpt lat="45.5015706" lon="13.958628"><ele>768.0</ele><time>2026-04-25T13:52:46.035Z</time></trkpt><trkpt lat="45.5015394" lon="13.9585213"><ele>768.0</ele><time>2026-04-25T13:52:47.029Z</time></trkpt><trkpt lat="45.5015054" lon="13.9584144"><ele>768.0</ele><time>2026-04-25T13:52:48.032Z</time></trkpt><trkpt lat="45.5014715" lon="13.9583053"><ele>768.0</ele><time>2026-04-25T13:52:49.034Z</time></trkpt><trkpt lat="45.5014406" lon="13.9582048"><ele>768.0</ele><time>2026-04-25T13:52:50.037Z</time></trkpt><trkpt lat="45.5014091" lon="13.9581049"><ele>768.0</ele><time>2026-04-25T13:52:51.034Z</time></trkpt><trkpt lat="45.5013879" lon="13.9579995"><ele>768.0</ele><time>2026-04-25T13:52:52.045Z</time></trkpt><trkpt lat="45.5013739" lon="13.9579089"><ele>767.5</ele><time>2026-04-25T13:52:53.042Z</time></trkpt><trkpt lat="45.501358" lon="13.9577536"><ele>767.0</ele><time>2026-04-25T13:52:55.046Z</time></trkpt><trkpt lat="45.501337" lon="13.9575977"><ele>766.5</ele><time>2026-04-25T13:52:57.044Z</time></trkpt><trkpt lat="45.5013362" lon="13.9575064"><ele>766.0</ele><time>2026-04-25T13:52:58.045Z</time></trkpt><trkpt lat="45.5013349" lon="13.9573885"><ele>765.5</ele><time>2026-04-25T13:52:59.038Z</time></trkpt><trkpt lat="45.5013394" lon="13.9572821"><ele>765.0</ele><time>2026-04-25T13:53:00.042Z</time></trkpt><trkpt lat="45.5013438" lon="13.957174"><ele>765.0</ele><time>2026-04-25T13:53:01.046Z</time></trkpt><trkpt lat="45.5013497" lon="13.9570733"><ele>765.0</ele><time>2026-04-25T13:53:02.036Z</time></trkpt><trkpt lat="45.5013665" lon="13.956944"><ele>765.0</ele><time>2026-04-25T13:53:03.033Z</time></trkpt><trkpt lat="45.5013965" lon="13.9568096"><ele>765.0</ele><time>2026-04-25T13:53:04.044Z</time></trkpt><trkpt lat="45.5014225" lon="13.9566926"><ele>765.0</ele><time>2026-04-25T13:53:05.036Z</time></trkpt><trkpt lat="45.5014532" lon="13.9565696"><ele>765.0</ele><time>2026-04-25T13:53:06.046Z</time></trkpt><trkpt lat="45.5014794" lon="13.9564514"><ele>766.2</ele><time>2026-04-25T13:53:07.047Z</time></trkpt><trkpt lat="45.5015024" lon="13.9563277"><ele>767.4</ele><time>2026-04-25T13:53:08.034Z</time></trkpt><trkpt lat="45.5015416" lon="13.9562145"><ele>768.5999999999999</ele><time>2026-04-25T13:53:09.038Z</time></trkpt><trkpt lat="45.5015847" lon="13.9561093"><ele>769.8</ele><time>2026-04-25T13:53:10.039Z</time></trkpt><trkpt lat="45.5016466" lon="13.9560154"><ele>771.0</ele><time>2026-04-25T13:53:11.029Z</time></trkpt><trkpt lat="45.5017263" lon="13.9559145"><ele>771.1999999999999</ele><time>2026-04-25T13:53:12.039Z</time></trkpt><trkpt lat="45.5018059" lon="13.9558083"><ele>771.4</ele><time>2026-04-25T13:53:13.036Z</time></trkpt><trkpt lat="45.5018837" lon="13.9557013"><ele>771.6</ele><time>2026-04-25T13:53:14.034Z</time></trkpt><trkpt lat="45.5019635" lon="13.955586"><ele>771.8</ele><time>2026-04-25T13:53:15.035Z</time></trkpt><trkpt lat="45.5020457" lon="13.9554808"><ele>772.0</ele><time>2026-04-25T13:53:16.029Z</time></trkpt><trkpt lat="45.5021307" lon="13.95538"><ele>772.0</ele><time>2026-04-25T13:53:17.029Z</time></trkpt><trkpt lat="45.5022187" lon="13.9552808"><ele>772.0</ele><time>2026-04-25T13:53:18.03Z</time></trkpt><trkpt lat="45.5023073" lon="13.9551639"><ele>772.0</ele><time>2026-04-25T13:53:19.036Z</time></trkpt><trkpt lat="45.5023824" lon="13.9550479"><ele>772.0</ele><time>2026-04-25T13:53:20.026Z</time></trkpt><trkpt lat="45.5024433" lon="13.9549188"><ele>773.5</ele><time>2026-04-25T13:53:21.028Z</time></trkpt><trkpt lat="45.5025136" lon="13.9547968"><ele>775.0</ele><time>2026-04-25T13:53:22.039Z</time></trkpt><trkpt lat="45.5025886" lon="13.9546882"><ele>776.5</ele><time>2026-04-25T13:53:23.036Z</time></trkpt><trkpt lat="45.5026724" lon="13.9545757"><ele>778.0</ele><time>2026-04-25T13:53:24.039Z</time></trkpt><trkpt lat="45.5027618" lon="13.9544553"><ele>778.0</ele><time>2026-04-25T13:53:25.044Z</time></trkpt><trkpt lat="45.5028401" lon="13.9543535"><ele>778.0</ele><time>2026-04-25T13:53:26.045Z</time></trkpt><trkpt lat="45.5029229" lon="13.954245"><ele>778.0</ele><time>2026-04-25T13:53:27.038Z</time></trkpt><trkpt lat="45.5029963" lon="13.9541516"><ele>778.0</ele><time>2026-04-25T13:53:28.044Z</time></trkpt><trkpt lat="45.503061" lon="13.9540635"><ele>778.0</ele><time>2026-04-25T13:53:29.045Z</time></trkpt><trkpt lat="45.5031219" lon="13.9539684"><ele>777.6666666666666</ele><time>2026-04-25T13:53:30.04Z</time></trkpt><trkpt lat="45.5031792" lon="13.9538716"><ele>777.3333333333333</ele><time>2026-04-25T13:53:31.039Z</time></trkpt><trkpt lat="45.5032328" lon="13.9537715"><ele>777.0</ele><time>2026-04-25T13:53:32.046Z</time></trkpt><trkpt lat="45.503283" lon="13.9536727"><ele>776.6666666666667</ele><time>2026-04-25T13:53:33.052Z</time></trkpt><trkpt lat="45.5033299" lon="13.9535595"><ele>776.3333333333334</ele><time>2026-04-25T13:53:34.046Z</time></trkpt><trkpt lat="45.5033608" lon="13.9534568"><ele>776.0</ele><time>2026-04-25T13:53:35.028Z</time></trkpt><trkpt lat="45.5033764" lon="13.9533653"><ele>776.0000000000001</ele><time>2026-04-25T13:53:36.044Z</time></trkpt><trkpt lat="45.5033787" lon="13.9532716"><ele>776.0</ele><time>2026-04-25T13:53:37.044Z</time></trkpt><trkpt lat="45.5033705" lon="13.9531796"><ele>776.0</ele><time>2026-04-25T13:53:39.035Z</time></trkpt><trkpt lat="45.5034385" lon="13.9531872"><ele>776.0</ele><time>2026-04-25T13:53:50.029Z</time></trkpt><trkpt lat="45.5035067" lon="13.9533386"><ele>776.0000000000001</ele><time>2026-04-25T13:53:52.031Z</time></trkpt><trkpt lat="45.503575" lon="13.9534829"><ele>776.0</ele><time>2026-04-25T13:53:53.03Z</time></trkpt><trkpt lat="45.5036618" lon="13.9536202"><ele>776.0</ele><time>2026-04-25T13:53:54.048Z</time></trkpt><trkpt lat="45.503742" lon="13.953743"><ele>776.0</ele><time>2026-04-25T13:53:55.043Z</time></trkpt><trkpt lat="45.5038232" lon="13.9538653"><ele>776.0</ele><time>2026-04-25T13:53:56.038Z</time></trkpt><trkpt lat="45.5039024" lon="13.9539794"><ele>776.0</ele><time>2026-04-25T13:53:57.03Z</time></trkpt><trkpt lat="45.5039788" lon="13.9540938"><ele>776.4</ele><time>2026-04-25T13:53:58.038Z</time></trkpt><trkpt lat="45.5040458" lon="13.9542113"><ele>776.8</ele><time>2026-04-25T13:53:59.035Z</time></trkpt><trkpt lat="45.5040954" lon="13.9543316"><ele>777.1999999999999</ele><time>2026-04-25T13:54:00.037Z</time></trkpt><trkpt lat="45.5041373" lon="13.9544501"><ele>777.5999999999999</ele><time>2026-04-25T13:54:01.031Z</time></trkpt><trkpt lat="45.5041915" lon="13.9545595"><ele>778.0</ele><time>2026-04-25T13:54:02.038Z</time></trkpt><trkpt lat="45.5042593" lon="13.9546493"><ele>777.9999999999999</ele><time>2026-04-25T13:54:03.037Z</time></trkpt><trkpt lat="45.504327" lon="13.9547337"><ele>778.0</ele><time>2026-04-25T13:54:04.031Z</time></trkpt><trkpt lat="45.5044002" lon="13.9548158"><ele>778.0</ele><time>2026-04-25T13:54:05.03Z</time></trkpt><trkpt lat="45.5044707" lon="13.9548935"><ele>778.0</ele><time>2026-04-25T13:54:06.043Z</time></trkpt><trkpt lat="45.5045359" lon="13.9549719"><ele>777.9999999999999</ele><time>2026-04-25T13:54:07.048Z</time></trkpt><trkpt lat="45.5046026" lon="13.9550542"><ele>778.0</ele><time>2026-04-25T13:54:08.031Z</time></trkpt><trkpt lat="45.5046678" lon="13.9551203"><ele>777.8333333333333</ele><time>2026-04-25T13:54:09.037Z</time></trkpt><trkpt lat="45.5047289" lon="13.9551789"><ele>777.6666666666666</ele><time>2026-04-25T13:54:10.041Z</time></trkpt><trkpt lat="45.5047848" lon="13.9552302"><ele>777.5</ele><time>2026-04-25T13:54:12.04Z</time></trkpt><trkpt lat="45.504854" lon="13.9551518"><ele>777.3333333333333</ele><time>2026-04-25T13:54:15.022Z</time></trkpt><trkpt lat="45.5049128" lon="13.9550629"><ele>777.1666666666666</ele><time>2026-04-25T13:54:17.034Z</time></trkpt><trkpt lat="45.5049484" lon="13.9549484"><ele>777.0</ele><time>2026-04-25T13:54:19.033Z</time></trkpt><trkpt lat="45.5050001" lon="13.9548869"><ele>777.6</ele><time>2026-04-25T13:54:21.034Z</time></trkpt><trkpt lat="45.5050977" lon="13.9548247"><ele>778.2</ele><time>2026-04-25T13:54:23.028Z</time></trkpt><trkpt lat="45.5051961" lon="13.9547728"><ele>778.8</ele><time>2026-04-25T13:54:25.024Z</time></trkpt><trkpt lat="45.5052564" lon="13.9546531"><ele>779.4</ele><time>2026-04-25T13:54:27.03Z</time></trkpt><trkpt lat="45.5053386" lon="13.9545188"><ele>780.0</ele><time>2026-04-25T13:54:29.04Z</time></trkpt><trkpt lat="45.5053835" lon="13.9544477"><ele>781.5</ele><time>2026-04-25T13:54:30.036Z</time></trkpt><trkpt lat="45.5054737" lon="13.954347"><ele>783.0</ele><time>2026-04-25T13:54:32.037Z</time></trkpt><trkpt lat="45.5055389" lon="13.9542156"><ele>784.5</ele><time>2026-04-25T13:54:34.042Z</time></trkpt><trkpt lat="45.5055998" lon="13.9540823"><ele>786.0</ele><time>2026-04-25T13:54:36.035Z</time></trkpt><trkpt lat="45.5056668" lon="13.9539439"><ele>786.8333333333334</ele><time>2026-04-25T13:54:38.051Z</time></trkpt><trkpt lat="45.5057353" lon="13.9538519"><ele>787.6666666666667</ele><time>2026-04-25T13:54:40.03Z</time></trkpt><trkpt lat="45.5057898" lon="13.9537964"><ele>788.5</ele><time>2026-04-25T13:54:42.049Z</time></trkpt><trkpt lat="45.5058531" lon="13.9537507"><ele>789.3333333333334</ele><time>2026-04-25T13:54:44.035Z</time></trkpt><trkpt lat="45.5059263" lon="13.9536815"><ele>790.1666666666667</ele><time>2026-04-25T13:54:46.032Z</time></trkpt><trkpt lat="45.5059557" lon="13.9535394"><ele>791.0</ele><time>2026-04-25T13:54:48.028Z</time></trkpt><trkpt lat="45.5060028" lon="13.9533835"><ele>791.1666666666667</ele><time>2026-04-25T13:54:50.037Z</time></trkpt><trkpt lat="45.5060634" lon="13.9532479"><ele>791.3333333333334</ele><time>2026-04-25T13:54:52.038Z</time></trkpt><trkpt lat="45.5061062" lon="13.9531311"><ele>791.5</ele><time>2026-04-25T13:54:54.037Z</time></trkpt><trkpt lat="45.5061586" lon="13.9530775"><ele>791.6666666666667</ele><time>2026-04-25T13:54:56.039Z</time></trkpt><trkpt lat="45.506179" lon="13.9529876"><ele>791.8333333333334</ele><time>2026-04-25T13:54:59.028Z</time></trkpt><trkpt lat="45.5061881" lon="13.9528907"><ele>792.0</ele><time>2026-04-25T13:55:01.029Z</time></trkpt><trkpt lat="45.5062148" lon="13.9527583"><ele>792.0</ele><time>2026-04-25T13:55:03.045Z</time></trkpt><trkpt lat="45.5062322" lon="13.9526317"><ele>792.0</ele><time>2026-04-25T13:55:05.045Z</time></trkpt><trkpt lat="45.5062451" lon="13.9525341"><ele>792.0</ele><time>2026-04-25T13:55:07.033Z</time></trkpt><trkpt lat="45.5063131" lon="13.9524473"><ele>792.0</ele><time>2026-04-25T13:55:10.04Z</time></trkpt><trkpt lat="45.5063504" lon="13.9523708"><ele>792.0</ele><time>2026-04-25T13:55:12.047Z</time></trkpt><trkpt lat="45.5063238" lon="13.9522649"><ele>792.0</ele><time>2026-04-25T13:55:14.037Z</time></trkpt><trkpt lat="45.5063662" lon="13.9521397"><ele>792.1666666666666</ele><time>2026-04-25T13:55:17.031Z</time></trkpt><trkpt lat="45.5064491" lon="13.9520635"><ele>792.3333333333333</ele><time>2026-04-25T13:55:19.033Z</time></trkpt><trkpt lat="45.5065381" lon="13.951982"><ele>792.5</ele><time>2026-04-25T13:55:21.034Z</time></trkpt><trkpt lat="45.5066042" lon="13.9519447"><ele>792.6666666666666</ele><time>2026-04-25T13:55:23.035Z</time></trkpt><trkpt lat="45.5066903" lon="13.9519324"><ele>792.8333333333333</ele><time>2026-04-25T13:55:26.044Z</time></trkpt><trkpt lat="45.5067663" lon="13.9518887"><ele>793.0</ele><time>2026-04-25T13:55:35.041Z</time></trkpt><trkpt lat="45.5068098" lon="13.9517927"><ele>793.1666666666666</ele><time>2026-04-25T13:55:38.042Z</time></trkpt><trkpt lat="45.5067782" lon="13.9516845"><ele>793.3333333333333</ele><time>2026-04-25T13:55:42.041Z</time></trkpt><trkpt lat="45.5067252" lon="13.9516073"><ele>793.5</ele><time>2026-04-25T13:55:45.052Z</time></trkpt><trkpt lat="45.5066538" lon="13.951542"><ele>793.6666666666667</ele><time>2026-04-25T13:55:48.047Z</time></trkpt><trkpt lat="45.5066036" lon="13.951449"><ele>793.8333333333334</ele><time>2026-04-25T13:55:51.052Z</time></trkpt><trkpt lat="45.5065704" lon="13.9513489"><ele>794.0</ele><time>2026-04-25T13:55:53.047Z</time></trkpt><trkpt lat="45.5065409" lon="13.9512598"><ele>794.0000000000001</ele><time>2026-04-25T13:55:55.043Z</time></trkpt><trkpt lat="45.506499" lon="13.9511759"><ele>794.0</ele><time>2026-04-25T13:55:57.042Z</time></trkpt><trkpt lat="45.5064628" lon="13.9510833"><ele>794.0</ele><time>2026-04-25T13:55:59.049Z</time></trkpt><trkpt lat="45.5064319" lon="13.9509881"><ele>794.0</ele><time>2026-04-25T13:56:01.051Z</time></trkpt><trkpt lat="45.5064134" lon="13.9508909"><ele>794.0000000000001</ele><time>2026-04-25T13:56:03.041Z</time></trkpt><trkpt lat="45.5064045" lon="13.9507729"><ele>794.0</ele><time>2026-04-25T13:56:06.049Z</time></trkpt><trkpt lat="45.5063738" lon="13.950639"><ele>792.8333333333334</ele><time>2026-04-25T13:56:09.044Z</time></trkpt><trkpt lat="45.5063129" lon="13.9505505"><ele>791.6666666666667</ele><time>2026-04-25T13:56:11.03Z</time></trkpt><trkpt lat="45.5062577" lon="13.9504532"><ele>790.5</ele><time>2026-04-25T13:56:13.03Z</time></trkpt><trkpt lat="45.5062077" lon="13.9503418"><ele>789.3333333333333</ele><time>2026-04-25T13:56:16.038Z</time></trkpt><trkpt lat="45.5061616" lon="13.9502327"><ele>788.1666666666666</ele><time>2026-04-25T13:56:19.039Z</time></trkpt><trkpt lat="45.5061218" lon="13.9501355"><ele>787.0</ele><time>2026-04-25T13:56:21.03Z</time></trkpt><trkpt lat="45.5060515" lon="13.9500673"><ele>784.4999999999999</ele><time>2026-04-25T13:56:23.026Z</time></trkpt><trkpt lat="45.5060015" lon="13.9499772"><ele>782.0</ele><time>2026-04-25T13:56:26.037Z</time></trkpt><trkpt lat="45.5059421" lon="13.9498804"><ele>779.5</ele><time>2026-04-25T13:56:29.037Z</time></trkpt><trkpt lat="45.50588" lon="13.9497957"><ele>777.0</ele><time>2026-04-25T13:56:32.027Z</time></trkpt><trkpt lat="45.5058171" lon="13.9497306"><ele>774.4999999999999</ele><time>2026-04-25T13:56:35.035Z</time></trkpt><trkpt lat="45.5057717" lon="13.9496533"><ele>772.0</ele><time>2026-04-25T13:56:37.029Z</time></trkpt><trkpt lat="45.5057341" lon="13.949562"><ele>772.0</ele><time>2026-04-25T13:56:40.034Z</time></trkpt><trkpt lat="45.5056766" lon="13.9495027"><ele>772.0</ele><time>2026-04-25T13:56:43.03Z</time></trkpt><trkpt lat="45.5055794" lon="13.9495115"><ele>772.0</ele><time>2026-04-25T13:56:45.03Z</time></trkpt><trkpt lat="45.505462" lon="13.9495421"><ele>772.0</ele><time>2026-04-25T13:56:47.037Z</time></trkpt><trkpt lat="45.5053423" lon="13.9495756"><ele>772.0</ele><time>2026-04-25T13:56:49.044Z</time></trkpt><trkpt lat="45.5052784" lon="13.9495917"><ele>771.5714285714287</ele><time>2026-04-25T13:56:50.035Z</time></trkpt><trkpt lat="45.5052141" lon="13.9496032"><ele>771.1428571428571</ele><time>2026-04-25T13:56:51.037Z</time></trkpt><trkpt lat="45.5051457" lon="13.9496165"><ele>770.7142857142858</ele><time>2026-04-25T13:56:52.047Z</time></trkpt><trkpt lat="45.5050707" lon="13.94963"><ele>770.2857142857143</ele><time>2026-04-25T13:56:53.033Z</time></trkpt><trkpt lat="45.5050024" lon="13.9496445"><ele>769.8571428571429</ele><time>2026-04-25T13:56:54.052Z</time></trkpt><trkpt lat="45.5049357" lon="13.9496679"><ele>769.4285714285714</ele><time>2026-04-25T13:56:55.038Z</time></trkpt><trkpt lat="45.5048683" lon="13.9496824"><ele>769.0</ele><time>2026-04-25T13:56:56.044Z</time></trkpt><trkpt lat="45.5047956" lon="13.9497021"><ele>768.9999999999999</ele><time>2026-04-25T13:56:57.032Z</time></trkpt><trkpt lat="45.5047238" lon="13.9497198"><ele>769.0</ele><time>2026-04-25T13:56:58.048Z</time></trkpt><trkpt lat="45.5046521" lon="13.9497473"><ele>769.0</ele><time>2026-04-25T13:56:59.042Z</time></trkpt><trkpt lat="45.5045787" lon="13.9497743"><ele>769.0</ele><time>2026-04-25T13:57:00.055Z</time></trkpt><trkpt lat="45.5044998" lon="13.9497991"><ele>768.9999999999999</ele><time>2026-04-25T13:57:01.036Z</time></trkpt><trkpt lat="45.5044182" lon="13.9498326"><ele>769.0</ele><time>2026-04-25T13:57:02.04Z</time></trkpt><trkpt lat="45.5043307" lon="13.9498605"><ele>768.1666666666666</ele><time>2026-04-25T13:57:03.034Z</time></trkpt><trkpt lat="45.5042592" lon="13.949888"><ele>767.3333333333333</ele><time>2026-04-25T13:57:04.033Z</time></trkpt><trkpt lat="45.5041944" lon="13.9499255"><ele>766.5</ele><time>2026-04-25T13:57:05.031Z</time></trkpt><trkpt lat="45.5041338" lon="13.949956"><ele>765.6666666666666</ele><time>2026-04-25T13:57:06.035Z</time></trkpt><trkpt lat="45.5040724" lon="13.9499903"><ele>764.8333333333333</ele><time>2026-04-25T13:57:07.04Z</time></trkpt><trkpt lat="45.504011" lon="13.9500268"><ele>764.0</ele><time>2026-04-25T13:57:08.038Z</time></trkpt><trkpt lat="45.5039009" lon="13.950116"><ele>763.6666666666666</ele><time>2026-04-25T13:57:10.033Z</time></trkpt><trkpt lat="45.5037972" lon="13.9502235"><ele>763.3333333333333</ele><time>2026-04-25T13:57:12.038Z</time></trkpt><trkpt lat="45.5037393" lon="13.950305"><ele>763.0</ele><time>2026-04-25T13:57:13.042Z</time></trkpt><trkpt lat="45.5036937" lon="13.9503888"><ele>762.6666666666666</ele><time>2026-04-25T13:57:14.039Z</time></trkpt><trkpt lat="45.5036428" lon="13.9504743"><ele>762.3333333333334</ele><time>2026-04-25T13:57:15.043Z</time></trkpt><trkpt lat="45.5035971" lon="13.950557"><ele>762.0</ele><time>2026-04-25T13:57:16.048Z</time></trkpt><trkpt lat="45.5035515" lon="13.9506321"><ele>762.0</ele><time>2026-04-25T13:57:17.03Z</time></trkpt><trkpt lat="45.5035037" lon="13.9507003"><ele>762.0</ele><time>2026-04-25T13:57:18.046Z</time></trkpt><trkpt lat="45.5034569" lon="13.9507685"><ele>762.0</ele><time>2026-04-25T13:57:19.041Z</time></trkpt><trkpt lat="45.5033658" lon="13.950904"><ele>762.0</ele><time>2026-04-25T13:57:21.043Z</time></trkpt><trkpt lat="45.5033151" lon="13.9509755"><ele>762.0</ele><time>2026-04-25T13:57:22.05Z</time></trkpt><trkpt lat="45.5032594" lon="13.9510459"><ele>762.0</ele><time>2026-04-25T13:57:23.04Z</time></trkpt><trkpt lat="45.5032042" lon="13.9511172"><ele>763.0</ele><time>2026-04-25T13:57:24.043Z</time></trkpt><trkpt lat="45.5031511" lon="13.9511913"><ele>764.0</ele><time>2026-04-25T13:57:25.049Z</time></trkpt><trkpt lat="45.5031023" lon="13.951265"><ele>765.0</ele><time>2026-04-25T13:57:26.044Z</time></trkpt><trkpt lat="45.5030592" lon="13.9513332"><ele>766.0</ele><time>2026-04-25T13:57:27.043Z</time></trkpt><trkpt lat="45.5030033" lon="13.9514698"><ele>767.0</ele><time>2026-04-25T13:57:29.028Z</time></trkpt><trkpt lat="45.5029563" lon="13.9515681"><ele>768.0</ele><time>2026-04-25T13:57:31.031Z</time></trkpt><trkpt lat="45.5028914" lon="13.9515639"><ele>765.5</ele><time>2026-04-25T13:57:35.024Z</time></trkpt><trkpt lat="45.5028768" lon="13.9514544"><ele>763.0</ele><time>2026-04-25T13:57:37.023Z</time></trkpt><trkpt lat="45.5028556" lon="13.951336"><ele>760.5</ele><time>2026-04-25T13:57:38.024Z</time></trkpt><trkpt lat="45.5028312" lon="13.9512354"><ele>758.0</ele><time>2026-04-25T13:57:39.032Z</time></trkpt><trkpt lat="45.5028159" lon="13.9511241"><ele>755.5</ele><time>2026-04-25T13:57:40.035Z</time></trkpt><trkpt lat="45.5027988" lon="13.9510214"><ele>753.0</ele><time>2026-04-25T13:57:41.032Z</time></trkpt><trkpt lat="45.5027833" lon="13.9508994"><ele>751.5999999999999</ele><time>2026-04-25T13:57:42.039Z</time></trkpt><trkpt lat="45.5027668" lon="13.9507753"><ele>750.1999999999999</ele><time>2026-04-25T13:57:43.043Z</time></trkpt><trkpt lat="45.5027596" lon="13.9506439"><ele>748.8</ele><time>2026-04-25T13:57:44.037Z</time></trkpt><trkpt lat="45.5027516" lon="13.9505137"><ele>747.4</ele><time>2026-04-25T13:57:45.045Z</time></trkpt><trkpt lat="45.5027509" lon="13.9503758"><ele>746.0</ele><time>2026-04-25T13:57:46.047Z</time></trkpt><trkpt lat="45.5027627" lon="13.9502411"><ele>746.0</ele><time>2026-04-25T13:57:47.041Z</time></trkpt><trkpt lat="45.5027776" lon="13.9500963"><ele>746.0</ele><time>2026-04-25T13:57:48.033Z</time></trkpt><trkpt lat="45.5027944" lon="13.949943"><ele>746.0</ele><time>2026-04-25T13:57:49.048Z</time></trkpt><trkpt lat="45.502804" lon="13.949797"><ele>746.0</ele><time>2026-04-25T13:57:50.044Z</time></trkpt><trkpt lat="45.5028113" lon="13.9496644"><ele>746.0</ele><time>2026-04-25T13:57:51.044Z</time></trkpt><trkpt lat="45.5028173" lon="13.9495399"><ele>744.0</ele><time>2026-04-25T13:57:52.043Z</time></trkpt><trkpt lat="45.5028243" lon="13.9494042"><ele>742.0</ele><time>2026-04-25T13:57:53.04Z</time></trkpt><trkpt lat="45.5028336" lon="13.9492668"><ele>740.0</ele><time>2026-04-25T13:57:54.048Z</time></trkpt><trkpt lat="45.502838" lon="13.9491275"><ele>738.0</ele><time>2026-04-25T13:57:55.049Z</time></trkpt><trkpt lat="45.5028476" lon="13.948998"><ele>736.0</ele><time>2026-04-25T13:57:56.042Z</time></trkpt><trkpt lat="45.5028538" lon="13.948867"><ele>733.8</ele><time>2026-04-25T13:57:57.047Z</time></trkpt><trkpt lat="45.502861" lon="13.9487266"><ele>731.5999999999999</ele><time>2026-04-25T13:57:58.036Z</time></trkpt><trkpt lat="45.5028716" lon="13.9485782"><ele>729.4</ele><time>2026-04-25T13:57:59.046Z</time></trkpt><trkpt lat="45.5028807" lon="13.9484339"><ele>727.2</ele><time>2026-04-25T13:58:00.039Z</time></trkpt><trkpt lat="45.5028928" lon="13.9482978"><ele>725.0</ele><time>2026-04-25T13:58:01.038Z</time></trkpt><trkpt lat="45.5029034" lon="13.9481622"><ele>723.8</ele><time>2026-04-25T13:58:02.035Z</time></trkpt><trkpt lat="45.5029189" lon="13.9480227"><ele>722.6</ele><time>2026-04-25T13:58:03.037Z</time></trkpt><trkpt lat="45.5029379" lon="13.9478725"><ele>721.4000000000001</ele><time>2026-04-25T13:58:04.042Z</time></trkpt><trkpt lat="45.5029596" lon="13.9477159"><ele>720.2</ele><time>2026-04-25T13:58:05.042Z</time></trkpt><trkpt lat="45.5029856" lon="13.947563"><ele>719.0</ele><time>2026-04-25T13:58:06.038Z</time></trkpt><trkpt lat="45.5030105" lon="13.9474217"><ele>719.0</ele><time>2026-04-25T13:58:07.045Z</time></trkpt><trkpt lat="45.5030405" lon="13.9472892"><ele>719.0</ele><time>2026-04-25T13:58:08.044Z</time></trkpt><trkpt lat="45.5030772" lon="13.9471577"><ele>719.0</ele><time>2026-04-25T13:58:09.042Z</time></trkpt><trkpt lat="45.5031133" lon="13.9470182"><ele>719.0</ele><time>2026-04-25T13:58:10.041Z</time></trkpt><trkpt lat="45.5031498" lon="13.9468869"><ele>719.0</ele><time>2026-04-25T13:58:11.035Z</time></trkpt><trkpt lat="45.5031726" lon="13.9467949"><ele>717.1666666666666</ele><time>2026-04-25T13:58:12.042Z</time></trkpt><trkpt lat="45.5031877" lon="13.9466778"><ele>715.3333333333333</ele><time>2026-04-25T13:58:14.034Z</time></trkpt><trkpt lat="45.5031356" lon="13.9466206"><ele>713.5</ele><time>2026-04-25T13:58:16.03Z</time></trkpt><trkpt lat="45.5030765" lon="13.9465663"><ele>711.6666666666666</ele><time>2026-04-25T13:58:18.032Z</time></trkpt><trkpt lat="45.5029996" lon="13.946478"><ele>709.8333333333334</ele><time>2026-04-25T13:58:20.041Z</time></trkpt><trkpt lat="45.5029172" lon="13.9463778"><ele>708.0</ele><time>2026-04-25T13:58:22.044Z</time></trkpt><trkpt lat="45.5028442" lon="13.9462771"><ele>707.0</ele><time>2026-04-25T13:58:23.036Z</time></trkpt><trkpt lat="45.5027821" lon="13.9462065"><ele>706.0</ele><time>2026-04-25T13:58:24.046Z</time></trkpt><trkpt lat="45.5027166" lon="13.9461442"><ele>705.0</ele><time>2026-04-25T13:58:25.042Z</time></trkpt><trkpt lat="45.5026517" lon="13.9460833"><ele>704.0</ele><time>2026-04-25T13:58:26.042Z</time></trkpt><trkpt lat="45.5025846" lon="13.946019"><ele>703.0</ele><time>2026-04-25T13:58:27.033Z</time></trkpt><trkpt lat="45.5025127" lon="13.9459626"><ele>702.0</ele><time>2026-04-25T13:58:28.044Z</time></trkpt><trkpt lat="45.5024401" lon="13.9459022"><ele>700.7142857142858</ele><time>2026-04-25T13:58:29.041Z</time></trkpt><trkpt lat="45.5023656" lon="13.9458583"><ele>699.4285714285714</ele><time>2026-04-25T13:58:30.045Z</time></trkpt><trkpt lat="45.5022902" lon="13.9458232"><ele>698.1428571428571</ele><time>2026-04-25T13:58:31.037Z</time></trkpt><trkpt lat="45.5022148" lon="13.9457931"><ele>696.8571428571429</ele><time>2026-04-25T13:58:32.035Z</time></trkpt><trkpt lat="45.5021431" lon="13.9457626"><ele>695.5714285714286</ele><time>2026-04-25T13:58:33.029Z</time></trkpt><trkpt lat="45.5020806" lon="13.945736"><ele>694.2857142857143</ele><time>2026-04-25T13:58:34.033Z</time></trkpt><trkpt lat="45.5020191" lon="13.9457102"><ele>693.0</ele><time>2026-04-25T13:58:35.038Z</time></trkpt><trkpt lat="45.5019546" lon="13.9456857"><ele>691.1666666666666</ele><time>2026-04-25T13:58:36.039Z</time></trkpt><trkpt lat="45.5018993" lon="13.945639"><ele>689.3333333333334</ele><time>2026-04-25T13:58:37.032Z</time></trkpt><trkpt lat="45.5018263" lon="13.9455481"><ele>687.5</ele><time>2026-04-25T13:58:39.029Z</time></trkpt><trkpt lat="45.5017916" lon="13.9454669"><ele>685.6666666666667</ele><time>2026-04-25T13:58:41.024Z</time></trkpt><trkpt lat="45.5018074" lon="13.9453145"><ele>683.8333333333334</ele><time>2026-04-25T13:58:43.031Z</time></trkpt><trkpt lat="45.5018449" lon="13.945196"><ele>682.0</ele><time>2026-04-25T13:58:44.031Z</time></trkpt><trkpt lat="45.5018797" lon="13.9450845"><ele>682.3333333333334</ele><time>2026-04-25T13:58:45.027Z</time></trkpt><trkpt lat="45.5019124" lon="13.9449793"><ele>682.6666666666667</ele><time>2026-04-25T13:58:46.043Z</time></trkpt><trkpt lat="45.5019497" lon="13.9448788"><ele>683.0</ele><time>2026-04-25T13:58:47.039Z</time></trkpt><trkpt lat="45.5019886" lon="13.9447942"><ele>683.3333333333334</ele><time>2026-04-25T13:58:48.04Z</time></trkpt><trkpt lat="45.5020418" lon="13.9447165"><ele>683.6666666666666</ele><time>2026-04-25T13:58:49.045Z</time></trkpt><trkpt lat="45.5020956" lon="13.9446489"><ele>684.0</ele><time>2026-04-25T13:58:50.043Z</time></trkpt><trkpt lat="45.5021551" lon="13.9445823"><ele>684.0</ele><time>2026-04-25T13:58:51.045Z</time></trkpt><trkpt lat="45.5022406" lon="13.9445099"><ele>684.0</ele><time>2026-04-25T13:58:52.041Z</time></trkpt><trkpt lat="45.5023197" lon="13.9444452"><ele>684.0</ele><time>2026-04-25T13:58:53.035Z</time></trkpt><trkpt lat="45.502401" lon="13.944395"><ele>684.0</ele><time>2026-04-25T13:58:54.045Z</time></trkpt><trkpt lat="45.5024883" lon="13.9443429"><ele>684.0</ele><time>2026-04-25T13:58:55.041Z</time></trkpt><trkpt lat="45.5025653" lon="13.9442908"><ele>684.0</ele><time>2026-04-25T13:58:56.044Z</time></trkpt><trkpt lat="45.5026484" lon="13.9442358"><ele>684.0</ele><time>2026-04-25T13:58:57.043Z</time></trkpt><trkpt lat="45.5027435" lon="13.9441832"><ele>684.0</ele><time>2026-04-25T13:58:58.042Z</time></trkpt><trkpt lat="45.5028346" lon="13.9441184"><ele>684.0</ele><time>2026-04-25T13:58:59.058Z</time></trkpt><trkpt lat="45.5029362" lon="13.944047"><ele>684.0</ele><time>2026-04-25T13:59:00.042Z</time></trkpt><trkpt lat="45.5030402" lon="13.9439921"><ele>679.2</ele><time>2026-04-25T13:59:01.044Z</time></trkpt><trkpt lat="45.5031405" lon="13.943954"><ele>674.4000000000001</ele><time>2026-04-25T13:59:02.044Z</time></trkpt><trkpt lat="45.503239" lon="13.9439092"><ele>669.6</ele><time>2026-04-25T13:59:03.038Z</time></trkpt><trkpt lat="45.5033325" lon="13.9438621"><ele>664.8</ele><time>2026-04-25T13:59:04.044Z</time></trkpt><trkpt lat="45.5034197" lon="13.943806"><ele>660.0</ele><time>2026-04-25T13:59:05.031Z</time></trkpt><trkpt lat="45.5035076" lon="13.9437364"><ele>660.0</ele><time>2026-04-25T13:59:06.047Z</time></trkpt><trkpt lat="45.5035989" lon="13.9436624"><ele>660.0</ele><time>2026-04-25T13:59:07.045Z</time></trkpt><trkpt lat="45.5036879" lon="13.9436131"><ele>660.0</ele><time>2026-04-25T13:59:08.044Z</time></trkpt><trkpt lat="45.5037771" lon="13.9435698"><ele>660.0</ele><time>2026-04-25T13:59:09.037Z</time></trkpt><trkpt lat="45.5038717" lon="13.9435297"><ele>660.0</ele><time>2026-04-25T13:59:10.052Z</time></trkpt><trkpt lat="45.5039854" lon="13.9434846"><ele>659.8</ele><time>2026-04-25T13:59:11.047Z</time></trkpt><trkpt lat="45.5040854" lon="13.9434238"><ele>659.6</ele><time>2026-04-25T13:59:12.037Z</time></trkpt><trkpt lat="45.5041751" lon="13.9433953"><ele>659.4000000000001</ele><time>2026-04-25T13:59:13.054Z</time></trkpt><trkpt lat="45.5042695" lon="13.9433944"><ele>659.2</ele><time>2026-04-25T13:59:14.039Z</time></trkpt><trkpt lat="45.5043611" lon="13.9434081"><ele>659.0</ele><time>2026-04-25T13:59:15.027Z</time></trkpt><trkpt lat="45.5044557" lon="13.9434189"><ele>659.0</ele><time>2026-04-25T13:59:16.037Z</time></trkpt><trkpt lat="45.5045411" lon="13.9433872"><ele>659.0</ele><time>2026-04-25T13:59:17.032Z</time></trkpt><trkpt lat="45.5046268" lon="13.9433263"><ele>659.0</ele><time>2026-04-25T13:59:18.043Z</time></trkpt><trkpt lat="45.5047064" lon="13.9432678"><ele>659.0</ele><time>2026-04-25T13:59:19.026Z</time></trkpt><trkpt lat="45.5047691" lon="13.9432211"><ele>659.0</ele><time>2026-04-25T13:59:20.038Z</time></trkpt><trkpt lat="45.5048676" lon="13.943153"><ele>656.4000000000001</ele><time>2026-04-25T13:59:22.036Z</time></trkpt><trkpt lat="45.5049529" lon="13.9431106"><ele>653.8</ele><time>2026-04-25T13:59:24.034Z</time></trkpt><trkpt lat="45.5050268" lon="13.9430812"><ele>651.2</ele><time>2026-04-25T13:59:26.032Z</time></trkpt><trkpt lat="45.505113" lon="13.943048"><ele>648.5999999999999</ele><time>2026-04-25T13:59:28.035Z</time></trkpt><trkpt lat="45.5051878" lon="13.9429993"><ele>646.0</ele><time>2026-04-25T13:59:30.034Z</time></trkpt><trkpt lat="45.5052977" lon="13.9428956"><ele>646.0</ele><time>2026-04-25T13:59:32.036Z</time></trkpt><trkpt lat="45.5054104" lon="13.9428073"><ele>646.0</ele><time>2026-04-25T13:59:34.037Z</time></trkpt><trkpt lat="45.5054658" lon="13.9427544"><ele>646.0</ele><time>2026-04-25T13:59:35.034Z</time></trkpt><trkpt lat="45.5055257" lon="13.9426947"><ele>646.0</ele><time>2026-04-25T13:59:36.037Z</time></trkpt><trkpt lat="45.5055865" lon="13.9426268"><ele>646.0</ele><time>2026-04-25T13:59:37.036Z</time></trkpt><trkpt lat="45.5056474" lon="13.9425503"><ele>646.0</ele><time>2026-04-25T13:59:38.045Z</time></trkpt><trkpt lat="45.5057093" lon="13.9424725"><ele>645.3333333333334</ele><time>2026-04-25T13:59:39.036Z</time></trkpt><trkpt lat="45.5057869" lon="13.9424048"><ele>644.6666666666667</ele><time>2026-04-25T13:59:40.04Z</time></trkpt><trkpt lat="45.505867" lon="13.9423407"><ele>644.0</ele><time>2026-04-25T13:59:41.036Z</time></trkpt><trkpt lat="45.5059461" lon="13.9422935"><ele>643.3333333333334</ele><time>2026-04-25T13:59:42.044Z</time></trkpt><trkpt lat="45.5060218" lon="13.942255"><ele>642.6666666666666</ele><time>2026-04-25T13:59:43.043Z</time></trkpt><trkpt lat="45.5060921" lon="13.9421981"><ele>642.0</ele><time>2026-04-25T13:59:44.036Z</time></trkpt><trkpt lat="45.5061494" lon="13.9421221"><ele>642.0</ele><time>2026-04-25T13:59:45.037Z</time></trkpt><trkpt lat="45.5061873" lon="13.942017"><ele>642.0</ele><time>2026-04-25T13:59:46.042Z</time></trkpt><trkpt lat="45.5062135" lon="13.9418794"><ele>642.0</ele><time>2026-04-25T13:59:47.043Z</time></trkpt><trkpt lat="45.5062357" lon="13.9417423"><ele>642.0</ele><time>2026-04-25T13:59:48.042Z</time></trkpt><trkpt lat="45.5062602" lon="13.9416223"><ele>642.0</ele><time>2026-04-25T13:59:49.036Z</time></trkpt><trkpt lat="45.5062953" lon="13.9415122"><ele>640.1666666666666</ele><time>2026-04-25T13:59:50.058Z</time></trkpt><trkpt lat="45.5063359" lon="13.9414258"><ele>638.3333333333334</ele><time>2026-04-25T13:59:51.037Z</time></trkpt><trkpt lat="45.5064019" lon="13.9413512"><ele>636.5</ele><time>2026-04-25T13:59:52.043Z</time></trkpt><trkpt lat="45.5064711" lon="13.9412816"><ele>634.6666666666667</ele><time>2026-04-25T13:59:53.036Z</time></trkpt><trkpt lat="45.5065351" lon="13.9412145"><ele>632.8333333333334</ele><time>2026-04-25T13:59:54.033Z</time></trkpt><trkpt lat="45.5065962" lon="13.9411199"><ele>631.0</ele><time>2026-04-25T13:59:55.046Z</time></trkpt><trkpt lat="45.5066499" lon="13.9410241"><ele>631.0</ele><time>2026-04-25T13:59:56.047Z</time></trkpt><trkpt lat="45.5066906" lon="13.9409053"><ele>631.0</ele><time>2026-04-25T13:59:57.042Z</time></trkpt><trkpt lat="45.506717" lon="13.9407973"><ele>631.0</ele><time>2026-04-25T13:59:58.057Z</time></trkpt><trkpt lat="45.5067395" lon="13.9406944"><ele>631.0</ele><time>2026-04-25T13:59:59.04Z</time></trkpt><trkpt lat="45.506779" lon="13.9406016"><ele>631.0</ele><time>2026-04-25T14:00:00.052Z</time></trkpt><trkpt lat="45.50685" lon="13.9405272"><ele>631.0</ele><time>2026-04-25T14:00:01.035Z</time></trkpt><trkpt lat="45.5069305" lon="13.9404757"><ele>630.2</ele><time>2026-04-25T14:00:02.032Z</time></trkpt><trkpt lat="45.5070205" lon="13.9404193"><ele>629.4000000000001</ele><time>2026-04-25T14:00:03.039Z</time></trkpt><trkpt lat="45.5071148" lon="13.9403609"><ele>628.6</ele><time>2026-04-25T14:00:04.045Z</time></trkpt><trkpt lat="45.5072104" lon="13.9402739"><ele>627.8000000000001</ele><time>2026-04-25T14:00:05.038Z</time></trkpt><trkpt lat="45.5073058" lon="13.9401791"><ele>627.0</ele><time>2026-04-25T14:00:06.044Z</time></trkpt><trkpt lat="45.5073979" lon="13.9401"><ele>624.6</ele><time>2026-04-25T14:00:07.031Z</time></trkpt><trkpt lat="45.5074857" lon="13.9400266"><ele>622.2</ele><time>2026-04-25T14:00:08.032Z</time></trkpt><trkpt lat="45.5075748" lon="13.9399746"><ele>619.8</ele><time>2026-04-25T14:00:09.035Z</time></trkpt><trkpt lat="45.507664" lon="13.9399358"><ele>617.4</ele><time>2026-04-25T14:00:10.024Z</time></trkpt><trkpt lat="45.5077535" lon="13.9399064"><ele>615.0</ele><time>2026-04-25T14:00:11.028Z</time></trkpt><trkpt lat="45.5078447" lon="13.9398725"><ele>613.0</ele><time>2026-04-25T14:00:12.032Z</time></trkpt><trkpt lat="45.5079329" lon="13.939833"><ele>611.0</ele><time>2026-04-25T14:00:13.034Z</time></trkpt><trkpt lat="45.5080193" lon="13.9397756"><ele>609.0</ele><time>2026-04-25T14:00:14.036Z</time></trkpt><trkpt lat="45.5081025" lon="13.939704"><ele>607.0</ele><time>2026-04-25T14:00:15.04Z</time></trkpt><trkpt lat="45.5081868" lon="13.9396282"><ele>605.0</ele><time>2026-04-25T14:00:16.026Z</time></trkpt><trkpt lat="45.5082773" lon="13.9395676"><ele>605.0</ele><time>2026-04-25T14:00:17.033Z</time></trkpt><trkpt lat="45.5083784" lon="13.9395235"><ele>605.0</ele><time>2026-04-25T14:00:18.032Z</time></trkpt><trkpt lat="45.5084819" lon="13.9394948"><ele>605.0</ele><time>2026-04-25T14:00:19.025Z</time></trkpt><trkpt lat="45.508592" lon="13.939477"><ele>605.0</ele><time>2026-04-25T14:00:20.029Z</time></trkpt><trkpt lat="45.5087032" lon="13.9394619"><ele>605.0</ele><time>2026-04-25T14:00:21.027Z</time></trkpt><trkpt lat="45.5088162" lon="13.9394438"><ele>603.0</ele><time>2026-04-25T14:00:22.035Z</time></trkpt><trkpt lat="45.5089283" lon="13.9394314"><ele>601.0</ele><time>2026-04-25T14:00:23.02Z</time></trkpt><trkpt lat="45.5090405" lon="13.9394101"><ele>599.0</ele><time>2026-04-25T14:00:24.031Z</time></trkpt><trkpt lat="45.5091589" lon="13.9393692"><ele>597.0</ele><time>2026-04-25T14:00:25.03Z</time></trkpt><trkpt lat="45.5092775" lon="13.9393258"><ele>597.0</ele><time>2026-04-25T14:00:26.026Z</time></trkpt><trkpt lat="45.5093847" lon="13.9392766"><ele>597.0</ele><time>2026-04-25T14:00:27.028Z</time></trkpt><trkpt lat="45.5094852" lon="13.9392203"><ele>597.0</ele><time>2026-04-25T14:00:28.022Z</time></trkpt><trkpt lat="45.5095852" lon="13.9391521"><ele>597.0</ele><time>2026-04-25T14:00:29.029Z</time></trkpt><trkpt lat="45.5096856" lon="13.9390886"><ele>597.0</ele><time>2026-04-25T14:00:30.026Z</time></trkpt><trkpt lat="45.50979" lon="13.9390244"><ele>595.75</ele><time>2026-04-25T14:00:31.032Z</time></trkpt><trkpt lat="45.5098941" lon="13.9389699"><ele>594.5</ele><time>2026-04-25T14:00:32.033Z</time></trkpt><trkpt lat="45.5100034" lon="13.938923"><ele>593.25</ele><time>2026-04-25T14:00:33.037Z</time></trkpt><trkpt lat="45.5101149" lon="13.9388728"><ele>592.0</ele><time>2026-04-25T14:00:34.025Z</time></trkpt><trkpt lat="45.5102178" lon="13.9388208"><ele>592.0</ele><time>2026-04-25T14:00:35.029Z</time></trkpt><trkpt lat="45.5103202" lon="13.9387572"><ele>592.0</ele><time>2026-04-25T14:00:36.024Z</time></trkpt><trkpt lat="45.5104225" lon="13.9386852"><ele>592.0</ele><time>2026-04-25T14:00:37.036Z</time></trkpt><trkpt lat="45.510517" lon="13.9386117"><ele>592.0</ele><time>2026-04-25T14:00:38.026Z</time></trkpt><trkpt lat="45.510608" lon="13.9385365"><ele>592.0</ele><time>2026-04-25T14:00:39.038Z</time></trkpt><trkpt lat="45.5106976" lon="13.938465"><ele>591.0</ele><time>2026-04-25T14:00:40.031Z</time></trkpt><trkpt lat="45.510784" lon="13.9383908"><ele>590.0</ele><time>2026-04-25T14:00:41.024Z</time></trkpt><trkpt lat="45.5108671" lon="13.9383174"><ele>589.0</ele><time>2026-04-25T14:00:42.036Z</time></trkpt><trkpt lat="45.5109522" lon="13.9382469"><ele>588.0</ele><time>2026-04-25T14:00:43.032Z</time></trkpt><trkpt lat="45.5110439" lon="13.9381795"><ele>587.0</ele><time>2026-04-25T14:00:44.03Z</time></trkpt><trkpt lat="45.5111402" lon="13.9381167"><ele>587.0</ele><time>2026-04-25T14:00:45.025Z</time></trkpt><trkpt lat="45.5112386" lon="13.9380584"><ele>587.0</ele><time>2026-04-25T14:00:46.027Z</time></trkpt><trkpt lat="45.5113359" lon="13.9380043"><ele>587.0</ele><time>2026-04-25T14:00:47.029Z</time></trkpt><trkpt lat="45.5114286" lon="13.9379518"><ele>587.0</ele><time>2026-04-25T14:00:48.029Z</time></trkpt><trkpt lat="45.5115191" lon="13.9378996"><ele>587.0</ele><time>2026-04-25T14:00:49.034Z</time></trkpt><trkpt lat="45.5116076" lon="13.9378541"><ele>584.6</ele><time>2026-04-25T14:00:50.035Z</time></trkpt><trkpt lat="45.5116999" lon="13.9378049"><ele>582.2</ele><time>2026-04-25T14:00:51.031Z</time></trkpt><trkpt lat="45.5117948" lon="13.9377509"><ele>579.8</ele><time>2026-04-25T14:00:52.042Z</time></trkpt><trkpt lat="45.5118895" lon="13.9376924"><ele>577.4</ele><time>2026-04-25T14:00:53.027Z</time></trkpt><trkpt lat="45.5119889" lon="13.9376272"><ele>575.0</ele><time>2026-04-25T14:00:54.035Z</time></trkpt><trkpt lat="45.512093" lon="13.937549"><ele>573.25</ele><time>2026-04-25T14:00:55.034Z</time></trkpt><trkpt lat="45.512196" lon="13.9374724"><ele>571.5</ele><time>2026-04-25T14:00:56.033Z</time></trkpt><trkpt lat="45.5122955" lon="13.9373943"><ele>569.75</ele><time>2026-04-25T14:00:57.02Z</time></trkpt><trkpt lat="45.5123973" lon="13.9373078"><ele>568.0</ele><time>2026-04-25T14:00:58.023Z</time></trkpt><trkpt lat="45.5124971" lon="13.9372329"><ele>568.0</ele><time>2026-04-25T14:00:59.026Z</time></trkpt><trkpt lat="45.512601" lon="13.9371547"><ele>568.0</ele><time>2026-04-25T14:01:00.029Z</time></trkpt><trkpt lat="45.5127034" lon="13.9370828"><ele>568.0</ele><time>2026-04-25T14:01:01.033Z</time></trkpt><trkpt lat="45.5128058" lon="13.9370049"><ele>568.0</ele><time>2026-04-25T14:01:02.033Z</time></trkpt><trkpt lat="45.5129132" lon="13.9369134"><ele>566.25</ele><time>2026-04-25T14:01:03.03Z</time></trkpt><trkpt lat="45.5130167" lon="13.9368083"><ele>564.5</ele><time>2026-04-25T14:01:04.029Z</time></trkpt><trkpt lat="45.5131127" lon="13.9367026"><ele>562.75</ele><time>2026-04-25T14:01:05.025Z</time></trkpt><trkpt lat="45.5132104" lon="13.9365812"><ele>561.0</ele><time>2026-04-25T14:01:06.052Z</time></trkpt><trkpt lat="45.5133099" lon="13.9364643"><ele>561.0</ele><time>2026-04-25T14:01:07.03Z</time></trkpt><trkpt lat="45.5134085" lon="13.9363646"><ele>561.0</ele><time>2026-04-25T14:01:08.039Z</time></trkpt><trkpt lat="45.5135113" lon="13.936267"><ele>561.0</ele><time>2026-04-25T14:01:09.037Z</time></trkpt><trkpt lat="45.5136118" lon="13.9361796"><ele>561.0</ele><time>2026-04-25T14:01:10.028Z</time></trkpt><trkpt lat="45.5137111" lon="13.9360995"><ele>559.2</ele><time>2026-04-25T14:01:11.03Z</time></trkpt><trkpt lat="45.5138073" lon="13.9360312"><ele>557.4000000000001</ele><time>2026-04-25T14:01:12.029Z</time></trkpt><trkpt lat="45.5138987" lon="13.9359592"><ele>555.6</ele><time>2026-04-25T14:01:13.035Z</time></trkpt><trkpt lat="45.5139907" lon="13.9358781"><ele>553.8000000000001</ele><time>2026-04-25T14:01:14.028Z</time></trkpt><trkpt lat="45.5140819" lon="13.9357811"><ele>552.0</ele><time>2026-04-25T14:01:15.023Z</time></trkpt><trkpt lat="45.5141782" lon="13.9356654"><ele>552.0</ele><time>2026-04-25T14:01:16.028Z</time></trkpt><trkpt lat="45.5142759" lon="13.9355286"><ele>552.0</ele><time>2026-04-25T14:01:17.024Z</time></trkpt><trkpt lat="45.5143649" lon="13.9353956"><ele>552.0</ele><time>2026-04-25T14:01:18.037Z</time></trkpt><trkpt lat="45.514451" lon="13.9352609"><ele>552.0</ele><time>2026-04-25T14:01:19.024Z</time></trkpt><trkpt lat="45.5145302" lon="13.9351264"><ele>549.0</ele><time>2026-04-25T14:01:20.025Z</time></trkpt><trkpt lat="45.5146082" lon="13.9350036"><ele>546.0</ele><time>2026-04-25T14:01:21.02Z</time></trkpt><trkpt lat="45.5146934" lon="13.9348874"><ele>543.0</ele><time>2026-04-25T14:01:22.019Z</time></trkpt><trkpt lat="45.5147822" lon="13.9347719"><ele>540.0</ele><time>2026-04-25T14:01:23.033Z</time></trkpt><trkpt lat="45.5148641" lon="13.9346596"><ele>540.0</ele><time>2026-04-25T14:01:24.027Z</time></trkpt><trkpt lat="45.5149344" lon="13.9345394"><ele>540.0</ele><time>2026-04-25T14:01:25.021Z</time></trkpt><trkpt lat="45.5149884" lon="13.9344113"><ele>540.0</ele><time>2026-04-25T14:01:26.034Z</time></trkpt><trkpt lat="45.515024" lon="13.9342867"><ele>540.0</ele><time>2026-04-25T14:01:27.026Z</time></trkpt><trkpt lat="45.5150538" lon="13.9341499"><ele>540.0</ele><time>2026-04-25T14:01:28.031Z</time></trkpt><trkpt lat="45.5150805" lon="13.9340035"><ele>540.6</ele><time>2026-04-25T14:01:29.027Z</time></trkpt><trkpt lat="45.5151012" lon="13.9338579"><ele>541.2</ele><time>2026-04-25T14:01:30.022Z</time></trkpt><trkpt lat="45.5151088" lon="13.9337231"><ele>541.8</ele><time>2026-04-25T14:01:31.028Z</time></trkpt><trkpt lat="45.5151047" lon="13.933604"><ele>542.4</ele><time>2026-04-25T14:01:32.025Z</time></trkpt><trkpt lat="45.5150795" lon="13.9334976"><ele>543.0</ele><time>2026-04-25T14:01:33.033Z</time></trkpt><trkpt lat="45.5150278" lon="13.9333795"><ele>543.0</ele><time>2026-04-25T14:01:34.029Z</time></trkpt><trkpt lat="45.5149688" lon="13.9332671"><ele>543.0</ele><time>2026-04-25T14:01:35.036Z</time></trkpt><trkpt lat="45.5149092" lon="13.9332111"><ele>543.0</ele><time>2026-04-25T14:01:36.026Z</time></trkpt><trkpt lat="45.5147755" lon="13.9331751"><ele>543.0</ele><time>2026-04-25T14:01:38.025Z</time></trkpt><trkpt lat="45.5146801" lon="13.9331638"><ele>543.0</ele><time>2026-04-25T14:01:39.027Z</time></trkpt><trkpt lat="45.5145853" lon="13.9331548"><ele>546.1999999999999</ele><time>2026-04-25T14:01:40.024Z</time></trkpt><trkpt lat="45.5144904" lon="13.9331495"><ele>549.4</ele><time>2026-04-25T14:01:41.029Z</time></trkpt><trkpt lat="45.5144017" lon="13.9331438"><ele>552.5999999999999</ele><time>2026-04-25T14:01:42.053Z</time></trkpt><trkpt lat="45.5143182" lon="13.9331055"><ele>555.8</ele><time>2026-04-25T14:01:43.017Z</time></trkpt><trkpt lat="45.514234" lon="13.9330408"><ele>559.0</ele><time>2026-04-25T14:01:44.029Z</time></trkpt><trkpt lat="45.5141593" lon="13.9329512"><ele>559.0</ele><time>2026-04-25T14:01:45.027Z</time></trkpt><trkpt lat="45.5140898" lon="13.9328434"><ele>559.0</ele><time>2026-04-25T14:01:46.029Z</time></trkpt><trkpt lat="45.5140405" lon="13.9327387"><ele>559.0</ele><time>2026-04-25T14:01:47.044Z</time></trkpt><trkpt lat="45.5139983" lon="13.9326202"><ele>559.0</ele><time>2026-04-25T14:01:48.025Z</time></trkpt><trkpt lat="45.5139679" lon="13.9324906"><ele>559.0</ele><time>2026-04-25T14:01:49.031Z</time></trkpt><trkpt lat="45.5139597" lon="13.9323428"><ele>556.6</ele><time>2026-04-25T14:01:50.034Z</time></trkpt><trkpt lat="45.5139708" lon="13.9321907"><ele>554.2</ele><time>2026-04-25T14:01:51.017Z</time></trkpt><trkpt lat="45.5139931" lon="13.9320452"><ele>551.8000000000001</ele><time>2026-04-25T14:01:52.024Z</time></trkpt><trkpt lat="45.5140294" lon="13.9319121"><ele>549.4</ele><time>2026-04-25T14:01:53.025Z</time></trkpt><trkpt lat="45.5140773" lon="13.9317828"><ele>547.0</ele><time>2026-04-25T14:01:54.023Z</time></trkpt><trkpt lat="45.5141332" lon="13.9316424"><ele>546.75</ele><time>2026-04-25T14:01:55.03Z</time></trkpt><trkpt lat="45.5141788" lon="13.9315031"><ele>546.5</ele><time>2026-04-25T14:01:56.03Z</time></trkpt><trkpt lat="45.5142182" lon="13.9313572"><ele>546.25</ele><time>2026-04-25T14:01:57.032Z</time></trkpt><trkpt lat="45.5142641" lon="13.9311915"><ele>546.0</ele><time>2026-04-25T14:01:58.035Z</time></trkpt><trkpt lat="45.5143251" lon="13.9310288"><ele>547.75</ele><time>2026-04-25T14:01:59.031Z</time></trkpt><trkpt lat="45.5143966" lon="13.9308848"><ele>549.5</ele><time>2026-04-25T14:02:00.031Z</time></trkpt><trkpt lat="45.5144669" lon="13.9307506"><ele>551.25</ele><time>2026-04-25T14:02:01.033Z</time></trkpt><trkpt lat="45.5145368" lon="13.9306081"><ele>553.0</ele><time>2026-04-25T14:02:02.032Z</time></trkpt><trkpt lat="45.5146033" lon="13.930455"><ele>551.0</ele><time>2026-04-25T14:02:03.028Z</time></trkpt><trkpt lat="45.5146684" lon="13.9303008"><ele>549.0</ele><time>2026-04-25T14:02:04.028Z</time></trkpt><trkpt lat="45.5147329" lon="13.9301467"><ele>547.0</ele><time>2026-04-25T14:02:05.037Z</time></trkpt><trkpt lat="45.5147929" lon="13.9299941"><ele>545.0</ele><time>2026-04-25T14:02:06.025Z</time></trkpt><trkpt lat="45.5148579" lon="13.9298424"><ele>545.0</ele><time>2026-04-25T14:02:07.036Z</time></trkpt><trkpt lat="45.5149216" lon="13.9297119"><ele>545.0</ele><time>2026-04-25T14:02:08.024Z</time></trkpt><trkpt lat="45.5149867" lon="13.9295887"><ele>545.0</ele><time>2026-04-25T14:02:09.029Z</time></trkpt><trkpt lat="45.515045" lon="13.929465"><ele>545.0</ele><time>2026-04-25T14:02:10.031Z</time></trkpt><trkpt lat="45.5151003" lon="13.9293368"><ele>545.0</ele><time>2026-04-25T14:02:11.032Z</time></trkpt><trkpt lat="45.5151502" lon="13.9292006"><ele>546.0</ele><time>2026-04-25T14:02:12.035Z</time></trkpt><trkpt lat="45.515198" lon="13.929054"><ele>547.0</ele><time>2026-04-25T14:02:13.03Z</time></trkpt><trkpt lat="45.5152491" lon="13.9289037"><ele>548.0</ele><time>2026-04-25T14:02:14.034Z</time></trkpt><trkpt lat="45.515303" lon="13.9287541"><ele>549.0</ele><time>2026-04-25T14:02:15.033Z</time></trkpt><trkpt lat="45.5153652" lon="13.9286049"><ele>546.4</ele><time>2026-04-25T14:02:16.034Z</time></trkpt><trkpt lat="45.5154273" lon="13.9284817"><ele>543.8</ele><time>2026-04-25T14:02:17.024Z</time></trkpt><trkpt lat="45.515491" lon="13.928362"><ele>541.2</ele><time>2026-04-25T14:02:18.036Z</time></trkpt><trkpt lat="45.515559" lon="13.928246"><ele>538.6</ele><time>2026-04-25T14:02:19.034Z</time></trkpt><trkpt lat="45.5156296" lon="13.928129"><ele>536.0</ele><time>2026-04-25T14:02:20.037Z</time></trkpt><trkpt lat="45.5157104" lon="13.9280168"><ele>536.0</ele><time>2026-04-25T14:02:21.028Z</time></trkpt><trkpt lat="45.5157976" lon="13.9279145"><ele>536.0</ele><time>2026-04-25T14:02:22.03Z</time></trkpt><trkpt lat="45.5158926" lon="13.9278308"><ele>536.0</ele><time>2026-04-25T14:02:23.029Z</time></trkpt><trkpt lat="45.5159933" lon="13.9277505"><ele>536.0</ele><time>2026-04-25T14:02:24.032Z</time></trkpt><trkpt lat="45.5160939" lon="13.9276714"><ele>536.0</ele><time>2026-04-25T14:02:25.034Z</time></trkpt><trkpt lat="45.5161877" lon="13.9275667"><ele>536.0</ele><time>2026-04-25T14:02:26.037Z</time></trkpt><trkpt lat="45.5162694" lon="13.9274535"><ele>536.0</ele><time>2026-04-25T14:02:27.034Z</time></trkpt><trkpt lat="45.5163461" lon="13.9273332"><ele>536.0</ele><time>2026-04-25T14:02:28.033Z</time></trkpt><trkpt lat="45.5164237" lon="13.9272094"><ele>534.6</ele><time>2026-04-25T14:02:29.032Z</time></trkpt><trkpt lat="45.5165006" lon="13.9270816"><ele>533.2</ele><time>2026-04-25T14:02:30.044Z</time></trkpt><trkpt lat="45.5165822" lon="13.9269709"><ele>531.8</ele><time>2026-04-25T14:02:31.021Z</time></trkpt><trkpt lat="45.5166534" lon="13.9268876"><ele>530.4</ele><time>2026-04-25T14:02:32.035Z</time></trkpt><trkpt lat="45.5167301" lon="13.9268013"><ele>529.0</ele><time>2026-04-25T14:02:33.029Z</time></trkpt><trkpt lat="45.516809" lon="13.926718"><ele>529.0</ele><time>2026-04-25T14:02:34.036Z</time></trkpt><trkpt lat="45.5168833" lon="13.9266356"><ele>529.0</ele><time>2026-04-25T14:02:35.027Z</time></trkpt><trkpt lat="45.5169589" lon="13.9265525"><ele>529.0</ele><time>2026-04-25T14:02:36.042Z</time></trkpt><trkpt lat="45.5170184" lon="13.9265025"><ele>529.0</ele><time>2026-04-25T14:02:37.031Z</time></trkpt><trkpt lat="45.5170915" lon="13.9263921"><ele>529.0</ele><time>2026-04-25T14:02:39.028Z</time></trkpt><trkpt lat="45.5170995" lon="13.9262299"><ele>528.0</ele><time>2026-04-25T14:02:41.032Z</time></trkpt><trkpt lat="45.5170891" lon="13.926131"><ele>527.0</ele><time>2026-04-25T14:02:42.031Z</time></trkpt><trkpt lat="45.5170855" lon="13.9260089"><ele>526.0</ele><time>2026-04-25T14:02:43.034Z</time></trkpt><trkpt lat="45.517083" lon="13.9258905"><ele>525.0</ele><time>2026-04-25T14:02:44.043Z</time></trkpt><trkpt lat="45.517086" lon="13.9257597"><ele>524.0</ele><time>2026-04-25T14:02:45.038Z</time></trkpt><trkpt lat="45.5170889" lon="13.9256171"><ele>523.0</ele><time>2026-04-25T14:02:46.047Z</time></trkpt><trkpt lat="45.5170891" lon="13.9254768"><ele>522.6666666666667</ele><time>2026-04-25T14:02:47.029Z</time></trkpt><trkpt lat="45.5171032" lon="13.9253425"><ele>522.3333333333334</ele><time>2026-04-25T14:02:48.035Z</time></trkpt><trkpt lat="45.517119" lon="13.9252179"><ele>522.0</ele><time>2026-04-25T14:02:49.033Z</time></trkpt><trkpt lat="45.5171373" lon="13.9251025"><ele>521.6666666666666</ele><time>2026-04-25T14:02:50.03Z</time></trkpt><trkpt lat="45.5171615" lon="13.9249925"><ele>521.3333333333333</ele><time>2026-04-25T14:02:51.028Z</time></trkpt><trkpt lat="45.5172024" lon="13.924892"><ele>521.0</ele><time>2026-04-25T14:02:52.037Z</time></trkpt><trkpt lat="45.5172543" lon="13.9247973"><ele>520.6</ele><time>2026-04-25T14:02:53.028Z</time></trkpt><trkpt lat="45.5173109" lon="13.9246925"><ele>520.2</ele><time>2026-04-25T14:02:54.042Z</time></trkpt><trkpt lat="45.5173599" lon="13.9245805"><ele>519.8</ele><time>2026-04-25T14:02:55.035Z</time></trkpt><trkpt lat="45.5174057" lon="13.9244492"><ele>519.4</ele><time>2026-04-25T14:02:56.038Z</time></trkpt><trkpt lat="45.5174505" lon="13.9243033"><ele>519.0</ele><time>2026-04-25T14:02:57.036Z</time></trkpt><trkpt lat="45.5174935" lon="13.9241615"><ele>518.6</ele><time>2026-04-25T14:02:58.036Z</time></trkpt><trkpt lat="45.5175374" lon="13.9240497"><ele>518.2</ele><time>2026-04-25T14:02:59.032Z</time></trkpt><trkpt lat="45.5175925" lon="13.9239573"><ele>517.8000000000001</ele><time>2026-04-25T14:03:00.048Z</time></trkpt><trkpt lat="45.517666" lon="13.9238854"><ele>517.4</ele><time>2026-04-25T14:03:01.039Z</time></trkpt><trkpt lat="45.5177564" lon="13.923829"><ele>517.0</ele><time>2026-04-25T14:03:02.033Z</time></trkpt><trkpt lat="45.517834" lon="13.9237694"><ele>516.6</ele><time>2026-04-25T14:03:03.03Z</time></trkpt><trkpt lat="45.5179156" lon="13.9237186"><ele>516.2</ele><time>2026-04-25T14:03:04.037Z</time></trkpt><trkpt lat="45.5180083" lon="13.9236828"><ele>515.8</ele><time>2026-04-25T14:03:05.034Z</time></trkpt><trkpt lat="45.5180974" lon="13.9236492"><ele>515.4</ele><time>2026-04-25T14:03:06.04Z</time></trkpt><trkpt lat="45.5181864" lon="13.9236104"><ele>515.0</ele><time>2026-04-25T14:03:07.029Z</time></trkpt><trkpt lat="45.5182673" lon="13.923569"><ele>515.0</ele><time>2026-04-25T14:03:08.036Z</time></trkpt><trkpt lat="45.518351" lon="13.923532"><ele>515.0</ele><time>2026-04-25T14:03:09.031Z</time></trkpt><trkpt lat="45.5184472" lon="13.9235092"><ele>515.0</ele><time>2026-04-25T14:03:10.036Z</time></trkpt><trkpt lat="45.5185539" lon="13.923481"><ele>515.0</ele><time>2026-04-25T14:03:11.035Z</time></trkpt><trkpt lat="45.5186464" lon="13.9234512"><ele>515.0</ele><time>2026-04-25T14:03:12.039Z</time></trkpt><trkpt lat="45.5187405" lon="13.92343"><ele>514.1666666666666</ele><time>2026-04-25T14:03:13.029Z</time></trkpt><trkpt lat="45.5188274" lon="13.9234132"><ele>513.3333333333333</ele><time>2026-04-25T14:03:14.037Z</time></trkpt><trkpt lat="45.5189011" lon="13.9234135"><ele>512.5</ele><time>2026-04-25T14:03:15.025Z</time></trkpt><trkpt lat="45.5189679" lon="13.9234172"><ele>511.66666666666663</ele><time>2026-04-25T14:03:16.033Z</time></trkpt><trkpt lat="45.5190325" lon="13.9234122"><ele>510.8333333333333</ele><time>2026-04-25T14:03:17.03Z</time></trkpt><trkpt lat="45.51915" lon="13.9234084"><ele>510.0</ele><time>2026-04-25T14:03:19.041Z</time></trkpt><trkpt lat="45.5192163" lon="13.9234082"><ele>510.0</ele><time>2026-04-25T14:03:20.034Z</time></trkpt><trkpt lat="45.5192956" lon="13.9234023"><ele>510.0</ele><time>2026-04-25T14:03:21.034Z</time></trkpt><trkpt lat="45.5193747" lon="13.9234051"><ele>510.0</ele><time>2026-04-25T14:03:22.046Z</time></trkpt><trkpt lat="45.5194581" lon="13.9234065"><ele>510.0</ele><time>2026-04-25T14:03:23.039Z</time></trkpt><trkpt lat="45.5195539" lon="13.923412"><ele>510.0</ele><time>2026-04-25T14:03:24.033Z</time></trkpt><trkpt lat="45.5196561" lon="13.9234171"><ele>510.0</ele><time>2026-04-25T14:03:25.045Z</time></trkpt><trkpt lat="45.5197587" lon="13.9234206"><ele>508.6</ele><time>2026-04-25T14:03:26.047Z</time></trkpt><trkpt lat="45.5198621" lon="13.9234322"><ele>507.2</ele><time>2026-04-25T14:03:27.035Z</time></trkpt><trkpt lat="45.5199622" lon="13.9234404"><ele>505.79999999999995</ele><time>2026-04-25T14:03:28.035Z</time></trkpt><trkpt lat="45.5200609" lon="13.9234526"><ele>504.4</ele><time>2026-04-25T14:03:29.035Z</time></trkpt><trkpt lat="45.520157" lon="13.9234681"><ele>503.0</ele><time>2026-04-25T14:03:30.033Z</time></trkpt><trkpt lat="45.5202559" lon="13.9234823"><ele>503.0</ele><time>2026-04-25T14:03:31.048Z</time></trkpt><trkpt lat="45.5203475" lon="13.9234868"><ele>502.99999999999994</ele><time>2026-04-25T14:03:32.043Z</time></trkpt><trkpt lat="45.5204428" lon="13.9234882"><ele>502.99999999999994</ele><time>2026-04-25T14:03:33.042Z</time></trkpt><trkpt lat="45.5205355" lon="13.9235019"><ele>503.0</ele><time>2026-04-25T14:03:34.039Z</time></trkpt><trkpt lat="45.520627" lon="13.9235255"><ele>503.0</ele><time>2026-04-25T14:03:35.048Z</time></trkpt><trkpt lat="45.5207159" lon="13.9235749"><ele>501.79999999999995</ele><time>2026-04-25T14:03:36.045Z</time></trkpt><trkpt lat="45.5208022" lon="13.9236448"><ele>500.59999999999997</ele><time>2026-04-25T14:03:37.041Z</time></trkpt><trkpt lat="45.5208858" lon="13.9237062"><ele>499.40000000000003</ele><time>2026-04-25T14:03:38.046Z</time></trkpt><trkpt lat="45.5209651" lon="13.9237716"><ele>498.20000000000005</ele><time>2026-04-25T14:03:39.046Z</time></trkpt><trkpt lat="45.5210561" lon="13.923828"><ele>497.0</ele><time>2026-04-25T14:03:40.047Z</time></trkpt><trkpt lat="45.5211369" lon="13.9238936"><ele>494.25</ele><time>2026-04-25T14:03:41.048Z</time></trkpt><trkpt lat="45.5212405" lon="13.9240042"><ele>491.5</ele><time>2026-04-25T14:03:42.048Z</time></trkpt><trkpt lat="45.5213379" lon="13.9241391"><ele>488.75</ele><time>2026-04-25T14:03:43.043Z</time></trkpt><trkpt lat="45.5214341" lon="13.9242829"><ele>486.0</ele><time>2026-04-25T14:03:44.039Z</time></trkpt><trkpt lat="45.5215104" lon="13.9244153"><ele>486.0</ele><time>2026-04-25T14:03:45.039Z</time></trkpt><trkpt lat="45.5215778" lon="13.9245486"><ele>486.0</ele><time>2026-04-25T14:03:46.045Z</time></trkpt><trkpt lat="45.5216394" lon="13.9246731"><ele>486.0</ele><time>2026-04-25T14:03:47.032Z</time></trkpt><trkpt lat="45.5216876" lon="13.9247964"><ele>486.0</ele><time>2026-04-25T14:03:48.032Z</time></trkpt><trkpt lat="45.521728" lon="13.9249159"><ele>486.0</ele><time>2026-04-25T14:03:49.035Z</time></trkpt><trkpt lat="45.5217581" lon="13.9250435"><ele>485.8</ele><time>2026-04-25T14:03:50.036Z</time></trkpt><trkpt lat="45.5217795" lon="13.9251822"><ele>485.6</ele><time>2026-04-25T14:03:51.037Z</time></trkpt><trkpt lat="45.5218023" lon="13.9253155"><ele>485.4</ele><time>2026-04-25T14:03:52.045Z</time></trkpt><trkpt lat="45.5218223" lon="13.925443"><ele>485.2</ele><time>2026-04-25T14:03:53.046Z</time></trkpt><trkpt lat="45.521844" lon="13.9255762"><ele>485.0</ele><time>2026-04-25T14:03:54.049Z</time></trkpt><trkpt lat="45.5218664" lon="13.925713"><ele>485.0</ele><time>2026-04-25T14:03:55.034Z</time></trkpt><trkpt lat="45.521883" lon="13.9258504"><ele>485.0</ele><time>2026-04-25T14:03:56.044Z</time></trkpt><trkpt lat="45.5218984" lon="13.9259934"><ele>485.0</ele><time>2026-04-25T14:03:57.03Z</time></trkpt><trkpt lat="45.5219279" lon="13.9261191"><ele>485.0</ele><time>2026-04-25T14:03:58.038Z</time></trkpt><trkpt lat="45.5219823" lon="13.9262401"><ele>485.0</ele><time>2026-04-25T14:03:59.028Z</time></trkpt><trkpt lat="45.5220497" lon="13.9263603"><ele>484.6</ele><time>2026-04-25T14:04:00.028Z</time></trkpt><trkpt lat="45.5221142" lon="13.9264769"><ele>484.2</ele><time>2026-04-25T14:04:01.03Z</time></trkpt><trkpt lat="45.5221821" lon="13.9265833"><ele>483.79999999999995</ele><time>2026-04-25T14:04:02.039Z</time></trkpt><trkpt lat="45.5222535" lon="13.9266904"><ele>483.4</ele><time>2026-04-25T14:04:03.036Z</time></trkpt><trkpt lat="45.5223291" lon="13.9268"><ele>483.0</ele><time>2026-04-25T14:04:04.034Z</time></trkpt><trkpt lat="45.5224032" lon="13.9269174"><ele>485.0</ele><time>2026-04-25T14:04:05.036Z</time></trkpt><trkpt lat="45.5224745" lon="13.9270355"><ele>486.99999999999994</ele><time>2026-04-25T14:04:06.043Z</time></trkpt><trkpt lat="45.5225485" lon="13.9271542"><ele>488.99999999999994</ele><time>2026-04-25T14:04:07.038Z</time></trkpt><trkpt lat="45.5226132" lon="13.9272729"><ele>491.0</ele><time>2026-04-25T14:04:08.05Z</time></trkpt><trkpt lat="45.5226781" lon="13.9273903"><ele>493.0</ele><time>2026-04-25T14:04:09.03Z</time></trkpt><trkpt lat="45.5227411" lon="13.9275055"><ele>493.2</ele><time>2026-04-25T14:04:10.04Z</time></trkpt><trkpt lat="45.5227977" lon="13.9276325"><ele>493.4</ele><time>2026-04-25T14:04:11.032Z</time></trkpt><trkpt lat="45.5228388" lon="13.9277723"><ele>493.59999999999997</ele><time>2026-04-25T14:04:12.041Z</time></trkpt><trkpt lat="45.5228695" lon="13.9279177"><ele>493.79999999999995</ele><time>2026-04-25T14:04:13.039Z</time></trkpt><trkpt lat="45.5228845" lon="13.9280743"><ele>494.0</ele><time>2026-04-25T14:04:14.026Z</time></trkpt><trkpt lat="45.5228844" lon="13.9282497"><ele>494.2</ele><time>2026-04-25T14:04:15.037Z</time></trkpt><trkpt lat="45.522894" lon="13.9284131"><ele>494.4</ele><time>2026-04-25T14:04:16.043Z</time></trkpt><trkpt lat="45.5229026" lon="13.9285762"><ele>494.6</ele><time>2026-04-25T14:04:17.028Z</time></trkpt><trkpt lat="45.5229286" lon="13.9287212"><ele>494.8</ele><time>2026-04-25T14:04:18.036Z</time></trkpt><trkpt lat="45.5229605" lon="13.9288574"><ele>495.0</ele><time>2026-04-25T14:04:19.027Z</time></trkpt><trkpt lat="45.5229896" lon="13.9290162"><ele>492.4</ele><time>2026-04-25T14:04:20.035Z</time></trkpt><trkpt lat="45.5229978" lon="13.9291602"><ele>489.8</ele><time>2026-04-25T14:04:21.031Z</time></trkpt><trkpt lat="45.5229972" lon="13.9293115"><ele>487.20000000000005</ele><time>2026-04-25T14:04:22.041Z</time></trkpt><trkpt lat="45.5230004" lon="13.9294546"><ele>484.6</ele><time>2026-04-25T14:04:23.029Z</time></trkpt><trkpt lat="45.5230183" lon="13.9295918"><ele>482.0</ele><time>2026-04-25T14:04:24.047Z</time></trkpt><trkpt lat="45.5230348" lon="13.9297249"><ele>481.6</ele><time>2026-04-25T14:04:25.032Z</time></trkpt><trkpt lat="45.5230335" lon="13.9298581"><ele>481.20000000000005</ele><time>2026-04-25T14:04:26.028Z</time></trkpt><trkpt lat="45.5230269" lon="13.9300006"><ele>480.8</ele><time>2026-04-25T14:04:27.032Z</time></trkpt><trkpt lat="45.5230166" lon="13.9301461"><ele>480.4</ele><time>2026-04-25T14:04:28.028Z</time></trkpt><trkpt lat="45.5230065" lon="13.9303063"><ele>480.0</ele><time>2026-04-25T14:04:29.03Z</time></trkpt><trkpt lat="45.5229922" lon="13.9304806"><ele>480.0</ele><time>2026-04-25T14:04:30.033Z</time></trkpt><trkpt lat="45.5229784" lon="13.930643"><ele>480.0</ele><time>2026-04-25T14:04:31.026Z</time></trkpt><trkpt lat="45.5229687" lon="13.9307889"><ele>480.0</ele><time>2026-04-25T14:04:32.026Z</time></trkpt><trkpt lat="45.5229629" lon="13.9309318"><ele>480.0</ele><time>2026-04-25T14:04:33.044Z</time></trkpt><trkpt lat="45.5229522" lon="13.9310666"><ele>480.0</ele><time>2026-04-25T14:04:34.045Z</time></trkpt><trkpt lat="45.52293" lon="13.9311945"><ele>479.8</ele><time>2026-04-25T14:04:35.037Z</time></trkpt><trkpt lat="45.5229041" lon="13.9313248"><ele>479.6</ele><time>2026-04-25T14:04:36.039Z</time></trkpt><trkpt lat="45.5228748" lon="13.9314594"><ele>479.4</ele><time>2026-04-25T14:04:37.037Z</time></trkpt><trkpt lat="45.5228441" lon="13.9315924"><ele>479.2</ele><time>2026-04-25T14:04:38.036Z</time></trkpt><trkpt lat="45.5228203" lon="13.9317147"><ele>479.0</ele><time>2026-04-25T14:04:39.04Z</time></trkpt><trkpt lat="45.5228024" lon="13.9318406"><ele>478.0</ele><time>2026-04-25T14:04:40.037Z</time></trkpt><trkpt lat="45.5227955" lon="13.9319725"><ele>477.0</ele><time>2026-04-25T14:04:41.042Z</time></trkpt><trkpt lat="45.5228073" lon="13.932125"><ele>476.0</ele><time>2026-04-25T14:04:42.043Z</time></trkpt><trkpt lat="45.5228382" lon="13.9323104"><ele>475.0</ele><time>2026-04-25T14:04:43.04Z</time></trkpt><trkpt lat="45.5228567" lon="13.9324937"><ele>474.5</ele><time>2026-04-25T14:04:44.034Z</time></trkpt><trkpt lat="45.5228774" lon="13.9326687"><ele>474.0</ele><time>2026-04-25T14:04:45.036Z</time></trkpt><trkpt lat="45.5228993" lon="13.9328494"><ele>473.5</ele><time>2026-04-25T14:04:46.036Z</time></trkpt><trkpt lat="45.5229286" lon="13.9330322"><ele>473.0</ele><time>2026-04-25T14:04:47.041Z</time></trkpt><trkpt lat="45.522964" lon="13.9332087"><ele>473.0</ele><time>2026-04-25T14:04:48.037Z</time></trkpt><trkpt lat="45.5229904" lon="13.9333837"><ele>473.0</ele><time>2026-04-25T14:04:49.041Z</time></trkpt><trkpt lat="45.5229993" lon="13.9335686"><ele>473.0</ele><time>2026-04-25T14:04:50.033Z</time></trkpt><trkpt lat="45.5229953" lon="13.9337558"><ele>473.0</ele><time>2026-04-25T14:04:51.035Z</time></trkpt><trkpt lat="45.5229859" lon="13.9339473"><ele>472.75</ele><time>2026-04-25T14:04:52.032Z</time></trkpt><trkpt lat="45.5229663" lon="13.9341366"><ele>472.5</ele><time>2026-04-25T14:04:53.03Z</time></trkpt><trkpt lat="45.5229466" lon="13.9343296"><ele>472.25</ele><time>2026-04-25T14:04:54.049Z</time></trkpt><trkpt lat="45.5229295" lon="13.9345214"><ele>472.0</ele><time>2026-04-25T14:04:55.043Z</time></trkpt><trkpt lat="45.5229099" lon="13.9347055"><ele>471.75</ele><time>2026-04-25T14:04:56.038Z</time></trkpt><trkpt lat="45.5228875" lon="13.9348804"><ele>471.5</ele><time>2026-04-25T14:04:57.032Z</time></trkpt><trkpt lat="45.5228541" lon="13.9350576"><ele>471.25</ele><time>2026-04-25T14:04:58.04Z</time></trkpt><trkpt lat="45.5228259" lon="13.9352135"><ele>471.0</ele><time>2026-04-25T14:04:59.056Z</time></trkpt><trkpt lat="45.5228078" lon="13.9353578"><ele>470.8333333333333</ele><time>2026-04-25T14:05:00.027Z</time></trkpt><trkpt lat="45.5228014" lon="13.9354713"><ele>470.66666666666663</ele><time>2026-04-25T14:05:01.036Z</time></trkpt><trkpt lat="45.5228251" lon="13.9355601"><ele>470.5</ele><time>2026-04-25T14:05:02.042Z</time></trkpt><trkpt lat="45.5228692" lon="13.9356458"><ele>470.3333333333333</ele><time>2026-04-25T14:05:03.028Z</time></trkpt><trkpt lat="45.522933" lon="13.9357396"><ele>470.16666666666663</ele><time>2026-04-25T14:05:04.047Z</time></trkpt><trkpt lat="45.523008" lon="13.9358466"><ele>470.0</ele><time>2026-04-25T14:05:05.033Z</time></trkpt><trkpt lat="45.5230728" lon="13.9359739"><ele>471.0</ele><time>2026-04-25T14:05:06.043Z</time></trkpt><trkpt lat="45.5231374" lon="13.936102"><ele>472.0</ele><time>2026-04-25T14:05:07.034Z</time></trkpt><trkpt lat="45.5232179" lon="13.9362146"><ele>473.0</ele><time>2026-04-25T14:05:08.04Z</time></trkpt><trkpt lat="45.5233096" lon="13.9363131"><ele>474.0</ele><time>2026-04-25T14:05:09.04Z</time></trkpt><trkpt lat="45.5234049" lon="13.9364237"><ele>474.0</ele><time>2026-04-25T14:05:10.042Z</time></trkpt><trkpt lat="45.5235041" lon="13.936563"><ele>474.0</ele><time>2026-04-25T14:05:11.037Z</time></trkpt><trkpt lat="45.5235989" lon="13.9367092"><ele>474.0</ele><time>2026-04-25T14:05:12.044Z</time></trkpt><trkpt lat="45.5236804" lon="13.9368497"><ele>474.0</ele><time>2026-04-25T14:05:13.039Z</time></trkpt><trkpt lat="45.52375" lon="13.9369844"><ele>474.79999999999995</ele><time>2026-04-25T14:05:14.045Z</time></trkpt><trkpt lat="45.5238075" lon="13.9371135"><ele>475.59999999999997</ele><time>2026-04-25T14:05:15.042Z</time></trkpt><trkpt lat="45.5238464" lon="13.9372563"><ele>476.4</ele><time>2026-04-25T14:05:16.042Z</time></trkpt><trkpt lat="45.5238718" lon="13.9374073"><ele>477.2</ele><time>2026-04-25T14:05:17.045Z</time></trkpt><trkpt lat="45.5238888" lon="13.9375782"><ele>478.0</ele><time>2026-04-25T14:05:18.048Z</time></trkpt><trkpt lat="45.5239031" lon="13.9377507"><ele>478.4</ele><time>2026-04-25T14:05:19.043Z</time></trkpt><trkpt lat="45.5239126" lon="13.9379295"><ele>478.79999999999995</ele><time>2026-04-25T14:05:20.03Z</time></trkpt><trkpt lat="45.5239293" lon="13.9380874"><ele>479.2</ele><time>2026-04-25T14:05:21.025Z</time></trkpt><trkpt lat="45.5239519" lon="13.9382386"><ele>479.6</ele><time>2026-04-25T14:05:22.031Z</time></trkpt><trkpt lat="45.523985" lon="13.9383747"><ele>480.0</ele><time>2026-04-25T14:05:23.031Z</time></trkpt><trkpt lat="45.5240325" lon="13.9384923"><ele>480.25</ele><time>2026-04-25T14:05:24.041Z</time></trkpt><trkpt lat="45.5241036" lon="13.9386073"><ele>480.5</ele><time>2026-04-25T14:05:25.031Z</time></trkpt><trkpt lat="45.5241856" lon="13.9387308"><ele>480.75</ele><time>2026-04-25T14:05:26.034Z</time></trkpt><trkpt lat="45.5242717" lon="13.9388663"><ele>481.0</ele><time>2026-04-25T14:05:27.023Z</time></trkpt><trkpt lat="45.5243624" lon="13.9389999"><ele>481.0</ele><time>2026-04-25T14:05:28.029Z</time></trkpt><trkpt lat="45.5244429" lon="13.9391305"><ele>481.0</ele><time>2026-04-25T14:05:29.024Z</time></trkpt><trkpt lat="45.5245178" lon="13.9392486"><ele>481.0</ele><time>2026-04-25T14:05:30.039Z</time></trkpt><trkpt lat="45.5245866" lon="13.9393618"><ele>481.0</ele><time>2026-04-25T14:05:31.039Z</time></trkpt><trkpt lat="45.5246546" lon="13.9394743"><ele>481.0</ele><time>2026-04-25T14:05:32.035Z</time></trkpt><trkpt lat="45.5247235" lon="13.9395795"><ele>481.25</ele><time>2026-04-25T14:05:33.025Z</time></trkpt><trkpt lat="45.5247969" lon="13.9396844"><ele>481.5</ele><time>2026-04-25T14:05:34.037Z</time></trkpt><trkpt lat="45.5248878" lon="13.9397831"><ele>481.75</ele><time>2026-04-25T14:05:35.028Z</time></trkpt><trkpt lat="45.5249891" lon="13.9398793"><ele>482.0</ele><time>2026-04-25T14:05:36.028Z</time></trkpt><trkpt lat="45.5250917" lon="13.9399792"><ele>482.0</ele><time>2026-04-25T14:05:37.039Z</time></trkpt><trkpt lat="45.5251963" lon="13.9400811"><ele>482.0</ele><time>2026-04-25T14:05:38.036Z</time></trkpt><trkpt lat="45.5252999" lon="13.9401842"><ele>482.0</ele><time>2026-04-25T14:05:39.036Z</time></trkpt><trkpt lat="45.5254034" lon="13.9402857"><ele>482.0</ele><time>2026-04-25T14:05:40.037Z</time></trkpt><trkpt lat="45.5255091" lon="13.9403808"><ele>482.0</ele><time>2026-04-25T14:05:41.031Z</time></trkpt><trkpt lat="45.5256177" lon="13.9404652"><ele>482.0</ele><time>2026-04-25T14:05:42.032Z</time></trkpt><trkpt lat="45.5257277" lon="13.9405498"><ele>482.0</ele><time>2026-04-25T14:05:43.034Z</time></trkpt><trkpt lat="45.5258336" lon="13.9406312"><ele>482.0</ele><time>2026-04-25T14:05:44.032Z</time></trkpt><trkpt lat="45.5259371" lon="13.9407149"><ele>482.0</ele><time>2026-04-25T14:05:45.034Z</time></trkpt><trkpt lat="45.5260482" lon="13.9407829"><ele>482.0</ele><time>2026-04-25T14:05:46.031Z</time></trkpt><trkpt lat="45.5261694" lon="13.9408372"><ele>482.0</ele><time>2026-04-25T14:05:47.032Z</time></trkpt><trkpt lat="45.5262912" lon="13.9408948"><ele>482.0</ele><time>2026-04-25T14:05:48.032Z</time></trkpt><trkpt lat="45.5264108" lon="13.940957"><ele>482.0</ele><time>2026-04-25T14:05:49.029Z</time></trkpt><trkpt lat="45.5265238" lon="13.9410293"><ele>482.0</ele><time>2026-04-25T14:05:50.05Z</time></trkpt><trkpt lat="45.5266234" lon="13.9411246"><ele>482.0</ele><time>2026-04-25T14:05:51.037Z</time></trkpt><trkpt lat="45.5267089" lon="13.9412602"><ele>482.0</ele><time>2026-04-25T14:05:52.036Z</time></trkpt><trkpt lat="45.5267867" lon="13.9413983"><ele>482.0</ele><time>2026-04-25T14:05:53.031Z</time></trkpt><trkpt lat="45.5268611" lon="13.941547"><ele>482.0</ele><time>2026-04-25T14:05:54.035Z</time></trkpt><trkpt lat="45.5269271" lon="13.9416985"><ele>482.0</ele><time>2026-04-25T14:05:55.017Z</time></trkpt><trkpt lat="45.5269889" lon="13.9418381"><ele>482.0</ele><time>2026-04-25T14:05:56.032Z</time></trkpt><trkpt lat="45.5270548" lon="13.9419547"><ele>482.6</ele><time>2026-04-25T14:05:57.026Z</time></trkpt><trkpt lat="45.5271186" lon="13.9420422"><ele>483.20000000000005</ele><time>2026-04-25T14:05:58.018Z</time></trkpt><trkpt lat="45.5271953" lon="13.9421153"><ele>483.8</ele><time>2026-04-25T14:05:59.029Z</time></trkpt><trkpt lat="45.5272799" lon="13.9421592"><ele>484.4</ele><time>2026-04-25T14:06:00.035Z</time></trkpt><trkpt lat="45.5273802" lon="13.9421928"><ele>485.0</ele><time>2026-04-25T14:06:01.023Z</time></trkpt><trkpt lat="45.5274742" lon="13.9422292"><ele>485.0</ele><time>2026-04-25T14:06:02.046Z</time></trkpt><trkpt lat="45.5275719" lon="13.9422651"><ele>485.0</ele><time>2026-04-25T14:06:03.042Z</time></trkpt><trkpt lat="45.5276752" lon="13.9422847"><ele>485.0</ele><time>2026-04-25T14:06:04.04Z</time></trkpt><trkpt lat="45.5277735" lon="13.9422857"><ele>485.0</ele><time>2026-04-25T14:06:05.039Z</time></trkpt><trkpt lat="45.5278738" lon="13.9422796"><ele>485.0</ele><time>2026-04-25T14:06:06.041Z</time></trkpt><trkpt lat="45.5279731" lon="13.9423007"><ele>486.2</ele><time>2026-04-25T14:06:07.044Z</time></trkpt><trkpt lat="45.5280715" lon="13.9423545"><ele>487.4</ele><time>2026-04-25T14:06:08.037Z</time></trkpt><trkpt lat="45.5281681" lon="13.9424126"><ele>488.6</ele><time>2026-04-25T14:06:09.053Z</time></trkpt><trkpt lat="45.5282593" lon="13.942457"><ele>489.8</ele><time>2026-04-25T14:06:10.042Z</time></trkpt><trkpt lat="45.5283545" lon="13.9424671"><ele>491.0</ele><time>2026-04-25T14:06:11.044Z</time></trkpt><trkpt lat="45.5284471" lon="13.9424572"><ele>491.0</ele><time>2026-04-25T14:06:12.043Z</time></trkpt><trkpt lat="45.5285392" lon="13.9424166"><ele>491.0</ele><time>2026-04-25T14:06:13.052Z</time></trkpt><trkpt lat="45.5286389" lon="13.9423502"><ele>491.0</ele><time>2026-04-25T14:06:14.033Z</time></trkpt><trkpt lat="45.5287343" lon="13.9422619"><ele>491.0</ele><time>2026-04-25T14:06:15.051Z</time></trkpt><trkpt lat="45.5288336" lon="13.9421467"><ele>491.0</ele><time>2026-04-25T14:06:16.05Z</time></trkpt><trkpt lat="45.5289345" lon="13.9420377"><ele>493.5</ele><time>2026-04-25T14:06:17.043Z</time></trkpt><trkpt lat="45.5290367" lon="13.9419176"><ele>496.0</ele><time>2026-04-25T14:06:18.043Z</time></trkpt><trkpt lat="45.5291321" lon="13.9418015"><ele>498.5</ele><time>2026-04-25T14:06:19.04Z</time></trkpt><trkpt lat="45.5292216" lon="13.9416904"><ele>501.0</ele><time>2026-04-25T14:06:20.028Z</time></trkpt><trkpt lat="45.5293049" lon="13.9415942"><ele>501.0</ele><time>2026-04-25T14:06:21.032Z</time></trkpt><trkpt lat="45.5293882" lon="13.9415174"><ele>501.0</ele><time>2026-04-25T14:06:22.043Z</time></trkpt><trkpt lat="45.5294691" lon="13.9414641"><ele>501.0</ele><time>2026-04-25T14:06:23.032Z</time></trkpt><trkpt lat="45.5295614" lon="13.9414543"><ele>501.0</ele><time>2026-04-25T14:06:24.033Z</time></trkpt><trkpt lat="45.5296616" lon="13.941465"><ele>501.0</ele><time>2026-04-25T14:06:25.028Z</time></trkpt><trkpt lat="45.5297693" lon="13.9414683"><ele>500.5</ele><time>2026-04-25T14:06:26.06Z</time></trkpt><trkpt lat="45.529882" lon="13.9414801"><ele>500.0</ele><time>2026-04-25T14:06:27.048Z</time></trkpt><trkpt lat="45.5299982" lon="13.9415105"><ele>499.5</ele><time>2026-04-25T14:06:28.05Z</time></trkpt><trkpt lat="45.5300936" lon="13.9415823"><ele>499.0</ele><time>2026-04-25T14:06:29.027Z</time></trkpt><trkpt lat="45.5301861" lon="13.9416698"><ele>500.5</ele><time>2026-04-25T14:06:30.042Z</time></trkpt><trkpt lat="45.5302947" lon="13.9417408"><ele>502.0</ele><time>2026-04-25T14:06:31.05Z</time></trkpt><trkpt lat="45.5304204" lon="13.941788"><ele>503.5</ele><time>2026-04-25T14:06:32.036Z</time></trkpt><trkpt lat="45.5305469" lon="13.9418324"><ele>505.0</ele><time>2026-04-25T14:06:33.04Z</time></trkpt><trkpt lat="45.5306676" lon="13.941879"><ele>505.0</ele><time>2026-04-25T14:06:34.028Z</time></trkpt><trkpt lat="45.5307827" lon="13.9419255"><ele>505.0</ele><time>2026-04-25T14:06:35.03Z</time></trkpt><trkpt lat="45.5309052" lon="13.941958"><ele>505.0</ele><time>2026-04-25T14:06:36.045Z</time></trkpt><trkpt lat="45.5310367" lon="13.9419941"><ele>505.0</ele><time>2026-04-25T14:06:37.04Z</time></trkpt><trkpt lat="45.5311776" lon="13.9420603"><ele>504.6666666666667</ele><time>2026-04-25T14:06:38.03Z</time></trkpt><trkpt lat="45.5313222" lon="13.9421355"><ele>504.33333333333337</ele><time>2026-04-25T14:06:39.045Z</time></trkpt><trkpt lat="45.5314706" lon="13.9422119"><ele>504.0</ele><time>2026-04-25T14:06:40.036Z</time></trkpt><trkpt lat="45.5316173" lon="13.9422825"><ele>504.0</ele><time>2026-04-25T14:06:41.032Z</time></trkpt><trkpt lat="45.5317572" lon="13.9423461"><ele>504.0</ele><time>2026-04-25T14:06:42.04Z</time></trkpt><trkpt lat="45.5318842" lon="13.9424019"><ele>504.0</ele><time>2026-04-25T14:06:43.033Z</time></trkpt><trkpt lat="45.5319994" lon="13.9424536"><ele>504.0</ele><time>2026-04-25T14:06:44.037Z</time></trkpt><trkpt lat="45.5321104" lon="13.9425126"><ele>504.2</ele><time>2026-04-25T14:06:45.035Z</time></trkpt><trkpt lat="45.532216" lon="13.9425753"><ele>504.4</ele><time>2026-04-25T14:06:46.039Z</time></trkpt><trkpt lat="45.5323153" lon="13.9426623"><ele>504.6</ele><time>2026-04-25T14:06:47.031Z</time></trkpt><trkpt lat="45.5323964" lon="13.9427626"><ele>504.8</ele><time>2026-04-25T14:06:48.036Z</time></trkpt><trkpt lat="45.532482" lon="13.9428604"><ele>505.0</ele><time>2026-04-25T14:06:49.039Z</time></trkpt><trkpt lat="45.5325625" lon="13.9429524"><ele>505.0</ele><time>2026-04-25T14:06:50.035Z</time></trkpt><trkpt lat="45.5326346" lon="13.9430473"><ele>505.0</ele><time>2026-04-25T14:06:51.033Z</time></trkpt><trkpt lat="45.5327056" lon="13.9431316"><ele>505.0</ele><time>2026-04-25T14:06:52.043Z</time></trkpt><trkpt lat="45.532787" lon="13.9431917"><ele>505.0</ele><time>2026-04-25T14:06:53.033Z</time></trkpt><trkpt lat="45.5328724" lon="13.9432325"><ele>505.0</ele><time>2026-04-25T14:06:54.041Z</time></trkpt><trkpt lat="45.5329553" lon="13.9432686"><ele>503.6666666666667</ele><time>2026-04-25T14:06:55.03Z</time></trkpt><trkpt lat="45.5330352" lon="13.9433153"><ele>502.33333333333337</ele><time>2026-04-25T14:06:56.034Z</time></trkpt><trkpt lat="45.5330973" lon="13.9433725"><ele>501.0</ele><time>2026-04-25T14:06:57.028Z</time></trkpt><trkpt lat="45.5331565" lon="13.9434739"><ele>499.66666666666663</ele><time>2026-04-25T14:06:59.042Z</time></trkpt><trkpt lat="45.5331942" lon="13.9435513"><ele>498.3333333333333</ele><time>2026-04-25T14:07:02.03Z</time></trkpt><trkpt lat="45.5332755" lon="13.943687"><ele>497.0</ele><time>2026-04-25T14:07:55.023Z</time></trkpt><trkpt lat="45.5333245" lon="13.9437848"><ele>496.8333333333333</ele><time>2026-04-25T14:07:56.031Z</time></trkpt><trkpt lat="45.5333645" lon="13.9438909"><ele>496.66666666666663</ele><time>2026-04-25T14:07:57.031Z</time></trkpt><trkpt lat="45.5333834" lon="13.9440156"><ele>496.5</ele><time>2026-04-25T14:07:58.035Z</time></trkpt><trkpt lat="45.5333998" lon="13.9441395"><ele>496.33333333333337</ele><time>2026-04-25T14:07:59.024Z</time></trkpt><trkpt lat="45.533449" lon="13.9442313"><ele>496.1666666666667</ele><time>2026-04-25T14:08:00.025Z</time></trkpt><trkpt lat="45.5335315" lon="13.9443082"><ele>496.0</ele><time>2026-04-25T14:08:01.026Z</time></trkpt><trkpt lat="45.533623" lon="13.9443841"><ele>496.0</ele><time>2026-04-25T14:08:02.023Z</time></trkpt><trkpt lat="45.5337186" lon="13.9444785"><ele>496.0</ele><time>2026-04-25T14:08:03.022Z</time></trkpt><trkpt lat="45.5338023" lon="13.944573"><ele>496.0</ele><time>2026-04-25T14:08:04.022Z</time></trkpt><trkpt lat="45.5338711" lon="13.944666"><ele>496.0</ele><time>2026-04-25T14:08:05.024Z</time></trkpt><trkpt lat="45.5339227" lon="13.9447669"><ele>496.0</ele><time>2026-04-25T14:08:06.043Z</time></trkpt><trkpt lat="45.5339556" lon="13.9448583"><ele>495.6</ele><time>2026-04-25T14:08:07.025Z</time></trkpt><trkpt lat="45.5339601" lon="13.945019"><ele>495.20000000000005</ele><time>2026-04-25T14:08:09.023Z</time></trkpt><trkpt lat="45.5339327" lon="13.9451042"><ele>494.79999999999995</ele><time>2026-04-25T14:08:10.033Z</time></trkpt><trkpt lat="45.5338788" lon="13.9452156"><ele>494.4</ele><time>2026-04-25T14:08:12.04Z</time></trkpt><trkpt lat="45.5339188" lon="13.9453037"><ele>494.0</ele><time>2026-04-25T14:08:14.022Z</time></trkpt><trkpt lat="45.534036" lon="13.9453352"><ele>493.25</ele><time>2026-04-25T14:08:16.039Z</time></trkpt><trkpt lat="45.5341381" lon="13.9453202"><ele>492.5</ele><time>2026-04-25T14:08:17.042Z</time></trkpt><trkpt lat="45.5342636" lon="13.9452879"><ele>491.75</ele><time>2026-04-25T14:08:18.025Z</time></trkpt><trkpt lat="45.5344113" lon="13.9452625"><ele>491.0</ele><time>2026-04-25T14:08:19.038Z</time></trkpt><trkpt lat="45.5345643" lon="13.9452484"><ele>490.3333333333333</ele><time>2026-04-25T14:08:20.021Z</time></trkpt><trkpt lat="45.5347198" lon="13.9452371"><ele>489.66666666666663</ele><time>2026-04-25T14:08:21.024Z</time></trkpt><trkpt lat="45.5348751" lon="13.9452137"><ele>489.0</ele><time>2026-04-25T14:08:22.026Z</time></trkpt><trkpt lat="45.5350305" lon="13.9451851"><ele>489.0</ele><time>2026-04-25T14:08:23.018Z</time></trkpt><trkpt lat="45.5351916" lon="13.9451487"><ele>489.0</ele><time>2026-04-25T14:08:24.042Z</time></trkpt><trkpt lat="45.5353563" lon="13.9450989"><ele>489.0</ele><time>2026-04-25T14:08:25.03Z</time></trkpt><trkpt lat="45.5355177" lon="13.9450135"><ele>488.66666666666663</ele><time>2026-04-25T14:08:26.053Z</time></trkpt><trkpt lat="45.5356669" lon="13.9448959"><ele>488.3333333333333</ele><time>2026-04-25T14:08:27.023Z</time></trkpt><trkpt lat="45.5357886" lon="13.9447685"><ele>488.0</ele><time>2026-04-25T14:08:28.033Z</time></trkpt><trkpt lat="45.5358817" lon="13.9446376"><ele>488.0</ele><time>2026-04-25T14:08:29.026Z</time></trkpt><trkpt lat="45.5359553" lon="13.9445109"><ele>487.99999999999994</ele><time>2026-04-25T14:08:30.027Z</time></trkpt><trkpt lat="45.536032" lon="13.9444049"><ele>487.99999999999994</ele><time>2026-04-25T14:08:31.041Z</time></trkpt><trkpt lat="45.5361245" lon="13.944341"><ele>488.0</ele><time>2026-04-25T14:08:32.03Z</time></trkpt><trkpt lat="45.5362275" lon="13.9443227"><ele>488.0</ele><time>2026-04-25T14:08:33.021Z</time></trkpt><trkpt lat="45.5363378" lon="13.9443253"><ele>488.5</ele><time>2026-04-25T14:08:34.026Z</time></trkpt><trkpt lat="45.5364591" lon="13.9443317"><ele>489.0</ele><time>2026-04-25T14:08:35.023Z</time></trkpt><trkpt lat="45.5365874" lon="13.9443291"><ele>489.5</ele><time>2026-04-25T14:08:36.037Z</time></trkpt><trkpt lat="45.536721" lon="13.9443146"><ele>490.0</ele><time>2026-04-25T14:08:37.02Z</time></trkpt><trkpt lat="45.536853" lon="13.9442946"><ele>490.0</ele><time>2026-04-25T14:08:38.027Z</time></trkpt><trkpt lat="45.5369811" lon="13.9442728"><ele>490.0</ele><time>2026-04-25T14:08:39.024Z</time></trkpt><trkpt lat="45.5371113" lon="13.9442553"><ele>490.0</ele><time>2026-04-25T14:08:40.026Z</time></trkpt><trkpt lat="45.5372408" lon="13.9442358"><ele>490.0</ele><time>2026-04-25T14:08:41.026Z</time></trkpt><trkpt lat="45.5373695" lon="13.9442133"><ele>490.0</ele><time>2026-04-25T14:08:42.019Z</time></trkpt><trkpt lat="45.5374988" lon="13.9441902"><ele>490.0</ele><time>2026-04-25T14:08:43.031Z</time></trkpt><trkpt lat="45.5376327" lon="13.9441738"><ele>490.0</ele><time>2026-04-25T14:08:44.031Z</time></trkpt><trkpt lat="45.5377691" lon="13.9441837"><ele>490.0</ele><time>2026-04-25T14:08:45.034Z</time></trkpt><trkpt lat="45.5379066" lon="13.9441991"><ele>489.0</ele><time>2026-04-25T14:08:46.029Z</time></trkpt><trkpt lat="45.5380428" lon="13.9442141"><ele>488.0</ele><time>2026-04-25T14:08:47.033Z</time></trkpt><trkpt lat="45.5381812" lon="13.9442266"><ele>487.0</ele><time>2026-04-25T14:08:48.033Z</time></trkpt><trkpt lat="45.538325" lon="13.9442363"><ele>486.0</ele><time>2026-04-25T14:08:49.045Z</time></trkpt><trkpt lat="45.5384688" lon="13.9442406"><ele>486.0</ele><time>2026-04-25T14:08:50.033Z</time></trkpt><trkpt lat="45.5386105" lon="13.944247"><ele>486.0</ele><time>2026-04-25T14:08:51.033Z</time></trkpt><trkpt lat="45.538762" lon="13.944258"><ele>486.0</ele><time>2026-04-25T14:08:52.029Z</time></trkpt><trkpt lat="45.5389044" lon="13.9442821"><ele>486.0</ele><time>2026-04-25T14:08:53.031Z</time></trkpt><trkpt lat="45.5390474" lon="13.9443121"><ele>486.25</ele><time>2026-04-25T14:08:54.036Z</time></trkpt><trkpt lat="45.5391944" lon="13.9443525"><ele>486.5</ele><time>2026-04-25T14:08:55.033Z</time></trkpt><trkpt lat="45.5393309" lon="13.9443872"><ele>486.75</ele><time>2026-04-25T14:08:56.032Z</time></trkpt><trkpt lat="45.5394635" lon="13.9444193"><ele>487.0</ele><time>2026-04-25T14:08:57.04Z</time></trkpt><trkpt lat="45.5395983" lon="13.944448"><ele>487.5</ele><time>2026-04-25T14:08:58.033Z</time></trkpt><trkpt lat="45.53974" lon="13.9444556"><ele>488.0</ele><time>2026-04-25T14:08:59.026Z</time></trkpt><trkpt lat="45.5398786" lon="13.9444557"><ele>488.5</ele><time>2026-04-25T14:09:00.034Z</time></trkpt><trkpt lat="45.5400134" lon="13.9444547"><ele>489.0</ele><time>2026-04-25T14:09:01.033Z</time></trkpt><trkpt lat="45.5401578" lon="13.9444523"><ele>489.0</ele><time>2026-04-25T14:09:02.034Z</time></trkpt><trkpt lat="45.5403002" lon="13.9444463"><ele>489.0</ele><time>2026-04-25T14:09:03.034Z</time></trkpt><trkpt lat="45.5404465" lon="13.9444498"><ele>489.0</ele><time>2026-04-25T14:09:04.032Z</time></trkpt><trkpt lat="45.5405898" lon="13.9444511"><ele>489.0</ele><time>2026-04-25T14:09:05.028Z</time></trkpt><trkpt lat="45.5407318" lon="13.9444593"><ele>488.33333333333337</ele><time>2026-04-25T14:09:06.03Z</time></trkpt><trkpt lat="45.5408806" lon="13.9444686"><ele>487.6666666666667</ele><time>2026-04-25T14:09:07.032Z</time></trkpt><trkpt lat="45.5410399" lon="13.9444784"><ele>487.0</ele><time>2026-04-25T14:09:08.03Z</time></trkpt><trkpt lat="45.5411946" lon="13.9444869"><ele>487.0</ele><time>2026-04-25T14:09:09.027Z</time></trkpt><trkpt lat="45.5413503" lon="13.9444932"><ele>487.0</ele><time>2026-04-25T14:09:10.023Z</time></trkpt><trkpt lat="45.5415119" lon="13.9444993"><ele>487.0</ele><time>2026-04-25T14:09:11.029Z</time></trkpt><trkpt lat="45.5416706" lon="13.9445222"><ele>487.0</ele><time>2026-04-25T14:09:12.032Z</time></trkpt><trkpt lat="45.5418313" lon="13.9445569"><ele>487.0</ele><time>2026-04-25T14:09:13.024Z</time></trkpt><trkpt lat="45.5419835" lon="13.9445956"><ele>487.0</ele><time>2026-04-25T14:09:14.024Z</time></trkpt><trkpt lat="45.5421314" lon="13.9446369"><ele>487.0</ele><time>2026-04-25T14:09:15.032Z</time></trkpt><trkpt lat="45.5422785" lon="13.9446725"><ele>487.0</ele><time>2026-04-25T14:09:16.033Z</time></trkpt><trkpt lat="45.5424226" lon="13.9446904"><ele>487.0</ele><time>2026-04-25T14:09:17.03Z</time></trkpt><trkpt lat="45.5425664" lon="13.9446908"><ele>487.0</ele><time>2026-04-25T14:09:18.036Z</time></trkpt><trkpt lat="45.5427109" lon="13.9447213"><ele>487.0</ele><time>2026-04-25T14:09:19.029Z</time></trkpt><trkpt lat="45.54286" lon="13.9447723"><ele>487.0</ele><time>2026-04-25T14:09:20.034Z</time></trkpt><trkpt lat="45.5430138" lon="13.9447987"><ele>487.0</ele><time>2026-04-25T14:09:21.027Z</time></trkpt><trkpt lat="45.543164" lon="13.9447985"><ele>486.33333333333337</ele><time>2026-04-25T14:09:22.036Z</time></trkpt><trkpt lat="45.5433209" lon="13.9447798"><ele>485.66666666666663</ele><time>2026-04-25T14:09:23.035Z</time></trkpt><trkpt lat="45.5434759" lon="13.944762"><ele>485.0</ele><time>2026-04-25T14:09:24.021Z</time></trkpt><trkpt lat="45.5436266" lon="13.944765"><ele>484.66666666666663</ele><time>2026-04-25T14:09:25.025Z</time></trkpt><trkpt lat="45.5437755" lon="13.9447952"><ele>484.33333333333337</ele><time>2026-04-25T14:09:26.031Z</time></trkpt><trkpt lat="45.5439297" lon="13.9448402"><ele>484.0</ele><time>2026-04-25T14:09:27.015Z</time></trkpt><trkpt lat="45.544076" lon="13.9449004"><ele>484.0</ele><time>2026-04-25T14:09:28.035Z</time></trkpt><trkpt lat="45.5442277" lon="13.9449602"><ele>484.0</ele><time>2026-04-25T14:09:29.028Z</time></trkpt><trkpt lat="45.5443796" lon="13.9450199"><ele>484.0</ele><time>2026-04-25T14:09:30.027Z</time></trkpt><trkpt lat="45.5445357" lon="13.9450732"><ele>483.6666666666667</ele><time>2026-04-25T14:09:31.014Z</time></trkpt><trkpt lat="45.5446949" lon="13.945115"><ele>483.33333333333337</ele><time>2026-04-25T14:09:32.022Z</time></trkpt><trkpt lat="45.5448631" lon="13.9451477"><ele>483.0</ele><time>2026-04-25T14:09:33.031Z</time></trkpt><trkpt lat="45.5450362" lon="13.9451672"><ele>483.0</ele><time>2026-04-25T14:09:34.017Z</time></trkpt><trkpt lat="45.5452132" lon="13.9451733"><ele>483.0</ele><time>2026-04-25T14:09:35.018Z</time></trkpt><trkpt lat="45.5453897" lon="13.9451826"><ele>483.0</ele><time>2026-04-25T14:09:36.043Z</time></trkpt><trkpt lat="45.5455671" lon="13.9452169"><ele>482.66666666666663</ele><time>2026-04-25T14:09:37.018Z</time></trkpt><trkpt lat="45.5457432" lon="13.9452449"><ele>482.3333333333333</ele><time>2026-04-25T14:09:38.014Z</time></trkpt><trkpt lat="45.5459165" lon="13.9452603"><ele>482.0</ele><time>2026-04-25T14:09:39.024Z</time></trkpt><trkpt lat="45.5460891" lon="13.9452637"><ele>482.3333333333333</ele><time>2026-04-25T14:09:40.026Z</time></trkpt><trkpt lat="45.546257" lon="13.9452701"><ele>482.66666666666663</ele><time>2026-04-25T14:09:41.037Z</time></trkpt><trkpt lat="45.5464132" lon="13.9452908"><ele>483.0</ele><time>2026-04-25T14:09:42.02Z</time></trkpt><trkpt lat="45.5465643" lon="13.9453136"><ele>483.0</ele><time>2026-04-25T14:09:43.024Z</time></trkpt><trkpt lat="45.5467199" lon="13.945309"><ele>483.0</ele><time>2026-04-25T14:09:44.022Z</time></trkpt><trkpt lat="45.5468828" lon="13.945267"><ele>483.0</ele><time>2026-04-25T14:09:45.024Z</time></trkpt><trkpt lat="45.5470483" lon="13.9452206"><ele>483.66666666666663</ele><time>2026-04-25T14:09:46.033Z</time></trkpt><trkpt lat="45.5472086" lon="13.9451783"><ele>484.3333333333333</ele><time>2026-04-25T14:09:47.032Z</time></trkpt><trkpt lat="45.5473625" lon="13.9451328"><ele>485.0</ele><time>2026-04-25T14:09:48.026Z</time></trkpt><trkpt lat="45.547517" lon="13.9450775"><ele>483.66666666666663</ele><time>2026-04-25T14:09:49.022Z</time></trkpt><trkpt lat="45.547673" lon="13.945021"><ele>482.33333333333337</ele><time>2026-04-25T14:09:50.03Z</time></trkpt><trkpt lat="45.5478314" lon="13.9449791"><ele>481.0</ele><time>2026-04-25T14:09:51.019Z</time></trkpt><trkpt lat="45.547998" lon="13.9449454"><ele>481.0</ele><time>2026-04-25T14:09:52.022Z</time></trkpt><trkpt lat="45.5481638" lon="13.9449191"><ele>481.0</ele><time>2026-04-25T14:09:53.026Z</time></trkpt><trkpt lat="45.5483315" lon="13.9448944"><ele>481.0</ele><time>2026-04-25T14:09:54.026Z</time></trkpt><trkpt lat="45.5485019" lon="13.9448699"><ele>481.0</ele><time>2026-04-25T14:09:55.023Z</time></trkpt><trkpt lat="45.5486733" lon="13.944845"><ele>481.0</ele><time>2026-04-25T14:09:56.024Z</time></trkpt><trkpt lat="45.5488439" lon="13.9448163"><ele>481.0</ele><time>2026-04-25T14:09:57.02Z</time></trkpt><trkpt lat="45.5490124" lon="13.9447861"><ele>482.33333333333337</ele><time>2026-04-25T14:09:58.027Z</time></trkpt><trkpt lat="45.5491758" lon="13.944766"><ele>483.66666666666663</ele><time>2026-04-25T14:09:59.014Z</time></trkpt><trkpt lat="45.5493396" lon="13.9447623"><ele>485.0</ele><time>2026-04-25T14:10:00.023Z</time></trkpt><trkpt lat="45.5494959" lon="13.9447862"><ele>485.3333333333333</ele><time>2026-04-25T14:10:01.028Z</time></trkpt><trkpt lat="45.5496555" lon="13.9448112"><ele>485.66666666666663</ele><time>2026-04-25T14:10:02.031Z</time></trkpt><trkpt lat="45.5498166" lon="13.9448263"><ele>486.0</ele><time>2026-04-25T14:10:03.018Z</time></trkpt><trkpt lat="45.5499802" lon="13.9448328"><ele>486.0</ele><time>2026-04-25T14:10:04.023Z</time></trkpt><trkpt lat="45.5501436" lon="13.9448374"><ele>486.0</ele><time>2026-04-25T14:10:05.041Z</time></trkpt><trkpt lat="45.5503074" lon="13.944844"><ele>486.0</ele><time>2026-04-25T14:10:06.023Z</time></trkpt><trkpt lat="45.5504761" lon="13.9448543"><ele>486.33333333333337</ele><time>2026-04-25T14:10:07.016Z</time></trkpt><trkpt lat="45.5506444" lon="13.944873"><ele>486.6666666666667</ele><time>2026-04-25T14:10:08.022Z</time></trkpt><trkpt lat="45.5508106" lon="13.9448999"><ele>487.0</ele><time>2026-04-25T14:10:09.023Z</time></trkpt><trkpt lat="45.5509753" lon="13.944929"><ele>487.0</ele><time>2026-04-25T14:10:10.021Z</time></trkpt><trkpt lat="45.5511394" lon="13.9449503"><ele>487.0</ele><time>2026-04-25T14:10:11.023Z</time></trkpt><trkpt lat="45.5513001" lon="13.9449613"><ele>487.0</ele><time>2026-04-25T14:10:12.029Z</time></trkpt><trkpt lat="45.5514535" lon="13.944975"><ele>487.5</ele><time>2026-04-25T14:10:13.033Z</time></trkpt><trkpt lat="45.5515921" lon="13.9449937"><ele>488.0</ele><time>2026-04-25T14:10:14.042Z</time></trkpt><trkpt lat="45.5517272" lon="13.9450164"><ele>488.5</ele><time>2026-04-25T14:10:15.03Z</time></trkpt><trkpt lat="45.5518669" lon="13.9450242"><ele>489.0</ele><time>2026-04-25T14:10:16.035Z</time></trkpt><trkpt lat="45.552008" lon="13.9450204"><ele>488.75</ele><time>2026-04-25T14:10:17.032Z</time></trkpt><trkpt lat="45.5521468" lon="13.9450209"><ele>488.5</ele><time>2026-04-25T14:10:18.037Z</time></trkpt><trkpt lat="45.5522848" lon="13.9450413"><ele>488.25</ele><time>2026-04-25T14:10:19.044Z</time></trkpt><trkpt lat="45.5524205" lon="13.9450883"><ele>488.0</ele><time>2026-04-25T14:10:20.04Z</time></trkpt><trkpt lat="45.5525686" lon="13.9451136"><ele>491.0</ele><time>2026-04-25T14:10:21.045Z</time></trkpt><trkpt lat="45.5527301" lon="13.9451155"><ele>494.0</ele><time>2026-04-25T14:10:22.034Z</time></trkpt><trkpt lat="45.5528927" lon="13.9451161"><ele>497.0</ele><time>2026-04-25T14:10:23.032Z</time></trkpt><trkpt lat="45.553044" lon="13.9451279"><ele>497.0</ele><time>2026-04-25T14:10:24.046Z</time></trkpt><trkpt lat="45.553188" lon="13.9451406"><ele>497.0</ele><time>2026-04-25T14:10:25.031Z</time></trkpt><trkpt lat="45.5533294" lon="13.9451475"><ele>497.0</ele><time>2026-04-25T14:10:26.048Z</time></trkpt><trkpt lat="45.5534693" lon="13.9451416"><ele>497.0</ele><time>2026-04-25T14:10:27.043Z</time></trkpt><trkpt lat="45.553614" lon="13.9451305"><ele>497.0</ele><time>2026-04-25T14:10:28.029Z</time></trkpt><trkpt lat="45.5537593" lon="13.9451183"><ele>497.0</ele><time>2026-04-25T14:10:29.025Z</time></trkpt><trkpt lat="45.553902" lon="13.9451191"><ele>497.0</ele><time>2026-04-25T14:10:30.033Z</time></trkpt><trkpt lat="45.5540353" lon="13.9451382"><ele>497.0</ele><time>2026-04-25T14:10:31.034Z</time></trkpt><trkpt lat="45.5541667" lon="13.9451627"><ele>497.0</ele><time>2026-04-25T14:10:32.036Z</time></trkpt><trkpt lat="45.554298" lon="13.9451928"><ele>497.0</ele><time>2026-04-25T14:10:33.033Z</time></trkpt><trkpt lat="45.5544315" lon="13.9452406"><ele>497.0</ele><time>2026-04-25T14:10:34.035Z</time></trkpt><trkpt lat="45.5545695" lon="13.9452985"><ele>497.0</ele><time>2026-04-25T14:10:35.037Z</time></trkpt><trkpt lat="45.5547036" lon="13.945344"><ele>496.5</ele><time>2026-04-25T14:10:36.03Z</time></trkpt><trkpt lat="45.5548386" lon="13.9453708"><ele>496.0</ele><time>2026-04-25T14:10:37.03Z</time></trkpt><trkpt lat="45.5549739" lon="13.9453783"><ele>495.5</ele><time>2026-04-25T14:10:38.029Z</time></trkpt><trkpt lat="45.5551091" lon="13.9453844"><ele>495.0</ele><time>2026-04-25T14:10:39.024Z</time></trkpt><trkpt lat="45.555251" lon="13.9453901"><ele>495.25</ele><time>2026-04-25T14:10:40.036Z</time></trkpt><trkpt lat="45.5553878" lon="13.9453988"><ele>495.5</ele><time>2026-04-25T14:10:41.026Z</time></trkpt><trkpt lat="45.5555168" lon="13.9454096"><ele>495.75</ele><time>2026-04-25T14:10:42.036Z</time></trkpt><trkpt lat="45.5556454" lon="13.9454242"><ele>496.0</ele><time>2026-04-25T14:10:43.044Z</time></trkpt><trkpt lat="45.5557799" lon="13.9454326"><ele>496.0</ele><time>2026-04-25T14:10:44.03Z</time></trkpt><trkpt lat="45.5559281" lon="13.9454124"><ele>496.0</ele><time>2026-04-25T14:10:45.042Z</time></trkpt><trkpt lat="45.5560744" lon="13.9453686"><ele>496.0</ele><time>2026-04-25T14:10:46.029Z</time></trkpt><trkpt lat="45.5562168" lon="13.945296"><ele>496.25</ele><time>2026-04-25T14:10:47.031Z</time></trkpt><trkpt lat="45.55635" lon="13.9452182"><ele>496.5</ele><time>2026-04-25T14:10:48.029Z</time></trkpt><trkpt lat="45.5564743" lon="13.9451353"><ele>496.75</ele><time>2026-04-25T14:10:49.037Z</time></trkpt><trkpt lat="45.5565999" lon="13.945042"><ele>497.0</ele><time>2026-04-25T14:10:50.038Z</time></trkpt><trkpt lat="45.5567223" lon="13.9449389"><ele>496.5</ele><time>2026-04-25T14:10:51.036Z</time></trkpt><trkpt lat="45.5568459" lon="13.9448306"><ele>496.0</ele><time>2026-04-25T14:10:52.044Z</time></trkpt><trkpt lat="45.5569707" lon="13.9447218"><ele>495.5</ele><time>2026-04-25T14:10:53.028Z</time></trkpt><trkpt lat="45.5570967" lon="13.9446127"><ele>495.0</ele><time>2026-04-25T14:10:54.029Z</time></trkpt><trkpt lat="45.5572176" lon="13.9445043"><ele>495.0</ele><time>2026-04-25T14:10:55.03Z</time></trkpt><trkpt lat="45.5573446" lon="13.9444028"><ele>495.0</ele><time>2026-04-25T14:10:56.034Z</time></trkpt><trkpt lat="45.557472" lon="13.9442987"><ele>495.0</ele><time>2026-04-25T14:10:57.031Z</time></trkpt><trkpt lat="45.5575857" lon="13.9441884"><ele>495.0</ele><time>2026-04-25T14:10:58.033Z</time></trkpt><trkpt lat="45.557687" lon="13.9440923"><ele>495.0</ele><time>2026-04-25T14:10:59.029Z</time></trkpt><trkpt lat="45.5577884" lon="13.9440098"><ele>495.0</ele><time>2026-04-25T14:11:00.034Z</time></trkpt><trkpt lat="45.5578896" lon="13.9439345"><ele>495.0</ele><time>2026-04-25T14:11:01.028Z</time></trkpt><trkpt lat="45.5579921" lon="13.9438673"><ele>495.0</ele><time>2026-04-25T14:11:02.043Z</time></trkpt><trkpt lat="45.5580819" lon="13.9438094"><ele>495.0</ele><time>2026-04-25T14:11:03.032Z</time></trkpt><trkpt lat="45.5581672" lon="13.943755"><ele>495.0</ele><time>2026-04-25T14:11:04.028Z</time></trkpt><trkpt lat="45.5582392" lon="13.9437093"><ele>495.0</ele><time>2026-04-25T14:11:05.027Z</time></trkpt><trkpt lat="45.5583199" lon="13.9436716"><ele>495.0</ele><time>2026-04-25T14:11:07.033Z</time></trkpt><trkpt lat="45.558399" lon="13.9436599"><ele>495.0</ele><time>2026-04-25T14:11:10.032Z</time></trkpt><trkpt lat="45.5584917" lon="13.9436207"><ele>495.0</ele><time>2026-04-25T14:11:13.037Z</time></trkpt><trkpt lat="45.5585791" lon="13.9435643"><ele>495.0</ele><time>2026-04-25T14:11:15.036Z</time></trkpt><trkpt lat="45.5586515" lon="13.9435236"><ele>495.5</ele><time>2026-04-25T14:11:17.037Z</time></trkpt><trkpt lat="45.5587198" lon="13.9434793"><ele>496.0</ele><time>2026-04-25T14:11:20.046Z</time></trkpt><trkpt lat="45.5587822" lon="13.943437"><ele>496.5</ele><time>2026-04-25T14:11:23.032Z</time></trkpt><trkpt lat="45.5588527" lon="13.9433773"><ele>497.0</ele><time>2026-04-25T14:11:25.037Z</time></trkpt><trkpt lat="45.5589165" lon="13.9433279"><ele>497.5</ele><time>2026-04-25T14:11:27.025Z</time></trkpt><trkpt lat="45.5589971" lon="13.9432787"><ele>498.0</ele><time>2026-04-25T14:11:30.027Z</time></trkpt><trkpt lat="45.5590719" lon="13.9432281"><ele>497.0</ele><time>2026-04-25T14:11:32.024Z</time></trkpt><trkpt lat="45.5591432" lon="13.9431835"><ele>496.0</ele><time>2026-04-25T14:11:34.03Z</time></trkpt><trkpt lat="45.5592098" lon="13.9431383"><ele>495.0</ele><time>2026-04-25T14:11:36.03Z</time></trkpt><trkpt lat="45.5592745" lon="13.9430901"><ele>494.0</ele><time>2026-04-25T14:11:39.037Z</time></trkpt><trkpt lat="45.55933" lon="13.9430243"><ele>493.0</ele><time>2026-04-25T14:11:42.04Z</time></trkpt><trkpt lat="45.5594044" lon="13.9429451"><ele>492.0</ele><time>2026-04-25T14:11:44.032Z</time></trkpt><trkpt lat="45.5594956" lon="13.9428648"><ele>492.6666666666667</ele><time>2026-04-25T14:11:46.03Z</time></trkpt><trkpt lat="45.5596023" lon="13.9427984"><ele>493.33333333333337</ele><time>2026-04-25T14:11:48.035Z</time></trkpt><trkpt lat="45.5596817" lon="13.9427536"><ele>494.0</ele><time>2026-04-25T14:11:50.033Z</time></trkpt><trkpt lat="45.5597453" lon="13.9427222"><ele>494.6666666666667</ele><time>2026-04-25T14:11:52.044Z</time></trkpt><trkpt lat="45.5598099" lon="13.9426974"><ele>495.33333333333337</ele><time>2026-04-25T14:11:54.042Z</time></trkpt><trkpt lat="45.5598989" lon="13.9426714"><ele>496.0</ele><time>2026-04-25T14:11:57.037Z</time></trkpt><trkpt lat="45.5599761" lon="13.9426229"><ele>495.0</ele><time>2026-04-25T14:11:59.03Z</time></trkpt><trkpt lat="45.5600846" lon="13.9425417"><ele>494.0</ele><time>2026-04-25T14:12:01.034Z</time></trkpt><trkpt lat="45.5601875" lon="13.9424717"><ele>493.0</ele><time>2026-04-25T14:12:03.043Z</time></trkpt><trkpt lat="45.5603158" lon="13.9424002"><ele>492.0</ele><time>2026-04-25T14:12:05.034Z</time></trkpt><trkpt lat="45.5603956" lon="13.9423651"><ele>492.0</ele><time>2026-04-25T14:12:06.032Z</time></trkpt><trkpt lat="45.5604669" lon="13.9423473"><ele>492.0</ele><time>2026-04-25T14:12:07.029Z</time></trkpt><trkpt lat="45.5605324" lon="13.9423184"><ele>492.0</ele><time>2026-04-25T14:12:08.026Z</time></trkpt><trkpt lat="45.5605917" lon="13.9422658"><ele>492.0</ele><time>2026-04-25T14:12:09.036Z</time></trkpt><trkpt lat="45.5606493" lon="13.9420925"><ele>492.0</ele><time>2026-04-25T14:12:11.026Z</time></trkpt><trkpt lat="45.5606842" lon="13.9420077"><ele>492.0</ele><time>2026-04-25T14:12:12.028Z</time></trkpt><trkpt lat="45.5607391" lon="13.9419625"><ele>492.0</ele><time>2026-04-25T14:12:13.041Z</time></trkpt><trkpt lat="45.5608776" lon="13.9419583"><ele>492.0</ele><time>2026-04-25T14:12:15.043Z</time></trkpt><trkpt lat="45.5609768" lon="13.9420025"><ele>492.0</ele><time>2026-04-25T14:12:16.032Z</time></trkpt><trkpt lat="45.561081" lon="13.9420554"><ele>492.0</ele><time>2026-04-25T14:12:17.033Z</time></trkpt><trkpt lat="45.5612028" lon="13.9420957"><ele>491.75</ele><time>2026-04-25T14:12:18.03Z</time></trkpt><trkpt lat="45.5613248" lon="13.9421302"><ele>491.5</ele><time>2026-04-25T14:12:19.032Z</time></trkpt><trkpt lat="45.5614353" lon="13.9421586"><ele>491.25</ele><time>2026-04-25T14:12:20.039Z</time></trkpt><trkpt lat="45.5615472" lon="13.9421624"><ele>491.0</ele><time>2026-04-25T14:12:21.033Z</time></trkpt><trkpt lat="45.5616691" lon="13.9421288"><ele>491.0</ele><time>2026-04-25T14:12:22.049Z</time></trkpt><trkpt lat="45.5617986" lon="13.9420685"><ele>491.0</ele><time>2026-04-25T14:12:23.037Z</time></trkpt><trkpt lat="45.5619407" lon="13.9419964"><ele>491.0</ele><time>2026-04-25T14:12:24.033Z</time></trkpt><trkpt lat="45.5620842" lon="13.9419342"><ele>491.0</ele><time>2026-04-25T14:12:25.035Z</time></trkpt><trkpt lat="45.5622255" lon="13.9418922"><ele>491.75</ele><time>2026-04-25T14:12:26.042Z</time></trkpt><trkpt lat="45.562364" lon="13.9418606"><ele>492.5</ele><time>2026-04-25T14:12:27.038Z</time></trkpt><trkpt lat="45.5624977" lon="13.9418324"><ele>493.25</ele><time>2026-04-25T14:12:28.031Z</time></trkpt><trkpt lat="45.5626351" lon="13.941792"><ele>494.0</ele><time>2026-04-25T14:12:29.035Z</time></trkpt><trkpt lat="45.562777" lon="13.9417268"><ele>493.0</ele><time>2026-04-25T14:12:30.036Z</time></trkpt><trkpt lat="45.562921" lon="13.9416497"><ele>492.0</ele><time>2026-04-25T14:12:31.03Z</time></trkpt><trkpt lat="45.5630764" lon="13.9415784"><ele>491.0</ele><time>2026-04-25T14:12:32.033Z</time></trkpt><trkpt lat="45.5632341" lon="13.9415186"><ele>491.0</ele><time>2026-04-25T14:12:33.032Z</time></trkpt><trkpt lat="45.5633848" lon="13.9414597"><ele>491.0</ele><time>2026-04-25T14:12:34.035Z</time></trkpt><trkpt lat="45.5635306" lon="13.9413739"><ele>491.0</ele><time>2026-04-25T14:12:35.029Z</time></trkpt><trkpt lat="45.5636829" lon="13.941291"><ele>491.75</ele><time>2026-04-25T14:12:36.036Z</time></trkpt><trkpt lat="45.5638238" lon="13.9412201"><ele>492.5</ele><time>2026-04-25T14:12:37.028Z</time></trkpt><trkpt lat="45.5639632" lon="13.9411891"><ele>493.25</ele><time>2026-04-25T14:12:38.035Z</time></trkpt><trkpt lat="45.5640859" lon="13.9411714"><ele>494.0</ele><time>2026-04-25T14:12:39.036Z</time></trkpt><trkpt lat="45.5642036" lon="13.9411826"><ele>494.0</ele><time>2026-04-25T14:12:40.041Z</time></trkpt><trkpt lat="45.5643173" lon="13.9412293"><ele>494.0</ele><time>2026-04-25T14:12:41.027Z</time></trkpt><trkpt lat="45.5644355" lon="13.9412716"><ele>494.0</ele><time>2026-04-25T14:12:42.04Z</time></trkpt><trkpt lat="45.5645561" lon="13.941279"><ele>494.0</ele><time>2026-04-25T14:12:43.036Z</time></trkpt><trkpt lat="45.5646662" lon="13.9412654"><ele>494.2</ele><time>2026-04-25T14:12:44.033Z</time></trkpt><trkpt lat="45.5647694" lon="13.9412659"><ele>494.4</ele><time>2026-04-25T14:12:45.029Z</time></trkpt><trkpt lat="45.5648785" lon="13.9412807"><ele>494.6</ele><time>2026-04-25T14:12:46.033Z</time></trkpt><trkpt lat="45.5649695" lon="13.9413072"><ele>494.8</ele><time>2026-04-25T14:12:47.033Z</time></trkpt><trkpt lat="45.5650556" lon="13.9413366"><ele>495.0</ele><time>2026-04-25T14:12:48.038Z</time></trkpt><trkpt lat="45.5651427" lon="13.9413678"><ele>495.0</ele><time>2026-04-25T14:12:49.03Z</time></trkpt><trkpt lat="45.565224" lon="13.9414149"><ele>495.0</ele><time>2026-04-25T14:12:50.044Z</time></trkpt><trkpt lat="45.5653002" lon="13.9414807"><ele>495.0</ele><time>2026-04-25T14:12:51.036Z</time></trkpt><trkpt lat="45.5653724" lon="13.9415445"><ele>495.0</ele><time>2026-04-25T14:12:52.032Z</time></trkpt><trkpt lat="45.5654471" lon="13.9416035"><ele>495.0</ele><time>2026-04-25T14:12:53.034Z</time></trkpt><trkpt lat="45.5655149" lon="13.9416787"><ele>495.0</ele><time>2026-04-25T14:12:54.032Z</time></trkpt><trkpt lat="45.5655713" lon="13.9417676"><ele>495.6666666666667</ele><time>2026-04-25T14:12:55.034Z</time></trkpt><trkpt lat="45.5656232" lon="13.9418583"><ele>496.33333333333337</ele><time>2026-04-25T14:12:56.034Z</time></trkpt><trkpt lat="45.5656697" lon="13.9419546"><ele>497.0</ele><time>2026-04-25T14:12:57.039Z</time></trkpt><trkpt lat="45.5657324" lon="13.9420308"><ele>497.6666666666667</ele><time>2026-04-25T14:12:58.037Z</time></trkpt><trkpt lat="45.5657984" lon="13.9420858"><ele>498.33333333333337</ele><time>2026-04-25T14:12:59.026Z</time></trkpt><trkpt lat="45.5658679" lon="13.9421635"><ele>499.0</ele><time>2026-04-25T14:13:01.035Z</time></trkpt><trkpt lat="45.5658611" lon="13.9422773"><ele>499.00000000000006</ele><time>2026-04-25T14:13:04.017Z</time></trkpt><trkpt lat="45.5658587" lon="13.9423737"><ele>499.0</ele><time>2026-04-25T14:13:08.01Z</time></trkpt><trkpt lat="45.5658936" lon="13.9422805"><ele>499.0</ele><time>2026-04-25T14:25:26.024Z</time></trkpt><trkpt lat="45.565841" lon="13.9421646"><ele>499.0</ele><time>2026-04-25T14:25:28.035Z</time></trkpt><trkpt lat="45.5657951" lon="13.9420993"><ele>499.00000000000006</ele><time>2026-04-25T14:25:30.051Z</time></trkpt><trkpt lat="45.5657979" lon="13.9419997"><ele>499.0</ele><time>2026-04-25T14:25:33.021Z</time></trkpt><trkpt lat="45.5659062" lon="13.9419697"><ele>499.00000000000006</ele><time>2026-04-25T14:25:35.026Z</time></trkpt><trkpt lat="45.5659797" lon="13.9419551"><ele>499.0</ele><time>2026-04-25T14:25:36.015Z</time></trkpt><trkpt lat="45.5660618" lon="13.9419324"><ele>499.0</ele><time>2026-04-25T14:25:37.029Z</time></trkpt><trkpt lat="45.5661507" lon="13.9418947"><ele>499.0</ele><time>2026-04-25T14:25:38.005Z</time></trkpt><trkpt lat="45.5662424" lon="13.9418539"><ele>499.00000000000006</ele><time>2026-04-25T14:25:39.022Z</time></trkpt><trkpt lat="45.5663357" lon="13.9418288"><ele>499.0</ele><time>2026-04-25T14:25:40.021Z</time></trkpt><trkpt lat="45.5664276" lon="13.9418268"><ele>498.79999999999995</ele><time>2026-04-25T14:25:41.012Z</time></trkpt><trkpt lat="45.5665205" lon="13.9418324"><ele>498.59999999999997</ele><time>2026-04-25T14:25:42.019Z</time></trkpt><trkpt lat="45.5666168" lon="13.9418373"><ele>498.4</ele><time>2026-04-25T14:25:43.017Z</time></trkpt><trkpt lat="45.5667217" lon="13.9418328"><ele>498.2</ele><time>2026-04-25T14:25:44.019Z</time></trkpt><trkpt lat="45.5668405" lon="13.9418046"><ele>498.0</ele><time>2026-04-25T14:25:45.033Z</time></trkpt><trkpt lat="45.5669733" lon="13.9417537"><ele>494.0</ele><time>2026-04-25T14:25:46.007Z</time></trkpt><trkpt lat="45.5671011" lon="13.9416853"><ele>490.0</ele><time>2026-04-25T14:25:47.009Z</time></trkpt><trkpt lat="45.5672145" lon="13.9416062"><ele>486.0</ele><time>2026-04-25T14:25:48.013Z</time></trkpt><trkpt lat="45.5673146" lon="13.941523"><ele>482.0</ele><time>2026-04-25T14:25:49.015Z</time></trkpt><trkpt lat="45.5674007" lon="13.9414315"><ele>482.0</ele><time>2026-04-25T14:25:50.011Z</time></trkpt><trkpt lat="45.5674817" lon="13.9413336"><ele>482.0</ele><time>2026-04-25T14:25:51.025Z</time></trkpt><trkpt lat="45.5675719" lon="13.9412341"><ele>482.0</ele><time>2026-04-25T14:25:52.012Z</time></trkpt><trkpt lat="45.5676643" lon="13.9411413"><ele>482.0</ele><time>2026-04-25T14:25:53.016Z</time></trkpt><trkpt lat="45.5677842" lon="13.9410778"><ele>484.25</ele><time>2026-04-25T14:25:54.023Z</time></trkpt><trkpt lat="45.5679089" lon="13.9410259"><ele>486.5</ele><time>2026-04-25T14:25:55.013Z</time></trkpt><trkpt lat="45.5680217" lon="13.940962"><ele>488.75</ele><time>2026-04-25T14:25:56.006Z</time></trkpt><trkpt lat="45.5681344" lon="13.9408947"><ele>491.0</ele><time>2026-04-25T14:25:57.012Z</time></trkpt><trkpt lat="45.5682523" lon="13.940829"><ele>488.20000000000005</ele><time>2026-04-25T14:25:58.005Z</time></trkpt><trkpt lat="45.568357" lon="13.9407731"><ele>485.40000000000003</ele><time>2026-04-25T14:25:59.017Z</time></trkpt><trkpt lat="45.5684534" lon="13.9407327"><ele>482.6</ele><time>2026-04-25T14:26:00.007Z</time></trkpt><trkpt lat="45.5685574" lon="13.9407182"><ele>479.8</ele><time>2026-04-25T14:26:01.012Z</time></trkpt><trkpt lat="45.5686563" lon="13.9407378"><ele>477.0</ele><time>2026-04-25T14:26:02.036Z</time></trkpt><trkpt lat="45.5687524" lon="13.9407736"><ele>477.0</ele><time>2026-04-25T14:26:03.016Z</time></trkpt><trkpt lat="45.5688521" lon="13.9407976"><ele>477.00000000000006</ele><time>2026-04-25T14:26:04.02Z</time></trkpt><trkpt lat="45.5689536" lon="13.9408019"><ele>477.00000000000006</ele><time>2026-04-25T14:26:05.008Z</time></trkpt><trkpt lat="45.5690599" lon="13.9408043"><ele>477.0</ele><time>2026-04-25T14:26:06.012Z</time></trkpt><trkpt lat="45.5691614" lon="13.9408021"><ele>477.0</ele><time>2026-04-25T14:26:06.999Z</time></trkpt><trkpt lat="45.5692566" lon="13.9407965"><ele>477.0</ele><time>2026-04-25T14:26:08.02Z</time></trkpt><trkpt lat="45.5693525" lon="13.9407761"><ele>477.00000000000006</ele><time>2026-04-25T14:26:09.017Z</time></trkpt><trkpt lat="45.5694477" lon="13.9407325"><ele>477.00000000000006</ele><time>2026-04-25T14:26:10.009Z</time></trkpt><trkpt lat="45.569548" lon="13.940677"><ele>477.0</ele><time>2026-04-25T14:26:11.027Z</time></trkpt><trkpt lat="45.5696538" lon="13.9406155"><ele>477.0</ele><time>2026-04-25T14:26:12.016Z</time></trkpt><trkpt lat="45.5697547" lon="13.9405331"><ele>479.0</ele><time>2026-04-25T14:26:13.012Z</time></trkpt><trkpt lat="45.5698561" lon="13.9404498"><ele>481.00000000000006</ele><time>2026-04-25T14:26:14.027Z</time></trkpt><trkpt lat="45.5699466" lon="13.9403728"><ele>483.00000000000006</ele><time>2026-04-25T14:26:15.009Z</time></trkpt><trkpt lat="45.5700195" lon="13.940313"><ele>485.0</ele><time>2026-04-25T14:26:16.024Z</time></trkpt><trkpt lat="45.5700825" lon="13.9402521"><ele>487.0</ele><time>2026-04-25T14:26:17.013Z</time></trkpt><trkpt lat="45.5701307" lon="13.9401769"><ele>487.00000000000006</ele><time>2026-04-25T14:26:18.02Z</time></trkpt><trkpt lat="45.5701753" lon="13.9400892"><ele>487.0</ele><time>2026-04-25T14:26:19.008Z</time></trkpt><trkpt lat="45.5702294" lon="13.9399939"><ele>487.0</ele><time>2026-04-25T14:26:20.004Z</time></trkpt><trkpt lat="45.5702925" lon="13.9399008"><ele>487.0</ele><time>2026-04-25T14:26:21.006Z</time></trkpt><trkpt lat="45.5703626" lon="13.9398099"><ele>487.00000000000006</ele><time>2026-04-25T14:26:22.022Z</time></trkpt><trkpt lat="45.5704371" lon="13.9397183"><ele>487.0</ele><time>2026-04-25T14:26:23.017Z</time></trkpt><trkpt lat="45.5705142" lon="13.9396269"><ele>486.20000000000005</ele><time>2026-04-25T14:26:24.03Z</time></trkpt><trkpt lat="45.5705987" lon="13.9395402"><ele>485.40000000000003</ele><time>2026-04-25T14:26:25.017Z</time></trkpt><trkpt lat="45.5706884" lon="13.9394605"><ele>484.59999999999997</ele><time>2026-04-25T14:26:26.018Z</time></trkpt><trkpt lat="45.5707796" lon="13.939376"><ele>483.79999999999995</ele><time>2026-04-25T14:26:27.016Z</time></trkpt><trkpt lat="45.5708698" lon="13.9392876"><ele>483.0</ele><time>2026-04-25T14:26:28.016Z</time></trkpt><trkpt lat="45.5709528" lon="13.9391817"><ele>480.6666666666667</ele><time>2026-04-25T14:26:29.017Z</time></trkpt><trkpt lat="45.5710263" lon="13.9390889"><ele>478.33333333333337</ele><time>2026-04-25T14:26:30.022Z</time></trkpt><trkpt lat="45.5710735" lon="13.9390146"><ele>476.0</ele><time>2026-04-25T14:26:31.022Z</time></trkpt><trkpt lat="45.5711455" lon="13.9389201"><ele>473.6666666666667</ele><time>2026-04-25T14:26:33.013Z</time></trkpt><trkpt lat="45.5712017" lon="13.9388687"><ele>471.33333333333337</ele><time>2026-04-25T14:26:35.021Z</time></trkpt><trkpt lat="45.571287" lon="13.9388671"><ele>469.0</ele><time>2026-04-25T14:26:38.014Z</time></trkpt><trkpt lat="45.5713568" lon="13.9388399"><ele>469.00000000000006</ele><time>2026-04-25T14:26:41.021Z</time></trkpt><trkpt lat="45.5713892" lon="13.9387513"><ele>469.0</ele><time>2026-04-25T14:26:42.013Z</time></trkpt><trkpt lat="45.5714289" lon="13.938666"><ele>469.0</ele><time>2026-04-25T14:26:43.017Z</time></trkpt><trkpt lat="45.5714899" lon="13.9386145"><ele>469.0</ele><time>2026-04-25T14:26:44.015Z</time></trkpt><trkpt lat="45.5715763" lon="13.9386092"><ele>469.00000000000006</ele><time>2026-04-25T14:26:45.018Z</time></trkpt><trkpt lat="45.5716746" lon="13.9386318"><ele>469.0</ele><time>2026-04-25T14:26:46.014Z</time></trkpt><trkpt lat="45.5717836" lon="13.9386468"><ele>469.0</ele><time>2026-04-25T14:26:47.016Z</time></trkpt><trkpt lat="45.5718986" lon="13.9386372"><ele>469.0</ele><time>2026-04-25T14:26:48.017Z</time></trkpt><trkpt lat="45.5720098" lon="13.9386351"><ele>469.0</ele><time>2026-04-25T14:26:49.01Z</time></trkpt><trkpt lat="45.5721262" lon="13.9386493"><ele>469.0</ele><time>2026-04-25T14:26:50.014Z</time></trkpt><trkpt lat="45.5722451" lon="13.9386726"><ele>471.6</ele><time>2026-04-25T14:26:51.003Z</time></trkpt><trkpt lat="45.5723618" lon="13.9386973"><ele>474.2</ele><time>2026-04-25T14:26:52.003Z</time></trkpt><trkpt lat="45.5724678" lon="13.9387145"><ele>476.80000000000007</ele><time>2026-04-25T14:26:53.006Z</time></trkpt><trkpt lat="45.5725583" lon="13.938715"><ele>479.40000000000003</ele><time>2026-04-25T14:26:54.019Z</time></trkpt><trkpt lat="45.5726358" lon="13.9386928"><ele>482.0</ele><time>2026-04-25T14:26:55.007Z</time></trkpt><trkpt lat="45.5727117" lon="13.9386269"><ele>482.0</ele><time>2026-04-25T14:26:56.011Z</time></trkpt><trkpt lat="45.5727842" lon="13.9385366"><ele>482.00000000000006</ele><time>2026-04-25T14:26:57.003Z</time></trkpt><trkpt lat="45.572865" lon="13.9384442"><ele>482.00000000000006</ele><time>2026-04-25T14:26:58.006Z</time></trkpt><trkpt lat="45.572951" lon="13.9383453"><ele>482.0</ele><time>2026-04-25T14:26:59.011Z</time></trkpt><trkpt lat="45.5730447" lon="13.9382343"><ele>482.0</ele><time>2026-04-25T14:27:00.002Z</time></trkpt><trkpt lat="45.5731474" lon="13.9381204"><ele>480.75</ele><time>2026-04-25T14:27:01.006Z</time></trkpt><trkpt lat="45.5732477" lon="13.9380184"><ele>479.5</ele><time>2026-04-25T14:27:02.007Z</time></trkpt><trkpt lat="45.57334" lon="13.9379059"><ele>478.25</ele><time>2026-04-25T14:27:03.014Z</time></trkpt><trkpt lat="45.5734359" lon="13.9377863"><ele>477.0</ele><time>2026-04-25T14:27:04.01Z</time></trkpt><trkpt lat="45.573537" lon="13.9376702"><ele>477.0</ele><time>2026-04-25T14:27:05.011Z</time></trkpt><trkpt lat="45.5736398" lon="13.9375568"><ele>477.0</ele><time>2026-04-25T14:27:06.012Z</time></trkpt><trkpt lat="45.5737453" lon="13.9374468"><ele>477.0</ele><time>2026-04-25T14:27:07.008Z</time></trkpt><trkpt lat="45.5738514" lon="13.9373385"><ele>477.0</ele><time>2026-04-25T14:27:08.014Z</time></trkpt><trkpt lat="45.5739575" lon="13.9372303"><ele>479.0</ele><time>2026-04-25T14:27:09.016Z</time></trkpt><trkpt lat="45.5740646" lon="13.937122"><ele>481.0</ele><time>2026-04-25T14:27:10.008Z</time></trkpt><trkpt lat="45.5741739" lon="13.9370147"><ele>483.0</ele><time>2026-04-25T14:27:11.018Z</time></trkpt><trkpt lat="45.5742765" lon="13.9369238"><ele>485.0</ele><time>2026-04-25T14:27:12.012Z</time></trkpt><trkpt lat="45.574366" lon="13.9368674"><ele>484.99999999999994</ele><time>2026-04-25T14:27:13.023Z</time></trkpt><trkpt lat="45.5744434" lon="13.9368554"><ele>485.0</ele><time>2026-04-25T14:27:14.019Z</time></trkpt><trkpt lat="45.5745087" lon="13.936868"><ele>485.0</ele><time>2026-04-25T14:27:15.015Z</time></trkpt><trkpt lat="45.5745871" lon="13.9368832"><ele>485.0</ele><time>2026-04-25T14:27:16.015Z</time></trkpt><trkpt lat="45.5746874" lon="13.9368799"><ele>484.99999999999994</ele><time>2026-04-25T14:27:17.025Z</time></trkpt><trkpt lat="45.5748012" lon="13.9368799"><ele>485.0</ele><time>2026-04-25T14:27:18.018Z</time></trkpt><trkpt lat="45.5749241" lon="13.9368711"><ele>484.25</ele><time>2026-04-25T14:27:19.02Z</time></trkpt><trkpt lat="45.5750563" lon="13.9368481"><ele>483.5</ele><time>2026-04-25T14:27:20.016Z</time></trkpt><trkpt lat="45.5751949" lon="13.9367986"><ele>482.75</ele><time>2026-04-25T14:27:21.011Z</time></trkpt><trkpt lat="45.5753384" lon="13.9367295"><ele>482.0</ele><time>2026-04-25T14:27:22.014Z</time></trkpt><trkpt lat="45.5754822" lon="13.936643"><ele>482.0</ele><time>2026-04-25T14:27:23.021Z</time></trkpt><trkpt lat="45.5756325" lon="13.936561"><ele>482.0</ele><time>2026-04-25T14:27:24.018Z</time></trkpt><trkpt lat="45.5757875" lon="13.9364977"><ele>482.0</ele><time>2026-04-25T14:27:25.011Z</time></trkpt><trkpt lat="45.57594" lon="13.936433"><ele>482.0</ele><time>2026-04-25T14:27:26.001Z</time></trkpt><trkpt lat="45.5760907" lon="13.936343"><ele>482.0</ele><time>2026-04-25T14:27:27.015Z</time></trkpt><trkpt lat="45.5762395" lon="13.9362177"><ele>482.0</ele><time>2026-04-25T14:27:28.017Z</time></trkpt><trkpt lat="45.5763893" lon="13.9360761"><ele>480.66666666666663</ele><time>2026-04-25T14:27:29.01Z</time></trkpt><trkpt lat="45.5765367" lon="13.9359301"><ele>479.33333333333337</ele><time>2026-04-25T14:27:30.025Z</time></trkpt><trkpt lat="45.5766811" lon="13.9357807"><ele>478.0</ele><time>2026-04-25T14:27:31.009Z</time></trkpt><trkpt lat="45.5768307" lon="13.9356495"><ele>478.0</ele><time>2026-04-25T14:27:32.018Z</time></trkpt><trkpt lat="45.5769956" lon="13.9355318"><ele>478.0</ele><time>2026-04-25T14:27:33.014Z</time></trkpt><trkpt lat="45.5771734" lon="13.9354282"><ele>478.0</ele><time>2026-04-25T14:27:34.018Z</time></trkpt><trkpt lat="45.5773545" lon="13.9353317"><ele>478.0</ele><time>2026-04-25T14:27:35.001Z</time></trkpt><trkpt lat="45.5775338" lon="13.9352407"><ele>478.0</ele><time>2026-04-25T14:27:36.019Z</time></trkpt><trkpt lat="45.5777089" lon="13.9351531"><ele>478.0</ele><time>2026-04-25T14:27:37.031Z</time></trkpt><trkpt lat="45.5778836" lon="13.9350513"><ele>478.0</ele><time>2026-04-25T14:27:38.011Z</time></trkpt><trkpt lat="45.5780609" lon="13.9349282"><ele>478.0</ele><time>2026-04-25T14:27:39.011Z</time></trkpt><trkpt lat="45.5782434" lon="13.9347855"><ele>478.0</ele><time>2026-04-25T14:27:40.023Z</time></trkpt><trkpt lat="45.5784253" lon="13.9346534"><ele>478.0</ele><time>2026-04-25T14:27:41.019Z</time></trkpt><trkpt lat="45.5786005" lon="13.9345274"><ele>478.0</ele><time>2026-04-25T14:27:42.014Z</time></trkpt><trkpt lat="45.5787756" lon="13.9343896"><ele>478.0</ele><time>2026-04-25T14:27:43.01Z</time></trkpt><trkpt lat="45.5789526" lon="13.9342554"><ele>475.0</ele><time>2026-04-25T14:27:44.007Z</time></trkpt><trkpt lat="45.579131" lon="13.9341229"><ele>472.0</ele><time>2026-04-25T14:27:45.024Z</time></trkpt><trkpt lat="45.5792996" lon="13.9339995"><ele>469.0</ele><time>2026-04-25T14:27:46.008Z</time></trkpt><trkpt lat="45.5794571" lon="13.9338909"><ele>472.6666666666667</ele><time>2026-04-25T14:27:47.008Z</time></trkpt><trkpt lat="45.5796169" lon="13.9337874"><ele>476.33333333333337</ele><time>2026-04-25T14:27:48.012Z</time></trkpt><trkpt lat="45.5797805" lon="13.9336925"><ele>480.0</ele><time>2026-04-25T14:27:49.009Z</time></trkpt><trkpt lat="45.579953" lon="13.9336033"><ele>480.0</ele><time>2026-04-25T14:27:50.024Z</time></trkpt><trkpt lat="45.580129" lon="13.9335059"><ele>480.0</ele><time>2026-04-25T14:27:51.011Z</time></trkpt><trkpt lat="45.5803014" lon="13.9334138"><ele>480.0</ele><time>2026-04-25T14:27:52.017Z</time></trkpt><trkpt lat="45.5804639" lon="13.9333222"><ele>475.66666666666663</ele><time>2026-04-25T14:27:53.018Z</time></trkpt><trkpt lat="45.580619" lon="13.9332272"><ele>471.3333333333333</ele><time>2026-04-25T14:27:54.009Z</time></trkpt><trkpt lat="45.5807766" lon="13.9331294"><ele>467.0</ele><time>2026-04-25T14:27:55.013Z</time></trkpt><trkpt lat="45.5809357" lon="13.9330309"><ele>467.0</ele><time>2026-04-25T14:27:56.024Z</time></trkpt><trkpt lat="45.5810985" lon="13.9329306"><ele>467.0</ele><time>2026-04-25T14:27:57.011Z</time></trkpt><trkpt lat="45.5812603" lon="13.9328168"><ele>467.0</ele><time>2026-04-25T14:27:58.009Z</time></trkpt><trkpt lat="45.5814248" lon="13.9326939"><ele>464.3333333333333</ele><time>2026-04-25T14:27:59.011Z</time></trkpt><trkpt lat="45.5815929" lon="13.9325748"><ele>461.66666666666663</ele><time>2026-04-25T14:28:00.022Z</time></trkpt><trkpt lat="45.581767" lon="13.9324678"><ele>459.0</ele><time>2026-04-25T14:28:01.013Z</time></trkpt><trkpt lat="45.5819479" lon="13.9323626"><ele>461.0</ele><time>2026-04-25T14:28:02.01Z</time></trkpt><trkpt lat="45.5821336" lon="13.9322706"><ele>463.0</ele><time>2026-04-25T14:28:03.025Z</time></trkpt><trkpt lat="45.5823147" lon="13.9321795"><ele>465.0</ele><time>2026-04-25T14:28:04.021Z</time></trkpt><trkpt lat="45.5824928" lon="13.9320846"><ele>465.0</ele><time>2026-04-25T14:28:05.009Z</time></trkpt><trkpt lat="45.5826705" lon="13.9319938"><ele>465.0</ele><time>2026-04-25T14:28:06.028Z</time></trkpt><trkpt lat="45.5828503" lon="13.9319079"><ele>465.0</ele><time>2026-04-25T14:28:07.014Z</time></trkpt><trkpt lat="45.5830298" lon="13.9318247"><ele>467.33333333333337</ele><time>2026-04-25T14:28:08.019Z</time></trkpt><trkpt lat="45.5832075" lon="13.9317426"><ele>469.6666666666667</ele><time>2026-04-25T14:28:09.019Z</time></trkpt><trkpt lat="45.5833904" lon="13.93166"><ele>472.0</ele><time>2026-04-25T14:28:10.021Z</time></trkpt><trkpt lat="45.5835774" lon="13.9315756"><ele>468.0</ele><time>2026-04-25T14:28:11.011Z</time></trkpt><trkpt lat="45.5837729" lon="13.9314778"><ele>464.0</ele><time>2026-04-25T14:28:12.015Z</time></trkpt><trkpt lat="45.5839665" lon="13.9313633"><ele>460.0</ele><time>2026-04-25T14:28:13.01Z</time></trkpt><trkpt lat="45.5841508" lon="13.9312345"><ele>460.0</ele><time>2026-04-25T14:28:14.024Z</time></trkpt><trkpt lat="45.5843413" lon="13.9311055"><ele>460.0</ele><time>2026-04-25T14:28:15.014Z</time></trkpt><trkpt lat="45.5845326" lon="13.9309817"><ele>460.0</ele><time>2026-04-25T14:28:16.011Z</time></trkpt><trkpt lat="45.5847229" lon="13.9308594"><ele>456.6666666666667</ele><time>2026-04-25T14:28:17.014Z</time></trkpt><trkpt lat="45.5849077" lon="13.9307392"><ele>453.33333333333337</ele><time>2026-04-25T14:28:18.004Z</time></trkpt><trkpt lat="45.5850869" lon="13.9306201"><ele>450.0</ele><time>2026-04-25T14:28:19.027Z</time></trkpt><trkpt lat="45.5852626" lon="13.9304917"><ele>454.33333333333337</ele><time>2026-04-25T14:28:20.009Z</time></trkpt><trkpt lat="45.585421" lon="13.9303619"><ele>458.6666666666667</ele><time>2026-04-25T14:28:21.013Z</time></trkpt><trkpt lat="45.5855833" lon="13.9302328"><ele>463.0</ele><time>2026-04-25T14:28:22.023Z</time></trkpt><trkpt lat="45.5857488" lon="13.9301098"><ele>460.33333333333337</ele><time>2026-04-25T14:28:23.007Z</time></trkpt><trkpt lat="45.5859118" lon="13.9299982"><ele>457.66666666666663</ele><time>2026-04-25T14:28:24.021Z</time></trkpt><trkpt lat="45.5860726" lon="13.9299016"><ele>455.0</ele><time>2026-04-25T14:28:25.012Z</time></trkpt><trkpt lat="45.58623" lon="13.9297996"><ele>455.0</ele><time>2026-04-25T14:28:26.02Z</time></trkpt><trkpt lat="45.5863852" lon="13.9296943"><ele>455.0</ele><time>2026-04-25T14:28:27.018Z</time></trkpt><trkpt lat="45.5865372" lon="13.929596"><ele>455.0</ele><time>2026-04-25T14:28:28.023Z</time></trkpt><trkpt lat="45.5866863" lon="13.9295159"><ele>455.0</ele><time>2026-04-25T14:28:29.01Z</time></trkpt><trkpt lat="45.5868122" lon="13.9294499"><ele>455.0</ele><time>2026-04-25T14:28:30.014Z</time></trkpt><trkpt lat="45.5869103" lon="13.9293936"><ele>455.0</ele><time>2026-04-25T14:28:31.014Z</time></trkpt><trkpt lat="45.586971" lon="13.9293126"><ele>455.0</ele><time>2026-04-25T14:28:32.015Z</time></trkpt><trkpt lat="45.5870266" lon="13.9292002"><ele>455.0</ele><time>2026-04-25T14:28:34.012Z</time></trkpt><trkpt lat="45.5871338" lon="13.929089"><ele>451.25</ele><time>2026-04-25T14:28:36.008Z</time></trkpt><trkpt lat="45.5872344" lon="13.9290605"><ele>447.5</ele><time>2026-04-25T14:28:37.016Z</time></trkpt><trkpt lat="45.5873572" lon="13.9290462"><ele>443.75</ele><time>2026-04-25T14:28:38.006Z</time></trkpt><trkpt lat="45.5874961" lon="13.9290284"><ele>440.0</ele><time>2026-04-25T14:28:39.015Z</time></trkpt><trkpt lat="45.5876566" lon="13.9290024"><ele>440.0</ele><time>2026-04-25T14:28:40.013Z</time></trkpt><trkpt lat="45.5878307" lon="13.9289656"><ele>440.0</ele><time>2026-04-25T14:28:41.01Z</time></trkpt><trkpt lat="45.5880127" lon="13.9289304"><ele>440.0</ele><time>2026-04-25T14:28:42.01Z</time></trkpt><trkpt lat="45.5881959" lon="13.9288936"><ele>441.3333333333333</ele><time>2026-04-25T14:28:43.016Z</time></trkpt><trkpt lat="45.5883806" lon="13.9288707"><ele>442.66666666666663</ele><time>2026-04-25T14:28:44.003Z</time></trkpt><trkpt lat="45.5885768" lon="13.9288739"><ele>444.0</ele><time>2026-04-25T14:28:45.009Z</time></trkpt><trkpt lat="45.5887826" lon="13.928896"><ele>444.0</ele><time>2026-04-25T14:28:46.019Z</time></trkpt><trkpt lat="45.5889932" lon="13.9289293"><ele>444.0</ele><time>2026-04-25T14:28:47.011Z</time></trkpt><trkpt lat="45.5891931" lon="13.9289811"><ele>444.0</ele><time>2026-04-25T14:28:48.013Z</time></trkpt><trkpt lat="45.5893837" lon="13.9290452"><ele>444.33333333333337</ele><time>2026-04-25T14:28:49.011Z</time></trkpt><trkpt lat="45.5895726" lon="13.9291243"><ele>444.6666666666667</ele><time>2026-04-25T14:28:50.016Z</time></trkpt><trkpt lat="45.5897631" lon="13.9292094"><ele>445.0</ele><time>2026-04-25T14:28:51.016Z</time></trkpt><trkpt lat="45.5899555" lon="13.92929"><ele>449.0</ele><time>2026-04-25T14:28:52.026Z</time></trkpt><trkpt lat="45.5901492" lon="13.9293581"><ele>453.0</ele><time>2026-04-25T14:28:53.015Z</time></trkpt><trkpt lat="45.5903463" lon="13.9294161"><ele>457.0</ele><time>2026-04-25T14:28:54.015Z</time></trkpt><trkpt lat="45.5905482" lon="13.9294636"><ele>459.0</ele><time>2026-04-25T14:28:55.022Z</time></trkpt><trkpt lat="45.590753" lon="13.9294975"><ele>461.0</ele><time>2026-04-25T14:28:56.014Z</time></trkpt><trkpt lat="45.5909617" lon="13.9295112"><ele>463.0</ele><time>2026-04-25T14:28:57.018Z</time></trkpt><trkpt lat="45.5911754" lon="13.9295116"><ele>464.6666666666667</ele><time>2026-04-25T14:28:58.012Z</time></trkpt><trkpt lat="45.5913847" lon="13.9294915"><ele>466.33333333333337</ele><time>2026-04-25T14:28:59.016Z</time></trkpt><trkpt lat="45.5915978" lon="13.9294591"><ele>468.0</ele><time>2026-04-25T14:29:00.009Z</time></trkpt><trkpt lat="45.5918086" lon="13.9294254"><ele>468.66666666666663</ele><time>2026-04-25T14:29:01.01Z</time></trkpt><trkpt lat="45.5920221" lon="13.9293876"><ele>469.3333333333333</ele><time>2026-04-25T14:29:02.013Z</time></trkpt><trkpt lat="45.5922349" lon="13.929356"><ele>470.0</ele><time>2026-04-25T14:29:03.016Z</time></trkpt><trkpt lat="45.5924424" lon="13.9293247"><ele>470.0</ele><time>2026-04-25T14:29:04.013Z</time></trkpt><trkpt lat="45.5926444" lon="13.9292931"><ele>470.0</ele><time>2026-04-25T14:29:05.018Z</time></trkpt><trkpt lat="45.5928433" lon="13.9292577"><ele>470.0</ele><time>2026-04-25T14:29:06.03Z</time></trkpt><trkpt lat="45.5930403" lon="13.929228"><ele>464.66666666666663</ele><time>2026-04-25T14:29:07.025Z</time></trkpt><trkpt lat="45.593236" lon="13.929193"><ele>459.33333333333337</ele><time>2026-04-25T14:29:08.02Z</time></trkpt><trkpt lat="45.5934317" lon="13.9291631"><ele>454.0</ele><time>2026-04-25T14:29:09.023Z</time></trkpt><trkpt lat="45.5936332" lon="13.9291355"><ele>454.6666666666667</ele><time>2026-04-25T14:29:10.016Z</time></trkpt><trkpt lat="45.5938428" lon="13.9291008"><ele>455.33333333333337</ele><time>2026-04-25T14:29:11.005Z</time></trkpt><trkpt lat="45.5940531" lon="13.9290697"><ele>456.0</ele><time>2026-04-25T14:29:12.001Z</time></trkpt><trkpt lat="45.5942605" lon="13.9290346"><ele>456.0</ele><time>2026-04-25T14:29:13.014Z</time></trkpt><trkpt lat="45.5944713" lon="13.9289994"><ele>456.0</ele><time>2026-04-25T14:29:14.018Z</time></trkpt><trkpt lat="45.594681" lon="13.9289635"><ele>456.0</ele><time>2026-04-25T14:29:15.009Z</time></trkpt><trkpt lat="45.5948912" lon="13.928934"><ele>458.0</ele><time>2026-04-25T14:29:16.015Z</time></trkpt><trkpt lat="45.5951" lon="13.9288977"><ele>460.0</ele><time>2026-04-25T14:29:17.005Z</time></trkpt><trkpt lat="45.5953119" lon="13.9288638"><ele>462.0</ele><time>2026-04-25T14:29:18.007Z</time></trkpt><trkpt lat="45.5955222" lon="13.9288275"><ele>463.66666666666663</ele><time>2026-04-25T14:29:19.006Z</time></trkpt><trkpt lat="45.5957352" lon="13.9287946"><ele>465.3333333333333</ele><time>2026-04-25T14:29:20.019Z</time></trkpt><trkpt lat="45.5959508" lon="13.9287609"><ele>467.0</ele><time>2026-04-25T14:29:21.004Z</time></trkpt><trkpt lat="45.5961665" lon="13.9287302"><ele>467.0</ele><time>2026-04-25T14:29:22.013Z</time></trkpt><trkpt lat="45.5963769" lon="13.9286971"><ele>467.0</ele><time>2026-04-25T14:29:23.017Z</time></trkpt><trkpt lat="45.596587" lon="13.9286605"><ele>467.0</ele><time>2026-04-25T14:29:24.017Z</time></trkpt><trkpt lat="45.5967949" lon="13.9286249"><ele>467.0</ele><time>2026-04-25T14:29:25.013Z</time></trkpt><trkpt lat="45.5970003" lon="13.9285952"><ele>467.0</ele><time>2026-04-25T14:29:26.009Z</time></trkpt><trkpt lat="45.5972065" lon="13.9285793"><ele>467.0</ele><time>2026-04-25T14:29:27.027Z</time></trkpt><trkpt lat="45.5974132" lon="13.9285666"><ele>467.0</ele><time>2026-04-25T14:29:28.028Z</time></trkpt><trkpt lat="45.5976273" lon="13.928576"><ele>467.0</ele><time>2026-04-25T14:29:29.019Z</time></trkpt><trkpt lat="45.59784" lon="13.9285957"><ele>467.0</ele><time>2026-04-25T14:29:30.027Z</time></trkpt><trkpt lat="45.5980483" lon="13.9286223"><ele>467.0</ele><time>2026-04-25T14:29:31.027Z</time></trkpt><trkpt lat="45.5982539" lon="13.9286532"><ele>467.0</ele><time>2026-04-25T14:29:32.028Z</time></trkpt><trkpt lat="45.5984633" lon="13.9286947"><ele>467.0</ele><time>2026-04-25T14:29:33.034Z</time></trkpt><trkpt lat="45.5986743" lon="13.928736"><ele>468.3333333333333</ele><time>2026-04-25T14:29:34.026Z</time></trkpt><trkpt lat="45.5988791" lon="13.9287504"><ele>469.66666666666663</ele><time>2026-04-25T14:29:35.03Z</time></trkpt><trkpt lat="45.59909" lon="13.9287333"><ele>471.0</ele><time>2026-04-25T14:29:36.03Z</time></trkpt><trkpt lat="45.5992995" lon="13.9287032"><ele>472.66666666666663</ele><time>2026-04-25T14:29:37.031Z</time></trkpt><trkpt lat="45.5995064" lon="13.9286414"><ele>474.3333333333333</ele><time>2026-04-25T14:29:38.035Z</time></trkpt><trkpt lat="45.599703" lon="13.9285673"><ele>476.0</ele><time>2026-04-25T14:29:39.029Z</time></trkpt><trkpt lat="45.5998895" lon="13.9284851"><ele>476.0</ele><time>2026-04-25T14:29:40.033Z</time></trkpt><trkpt lat="45.6000668" lon="13.9283968"><ele>476.0</ele><time>2026-04-25T14:29:41.022Z</time></trkpt><trkpt lat="45.6002254" lon="13.9283068"><ele>476.0</ele><time>2026-04-25T14:29:42.028Z</time></trkpt><trkpt lat="45.600359" lon="13.9282229"><ele>474.5</ele><time>2026-04-25T14:29:43.035Z</time></trkpt><trkpt lat="45.6004881" lon="13.9281502"><ele>473.0</ele><time>2026-04-25T14:29:44.03Z</time></trkpt><trkpt lat="45.600622" lon="13.9280949"><ele>471.5</ele><time>2026-04-25T14:29:45.037Z</time></trkpt><trkpt lat="45.6007642" lon="13.928052"><ele>470.0</ele><time>2026-04-25T14:29:46.029Z</time></trkpt><trkpt lat="45.6009169" lon="13.9280205"><ele>470.0</ele><time>2026-04-25T14:29:47.026Z</time></trkpt><trkpt lat="45.6010749" lon="13.9279961"><ele>470.0</ele><time>2026-04-25T14:29:48.024Z</time></trkpt><trkpt lat="45.6012326" lon="13.9279747"><ele>470.0</ele><time>2026-04-25T14:29:49.024Z</time></trkpt><trkpt lat="45.6014002" lon="13.9279654"><ele>471.0</ele><time>2026-04-25T14:29:50.024Z</time></trkpt><trkpt lat="45.601576" lon="13.927986"><ele>472.0</ele><time>2026-04-25T14:29:51.027Z</time></trkpt><trkpt lat="45.6017588" lon="13.928036"><ele>473.0</ele><time>2026-04-25T14:29:52.022Z</time></trkpt><trkpt lat="45.6019435" lon="13.9281001"><ele>472.66666666666663</ele><time>2026-04-25T14:29:53.016Z</time></trkpt><trkpt lat="45.6021232" lon="13.9281761"><ele>472.33333333333337</ele><time>2026-04-25T14:29:54.017Z</time></trkpt><trkpt lat="45.6023" lon="13.9282791"><ele>472.0</ele><time>2026-04-25T14:29:55.015Z</time></trkpt><trkpt lat="45.6024671" lon="13.9284186"><ele>472.0</ele><time>2026-04-25T14:29:56.012Z</time></trkpt><trkpt lat="45.6026335" lon="13.9285651"><ele>472.0</ele><time>2026-04-25T14:29:57.022Z</time></trkpt><trkpt lat="45.6027889" lon="13.9287398"><ele>472.0</ele><time>2026-04-25T14:29:58.03Z</time></trkpt><trkpt lat="45.6029327" lon="13.9289197"><ele>473.6666666666667</ele><time>2026-04-25T14:29:59.022Z</time></trkpt><trkpt lat="45.603065" lon="13.9291071"><ele>475.33333333333337</ele><time>2026-04-25T14:30:00.027Z</time></trkpt><trkpt lat="45.6031983" lon="13.9293012"><ele>477.0</ele><time>2026-04-25T14:30:01.012Z</time></trkpt><trkpt lat="45.6033368" lon="13.9294946"><ele>477.0</ele><time>2026-04-25T14:30:02.02Z</time></trkpt><trkpt lat="45.6034781" lon="13.9296954"><ele>477.0</ele><time>2026-04-25T14:30:03.023Z</time></trkpt><trkpt lat="45.6036216" lon="13.9299011"><ele>477.0</ele><time>2026-04-25T14:30:04.015Z</time></trkpt><trkpt lat="45.6037634" lon="13.9301049"><ele>478.66666666666663</ele><time>2026-04-25T14:30:05.04Z</time></trkpt><trkpt lat="45.6039013" lon="13.9303047"><ele>480.3333333333333</ele><time>2026-04-25T14:30:06.035Z</time></trkpt><trkpt lat="45.6040374" lon="13.9305039"><ele>482.0</ele><time>2026-04-25T14:30:07.034Z</time></trkpt><trkpt lat="45.6041743" lon="13.9307046"><ele>482.3333333333333</ele><time>2026-04-25T14:30:08.038Z</time></trkpt><trkpt lat="45.6043115" lon="13.9309019"><ele>482.66666666666663</ele><time>2026-04-25T14:30:09.028Z</time></trkpt><trkpt lat="45.604437" lon="13.9310904"><ele>483.0</ele><time>2026-04-25T14:30:10.035Z</time></trkpt><trkpt lat="45.6045464" lon="13.9312548"><ele>483.75</ele><time>2026-04-25T14:30:11.033Z</time></trkpt><trkpt lat="45.6046371" lon="13.931408"><ele>484.5</ele><time>2026-04-25T14:30:12.03Z</time></trkpt><trkpt lat="45.6047197" lon="13.9315562"><ele>485.25</ele><time>2026-04-25T14:30:13.022Z</time></trkpt><trkpt lat="45.6048165" lon="13.9316998"><ele>486.0</ele><time>2026-04-25T14:30:14.022Z</time></trkpt><trkpt lat="45.604938" lon="13.9318278"><ele>486.66666666666663</ele><time>2026-04-25T14:30:15.037Z</time></trkpt><trkpt lat="45.6050728" lon="13.9319698"><ele>487.3333333333333</ele><time>2026-04-25T14:30:16.034Z</time></trkpt><trkpt lat="45.6051938" lon="13.9321329"><ele>488.0</ele><time>2026-04-25T14:30:17.032Z</time></trkpt><trkpt lat="45.6053207" lon="13.9323001"><ele>489.3333333333333</ele><time>2026-04-25T14:30:18.027Z</time></trkpt><trkpt lat="45.6054576" lon="13.9324647"><ele>490.66666666666663</ele><time>2026-04-25T14:30:19.031Z</time></trkpt><trkpt lat="45.6055997" lon="13.9326295"><ele>492.0</ele><time>2026-04-25T14:30:20.039Z</time></trkpt><trkpt lat="45.605745" lon="13.9327948"><ele>492.33333333333337</ele><time>2026-04-25T14:30:21.028Z</time></trkpt><trkpt lat="45.6058921" lon="13.9329544"><ele>492.6666666666667</ele><time>2026-04-25T14:30:22.029Z</time></trkpt><trkpt lat="45.6060378" lon="13.9331047"><ele>493.0</ele><time>2026-04-25T14:30:23.022Z</time></trkpt><trkpt lat="45.6061732" lon="13.9332362"><ele>493.25</ele><time>2026-04-25T14:30:24.022Z</time></trkpt><trkpt lat="45.6062942" lon="13.9333526"><ele>493.5</ele><time>2026-04-25T14:30:25.033Z</time></trkpt><trkpt lat="45.6064018" lon="13.9334469"><ele>493.75</ele><time>2026-04-25T14:30:26.03Z</time></trkpt><trkpt lat="45.6064887" lon="13.9335271"><ele>494.0</ele><time>2026-04-25T14:30:27.031Z</time></trkpt><trkpt lat="45.6065639" lon="13.9335926"><ele>493.99999999999994</ele><time>2026-04-25T14:30:28.029Z</time></trkpt><trkpt lat="45.6066321" lon="13.9336572"><ele>494.0</ele><time>2026-04-25T14:30:29.027Z</time></trkpt><trkpt lat="45.6066943" lon="13.9337133"><ele>494.0</ele><time>2026-04-25T14:30:30.028Z</time></trkpt><trkpt lat="45.6067823" lon="13.9337869"><ele>494.0</ele><time>2026-04-25T14:30:32.026Z</time></trkpt><trkpt lat="45.606845" lon="13.9338412"><ele>493.99999999999994</ele><time>2026-04-25T14:30:34.027Z</time></trkpt><trkpt lat="45.6069054" lon="13.9338742"><ele>494.0</ele><time>2026-04-25T14:30:37.022Z</time></trkpt><trkpt lat="45.6070275" lon="13.9339537"><ele>493.6</ele><time>2026-04-25T14:31:58.03Z</time></trkpt><trkpt lat="45.6071038" lon="13.9340089"><ele>493.2</ele><time>2026-04-25T14:31:59.026Z</time></trkpt><trkpt lat="45.6071946" lon="13.9340726"><ele>492.80000000000007</ele><time>2026-04-25T14:32:00.023Z</time></trkpt><trkpt lat="45.6072972" lon="13.9341436"><ele>492.40000000000003</ele><time>2026-04-25T14:32:01.025Z</time></trkpt><trkpt lat="45.6074106" lon="13.9342244"><ele>492.0</ele><time>2026-04-25T14:32:02.029Z</time></trkpt><trkpt lat="45.6075313" lon="13.9343116"><ele>492.0</ele><time>2026-04-25T14:32:03.03Z</time></trkpt><trkpt lat="45.6076514" lon="13.9343932"><ele>492.0</ele><time>2026-04-25T14:32:04.034Z</time></trkpt><trkpt lat="45.6077705" lon="13.9344706"><ele>492.0</ele><time>2026-04-25T14:32:05.018Z</time></trkpt><trkpt lat="45.6078959" lon="13.934552"><ele>492.0</ele><time>2026-04-25T14:32:06.027Z</time></trkpt><trkpt lat="45.6080264" lon="13.9346324"><ele>492.0</ele><time>2026-04-25T14:32:07.031Z</time></trkpt><trkpt lat="45.6081604" lon="13.9347135"><ele>492.0</ele><time>2026-04-25T14:32:08.036Z</time></trkpt><trkpt lat="45.6082936" lon="13.934798"><ele>492.0</ele><time>2026-04-25T14:32:09.022Z</time></trkpt><trkpt lat="45.6084275" lon="13.9348811"><ele>492.0</ele><time>2026-04-25T14:32:10.031Z</time></trkpt><trkpt lat="45.6085656" lon="13.9349631"><ele>492.0</ele><time>2026-04-25T14:32:11.029Z</time></trkpt><trkpt lat="45.6087055" lon="13.9350502"><ele>492.0</ele><time>2026-04-25T14:32:12.037Z</time></trkpt><trkpt lat="45.6088397" lon="13.9351432"><ele>492.0</ele><time>2026-04-25T14:32:13.03Z</time></trkpt><trkpt lat="45.6089657" lon="13.9352323"><ele>492.0</ele><time>2026-04-25T14:32:14.025Z</time></trkpt><trkpt lat="45.6090919" lon="13.9353232"><ele>492.0</ele><time>2026-04-25T14:32:15.018Z</time></trkpt><trkpt lat="45.6092209" lon="13.9354276"><ele>492.0</ele><time>2026-04-25T14:32:16.033Z</time></trkpt><trkpt lat="45.6093513" lon="13.9355334"><ele>492.0</ele><time>2026-04-25T14:32:17.027Z</time></trkpt><trkpt lat="45.6094799" lon="13.9356379"><ele>492.0</ele><time>2026-04-25T14:32:18.027Z</time></trkpt><trkpt lat="45.6096049" lon="13.9357404"><ele>492.5</ele><time>2026-04-25T14:32:19.02Z</time></trkpt><trkpt lat="45.6097226" lon="13.9358352"><ele>493.0</ele><time>2026-04-25T14:32:20.039Z</time></trkpt><trkpt lat="45.6098344" lon="13.9359157"><ele>493.5</ele><time>2026-04-25T14:32:21.03Z</time></trkpt><trkpt lat="45.6099447" lon="13.9359775"><ele>494.0</ele><time>2026-04-25T14:32:22.08Z</time></trkpt><trkpt lat="45.6100441" lon="13.9360228"><ele>494.8333333333333</ele><time>2026-04-25T14:32:23.045Z</time></trkpt><trkpt lat="45.6101402" lon="13.936066"><ele>495.66666666666663</ele><time>2026-04-25T14:32:24.025Z</time></trkpt><trkpt lat="45.6102253" lon="13.9361136"><ele>496.5</ele><time>2026-04-25T14:32:25.045Z</time></trkpt><trkpt lat="45.6102978" lon="13.9361835"><ele>497.33333333333337</ele><time>2026-04-25T14:32:26.024Z</time></trkpt><trkpt lat="45.6103614" lon="13.9362525"><ele>498.1666666666667</ele><time>2026-04-25T14:32:27.049Z</time></trkpt><trkpt lat="45.6104241" lon="13.9363016"><ele>499.0</ele><time>2026-04-25T14:32:28.031Z</time></trkpt><trkpt lat="45.610539" lon="13.9362363"><ele>498.83333333333337</ele><time>2026-04-25T14:32:30.027Z</time></trkpt><trkpt lat="45.6105543" lon="13.9361369"><ele>498.6666666666667</ele><time>2026-04-25T14:32:31.03Z</time></trkpt><trkpt lat="45.6105395" lon="13.936036"><ele>498.5</ele><time>2026-04-25T14:32:32.049Z</time></trkpt><trkpt lat="45.6105029" lon="13.9359348"><ele>498.33333333333337</ele><time>2026-04-25T14:32:33.026Z</time></trkpt><trkpt lat="45.6104566" lon="13.935825"><ele>498.1666666666667</ele><time>2026-04-25T14:32:34.033Z</time></trkpt><trkpt lat="45.6104163" lon="13.9356815"><ele>498.0</ele><time>2026-04-25T14:32:35.03Z</time></trkpt><trkpt lat="45.6103835" lon="13.9355032"><ele>498.0</ele><time>2026-04-25T14:32:36.03Z</time></trkpt><trkpt lat="45.6103437" lon="13.9353195"><ele>498.0</ele><time>2026-04-25T14:32:37.036Z</time></trkpt><trkpt lat="45.6102876" lon="13.9351341"><ele>498.0</ele><time>2026-04-25T14:32:38.032Z</time></trkpt><trkpt lat="45.6102282" lon="13.9349524"><ele>498.0</ele><time>2026-04-25T14:32:39.043Z</time></trkpt><trkpt lat="45.6101644" lon="13.9347727"><ele>496.5</ele><time>2026-04-25T14:32:40.025Z</time></trkpt><trkpt lat="45.6100963" lon="13.9346"><ele>495.0</ele><time>2026-04-25T14:32:41.036Z</time></trkpt><trkpt lat="45.6100139" lon="13.9344237"><ele>493.5</ele><time>2026-04-25T14:32:42.033Z</time></trkpt><trkpt lat="45.6099164" lon="13.9342431"><ele>492.0</ele><time>2026-04-25T14:32:43.027Z</time></trkpt><trkpt lat="45.6098113" lon="13.9340648"><ele>491.33333333333337</ele><time>2026-04-25T14:32:44.027Z</time></trkpt><trkpt lat="45.6097024" lon="13.9338916"><ele>490.6666666666667</ele><time>2026-04-25T14:32:45.034Z</time></trkpt><trkpt lat="45.6095959" lon="13.9337143"><ele>490.0</ele><time>2026-04-25T14:32:46.035Z</time></trkpt><trkpt lat="45.6094906" lon="13.9335346"><ele>489.33333333333337</ele><time>2026-04-25T14:32:47.059Z</time></trkpt><trkpt lat="45.609391" lon="13.9333526"><ele>488.66666666666663</ele><time>2026-04-25T14:32:48.04Z</time></trkpt><trkpt lat="45.6093017" lon="13.9331757"><ele>488.0</ele><time>2026-04-25T14:32:49.045Z</time></trkpt><trkpt lat="45.6092243" lon="13.9329988"><ele>488.0</ele><time>2026-04-25T14:32:50.037Z</time></trkpt><trkpt lat="45.6091582" lon="13.9328123"><ele>488.0</ele><time>2026-04-25T14:32:51.045Z</time></trkpt><trkpt lat="45.6090998" lon="13.9326201"><ele>488.0</ele><time>2026-04-25T14:32:52.028Z</time></trkpt><trkpt lat="45.6090504" lon="13.9324335"><ele>488.0</ele><time>2026-04-25T14:32:53.025Z</time></trkpt><trkpt lat="45.6090126" lon="13.9322512"><ele>488.0</ele><time>2026-04-25T14:32:54.041Z</time></trkpt><trkpt lat="45.6089947" lon="13.9320681"><ele>488.0</ele><time>2026-04-25T14:32:55.027Z</time></trkpt><trkpt lat="45.6089689" lon="13.931876"><ele>488.0</ele><time>2026-04-25T14:32:56.034Z</time></trkpt><trkpt lat="45.6089349" lon="13.9316745"><ele>488.0</ele><time>2026-04-25T14:32:57.03Z</time></trkpt><trkpt lat="45.6089109" lon="13.9314627"><ele>488.66666666666663</ele><time>2026-04-25T14:32:58.034Z</time></trkpt><trkpt lat="45.6089016" lon="13.9312401"><ele>489.33333333333337</ele><time>2026-04-25T14:32:59.028Z</time></trkpt><trkpt lat="45.6089066" lon="13.9310065"><ele>490.0</ele><time>2026-04-25T14:33:00.034Z</time></trkpt><trkpt lat="45.6089293" lon="13.9307791"><ele>491.0</ele><time>2026-04-25T14:33:01.032Z</time></trkpt><trkpt lat="45.6089717" lon="13.9305485"><ele>492.0</ele><time>2026-04-25T14:33:02.036Z</time></trkpt><trkpt lat="45.6090153" lon="13.9303227"><ele>493.0</ele><time>2026-04-25T14:33:03.029Z</time></trkpt><trkpt lat="45.6090636" lon="13.9300922"><ele>494.33333333333337</ele><time>2026-04-25T14:33:04.042Z</time></trkpt><trkpt lat="45.6091161" lon="13.9298569"><ele>495.66666666666663</ele><time>2026-04-25T14:33:05.03Z</time></trkpt><trkpt lat="45.6091655" lon="13.9296242"><ele>497.0</ele><time>2026-04-25T14:33:06.034Z</time></trkpt><trkpt lat="45.6092085" lon="13.9293911"><ele>497.3333333333333</ele><time>2026-04-25T14:33:07.02Z</time></trkpt><trkpt lat="45.6092517" lon="13.9291573"><ele>497.66666666666663</ele><time>2026-04-25T14:33:08.051Z</time></trkpt><trkpt lat="45.609299" lon="13.928925"><ele>498.0</ele><time>2026-04-25T14:33:09.028Z</time></trkpt><trkpt lat="45.6093416" lon="13.9287002"><ele>498.0</ele><time>2026-04-25T14:33:10.026Z</time></trkpt><trkpt lat="45.6093872" lon="13.9284877"><ele>498.0</ele><time>2026-04-25T14:33:11.021Z</time></trkpt><trkpt lat="45.6094325" lon="13.928281"><ele>498.0</ele><time>2026-04-25T14:33:12.027Z</time></trkpt><trkpt lat="45.6094803" lon="13.9280652"><ele>501.33333333333337</ele><time>2026-04-25T14:33:13.027Z</time></trkpt><trkpt lat="45.6095267" lon="13.9278454"><ele>504.6666666666667</ele><time>2026-04-25T14:33:14.033Z</time></trkpt><trkpt lat="45.6095779" lon="13.9276283"><ele>508.0</ele><time>2026-04-25T14:33:15.021Z</time></trkpt><trkpt lat="45.6096339" lon="13.9274149"><ele>508.0</ele><time>2026-04-25T14:33:16.028Z</time></trkpt><trkpt lat="45.6096964" lon="13.9272103"><ele>508.0</ele><time>2026-04-25T14:33:17.025Z</time></trkpt><trkpt lat="45.609757" lon="13.9270101"><ele>508.0</ele><time>2026-04-25T14:33:18.039Z</time></trkpt><trkpt lat="45.6098162" lon="13.9268123"><ele>508.5</ele><time>2026-04-25T14:33:19.022Z</time></trkpt><trkpt lat="45.6098695" lon="13.9266301"><ele>509.0</ele><time>2026-04-25T14:33:20.025Z</time></trkpt><trkpt lat="45.6099197" lon="13.9264445"><ele>509.5</ele><time>2026-04-25T14:33:21.026Z</time></trkpt><trkpt lat="45.6099688" lon="13.9262569"><ele>510.0</ele><time>2026-04-25T14:33:22.028Z</time></trkpt><trkpt lat="45.6100147" lon="13.9260606"><ele>510.33333333333337</ele><time>2026-04-25T14:33:23.026Z</time></trkpt><trkpt lat="45.6100537" lon="13.9258569"><ele>510.6666666666667</ele><time>2026-04-25T14:33:24.029Z</time></trkpt><trkpt lat="45.610076" lon="13.9256404"><ele>511.0</ele><time>2026-04-25T14:33:25.022Z</time></trkpt><trkpt lat="45.6100859" lon="13.9254077"><ele>511.0</ele><time>2026-04-25T14:33:26.037Z</time></trkpt><trkpt lat="45.6100886" lon="13.9251678"><ele>511.0</ele><time>2026-04-25T14:33:27.025Z</time></trkpt><trkpt lat="45.6100925" lon="13.9249392"><ele>511.0</ele><time>2026-04-25T14:33:28.023Z</time></trkpt><trkpt lat="45.6100982" lon="13.9247148"><ele>512.0</ele><time>2026-04-25T14:33:29.025Z</time></trkpt><trkpt lat="45.6101059" lon="13.9244874"><ele>513.0</ele><time>2026-04-25T14:33:30.023Z</time></trkpt><trkpt lat="45.6101173" lon="13.9242584"><ele>514.0</ele><time>2026-04-25T14:33:31.023Z</time></trkpt><trkpt lat="45.6101323" lon="13.924027"><ele>514.3333333333334</ele><time>2026-04-25T14:33:32.029Z</time></trkpt><trkpt lat="45.6101544" lon="13.9237942"><ele>514.6666666666666</ele><time>2026-04-25T14:33:33.033Z</time></trkpt><trkpt lat="45.6101878" lon="13.9235623"><ele>515.0</ele><time>2026-04-25T14:33:34.03Z</time></trkpt><trkpt lat="45.6102316" lon="13.9233286"><ele>515.0</ele><time>2026-04-25T14:33:35.023Z</time></trkpt><trkpt lat="45.610295" lon="13.9230965"><ele>515.0</ele><time>2026-04-25T14:33:36.031Z</time></trkpt><trkpt lat="45.6103692" lon="13.9228668"><ele>515.0</ele><time>2026-04-25T14:33:37.022Z</time></trkpt><trkpt lat="45.6104555" lon="13.9226423"><ele>515.6666666666666</ele><time>2026-04-25T14:33:38.026Z</time></trkpt><trkpt lat="45.6105525" lon="13.9224176"><ele>516.3333333333334</ele><time>2026-04-25T14:33:39.029Z</time></trkpt><trkpt lat="45.610656" lon="13.9221963"><ele>517.0</ele><time>2026-04-25T14:33:40.037Z</time></trkpt><trkpt lat="45.6107615" lon="13.9219756"><ele>517.0</ele><time>2026-04-25T14:33:41.025Z</time></trkpt><trkpt lat="45.6108657" lon="13.9217569"><ele>517.0</ele><time>2026-04-25T14:33:42.035Z</time></trkpt><trkpt lat="45.6109707" lon="13.9215355"><ele>517.0</ele><time>2026-04-25T14:33:43.028Z</time></trkpt><trkpt lat="45.6110777" lon="13.921312"><ele>516.6666666666667</ele><time>2026-04-25T14:33:44.029Z</time></trkpt><trkpt lat="45.6111898" lon="13.9210954"><ele>516.3333333333334</ele><time>2026-04-25T14:33:45.037Z</time></trkpt><trkpt lat="45.6112963" lon="13.9208839"><ele>516.0</ele><time>2026-04-25T14:33:46.029Z</time></trkpt><trkpt lat="45.6113898" lon="13.9206679"><ele>516.0</ele><time>2026-04-25T14:33:47.031Z</time></trkpt><trkpt lat="45.6114736" lon="13.920436"><ele>516.0</ele><time>2026-04-25T14:33:48.025Z</time></trkpt><trkpt lat="45.6115364" lon="13.9201853"><ele>516.0</ele><time>2026-04-25T14:33:49.028Z</time></trkpt><trkpt lat="45.6115797" lon="13.9199387"><ele>515.0</ele><time>2026-04-25T14:33:50.022Z</time></trkpt><trkpt lat="45.6116045" lon="13.9196856"><ele>514.0</ele><time>2026-04-25T14:33:51.014Z</time></trkpt><trkpt lat="45.6116078" lon="13.9194254"><ele>513.0</ele><time>2026-04-25T14:33:52.023Z</time></trkpt><trkpt lat="45.6116043" lon="13.9191581"><ele>512.3333333333334</ele><time>2026-04-25T14:33:53.014Z</time></trkpt><trkpt lat="45.611595" lon="13.9188867"><ele>511.6666666666667</ele><time>2026-04-25T14:33:54.013Z</time></trkpt><trkpt lat="45.6115791" lon="13.9186156"><ele>511.0</ele><time>2026-04-25T14:33:55.015Z</time></trkpt><trkpt lat="45.6115713" lon="13.9183399"><ele>510.0</ele><time>2026-04-25T14:33:56.013Z</time></trkpt><trkpt lat="45.6115675" lon="13.9180708"><ele>509.0</ele><time>2026-04-25T14:33:57.035Z</time></trkpt><trkpt lat="45.6115621" lon="13.9178029"><ele>508.0</ele><time>2026-04-25T14:33:58.013Z</time></trkpt><trkpt lat="45.6115538" lon="13.9175436"><ele>508.0</ele><time>2026-04-25T14:33:59.012Z</time></trkpt><trkpt lat="45.6115469" lon="13.9172883"><ele>508.0</ele><time>2026-04-25T14:34:00.017Z</time></trkpt><trkpt lat="45.6115377" lon="13.917037"><ele>508.0</ele><time>2026-04-25T14:34:01.006Z</time></trkpt><trkpt lat="45.6115372" lon="13.9167873"><ele>507.6666666666667</ele><time>2026-04-25T14:34:02.016Z</time></trkpt><trkpt lat="45.6115588" lon="13.916552"><ele>507.33333333333337</ele><time>2026-04-25T14:34:03.009Z</time></trkpt><trkpt lat="45.6116095" lon="13.9163393"><ele>507.0</ele><time>2026-04-25T14:34:04.016Z</time></trkpt><trkpt lat="45.6116846" lon="13.9161315"><ele>507.0</ele><time>2026-04-25T14:34:05.009Z</time></trkpt><trkpt lat="45.6117826" lon="13.9159421"><ele>507.0</ele><time>2026-04-25T14:34:06.028Z</time></trkpt><trkpt lat="45.611911" lon="13.9157908"><ele>507.0</ele><time>2026-04-25T14:34:07.018Z</time></trkpt><trkpt lat="45.6120618" lon="13.9156763"><ele>506.33333333333337</ele><time>2026-04-25T14:34:08.01Z</time></trkpt><trkpt lat="45.6122266" lon="13.9156133"><ele>505.6666666666667</ele><time>2026-04-25T14:34:09.011Z</time></trkpt><trkpt lat="45.6124002" lon="13.9155892"><ele>505.0</ele><time>2026-04-25T14:34:10.003Z</time></trkpt><trkpt lat="45.6125773" lon="13.9156039"><ele>505.0</ele><time>2026-04-25T14:34:11.011Z</time></trkpt><trkpt lat="45.6127503" lon="13.9156514"><ele>505.0</ele><time>2026-04-25T14:34:12.011Z</time></trkpt><trkpt lat="45.6129264" lon="13.9157047"><ele>505.0</ele><time>2026-04-25T14:34:13.01Z</time></trkpt><trkpt lat="45.6131074" lon="13.9157515"><ele>505.33333333333337</ele><time>2026-04-25T14:34:14.015Z</time></trkpt><trkpt lat="45.6132827" lon="13.9157895"><ele>505.66666666666663</ele><time>2026-04-25T14:34:15.027Z</time></trkpt><trkpt lat="45.6134528" lon="13.915831"><ele>506.0</ele><time>2026-04-25T14:34:16.018Z</time></trkpt><trkpt lat="45.6136209" lon="13.915869"><ele>503.3333333333333</ele><time>2026-04-25T14:34:17.005Z</time></trkpt><trkpt lat="45.6137776" lon="13.9158736"><ele>500.66666666666663</ele><time>2026-04-25T14:34:18.015Z</time></trkpt><trkpt lat="45.6139409" lon="13.9158547"><ele>498.0</ele><time>2026-04-25T14:34:19.006Z</time></trkpt><trkpt lat="45.6141084" lon="13.9158048"><ele>498.0</ele><time>2026-04-25T14:34:19.998Z</time></trkpt><trkpt lat="45.6142692" lon="13.9157394"><ele>498.0</ele><time>2026-04-25T14:34:21.006Z</time></trkpt><trkpt lat="45.6144278" lon="13.9156702"><ele>498.0</ele><time>2026-04-25T14:34:22.001Z</time></trkpt><trkpt lat="45.6145856" lon="13.915604"><ele>498.33333333333337</ele><time>2026-04-25T14:34:23.01Z</time></trkpt><trkpt lat="45.6147365" lon="13.9155441"><ele>498.6666666666667</ele><time>2026-04-25T14:34:24.005Z</time></trkpt><trkpt lat="45.6148826" lon="13.9154863"><ele>499.0</ele><time>2026-04-25T14:34:25.011Z</time></trkpt><trkpt lat="45.6150306" lon="13.9154282"><ele>499.0</ele><time>2026-04-25T14:34:26.016Z</time></trkpt><trkpt lat="45.6151805" lon="13.9153626"><ele>499.0</ele><time>2026-04-25T14:34:27.008Z</time></trkpt><trkpt lat="45.6153258" lon="13.9152773"><ele>499.0</ele><time>2026-04-25T14:34:28.016Z</time></trkpt><trkpt lat="45.6154659" lon="13.9151656"><ele>495.0</ele><time>2026-04-25T14:34:29.021Z</time></trkpt><trkpt lat="45.6155945" lon="13.9150416"><ele>491.0</ele><time>2026-04-25T14:34:30.018Z</time></trkpt><trkpt lat="45.6157178" lon="13.9149076"><ele>487.0</ele><time>2026-04-25T14:34:31.025Z</time></trkpt><trkpt lat="45.6158379" lon="13.9147567"><ele>487.0</ele><time>2026-04-25T14:34:32.014Z</time></trkpt><trkpt lat="45.6159537" lon="13.9145929"><ele>487.0</ele><time>2026-04-25T14:34:33.03Z</time></trkpt><trkpt lat="45.6160561" lon="13.9144225"><ele>487.0</ele><time>2026-04-25T14:34:34.019Z</time></trkpt><trkpt lat="45.616149" lon="13.9142503"><ele>484.6666666666667</ele><time>2026-04-25T14:34:35.024Z</time></trkpt><trkpt lat="45.616242" lon="13.9140743"><ele>482.33333333333337</ele><time>2026-04-25T14:34:36.03Z</time></trkpt><trkpt lat="45.616337" lon="13.9138935"><ele>480.0</ele><time>2026-04-25T14:34:37.016Z</time></trkpt><trkpt lat="45.6164361" lon="13.9137076"><ele>480.0</ele><time>2026-04-25T14:34:38.023Z</time></trkpt><trkpt lat="45.6165382" lon="13.9135183"><ele>480.0</ele><time>2026-04-25T14:34:39.026Z</time></trkpt><trkpt lat="45.6166392" lon="13.9133315"><ele>480.0</ele><time>2026-04-25T14:34:40.027Z</time></trkpt><trkpt lat="45.616735" lon="13.9131533"><ele>479.33333333333337</ele><time>2026-04-25T14:34:41.031Z</time></trkpt><trkpt lat="45.6168296" lon="13.9129835"><ele>478.6666666666667</ele><time>2026-04-25T14:34:42.025Z</time></trkpt><trkpt lat="45.6169233" lon="13.9128183"><ele>478.0</ele><time>2026-04-25T14:34:43.017Z</time></trkpt><trkpt lat="45.6170205" lon="13.9126545"><ele>476.0</ele><time>2026-04-25T14:34:44.021Z</time></trkpt><trkpt lat="45.6171214" lon="13.9124789"><ele>474.0</ele><time>2026-04-25T14:34:45.02Z</time></trkpt><trkpt lat="45.6172254" lon="13.9122998"><ele>472.0</ele><time>2026-04-25T14:34:46.021Z</time></trkpt><trkpt lat="45.6173332" lon="13.9121131"><ele>472.0</ele><time>2026-04-25T14:34:47.021Z</time></trkpt><trkpt lat="45.617436" lon="13.9119262"><ele>472.0</ele><time>2026-04-25T14:34:48.021Z</time></trkpt><trkpt lat="45.6175373" lon="13.9117373"><ele>472.0</ele><time>2026-04-25T14:34:49.029Z</time></trkpt><trkpt lat="45.617643" lon="13.911547"><ele>471.0</ele><time>2026-04-25T14:34:50.02Z</time></trkpt><trkpt lat="45.6177479" lon="13.9113654"><ele>470.0</ele><time>2026-04-25T14:34:51.021Z</time></trkpt><trkpt lat="45.617851" lon="13.9111881"><ele>469.0</ele><time>2026-04-25T14:34:52.024Z</time></trkpt><trkpt lat="45.6179604" lon="13.9110088"><ele>466.6666666666667</ele><time>2026-04-25T14:34:53.022Z</time></trkpt><trkpt lat="45.6180735" lon="13.910841"><ele>464.33333333333337</ele><time>2026-04-25T14:34:54.026Z</time></trkpt><trkpt lat="45.6181869" lon="13.9106873"><ele>462.0</ele><time>2026-04-25T14:34:55.024Z</time></trkpt><trkpt lat="45.6183011" lon="13.9105353"><ele>462.0</ele><time>2026-04-25T14:34:56.031Z</time></trkpt><trkpt lat="45.6184106" lon="13.9103835"><ele>462.0</ele><time>2026-04-25T14:34:57.014Z</time></trkpt><trkpt lat="45.6185168" lon="13.9102341"><ele>462.0</ele><time>2026-04-25T14:34:58.022Z</time></trkpt><trkpt lat="45.6186213" lon="13.9100884"><ele>462.0</ele><time>2026-04-25T14:34:59.02Z</time></trkpt><trkpt lat="45.6187283" lon="13.9099397"><ele>460.0</ele><time>2026-04-25T14:35:00.023Z</time></trkpt><trkpt lat="45.6188392" lon="13.9097857"><ele>458.0</ele><time>2026-04-25T14:35:01.022Z</time></trkpt><trkpt lat="45.6189502" lon="13.9096297"><ele>456.0</ele><time>2026-04-25T14:35:02.012Z</time></trkpt><trkpt lat="45.6190578" lon="13.909478"><ele>456.0</ele><time>2026-04-25T14:35:03.023Z</time></trkpt><trkpt lat="45.6191617" lon="13.909327"><ele>456.0</ele><time>2026-04-25T14:35:04.018Z</time></trkpt><trkpt lat="45.6192605" lon="13.9091781"><ele>456.0</ele><time>2026-04-25T14:35:05.041Z</time></trkpt><trkpt lat="45.6193522" lon="13.9090247"><ele>456.0</ele><time>2026-04-25T14:35:06.033Z</time></trkpt><trkpt lat="45.6194407" lon="13.9088686"><ele>455.5</ele><time>2026-04-25T14:35:07.029Z</time></trkpt><trkpt lat="45.6195301" lon="13.9087051"><ele>455.0</ele><time>2026-04-25T14:35:08.033Z</time></trkpt><trkpt lat="45.6196226" lon="13.9085403"><ele>454.5</ele><time>2026-04-25T14:35:09.029Z</time></trkpt><trkpt lat="45.6197158" lon="13.9083751"><ele>454.0</ele><time>2026-04-25T14:35:10.031Z</time></trkpt><trkpt lat="45.6198129" lon="13.9082094"><ele>454.0</ele><time>2026-04-25T14:35:11.026Z</time></trkpt><trkpt lat="45.6199089" lon="13.9080451"><ele>454.0</ele><time>2026-04-25T14:35:12.031Z</time></trkpt><trkpt lat="45.6199991" lon="13.9078835"><ele>454.0</ele><time>2026-04-25T14:35:13.02Z</time></trkpt><trkpt lat="45.6200884" lon="13.9077284"><ele>454.0</ele><time>2026-04-25T14:35:14.029Z</time></trkpt><trkpt lat="45.6201735" lon="13.9075706"><ele>454.5</ele><time>2026-04-25T14:35:15.032Z</time></trkpt><trkpt lat="45.6202635" lon="13.9074104"><ele>455.0</ele><time>2026-04-25T14:35:16.022Z</time></trkpt><trkpt lat="45.6203555" lon="13.9072472"><ele>455.5</ele><time>2026-04-25T14:35:17.027Z</time></trkpt><trkpt lat="45.6204484" lon="13.9070848"><ele>456.0</ele><time>2026-04-25T14:35:18.026Z</time></trkpt><trkpt lat="45.6205386" lon="13.9069258"><ele>456.5</ele><time>2026-04-25T14:35:19.032Z</time></trkpt><trkpt lat="45.6206246" lon="13.906771"><ele>457.0</ele><time>2026-04-25T14:35:20.024Z</time></trkpt><trkpt lat="45.6207105" lon="13.9066169"><ele>457.5</ele><time>2026-04-25T14:35:21.025Z</time></trkpt><trkpt lat="45.6207975" lon="13.9064606"><ele>458.0</ele><time>2026-04-25T14:35:22.019Z</time></trkpt><trkpt lat="45.6208886" lon="13.9063074"><ele>458.0</ele><time>2026-04-25T14:35:23.024Z</time></trkpt><trkpt lat="45.6209806" lon="13.9061556"><ele>458.0</ele><time>2026-04-25T14:35:24.028Z</time></trkpt><trkpt lat="45.6210705" lon="13.9060056"><ele>458.0</ele><time>2026-04-25T14:35:25.032Z</time></trkpt><trkpt lat="45.6211582" lon="13.905853"><ele>458.0</ele><time>2026-04-25T14:35:26.027Z</time></trkpt><trkpt lat="45.6212468" lon="13.9057002"><ele>458.75</ele><time>2026-04-25T14:35:27.025Z</time></trkpt><trkpt lat="45.6213353" lon="13.9055471"><ele>459.5</ele><time>2026-04-25T14:35:28.033Z</time></trkpt><trkpt lat="45.6214243" lon="13.9053949"><ele>460.25</ele><time>2026-04-25T14:35:29.026Z</time></trkpt><trkpt lat="45.6215125" lon="13.9052409"><ele>461.0</ele><time>2026-04-25T14:35:30.036Z</time></trkpt><trkpt lat="45.6215955" lon="13.9050888"><ele>461.75</ele><time>2026-04-25T14:35:31.021Z</time></trkpt><trkpt lat="45.6216765" lon="13.9049487"><ele>462.5</ele><time>2026-04-25T14:35:32.025Z</time></trkpt><trkpt lat="45.6217585" lon="13.904811"><ele>463.25</ele><time>2026-04-25T14:35:33.018Z</time></trkpt><trkpt lat="45.6218468" lon="13.9046715"><ele>464.0</ele><time>2026-04-25T14:35:34.022Z</time></trkpt><trkpt lat="45.621936" lon="13.904529"><ele>463.75</ele><time>2026-04-25T14:35:35.02Z</time></trkpt><trkpt lat="45.6220238" lon="13.9043863"><ele>463.5</ele><time>2026-04-25T14:35:36.025Z</time></trkpt><trkpt lat="45.6221119" lon="13.9042437"><ele>463.25</ele><time>2026-04-25T14:35:37.027Z</time></trkpt><trkpt lat="45.6221914" lon="13.904109"><ele>463.0</ele><time>2026-04-25T14:35:38.025Z</time></trkpt><trkpt lat="45.6222673" lon="13.9039834"><ele>464.0</ele><time>2026-04-25T14:35:39.021Z</time></trkpt><trkpt lat="45.622345" lon="13.9038611"><ele>465.0</ele><time>2026-04-25T14:35:40.021Z</time></trkpt><trkpt lat="45.6224234" lon="13.9037303"><ele>466.0</ele><time>2026-04-25T14:35:41.024Z</time></trkpt><trkpt lat="45.6225019" lon="13.9035999"><ele>467.0</ele><time>2026-04-25T14:35:42.022Z</time></trkpt><trkpt lat="45.6225804" lon="13.9034704"><ele>467.25</ele><time>2026-04-25T14:35:43.022Z</time></trkpt><trkpt lat="45.6226555" lon="13.9033446"><ele>467.5</ele><time>2026-04-25T14:35:44.027Z</time></trkpt><trkpt lat="45.6227301" lon="13.9032136"><ele>467.75</ele><time>2026-04-25T14:35:45.028Z</time></trkpt><trkpt lat="45.622804" lon="13.9030832"><ele>468.0</ele><time>2026-04-25T14:35:46.013Z</time></trkpt><trkpt lat="45.6228785" lon="13.9029578"><ele>468.2</ele><time>2026-04-25T14:35:47.032Z</time></trkpt><trkpt lat="45.6229435" lon="13.9028445"><ele>468.4</ele><time>2026-04-25T14:35:48.029Z</time></trkpt><trkpt lat="45.6230093" lon="13.9027378"><ele>468.59999999999997</ele><time>2026-04-25T14:35:49.019Z</time></trkpt><trkpt lat="45.6230774" lon="13.9026403"><ele>468.79999999999995</ele><time>2026-04-25T14:35:50.022Z</time></trkpt><trkpt lat="45.6231403" lon="13.9025476"><ele>469.0</ele><time>2026-04-25T14:35:51.022Z</time></trkpt><trkpt lat="45.6232029" lon="13.9024637"><ele>469.1666666666667</ele><time>2026-04-25T14:35:52.051Z</time></trkpt><trkpt lat="45.6232639" lon="13.9023878"><ele>469.33333333333337</ele><time>2026-04-25T14:35:53.032Z</time></trkpt><trkpt lat="45.6233269" lon="13.9023077"><ele>469.5</ele><time>2026-04-25T14:35:54.036Z</time></trkpt><trkpt lat="45.6233923" lon="13.902226"><ele>469.66666666666663</ele><time>2026-04-25T14:35:55.031Z</time></trkpt><trkpt lat="45.6234587" lon="13.9021459"><ele>469.8333333333333</ele><time>2026-04-25T14:35:56.027Z</time></trkpt><trkpt lat="45.6235202" lon="13.9020647"><ele>470.0</ele><time>2026-04-25T14:35:57.027Z</time></trkpt><trkpt lat="45.6235769" lon="13.9019807"><ele>470.0</ele><time>2026-04-25T14:35:58.033Z</time></trkpt><trkpt lat="45.6236245" lon="13.9019042"><ele>470.0</ele><time>2026-04-25T14:35:59.035Z</time></trkpt><trkpt lat="45.6236993" lon="13.9017861"><ele>470.0</ele><time>2026-04-25T14:36:01.031Z</time></trkpt><trkpt lat="45.6237695" lon="13.9016828"><ele>470.0</ele><time>2026-04-25T14:36:03.012Z</time></trkpt><trkpt lat="45.6238461" lon="13.9015894"><ele>470.0</ele><time>2026-04-25T14:36:05.028Z</time></trkpt><trkpt lat="45.6239364" lon="13.9014615"><ele>469.99999999999994</ele><time>2026-04-25T14:36:07.021Z</time></trkpt><trkpt lat="45.6239903" lon="13.9013767"><ele>470.0</ele><time>2026-04-25T14:36:08.029Z</time></trkpt><trkpt lat="45.6240461" lon="13.9012785"><ele>470.0</ele><time>2026-04-25T14:36:09.019Z</time></trkpt><trkpt lat="45.624106" lon="13.9011797"><ele>470.0</ele><time>2026-04-25T14:36:10.016Z</time></trkpt><trkpt lat="45.6241713" lon="13.9010857"><ele>469.99999999999994</ele><time>2026-04-25T14:36:11.026Z</time></trkpt><trkpt lat="45.624239" lon="13.900991"><ele>470.0</ele><time>2026-04-25T14:36:12.017Z</time></trkpt><trkpt lat="45.6243155" lon="13.9008972"><ele>469.75</ele><time>2026-04-25T14:36:13.018Z</time></trkpt><trkpt lat="45.6243984" lon="13.9008055"><ele>469.5</ele><time>2026-04-25T14:36:14.023Z</time></trkpt><trkpt lat="45.6244906" lon="13.9007116"><ele>469.25</ele><time>2026-04-25T14:36:15.033Z</time></trkpt><trkpt lat="45.6245905" lon="13.9006121"><ele>469.0</ele><time>2026-04-25T14:36:16.029Z</time></trkpt><trkpt lat="45.6246977" lon="13.9005123"><ele>468.75</ele><time>2026-04-25T14:36:17.029Z</time></trkpt><trkpt lat="45.6248063" lon="13.9004175"><ele>468.5</ele><time>2026-04-25T14:36:18.027Z</time></trkpt><trkpt lat="45.6249164" lon="13.9003252"><ele>468.25</ele><time>2026-04-25T14:36:19.027Z</time></trkpt><trkpt lat="45.6250325" lon="13.9002354"><ele>468.0</ele><time>2026-04-25T14:36:20.022Z</time></trkpt><trkpt lat="45.6251512" lon="13.9001441"><ele>468.0</ele><time>2026-04-25T14:36:21.027Z</time></trkpt><trkpt lat="45.6252693" lon="13.9000497"><ele>468.0</ele><time>2026-04-25T14:36:22.024Z</time></trkpt><trkpt lat="45.625394" lon="13.8999525"><ele>468.0</ele><time>2026-04-25T14:36:23.037Z</time></trkpt><trkpt lat="45.6255222" lon="13.8998539"><ele>468.0</ele><time>2026-04-25T14:36:24.026Z</time></trkpt><trkpt lat="45.6256531" lon="13.8997512"><ele>468.0</ele><time>2026-04-25T14:36:25.028Z</time></trkpt><trkpt lat="45.6257822" lon="13.8996495"><ele>468.0</ele><time>2026-04-25T14:36:26.031Z</time></trkpt><trkpt lat="45.625911" lon="13.8995488"><ele>468.0</ele><time>2026-04-25T14:36:27.021Z</time></trkpt><trkpt lat="45.6260382" lon="13.8994439"><ele>468.0</ele><time>2026-04-25T14:36:28.029Z</time></trkpt><trkpt lat="45.6261599" lon="13.8993305"><ele>468.75</ele><time>2026-04-25T14:36:29.021Z</time></trkpt><trkpt lat="45.6262746" lon="13.8992095"><ele>469.5</ele><time>2026-04-25T14:36:30.025Z</time></trkpt><trkpt lat="45.6263848" lon="13.8990706"><ele>470.25</ele><time>2026-04-25T14:36:31.033Z</time></trkpt><trkpt lat="45.6264879" lon="13.8989108"><ele>471.0</ele><time>2026-04-25T14:36:32.03Z</time></trkpt><trkpt lat="45.6265794" lon="13.8987511"><ele>471.0</ele><time>2026-04-25T14:36:33.033Z</time></trkpt><trkpt lat="45.6266652" lon="13.8985911"><ele>471.0</ele><time>2026-04-25T14:36:34.021Z</time></trkpt><trkpt lat="45.6267483" lon="13.898425"><ele>471.0</ele><time>2026-04-25T14:36:35.03Z</time></trkpt><trkpt lat="45.6268303" lon="13.898261"><ele>471.0</ele><time>2026-04-25T14:36:36.037Z</time></trkpt><trkpt lat="45.626918" lon="13.8980958"><ele>471.25</ele><time>2026-04-25T14:36:37.039Z</time></trkpt><trkpt lat="45.6270165" lon="13.89794"><ele>471.5</ele><time>2026-04-25T14:36:38.047Z</time></trkpt><trkpt lat="45.6271282" lon="13.897803"><ele>471.75</ele><time>2026-04-25T14:36:39.031Z</time></trkpt><trkpt lat="45.6272425" lon="13.8976689"><ele>472.0</ele><time>2026-04-25T14:36:40.045Z</time></trkpt><trkpt lat="45.6273593" lon="13.8975348"><ele>472.0</ele><time>2026-04-25T14:36:41.029Z</time></trkpt><trkpt lat="45.6274653" lon="13.8974049"><ele>472.0</ele><time>2026-04-25T14:36:42.03Z</time></trkpt><trkpt lat="45.6275701" lon="13.8972718"><ele>472.0</ele><time>2026-04-25T14:36:43.03Z</time></trkpt><trkpt lat="45.6276627" lon="13.8971237"><ele>472.0</ele><time>2026-04-25T14:36:44.03Z</time></trkpt><trkpt lat="45.6277345" lon="13.8969534"><ele>472.0</ele><time>2026-04-25T14:36:45.029Z</time></trkpt><trkpt lat="45.6277882" lon="13.8967575"><ele>472.0</ele><time>2026-04-25T14:36:46.031Z</time></trkpt><trkpt lat="45.6278346" lon="13.8965585"><ele>472.0</ele><time>2026-04-25T14:36:47.015Z</time></trkpt><trkpt lat="45.6278793" lon="13.8963582"><ele>472.0</ele><time>2026-04-25T14:36:48.029Z</time></trkpt><trkpt lat="45.6279254" lon="13.8961523"><ele>472.6666666666667</ele><time>2026-04-25T14:36:49.031Z</time></trkpt><trkpt lat="45.627972" lon="13.8959479"><ele>473.33333333333337</ele><time>2026-04-25T14:36:50.028Z</time></trkpt><trkpt lat="45.6280223" lon="13.895732"><ele>474.0</ele><time>2026-04-25T14:36:51.024Z</time></trkpt><trkpt lat="45.6280724" lon="13.8955176"><ele>474.0</ele><time>2026-04-25T14:36:52.023Z</time></trkpt><trkpt lat="45.6281229" lon="13.8953044"><ele>474.0</ele><time>2026-04-25T14:36:53.021Z</time></trkpt><trkpt lat="45.6281762" lon="13.8950885"><ele>474.0</ele><time>2026-04-25T14:36:54.028Z</time></trkpt><trkpt lat="45.6282303" lon="13.8948701"><ele>473.0</ele><time>2026-04-25T14:36:55.022Z</time></trkpt><trkpt lat="45.6282847" lon="13.8946542"><ele>472.0</ele><time>2026-04-25T14:36:56.024Z</time></trkpt><trkpt lat="45.6283328" lon="13.8944423"><ele>471.0</ele><time>2026-04-25T14:36:57.027Z</time></trkpt><trkpt lat="45.6283855" lon="13.894231"><ele>471.0</ele><time>2026-04-25T14:36:58.023Z</time></trkpt><trkpt lat="45.6284416" lon="13.8940242"><ele>471.0</ele><time>2026-04-25T14:36:59.038Z</time></trkpt><trkpt lat="45.6285093" lon="13.8938196"><ele>471.0</ele><time>2026-04-25T14:37:00.024Z</time></trkpt><trkpt lat="45.6286006" lon="13.8936522"><ele>473.33333333333337</ele><time>2026-04-25T14:37:01.029Z</time></trkpt><trkpt lat="45.6287286" lon="13.893513"><ele>475.6666666666667</ele><time>2026-04-25T14:37:02.015Z</time></trkpt><trkpt lat="45.6288607" lon="13.893384"><ele>478.0</ele><time>2026-04-25T14:37:03.017Z</time></trkpt><trkpt lat="45.628994" lon="13.8932375"><ele>478.0</ele><time>2026-04-25T14:37:04.017Z</time></trkpt><trkpt lat="45.6291233" lon="13.893082"><ele>478.0</ele><time>2026-04-25T14:37:05.025Z</time></trkpt><trkpt lat="45.6292614" lon="13.8929268"><ele>478.0</ele><time>2026-04-25T14:37:06.016Z</time></trkpt><trkpt lat="45.6294013" lon="13.8927707"><ele>479.0</ele><time>2026-04-25T14:37:07.036Z</time></trkpt><trkpt lat="45.6295438" lon="13.8926141"><ele>480.0</ele><time>2026-04-25T14:37:08.024Z</time></trkpt><trkpt lat="45.6296818" lon="13.8924593"><ele>481.0</ele><time>2026-04-25T14:37:09.025Z</time></trkpt><trkpt lat="45.6298119" lon="13.8923091"><ele>481.0</ele><time>2026-04-25T14:37:10.026Z</time></trkpt><trkpt lat="45.6299264" lon="13.892152"><ele>481.0</ele><time>2026-04-25T14:37:11.023Z</time></trkpt><trkpt lat="45.6300268" lon="13.8919734"><ele>481.0</ele><time>2026-04-25T14:37:12.017Z</time></trkpt><trkpt lat="45.6301209" lon="13.8917765"><ele>483.33333333333337</ele><time>2026-04-25T14:37:13.014Z</time></trkpt><trkpt lat="45.630219" lon="13.8915805"><ele>485.66666666666663</ele><time>2026-04-25T14:37:14.023Z</time></trkpt><trkpt lat="45.6303174" lon="13.89138"><ele>488.0</ele><time>2026-04-25T14:37:15.02Z</time></trkpt><trkpt lat="45.6304233" lon="13.8911775"><ele>488.0</ele><time>2026-04-25T14:37:16.015Z</time></trkpt><trkpt lat="45.63053" lon="13.8909725"><ele>488.0</ele><time>2026-04-25T14:37:17.01Z</time></trkpt><trkpt lat="45.6306363" lon="13.8907689"><ele>488.0</ele><time>2026-04-25T14:37:18.012Z</time></trkpt><trkpt lat="45.6307436" lon="13.8905684"><ele>486.0</ele><time>2026-04-25T14:37:19.014Z</time></trkpt><trkpt lat="45.6308458" lon="13.8903738"><ele>484.0</ele><time>2026-04-25T14:37:20.01Z</time></trkpt><trkpt lat="45.63094" lon="13.8901814"><ele>482.0</ele><time>2026-04-25T14:37:21.016Z</time></trkpt><trkpt lat="45.6310344" lon="13.889995"><ele>482.66666666666663</ele><time>2026-04-25T14:37:22.006Z</time></trkpt><trkpt lat="45.6311239" lon="13.8898138"><ele>483.33333333333337</ele><time>2026-04-25T14:37:23.013Z</time></trkpt><trkpt lat="45.6312081" lon="13.8896369"><ele>484.0</ele><time>2026-04-25T14:37:24.01Z</time></trkpt><trkpt lat="45.6312901" lon="13.8894663"><ele>484.0</ele><time>2026-04-25T14:37:25.009Z</time></trkpt><trkpt lat="45.6313765" lon="13.8892902"><ele>484.0</ele><time>2026-04-25T14:37:26.012Z</time></trkpt><trkpt lat="45.6314554" lon="13.8890982"><ele>484.0</ele><time>2026-04-25T14:37:27.016Z</time></trkpt><trkpt lat="45.63152" lon="13.8888847"><ele>480.0</ele><time>2026-04-25T14:37:28.023Z</time></trkpt><trkpt lat="45.6315759" lon="13.8886761"><ele>476.0</ele><time>2026-04-25T14:37:29.015Z</time></trkpt><trkpt lat="45.6316304" lon="13.8884601"><ele>472.0</ele><time>2026-04-25T14:37:30.027Z</time></trkpt><trkpt lat="45.6316839" lon="13.8882345"><ele>470.6666666666667</ele><time>2026-04-25T14:37:31.029Z</time></trkpt><trkpt lat="45.6317365" lon="13.8880034"><ele>469.33333333333337</ele><time>2026-04-25T14:37:32.028Z</time></trkpt><trkpt lat="45.6317815" lon="13.8877801"><ele>468.0</ele><time>2026-04-25T14:37:33.02Z</time></trkpt><trkpt lat="45.6318205" lon="13.8875632"><ele>468.0</ele><time>2026-04-25T14:37:34.029Z</time></trkpt><trkpt lat="45.6318612" lon="13.8873633"><ele>468.0</ele><time>2026-04-25T14:37:35.022Z</time></trkpt><trkpt lat="45.6319071" lon="13.8871679"><ele>468.0</ele><time>2026-04-25T14:37:36.022Z</time></trkpt><trkpt lat="45.6319588" lon="13.8869806"><ele>468.0</ele><time>2026-04-25T14:37:37.027Z</time></trkpt><trkpt lat="45.6320147" lon="13.8868022"><ele>466.25</ele><time>2026-04-25T14:37:38.029Z</time></trkpt><trkpt lat="45.632088" lon="13.8866341"><ele>464.5</ele><time>2026-04-25T14:37:39.025Z</time></trkpt><trkpt lat="45.6321823" lon="13.8864919"><ele>462.75</ele><time>2026-04-25T14:37:40.027Z</time></trkpt><trkpt lat="45.6322973" lon="13.8863423"><ele>461.0</ele><time>2026-04-25T14:37:41.023Z</time></trkpt><trkpt lat="45.6324218" lon="13.8861838"><ele>461.0</ele><time>2026-04-25T14:37:42.019Z</time></trkpt><trkpt lat="45.6325428" lon="13.8860041"><ele>461.0</ele><time>2026-04-25T14:37:43.017Z</time></trkpt><trkpt lat="45.6326699" lon="13.8858162"><ele>461.0</ele><time>2026-04-25T14:37:44.03Z</time></trkpt><trkpt lat="45.632795" lon="13.8856296"><ele>461.0</ele><time>2026-04-25T14:37:45.016Z</time></trkpt><trkpt lat="45.6329238" lon="13.8854409"><ele>461.0</ele><time>2026-04-25T14:37:46.029Z</time></trkpt><trkpt lat="45.6330545" lon="13.8852562"><ele>461.0</ele><time>2026-04-25T14:37:47.018Z</time></trkpt><trkpt lat="45.6331864" lon="13.8850737"><ele>461.0</ele><time>2026-04-25T14:37:48.03Z</time></trkpt><trkpt lat="45.6333182" lon="13.8848924"><ele>461.0</ele><time>2026-04-25T14:37:49.019Z</time></trkpt><trkpt lat="45.6334452" lon="13.8847231"><ele>461.0</ele><time>2026-04-25T14:37:50.024Z</time></trkpt><trkpt lat="45.6335682" lon="13.8845586"><ele>459.0</ele><time>2026-04-25T14:37:51.024Z</time></trkpt><trkpt lat="45.6336933" lon="13.8843921"><ele>457.0</ele><time>2026-04-25T14:37:52.035Z</time></trkpt><trkpt lat="45.633816" lon="13.8842159"><ele>455.0</ele><time>2026-04-25T14:37:53.033Z</time></trkpt><trkpt lat="45.6339401" lon="13.8840407"><ele>454.3333333333333</ele><time>2026-04-25T14:37:54.03Z</time></trkpt><trkpt lat="45.6340539" lon="13.8838668"><ele>453.66666666666663</ele><time>2026-04-25T14:37:55.02Z</time></trkpt><trkpt lat="45.6341739" lon="13.8836915"><ele>453.0</ele><time>2026-04-25T14:37:56.026Z</time></trkpt><trkpt lat="45.6342907" lon="13.8835183"><ele>453.33333333333337</ele><time>2026-04-25T14:37:57.019Z</time></trkpt><trkpt lat="45.6344045" lon="13.883333"><ele>453.6666666666667</ele><time>2026-04-25T14:37:58.029Z</time></trkpt><trkpt lat="45.6345136" lon="13.8831361"><ele>454.0</ele><time>2026-04-25T14:37:59.035Z</time></trkpt><trkpt lat="45.6346095" lon="13.8829305"><ele>452.33333333333337</ele><time>2026-04-25T14:38:00.027Z</time></trkpt><trkpt lat="45.6347003" lon="13.8827165"><ele>450.66666666666663</ele><time>2026-04-25T14:38:01.019Z</time></trkpt><trkpt lat="45.6347812" lon="13.8825063"><ele>449.0</ele><time>2026-04-25T14:38:02.031Z</time></trkpt><trkpt lat="45.634867" lon="13.882298"><ele>449.0</ele><time>2026-04-25T14:38:03.021Z</time></trkpt><trkpt lat="45.6349559" lon="13.8820883"><ele>449.0</ele><time>2026-04-25T14:38:04.023Z</time></trkpt><trkpt lat="45.635045" lon="13.8818797"><ele>449.0</ele><time>2026-04-25T14:38:05.024Z</time></trkpt><trkpt lat="45.6351255" lon="13.8816524"><ele>449.0</ele><time>2026-04-25T14:38:06.019Z</time></trkpt><trkpt lat="45.6351903" lon="13.8814143"><ele>449.0</ele><time>2026-04-25T14:38:07.021Z</time></trkpt><trkpt lat="45.635245" lon="13.8811622"><ele>449.0</ele><time>2026-04-25T14:38:08.015Z</time></trkpt><trkpt lat="45.6352877" lon="13.8809089"><ele>447.3333333333333</ele><time>2026-04-25T14:38:09.015Z</time></trkpt><trkpt lat="45.6353294" lon="13.8806507"><ele>445.66666666666663</ele><time>2026-04-25T14:38:10.015Z</time></trkpt><trkpt lat="45.635372" lon="13.8803968"><ele>444.0</ele><time>2026-04-25T14:38:11.013Z</time></trkpt><trkpt lat="45.6354192" lon="13.8801462"><ele>443.66666666666663</ele><time>2026-04-25T14:38:12.018Z</time></trkpt><trkpt lat="45.6354618" lon="13.8798941"><ele>443.3333333333333</ele><time>2026-04-25T14:38:13.011Z</time></trkpt><trkpt lat="45.6355052" lon="13.8796381"><ele>443.0</ele><time>2026-04-25T14:38:14.014Z</time></trkpt><trkpt lat="45.6355514" lon="13.8793815"><ele>441.0</ele><time>2026-04-25T14:38:15.015Z</time></trkpt><trkpt lat="45.6355956" lon="13.879112"><ele>439.0</ele><time>2026-04-25T14:38:16.011Z</time></trkpt><trkpt lat="45.6356421" lon="13.8788388"><ele>437.0</ele><time>2026-04-25T14:38:17.018Z</time></trkpt><trkpt lat="45.6356879" lon="13.8785679"><ele>435.66666666666663</ele><time>2026-04-25T14:38:18.013Z</time></trkpt><trkpt lat="45.6357309" lon="13.8782999"><ele>434.33333333333337</ele><time>2026-04-25T14:38:19.014Z</time></trkpt><trkpt lat="45.6357759" lon="13.8780281"><ele>433.0</ele><time>2026-04-25T14:38:20.01Z</time></trkpt><trkpt lat="45.6358207" lon="13.8777585"><ele>431.6666666666667</ele><time>2026-04-25T14:38:21.004Z</time></trkpt><trkpt lat="45.6358645" lon="13.8774862"><ele>430.33333333333337</ele><time>2026-04-25T14:38:22.014Z</time></trkpt><trkpt lat="45.6359107" lon="13.8772144"><ele>429.0</ele><time>2026-04-25T14:38:23.012Z</time></trkpt><trkpt lat="45.6359597" lon="13.876943"><ele>427.66666666666663</ele><time>2026-04-25T14:38:24.014Z</time></trkpt><trkpt lat="45.6360067" lon="13.8766763"><ele>426.3333333333333</ele><time>2026-04-25T14:38:25.024Z</time></trkpt><trkpt lat="45.6360543" lon="13.8764065"><ele>425.0</ele><time>2026-04-25T14:38:26.011Z</time></trkpt><trkpt lat="45.6361013" lon="13.8761372"><ele>422.0</ele><time>2026-04-25T14:38:27.006Z</time></trkpt><trkpt lat="45.6361496" lon="13.8758629"><ele>419.0</ele><time>2026-04-25T14:38:28.012Z</time></trkpt><trkpt lat="45.6361914" lon="13.8755822"><ele>416.0</ele><time>2026-04-25T14:38:29.011Z</time></trkpt><trkpt lat="45.6362354" lon="13.8753044"><ele>415.66666666666663</ele><time>2026-04-25T14:38:30.02Z</time></trkpt><trkpt lat="45.6362837" lon="13.8750299"><ele>415.33333333333337</ele><time>2026-04-25T14:38:31.008Z</time></trkpt><trkpt lat="45.6363325" lon="13.874758"><ele>415.0</ele><time>2026-04-25T14:38:32.012Z</time></trkpt><trkpt lat="45.636377" lon="13.8744953"><ele>415.33333333333337</ele><time>2026-04-25T14:38:33.008Z</time></trkpt><trkpt lat="45.6364201" lon="13.874242"><ele>415.66666666666663</ele><time>2026-04-25T14:38:34.008Z</time></trkpt><trkpt lat="45.6364671" lon="13.8739926"><ele>416.0</ele><time>2026-04-25T14:38:35.014Z</time></trkpt><trkpt lat="45.6365277" lon="13.8737425"><ele>416.0</ele><time>2026-04-25T14:38:36.017Z</time></trkpt><trkpt lat="45.6365959" lon="13.8734948"><ele>416.0</ele><time>2026-04-25T14:38:37.013Z</time></trkpt><trkpt lat="45.6366787" lon="13.8732541"><ele>416.0</ele><time>2026-04-25T14:38:38.037Z</time></trkpt><trkpt lat="45.6367795" lon="13.8730114"><ele>416.0</ele><time>2026-04-25T14:38:39.017Z</time></trkpt><trkpt lat="45.6368828" lon="13.8727682"><ele>416.0</ele><time>2026-04-25T14:38:40.027Z</time></trkpt><trkpt lat="45.6369938" lon="13.8725222"><ele>416.0</ele><time>2026-04-25T14:38:41.009Z</time></trkpt><trkpt lat="45.6371041" lon="13.8722709"><ele>411.66666666666663</ele><time>2026-04-25T14:38:42.016Z</time></trkpt><trkpt lat="45.6372127" lon="13.8720232"><ele>407.33333333333337</ele><time>2026-04-25T14:38:43.014Z</time></trkpt><trkpt lat="45.6373162" lon="13.8717846"><ele>403.0</ele><time>2026-04-25T14:38:44.016Z</time></trkpt><trkpt lat="45.6374179" lon="13.8715561"><ele>402.6666666666667</ele><time>2026-04-25T14:38:45.012Z</time></trkpt><trkpt lat="45.6375193" lon="13.8713292"><ele>402.33333333333337</ele><time>2026-04-25T14:38:46.022Z</time></trkpt><trkpt lat="45.6376218" lon="13.8710965"><ele>402.0</ele><time>2026-04-25T14:38:47.016Z</time></trkpt><trkpt lat="45.6377252" lon="13.8708619"><ele>400.33333333333337</ele><time>2026-04-25T14:38:48.019Z</time></trkpt><trkpt lat="45.6378299" lon="13.8706252"><ele>398.6666666666667</ele><time>2026-04-25T14:38:49.028Z</time></trkpt><trkpt lat="45.6379339" lon="13.8703887"><ele>397.0</ele><time>2026-04-25T14:38:50.029Z</time></trkpt><trkpt lat="45.6380366" lon="13.8701507"><ele>396.6666666666667</ele><time>2026-04-25T14:38:51.018Z</time></trkpt><trkpt lat="45.638136" lon="13.8699161"><ele>396.33333333333337</ele><time>2026-04-25T14:38:52.025Z</time></trkpt><trkpt lat="45.6382333" lon="13.8696818"><ele>396.0</ele><time>2026-04-25T14:38:53.026Z</time></trkpt><trkpt lat="45.6383301" lon="13.8694496"><ele>396.0</ele><time>2026-04-25T14:38:54.029Z</time></trkpt><trkpt lat="45.6384276" lon="13.8692116"><ele>396.0</ele><time>2026-04-25T14:38:55.015Z</time></trkpt><trkpt lat="45.6385224" lon="13.8689683"><ele>396.0</ele><time>2026-04-25T14:38:56.024Z</time></trkpt><trkpt lat="45.6386127" lon="13.8687153"><ele>395.0</ele><time>2026-04-25T14:38:57.021Z</time></trkpt><trkpt lat="45.638699" lon="13.8684532"><ele>394.0</ele><time>2026-04-25T14:38:58.021Z</time></trkpt><trkpt lat="45.6387817" lon="13.8681845"><ele>393.0</ele><time>2026-04-25T14:38:59.014Z</time></trkpt><trkpt lat="45.6388654" lon="13.8679149"><ele>393.0</ele><time>2026-04-25T14:39:00.02Z</time></trkpt><trkpt lat="45.638946" lon="13.8676586"><ele>393.0</ele><time>2026-04-25T14:39:01.015Z</time></trkpt><trkpt lat="45.639021" lon="13.8674182"><ele>393.0</ele><time>2026-04-25T14:39:02.024Z</time></trkpt><trkpt lat="45.6390953" lon="13.8671933"><ele>393.33333333333337</ele><time>2026-04-25T14:39:03.024Z</time></trkpt><trkpt lat="45.6391679" lon="13.8669829"><ele>393.6666666666667</ele><time>2026-04-25T14:39:04.018Z</time></trkpt><trkpt lat="45.6392368" lon="13.8667821"><ele>394.0</ele><time>2026-04-25T14:39:05.023Z</time></trkpt><trkpt lat="45.6393044" lon="13.8665821"><ele>393.33333333333337</ele><time>2026-04-25T14:39:06.027Z</time></trkpt><trkpt lat="45.6393765" lon="13.8663706"><ele>392.66666666666663</ele><time>2026-04-25T14:39:07.039Z</time></trkpt><trkpt lat="45.6394512" lon="13.8661578"><ele>392.0</ele><time>2026-04-25T14:39:08.025Z</time></trkpt><trkpt lat="45.6395236" lon="13.8659534"><ele>391.3333333333333</ele><time>2026-04-25T14:39:09.027Z</time></trkpt><trkpt lat="45.6395968" lon="13.8657576"><ele>390.66666666666663</ele><time>2026-04-25T14:39:10.027Z</time></trkpt><trkpt lat="45.6396717" lon="13.8655596"><ele>390.0</ele><time>2026-04-25T14:39:11.024Z</time></trkpt><trkpt lat="45.6397457" lon="13.8653633"><ele>390.0</ele><time>2026-04-25T14:39:12.026Z</time></trkpt><trkpt lat="45.6398193" lon="13.8651706"><ele>390.0</ele><time>2026-04-25T14:39:13.018Z</time></trkpt><trkpt lat="45.6398923" lon="13.86498"><ele>390.0</ele><time>2026-04-25T14:39:14.03Z</time></trkpt><trkpt lat="45.6399637" lon="13.8647852"><ele>389.66666666666663</ele><time>2026-04-25T14:39:15.021Z</time></trkpt><trkpt lat="45.6400379" lon="13.8645814"><ele>389.3333333333333</ele><time>2026-04-25T14:39:16.024Z</time></trkpt><trkpt lat="45.640108" lon="13.8643848"><ele>389.0</ele><time>2026-04-25T14:39:17.028Z</time></trkpt><trkpt lat="45.6401744" lon="13.8641993"><ele>388.25</ele><time>2026-04-25T14:39:18.025Z</time></trkpt><trkpt lat="45.6402383" lon="13.8640177"><ele>387.5</ele><time>2026-04-25T14:39:19.032Z</time></trkpt><trkpt lat="45.6402975" lon="13.8638339"><ele>386.75</ele><time>2026-04-25T14:39:20.025Z</time></trkpt><trkpt lat="45.6403469" lon="13.863641"><ele>386.0</ele><time>2026-04-25T14:39:21.022Z</time></trkpt><trkpt lat="45.6403789" lon="13.8634347"><ele>385.0</ele><time>2026-04-25T14:39:22.029Z</time></trkpt><trkpt lat="45.6403972" lon="13.8632248"><ele>384.0</ele><time>2026-04-25T14:39:23.016Z</time></trkpt><trkpt lat="45.6404083" lon="13.8630027"><ele>383.0</ele><time>2026-04-25T14:39:24.033Z</time></trkpt><trkpt lat="45.6404137" lon="13.8627761"><ele>382.0</ele><time>2026-04-25T14:39:25.026Z</time></trkpt><trkpt lat="45.640422" lon="13.8625467"><ele>381.0</ele><time>2026-04-25T14:39:26.028Z</time></trkpt><trkpt lat="45.6404272" lon="13.8623059"><ele>380.0</ele><time>2026-04-25T14:39:27.023Z</time></trkpt><trkpt lat="45.6404297" lon="13.8620644"><ele>380.0</ele><time>2026-04-25T14:39:28.02Z</time></trkpt><trkpt lat="45.6404367" lon="13.8618198"><ele>380.0</ele><time>2026-04-25T14:39:29.013Z</time></trkpt><trkpt lat="45.6404402" lon="13.8615673"><ele>380.0</ele><time>2026-04-25T14:39:30.024Z</time></trkpt><trkpt lat="45.6404458" lon="13.8613189"><ele>379.6666666666667</ele><time>2026-04-25T14:39:31.011Z</time></trkpt><trkpt lat="45.6404534" lon="13.8610781"><ele>379.3333333333333</ele><time>2026-04-25T14:39:32.013Z</time></trkpt><trkpt lat="45.6404622" lon="13.8608399"><ele>379.0</ele><time>2026-04-25T14:39:33.017Z</time></trkpt><trkpt lat="45.6404678" lon="13.860607"><ele>379.0</ele><time>2026-04-25T14:39:34.022Z</time></trkpt><trkpt lat="45.6404773" lon="13.860379"><ele>379.0</ele><time>2026-04-25T14:39:35.015Z</time></trkpt><trkpt lat="45.6404853" lon="13.8601646"><ele>379.0</ele><time>2026-04-25T14:39:36.025Z</time></trkpt><trkpt lat="45.6404869" lon="13.8599636"><ele>378.5</ele><time>2026-04-25T14:39:37.025Z</time></trkpt><trkpt lat="45.6404899" lon="13.8597605"><ele>378.0</ele><time>2026-04-25T14:39:38.012Z</time></trkpt><trkpt lat="45.6404951" lon="13.859553"><ele>377.5</ele><time>2026-04-25T14:39:39.024Z</time></trkpt><trkpt lat="45.6405014" lon="13.8593459"><ele>377.0</ele><time>2026-04-25T14:39:40.024Z</time></trkpt><trkpt lat="45.6405072" lon="13.8591401"><ele>376.0</ele><time>2026-04-25T14:39:41.022Z</time></trkpt><trkpt lat="45.6405133" lon="13.8589438"><ele>375.0</ele><time>2026-04-25T14:39:42.028Z</time></trkpt><trkpt lat="45.6405186" lon="13.8587555"><ele>374.0</ele><time>2026-04-25T14:39:43.025Z</time></trkpt><trkpt lat="45.6405194" lon="13.8585627"><ele>373.0</ele><time>2026-04-25T14:39:44.018Z</time></trkpt><trkpt lat="45.6405015" lon="13.8583615"><ele>372.5</ele><time>2026-04-25T14:39:45.021Z</time></trkpt><trkpt lat="45.6404668" lon="13.8581587"><ele>372.0</ele><time>2026-04-25T14:39:46.02Z</time></trkpt><trkpt lat="45.6404219" lon="13.8579595"><ele>371.5</ele><time>2026-04-25T14:39:47.026Z</time></trkpt><trkpt lat="45.6403719" lon="13.8577547"><ele>371.0</ele><time>2026-04-25T14:39:48.018Z</time></trkpt><trkpt lat="45.6403204" lon="13.8575446"><ele>370.6666666666667</ele><time>2026-04-25T14:39:49.027Z</time></trkpt><trkpt lat="45.6402746" lon="13.8573332"><ele>370.3333333333333</ele><time>2026-04-25T14:39:50.024Z</time></trkpt><trkpt lat="45.6402334" lon="13.857122"><ele>370.0</ele><time>2026-04-25T14:39:51.02Z</time></trkpt><trkpt lat="45.6401894" lon="13.8569163"><ele>368.66666666666663</ele><time>2026-04-25T14:39:52.032Z</time></trkpt><trkpt lat="45.6401428" lon="13.8567092"><ele>367.3333333333333</ele><time>2026-04-25T14:39:53.018Z</time></trkpt><trkpt lat="45.6400952" lon="13.8564996"><ele>366.0</ele><time>2026-04-25T14:39:54.033Z</time></trkpt><trkpt lat="45.6400483" lon="13.8562746"><ele>366.0</ele><time>2026-04-25T14:39:55.016Z</time></trkpt><trkpt lat="45.6399994" lon="13.8560469"><ele>366.0</ele><time>2026-04-25T14:39:56.022Z</time></trkpt><trkpt lat="45.6399523" lon="13.8558182"><ele>366.0</ele><time>2026-04-25T14:39:57.02Z</time></trkpt><trkpt lat="45.639904" lon="13.855591"><ele>365.3333333333333</ele><time>2026-04-25T14:39:58.023Z</time></trkpt><trkpt lat="45.6398506" lon="13.855356"><ele>364.66666666666663</ele><time>2026-04-25T14:39:59.034Z</time></trkpt><trkpt lat="45.6397983" lon="13.8551242"><ele>364.0</ele><time>2026-04-25T14:40:00.026Z</time></trkpt><trkpt lat="45.6397434" lon="13.8548903"><ele>363.66666666666663</ele><time>2026-04-25T14:40:01.02Z</time></trkpt><trkpt lat="45.6396902" lon="13.8546599"><ele>363.3333333333333</ele><time>2026-04-25T14:40:02.018Z</time></trkpt><trkpt lat="45.6396371" lon="13.8544226"><ele>363.0</ele><time>2026-04-25T14:40:03.033Z</time></trkpt><trkpt lat="45.6395825" lon="13.8541919"><ele>362.6666666666667</ele><time>2026-04-25T14:40:04.029Z</time></trkpt><trkpt lat="45.6395268" lon="13.8539616"><ele>362.33333333333337</ele><time>2026-04-25T14:40:05.019Z</time></trkpt><trkpt lat="45.6394738" lon="13.8537263"><ele>362.0</ele><time>2026-04-25T14:40:06.025Z</time></trkpt><trkpt lat="45.6394177" lon="13.8534844"><ele>362.33333333333337</ele><time>2026-04-25T14:40:07.03Z</time></trkpt><trkpt lat="45.6393594" lon="13.8532424"><ele>362.6666666666667</ele><time>2026-04-25T14:40:08.02Z</time></trkpt><trkpt lat="45.6393027" lon="13.8530041"><ele>363.0</ele><time>2026-04-25T14:40:09.026Z</time></trkpt><trkpt lat="45.6392477" lon="13.8527582"><ele>363.3333333333333</ele><time>2026-04-25T14:40:10.017Z</time></trkpt><trkpt lat="45.6391922" lon="13.8525146"><ele>363.66666666666663</ele><time>2026-04-25T14:40:11.038Z</time></trkpt><trkpt lat="45.6391399" lon="13.8522649"><ele>364.0</ele><time>2026-04-25T14:40:12.031Z</time></trkpt><trkpt lat="45.6390862" lon="13.8520105"><ele>365.0</ele><time>2026-04-25T14:40:13.031Z</time></trkpt><trkpt lat="45.6390335" lon="13.8517586"><ele>366.0</ele><time>2026-04-25T14:40:14.024Z</time></trkpt><trkpt lat="45.6389794" lon="13.8515043"><ele>367.0</ele><time>2026-04-25T14:40:15.033Z</time></trkpt><trkpt lat="45.6389223" lon="13.8512501"><ele>367.0</ele><time>2026-04-25T14:40:16.013Z</time></trkpt><trkpt lat="45.6388641" lon="13.8509987"><ele>367.0</ele><time>2026-04-25T14:40:17.027Z</time></trkpt><trkpt lat="45.6388083" lon="13.8507493"><ele>367.0</ele><time>2026-04-25T14:40:18.036Z</time></trkpt><trkpt lat="45.6387522" lon="13.8504999"><ele>367.66666666666663</ele><time>2026-04-25T14:40:19.032Z</time></trkpt><trkpt lat="45.6386973" lon="13.8502496"><ele>368.3333333333333</ele><time>2026-04-25T14:40:20.035Z</time></trkpt><trkpt lat="45.6386406" lon="13.8499987"><ele>369.0</ele><time>2026-04-25T14:40:21.035Z</time></trkpt><trkpt lat="45.6385849" lon="13.8497548"><ele>369.0</ele><time>2026-04-25T14:40:22.035Z</time></trkpt><trkpt lat="45.6385307" lon="13.8495214"><ele>369.0</ele><time>2026-04-25T14:40:23.036Z</time></trkpt><trkpt lat="45.6384797" lon="13.8492935"><ele>369.0</ele><time>2026-04-25T14:40:24.033Z</time></trkpt><trkpt lat="45.6384257" lon="13.8490659"><ele>369.3333333333333</ele><time>2026-04-25T14:40:25.027Z</time></trkpt><trkpt lat="45.638376" lon="13.8488341"><ele>369.66666666666663</ele><time>2026-04-25T14:40:26.034Z</time></trkpt><trkpt lat="45.6383225" lon="13.8485996"><ele>370.0</ele><time>2026-04-25T14:40:27.015Z</time></trkpt><trkpt lat="45.6382727" lon="13.8483658"><ele>370.66666666666663</ele><time>2026-04-25T14:40:28.03Z</time></trkpt><trkpt lat="45.6382222" lon="13.8481366"><ele>371.3333333333333</ele><time>2026-04-25T14:40:29.018Z</time></trkpt><trkpt lat="45.6381729" lon="13.8479172"><ele>372.0</ele><time>2026-04-25T14:40:30.025Z</time></trkpt><trkpt lat="45.6381249" lon="13.847704"><ele>372.3333333333333</ele><time>2026-04-25T14:40:31.026Z</time></trkpt><trkpt lat="45.6380695" lon="13.8474869"><ele>372.66666666666663</ele><time>2026-04-25T14:40:32.038Z</time></trkpt><trkpt lat="45.6380135" lon="13.847264"><ele>373.0</ele><time>2026-04-25T14:40:33.03Z</time></trkpt><trkpt lat="45.6379558" lon="13.8470326"><ele>373.0</ele><time>2026-04-25T14:40:34.033Z</time></trkpt><trkpt lat="45.6378975" lon="13.8467965"><ele>373.0</ele><time>2026-04-25T14:40:35.032Z</time></trkpt><trkpt lat="45.6378421" lon="13.8465627"><ele>373.0</ele><time>2026-04-25T14:40:36.024Z</time></trkpt><trkpt lat="45.6377864" lon="13.8463238"><ele>372.0</ele><time>2026-04-25T14:40:37.038Z</time></trkpt><trkpt lat="45.6377306" lon="13.8460902"><ele>371.0</ele><time>2026-04-25T14:40:38.033Z</time></trkpt><trkpt lat="45.6376785" lon="13.84587"><ele>370.0</ele><time>2026-04-25T14:40:39.017Z</time></trkpt><trkpt lat="45.6376308" lon="13.8456623"><ele>370.0</ele><time>2026-04-25T14:40:40.029Z</time></trkpt><trkpt lat="45.6375837" lon="13.8454599"><ele>370.0</ele><time>2026-04-25T14:40:41.024Z</time></trkpt><trkpt lat="45.6375373" lon="13.8452632"><ele>370.0</ele><time>2026-04-25T14:40:42.035Z</time></trkpt><trkpt lat="45.6374932" lon="13.8450715"><ele>370.0</ele><time>2026-04-25T14:40:43.042Z</time></trkpt><trkpt lat="45.6374482" lon="13.8448848"><ele>370.0</ele><time>2026-04-25T14:40:44.022Z</time></trkpt><trkpt lat="45.6374071" lon="13.8447018"><ele>370.0</ele><time>2026-04-25T14:40:45.02Z</time></trkpt><trkpt lat="45.637361" lon="13.8445199"><ele>370.0</ele><time>2026-04-25T14:40:46.011Z</time></trkpt><trkpt lat="45.6373082" lon="13.8443394"><ele>370.0</ele><time>2026-04-25T14:40:47.023Z</time></trkpt><trkpt lat="45.6372283" lon="13.8441767"><ele>369.5</ele><time>2026-04-25T14:40:48.025Z</time></trkpt><trkpt lat="45.637132" lon="13.8440406"><ele>369.0</ele><time>2026-04-25T14:40:49.023Z</time></trkpt><trkpt lat="45.6370228" lon="13.843924"><ele>368.5</ele><time>2026-04-25T14:40:50.027Z</time></trkpt><trkpt lat="45.6368943" lon="13.8438405"><ele>368.0</ele><time>2026-04-25T14:40:51.024Z</time></trkpt><trkpt lat="45.6367481" lon="13.843783"><ele>367.33333333333337</ele><time>2026-04-25T14:40:52.021Z</time></trkpt><trkpt lat="45.6365937" lon="13.8437466"><ele>366.6666666666667</ele><time>2026-04-25T14:40:53.021Z</time></trkpt><trkpt lat="45.6364294" lon="13.8437396"><ele>366.0</ele><time>2026-04-25T14:40:54.019Z</time></trkpt><trkpt lat="45.6362641" lon="13.8437603"><ele>365.25</ele><time>2026-04-25T14:40:55.015Z</time></trkpt><trkpt lat="45.6361087" lon="13.8437928"><ele>364.5</ele><time>2026-04-25T14:40:56.02Z</time></trkpt><trkpt lat="45.6359641" lon="13.8438303"><ele>363.75</ele><time>2026-04-25T14:40:57.015Z</time></trkpt><trkpt lat="45.6358243" lon="13.8438613"><ele>363.0</ele><time>2026-04-25T14:40:58.011Z</time></trkpt><trkpt lat="45.6356841" lon="13.8438855"><ele>363.0</ele><time>2026-04-25T14:40:59.021Z</time></trkpt><trkpt lat="45.6355486" lon="13.8439059"><ele>363.0</ele><time>2026-04-25T14:41:00.015Z</time></trkpt><trkpt lat="45.6354194" lon="13.8439176"><ele>363.0</ele><time>2026-04-25T14:41:01.017Z</time></trkpt><trkpt lat="45.6353186" lon="13.8439153"><ele>363.0</ele><time>2026-04-25T14:41:02.03Z</time></trkpt><trkpt lat="45.6352439" lon="13.8438775"><ele>363.0</ele><time>2026-04-25T14:41:03.012Z</time></trkpt><trkpt lat="45.6351839" lon="13.8438096"><ele>362.2</ele><time>2026-04-25T14:41:04.014Z</time></trkpt><trkpt lat="45.6351417" lon="13.8437227"><ele>361.4</ele><time>2026-04-25T14:41:05.012Z</time></trkpt><trkpt lat="45.6351181" lon="13.8436071"><ele>360.59999999999997</ele><time>2026-04-25T14:41:06.021Z</time></trkpt><trkpt lat="45.635129" lon="13.8434689"><ele>359.79999999999995</ele><time>2026-04-25T14:41:07.013Z</time></trkpt><trkpt lat="45.6351737" lon="13.8433442"><ele>359.0</ele><time>2026-04-25T14:41:08.01Z</time></trkpt><trkpt lat="45.6352478" lon="13.8432417"><ele>358.25</ele><time>2026-04-25T14:41:09.01Z</time></trkpt><trkpt lat="45.6353378" lon="13.8431685"><ele>357.5</ele><time>2026-04-25T14:41:10.007Z</time></trkpt><trkpt lat="45.6354423" lon="13.8430806"><ele>356.75</ele><time>2026-04-25T14:41:11.014Z</time></trkpt><trkpt lat="45.6355514" lon="13.8429868"><ele>356.0</ele><time>2026-04-25T14:41:12.026Z</time></trkpt><trkpt lat="45.6356538" lon="13.8428853"><ele>356.0</ele><time>2026-04-25T14:41:13.017Z</time></trkpt><trkpt lat="45.6357404" lon="13.8427651"><ele>356.0</ele><time>2026-04-25T14:41:14.032Z</time></trkpt><trkpt lat="45.6358083" lon="13.8426099"><ele>356.0</ele><time>2026-04-25T14:41:15.019Z</time></trkpt><trkpt lat="45.6358609" lon="13.8424273"><ele>356.0</ele><time>2026-04-25T14:41:16.018Z</time></trkpt><trkpt lat="45.6359039" lon="13.8422399"><ele>354.0</ele><time>2026-04-25T14:41:17.017Z</time></trkpt><trkpt lat="45.635953" lon="13.8420581"><ele>352.0</ele><time>2026-04-25T14:41:18.016Z</time></trkpt><trkpt lat="45.6360054" lon="13.8418679"><ele>350.0</ele><time>2026-04-25T14:41:19.017Z</time></trkpt><trkpt lat="45.6360457" lon="13.8416685"><ele>348.0</ele><time>2026-04-25T14:41:20.013Z</time></trkpt><trkpt lat="45.6360671" lon="13.8414507"><ele>346.0</ele><time>2026-04-25T14:41:21.014Z</time></trkpt><trkpt lat="45.6360638" lon="13.8412334"><ele>344.0</ele><time>2026-04-25T14:41:22.012Z</time></trkpt><trkpt lat="45.6360453" lon="13.8410253"><ele>342.0</ele><time>2026-04-25T14:41:23.019Z</time></trkpt><trkpt lat="45.6360233" lon="13.8408091"><ele>340.6666666666667</ele><time>2026-04-25T14:41:24.023Z</time></trkpt><trkpt lat="45.6359967" lon="13.8405941"><ele>339.33333333333337</ele><time>2026-04-25T14:41:25.017Z</time></trkpt><trkpt lat="45.6359759" lon="13.840386"><ele>338.0</ele><time>2026-04-25T14:41:26.02Z</time></trkpt><trkpt lat="45.6359626" lon="13.8401688"><ele>337.0</ele><time>2026-04-25T14:41:27.032Z</time></trkpt><trkpt lat="45.635955" lon="13.8399517"><ele>336.0</ele><time>2026-04-25T14:41:28.021Z</time></trkpt><trkpt lat="45.6359681" lon="13.8397275"><ele>335.0</ele><time>2026-04-25T14:41:29.021Z</time></trkpt><trkpt lat="45.636001" lon="13.8395169"><ele>335.0</ele><time>2026-04-25T14:41:30.018Z</time></trkpt><trkpt lat="45.6360508" lon="13.8393158"><ele>335.0</ele><time>2026-04-25T14:41:31.017Z</time></trkpt><trkpt lat="45.6361103" lon="13.8391199"><ele>335.0</ele><time>2026-04-25T14:41:32.022Z</time></trkpt><trkpt lat="45.6361902" lon="13.8389307"><ele>336.0</ele><time>2026-04-25T14:41:33.017Z</time></trkpt><trkpt lat="45.6362859" lon="13.8387479"><ele>337.0</ele><time>2026-04-25T14:41:34.015Z</time></trkpt><trkpt lat="45.6363889" lon="13.8385802"><ele>338.0</ele><time>2026-04-25T14:41:35.017Z</time></trkpt><trkpt lat="45.6364934" lon="13.8384229"><ele>336.0</ele><time>2026-04-25T14:41:36.017Z</time></trkpt><trkpt lat="45.6366053" lon="13.8382662"><ele>334.0</ele><time>2026-04-25T14:41:37.012Z</time></trkpt><trkpt lat="45.6367096" lon="13.838112"><ele>332.0</ele><time>2026-04-25T14:41:38.028Z</time></trkpt><trkpt lat="45.6368073" lon="13.8379666"><ele>330.0</ele><time>2026-04-25T14:41:39.008Z</time></trkpt><trkpt lat="45.6368987" lon="13.8378408"><ele>330.4</ele><time>2026-04-25T14:41:40.007Z</time></trkpt><trkpt lat="45.6369841" lon="13.8377305"><ele>330.8</ele><time>2026-04-25T14:41:41.007Z</time></trkpt><trkpt lat="45.6370665" lon="13.8376223"><ele>331.20000000000005</ele><time>2026-04-25T14:41:42.022Z</time></trkpt><trkpt lat="45.6371455" lon="13.8375148"><ele>331.6</ele><time>2026-04-25T14:41:43.023Z</time></trkpt><trkpt lat="45.6372211" lon="13.8374073"><ele>332.0</ele><time>2026-04-25T14:41:44.021Z</time></trkpt><trkpt lat="45.6372921" lon="13.8373032"><ele>330.83333333333337</ele><time>2026-04-25T14:41:45.016Z</time></trkpt><trkpt lat="45.6373515" lon="13.8372116"><ele>329.6666666666667</ele><time>2026-04-25T14:41:46.027Z</time></trkpt><trkpt lat="45.6374059" lon="13.837128"><ele>328.5</ele><time>2026-04-25T14:41:47.013Z</time></trkpt><trkpt lat="45.6374594" lon="13.8370494"><ele>327.3333333333333</ele><time>2026-04-25T14:41:48.019Z</time></trkpt><trkpt lat="45.637508" lon="13.836977"><ele>326.16666666666663</ele><time>2026-04-25T14:41:49.009Z</time></trkpt><trkpt lat="45.6375535" lon="13.8369062"><ele>325.0</ele><time>2026-04-25T14:41:50.013Z</time></trkpt><trkpt lat="45.6375998" lon="13.8368326"><ele>325.0</ele><time>2026-04-25T14:41:51.016Z</time></trkpt><trkpt lat="45.6376473" lon="13.8367597"><ele>325.0</ele><time>2026-04-25T14:41:52.015Z</time></trkpt><trkpt lat="45.637712" lon="13.8366429"><ele>325.0</ele><time>2026-04-25T14:41:54.017Z</time></trkpt><trkpt lat="45.6377684" lon="13.8365177"><ele>325.0</ele><time>2026-04-25T14:41:56.03Z</time></trkpt><trkpt lat="45.6378565" lon="13.8363941"><ele>325.0</ele><time>2026-04-25T14:41:58.018Z</time></trkpt><trkpt lat="45.6379551" lon="13.8362803"><ele>325.0</ele><time>2026-04-25T14:42:00.011Z</time></trkpt><trkpt lat="45.6380009" lon="13.8362045"><ele>325.0</ele><time>2026-04-25T14:42:01.007Z</time></trkpt><trkpt lat="45.6380501" lon="13.8361169"><ele>325.0</ele><time>2026-04-25T14:42:02.011Z</time></trkpt><trkpt lat="45.6381137" lon="13.836012"><ele>325.0</ele><time>2026-04-25T14:42:03.012Z</time></trkpt><trkpt lat="45.6381993" lon="13.835898"><ele>325.0</ele><time>2026-04-25T14:42:04.007Z</time></trkpt><trkpt lat="45.6383041" lon="13.8357937"><ele>324.0</ele><time>2026-04-25T14:42:05.006Z</time></trkpt><trkpt lat="45.6384131" lon="13.8356963"><ele>323.0</ele><time>2026-04-25T14:42:06.008Z</time></trkpt><trkpt lat="45.6385369" lon="13.8355992"><ele>322.0</ele><time>2026-04-25T14:42:07.024Z</time></trkpt><trkpt lat="45.6386687" lon="13.8354921"><ele>321.0</ele><time>2026-04-25T14:42:08.006Z</time></trkpt><trkpt lat="45.6388091" lon="13.8353817"><ele>321.0</ele><time>2026-04-25T14:42:09.009Z</time></trkpt><trkpt lat="45.6389497" lon="13.8352653"><ele>321.0</ele><time>2026-04-25T14:42:10.001Z</time></trkpt><trkpt lat="45.639092" lon="13.8351394"><ele>321.0</ele><time>2026-04-25T14:42:11.002Z</time></trkpt><trkpt lat="45.6392305" lon="13.8350085"><ele>322.0</ele><time>2026-04-25T14:42:12.008Z</time></trkpt><trkpt lat="45.6393502" lon="13.8348433"><ele>323.0</ele><time>2026-04-25T14:42:13.003Z</time></trkpt><trkpt lat="45.6394585" lon="13.8346562"><ele>324.0</ele><time>2026-04-25T14:42:14.011Z</time></trkpt><trkpt lat="45.6395649" lon="13.8344591"><ele>317.6666666666667</ele><time>2026-04-25T14:42:15.001Z</time></trkpt><trkpt lat="45.6396735" lon="13.8342703"><ele>311.33333333333337</ele><time>2026-04-25T14:42:16.002Z</time></trkpt><trkpt lat="45.6397881" lon="13.834084"><ele>305.0</ele><time>2026-04-25T14:42:17.001Z</time></trkpt><trkpt lat="45.6399142" lon="13.833899"><ele>305.0</ele><time>2026-04-25T14:42:18.007Z</time></trkpt><trkpt lat="45.6400422" lon="13.8337133"><ele>305.0</ele><time>2026-04-25T14:42:19.001Z</time></trkpt><trkpt lat="45.6401691" lon="13.8335311"><ele>305.0</ele><time>2026-04-25T14:42:20.006Z</time></trkpt><trkpt lat="45.6402966" lon="13.8333529"><ele>306.0</ele><time>2026-04-25T14:42:21.007Z</time></trkpt><trkpt lat="45.6404237" lon="13.8331748"><ele>307.0</ele><time>2026-04-25T14:42:22.006Z</time></trkpt><trkpt lat="45.6405501" lon="13.8329961"><ele>308.0</ele><time>2026-04-25T14:42:23.016Z</time></trkpt><trkpt lat="45.6406763" lon="13.8328182"><ele>308.0</ele><time>2026-04-25T14:42:24.008Z</time></trkpt><trkpt lat="45.6408033" lon="13.8326396"><ele>308.0</ele><time>2026-04-25T14:42:25.012Z</time></trkpt><trkpt lat="45.6409353" lon="13.8324622"><ele>308.0</ele><time>2026-04-25T14:42:26.004Z</time></trkpt><trkpt lat="45.6410723" lon="13.8322829"><ele>310.33333333333337</ele><time>2026-04-25T14:42:27.006Z</time></trkpt><trkpt lat="45.6412082" lon="13.8320998"><ele>312.6666666666667</ele><time>2026-04-25T14:42:27.999Z</time></trkpt><trkpt lat="45.6413448" lon="13.831913"><ele>315.0</ele><time>2026-04-25T14:42:29.008Z</time></trkpt><trkpt lat="45.6414803" lon="13.8317232"><ele>308.6666666666667</ele><time>2026-04-25T14:42:30.003Z</time></trkpt><trkpt lat="45.641618" lon="13.831531"><ele>302.33333333333337</ele><time>2026-04-25T14:42:31.01Z</time></trkpt><trkpt lat="45.6417601" lon="13.8313405"><ele>296.0</ele><time>2026-04-25T14:42:31.997Z</time></trkpt><trkpt lat="45.6419025" lon="13.831148"><ele>294.33333333333337</ele><time>2026-04-25T14:42:32.999Z</time></trkpt><trkpt lat="45.6420428" lon="13.8309602"><ele>292.6666666666667</ele><time>2026-04-25T14:42:34.003Z</time></trkpt><trkpt lat="45.6421771" lon="13.8307802"><ele>291.0</ele><time>2026-04-25T14:42:34.999Z</time></trkpt><trkpt lat="45.6423085" lon="13.8306029"><ele>291.0</ele><time>2026-04-25T14:42:36.003Z</time></trkpt><trkpt lat="45.6424404" lon="13.8304225"><ele>291.0</ele><time>2026-04-25T14:42:37.004Z</time></trkpt><trkpt lat="45.6425717" lon="13.8302409"><ele>291.0</ele><time>2026-04-25T14:42:38.002Z</time></trkpt><trkpt lat="45.6427044" lon="13.8300561"><ele>291.3333333333333</ele><time>2026-04-25T14:42:39.013Z</time></trkpt><trkpt lat="45.6428329" lon="13.8298739"><ele>291.66666666666663</ele><time>2026-04-25T14:42:39.993Z</time></trkpt><trkpt lat="45.6429568" lon="13.829705"><ele>292.0</ele><time>2026-04-25T14:42:41.003Z</time></trkpt><trkpt lat="45.6430765" lon="13.8295377"><ele>292.0</ele><time>2026-04-25T14:42:42.005Z</time></trkpt><trkpt lat="45.6431997" lon="13.8293643"><ele>292.0</ele><time>2026-04-25T14:42:43.004Z</time></trkpt><trkpt lat="45.643325" lon="13.8291829"><ele>292.0</ele><time>2026-04-25T14:42:43.998Z</time></trkpt><trkpt lat="45.6434502" lon="13.8289999"><ele>295.66666666666663</ele><time>2026-04-25T14:42:45.014Z</time></trkpt><trkpt lat="45.6435787" lon="13.8288115"><ele>299.3333333333333</ele><time>2026-04-25T14:42:46.007Z</time></trkpt><trkpt lat="45.6437074" lon="13.8286199"><ele>303.0</ele><time>2026-04-25T14:42:47.007Z</time></trkpt><trkpt lat="45.6438432" lon="13.8284294"><ele>292.6666666666667</ele><time>2026-04-25T14:42:48.001Z</time></trkpt><trkpt lat="45.6439851" lon="13.8282392"><ele>282.33333333333337</ele><time>2026-04-25T14:42:48.999Z</time></trkpt><trkpt lat="45.6441244" lon="13.8280478"><ele>272.0</ele><time>2026-04-25T14:42:50.005Z</time></trkpt><trkpt lat="45.6442622" lon="13.8278535"><ele>272.0</ele><time>2026-04-25T14:42:51.004Z</time></trkpt><trkpt lat="45.6444011" lon="13.8276614"><ele>272.0</ele><time>2026-04-25T14:42:52.007Z</time></trkpt><trkpt lat="45.6445406" lon="13.827471"><ele>272.0</ele><time>2026-04-25T14:42:53.001Z</time></trkpt><trkpt lat="45.644686" lon="13.8272837"><ele>270.0</ele><time>2026-04-25T14:42:54.002Z</time></trkpt><trkpt lat="45.6448362" lon="13.8271049"><ele>268.0</ele><time>2026-04-25T14:42:55Z</time></trkpt><trkpt lat="45.6449913" lon="13.8269388"><ele>266.0</ele><time>2026-04-25T14:42:56.012Z</time></trkpt><trkpt lat="45.645144" lon="13.8267785"><ele>264.6666666666667</ele><time>2026-04-25T14:42:57.007Z</time></trkpt><trkpt lat="45.6452907" lon="13.8266216"><ele>263.3333333333333</ele><time>2026-04-25T14:42:58.007Z</time></trkpt><trkpt lat="45.6454396" lon="13.8264712"><ele>262.0</ele><time>2026-04-25T14:42:59.004Z</time></trkpt><trkpt lat="45.6455875" lon="13.8263197"><ele>262.0</ele><time>2026-04-25T14:43:00.003Z</time></trkpt><trkpt lat="45.6457363" lon="13.826164"><ele>262.0</ele><time>2026-04-25T14:43:01.008Z</time></trkpt><trkpt lat="45.6458927" lon="13.8260118"><ele>262.0</ele><time>2026-04-25T14:43:02.006Z</time></trkpt><trkpt lat="45.6460585" lon="13.8258784"><ele>260.66666666666663</ele><time>2026-04-25T14:43:03.005Z</time></trkpt><trkpt lat="45.6462372" lon="13.8257738"><ele>259.3333333333333</ele><time>2026-04-25T14:43:04.001Z</time></trkpt><trkpt lat="45.64642" lon="13.8256909"><ele>258.0</ele><time>2026-04-25T14:43:05.002Z</time></trkpt><trkpt lat="45.6466024" lon="13.8256114"><ele>258.0</ele><time>2026-04-25T14:43:06.012Z</time></trkpt><trkpt lat="45.6467832" lon="13.8255359"><ele>258.0</ele><time>2026-04-25T14:43:07.003Z</time></trkpt><trkpt lat="45.6469647" lon="13.8254563"><ele>258.0</ele><time>2026-04-25T14:43:08.013Z</time></trkpt><trkpt lat="45.6471314" lon="13.825336"><ele>255.66666666666669</ele><time>2026-04-25T14:43:09.003Z</time></trkpt><trkpt lat="45.6472853" lon="13.8251696"><ele>253.33333333333334</ele><time>2026-04-25T14:43:10.006Z</time></trkpt><trkpt lat="45.6474239" lon="13.8249755"><ele>251.0</ele><time>2026-04-25T14:43:10.999Z</time></trkpt><trkpt lat="45.647557" lon="13.8247616"><ele>251.0</ele><time>2026-04-25T14:43:12.017Z</time></trkpt><trkpt lat="45.6476817" lon="13.8245327"><ele>251.0</ele><time>2026-04-25T14:43:12.998Z</time></trkpt><trkpt lat="45.6477956" lon="13.8242927"><ele>251.0</ele><time>2026-04-25T14:43:14.001Z</time></trkpt><trkpt lat="45.6479012" lon="13.824049"><ele>255.0</ele><time>2026-04-25T14:43:15.008Z</time></trkpt><trkpt lat="45.6480026" lon="13.823808"><ele>259.0</ele><time>2026-04-25T14:43:16.01Z</time></trkpt><trkpt lat="45.64811" lon="13.8235878"><ele>263.0</ele><time>2026-04-25T14:43:17Z</time></trkpt><trkpt lat="45.648238" lon="13.8234004"><ele>264.0</ele><time>2026-04-25T14:43:18.01Z</time></trkpt><trkpt lat="45.6483845" lon="13.8232323"><ele>265.0</ele><time>2026-04-25T14:43:19.005Z</time></trkpt><trkpt lat="45.6485334" lon="13.8230555"><ele>266.0</ele><time>2026-04-25T14:43:20.009Z</time></trkpt><trkpt lat="45.648686" lon="13.8228784"><ele>266.0</ele><time>2026-04-25T14:43:21.006Z</time></trkpt><trkpt lat="45.648839" lon="13.8227012"><ele>266.0</ele><time>2026-04-25T14:43:22.009Z</time></trkpt><trkpt lat="45.6489846" lon="13.8225114"><ele>266.0</ele><time>2026-04-25T14:43:23.004Z</time></trkpt><trkpt lat="45.6491129" lon="13.8222914"><ele>255.66666666666669</ele><time>2026-04-25T14:43:24.005Z</time></trkpt><trkpt lat="45.6492281" lon="13.8220592"><ele>245.33333333333331</ele><time>2026-04-25T14:43:25.01Z</time></trkpt><trkpt lat="45.6493423" lon="13.8218322"><ele>235.0</ele><time>2026-04-25T14:43:26.014Z</time></trkpt><trkpt lat="45.649474" lon="13.8216275"><ele>234.33333333333331</ele><time>2026-04-25T14:43:27.026Z</time></trkpt><trkpt lat="45.6496117" lon="13.821425"><ele>233.66666666666669</ele><time>2026-04-25T14:43:28.062Z</time></trkpt><trkpt lat="45.64975" lon="13.8212232"><ele>233.0</ele><time>2026-04-25T14:43:29.054Z</time></trkpt><trkpt lat="45.6498904" lon="13.8210224"><ele>233.66666666666669</ele><time>2026-04-25T14:43:30.03Z</time></trkpt><trkpt lat="45.6500354" lon="13.8208278"><ele>234.33333333333331</ele><time>2026-04-25T14:43:31.015Z</time></trkpt><trkpt lat="45.6501901" lon="13.820658"><ele>235.0</ele><time>2026-04-25T14:43:32.027Z</time></trkpt><trkpt lat="45.6503566" lon="13.8205273"><ele>235.0</ele><time>2026-04-25T14:43:32.995Z</time></trkpt><trkpt lat="45.6505224" lon="13.8203989"><ele>235.0</ele><time>2026-04-25T14:43:34.001Z</time></trkpt><trkpt lat="45.6506838" lon="13.8202566"><ele>235.0</ele><time>2026-04-25T14:43:35.078Z</time></trkpt><trkpt lat="45.650844" lon="13.82011"><ele>231.66666666666666</ele><time>2026-04-25T14:43:36.042Z</time></trkpt><trkpt lat="45.6510004" lon="13.8199643"><ele>228.33333333333331</ele><time>2026-04-25T14:43:37.022Z</time></trkpt><trkpt lat="45.6511481" lon="13.8198066"><ele>225.0</ele><time>2026-04-25T14:43:38.014Z</time></trkpt><trkpt lat="45.6512885" lon="13.8196236"><ele>225.0</ele><time>2026-04-25T14:43:39.011Z</time></trkpt><trkpt lat="45.6514286" lon="13.8194285"><ele>225.0</ele><time>2026-04-25T14:43:40.046Z</time></trkpt><trkpt lat="45.6515698" lon="13.8192206"><ele>225.0</ele><time>2026-04-25T14:43:41.07Z</time></trkpt><trkpt lat="45.6517158" lon="13.819005"><ele>221.33333333333331</ele><time>2026-04-25T14:43:42.053Z</time></trkpt><trkpt lat="45.6518607" lon="13.8188003"><ele>217.66666666666666</ele><time>2026-04-25T14:43:42.999Z</time></trkpt><trkpt lat="45.6520045" lon="13.8185989"><ele>214.0</ele><time>2026-04-25T14:43:43.996Z</time></trkpt><trkpt lat="45.6521479" lon="13.8183925"><ele>214.0</ele><time>2026-04-25T14:43:45.009Z</time></trkpt><trkpt lat="45.6522878" lon="13.8181779"><ele>214.0</ele><time>2026-04-25T14:43:46.008Z</time></trkpt><trkpt lat="45.6524235" lon="13.8179646"><ele>214.0</ele><time>2026-04-25T14:43:47Z</time></trkpt><trkpt lat="45.6525602" lon="13.817766"><ele>212.33333333333331</ele><time>2026-04-25T14:43:48Z</time></trkpt><trkpt lat="45.6526925" lon="13.817576"><ele>210.66666666666669</ele><time>2026-04-25T14:43:48.998Z</time></trkpt><trkpt lat="45.6528223" lon="13.817395"><ele>209.0</ele><time>2026-04-25T14:43:50.01Z</time></trkpt><trkpt lat="45.6529565" lon="13.8172175"><ele>209.0</ele><time>2026-04-25T14:43:51.01Z</time></trkpt><trkpt lat="45.6531034" lon="13.8170498"><ele>209.0</ele><time>2026-04-25T14:43:52.004Z</time></trkpt><trkpt lat="45.6532606" lon="13.8169022"><ele>209.0</ele><time>2026-04-25T14:43:53.007Z</time></trkpt><trkpt lat="45.6534273" lon="13.8167745"><ele>207.33333333333334</ele><time>2026-04-25T14:43:54.004Z</time></trkpt><trkpt lat="45.653602" lon="13.8166558"><ele>205.66666666666669</ele><time>2026-04-25T14:43:55.001Z</time></trkpt><trkpt lat="45.6537814" lon="13.81655"><ele>204.0</ele><time>2026-04-25T14:43:55.996Z</time></trkpt><trkpt lat="45.653961" lon="13.8164449"><ele>204.0</ele><time>2026-04-25T14:43:57.007Z</time></trkpt><trkpt lat="45.6541425" lon="13.8163248"><ele>204.0</ele><time>2026-04-25T14:43:58.004Z</time></trkpt><trkpt lat="45.6543199" lon="13.8161958"><ele>204.0</ele><time>2026-04-25T14:43:59.009Z</time></trkpt><trkpt lat="45.6544955" lon="13.8160593"><ele>201.33333333333331</ele><time>2026-04-25T14:44:00.01Z</time></trkpt><trkpt lat="45.6546715" lon="13.8159094"><ele>198.66666666666666</ele><time>2026-04-25T14:44:00.999Z</time></trkpt><trkpt lat="45.654846" lon="13.8157607"><ele>196.0</ele><time>2026-04-25T14:44:02.008Z</time></trkpt><trkpt lat="45.6550083" lon="13.8156186"><ele>196.0</ele><time>2026-04-25T14:44:03.007Z</time></trkpt><trkpt lat="45.6551654" lon="13.8154799"><ele>196.0</ele><time>2026-04-25T14:44:04.005Z</time></trkpt><trkpt lat="45.655323" lon="13.8153408"><ele>196.0</ele><time>2026-04-25T14:44:05.015Z</time></trkpt><trkpt lat="45.6554824" lon="13.8151996"><ele>190.66666666666666</ele><time>2026-04-25T14:44:06.011Z</time></trkpt><trkpt lat="45.6556475" lon="13.8150813"><ele>185.33333333333331</ele><time>2026-04-25T14:44:07.007Z</time></trkpt><trkpt lat="45.6558121" lon="13.8149803"><ele>180.0</ele><time>2026-04-25T14:44:08.016Z</time></trkpt><trkpt lat="45.6559738" lon="13.8148785"><ele>182.0</ele><time>2026-04-25T14:44:09.002Z</time></trkpt><trkpt lat="45.6561279" lon="13.8147868"><ele>184.0</ele><time>2026-04-25T14:44:10.01Z</time></trkpt><trkpt lat="45.6562742" lon="13.8147009"><ele>186.0</ele><time>2026-04-25T14:44:11.002Z</time></trkpt><trkpt lat="45.6564154" lon="13.8146165"><ele>186.0</ele><time>2026-04-25T14:44:11.999Z</time></trkpt><trkpt lat="45.6565539" lon="13.8145346"><ele>186.0</ele><time>2026-04-25T14:44:13.01Z</time></trkpt><trkpt lat="45.6566862" lon="13.8144538"><ele>186.0</ele><time>2026-04-25T14:44:13.997Z</time></trkpt><trkpt lat="45.6568171" lon="13.814375"><ele>186.0</ele><time>2026-04-25T14:44:15.017Z</time></trkpt><trkpt lat="45.6569454" lon="13.8142937"><ele>183.75</ele><time>2026-04-25T14:44:16.014Z</time></trkpt><trkpt lat="45.6570828" lon="13.8142141"><ele>181.5</ele><time>2026-04-25T14:44:17.017Z</time></trkpt><trkpt lat="45.6572222" lon="13.8141445"><ele>179.25</ele><time>2026-04-25T14:44:18.008Z</time></trkpt><trkpt lat="45.6573594" lon="13.8140821"><ele>177.0</ele><time>2026-04-25T14:44:19.013Z</time></trkpt><trkpt lat="45.6574949" lon="13.8140343"><ele>177.0</ele><time>2026-04-25T14:44:20.009Z</time></trkpt><trkpt lat="45.6576259" lon="13.8140072"><ele>177.0</ele><time>2026-04-25T14:44:21.027Z</time></trkpt><trkpt lat="45.657738" lon="13.8139793"><ele>177.0</ele><time>2026-04-25T14:44:22.012Z</time></trkpt><trkpt lat="45.6578224" lon="13.8139156"><ele>177.0</ele><time>2026-04-25T14:44:23.001Z</time></trkpt><trkpt lat="45.6578786" lon="13.8137911"><ele>177.0</ele><time>2026-04-25T14:44:24.005Z</time></trkpt><trkpt lat="45.6579361" lon="13.8136523"><ele>176.25</ele><time>2026-04-25T14:44:25.019Z</time></trkpt><trkpt lat="45.6580225" lon="13.8135184"><ele>175.5</ele><time>2026-04-25T14:44:26.014Z</time></trkpt><trkpt lat="45.6581297" lon="13.8134035"><ele>174.75</ele><time>2026-04-25T14:44:27.017Z</time></trkpt><trkpt lat="45.6582521" lon="13.8132938"><ele>174.0</ele><time>2026-04-25T14:44:28.02Z</time></trkpt><trkpt lat="45.6583751" lon="13.8131727"><ele>174.0</ele><time>2026-04-25T14:44:29.022Z</time></trkpt><trkpt lat="45.6584963" lon="13.813017"><ele>174.0</ele><time>2026-04-25T14:44:30.018Z</time></trkpt><trkpt lat="45.6586124" lon="13.8128516"><ele>174.0</ele><time>2026-04-25T14:44:31.019Z</time></trkpt><trkpt lat="45.6587326" lon="13.8126705"><ele>176.0</ele><time>2026-04-25T14:44:32.007Z</time></trkpt><trkpt lat="45.658856" lon="13.8124859"><ele>178.0</ele><time>2026-04-25T14:44:33.009Z</time></trkpt><trkpt lat="45.6589775" lon="13.8122988"><ele>180.0</ele><time>2026-04-25T14:44:34.007Z</time></trkpt><trkpt lat="45.659097" lon="13.8121129"><ele>180.0</ele><time>2026-04-25T14:44:35.018Z</time></trkpt><trkpt lat="45.6592076" lon="13.8119264"><ele>180.0</ele><time>2026-04-25T14:44:36.014Z</time></trkpt><trkpt lat="45.6592921" lon="13.8117314"><ele>180.0</ele><time>2026-04-25T14:44:37.013Z</time></trkpt><trkpt lat="45.6593609" lon="13.8115367"><ele>181.0</ele><time>2026-04-25T14:44:38.021Z</time></trkpt><trkpt lat="45.6594333" lon="13.8113418"><ele>182.0</ele><time>2026-04-25T14:44:39.005Z</time></trkpt><trkpt lat="45.6595298" lon="13.811161"><ele>183.0</ele><time>2026-04-25T14:44:40.009Z</time></trkpt><trkpt lat="45.6596537" lon="13.811002"><ele>178.0</ele><time>2026-04-25T14:44:41.007Z</time></trkpt><trkpt lat="45.6597849" lon="13.8108429"><ele>173.0</ele><time>2026-04-25T14:44:42.002Z</time></trkpt><trkpt lat="45.6599009" lon="13.8106695"><ele>168.0</ele><time>2026-04-25T14:44:43.003Z</time></trkpt><trkpt lat="45.6600036" lon="13.8104741"><ele>168.0</ele><time>2026-04-25T14:44:44.013Z</time></trkpt><trkpt lat="45.6600874" lon="13.8102403"><ele>168.0</ele><time>2026-04-25T14:44:45.004Z</time></trkpt><trkpt lat="45.6601545" lon="13.8099998"><ele>168.0</ele><time>2026-04-25T14:44:46.001Z</time></trkpt><trkpt lat="45.6602106" lon="13.8097542"><ele>167.33333333333334</ele><time>2026-04-25T14:44:47.002Z</time></trkpt><trkpt lat="45.6602607" lon="13.8095143"><ele>166.66666666666669</ele><time>2026-04-25T14:44:48.013Z</time></trkpt><trkpt lat="45.6603163" lon="13.8092817"><ele>166.0</ele><time>2026-04-25T14:44:49.006Z</time></trkpt><trkpt lat="45.6603857" lon="13.8090568"><ele>166.0</ele><time>2026-04-25T14:44:50.004Z</time></trkpt><trkpt lat="45.6604661" lon="13.8088565"><ele>166.0</ele><time>2026-04-25T14:44:51.006Z</time></trkpt><trkpt lat="45.6605549" lon="13.8086664"><ele>166.0</ele><time>2026-04-25T14:44:52.01Z</time></trkpt><trkpt lat="45.6606515" lon="13.8084954"><ele>163.0</ele><time>2026-04-25T14:44:53.003Z</time></trkpt><trkpt lat="45.6607524" lon="13.8083583"><ele>160.0</ele><time>2026-04-25T14:44:54.004Z</time></trkpt><trkpt lat="45.6608603" lon="13.8082091"><ele>157.0</ele><time>2026-04-25T14:44:55.004Z</time></trkpt><trkpt lat="45.6609614" lon="13.80807"><ele>154.0</ele><time>2026-04-25T14:44:56.001Z</time></trkpt><trkpt lat="45.6610658" lon="13.8079246"><ele>157.25</ele><time>2026-04-25T14:44:57.013Z</time></trkpt><trkpt lat="45.6611665" lon="13.8077722"><ele>160.5</ele><time>2026-04-25T14:44:58.003Z</time></trkpt><trkpt lat="45.6612587" lon="13.8076119"><ele>163.75</ele><time>2026-04-25T14:44:59.006Z</time></trkpt><trkpt lat="45.661349" lon="13.8074432"><ele>167.0</ele><time>2026-04-25T14:45:00.002Z</time></trkpt><trkpt lat="45.6614338" lon="13.8072726"><ele>167.0</ele><time>2026-04-25T14:45:00.999Z</time></trkpt><trkpt lat="45.6615123" lon="13.8070965"><ele>167.0</ele><time>2026-04-25T14:45:02.027Z</time></trkpt><trkpt lat="45.6615883" lon="13.8069157"><ele>167.0</ele><time>2026-04-25T14:45:02.999Z</time></trkpt><trkpt lat="45.6616557" lon="13.8067176"><ele>167.0</ele><time>2026-04-25T14:45:04.001Z</time></trkpt><trkpt lat="45.6617011" lon="13.8064973"><ele>162.33333333333331</ele><time>2026-04-25T14:45:05.003Z</time></trkpt><trkpt lat="45.6617327" lon="13.8062742"><ele>157.66666666666666</ele><time>2026-04-25T14:45:05.997Z</time></trkpt><trkpt lat="45.6617593" lon="13.8060604"><ele>153.0</ele><time>2026-04-25T14:45:07.002Z</time></trkpt><trkpt lat="45.6617815" lon="13.805859"><ele>154.5</ele><time>2026-04-25T14:45:07.997Z</time></trkpt><trkpt lat="45.6618136" lon="13.8056647"><ele>156.0</ele><time>2026-04-25T14:45:09.001Z</time></trkpt><trkpt lat="45.6618511" lon="13.8054825"><ele>157.5</ele><time>2026-04-25T14:45:09.999Z</time></trkpt><trkpt lat="45.6618979" lon="13.8053004"><ele>159.0</ele><time>2026-04-25T14:45:11.008Z</time></trkpt><trkpt lat="45.6619594" lon="13.8051209"><ele>159.0</ele><time>2026-04-25T14:45:12.009Z</time></trkpt><trkpt lat="45.6620354" lon="13.8049451"><ele>159.0</ele><time>2026-04-25T14:45:13.016Z</time></trkpt><trkpt lat="45.6621167" lon="13.8047665"><ele>159.0</ele><time>2026-04-25T14:45:13.999Z</time></trkpt><trkpt lat="45.6622039" lon="13.8046001"><ele>159.0</ele><time>2026-04-25T14:45:15.01Z</time></trkpt><trkpt lat="45.6622915" lon="13.8044476"><ele>154.0</ele><time>2026-04-25T14:45:16.008Z</time></trkpt><trkpt lat="45.6623789" lon="13.8043018"><ele>149.0</ele><time>2026-04-25T14:45:17.006Z</time></trkpt><trkpt lat="45.6624602" lon="13.8041602"><ele>144.0</ele><time>2026-04-25T14:45:18.021Z</time></trkpt><trkpt lat="45.6625351" lon="13.8040216"><ele>139.0</ele><time>2026-04-25T14:45:19.005Z</time></trkpt><trkpt lat="45.6626086" lon="13.8038999"><ele>139.0</ele><time>2026-04-25T14:45:20Z</time></trkpt><trkpt lat="45.6626746" lon="13.8038018"><ele>139.0</ele><time>2026-04-25T14:45:21.007Z</time></trkpt><trkpt lat="45.6627431" lon="13.8037408"><ele>139.0</ele><time>2026-04-25T14:45:22.002Z</time></trkpt><trkpt lat="45.6628272" lon="13.8037037"><ele>139.0</ele><time>2026-04-25T14:45:23.003Z</time></trkpt><trkpt lat="45.662916" lon="13.8036844"><ele>139.0</ele><time>2026-04-25T14:45:23.999Z</time></trkpt><trkpt lat="45.6630027" lon="13.8036632"><ele>139.0</ele><time>2026-04-25T14:45:25.001Z</time></trkpt><trkpt lat="45.663087" lon="13.8036341"><ele>139.5</ele><time>2026-04-25T14:45:26.017Z</time></trkpt><trkpt lat="45.6631633" lon="13.8035967"><ele>140.0</ele><time>2026-04-25T14:45:27.001Z</time></trkpt><trkpt lat="45.6632358" lon="13.8035372"><ele>140.5</ele><time>2026-04-25T14:45:27.995Z</time></trkpt><trkpt lat="45.6632992" lon="13.8034603"><ele>141.0</ele><time>2026-04-25T14:45:29Z</time></trkpt><trkpt lat="45.6633597" lon="13.8033665"><ele>141.5</ele><time>2026-04-25T14:45:30.003Z</time></trkpt><trkpt lat="45.6634086" lon="13.8032583"><ele>142.0</ele><time>2026-04-25T14:45:31.003Z</time></trkpt><trkpt lat="45.6634488" lon="13.8031456"><ele>142.0</ele><time>2026-04-25T14:45:32.01Z</time></trkpt><trkpt lat="45.6634853" lon="13.8030299"><ele>142.0</ele><time>2026-04-25T14:45:32.996Z</time></trkpt><trkpt lat="45.663494" lon="13.8029104"><ele>142.0</ele><time>2026-04-25T14:45:34.004Z</time></trkpt><trkpt lat="45.6634706" lon="13.8027861"><ele>142.0</ele><time>2026-04-25T14:45:34.997Z</time></trkpt><trkpt lat="45.6634098" lon="13.8026801"><ele>142.0</ele><time>2026-04-25T14:45:35.995Z</time></trkpt><trkpt lat="45.663335" lon="13.8025987"><ele>141.33333333333334</ele><time>2026-04-25T14:45:37.003Z</time></trkpt><trkpt lat="45.6632621" lon="13.8025337"><ele>140.66666666666669</ele><time>2026-04-25T14:45:37.997Z</time></trkpt><trkpt lat="45.6631913" lon="13.8024642"><ele>140.0</ele><time>2026-04-25T14:45:38.993Z</time></trkpt><trkpt lat="45.6631354" lon="13.8023772"><ele>139.33333333333334</ele><time>2026-04-25T14:45:40Z</time></trkpt><trkpt lat="45.6630909" lon="13.8022717"><ele>138.66666666666666</ele><time>2026-04-25T14:45:40.997Z</time></trkpt><trkpt lat="45.6630546" lon="13.8021521"><ele>138.0</ele><time>2026-04-25T14:45:41.996Z</time></trkpt><trkpt lat="45.6630394" lon="13.8020246"><ele>138.0</ele><time>2026-04-25T14:45:43.001Z</time></trkpt><trkpt lat="45.6630328" lon="13.8018834"><ele>138.0</ele><time>2026-04-25T14:45:43.991Z</time></trkpt><trkpt lat="45.6630274" lon="13.8017515"><ele>138.0</ele><time>2026-04-25T14:45:44.999Z</time></trkpt><trkpt lat="45.6630227" lon="13.8016192"><ele>138.0</ele><time>2026-04-25T14:45:46.003Z</time></trkpt><trkpt lat="45.6630195" lon="13.8014902"><ele>138.0</ele><time>2026-04-25T14:45:47.009Z</time></trkpt><trkpt lat="45.6630124" lon="13.8013657"><ele>137.83333333333334</ele><time>2026-04-25T14:45:48Z</time></trkpt><trkpt lat="45.6630075" lon="13.8012432"><ele>137.66666666666666</ele><time>2026-04-25T14:45:49.006Z</time></trkpt><trkpt lat="45.6629948" lon="13.8011249"><ele>137.5</ele><time>2026-04-25T14:45:50.003Z</time></trkpt><trkpt lat="45.6629766" lon="13.8010128"><ele>137.33333333333331</ele><time>2026-04-25T14:45:50.995Z</time></trkpt><trkpt lat="45.6629488" lon="13.8009054"><ele>137.16666666666666</ele><time>2026-04-25T14:45:52.009Z</time></trkpt><trkpt lat="45.6629096" lon="13.8007951"><ele>137.0</ele><time>2026-04-25T14:45:52.996Z</time></trkpt><trkpt lat="45.6628595" lon="13.800694"><ele>137.0</ele><time>2026-04-25T14:45:53.998Z</time></trkpt><trkpt lat="45.6627928" lon="13.8006103"><ele>137.0</ele><time>2026-04-25T14:45:54.998Z</time></trkpt><trkpt lat="45.6627075" lon="13.8005501"><ele>137.0</ele><time>2026-04-25T14:45:55.994Z</time></trkpt><trkpt lat="45.6626037" lon="13.8005281"><ele>137.0</ele><time>2026-04-25T14:45:56.991Z</time></trkpt><trkpt lat="45.662492" lon="13.8005466"><ele>137.0</ele><time>2026-04-25T14:45:57.995Z</time></trkpt><trkpt lat="45.6623779" lon="13.8005775"><ele>135.0</ele><time>2026-04-25T14:45:59.007Z</time></trkpt><trkpt lat="45.6622576" lon="13.8006031"><ele>133.0</ele><time>2026-04-25T14:45:59.996Z</time></trkpt><trkpt lat="45.6621278" lon="13.8006288"><ele>131.0</ele><time>2026-04-25T14:46:00.994Z</time></trkpt><trkpt lat="45.6619893" lon="13.8006386"><ele>129.0</ele><time>2026-04-25T14:46:01.989Z</time></trkpt><trkpt lat="45.6618487" lon="13.8006154"><ele>126.25</ele><time>2026-04-25T14:46:02.99Z</time></trkpt><trkpt lat="45.66172" lon="13.8005458"><ele>123.5</ele><time>2026-04-25T14:46:03.994Z</time></trkpt><trkpt lat="45.6615935" lon="13.8004622"><ele>120.75</ele><time>2026-04-25T14:46:04.995Z</time></trkpt><trkpt lat="45.6614829" lon="13.800364"><ele>118.0</ele><time>2026-04-25T14:46:06.002Z</time></trkpt><trkpt lat="45.6613843" lon="13.80025"><ele>120.2</ele><time>2026-04-25T14:46:06.993Z</time></trkpt><trkpt lat="45.661297" lon="13.8001326"><ele>122.4</ele><time>2026-04-25T14:46:07.997Z</time></trkpt><trkpt lat="45.6612181" lon="13.8000199"><ele>124.60000000000001</ele><time>2026-04-25T14:46:09Z</time></trkpt><trkpt lat="45.661143" lon="13.7999023"><ele>126.80000000000001</ele><time>2026-04-25T14:46:10.001Z</time></trkpt><trkpt lat="45.6610686" lon="13.7997933"><ele>129.0</ele><time>2026-04-25T14:46:10.995Z</time></trkpt><trkpt lat="45.660996" lon="13.7996919"><ele>127.4</ele><time>2026-04-25T14:46:11.999Z</time></trkpt><trkpt lat="45.660927" lon="13.7995913"><ele>125.80000000000001</ele><time>2026-04-25T14:46:13.003Z</time></trkpt><trkpt lat="45.6608566" lon="13.7994903"><ele>124.19999999999999</ele><time>2026-04-25T14:46:14.003Z</time></trkpt><trkpt lat="45.6607885" lon="13.7993918"><ele>122.6</ele><time>2026-04-25T14:46:14.998Z</time></trkpt><trkpt lat="45.6607241" lon="13.7992982"><ele>121.0</ele><time>2026-04-25T14:46:16.001Z</time></trkpt><trkpt lat="45.6606644" lon="13.7992059"><ele>121.0</ele><time>2026-04-25T14:46:17.004Z</time></trkpt><trkpt lat="45.6605958" lon="13.7991057"><ele>121.0</ele><time>2026-04-25T14:46:18.006Z</time></trkpt><trkpt lat="45.6605259" lon="13.7989987"><ele>121.0</ele><time>2026-04-25T14:46:19.002Z</time></trkpt><trkpt lat="45.6604584" lon="13.7988859"><ele>121.0</ele><time>2026-04-25T14:46:19.994Z</time></trkpt><trkpt lat="45.6603894" lon="13.7987687"><ele>121.0</ele><time>2026-04-25T14:46:21.003Z</time></trkpt><trkpt lat="45.660322" lon="13.7986447"><ele>117.5</ele><time>2026-04-25T14:46:22.012Z</time></trkpt><trkpt lat="45.6602566" lon="13.7985123"><ele>114.0</ele><time>2026-04-25T14:46:23.009Z</time></trkpt><trkpt lat="45.6601869" lon="13.7983658"><ele>110.5</ele><time>2026-04-25T14:46:24.009Z</time></trkpt><trkpt lat="45.6601093" lon="13.7982103"><ele>107.0</ele><time>2026-04-25T14:46:25.001Z</time></trkpt><trkpt lat="45.6600246" lon="13.7980601"><ele>107.0</ele><time>2026-04-25T14:46:26.005Z</time></trkpt><trkpt lat="45.6599382" lon="13.7979041"><ele>107.0</ele><time>2026-04-25T14:46:27.023Z</time></trkpt><trkpt lat="45.6598471" lon="13.7977463"><ele>107.0</ele><time>2026-04-25T14:46:28.009Z</time></trkpt><trkpt lat="45.6597528" lon="13.7975891"><ele>107.0</ele><time>2026-04-25T14:46:28.998Z</time></trkpt><trkpt lat="45.659658" lon="13.7974437"><ele>109.0</ele><time>2026-04-25T14:46:30.001Z</time></trkpt><trkpt lat="45.6595629" lon="13.7973073"><ele>111.0</ele><time>2026-04-25T14:46:31.011Z</time></trkpt><trkpt lat="45.6594716" lon="13.7971704"><ele>113.0</ele><time>2026-04-25T14:46:32.002Z</time></trkpt><trkpt lat="45.6593851" lon="13.797041"><ele>115.0</ele><time>2026-04-25T14:46:33.006Z</time></trkpt><trkpt lat="45.6593014" lon="13.7969128"><ele>112.75</ele><time>2026-04-25T14:46:34.008Z</time></trkpt><trkpt lat="45.6592169" lon="13.796785"><ele>110.5</ele><time>2026-04-25T14:46:35.017Z</time></trkpt><trkpt lat="45.6591312" lon="13.7966568"><ele>108.25</ele><time>2026-04-25T14:46:36.024Z</time></trkpt><trkpt lat="45.6590445" lon="13.7965294"><ele>106.0</ele><time>2026-04-25T14:46:37.016Z</time></trkpt><trkpt lat="45.6589531" lon="13.7964036"><ele>106.0</ele><time>2026-04-25T14:46:38.006Z</time></trkpt><trkpt lat="45.6588632" lon="13.7962789"><ele>106.0</ele><time>2026-04-25T14:46:39.012Z</time></trkpt><trkpt lat="45.6587734" lon="13.7961432"><ele>106.0</ele><time>2026-04-25T14:46:40.008Z</time></trkpt><trkpt lat="45.6586841" lon="13.7960097"><ele>106.0</ele><time>2026-04-25T14:46:41.016Z</time></trkpt><trkpt lat="45.6586058" lon="13.7958743"><ele>103.5</ele><time>2026-04-25T14:46:42.029Z</time></trkpt><trkpt lat="45.6585353" lon="13.7957303"><ele>101.0</ele><time>2026-04-25T14:46:43.012Z</time></trkpt><trkpt lat="45.6584751" lon="13.7955783"><ele>98.5</ele><time>2026-04-25T14:46:44.024Z</time></trkpt><trkpt lat="45.6584288" lon="13.7954169"><ele>96.0</ele><time>2026-04-25T14:46:45.034Z</time></trkpt><trkpt lat="45.6583923" lon="13.7952558"><ele>96.25</ele><time>2026-04-25T14:46:46.019Z</time></trkpt><trkpt lat="45.6583509" lon="13.7950909"><ele>96.5</ele><time>2026-04-25T14:46:47.03Z</time></trkpt><trkpt lat="45.6583002" lon="13.794916"><ele>96.75</ele><time>2026-04-25T14:46:48.025Z</time></trkpt><trkpt lat="45.6582494" lon="13.7947244"><ele>97.0</ele><time>2026-04-25T14:46:49.042Z</time></trkpt><trkpt lat="45.6582081" lon="13.7945338"><ele>97.0</ele><time>2026-04-25T14:46:50.029Z</time></trkpt><trkpt lat="45.6581716" lon="13.7943493"><ele>97.0</ele><time>2026-04-25T14:46:51.023Z</time></trkpt><trkpt lat="45.6581445" lon="13.7941783"><ele>97.0</ele><time>2026-04-25T14:46:52.022Z</time></trkpt><trkpt lat="45.6581192" lon="13.7940184"><ele>97.0</ele><time>2026-04-25T14:46:53.033Z</time></trkpt><trkpt lat="45.6580882" lon="13.793866"><ele>97.5</ele><time>2026-04-25T14:46:54.037Z</time></trkpt><trkpt lat="45.6580401" lon="13.7937123"><ele>98.0</ele><time>2026-04-25T14:46:55.041Z</time></trkpt><trkpt lat="45.6579764" lon="13.7935433"><ele>98.5</ele><time>2026-04-25T14:46:56.032Z</time></trkpt><trkpt lat="45.657914" lon="13.7933526"><ele>99.0</ele><time>2026-04-25T14:46:57.035Z</time></trkpt><trkpt lat="45.657856" lon="13.7931572"><ele>99.0</ele><time>2026-04-25T14:46:58.011Z</time></trkpt><trkpt lat="45.6577967" lon="13.7929507"><ele>99.0</ele><time>2026-04-25T14:46:59.01Z</time></trkpt><trkpt lat="45.6577461" lon="13.7927535"><ele>99.0</ele><time>2026-04-25T14:47:00.014Z</time></trkpt><trkpt lat="45.6577116" lon="13.7925559"><ele>99.0</ele><time>2026-04-25T14:47:01.017Z</time></trkpt><trkpt lat="45.6576993" lon="13.7923664"><ele>97.25</ele><time>2026-04-25T14:47:02.036Z</time></trkpt><trkpt lat="45.6577302" lon="13.7921864"><ele>95.5</ele><time>2026-04-25T14:47:03.017Z</time></trkpt><trkpt lat="45.6577948" lon="13.7920379"><ele>93.75</ele><time>2026-04-25T14:47:04.016Z</time></trkpt><trkpt lat="45.657885" lon="13.7919442"><ele>92.0</ele><time>2026-04-25T14:47:05.021Z</time></trkpt><trkpt lat="45.6579982" lon="13.7919104"><ele>92.0</ele><time>2026-04-25T14:47:06.02Z</time></trkpt><trkpt lat="45.6581356" lon="13.7919417"><ele>92.0</ele><time>2026-04-25T14:47:07.028Z</time></trkpt><trkpt lat="45.6582715" lon="13.7920076"><ele>92.0</ele><time>2026-04-25T14:47:08.03Z</time></trkpt><trkpt lat="45.6584101" lon="13.7921058"><ele>92.0</ele><time>2026-04-25T14:47:09.01Z</time></trkpt><trkpt lat="45.6585652" lon="13.7922187"><ele>89.66666666666667</ele><time>2026-04-25T14:47:10.039Z</time></trkpt><trkpt lat="45.6587323" lon="13.792339"><ele>87.33333333333333</ele><time>2026-04-25T14:47:11.024Z</time></trkpt><trkpt lat="45.6589039" lon="13.7924757"><ele>85.0</ele><time>2026-04-25T14:47:12.025Z</time></trkpt><trkpt lat="45.6590708" lon="13.7926103"><ele>85.66666666666666</ele><time>2026-04-25T14:47:13.03Z</time></trkpt><trkpt lat="45.6592268" lon="13.7927433"><ele>86.33333333333333</ele><time>2026-04-25T14:47:14.029Z</time></trkpt><trkpt lat="45.6593736" lon="13.7928708"><ele>87.0</ele><time>2026-04-25T14:47:15.022Z</time></trkpt><trkpt lat="45.6595113" lon="13.7929921"><ele>87.0</ele><time>2026-04-25T14:47:16.018Z</time></trkpt><trkpt lat="45.6596476" lon="13.7931053"><ele>87.0</ele><time>2026-04-25T14:47:17.016Z</time></trkpt><trkpt lat="45.6597914" lon="13.7931768"><ele>87.0</ele><time>2026-04-25T14:47:18.011Z</time></trkpt><trkpt lat="45.6599367" lon="13.7931623"><ele>87.0</ele><time>2026-04-25T14:47:19.009Z</time></trkpt><trkpt lat="45.6600757" lon="13.7930846"><ele>87.0</ele><time>2026-04-25T14:47:20.001Z</time></trkpt><trkpt lat="45.6601975" lon="13.7929851"><ele>87.0</ele><time>2026-04-25T14:47:21.006Z</time></trkpt><trkpt lat="45.6603229" lon="13.7928712"><ele>87.0</ele><time>2026-04-25T14:47:22.01Z</time></trkpt><trkpt lat="45.6604546" lon="13.7927745"><ele>88.5</ele><time>2026-04-25T14:47:23.012Z</time></trkpt><trkpt lat="45.660581" lon="13.7927095"><ele>90.0</ele><time>2026-04-25T14:47:24.012Z</time></trkpt><trkpt lat="45.6607129" lon="13.7926841"><ele>91.5</ele><time>2026-04-25T14:47:25.008Z</time></trkpt><trkpt lat="45.6608477" lon="13.792676"><ele>93.0</ele><time>2026-04-25T14:47:25.999Z</time></trkpt><trkpt lat="45.6609791" lon="13.7926834"><ele>91.0</ele><time>2026-04-25T14:47:26.994Z</time></trkpt><trkpt lat="45.6610849" lon="13.7926445"><ele>89.0</ele><time>2026-04-25T14:47:28.005Z</time></trkpt><trkpt lat="45.6611584" lon="13.7925782"><ele>87.0</ele><time>2026-04-25T14:47:29.007Z</time></trkpt><trkpt lat="45.6612213" lon="13.7924873"><ele>85.0</ele><time>2026-04-25T14:47:30.008Z</time></trkpt><trkpt lat="45.6612656" lon="13.7923779"><ele>83.0</ele><time>2026-04-25T14:47:31Z</time></trkpt><trkpt lat="45.6612908" lon="13.7922619"><ele>83.0</ele><time>2026-04-25T14:47:32.01Z</time></trkpt><trkpt lat="45.6612897" lon="13.7921462"><ele>83.0</ele><time>2026-04-25T14:47:32.997Z</time></trkpt><trkpt lat="45.6612622" lon="13.7920379"><ele>83.0</ele><time>2026-04-25T14:47:33.997Z</time></trkpt><trkpt lat="45.661203" lon="13.7919309"><ele>83.0</ele><time>2026-04-25T14:47:35.002Z</time></trkpt><trkpt lat="45.6611282" lon="13.7918271"><ele>83.0</ele><time>2026-04-25T14:47:36.006Z</time></trkpt><trkpt lat="45.6610437" lon="13.7917259"><ele>81.75</ele><time>2026-04-25T14:47:37.002Z</time></trkpt><trkpt lat="45.6609373" lon="13.7916378"><ele>80.5</ele><time>2026-04-25T14:47:38.005Z</time></trkpt><trkpt lat="45.6608019" lon="13.7915762"><ele>79.25</ele><time>2026-04-25T14:47:39Z</time></trkpt><trkpt lat="45.6606442" lon="13.7915492"><ele>78.0</ele><time>2026-04-25T14:47:39.994Z</time></trkpt><trkpt lat="45.6604759" lon="13.7915421"><ele>78.0</ele><time>2026-04-25T14:47:40.998Z</time></trkpt><trkpt lat="45.660308" lon="13.7915504"><ele>78.0</ele><time>2026-04-25T14:47:41.999Z</time></trkpt><trkpt lat="45.6601459" lon="13.7915433"><ele>78.0</ele><time>2026-04-25T14:47:42.992Z</time></trkpt><trkpt lat="45.6599892" lon="13.7915126"><ele>75.75</ele><time>2026-04-25T14:47:44.002Z</time></trkpt><trkpt lat="45.6598492" lon="13.7914543"><ele>73.5</ele><time>2026-04-25T14:47:44.995Z</time></trkpt><trkpt lat="45.659722" lon="13.7913775"><ele>71.25</ele><time>2026-04-25T14:47:46.007Z</time></trkpt><trkpt lat="45.6596035" lon="13.791279"><ele>69.0</ele><time>2026-04-25T14:47:47.006Z</time></trkpt><trkpt lat="45.6594833" lon="13.791156"><ele>69.33333333333333</ele><time>2026-04-25T14:47:47.999Z</time></trkpt><trkpt lat="45.6593666" lon="13.7910076"><ele>69.66666666666666</ele><time>2026-04-25T14:47:48.999Z</time></trkpt><trkpt lat="45.6592492" lon="13.7908537"><ele>70.0</ele><time>2026-04-25T14:47:50.006Z</time></trkpt><trkpt lat="45.6591338" lon="13.7906849"><ele>70.0</ele><time>2026-04-25T14:47:51.005Z</time></trkpt><trkpt lat="45.6590177" lon="13.7905126"><ele>70.0</ele><time>2026-04-25T14:47:52.03Z</time></trkpt><trkpt lat="45.6589067" lon="13.7903319"><ele>70.0</ele><time>2026-04-25T14:47:52.999Z</time></trkpt><trkpt lat="45.658794" lon="13.7901453"><ele>69.33333333333333</ele><time>2026-04-25T14:47:54.004Z</time></trkpt><trkpt lat="45.6586815" lon="13.789981"><ele>68.66666666666667</ele><time>2026-04-25T14:47:55.005Z</time></trkpt><trkpt lat="45.6585697" lon="13.7898266"><ele>68.0</ele><time>2026-04-25T14:47:56.002Z</time></trkpt><trkpt lat="45.6584599" lon="13.7896667"><ele>66.0</ele><time>2026-04-25T14:47:57.007Z</time></trkpt><trkpt lat="45.6583453" lon="13.7895184"><ele>64.0</ele><time>2026-04-25T14:47:58.015Z</time></trkpt><trkpt lat="45.6582281" lon="13.7893657"><ele>62.0</ele><time>2026-04-25T14:47:59.003Z</time></trkpt><trkpt lat="45.6581097" lon="13.7892243"><ele>62.0</ele><time>2026-04-25T14:48:00.003Z</time></trkpt><trkpt lat="45.6579899" lon="13.7890869"><ele>62.0</ele><time>2026-04-25T14:48:01.003Z</time></trkpt><trkpt lat="45.6578675" lon="13.7889525"><ele>62.0</ele><time>2026-04-25T14:48:02.005Z</time></trkpt><trkpt lat="45.6577417" lon="13.7888253"><ele>58.333333333333336</ele><time>2026-04-25T14:48:03.005Z</time></trkpt><trkpt lat="45.6576098" lon="13.7887133"><ele>54.66666666666667</ele><time>2026-04-25T14:48:04.006Z</time></trkpt><trkpt lat="45.6574575" lon="13.7886163"><ele>51.0</ele><time>2026-04-25T14:48:05.001Z</time></trkpt><trkpt lat="45.6573002" lon="13.7885294"><ele>52.33333333333333</ele><time>2026-04-25T14:48:06.006Z</time></trkpt><trkpt lat="45.6571308" lon="13.7884583"><ele>53.666666666666664</ele><time>2026-04-25T14:48:07.008Z</time></trkpt><trkpt lat="45.6569678" lon="13.7883979"><ele>55.0</ele><time>2026-04-25T14:48:07.99Z</time></trkpt><trkpt lat="45.6568144" lon="13.7883358"><ele>52.33333333333333</ele><time>2026-04-25T14:48:09.027Z</time></trkpt><trkpt lat="45.6566657" lon="13.788275"><ele>49.666666666666664</ele><time>2026-04-25T14:48:10Z</time></trkpt><trkpt lat="45.6565159" lon="13.7882135"><ele>47.0</ele><time>2026-04-25T14:48:11.014Z</time></trkpt><trkpt lat="45.6563889" lon="13.7881076"><ele>47.0</ele><time>2026-04-25T14:48:11.999Z</time></trkpt><trkpt lat="45.6563117" lon="13.7879083"><ele>47.0</ele><time>2026-04-25T14:48:13.001Z</time></trkpt><trkpt lat="45.6562824" lon="13.7876804"><ele>47.0</ele><time>2026-04-25T14:48:14.014Z</time></trkpt><trkpt lat="45.6562881" lon="13.7874796"><ele>49.0</ele><time>2026-04-25T14:48:14.993Z</time></trkpt><trkpt lat="45.6562952" lon="13.7872559"><ele>51.0</ele><time>2026-04-25T14:48:15.988Z</time></trkpt><trkpt lat="45.6563197" lon="13.7870377"><ele>53.0</ele><time>2026-04-25T14:48:17.001Z</time></trkpt><trkpt lat="45.6563504" lon="13.7868143"><ele>53.0</ele><time>2026-04-25T14:48:17.987Z</time></trkpt><trkpt lat="45.6563833" lon="13.7865815"><ele>53.0</ele><time>2026-04-25T14:48:18.989Z</time></trkpt><trkpt lat="45.6564052" lon="13.7863481"><ele>53.0</ele><time>2026-04-25T14:48:20.008Z</time></trkpt><trkpt lat="45.6564267" lon="13.786107"><ele>51.66666666666667</ele><time>2026-04-25T14:48:20.998Z</time></trkpt><trkpt lat="45.6564471" lon="13.7858571"><ele>50.33333333333333</ele><time>2026-04-25T14:48:21.998Z</time></trkpt><trkpt lat="45.6564691" lon="13.7856203"><ele>49.0</ele><time>2026-04-25T14:48:23Z</time></trkpt><trkpt lat="45.6564916" lon="13.7853925"><ele>47.33333333333333</ele><time>2026-04-25T14:48:24.016Z</time></trkpt><trkpt lat="45.6565143" lon="13.785155"><ele>45.666666666666664</ele><time>2026-04-25T14:48:25Z</time></trkpt><trkpt lat="45.6565253" lon="13.7849134"><ele>44.0</ele><time>2026-04-25T14:48:26.006Z</time></trkpt><trkpt lat="45.656549" lon="13.7846637"><ele>44.0</ele><time>2026-04-25T14:48:27.01Z</time></trkpt><trkpt lat="45.6565738" lon="13.7844178"><ele>44.0</ele><time>2026-04-25T14:48:28.006Z</time></trkpt><trkpt lat="45.6565899" lon="13.7841849"><ele>44.0</ele><time>2026-04-25T14:48:29.008Z</time></trkpt><trkpt lat="45.6566007" lon="13.7839646"><ele>42.0</ele><time>2026-04-25T14:48:30.003Z</time></trkpt><trkpt lat="45.6566151" lon="13.7837524"><ele>40.0</ele><time>2026-04-25T14:48:31.001Z</time></trkpt><trkpt lat="45.6566289" lon="13.7835334"><ele>38.0</ele><time>2026-04-25T14:48:31.996Z</time></trkpt><trkpt lat="45.6566449" lon="13.7833053"><ele>37.666666666666664</ele><time>2026-04-25T14:48:32.998Z</time></trkpt><trkpt lat="45.656658" lon="13.7830714"><ele>37.333333333333336</ele><time>2026-04-25T14:48:33.998Z</time></trkpt><trkpt lat="45.6566794" lon="13.7828453"><ele>37.0</ele><time>2026-04-25T14:48:34.997Z</time></trkpt><trkpt lat="45.6566953" lon="13.7826299"><ele>37.5</ele><time>2026-04-25T14:48:36.005Z</time></trkpt><trkpt lat="45.6567093" lon="13.7824102"><ele>38.0</ele><time>2026-04-25T14:48:36.997Z</time></trkpt><trkpt lat="45.6567154" lon="13.7822004"><ele>38.5</ele><time>2026-04-25T14:48:38.016Z</time></trkpt><trkpt lat="45.6566922" lon="13.7820082"><ele>39.0</ele><time>2026-04-25T14:48:38.998Z</time></trkpt><trkpt lat="45.656667" lon="13.7818248"><ele>39.0</ele><time>2026-04-25T14:48:39.994Z</time></trkpt><trkpt lat="45.6566329" lon="13.7816539"><ele>39.0</ele><time>2026-04-25T14:48:41Z</time></trkpt><trkpt lat="45.6565871" lon="13.7814835"><ele>39.0</ele><time>2026-04-25T14:48:42.004Z</time></trkpt><trkpt lat="45.656508" lon="13.7813161"><ele>39.0</ele><time>2026-04-25T14:48:43.001Z</time></trkpt><trkpt lat="45.6564318" lon="13.7811504"><ele>39.5</ele><time>2026-04-25T14:48:43.999Z</time></trkpt><trkpt lat="45.6563673" lon="13.7809749"><ele>40.0</ele><time>2026-04-25T14:48:45.003Z</time></trkpt><trkpt lat="45.656296" lon="13.7807888"><ele>40.5</ele><time>2026-04-25T14:48:46.004Z</time></trkpt><trkpt lat="45.6562256" lon="13.7805906"><ele>41.0</ele><time>2026-04-25T14:48:47.007Z</time></trkpt><trkpt lat="45.6561534" lon="13.7803813"><ele>36.0</ele><time>2026-04-25T14:48:48Z</time></trkpt><trkpt lat="45.656081" lon="13.7801636"><ele>31.0</ele><time>2026-04-25T14:48:49.007Z</time></trkpt><trkpt lat="45.6560091" lon="13.7799373"><ele>26.0</ele><time>2026-04-25T14:48:49.995Z</time></trkpt><trkpt lat="45.6559252" lon="13.7797103"><ele>26.0</ele><time>2026-04-25T14:48:50.996Z</time></trkpt><trkpt lat="45.6558411" lon="13.7794858"><ele>26.0</ele><time>2026-04-25T14:48:52.012Z</time></trkpt><trkpt lat="45.6557606" lon="13.7792676"><ele>26.0</ele><time>2026-04-25T14:48:53.002Z</time></trkpt><trkpt lat="45.6556826" lon="13.7790457"><ele>25.666666666666664</ele><time>2026-04-25T14:48:54.016Z</time></trkpt><trkpt lat="45.6556017" lon="13.7788334"><ele>25.333333333333336</ele><time>2026-04-25T14:48:55.007Z</time></trkpt><trkpt lat="45.6555247" lon="13.7786204"><ele>25.0</ele><time>2026-04-25T14:48:56.016Z</time></trkpt><trkpt lat="45.6554634" lon="13.7783934"><ele>25.0</ele><time>2026-04-25T14:48:57.014Z</time></trkpt><trkpt lat="45.6554177" lon="13.7781547"><ele>25.0</ele><time>2026-04-25T14:48:58.01Z</time></trkpt><trkpt lat="45.6553826" lon="13.7779064"><ele>25.0</ele><time>2026-04-25T14:48:59.005Z</time></trkpt><trkpt lat="45.6553609" lon="13.7776411"><ele>25.0</ele><time>2026-04-25T14:49:00.011Z</time></trkpt><trkpt lat="45.6553402" lon="13.777379"><ele>25.0</ele><time>2026-04-25T14:49:01.008Z</time></trkpt><trkpt lat="45.6553175" lon="13.777129"><ele>25.0</ele><time>2026-04-25T14:49:02.015Z</time></trkpt><trkpt lat="45.6552897" lon="13.7768836"><ele>22.333333333333336</ele><time>2026-04-25T14:49:03.008Z</time></trkpt><trkpt lat="45.6552651" lon="13.7766543"><ele>19.666666666666668</ele><time>2026-04-25T14:49:04.01Z</time></trkpt><trkpt lat="45.6552454" lon="13.7764345"><ele>17.0</ele><time>2026-04-25T14:49:05.009Z</time></trkpt><trkpt lat="45.655225" lon="13.7762283"><ele>17.0</ele><time>2026-04-25T14:49:06.005Z</time></trkpt><trkpt lat="45.6552065" lon="13.7760331"><ele>17.0</ele><time>2026-04-25T14:49:07.003Z</time></trkpt><trkpt lat="45.6551876" lon="13.7758484"><ele>17.0</ele><time>2026-04-25T14:49:07.994Z</time></trkpt><trkpt lat="45.6551793" lon="13.775705"><ele>17.0</ele><time>2026-04-25T14:49:09.005Z</time></trkpt><trkpt lat="45.6551705" lon="13.7756157"><ele>17.0</ele><time>2026-04-25T14:49:10.004Z</time></trkpt><trkpt lat="45.6551635" lon="13.7754726"><ele>16.8</ele><time>2026-04-25T14:49:49.018Z</time></trkpt><trkpt lat="45.6551977" lon="13.7753142"><ele>16.6</ele><time>2026-04-25T14:49:51.025Z</time></trkpt><trkpt lat="45.655242" lon="13.7752145"><ele>16.400000000000002</ele><time>2026-04-25T14:49:52.025Z</time></trkpt><trkpt lat="45.6553048" lon="13.7751015"><ele>16.2</ele><time>2026-04-25T14:49:53.017Z</time></trkpt><trkpt lat="45.6553742" lon="13.7749572"><ele>16.0</ele><time>2026-04-25T14:49:54.02Z</time></trkpt><trkpt lat="45.6554406" lon="13.7747897"><ele>16.0</ele><time>2026-04-25T14:49:55.017Z</time></trkpt><trkpt lat="45.6554867" lon="13.7746101"><ele>16.0</ele><time>2026-04-25T14:49:56.01Z</time></trkpt><trkpt lat="45.65553" lon="13.7744406"><ele>16.0</ele><time>2026-04-25T14:49:57.005Z</time></trkpt><trkpt lat="45.655574" lon="13.7742776"><ele>16.0</ele><time>2026-04-25T14:49:58.012Z</time></trkpt><trkpt lat="45.6556134" lon="13.7741047"><ele>16.25</ele><time>2026-04-25T14:49:59.011Z</time></trkpt><trkpt lat="45.6556618" lon="13.7739363"><ele>16.5</ele><time>2026-04-25T14:50:00.011Z</time></trkpt><trkpt lat="45.6557154" lon="13.7737725"><ele>16.75</ele><time>2026-04-25T14:50:01.009Z</time></trkpt><trkpt lat="45.6557636" lon="13.7736129"><ele>17.0</ele><time>2026-04-25T14:50:02.002Z</time></trkpt><trkpt lat="45.6558157" lon="13.7734631"><ele>17.2</ele><time>2026-04-25T14:50:03.009Z</time></trkpt><trkpt lat="45.655854" lon="13.7733262"><ele>17.4</ele><time>2026-04-25T14:50:04.016Z</time></trkpt><trkpt lat="45.6558976" lon="13.7732019"><ele>17.6</ele><time>2026-04-25T14:50:05.012Z</time></trkpt><trkpt lat="45.6559652" lon="13.7731119"><ele>17.8</ele><time>2026-04-25T14:50:06.008Z</time></trkpt><trkpt lat="45.6560693" lon="13.7730887"><ele>18.0</ele><time>2026-04-25T14:50:07Z</time></trkpt><trkpt lat="45.6561935" lon="13.7730834"><ele>17.5</ele><time>2026-04-25T14:50:08.008Z</time></trkpt><trkpt lat="45.6563212" lon="13.773066"><ele>17.0</ele><time>2026-04-25T14:50:08.994Z</time></trkpt><trkpt lat="45.6564577" lon="13.7730532"><ele>16.5</ele><time>2026-04-25T14:50:10.015Z</time></trkpt><trkpt lat="45.6565814" lon="13.7730791"><ele>16.0</ele><time>2026-04-25T14:50:11.004Z</time></trkpt><trkpt lat="45.6567021" lon="13.7730953"><ele>16.0</ele><time>2026-04-25T14:50:12.003Z</time></trkpt><trkpt lat="45.6568177" lon="13.7730897"><ele>16.0</ele><time>2026-04-25T14:50:12.996Z</time></trkpt><trkpt lat="45.6569206" lon="13.7730435"><ele>16.0</ele><time>2026-04-25T14:50:14.002Z</time></trkpt><trkpt lat="45.6570142" lon="13.7729868"><ele>16.0</ele><time>2026-04-25T14:50:14.994Z</time></trkpt><trkpt lat="45.6571044" lon="13.7729459"><ele>16.0</ele><time>2026-04-25T14:50:15.997Z</time></trkpt><trkpt lat="45.6571742" lon="13.7729152"><ele>15.8</ele><time>2026-04-25T14:50:17.002Z</time></trkpt><trkpt lat="45.6572706" lon="13.7728762"><ele>15.600000000000001</ele><time>2026-04-25T14:50:19.005Z</time></trkpt><trkpt lat="45.6573621" lon="13.772836"><ele>15.4</ele><time>2026-04-25T14:50:51.017Z</time></trkpt><trkpt lat="45.657443" lon="13.77279"><ele>15.2</ele><time>2026-04-25T14:50:52.017Z</time></trkpt><trkpt lat="45.6575575" lon="13.7727317"><ele>15.0</ele><time>2026-04-25T14:50:53.019Z</time></trkpt><trkpt lat="45.6577145" lon="13.7726452"><ele>13.666666666666666</ele><time>2026-04-25T14:50:54.016Z</time></trkpt><trkpt lat="45.6578953" lon="13.7725447"><ele>12.333333333333332</ele><time>2026-04-25T14:50:55.02Z</time></trkpt><trkpt lat="45.6581086" lon="13.7724271"><ele>11.0</ele><time>2026-04-25T14:50:56.011Z</time></trkpt><trkpt lat="45.6583245" lon="13.7723006"><ele>11.0</ele><time>2026-04-25T14:50:57.007Z</time></trkpt><trkpt lat="45.6585133" lon="13.7721666"><ele>11.0</ele><time>2026-04-25T14:50:58.016Z</time></trkpt><trkpt lat="45.6586813" lon="13.7720873"><ele>11.0</ele><time>2026-04-25T14:50:59.008Z</time></trkpt><trkpt lat="45.6588136" lon="13.772004"><ele>10.5</ele><time>2026-04-25T14:51:00.014Z</time></trkpt><trkpt lat="45.658942" lon="13.7719195"><ele>10.0</ele><time>2026-04-25T14:51:01.01Z</time></trkpt><trkpt lat="45.6590674" lon="13.7718597"><ele>9.5</ele><time>2026-04-25T14:51:02.013Z</time></trkpt><trkpt lat="45.6591919" lon="13.7717835"><ele>9.0</ele><time>2026-04-25T14:51:03.007Z</time></trkpt><trkpt lat="45.6593511" lon="13.7716716"><ele>12.0</ele><time>2026-04-25T14:51:04.007Z</time></trkpt><trkpt lat="45.659546" lon="13.7715681"><ele>15.0</ele><time>2026-04-25T14:51:05.017Z</time></trkpt><trkpt lat="45.6597562" lon="13.77146"><ele>18.0</ele><time>2026-04-25T14:51:06.015Z</time></trkpt><trkpt lat="45.6599455" lon="13.7713314"><ele>18.0</ele><time>2026-04-25T14:51:07.014Z</time></trkpt><trkpt lat="45.6601315" lon="13.7712233"><ele>18.0</ele><time>2026-04-25T14:51:08.053Z</time></trkpt><trkpt lat="45.6603303" lon="13.7711248"><ele>18.0</ele><time>2026-04-25T14:51:09.003Z</time></trkpt><trkpt lat="45.6605226" lon="13.7710164"><ele>15.0</ele><time>2026-04-25T14:51:10.003Z</time></trkpt><trkpt lat="45.6607164" lon="13.7709089"><ele>12.0</ele><time>2026-04-25T14:51:11.016Z</time></trkpt><trkpt lat="45.6609077" lon="13.7707932"><ele>9.0</ele><time>2026-04-25T14:51:12.002Z</time></trkpt><trkpt lat="45.6611017" lon="13.7706724"><ele>11.0</ele><time>2026-04-25T14:51:13.012Z</time></trkpt><trkpt lat="45.661298" lon="13.7705551"><ele>13.0</ele><time>2026-04-25T14:51:14.005Z</time></trkpt><trkpt lat="45.661494" lon="13.7704381"><ele>15.0</ele><time>2026-04-25T14:51:15.005Z</time></trkpt><trkpt lat="45.6616889" lon="13.7703333"><ele>15.0</ele><time>2026-04-25T14:51:16.01Z</time></trkpt><trkpt lat="45.6618678" lon="13.770231"><ele>15.0</ele><time>2026-04-25T14:51:17.006Z</time></trkpt><trkpt lat="45.66203" lon="13.7701451"><ele>15.0</ele><time>2026-04-25T14:51:18.004Z</time></trkpt><trkpt lat="45.6621851" lon="13.7700761"><ele>14.25</ele><time>2026-04-25T14:51:19.005Z</time></trkpt><trkpt lat="45.6623245" lon="13.7699877"><ele>13.5</ele><time>2026-04-25T14:51:19.999Z</time></trkpt><trkpt lat="45.6624468" lon="13.7699191"><ele>12.75</ele><time>2026-04-25T14:51:20.996Z</time></trkpt><trkpt lat="45.6625527" lon="13.7698556"><ele>12.0</ele><time>2026-04-25T14:51:22.009Z</time></trkpt><trkpt lat="45.662646" lon="13.7697999"><ele>12.0</ele><time>2026-04-25T14:51:23.002Z</time></trkpt><trkpt lat="45.6627256" lon="13.76975"><ele>12.0</ele><time>2026-04-25T14:51:24.006Z</time></trkpt><trkpt lat="45.6627929" lon="13.7697014"><ele>12.0</ele><time>2026-04-25T14:51:25.007Z</time></trkpt><trkpt lat="45.6628585" lon="13.7696654"><ele>12.0</ele><time>2026-04-25T14:51:26.008Z</time></trkpt><trkpt lat="45.6629504" lon="13.7696254"><ele>12.0</ele><time>2026-04-25T14:51:27.011Z</time></trkpt><trkpt lat="45.6630624" lon="13.7695781"><ele>12.0</ele><time>2026-04-25T14:51:28.007Z</time></trkpt><trkpt lat="45.6631814" lon="13.7695271"><ele>13.25</ele><time>2026-04-25T14:51:29.014Z</time></trkpt><trkpt lat="45.6632933" lon="13.7694588"><ele>14.5</ele><time>2026-04-25T14:51:30.018Z</time></trkpt><trkpt lat="45.6634032" lon="13.7693844"><ele>15.75</ele><time>2026-04-25T14:51:31.005Z</time></trkpt><trkpt lat="45.6635084" lon="13.7692928"><ele>17.0</ele><time>2026-04-25T14:51:32.017Z</time></trkpt><trkpt lat="45.6636119" lon="13.7691644"><ele>16.333333333333336</ele><time>2026-04-25T14:51:33.054Z</time></trkpt><trkpt lat="45.6637156" lon="13.7689946"><ele>15.666666666666668</ele><time>2026-04-25T14:51:34.008Z</time></trkpt><trkpt lat="45.6638333" lon="13.7687925"><ele>15.0</ele><time>2026-04-25T14:51:35.018Z</time></trkpt><trkpt lat="45.663942" lon="13.7685866"><ele>12.666666666666666</ele><time>2026-04-25T14:51:36.017Z</time></trkpt><trkpt lat="45.664048" lon="13.7683913"><ele>10.333333333333332</ele><time>2026-04-25T14:51:37.006Z</time></trkpt><trkpt lat="45.6641546" lon="13.7682138"><ele>8.0</ele><time>2026-04-25T14:51:38.012Z</time></trkpt><trkpt lat="45.6642596" lon="13.7680513"><ele>8.0</ele><time>2026-04-25T14:51:39.007Z</time></trkpt><trkpt lat="45.6643551" lon="13.767907"><ele>8.0</ele><time>2026-04-25T14:51:40.014Z</time></trkpt><trkpt lat="45.6644297" lon="13.7677866"><ele>8.0</ele><time>2026-04-25T14:51:41.004Z</time></trkpt><trkpt lat="45.6644937" lon="13.7676792"><ele>8.0</ele><time>2026-04-25T14:51:42.001Z</time></trkpt><trkpt lat="45.664552" lon="13.767576"><ele>8.0</ele><time>2026-04-25T14:51:43.002Z</time></trkpt><trkpt lat="45.6646103" lon="13.7674774"><ele>8.600000000000001</ele><time>2026-04-25T14:51:44.007Z</time></trkpt><trkpt lat="45.6646742" lon="13.7673654"><ele>9.200000000000001</ele><time>2026-04-25T14:51:45.003Z</time></trkpt><trkpt lat="45.6647398" lon="13.7672477"><ele>9.8</ele><time>2026-04-25T14:51:46.006Z</time></trkpt><trkpt lat="45.6648097" lon="13.7671195"><ele>10.4</ele><time>2026-04-25T14:51:47.007Z</time></trkpt><trkpt lat="45.6648755" lon="13.7669856"><ele>11.0</ele><time>2026-04-25T14:51:48.002Z</time></trkpt><trkpt lat="45.6649471" lon="13.7668336"><ele>11.0</ele><time>2026-04-25T14:51:49.004Z</time></trkpt><trkpt lat="45.6650202" lon="13.7666741"><ele>11.0</ele><time>2026-04-25T14:51:50.002Z</time></trkpt><trkpt lat="45.6650834" lon="13.7665192"><ele>11.0</ele><time>2026-04-25T14:51:51.003Z</time></trkpt><trkpt lat="45.6651414" lon="13.7663698"><ele>11.0</ele><time>2026-04-25T14:51:52.007Z</time></trkpt><trkpt lat="45.6652014" lon="13.7662215"><ele>11.0</ele><time>2026-04-25T14:51:53.002Z</time></trkpt><trkpt lat="45.6652587" lon="13.7660782"><ele>11.0</ele><time>2026-04-25T14:51:54.002Z</time></trkpt><trkpt lat="45.6653094" lon="13.7659351"><ele>11.0</ele><time>2026-04-25T14:51:55.003Z</time></trkpt><trkpt lat="45.6653602" lon="13.7657854"><ele>11.0</ele><time>2026-04-25T14:51:56.007Z</time></trkpt><trkpt lat="45.6654069" lon="13.7656358"><ele>10.75</ele><time>2026-04-25T14:51:57Z</time></trkpt><trkpt lat="45.6654449" lon="13.7654765"><ele>10.5</ele><time>2026-04-25T14:51:58.019Z</time></trkpt><trkpt lat="45.6654789" lon="13.7653158"><ele>10.25</ele><time>2026-04-25T14:51:59.013Z</time></trkpt><trkpt lat="45.6655083" lon="13.765154"><ele>10.0</ele><time>2026-04-25T14:52:00.014Z</time></trkpt><trkpt lat="45.6655332" lon="13.7649911"><ele>10.0</ele><time>2026-04-25T14:52:01.001Z</time></trkpt><trkpt lat="45.6655587" lon="13.7648299"><ele>10.0</ele><time>2026-04-25T14:52:02.004Z</time></trkpt><trkpt lat="45.6655839" lon="13.764676"><ele>10.0</ele><time>2026-04-25T14:52:03.004Z</time></trkpt><trkpt lat="45.665604" lon="13.764525"><ele>10.0</ele><time>2026-04-25T14:52:04.001Z</time></trkpt><trkpt lat="45.6656226" lon="13.7643837"><ele>10.0</ele><time>2026-04-25T14:52:05.06Z</time></trkpt><trkpt lat="45.6656395" lon="13.7642437"><ele>9.8</ele><time>2026-04-25T14:52:06.008Z</time></trkpt><trkpt lat="45.6656557" lon="13.7641075"><ele>9.6</ele><time>2026-04-25T14:52:07.008Z</time></trkpt><trkpt lat="45.6656749" lon="13.7639701"><ele>9.4</ele><time>2026-04-25T14:52:08.014Z</time></trkpt><trkpt lat="45.6656939" lon="13.7638377"><ele>9.2</ele><time>2026-04-25T14:52:09.011Z</time></trkpt><trkpt lat="45.6657234" lon="13.7637033"><ele>9.0</ele><time>2026-04-25T14:52:10.013Z</time></trkpt><trkpt lat="45.6657616" lon="13.7635694"><ele>9.2</ele><time>2026-04-25T14:52:11.005Z</time></trkpt><trkpt lat="45.6658197" lon="13.7634477"><ele>9.4</ele><time>2026-04-25T14:52:12.007Z</time></trkpt><trkpt lat="45.665884" lon="13.7633502"><ele>9.6</ele><time>2026-04-25T14:52:13.015Z</time></trkpt><trkpt lat="45.6659647" lon="13.7632713"><ele>9.8</ele><time>2026-04-25T14:52:14.006Z</time></trkpt><trkpt lat="45.6660483" lon="13.7632016"><ele>10.0</ele><time>2026-04-25T14:52:15.009Z</time></trkpt><trkpt lat="45.6661322" lon="13.7631296"><ele>10.0</ele><time>2026-04-25T14:52:16.003Z</time></trkpt><trkpt lat="45.6662215" lon="13.7630488"><ele>10.0</ele><time>2026-04-25T14:52:17.01Z</time></trkpt><trkpt lat="45.6663122" lon="13.7629705"><ele>10.0</ele><time>2026-04-25T14:52:18.005Z</time></trkpt><trkpt lat="45.6664022" lon="13.7628936"><ele>10.0</ele><time>2026-04-25T14:52:19.006Z</time></trkpt><trkpt lat="45.6664958" lon="13.762818"><ele>10.0</ele><time>2026-04-25T14:52:20.017Z</time></trkpt><trkpt lat="45.6665862" lon="13.7627388"><ele>10.4</ele><time>2026-04-25T14:52:21.005Z</time></trkpt><trkpt lat="45.6666773" lon="13.7626652"><ele>10.8</ele><time>2026-04-25T14:52:22.007Z</time></trkpt><trkpt lat="45.6667691" lon="13.7625993"><ele>11.2</ele><time>2026-04-25T14:52:23Z</time></trkpt><trkpt lat="45.6668537" lon="13.7625302"><ele>11.6</ele><time>2026-04-25T14:52:24Z</time></trkpt><trkpt lat="45.6669408" lon="13.7624604"><ele>12.0</ele><time>2026-04-25T14:52:25.018Z</time></trkpt><trkpt lat="45.6670284" lon="13.7623917"><ele>12.0</ele><time>2026-04-25T14:52:25.999Z</time></trkpt><trkpt lat="45.6671177" lon="13.7623258"><ele>12.0</ele><time>2026-04-25T14:52:26.996Z</time></trkpt><trkpt lat="45.6672041" lon="13.7622577"><ele>12.0</ele><time>2026-04-25T14:52:27.993Z</time></trkpt><trkpt lat="45.6672846" lon="13.7621834"><ele>12.0</ele><time>2026-04-25T14:52:28.993Z</time></trkpt><trkpt lat="45.6673572" lon="13.7620855"><ele>12.0</ele><time>2026-04-25T14:52:30Z</time></trkpt><trkpt lat="45.6674115" lon="13.7619772"><ele>11.0</ele><time>2026-04-25T14:52:30.994Z</time></trkpt><trkpt lat="45.6674549" lon="13.7618637"><ele>10.0</ele><time>2026-04-25T14:52:31.997Z</time></trkpt><trkpt lat="45.6674959" lon="13.7617378"><ele>9.0</ele><time>2026-04-25T14:52:33.002Z</time></trkpt><trkpt lat="45.6675345" lon="13.7616069"><ele>8.0</ele><time>2026-04-25T14:52:33.995Z</time></trkpt><trkpt lat="45.6675851" lon="13.7614871"><ele>7.0</ele><time>2026-04-25T14:52:35.002Z</time></trkpt><trkpt lat="45.6676486" lon="13.7613776"><ele>7.0</ele><time>2026-04-25T14:52:36.01Z</time></trkpt><trkpt lat="45.6677304" lon="13.7612739"><ele>7.0</ele><time>2026-04-25T14:52:37.006Z</time></trkpt><trkpt lat="45.6678424" lon="13.7611756"><ele>7.0</ele><time>2026-04-25T14:52:38.04Z</time></trkpt><trkpt lat="45.6679677" lon="13.7610729"><ele>7.0</ele><time>2026-04-25T14:52:39.01Z</time></trkpt><trkpt lat="45.6681034" lon="13.7609586"><ele>6.666666666666667</ele><time>2026-04-25T14:52:40.008Z</time></trkpt><trkpt lat="45.6682394" lon="13.7608432"><ele>6.333333333333334</ele><time>2026-04-25T14:52:41.002Z</time></trkpt><trkpt lat="45.6683793" lon="13.7607127"><ele>6.0</ele><time>2026-04-25T14:52:42Z</time></trkpt><trkpt lat="45.6685182" lon="13.7605719"><ele>6.666666666666666</ele><time>2026-04-25T14:52:43.013Z</time></trkpt><trkpt lat="45.6686551" lon="13.760422"><ele>7.333333333333333</ele><time>2026-04-25T14:52:43.999Z</time></trkpt><trkpt lat="45.6687882" lon="13.7602702"><ele>8.0</ele><time>2026-04-25T14:52:45.012Z</time></trkpt><trkpt lat="45.6689233" lon="13.7601173"><ele>8.0</ele><time>2026-04-25T14:52:46.001Z</time></trkpt><trkpt lat="45.6690677" lon="13.7599725"><ele>8.0</ele><time>2026-04-25T14:52:46.997Z</time></trkpt><trkpt lat="45.6692182" lon="13.7598361"><ele>8.0</ele><time>2026-04-25T14:52:48.02Z</time></trkpt><trkpt lat="45.6693664" lon="13.759685"><ele>8.333333333333332</ele><time>2026-04-25T14:52:49.002Z</time></trkpt><trkpt lat="45.6695135" lon="13.7595238"><ele>8.666666666666666</ele><time>2026-04-25T14:52:50.01Z</time></trkpt><trkpt lat="45.6696639" lon="13.7593668"><ele>9.0</ele><time>2026-04-25T14:52:51.002Z</time></trkpt><trkpt lat="45.6698183" lon="13.7592266"><ele>9.0</ele><time>2026-04-25T14:52:52.007Z</time></trkpt><trkpt lat="45.6699741" lon="13.7591136"><ele>9.0</ele><time>2026-04-25T14:52:52.998Z</time></trkpt><trkpt lat="45.6701341" lon="13.7590097"><ele>9.0</ele><time>2026-04-25T14:52:54.006Z</time></trkpt><trkpt lat="45.6702995" lon="13.7589107"><ele>15.333333333333334</ele><time>2026-04-25T14:52:55.003Z</time></trkpt><trkpt lat="45.6704715" lon="13.7588043"><ele>21.666666666666668</ele><time>2026-04-25T14:52:56.002Z</time></trkpt><trkpt lat="45.6706463" lon="13.7586957"><ele>28.0</ele><time>2026-04-25T14:52:57.004Z</time></trkpt><trkpt lat="45.670822" lon="13.7585877"><ele>22.333333333333336</ele><time>2026-04-25T14:52:58.009Z</time></trkpt><trkpt lat="45.6709982" lon="13.758479"><ele>16.666666666666668</ele><time>2026-04-25T14:52:59.007Z</time></trkpt><trkpt lat="45.6711747" lon="13.7583715"><ele>11.0</ele><time>2026-04-25T14:53:00.027Z</time></trkpt><trkpt lat="45.6713542" lon="13.7582661"><ele>11.0</ele><time>2026-04-25T14:53:01.005Z</time></trkpt><trkpt lat="45.6715339" lon="13.7581715"><ele>11.0</ele><time>2026-04-25T14:53:02.007Z</time></trkpt><trkpt lat="45.6717175" lon="13.7580851"><ele>11.0</ele><time>2026-04-25T14:53:03.011Z</time></trkpt><trkpt lat="45.6719047" lon="13.7580125"><ele>13.666666666666666</ele><time>2026-04-25T14:53:04.009Z</time></trkpt><trkpt lat="45.6720927" lon="13.7579508"><ele>16.333333333333332</ele><time>2026-04-25T14:53:05.042Z</time></trkpt><trkpt lat="45.6722827" lon="13.7578871"><ele>19.0</ele><time>2026-04-25T14:53:06.013Z</time></trkpt><trkpt lat="45.6724705" lon="13.7578151"><ele>19.0</ele><time>2026-04-25T14:53:07.007Z</time></trkpt><trkpt lat="45.6726471" lon="13.7577265"><ele>19.0</ele><time>2026-04-25T14:53:08.007Z</time></trkpt><trkpt lat="45.6728179" lon="13.7576167"><ele>19.0</ele><time>2026-04-25T14:53:09.008Z</time></trkpt><trkpt lat="45.6729845" lon="13.7574882"><ele>16.0</ele><time>2026-04-25T14:53:10.002Z</time></trkpt><trkpt lat="45.6731493" lon="13.7573498"><ele>13.0</ele><time>2026-04-25T14:53:11.004Z</time></trkpt><trkpt lat="45.6733206" lon="13.757212"><ele>10.0</ele><time>2026-04-25T14:53:12.008Z</time></trkpt><trkpt lat="45.6734938" lon="13.7570762"><ele>9.666666666666668</ele><time>2026-04-25T14:53:13.006Z</time></trkpt><trkpt lat="45.6736697" lon="13.7569437"><ele>9.333333333333334</ele><time>2026-04-25T14:53:14.006Z</time></trkpt><trkpt lat="45.673845" lon="13.756816"><ele>9.0</ele><time>2026-04-25T14:53:14.999Z</time></trkpt><trkpt lat="45.6740193" lon="13.7566888"><ele>9.0</ele><time>2026-04-25T14:53:16.005Z</time></trkpt><trkpt lat="45.6741928" lon="13.7565589"><ele>9.0</ele><time>2026-04-25T14:53:16.998Z</time></trkpt><trkpt lat="45.6743625" lon="13.7564312"><ele>9.0</ele><time>2026-04-25T14:53:18.006Z</time></trkpt><trkpt lat="45.6745191" lon="13.7563075"><ele>9.0</ele><time>2026-04-25T14:53:19.004Z</time></trkpt><trkpt lat="45.6746626" lon="13.7561897"><ele>9.0</ele><time>2026-04-25T14:53:20.008Z</time></trkpt><trkpt lat="45.6747981" lon="13.7560808"><ele>9.0</ele><time>2026-04-25T14:53:21.003Z</time></trkpt><trkpt lat="45.6749255" lon="13.7559747"><ele>9.0</ele><time>2026-04-25T14:53:22.007Z</time></trkpt><trkpt lat="45.675046" lon="13.7558732"><ele>9.0</ele><time>2026-04-25T14:53:22.998Z</time></trkpt><trkpt lat="45.6751625" lon="13.7557783"><ele>9.0</ele><time>2026-04-25T14:53:24.015Z</time></trkpt><trkpt lat="45.6752695" lon="13.7556918"><ele>9.0</ele><time>2026-04-25T14:53:25.009Z</time></trkpt><trkpt lat="45.6753647" lon="13.7556129"><ele>12.600000000000001</ele><time>2026-04-25T14:53:26.008Z</time></trkpt><trkpt lat="45.6754583" lon="13.7555424"><ele>16.200000000000003</ele><time>2026-04-25T14:53:27.013Z</time></trkpt><trkpt lat="45.6755435" lon="13.75547"><ele>19.800000000000004</ele><time>2026-04-25T14:53:28.006Z</time></trkpt><trkpt lat="45.675632" lon="13.7554009"><ele>23.400000000000002</ele><time>2026-04-25T14:53:29.011Z</time></trkpt><trkpt lat="45.6757202" lon="13.7553343"><ele>27.0</ele><time>2026-04-25T14:53:30.002Z</time></trkpt><trkpt lat="45.6758103" lon="13.7552636"><ele>23.6</ele><time>2026-04-25T14:53:31Z</time></trkpt><trkpt lat="45.6759024" lon="13.7551897"><ele>20.200000000000003</ele><time>2026-04-25T14:53:32.006Z</time></trkpt><trkpt lat="45.6759996" lon="13.7551211"><ele>16.8</ele><time>2026-04-25T14:53:33.002Z</time></trkpt><trkpt lat="45.6761035" lon="13.7550551"><ele>13.4</ele><time>2026-04-25T14:53:34.007Z</time></trkpt><trkpt lat="45.6762113" lon="13.7549987"><ele>10.0</ele><time>2026-04-25T14:53:35.047Z</time></trkpt><trkpt lat="45.6763216" lon="13.7549412"><ele>10.0</ele><time>2026-04-25T14:53:36.017Z</time></trkpt><trkpt lat="45.6764366" lon="13.754879"><ele>10.0</ele><time>2026-04-25T14:53:37.016Z</time></trkpt><trkpt lat="45.6765486" lon="13.7548157"><ele>10.0</ele><time>2026-04-25T14:53:38.007Z</time></trkpt><trkpt lat="45.6766591" lon="13.7547583"><ele>10.0</ele><time>2026-04-25T14:53:39.009Z</time></trkpt><trkpt lat="45.6767687" lon="13.7547064"><ele>10.0</ele><time>2026-04-25T14:53:40.003Z</time></trkpt><trkpt lat="45.6768758" lon="13.7546564"><ele>10.0</ele><time>2026-04-25T14:53:41.004Z</time></trkpt><trkpt lat="45.6769813" lon="13.7546008"><ele>10.0</ele><time>2026-04-25T14:53:42.009Z</time></trkpt><trkpt lat="45.6770892" lon="13.7545542"><ele>10.0</ele><time>2026-04-25T14:53:43.01Z</time></trkpt><trkpt lat="45.677199" lon="13.754527"><ele>10.0</ele><time>2026-04-25T14:53:44.004Z</time></trkpt><trkpt lat="45.677309" lon="13.7545197"><ele>9.8</ele><time>2026-04-25T14:53:45.006Z</time></trkpt><trkpt lat="45.67742" lon="13.7545257"><ele>9.6</ele><time>2026-04-25T14:53:46.009Z</time></trkpt><trkpt lat="45.677533" lon="13.754533"><ele>9.4</ele><time>2026-04-25T14:53:47.002Z</time></trkpt><trkpt lat="45.6776353" lon="13.7545366"><ele>9.2</ele><time>2026-04-25T14:53:48.028Z</time></trkpt><trkpt lat="45.6777285" lon="13.7545404"><ele>9.0</ele><time>2026-04-25T14:53:49.009Z</time></trkpt><trkpt lat="45.6778151" lon="13.7545428"><ele>8.5</ele><time>2026-04-25T14:53:50.013Z</time></trkpt><trkpt lat="45.6778845" lon="13.7545404"><ele>8.0</ele><time>2026-04-25T14:53:51.017Z</time></trkpt><trkpt lat="45.6779492" lon="13.7545288"><ele>7.5</ele><time>2026-04-25T14:53:53.007Z</time></trkpt><trkpt lat="45.6780415" lon="13.7545377"><ele>7.0</ele><time>2026-04-25T14:54:08.009Z</time></trkpt><trkpt lat="45.678152" lon="13.7545908"><ele>6.5</ele><time>2026-04-25T14:54:10.018Z</time></trkpt><trkpt lat="45.6782049" lon="13.754666"><ele>6.0</ele><time>2026-04-25T14:54:11.05Z</time></trkpt><trkpt lat="45.6782326" lon="13.7547711"><ele>6.0</ele><time>2026-04-25T14:54:11.994Z</time></trkpt><trkpt lat="45.6782343" lon="13.754914"><ele>6.0</ele><time>2026-04-25T14:54:13.016Z</time></trkpt><trkpt lat="45.6782301" lon="13.7550809"><ele>6.0</ele><time>2026-04-25T14:54:14.004Z</time></trkpt><trkpt lat="45.6782297" lon="13.755259"><ele>6.0</ele><time>2026-04-25T14:54:15.007Z</time></trkpt><trkpt lat="45.6782424" lon="13.755455"><ele>6.25</ele><time>2026-04-25T14:54:16Z</time></trkpt><trkpt lat="45.6782634" lon="13.7556568"><ele>6.5</ele><time>2026-04-25T14:54:16.998Z</time></trkpt><trkpt lat="45.6782867" lon="13.7558573"><ele>6.75</ele><time>2026-04-25T14:54:18.001Z</time></trkpt><trkpt lat="45.6782913" lon="13.7560548"><ele>7.0</ele><time>2026-04-25T14:54:19.002Z</time></trkpt><trkpt lat="45.6782735" lon="13.7562344"><ele>8.0</ele><time>2026-04-25T14:54:20.006Z</time></trkpt><trkpt lat="45.6782709" lon="13.7564128"><ele>9.0</ele><time>2026-04-25T14:54:21Z</time></trkpt><trkpt lat="45.6783142" lon="13.7565819"><ele>10.0</ele><time>2026-04-25T14:54:22.009Z</time></trkpt><trkpt lat="45.678389" lon="13.7567327"><ele>11.0</ele><time>2026-04-25T14:54:22.994Z</time></trkpt><trkpt lat="45.6784665" lon="13.7568461"><ele>11.8</ele><time>2026-04-25T14:54:24.011Z</time></trkpt><trkpt lat="45.678513" lon="13.7569464"><ele>12.600000000000001</ele><time>2026-04-25T14:54:25.001Z</time></trkpt><trkpt lat="45.6785312" lon="13.7570446"><ele>13.4</ele><time>2026-04-25T14:54:25.992Z</time></trkpt><trkpt lat="45.6785009" lon="13.7571846"><ele>14.2</ele><time>2026-04-25T14:54:26.984Z</time></trkpt><trkpt lat="45.6784445" lon="13.7573077"><ele>15.0</ele><time>2026-04-25T14:54:27.991Z</time></trkpt><trkpt lat="45.6783638" lon="13.7574064"><ele>15.0</ele><time>2026-04-25T14:54:28.991Z</time></trkpt><trkpt lat="45.6782504" lon="13.7575022"><ele>15.0</ele><time>2026-04-25T14:54:29.994Z</time></trkpt><trkpt lat="45.6781327" lon="13.7576232"><ele>15.0</ele><time>2026-04-25T14:54:30.994Z</time></trkpt><trkpt lat="45.6780441" lon="13.757791"><ele>15.0</ele><time>2026-04-25T14:54:31.999Z</time></trkpt><trkpt lat="45.6779908" lon="13.7579685"><ele>16.0</ele><time>2026-04-25T14:54:32.985Z</time></trkpt><trkpt lat="45.6779745" lon="13.7581337"><ele>17.0</ele><time>2026-04-25T14:54:34.002Z</time></trkpt><trkpt lat="45.6779883" lon="13.758281"><ele>18.0</ele><time>2026-04-25T14:54:34.988Z</time></trkpt><trkpt lat="45.6780176" lon="13.7584214"><ele>19.0</ele><time>2026-04-25T14:54:35.994Z</time></trkpt><trkpt lat="45.6780232" lon="13.7585515"><ele>20.0</ele><time>2026-04-25T14:54:36.994Z</time></trkpt><trkpt lat="45.6780163" lon="13.7586594"><ele>26.0</ele><time>2026-04-25T14:54:37.991Z</time></trkpt><trkpt lat="45.6779758" lon="13.758734"><ele>26.0</ele><time>2026-04-25T14:54:38.991Z</time></trkpt><trkpt lat="45.6779122" lon="13.7588444"><ele>26.0</ele><time>2026-04-25T14:54:40.997Z</time></trkpt></trkseg></trk></gpx>